<?xml version='1.0' encoding='UTF-8'?><gpx version="1.1" creator="JPX - https://github.com/jenetics/jpx" xmlns="http://www.topografix.com/GPX/1/1"><trk><trkseg><trkpt lat="45.459490575804814" lon="9.191682112415805"><ele>129.0</ele><time>2026-04-25T04:49:04.996Z</time></trkpt><trkpt lat="45.45951554662276" lon="9.191594897614667"><ele>129.0</ele><time>2026-04-25T04:49:07.996Z</time></trkpt><trkpt lat="45.45957590970754" lon="9.191532777349162"><ele>129.0</ele><time>2026-04-25T04:49:10.989Z</time></trkpt><trkpt lat="45.45964534217253" lon="9.191480087174458"><ele>129.0</ele><time>2026-04-25T04:49:13.991Z</time></trkpt><trkpt lat="45.459720991010286" lon="9.191448617595155"><ele>129.0</ele><time>2026-04-25T04:49:16.993Z</time></trkpt><trkpt lat="45.4597887270463" lon="9.19142141474714"><ele>129.0</ele><time>2026-04-25T04:49:19.994Z</time></trkpt><trkpt lat="45.45991732415872" lon="9.191347197865062"><ele>129.83333333333334</ele><time>2026-04-25T04:49:20.994Z</time></trkpt><trkpt lat="45.46000742126531" lon="9.191299738000248"><ele>130.66666666666666</ele><time>2026-04-25T04:49:23.995Z</time></trkpt><trkpt lat="45.460092142996096" lon="9.191247144286786"><ele>131.5</ele><time>2026-04-25T04:49:26.996Z</time></trkpt><trkpt lat="45.46016589674258" lon="9.19122666577852"><ele>132.33333333333331</ele><time>2026-04-25T04:49:28.997Z</time></trkpt><trkpt lat="45.46024301288096" lon="9.191211447565749"><ele>133.16666666666666</ele><time>2026-04-25T04:49:29.997Z</time></trkpt><trkpt lat="45.46029974766611" lon="9.191121084319933"><ele>134.0</ele><time>2026-04-25T04:49:31.997Z</time></trkpt><trkpt lat="45.460355387724164" lon="9.19103614606875"><ele>134.0</ele><time>2026-04-25T04:49:33.998Z</time></trkpt><trkpt lat="45.460421419680344" lon="9.190955466226884"><ele>134.0</ele><time>2026-04-25T04:49:35.998Z</time></trkpt><trkpt lat="45.460618705270456" lon="9.191013792318904"><ele>134.0</ele><time>2026-04-25T04:49:39.998Z</time></trkpt><trkpt lat="45.460669395153836" lon="9.191069491784262"><ele>134.0</ele><time>2026-04-25T04:49:40.998Z</time></trkpt><trkpt lat="45.460719115487905" lon="9.191141835652244"><ele>134.0</ele><time>2026-04-25T04:49:41.999Z</time></trkpt><trkpt lat="45.460761464266426" lon="9.191225241419666"><ele>132.71428571428572</ele><time>2026-04-25T04:49:42.999Z</time></trkpt><trkpt lat="45.460793372258934" lon="9.19130418624114"><ele>131.42857142857142</ele><time>2026-04-25T04:49:43.999Z</time></trkpt><trkpt lat="45.460832715618295" lon="9.191387759116669"><ele>130.14285714285714</ele><time>2026-04-25T04:49:44.999Z</time></trkpt><trkpt lat="45.46087653196572" lon="9.191466109530529"><ele>128.85714285714286</ele><time>2026-04-25T04:49:45.999Z</time></trkpt><trkpt lat="45.46093056341701" lon="9.19153062387237"><ele>127.57142857142858</ele><time>2026-04-25T04:49:46.999Z</time></trkpt><trkpt lat="45.460989090470946" lon="9.191590731392187"><ele>126.28571428571428</ele><time>2026-04-25T04:49:47.999Z</time></trkpt><trkpt lat="45.46104963697649" lon="9.191657071499629"><ele>125.0</ele><time>2026-04-25T04:49:48.999Z</time></trkpt><trkpt lat="45.46110516844044" lon="9.191725624094603"><ele>124.83333333333333</ele><time>2026-04-25T04:49:49.999Z</time></trkpt><trkpt lat="45.461157803292664" lon="9.191796687281798"><ele>124.66666666666666</ele><time>2026-04-25T04:49:50.999Z</time></trkpt><trkpt lat="45.46121667543324" lon="9.191874047772597"><ele>124.5</ele><time>2026-04-25T04:49:51.999Z</time></trkpt><trkpt lat="45.46127157080942" lon="9.191951557407961"><ele>124.33333333333334</ele><time>2026-04-25T04:49:52.999Z</time></trkpt><trkpt lat="45.46133129309716" lon="9.192016377078192"><ele>124.16666666666667</ele><time>2026-04-25T04:49:53.999Z</time></trkpt><trkpt lat="45.46138054506645" lon="9.192100206869275"><ele>124.0</ele><time>2026-04-25T04:49:54.999Z</time></trkpt><trkpt lat="45.4614405987708" lon="9.192165198062881"><ele>124.83333333333334</ele><time>2026-04-25T04:49:55.999Z</time></trkpt><trkpt lat="45.46149491331048" lon="9.192241925204408"><ele>125.66666666666667</ele><time>2026-04-25T04:49:56.999Z</time></trkpt><trkpt lat="45.461545737578284" lon="9.192319019564131"><ele>126.5</ele><time>2026-04-25T04:49:57.999Z</time></trkpt><trkpt lat="45.46159839028385" lon="9.192397958232208"><ele>127.33333333333334</ele><time>2026-04-25T04:49:58.999Z</time></trkpt><trkpt lat="45.461650114616525" lon="9.19247953456939"><ele>128.16666666666666</ele><time>2026-04-25T04:49:59.999Z</time></trkpt><trkpt lat="45.46170214775636" lon="9.192555568863156"><ele>129.0</ele><time>2026-04-25T04:50:00.999Z</time></trkpt><trkpt lat="45.4617547719062" lon="9.192631081404707"><ele>129.83333333333334</ele><time>2026-04-25T04:50:01.999Z</time></trkpt><trkpt lat="45.461809828368594" lon="9.192707437575741"><ele>130.66666666666666</ele><time>2026-04-25T04:50:02.999Z</time></trkpt><trkpt lat="45.46186015175149" lon="9.192792209130664"><ele>131.5</ele><time>2026-04-25T04:50:04Z</time></trkpt><trkpt lat="45.46191524108684" lon="9.19286965969382"><ele>132.33333333333331</ele><time>2026-04-25T04:50:05Z</time></trkpt><trkpt lat="45.46197247895449" lon="9.192947285182266"><ele>133.16666666666666</ele><time>2026-04-25T04:50:06Z</time></trkpt><trkpt lat="45.46201969417982" lon="9.19303277281394"><ele>134.0</ele><time>2026-04-25T04:50:07Z</time></trkpt><trkpt lat="45.46205255233162" lon="9.193114235618118"><ele>133.85714285714286</ele><time>2026-04-25T04:50:08Z</time></trkpt><trkpt lat="45.46208775799545" lon="9.193201065576545"><ele>133.71428571428572</ele><time>2026-04-25T04:50:09Z</time></trkpt><trkpt lat="45.46211929278121" lon="9.19328795042985"><ele>133.57142857142856</ele><time>2026-04-25T04:50:10Z</time></trkpt><trkpt lat="45.46215682332594" lon="9.193371844141971"><ele>133.42857142857144</ele><time>2026-04-25T04:50:11Z</time></trkpt><trkpt lat="45.46219704971904" lon="9.193442304583197"><ele>133.28571428571428</ele><time>2026-04-25T04:50:12Z</time></trkpt><trkpt lat="45.46225663231524" lon="9.193553541522265"><ele>133.14285714285714</ele><time>2026-04-25T04:50:14Z</time></trkpt><trkpt lat="45.46228612900648" lon="9.19363794187688"><ele>133.0</ele><time>2026-04-25T04:50:16Z</time></trkpt><trkpt lat="45.46234472686967" lon="9.193729997679776"><ele>132.16666666666669</ele><time>2026-04-25T04:50:19Z</time></trkpt><trkpt lat="45.4623875810811" lon="9.193801965534023"><ele>131.33333333333334</ele><time>2026-04-25T04:50:21Z</time></trkpt><trkpt lat="45.462434006595174" lon="9.19394099278883"><ele>130.5</ele><time>2026-04-25T04:50:23Z</time></trkpt><trkpt lat="45.46249829965649" lon="9.19409144394556"><ele>129.66666666666666</ele><time>2026-04-25T04:50:25Z</time></trkpt><trkpt lat="45.46254115129128" lon="9.194166100470241"><ele>128.83333333333331</ele><time>2026-04-25T04:50:26Z</time></trkpt><trkpt lat="45.46257250021114" lon="9.194247940599567"><ele>128.0</ele><time>2026-04-25T04:50:27Z</time></trkpt><trkpt lat="45.46264405644954" lon="9.19439827117928"><ele>127.85714285714285</ele><time>2026-04-25T04:50:29Z</time></trkpt><trkpt lat="45.4626839057322" lon="9.194477982915808"><ele>127.7142857142857</ele><time>2026-04-25T04:50:30Z</time></trkpt><trkpt lat="45.46272275017729" lon="9.194562330021578"><ele>127.57142857142857</ele><time>2026-04-25T04:50:31Z</time></trkpt><trkpt lat="45.46276007127479" lon="9.19464838463606"><ele>127.42857142857142</ele><time>2026-04-25T04:50:32Z</time></trkpt><trkpt lat="45.46280091582323" lon="9.194731632336167"><ele>127.28571428571428</ele><time>2026-04-25T04:50:33Z</time></trkpt><trkpt lat="45.46284207199474" lon="9.194813219856862"><ele>127.14285714285714</ele><time>2026-04-25T04:50:34Z</time></trkpt><trkpt lat="45.46286908300125" lon="9.194898315026547"><ele>127.0</ele><time>2026-04-25T04:50:35Z</time></trkpt><trkpt lat="45.462871599493006" lon="9.19500217296679"><ele>127.0</ele><time>2026-04-25T04:50:36Z</time></trkpt><trkpt lat="45.462884490659924" lon="9.195104095142064"><ele>127.0</ele><time>2026-04-25T04:50:37Z</time></trkpt><trkpt lat="45.462896174436665" lon="9.19520524530849"><ele>127.0</ele><time>2026-04-25T04:50:38Z</time></trkpt><trkpt lat="45.46290850808197" lon="9.195310264688905"><ele>127.0</ele><time>2026-04-25T04:50:39Z</time></trkpt><trkpt lat="45.46292915381032" lon="9.195414747757754"><ele>127.0</ele><time>2026-04-25T04:50:40Z</time></trkpt><trkpt lat="45.46293363916539" lon="9.195516624340375"><ele>127.0</ele><time>2026-04-25T04:50:41Z</time></trkpt><trkpt lat="45.46293911360857" lon="9.195615979278621"><ele>127.0</ele><time>2026-04-25T04:50:42Z</time></trkpt><trkpt lat="45.462940400557684" lon="9.195714432130416"><ele>127.00000000000001</ele><time>2026-04-25T04:50:43Z</time></trkpt><trkpt lat="45.46294718196107" lon="9.195806747511257"><ele>127.0</ele><time>2026-04-25T04:50:44Z</time></trkpt><trkpt lat="45.462951176033734" lon="9.195900126185483"><ele>127.0</ele><time>2026-04-25T04:50:45Z</time></trkpt><trkpt lat="45.4629618128047" lon="9.196074512987709"><ele>127.0</ele><time>2026-04-25T04:50:47Z</time></trkpt><trkpt lat="45.46297745779524" lon="9.19624732701833"><ele>127.00000000000001</ele><time>2026-04-25T04:50:48.999Z</time></trkpt><trkpt lat="45.46297934620829" lon="9.196345441535152"><ele>127.0</ele><time>2026-04-25T04:50:49.999Z</time></trkpt><trkpt lat="45.46297899303115" lon="9.196438052363339"><ele>127.0</ele><time>2026-04-25T04:50:50.999Z</time></trkpt><trkpt lat="45.462966861130205" lon="9.196533183872782"><ele>127.0</ele><time>2026-04-25T04:50:51.999Z</time></trkpt><trkpt lat="45.462968968441636" lon="9.196632010444066"><ele>127.0</ele><time>2026-04-25T04:50:52.999Z</time></trkpt><trkpt lat="45.46297575232586" lon="9.19672898759335"><ele>127.0</ele><time>2026-04-25T04:50:53.999Z</time></trkpt><trkpt lat="45.462961392014996" lon="9.19683123158762"><ele>127.0</ele><time>2026-04-25T04:50:54.999Z</time></trkpt><trkpt lat="45.462946742276046" lon="9.196931781493497"><ele>127.0</ele><time>2026-04-25T04:50:55.999Z</time></trkpt><trkpt lat="45.462927996508085" lon="9.197036675449178"><ele>127.0</ele><time>2026-04-25T04:50:56.999Z</time></trkpt><trkpt lat="45.462903333635246" lon="9.197135629876884"><ele>127.0</ele><time>2026-04-25T04:50:57.999Z</time></trkpt><trkpt lat="45.462852456788326" lon="9.197216828453334"><ele>127.0</ele><time>2026-04-25T04:50:58.999Z</time></trkpt><trkpt lat="45.462807878027505" lon="9.197300983776518"><ele>127.0</ele><time>2026-04-25T04:50:59.999Z</time></trkpt><trkpt lat="45.46276189437414" lon="9.1973859876733"><ele>127.0</ele><time>2026-04-25T04:51:00.999Z</time></trkpt><trkpt lat="45.46271790345834" lon="9.197466655931288"><ele>127.0</ele><time>2026-04-25T04:51:01.999Z</time></trkpt><trkpt lat="45.46267604675266" lon="9.197543562942819"><ele>127.0</ele><time>2026-04-25T04:51:02.999Z</time></trkpt><trkpt lat="45.46263568484919" lon="9.19761537673372"><ele>127.0</ele><time>2026-04-25T04:51:03.999Z</time></trkpt><trkpt lat="45.462594872461565" lon="9.197685066955634"><ele>126.83333333333334</ele><time>2026-04-25T04:51:04.999Z</time></trkpt><trkpt lat="45.46252650710247" lon="9.197794466763918"><ele>126.66666666666667</ele><time>2026-04-25T04:51:06.999Z</time></trkpt><trkpt lat="45.462474984237566" lon="9.197872837655598"><ele>126.5</ele><time>2026-04-25T04:51:09Z</time></trkpt><trkpt lat="45.46251586960332" lon="9.197983644698938"><ele>126.33333333333334</ele><time>2026-04-25T04:51:10Z</time></trkpt><trkpt lat="45.462488635460424" lon="9.198075866753529"><ele>126.16666666666667</ele><time>2026-04-25T04:51:23Z</time></trkpt><trkpt lat="45.462543794334415" lon="9.198155807566517"><ele>126.0</ele><time>2026-04-25T04:51:26Z</time></trkpt><trkpt lat="45.462612760809314" lon="9.19819702913003"><ele>126.0</ele><time>2026-04-25T04:51:28Z</time></trkpt><trkpt lat="45.46269368578324" lon="9.198276351412172"><ele>126.0</ele><time>2026-04-25T04:51:30Z</time></trkpt><trkpt lat="45.46278649345058" lon="9.198353327237884"><ele>126.0</ele><time>2026-04-25T04:51:32Z</time></trkpt><trkpt lat="45.462848662871615" lon="9.1983876567897"><ele>126.0</ele><time>2026-04-25T04:51:33Z</time></trkpt><trkpt lat="45.46295383217126" lon="9.198466461785712"><ele>126.0</ele><time>2026-04-25T04:51:35Z</time></trkpt><trkpt lat="45.46304300138334" lon="9.19854366910697"><ele>126.16666666666667</ele><time>2026-04-25T04:51:37Z</time></trkpt><trkpt lat="45.46311047297036" lon="9.198586307973757"><ele>126.33333333333334</ele><time>2026-04-25T04:51:39Z</time></trkpt><trkpt lat="45.46312689480608" lon="9.198731426359469"><ele>126.5</ele><time>2026-04-25T04:51:41Z</time></trkpt><trkpt lat="45.46319245789631" lon="9.1987940047654"><ele>126.66666666666667</ele><time>2026-04-25T04:51:44Z</time></trkpt><trkpt lat="45.46325367087737" lon="9.19886650899604"><ele>126.83333333333334</ele><time>2026-04-25T04:52:05Z</time></trkpt><trkpt lat="45.463338260437794" lon="9.198926919832793"><ele>127.0</ele><time>2026-04-25T04:52:08Z</time></trkpt><trkpt lat="45.46343671487801" lon="9.199017470738323"><ele>127.0</ele><time>2026-04-25T04:52:10Z</time></trkpt><trkpt lat="45.46350661857414" lon="9.199058310156273"><ele>127.0</ele><time>2026-04-25T04:52:11Z</time></trkpt><trkpt lat="45.46356886207897" lon="9.199119029527123"><ele>127.0</ele><time>2026-04-25T04:52:12Z</time></trkpt><trkpt lat="45.4636117462677" lon="9.199199138439704"><ele>127.0</ele><time>2026-04-25T04:52:13Z</time></trkpt><trkpt lat="45.463668041915284" lon="9.19925620776549"><ele>127.0</ele><time>2026-04-25T04:52:14Z</time></trkpt><trkpt lat="45.46372722815279" lon="9.199316207421518"><ele>127.0</ele><time>2026-04-25T04:52:15Z</time></trkpt><trkpt lat="45.46378694593931" lon="9.199376745925868"><ele>127.0</ele><time>2026-04-25T04:52:16Z</time></trkpt><trkpt lat="45.46384874428812" lon="9.199439393577759"><ele>127.33333333333334</ele><time>2026-04-25T04:52:17Z</time></trkpt><trkpt lat="45.46391478406422" lon="9.199504418309049"><ele>127.66666666666667</ele><time>2026-04-25T04:52:18Z</time></trkpt><trkpt lat="45.46397956241726" lon="9.199567751790442"><ele>128.0</ele><time>2026-04-25T04:52:18.999Z</time></trkpt><trkpt lat="45.46404488880985" lon="9.199626613811208"><ele>128.33333333333334</ele><time>2026-04-25T04:52:19.999Z</time></trkpt><trkpt lat="45.464113628917474" lon="9.199679305202764"><ele>128.66666666666666</ele><time>2026-04-25T04:52:20.999Z</time></trkpt><trkpt lat="45.46418943883056" lon="9.199727428798676"><ele>129.0</ele><time>2026-04-25T04:52:21.999Z</time></trkpt><trkpt lat="45.4642533957596" lon="9.199763439096358"><ele>128.99999999999997</ele><time>2026-04-25T04:52:22.999Z</time></trkpt><trkpt lat="45.464326292288625" lon="9.19979973351784"><ele>129.0</ele><time>2026-04-25T04:52:23.999Z</time></trkpt><trkpt lat="45.464392292088554" lon="9.199833575071091"><ele>129.0</ele><time>2026-04-25T04:52:24.999Z</time></trkpt><trkpt lat="45.46445969488766" lon="9.199869054180372"><ele>129.0</ele><time>2026-04-25T04:52:25.999Z</time></trkpt><trkpt lat="45.46452830936868" lon="9.19990595929392"><ele>129.0</ele><time>2026-04-25T04:52:26.999Z</time></trkpt><trkpt lat="45.46459785146152" lon="9.199943363338571"><ele>128.99999999999997</ele><time>2026-04-25T04:52:27.999Z</time></trkpt><trkpt lat="45.464671090780236" lon="9.199982906404156"><ele>129.0</ele><time>2026-04-25T04:52:28.999Z</time></trkpt><trkpt lat="45.46473280305555" lon="9.200016234618682"><ele>129.57142857142856</ele><time>2026-04-25T04:52:29.999Z</time></trkpt><trkpt lat="45.46479783984673" lon="9.200051358260154"><ele>130.14285714285714</ele><time>2026-04-25T04:52:30.999Z</time></trkpt><trkpt lat="45.464867782421514" lon="9.200089051786852"><ele>130.71428571428572</ele><time>2026-04-25T04:52:31.999Z</time></trkpt><trkpt lat="45.46493619665273" lon="9.200125775347175"><ele>131.28571428571428</ele><time>2026-04-25T04:52:32.999Z</time></trkpt><trkpt lat="45.465006963353595" lon="9.200163761677526"><ele>131.85714285714286</ele><time>2026-04-25T04:52:33.999Z</time></trkpt><trkpt lat="45.46507806774242" lon="9.200201929269634"><ele>132.42857142857142</ele><time>2026-04-25T04:52:34.999Z</time></trkpt><trkpt lat="45.465137100572996" lon="9.200234140571585"><ele>133.0</ele><time>2026-04-25T04:52:35.999Z</time></trkpt><trkpt lat="45.46520541999839" lon="9.200270753299353"><ele>133.0</ele><time>2026-04-25T04:52:36.999Z</time></trkpt><trkpt lat="45.465269923901765" lon="9.200304934853712"><ele>133.0</ele><time>2026-04-25T04:52:37.999Z</time></trkpt><trkpt lat="45.465331222128846" lon="9.200337417680416"><ele>133.0</ele><time>2026-04-25T04:52:38.999Z</time></trkpt><trkpt lat="45.46539227351061" lon="9.200367495179982"><ele>133.0</ele><time>2026-04-25T04:52:39.999Z</time></trkpt><trkpt lat="45.4654549176003" lon="9.200397278497952"><ele>133.0</ele><time>2026-04-25T04:52:40.999Z</time></trkpt><trkpt lat="45.46555111906947" lon="9.200439662910988"><ele>133.0</ele><time>2026-04-25T04:52:42.999Z</time></trkpt><trkpt lat="45.465637407656075" lon="9.200466849596735"><ele>132.4</ele><time>2026-04-25T04:52:44.999Z</time></trkpt><trkpt lat="45.46570782413137" lon="9.200481910397086"><ele>131.8</ele><time>2026-04-25T04:52:47.999Z</time></trkpt><trkpt lat="45.465795727181515" lon="9.200495966487479"><ele>131.2</ele><time>2026-04-25T04:52:56.999Z</time></trkpt><trkpt lat="45.465866467271034" lon="9.200499666366422"><ele>130.6</ele><time>2026-04-25T04:52:59.999Z</time></trkpt><trkpt lat="45.465936668393894" lon="9.20050425288245"><ele>130.0</ele><time>2026-04-25T04:53:01.999Z</time></trkpt><trkpt lat="45.46611021403836" lon="9.200497998591114"><ele>130.0</ele><time>2026-04-25T04:53:05.999Z</time></trkpt><trkpt lat="45.466222317619206" lon="9.200514288034032"><ele>130.0</ele><time>2026-04-25T04:53:07.999Z</time></trkpt><trkpt lat="45.46634138925685" lon="9.200534349032223"><ele>130.0</ele><time>2026-04-25T04:53:09.999Z</time></trkpt><trkpt lat="45.46646281805855" lon="9.200543749067181"><ele>130.0</ele><time>2026-04-25T04:53:11.999Z</time></trkpt><trkpt lat="45.46658778545912" lon="9.20055332502234"><ele>130.16666666666669</ele><time>2026-04-25T04:53:13.999Z</time></trkpt><trkpt lat="45.46670018766396" lon="9.200561932605238"><ele>130.33333333333334</ele><time>2026-04-25T04:53:16Z</time></trkpt><trkpt lat="45.46680318740667" lon="9.20056745448493"><ele>130.5</ele><time>2026-04-25T04:53:18Z</time></trkpt><trkpt lat="45.466872960825334" lon="9.200570128374368"><ele>130.66666666666666</ele><time>2026-04-25T04:53:21Z</time></trkpt><trkpt lat="45.466936020014224" lon="9.200572544959039"><ele>130.83333333333331</ele><time>2026-04-25T04:53:24Z</time></trkpt><trkpt lat="45.46700051637742" lon="9.200568429731117"><ele>131.0</ele><time>2026-04-25T04:53:26Z</time></trkpt><trkpt lat="45.46710113307737" lon="9.200559094158283"><ele>130.83333333333331</ele><time>2026-04-25T04:53:28Z</time></trkpt><trkpt lat="45.467160329020196" lon="9.200525994462517"><ele>130.66666666666666</ele><time>2026-04-25T04:53:29Z</time></trkpt><trkpt lat="45.46726374633455" lon="9.200451664313936"><ele>130.5</ele><time>2026-04-25T04:53:31Z</time></trkpt><trkpt lat="45.46732335878116" lon="9.200419656957138"><ele>130.33333333333334</ele><time>2026-04-25T04:53:32Z</time></trkpt><trkpt lat="45.467386723915446" lon="9.200381260592257"><ele>130.16666666666669</ele><time>2026-04-25T04:53:33Z</time></trkpt><trkpt lat="45.46744677901874" lon="9.200329707188123"><ele>130.0</ele><time>2026-04-25T04:53:34Z</time></trkpt><trkpt lat="45.46751090064234" lon="9.200291061930587"><ele>130.00000000000003</ele><time>2026-04-25T04:53:35Z</time></trkpt><trkpt lat="45.467575470585956" lon="9.200245100926042"><ele>130.0</ele><time>2026-04-25T04:53:36Z</time></trkpt><trkpt lat="45.467642609023315" lon="9.200197662186342"><ele>130.0</ele><time>2026-04-25T04:53:37Z</time></trkpt><trkpt lat="45.46770365789342" lon="9.200147831829808"><ele>130.0</ele><time>2026-04-25T04:53:38Z</time></trkpt><trkpt lat="45.46776486154321" lon="9.200102267315856"><ele>130.0</ele><time>2026-04-25T04:53:39Z</time></trkpt><trkpt lat="45.4678287625653" lon="9.200052122290183"><ele>130.00000000000003</ele><time>2026-04-25T04:53:40Z</time></trkpt><trkpt lat="45.46789251701356" lon="9.200005990155688"><ele>130.0</ele><time>2026-04-25T04:53:41Z</time></trkpt><trkpt lat="45.46795702096848" lon="9.199962441896375"><ele>130.00000000000003</ele><time>2026-04-25T04:53:42Z</time></trkpt><trkpt lat="45.468023401431296" lon="9.19992148784659"><ele>130.0</ele><time>2026-04-25T04:53:43Z</time></trkpt><trkpt lat="45.468084985676" lon="9.199872621011574"><ele>130.0</ele><time>2026-04-25T04:53:44Z</time></trkpt><trkpt lat="45.46814514252854" lon="9.199827878469508"><ele>130.0</ele><time>2026-04-25T04:53:45Z</time></trkpt><trkpt lat="45.468213851036005" lon="9.199790700433459"><ele>130.0</ele><time>2026-04-25T04:53:46Z</time></trkpt><trkpt lat="45.46827865672743" lon="9.199753230678116"><ele>130.00000000000003</ele><time>2026-04-25T04:53:47Z</time></trkpt><trkpt lat="45.46833548357166" lon="9.19971088863824"><ele>130.0</ele><time>2026-04-25T04:53:48Z</time></trkpt><trkpt lat="45.4683914438182" lon="9.1996642437456"><ele>130.00000000000003</ele><time>2026-04-25T04:53:49Z</time></trkpt><trkpt lat="45.46844446502838" lon="9.199611794178855"><ele>130.0</ele><time>2026-04-25T04:53:50Z</time></trkpt><trkpt lat="45.468501257181394" lon="9.199564678821032"><ele>130.0</ele><time>2026-04-25T04:53:51Z</time></trkpt><trkpt lat="45.46855873932634" lon="9.19951652537189"><ele>130.0</ele><time>2026-04-25T04:53:52Z</time></trkpt><trkpt lat="45.46861259369482" lon="9.19946169585032"><ele>130.0</ele><time>2026-04-25T04:53:53Z</time></trkpt><trkpt lat="45.46866513756998" lon="9.199407170457501"><ele>130.00000000000003</ele><time>2026-04-25T04:53:54Z</time></trkpt><trkpt lat="45.468719742287284" lon="9.199354254973525"><ele>130.0</ele><time>2026-04-25T04:53:55Z</time></trkpt><trkpt lat="45.46883263087257" lon="9.199308290955042"><ele>130.4</ele><time>2026-04-25T04:53:57Z</time></trkpt><trkpt lat="45.468947238036726" lon="9.199394073108401"><ele>130.8</ele><time>2026-04-25T04:53:59Z</time></trkpt><trkpt lat="45.46904228066606" lon="9.199518442693755"><ele>131.2</ele><time>2026-04-25T04:54:01Z</time></trkpt><trkpt lat="45.46909603639313" lon="9.199570601171954"><ele>131.6</ele><time>2026-04-25T04:54:02Z</time></trkpt><trkpt lat="45.46915146708468" lon="9.199627028762428"><ele>132.0</ele><time>2026-04-25T04:54:03Z</time></trkpt><trkpt lat="45.46922052447028" lon="9.199668429071561"><ele>132.0</ele><time>2026-04-25T04:54:04Z</time></trkpt><trkpt lat="45.4692845694914" lon="9.199720448099516"><ele>132.0</ele><time>2026-04-25T04:54:05Z</time></trkpt><trkpt lat="45.46933724692131" lon="9.199788627463702"><ele>132.0</ele><time>2026-04-25T04:54:06Z</time></trkpt><trkpt lat="45.46944615787815" lon="9.199893492499594"><ele>132.0</ele><time>2026-04-25T04:54:08Z</time></trkpt><trkpt lat="45.46950276601396" lon="9.199947994231682"><ele>132.0</ele><time>2026-04-25T04:54:09Z</time></trkpt><trkpt lat="45.46956481417279" lon="9.200007733445215"><ele>132.0</ele><time>2026-04-25T04:54:10Z</time></trkpt><trkpt lat="45.46962562704858" lon="9.20006803000375"><ele>132.0</ele><time>2026-04-25T04:54:11Z</time></trkpt><trkpt lat="45.46968739210901" lon="9.200128273877361"><ele>132.0</ele><time>2026-04-25T04:54:12Z</time></trkpt><trkpt lat="45.46974539209268" lon="9.20018490780793"><ele>132.0</ele><time>2026-04-25T04:54:13Z</time></trkpt><trkpt lat="45.46981006471548" lon="9.200249388092852"><ele>132.0</ele><time>2026-04-25T04:54:14Z</time></trkpt><trkpt lat="45.469870654843014" lon="9.200309798025293"><ele>132.0</ele><time>2026-04-25T04:54:15Z</time></trkpt><trkpt lat="45.46992956493815" lon="9.200369734215366"><ele>132.0</ele><time>2026-04-25T04:54:16Z</time></trkpt><trkpt lat="45.46998920071729" lon="9.200430551867308"><ele>132.0</ele><time>2026-04-25T04:54:17Z</time></trkpt><trkpt lat="45.47004941302954" lon="9.200491960794812"><ele>132.0</ele><time>2026-04-25T04:54:18Z</time></trkpt><trkpt lat="45.47010844561021" lon="9.200559167979016"><ele>132.0</ele><time>2026-04-25T04:54:19Z</time></trkpt><trkpt lat="45.47016575321797" lon="9.200621270005522"><ele>132.0</ele><time>2026-04-25T04:54:20Z</time></trkpt><trkpt lat="45.47022511493967" lon="9.200687538375622"><ele>132.0</ele><time>2026-04-25T04:54:21Z</time></trkpt><trkpt lat="45.47028334616751" lon="9.200752544758524"><ele>132.0</ele><time>2026-04-25T04:54:22Z</time></trkpt><trkpt lat="45.47034067121847" lon="9.200816539528503"><ele>132.0</ele><time>2026-04-25T04:54:23Z</time></trkpt><trkpt lat="45.470392904814496" lon="9.20087592416853"><ele>132.0</ele><time>2026-04-25T04:54:24Z</time></trkpt><trkpt lat="45.47044552016849" lon="9.200935958314718"><ele>132.0</ele><time>2026-04-25T04:54:25Z</time></trkpt><trkpt lat="45.47052931465366" lon="9.201031567868734"><ele>132.0</ele><time>2026-04-25T04:54:27Z</time></trkpt><trkpt lat="45.470594207679966" lon="9.201105610822575"><ele>132.0</ele><time>2026-04-25T04:54:29Z</time></trkpt><trkpt lat="45.47067854355128" lon="9.20120183731905"><ele>132.0</ele><time>2026-04-25T04:54:31Z</time></trkpt><trkpt lat="45.47076914164003" lon="9.201307166434484"><ele>132.0</ele><time>2026-04-25T04:54:33Z</time></trkpt><trkpt lat="45.470864025200115" lon="9.201415702792222"><ele>132.0</ele><time>2026-04-25T04:54:35Z</time></trkpt><trkpt lat="45.47091543994204" lon="9.201473937893805"><ele>132.0</ele><time>2026-04-25T04:54:36Z</time></trkpt><trkpt lat="45.47096736984768" lon="9.201532791578092"><ele>132.0</ele><time>2026-04-25T04:54:37Z</time></trkpt><trkpt lat="45.47102071664474" lon="9.201596499222847"><ele>132.0</ele><time>2026-04-25T04:54:38Z</time></trkpt><trkpt lat="45.47107491009172" lon="9.20165549207472"><ele>132.0</ele><time>2026-04-25T04:54:38.999Z</time></trkpt><trkpt lat="45.47112704068446" lon="9.20171223940379"><ele>132.0</ele><time>2026-04-25T04:54:39.999Z</time></trkpt><trkpt lat="45.47118201898689" lon="9.201772918980696"><ele>132.0</ele><time>2026-04-25T04:54:40.999Z</time></trkpt><trkpt lat="45.47123458171523" lon="9.20183135855472"><ele>131.33333333333334</ele><time>2026-04-25T04:54:41.999Z</time></trkpt><trkpt lat="45.471288979123756" lon="9.201891180485017"><ele>130.66666666666666</ele><time>2026-04-25T04:54:42.999Z</time></trkpt><trkpt lat="45.47134426072987" lon="9.201950188219016"><ele>130.0</ele><time>2026-04-25T04:54:43.999Z</time></trkpt><trkpt lat="45.47139724394072" lon="9.202006742650703"><ele>129.33333333333331</ele><time>2026-04-25T04:54:44.999Z</time></trkpt><trkpt lat="45.47144903160389" lon="9.202061992465635"><ele>128.66666666666666</ele><time>2026-04-25T04:54:45.999Z</time></trkpt><trkpt lat="45.47154739299338" lon="9.202165087970554"><ele>128.0</ele><time>2026-04-25T04:54:47.999Z</time></trkpt><trkpt lat="45.47164831429275" lon="9.202253340177966"><ele>128.5</ele><time>2026-04-25T04:54:49.999Z</time></trkpt><trkpt lat="45.471736952152774" lon="9.202366270981702"><ele>129.0</ele><time>2026-04-25T04:54:51.999Z</time></trkpt><trkpt lat="45.47183240539091" lon="9.202474456700394"><ele>129.5</ele><time>2026-04-25T04:54:53.999Z</time></trkpt><trkpt lat="45.47191638314976" lon="9.202580587363013"><ele>130.0</ele><time>2026-04-25T04:54:55.999Z</time></trkpt><trkpt lat="45.471990939968464" lon="9.202695594119344"><ele>130.00000000000003</ele><time>2026-04-25T04:54:57.999Z</time></trkpt><trkpt lat="45.47207385041451" lon="9.202778385319805"><ele>130.0</ele><time>2026-04-25T04:54:59.999Z</time></trkpt><trkpt lat="45.472129384330835" lon="9.202835534571252"><ele>130.0</ele><time>2026-04-25T04:55:01.999Z</time></trkpt><trkpt lat="45.47218307261944" lon="9.202890839791724"><ele>130.0</ele><time>2026-04-25T04:55:05.999Z</time></trkpt><trkpt lat="45.47220054989173" lon="9.202991588610752"><ele>130.0</ele><time>2026-04-25T05:04:22Z</time></trkpt><trkpt lat="45.47225850471256" lon="9.203035389626486"><ele>130.00000000000003</ele><time>2026-04-25T05:04:25Z</time></trkpt><trkpt lat="45.47230389043522" lon="9.203101901371587"><ele>130.0</ele><time>2026-04-25T05:04:27Z</time></trkpt><trkpt lat="45.4723661574832" lon="9.20316883811217"><ele>129.4</ele><time>2026-04-25T05:04:29Z</time></trkpt><trkpt lat="45.47243863425627" lon="9.203237333249303"><ele>128.8</ele><time>2026-04-25T05:04:31Z</time></trkpt><trkpt lat="45.472515019398976" lon="9.203318561780739"><ele>128.2</ele><time>2026-04-25T05:04:33Z</time></trkpt><trkpt lat="45.472596672134486" lon="9.203393158137683"><ele>127.6</ele><time>2026-04-25T05:04:35Z</time></trkpt><trkpt lat="45.47267323617548" lon="9.203476137463841"><ele>127.0</ele><time>2026-04-25T05:04:37Z</time></trkpt><trkpt lat="45.47275850374287" lon="9.203558028132697"><ele>127.0</ele><time>2026-04-25T05:04:39Z</time></trkpt><trkpt lat="45.47284471014715" lon="9.203641918851469"><ele>126.99999999999999</ele><time>2026-04-25T05:04:41Z</time></trkpt><trkpt lat="45.472916434602396" lon="9.203632844513512"><ele>126.99999999999999</ele><time>2026-04-25T05:04:42Z</time></trkpt><trkpt lat="45.47300330333195" lon="9.203720228591813"><ele>127.0</ele><time>2026-04-25T05:04:44Z</time></trkpt><trkpt lat="45.47308044267253" lon="9.203797825358919"><ele>127.0</ele><time>2026-04-25T05:04:46Z</time></trkpt><trkpt lat="45.47315697239974" lon="9.20387480839989"><ele>126.8</ele><time>2026-04-25T05:04:48Z</time></trkpt><trkpt lat="45.47323585965574" lon="9.203954248620924"><ele>126.6</ele><time>2026-04-25T05:04:50Z</time></trkpt><trkpt lat="45.47332786669779" lon="9.204046844614446"><ele>126.39999999999999</ele><time>2026-04-25T05:04:52Z</time></trkpt><trkpt lat="45.47341583267502" lon="9.20413537367321"><ele>126.19999999999999</ele><time>2026-04-25T05:04:54Z</time></trkpt><trkpt lat="45.47349043007148" lon="9.20421044855277"><ele>126.0</ele><time>2026-04-25T05:04:56Z</time></trkpt><trkpt lat="45.47357150118138" lon="9.204292038605969"><ele>126.0</ele><time>2026-04-25T05:04:58Z</time></trkpt><trkpt lat="45.47365986540634" lon="9.204380331075557"><ele>126.0</ele><time>2026-04-25T05:05:00Z</time></trkpt><trkpt lat="45.47374809160118" lon="9.204468519128888"><ele>126.0</ele><time>2026-04-25T05:05:02Z</time></trkpt><trkpt lat="45.47383287292127" lon="9.204554438687556"><ele>126.0</ele><time>2026-04-25T05:05:04Z</time></trkpt><trkpt lat="45.473909475163666" lon="9.20463229670291"><ele>126.0</ele><time>2026-04-25T05:05:06Z</time></trkpt><trkpt lat="45.4739699915235" lon="9.204693805124021"><ele>126.5</ele><time>2026-04-25T05:05:08Z</time></trkpt><trkpt lat="45.47396384608201" lon="9.204785705919791"><ele>127.0</ele><time>2026-04-25T05:05:09Z</time></trkpt><trkpt lat="45.47402610968685" lon="9.204853243469193"><ele>127.5</ele><time>2026-04-25T05:05:12Z</time></trkpt><trkpt lat="45.47414273472149" lon="9.204880455231583"><ele>128.0</ele><time>2026-04-25T05:06:09.001Z</time></trkpt><trkpt lat="45.474221145394004" lon="9.204950800974046"><ele>128.5</ele><time>2026-04-25T05:06:12.001Z</time></trkpt><trkpt lat="45.47428965327041" lon="9.205013062756414"><ele>129.0</ele><time>2026-04-25T05:06:14.001Z</time></trkpt><trkpt lat="45.47436154224517" lon="9.205086409492592"><ele>129.0</ele><time>2026-04-25T05:06:16Z</time></trkpt><trkpt lat="45.474440610494696" lon="9.205164553016647"><ele>129.0</ele><time>2026-04-25T05:06:18Z</time></trkpt><trkpt lat="45.474518960031915" lon="9.20523551093166"><ele>129.0</ele><time>2026-04-25T05:06:20Z</time></trkpt><trkpt lat="45.47459371581096" lon="9.205307395189614"><ele>129.0</ele><time>2026-04-25T05:06:22Z</time></trkpt><trkpt lat="45.47466670049708" lon="9.205375714288317"><ele>129.0</ele><time>2026-04-25T05:06:24Z</time></trkpt><trkpt lat="45.474754735888425" lon="9.205452143040905"><ele>129.0</ele><time>2026-04-25T05:06:26Z</time></trkpt><trkpt lat="45.47485601200869" lon="9.205543707861791"><ele>129.0</ele><time>2026-04-25T05:06:28Z</time></trkpt><trkpt lat="45.4749520293169" lon="9.205624698304142"><ele>129.0</ele><time>2026-04-25T05:06:30Z</time></trkpt><trkpt lat="45.475054772541604" lon="9.205716749780251"><ele>129.0</ele><time>2026-04-25T05:06:32Z</time></trkpt><trkpt lat="45.47515983526725" lon="9.205810628296755"><ele>129.16666666666666</ele><time>2026-04-25T05:06:34Z</time></trkpt><trkpt lat="45.475262602773" lon="9.205904651884936"><ele>129.33333333333334</ele><time>2026-04-25T05:06:36Z</time></trkpt><trkpt lat="45.47531702781769" lon="9.20595489238884"><ele>129.5</ele><time>2026-04-25T05:06:37Z</time></trkpt><trkpt lat="45.47537035953971" lon="9.206005313799686"><ele>129.66666666666669</ele><time>2026-04-25T05:06:38Z</time></trkpt><trkpt lat="45.475474516776025" lon="9.206104028764274"><ele>129.83333333333334</ele><time>2026-04-25T05:06:40Z</time></trkpt><trkpt lat="45.47552772938873" lon="9.206158444957575"><ele>130.0</ele><time>2026-04-25T05:06:41Z</time></trkpt><trkpt lat="45.475580931013454" lon="9.206211816849533"><ele>130.0</ele><time>2026-04-25T05:06:42Z</time></trkpt><trkpt lat="45.47563549295023" lon="9.206262708718192"><ele>130.0</ele><time>2026-04-25T05:06:43Z</time></trkpt><trkpt lat="45.47573580877633" lon="9.20636609002411"><ele>130.0</ele><time>2026-04-25T05:06:45Z</time></trkpt><trkpt lat="45.47584085082267" lon="9.206463403454341"><ele>130.0</ele><time>2026-04-25T05:06:47Z</time></trkpt><trkpt lat="45.47593933082105" lon="9.206555556841543"><ele>130.0</ele><time>2026-04-25T05:06:49Z</time></trkpt><trkpt lat="45.47602981875551" lon="9.206647266494965"><ele>129.66666666666669</ele><time>2026-04-25T05:06:51Z</time></trkpt><trkpt lat="45.47610304792207" lon="9.206739644014432"><ele>129.33333333333334</ele><time>2026-04-25T05:06:53Z</time></trkpt><trkpt lat="45.476165562946036" lon="9.206810921816498"><ele>129.0</ele><time>2026-04-25T05:06:55Z</time></trkpt><trkpt lat="45.47622540345045" lon="9.206870562621114"><ele>128.66666666666666</ele><time>2026-04-25T05:06:57Z</time></trkpt><trkpt lat="45.476291951875126" lon="9.206929787600933"><ele>128.33333333333331</ele><time>2026-04-25T05:06:59Z</time></trkpt><trkpt lat="45.47636020739802" lon="9.20699956522464"><ele>128.0</ele><time>2026-04-25T05:07:01Z</time></trkpt><trkpt lat="45.476437223255196" lon="9.20708305923236"><ele>128.0</ele><time>2026-04-25T05:07:03Z</time></trkpt><trkpt lat="45.47652300913607" lon="9.207172224263624"><ele>128.0</ele><time>2026-04-25T05:07:05Z</time></trkpt><trkpt lat="45.47660934328537" lon="9.207267228536347"><ele>128.0</ele><time>2026-04-25T05:07:07Z</time></trkpt><trkpt lat="45.476707090489356" lon="9.207355849509222"><ele>128.0</ele><time>2026-04-25T05:07:09Z</time></trkpt><trkpt lat="45.47681051984004" lon="9.207452867670707"><ele>128.14285714285714</ele><time>2026-04-25T05:07:11Z</time></trkpt><trkpt lat="45.476864205054916" lon="9.207501949575326"><ele>128.28571428571428</ele><time>2026-04-25T05:07:12Z</time></trkpt><trkpt lat="45.476918118824585" lon="9.207556765758728"><ele>128.42857142857142</ele><time>2026-04-25T05:07:13Z</time></trkpt><trkpt lat="45.47697213374024" lon="9.207609449544611"><ele>128.57142857142856</ele><time>2026-04-25T05:07:14Z</time></trkpt><trkpt lat="45.47703230658359" lon="9.207657902229494"><ele>128.71428571428572</ele><time>2026-04-25T05:07:15Z</time></trkpt><trkpt lat="45.4770837919651" lon="9.20771167446683"><ele>128.85714285714283</ele><time>2026-04-25T05:07:16Z</time></trkpt><trkpt lat="45.47713675166149" lon="9.207766592387411"><ele>129.0</ele><time>2026-04-25T05:07:17Z</time></trkpt><trkpt lat="45.4771903748926" lon="9.207820568428634"><ele>129.0</ele><time>2026-04-25T05:07:18Z</time></trkpt><trkpt lat="45.4772856501614" lon="9.207915096357354"><ele>129.0</ele><time>2026-04-25T05:07:20Z</time></trkpt><trkpt lat="45.47736198704113" lon="9.208010482401264"><ele>129.0</ele><time>2026-04-25T05:07:22Z</time></trkpt><trkpt lat="45.47741589329248" lon="9.208095798390197"><ele>129.0</ele><time>2026-04-25T05:07:24Z</time></trkpt><trkpt lat="45.477472768412476" lon="9.20814682396947"><ele>129.0</ele><time>2026-04-25T05:07:26Z</time></trkpt><trkpt lat="45.47753461748879" lon="9.208213610924265"><ele>129.0</ele><time>2026-04-25T05:07:29Z</time></trkpt><trkpt lat="45.47759391319473" lon="9.208278690724104"><ele>129.0</ele><time>2026-04-25T05:07:31Z</time></trkpt><trkpt lat="45.47766453384706" lon="9.208364504093941"><ele>129.0</ele><time>2026-04-25T05:07:33Z</time></trkpt><trkpt lat="45.477746936658846" lon="9.20845220124497"><ele>129.0</ele><time>2026-04-25T05:07:35Z</time></trkpt><trkpt lat="45.47783675050809" lon="9.208542150763613"><ele>129.0</ele><time>2026-04-25T05:07:37Z</time></trkpt><trkpt lat="45.477924479695034" lon="9.208630785374957"><ele>129.0</ele><time>2026-04-25T05:07:39Z</time></trkpt><trkpt lat="45.47801136491349" lon="9.208721562898583"><ele>128.2</ele><time>2026-04-25T05:07:41Z</time></trkpt><trkpt lat="45.47809708690755" lon="9.208807613101092"><ele>127.4</ele><time>2026-04-25T05:07:43Z</time></trkpt><trkpt lat="45.47817672204577" lon="9.208889341795146"><ele>126.6</ele><time>2026-04-25T05:07:45Z</time></trkpt><trkpt lat="45.478245218556964" lon="9.208989490049616"><ele>125.8</ele><time>2026-04-25T05:07:47Z</time></trkpt><trkpt lat="45.47834746976594" lon="9.209071941371484"><ele>125.0</ele><time>2026-04-25T05:07:49Z</time></trkpt><trkpt lat="45.47843505950761" lon="9.209169996091017"><ele>125.0</ele><time>2026-04-25T05:07:51Z</time></trkpt><trkpt lat="45.47853009080983" lon="9.209271273718869"><ele>125.0</ele><time>2026-04-25T05:07:53Z</time></trkpt><trkpt lat="45.478633717373114" lon="9.209366981033464"><ele>125.0</ele><time>2026-04-25T05:07:55Z</time></trkpt><trkpt lat="45.478735530306366" lon="9.209459034927654"><ele>125.0</ele><time>2026-04-25T05:07:57.001Z</time></trkpt><trkpt lat="45.47883197783066" lon="9.209545676650734"><ele>124.8</ele><time>2026-04-25T05:07:59.001Z</time></trkpt><trkpt lat="45.47891172654522" lon="9.20961598943628"><ele>124.6</ele><time>2026-04-25T05:08:01.001Z</time></trkpt><trkpt lat="45.478985411054644" lon="9.209695125223865"><ele>124.4</ele><time>2026-04-25T05:08:03.001Z</time></trkpt><trkpt lat="45.4790850662263" lon="9.209760133647508"><ele>124.2</ele><time>2026-04-25T05:08:05.001Z</time></trkpt><trkpt lat="45.47916937200676" lon="9.209848287997701"><ele>124.0</ele><time>2026-04-25T05:08:07.001Z</time></trkpt><trkpt lat="45.479264052054525" lon="9.209938783870314"><ele>125.0</ele><time>2026-04-25T05:08:09.001Z</time></trkpt><trkpt lat="45.47936204530832" lon="9.210025178460313"><ele>126.0</ele><time>2026-04-25T05:08:11.001Z</time></trkpt><trkpt lat="45.479462558193774" lon="9.210118975022283"><ele>127.0</ele><time>2026-04-25T05:08:13.001Z</time></trkpt><trkpt lat="45.47956523113995" lon="9.21021272775822"><ele>128.0</ele><time>2026-04-25T05:08:15.001Z</time></trkpt><trkpt lat="45.47966896247042" lon="9.210311436048569"><ele>128.28571428571428</ele><time>2026-04-25T05:08:17.001Z</time></trkpt><trkpt lat="45.47972253795534" lon="9.210365402624253"><ele>128.57142857142856</ele><time>2026-04-25T05:08:18.001Z</time></trkpt><trkpt lat="45.47977638703175" lon="9.210417134089719"><ele>128.85714285714286</ele><time>2026-04-25T05:08:19.001Z</time></trkpt><trkpt lat="45.47983397934217" lon="9.210473131506603"><ele>129.14285714285714</ele><time>2026-04-25T05:08:20.001Z</time></trkpt><trkpt lat="45.479888420719796" lon="9.210528873134535"><ele>129.42857142857144</ele><time>2026-04-25T05:08:21.001Z</time></trkpt><trkpt lat="45.479946012213716" lon="9.210588183212995"><ele>129.71428571428572</ele><time>2026-04-25T05:08:22.001Z</time></trkpt><trkpt lat="45.47999961603866" lon="9.210650637122251"><ele>130.0</ele><time>2026-04-25T05:08:23.001Z</time></trkpt><trkpt lat="45.4800556682293" lon="9.210710259642859"><ele>130.16666666666669</ele><time>2026-04-25T05:08:24.001Z</time></trkpt><trkpt lat="45.48011046368465" lon="9.210771896294785"><ele>130.33333333333334</ele><time>2026-04-25T05:08:25.001Z</time></trkpt><trkpt lat="45.480167353098054" lon="9.210835705087948"><ele>130.5</ele><time>2026-04-25T05:08:26.001Z</time></trkpt><trkpt lat="45.48021310820946" lon="9.210906184490224"><ele>130.66666666666666</ele><time>2026-04-25T05:08:27.001Z</time></trkpt><trkpt lat="45.48031280592025" lon="9.211017155202997"><ele>130.83333333333331</ele><time>2026-04-25T05:08:29Z</time></trkpt><trkpt lat="45.48037052207619" lon="9.211065334998706"><ele>131.0</ele><time>2026-04-25T05:08:30Z</time></trkpt><trkpt lat="45.48042291987347" lon="9.211116733302958"><ele>130.85714285714286</ele><time>2026-04-25T05:08:31Z</time></trkpt><trkpt lat="45.48048135676629" lon="9.211166796578382"><ele>130.71428571428572</ele><time>2026-04-25T05:08:32Z</time></trkpt><trkpt lat="45.48053707381597" lon="9.211219994964202"><ele>130.57142857142858</ele><time>2026-04-25T05:08:33Z</time></trkpt><trkpt lat="45.48059563669073" lon="9.21127209304865"><ele>130.42857142857144</ele><time>2026-04-25T05:08:34Z</time></trkpt><trkpt lat="45.48065116755666" lon="9.211316757243896"><ele>130.28571428571428</ele><time>2026-04-25T05:08:35Z</time></trkpt><trkpt lat="45.480707042263695" lon="9.211362429895441"><ele>130.14285714285717</ele><time>2026-04-25T05:08:36Z</time></trkpt><trkpt lat="45.480763275242175" lon="9.211410340884258"><ele>130.0</ele><time>2026-04-25T05:08:37Z</time></trkpt><trkpt lat="45.48086235008184" lon="9.211515906086033"><ele>130.33333333333334</ele><time>2026-04-25T05:08:39Z</time></trkpt><trkpt lat="45.48095370431293" lon="9.211619354442417"><ele>130.66666666666669</ele><time>2026-04-25T05:08:41Z</time></trkpt><trkpt lat="45.481061475960544" lon="9.21172023988783"><ele>131.0</ele><time>2026-04-25T05:08:43Z</time></trkpt><trkpt lat="45.481120315735005" lon="9.211769627659304"><ele>131.33333333333334</ele><time>2026-04-25T05:08:44Z</time></trkpt><trkpt lat="45.48117479969895" lon="9.211822379513599"><ele>131.66666666666666</ele><time>2026-04-25T05:08:45Z</time></trkpt><trkpt lat="45.4812299604136" lon="9.211869305179901"><ele>132.0</ele><time>2026-04-25T05:08:46Z</time></trkpt><trkpt lat="45.48128125072865" lon="9.2119232345518"><ele>132.0</ele><time>2026-04-25T05:08:47Z</time></trkpt><trkpt lat="45.481376412349555" lon="9.212024174834667"><ele>132.0</ele><time>2026-04-25T05:08:49Z</time></trkpt><trkpt lat="45.48146360497753" lon="9.21210887558816"><ele>132.0</ele><time>2026-04-25T05:08:51Z</time></trkpt><trkpt lat="45.48155028572432" lon="9.212177445418842"><ele>132.0</ele><time>2026-04-25T05:08:53Z</time></trkpt><trkpt lat="45.481615800437964" lon="9.212246644590211"><ele>132.0</ele><time>2026-04-25T05:08:55Z</time></trkpt><trkpt lat="45.48168074426278" lon="9.212302771594864"><ele>131.66666666666666</ele><time>2026-04-25T05:08:57Z</time></trkpt><trkpt lat="45.481741393324455" lon="9.212350078666733"><ele>131.33333333333334</ele><time>2026-04-25T05:09:00Z</time></trkpt><trkpt lat="45.481808627518035" lon="9.212401179150541"><ele>131.0</ele><time>2026-04-25T05:09:04Z</time></trkpt><trkpt lat="45.48189946123988" lon="9.21247399217026"><ele>130.66666666666669</ele><time>2026-04-25T05:09:07Z</time></trkpt><trkpt lat="45.48195129478459" lon="9.212536351360438"><ele>130.33333333333334</ele><time>2026-04-25T05:09:09Z</time></trkpt><trkpt lat="45.48203785961224" lon="9.212605275928002"><ele>130.0</ele><time>2026-04-25T05:09:11Z</time></trkpt><trkpt lat="45.48211685626044" lon="9.212695578459362"><ele>130.0</ele><time>2026-04-25T05:09:13Z</time></trkpt><trkpt lat="45.48220445698669" lon="9.212748105628352"><ele>130.0</ele><time>2026-04-25T05:09:46Z</time></trkpt><trkpt lat="45.482250588016164" lon="9.212815270268134"><ele>130.0</ele><time>2026-04-25T05:09:49Z</time></trkpt><trkpt lat="45.482305209669775" lon="9.212907121117638"><ele>130.0</ele><time>2026-04-25T05:09:52Z</time></trkpt><trkpt lat="45.48235460346851" lon="9.212965927346355"><ele>130.0</ele><time>2026-04-25T05:09:54Z</time></trkpt><trkpt lat="45.48242667522114" lon="9.213026494488409"><ele>130.0</ele><time>2026-04-25T05:09:56Z</time></trkpt><trkpt lat="45.482507881772385" lon="9.21310937337761"><ele>130.2</ele><time>2026-04-25T05:09:58Z</time></trkpt><trkpt lat="45.482593404101756" lon="9.213192923073914"><ele>130.4</ele><time>2026-04-25T05:10:00Z</time></trkpt><trkpt lat="45.48267844968042" lon="9.213278957394602"><ele>130.6</ele><time>2026-04-25T05:10:02.001Z</time></trkpt><trkpt lat="45.482766733963444" lon="9.213371615695936"><ele>130.8</ele><time>2026-04-25T05:10:04.001Z</time></trkpt><trkpt lat="45.48286888397355" lon="9.21346771305208"><ele>131.0</ele><time>2026-04-25T05:10:06.001Z</time></trkpt><trkpt lat="45.48296222567885" lon="9.213562814355026"><ele>131.0</ele><time>2026-04-25T05:10:08.001Z</time></trkpt><trkpt lat="45.48305796015278" lon="9.213649345275694"><ele>131.0</ele><time>2026-04-25T05:10:10.001Z</time></trkpt><trkpt lat="45.483158538827595" lon="9.213728644571345"><ele>131.0</ele><time>2026-04-25T05:10:12.001Z</time></trkpt><trkpt lat="45.48324733963222" lon="9.213848881315597"><ele>131.0</ele><time>2026-04-25T05:10:14.001Z</time></trkpt><trkpt lat="45.48329545845091" lon="9.213909678968927"><ele>131.0</ele><time>2026-04-25T05:10:15.001Z</time></trkpt><trkpt lat="45.48334366118133" lon="9.213968477378584"><ele>130.4</ele><time>2026-04-25T05:10:16.001Z</time></trkpt><trkpt lat="45.48343161628665" lon="9.214069483792295"><ele>129.8</ele><time>2026-04-25T05:10:18.001Z</time></trkpt><trkpt lat="45.48353105772499" lon="9.214172307210061"><ele>129.20000000000002</ele><time>2026-04-25T05:10:20.001Z</time></trkpt><trkpt lat="45.48358411594087" lon="9.214223998670233"><ele>128.6</ele><time>2026-04-25T05:10:21.001Z</time></trkpt><trkpt lat="45.483635647279996" lon="9.21427927943917"><ele>128.0</ele><time>2026-04-25T05:10:22.001Z</time></trkpt><trkpt lat="45.48373659199378" lon="9.21438518208377"><ele>128.20000000000002</ele><time>2026-04-25T05:10:24.001Z</time></trkpt><trkpt lat="45.48379102039788" lon="9.21444149917994"><ele>128.4</ele><time>2026-04-25T05:10:25.001Z</time></trkpt><trkpt lat="45.48388336441881" lon="9.214554992539021"><ele>128.60000000000002</ele><time>2026-04-25T05:10:27.001Z</time></trkpt><trkpt lat="45.48398445954188" lon="9.214644252695603"><ele>128.8</ele><time>2026-04-25T05:10:29.001Z</time></trkpt><trkpt lat="45.4840799094025" lon="9.214734626094216"><ele>129.0</ele><time>2026-04-25T05:10:31Z</time></trkpt><trkpt lat="45.4841731219731" lon="9.214826547218761"><ele>129.16666666666666</ele><time>2026-04-25T05:10:33Z</time></trkpt><trkpt lat="45.48425705820144" lon="9.214912087281915"><ele>129.33333333333334</ele><time>2026-04-25T05:10:35Z</time></trkpt><trkpt lat="45.484337313813974" lon="9.214995335326817"><ele>129.5</ele><time>2026-04-25T05:10:37Z</time></trkpt><trkpt lat="45.48439697898687" lon="9.215060259563648"><ele>129.66666666666669</ele><time>2026-04-25T05:10:39Z</time></trkpt><trkpt lat="45.48445390103276" lon="9.215124246260302"><ele>129.83333333333334</ele><time>2026-04-25T05:10:42Z</time></trkpt><trkpt lat="45.48449481062525" lon="9.21519896765959"><ele>130.0</ele><time>2026-04-25T05:11:23Z</time></trkpt><trkpt lat="45.484573699417446" lon="9.215278236417147"><ele>130.0</ele><time>2026-04-25T05:11:26Z</time></trkpt><trkpt lat="45.484643203148366" lon="9.21534222575402"><ele>130.0</ele><time>2026-04-25T05:11:28Z</time></trkpt><trkpt lat="45.48472161123968" lon="9.215419713483188"><ele>130.0</ele><time>2026-04-25T05:11:30Z</time></trkpt><trkpt lat="45.48481397684457" lon="9.21550086669356"><ele>130.0</ele><time>2026-04-25T05:11:32Z</time></trkpt><trkpt lat="45.48491751761568" lon="9.215564506529939"><ele>130.0</ele><time>2026-04-25T05:11:34Z</time></trkpt><trkpt lat="45.48501844097729" lon="9.215664956946595"><ele>130.0</ele><time>2026-04-25T05:11:36Z</time></trkpt><trkpt lat="45.48511632817781" lon="9.215761595939279"><ele>130.0</ele><time>2026-04-25T05:11:38Z</time></trkpt><trkpt lat="45.48520552521868" lon="9.215866571431416"><ele>130.0</ele><time>2026-04-25T05:11:40Z</time></trkpt><trkpt lat="45.485312120113484" lon="9.215949498683575"><ele>130.0</ele><time>2026-04-25T05:11:42Z</time></trkpt><trkpt lat="45.485395766605585" lon="9.216022568349377"><ele>130.42857142857144</ele><time>2026-04-25T05:11:44Z</time></trkpt><trkpt lat="45.48547299475849" lon="9.216083871619425"><ele>130.85714285714286</ele><time>2026-04-25T05:11:46Z</time></trkpt><trkpt lat="45.48553580742279" lon="9.216136834432264"><ele>131.28571428571428</ele><time>2026-04-25T05:11:48Z</time></trkpt><trkpt lat="45.48559393311353" lon="9.216194585201078"><ele>131.71428571428572</ele><time>2026-04-25T05:11:50Z</time></trkpt><trkpt lat="45.485654253804334" lon="9.216222097414777"><ele>132.14285714285714</ele><time>2026-04-25T05:11:52Z</time></trkpt><trkpt lat="45.48571626099656" lon="9.216297290707454"><ele>132.57142857142858</ele><time>2026-04-25T05:11:55Z</time></trkpt><trkpt lat="45.48575735632057" lon="9.216366548988773"><ele>133.0</ele><time>2026-04-25T05:11:59Z</time></trkpt><trkpt lat="45.48579777582535" lon="9.216451113380433"><ele>132.5</ele><time>2026-04-25T05:12:30Z</time></trkpt><trkpt lat="45.48587011108784" lon="9.216514887658152"><ele>132.0</ele><time>2026-04-25T05:12:33Z</time></trkpt><trkpt lat="45.48592984213619" lon="9.216564482974043"><ele>131.5</ele><time>2026-04-25T05:12:34.999Z</time></trkpt><trkpt lat="45.48600277583478" lon="9.216628895636456"><ele>131.0</ele><time>2026-04-25T05:12:36.999Z</time></trkpt><trkpt lat="45.48607614150575" lon="9.216695076032881"><ele>130.5</ele><time>2026-04-25T05:12:38.999Z</time></trkpt><trkpt lat="45.48617047426052" lon="9.216763039176172"><ele>130.0</ele><time>2026-04-25T05:12:40.999Z</time></trkpt><trkpt lat="45.4862646427279" lon="9.216821787144978"><ele>130.0</ele><time>2026-04-25T05:12:42.999Z</time></trkpt><trkpt lat="45.48637564810835" lon="9.216866985855662"><ele>130.0</ele><time>2026-04-25T05:12:44.999Z</time></trkpt><trkpt lat="45.48649596377361" lon="9.216903455020837"><ele>130.0</ele><time>2026-04-25T05:12:46.999Z</time></trkpt><trkpt lat="45.48655867325836" lon="9.216919704783344"><ele>130.0</ele><time>2026-04-25T05:12:47.999Z</time></trkpt><trkpt lat="45.4866832459371" lon="9.216955684026672"><ele>130.0</ele><time>2026-04-25T05:12:49.999Z</time></trkpt><trkpt lat="45.486749934082084" lon="9.216976500997758"><ele>130.0</ele><time>2026-04-25T05:12:50.999Z</time></trkpt><trkpt lat="45.486813188388986" lon="9.216990034418053"><ele>130.0</ele><time>2026-04-25T05:12:51.999Z</time></trkpt><trkpt lat="45.48688534084492" lon="9.217009612034719"><ele>130.0</ele><time>2026-04-25T05:12:52.999Z</time></trkpt><trkpt lat="45.48695216985419" lon="9.217032237755703"><ele>130.0</ele><time>2026-04-25T05:12:53.999Z</time></trkpt><trkpt lat="45.48707861677853" lon="9.21706598540449"><ele>130.0</ele><time>2026-04-25T05:12:55.999Z</time></trkpt><trkpt lat="45.487140293444284" lon="9.217099012087123"><ele>130.0</ele><time>2026-04-25T05:12:56.999Z</time></trkpt><trkpt lat="45.48720954307968" lon="9.217115375245731"><ele>129.5</ele><time>2026-04-25T05:12:57.999Z</time></trkpt><trkpt lat="45.4872740937359" lon="9.21713837890139"><ele>129.0</ele><time>2026-04-25T05:12:58.999Z</time></trkpt><trkpt lat="45.48733928820969" lon="9.217146732568308"><ele>128.5</ele><time>2026-04-25T05:12:59.999Z</time></trkpt><trkpt lat="45.487408762416386" lon="9.217171076209912"><ele>128.0</ele><time>2026-04-25T05:13:00.999Z</time></trkpt><trkpt lat="45.487532634251956" lon="9.217206284983485"><ele>127.50000000000001</ele><time>2026-04-25T05:13:02.999Z</time></trkpt><trkpt lat="45.48759695446677" lon="9.217220720080656"><ele>127.0</ele><time>2026-04-25T05:13:03.999Z</time></trkpt><trkpt lat="45.48766049285314" lon="9.217229011552844"><ele>127.0</ele><time>2026-04-25T05:13:04.999Z</time></trkpt><trkpt lat="45.48778793987125" lon="9.217280393031844"><ele>126.99999999999999</ele><time>2026-04-25T05:13:06.999Z</time></trkpt><trkpt lat="45.48790496851137" lon="9.217325427876666"><ele>126.99999999999999</ele><time>2026-04-25T05:13:08.999Z</time></trkpt><trkpt lat="45.48797699187172" lon="9.217342330417617"><ele>127.0</ele><time>2026-04-25T05:13:09.999Z</time></trkpt><trkpt lat="45.48805014320283" lon="9.21736194380414"><ele>127.0</ele><time>2026-04-25T05:13:10.999Z</time></trkpt><trkpt lat="45.488111999769515" lon="9.217386647072034"><ele>127.42857142857143</ele><time>2026-04-25T05:13:11.999Z</time></trkpt><trkpt lat="45.48818776743799" lon="9.217404821600088"><ele>127.85714285714286</ele><time>2026-04-25T05:13:12.999Z</time></trkpt><trkpt lat="45.488253902673" lon="9.217421281688386"><ele>128.28571428571428</ele><time>2026-04-25T05:13:13.999Z</time></trkpt><trkpt lat="45.4883240664618" lon="9.21744120923763"><ele>128.71428571428572</ele><time>2026-04-25T05:13:14.999Z</time></trkpt><trkpt lat="45.4883896664963" lon="9.217458449841454"><ele>129.14285714285714</ele><time>2026-04-25T05:13:15.999Z</time></trkpt><trkpt lat="45.48845515053354" lon="9.217481365313756"><ele>129.57142857142858</ele><time>2026-04-25T05:13:16.999Z</time></trkpt><trkpt lat="45.48852438070359" lon="9.217495820867713"><ele>130.0</ele><time>2026-04-25T05:13:17.999Z</time></trkpt><trkpt lat="45.48865112279414" lon="9.217534290213047"><ele>130.00000000000003</ele><time>2026-04-25T05:13:19.999Z</time></trkpt><trkpt lat="45.4887164717024" lon="9.217554125894729"><ele>130.0</ele><time>2026-04-25T05:13:20.999Z</time></trkpt><trkpt lat="45.48877936418368" lon="9.21757322297966"><ele>130.0</ele><time>2026-04-25T05:13:21.999Z</time></trkpt><trkpt lat="45.488847412520755" lon="9.217593885660886"><ele>130.0</ele><time>2026-04-25T05:13:22.999Z</time></trkpt><trkpt lat="45.488914998623606" lon="9.21761440796723"><ele>130.0</ele><time>2026-04-25T05:13:23.999Z</time></trkpt><trkpt lat="45.48898109796582" lon="9.217634485331395"><ele>130.00000000000003</ele><time>2026-04-25T05:13:24.999Z</time></trkpt><trkpt lat="45.48904566390232" lon="9.217654120958885"><ele>130.0</ele><time>2026-04-25T05:13:25.999Z</time></trkpt><trkpt lat="45.48911000440238" lon="9.217673688103963"><ele>130.00000000000003</ele><time>2026-04-25T05:13:26.999Z</time></trkpt><trkpt lat="45.489180419086225" lon="9.21769510245032"><ele>130.0</ele><time>2026-04-25T05:13:27.999Z</time></trkpt><trkpt lat="45.489254796429975" lon="9.217717721910862"><ele>130.0</ele><time>2026-04-25T05:13:28.999Z</time></trkpt><trkpt lat="45.48932035133279" lon="9.217737658290517"><ele>130.0</ele><time>2026-04-25T05:13:29.999Z</time></trkpt><trkpt lat="45.48939341359425" lon="9.217759877884761"><ele>130.0</ele><time>2026-04-25T05:13:30.999Z</time></trkpt><trkpt lat="45.48946285913681" lon="9.217780997505884"><ele>130.00000000000003</ele><time>2026-04-25T05:13:31.999Z</time></trkpt><trkpt lat="45.489535990086786" lon="9.217803471971616"><ele>130.0</ele><time>2026-04-25T05:13:32.999Z</time></trkpt><trkpt lat="45.48960968192454" lon="9.217826372742966"><ele>130.00000000000003</ele><time>2026-04-25T05:13:33.999Z</time></trkpt><trkpt lat="45.4896841081238" lon="9.217849501734953"><ele>130.0</ele><time>2026-04-25T05:13:34.999Z</time></trkpt><trkpt lat="45.48975461704702" lon="9.217871413367929"><ele>130.0</ele><time>2026-04-25T05:13:35.999Z</time></trkpt><trkpt lat="45.48982401726666" lon="9.217892980456071"><ele>130.0</ele><time>2026-04-25T05:13:36.999Z</time></trkpt><trkpt lat="45.48989445546717" lon="9.217914870116475"><ele>130.0</ele><time>2026-04-25T05:13:37.999Z</time></trkpt><trkpt lat="45.48996790263877" lon="9.217937694880229"><ele>130.00000000000003</ele><time>2026-04-25T05:13:38.999Z</time></trkpt><trkpt lat="45.49004222539042" lon="9.217960791718008"><ele>130.0</ele><time>2026-04-25T05:13:39.999Z</time></trkpt><trkpt lat="45.490109908209035" lon="9.217981825095537"><ele>130.00000000000003</ele><time>2026-04-25T05:13:40.999Z</time></trkpt><trkpt lat="45.490179678161674" lon="9.218003507079496"><ele>130.0</ele><time>2026-04-25T05:13:41.999Z</time></trkpt><trkpt lat="45.49025042761238" lon="9.218025493480017"><ele>130.0</ele><time>2026-04-25T05:13:42.999Z</time></trkpt><trkpt lat="45.49031938460983" lon="9.218046923632203"><ele>130.0</ele><time>2026-04-25T05:13:43.999Z</time></trkpt><trkpt lat="45.490388196074555" lon="9.218068306003428"><ele>130.0</ele><time>2026-04-25T05:13:44.999Z</time></trkpt><trkpt lat="45.49046092385934" lon="9.218088971570909"><ele>130.00000000000003</ele><time>2026-04-25T05:13:45.999Z</time></trkpt><trkpt lat="45.49053126125798" lon="9.218110068174715"><ele>130.0</ele><time>2026-04-25T05:13:46.999Z</time></trkpt><trkpt lat="45.490601150613294" lon="9.218131030385868"><ele>130.33333333333334</ele><time>2026-04-25T05:13:47.999Z</time></trkpt><trkpt lat="45.49066693769646" lon="9.218150762168303"><ele>130.66666666666669</ele><time>2026-04-25T05:13:48.999Z</time></trkpt><trkpt lat="45.49073298690083" lon="9.218170572601442"><ele>131.0</ele><time>2026-04-25T05:13:49.999Z</time></trkpt><trkpt lat="45.49079470233908" lon="9.21818908267002"><ele>131.33333333333334</ele><time>2026-04-25T05:13:50.999Z</time></trkpt><trkpt lat="45.490857514076154" lon="9.218207921512311"><ele>131.66666666666666</ele><time>2026-04-25T05:13:51.999Z</time></trkpt><trkpt lat="45.49096541111357" lon="9.21823944289913"><ele>132.0</ele><time>2026-04-25T05:13:53.999Z</time></trkpt><trkpt lat="45.49104713990867" lon="9.218283383369446"><ele>132.0</ele><time>2026-04-25T05:13:55.999Z</time></trkpt><trkpt lat="45.491131346263415" lon="9.218304258508413"><ele>132.0</ele><time>2026-04-25T05:13:57.999Z</time></trkpt><trkpt lat="45.491213763320886" lon="9.218323421136827"><ele>132.0</ele><time>2026-04-25T05:13:59.999Z</time></trkpt><trkpt lat="45.49131554186656" lon="9.218344215519473"><ele>132.0</ele><time>2026-04-25T05:14:01.999Z</time></trkpt><trkpt lat="45.49143190251212" lon="9.218376002169554"><ele>132.0</ele><time>2026-04-25T05:14:03.999Z</time></trkpt><trkpt lat="45.49155258046419" lon="9.21840628046931"><ele>131.85714285714286</ele><time>2026-04-25T05:14:05.999Z</time></trkpt><trkpt lat="45.49161438376775" lon="9.218424536976903"><ele>131.71428571428572</ele><time>2026-04-25T05:14:06.999Z</time></trkpt><trkpt lat="45.49167803644541" lon="9.218442567121272"><ele>131.57142857142858</ele><time>2026-04-25T05:14:07.999Z</time></trkpt><trkpt lat="45.49174554223218" lon="9.218463246021082"><ele>131.42857142857144</ele><time>2026-04-25T05:14:08.999Z</time></trkpt><trkpt lat="45.4918108508002" lon="9.218482501450753"><ele>131.2857142857143</ele><time>2026-04-25T05:14:09.999Z</time></trkpt><trkpt lat="45.49187318134387" lon="9.218499372684079"><ele>131.14285714285714</ele><time>2026-04-25T05:14:10.999Z</time></trkpt><trkpt lat="45.49193930860664" lon="9.21851611787046"><ele>131.0</ele><time>2026-04-25T05:14:11.999Z</time></trkpt><trkpt lat="45.492006856068215" lon="9.218535556272396"><ele>131.0</ele><time>2026-04-25T05:14:12.999Z</time></trkpt><trkpt lat="45.49207357139964" lon="9.218553027738892"><ele>131.0</ele><time>2026-04-25T05:14:14Z</time></trkpt><trkpt lat="45.49214091823409" lon="9.218568642506547"><ele>131.0</ele><time>2026-04-25T05:14:15Z</time></trkpt><trkpt lat="45.49220979647606" lon="9.218581935971777"><ele>131.0</ele><time>2026-04-25T05:14:16Z</time></trkpt><trkpt lat="45.492277823480364" lon="9.218597773874864"><ele>131.0</ele><time>2026-04-25T05:14:17Z</time></trkpt><trkpt lat="45.49235106060996" lon="9.218610677137713"><ele>131.0</ele><time>2026-04-25T05:14:18Z</time></trkpt><trkpt lat="45.492418019405235" lon="9.218628253156053"><ele>131.0</ele><time>2026-04-25T05:14:19Z</time></trkpt><trkpt lat="45.49248141849218" lon="9.218641860369708"><ele>131.0</ele><time>2026-04-25T05:14:20Z</time></trkpt><trkpt lat="45.49255599930661" lon="9.218672351813609"><ele>131.0</ele><time>2026-04-25T05:14:21Z</time></trkpt><trkpt lat="45.49261976640866" lon="9.218692132488039"><ele>131.0</ele><time>2026-04-25T05:14:22Z</time></trkpt><trkpt lat="45.49269132945774" lon="9.218714331455997"><ele>131.0</ele><time>2026-04-25T05:14:23Z</time></trkpt><trkpt lat="45.49275434852571" lon="9.218733879709742"><ele>131.0</ele><time>2026-04-25T05:14:24Z</time></trkpt><trkpt lat="45.4928266963267" lon="9.21875632146662"><ele>131.0</ele><time>2026-04-25T05:14:25Z</time></trkpt><trkpt lat="45.49289596312899" lon="9.218776107620041"><ele>131.0</ele><time>2026-04-25T05:14:26Z</time></trkpt><trkpt lat="45.492964847245794" lon="9.218796831462706"><ele>130.71428571428572</ele><time>2026-04-25T05:14:27Z</time></trkpt><trkpt lat="45.493032387793725" lon="9.21881603966867"><ele>130.42857142857144</ele><time>2026-04-25T05:14:28Z</time></trkpt><trkpt lat="45.49310549422753" lon="9.218836678101004"><ele>130.14285714285714</ele><time>2026-04-25T05:14:29Z</time></trkpt><trkpt lat="45.49317670595002" lon="9.218857283403638"><ele>129.85714285714286</ele><time>2026-04-25T05:14:30Z</time></trkpt><trkpt lat="45.49324738626951" lon="9.218878051212402"><ele>129.57142857142856</ele><time>2026-04-25T05:14:31Z</time></trkpt><trkpt lat="45.493319524738595" lon="9.21889952370411"><ele>129.28571428571428</ele><time>2026-04-25T05:14:32Z</time></trkpt><trkpt lat="45.49338950922229" lon="9.218900911281732"><ele>129.0</ele><time>2026-04-25T05:14:33Z</time></trkpt><trkpt lat="45.4934555803588" lon="9.218938673178288"><ele>128.99999999999997</ele><time>2026-04-25T05:14:34Z</time></trkpt><trkpt lat="45.493523522026834" lon="9.218969124879328"><ele>129.0</ele><time>2026-04-25T05:14:35Z</time></trkpt><trkpt lat="45.493593777359614" lon="9.218997930362095"><ele>129.0</ele><time>2026-04-25T05:14:36Z</time></trkpt><trkpt lat="45.493667374199134" lon="9.219019367776118"><ele>129.0</ele><time>2026-04-25T05:14:37Z</time></trkpt><trkpt lat="45.493737854841385" lon="9.219047265835567"><ele>129.0</ele><time>2026-04-25T05:14:38Z</time></trkpt><trkpt lat="45.49381455789563" lon="9.219071326747738"><ele>128.99999999999997</ele><time>2026-04-25T05:14:38.999Z</time></trkpt><trkpt lat="45.49388421325064" lon="9.2190921266592"><ele>129.0</ele><time>2026-04-25T05:14:39.999Z</time></trkpt><trkpt lat="45.493960000312306" lon="9.219121300680607"><ele>129.42857142857142</ele><time>2026-04-25T05:14:40.999Z</time></trkpt><trkpt lat="45.49403271842743" lon="9.219147207474116"><ele>129.85714285714286</ele><time>2026-04-25T05:14:41.999Z</time></trkpt><trkpt lat="45.494104074994276" lon="9.219173402913688"><ele>130.28571428571428</ele><time>2026-04-25T05:14:42.999Z</time></trkpt><trkpt lat="45.49417848305577" lon="9.219197685161122"><ele>130.71428571428572</ele><time>2026-04-25T05:14:43.999Z</time></trkpt><trkpt lat="45.49425209821858" lon="9.21921837999455"><ele>131.14285714285714</ele><time>2026-04-25T05:14:44.999Z</time></trkpt><trkpt lat="45.49432308295445" lon="9.21923791869649"><ele>131.57142857142856</ele><time>2026-04-25T05:14:45.999Z</time></trkpt><trkpt lat="45.494398045849834" lon="9.219258947206072"><ele>132.0</ele><time>2026-04-25T05:14:46.999Z</time></trkpt><trkpt lat="45.49447699029282" lon="9.219281143600758"><ele>132.0</ele><time>2026-04-25T05:14:47.999Z</time></trkpt><trkpt lat="45.494549783951896" lon="9.21930365846656"><ele>132.0</ele><time>2026-04-25T05:14:48.999Z</time></trkpt><trkpt lat="45.4946206801964" lon="9.219336515109285"><ele>132.0</ele><time>2026-04-25T05:14:49.999Z</time></trkpt><trkpt lat="45.49469560334983" lon="9.219349140512081"><ele>132.0</ele><time>2026-04-25T05:14:50.999Z</time></trkpt><trkpt lat="45.49476656804415" lon="9.219374110509928"><ele>132.0</ele><time>2026-04-25T05:14:51.999Z</time></trkpt><trkpt lat="45.49483179714999" lon="9.219406575732508"><ele>132.0</ele><time>2026-04-25T05:14:52.999Z</time></trkpt><trkpt lat="45.49489863973116" lon="9.21942589277344"><ele>132.0</ele><time>2026-04-25T05:14:53.999Z</time></trkpt><trkpt lat="45.494962858115784" lon="9.219441937396857"><ele>132.0</ele><time>2026-04-25T05:14:54.999Z</time></trkpt><trkpt lat="45.49503441515825" lon="9.219453939378136"><ele>132.0</ele><time>2026-04-25T05:14:55.999Z</time></trkpt><trkpt lat="45.49510833935255" lon="9.219445480275906"><ele>132.0</ele><time>2026-04-25T05:14:56.999Z</time></trkpt><trkpt lat="45.49518289056286" lon="9.21946145515111"><ele>132.0</ele><time>2026-04-25T05:14:57.999Z</time></trkpt><trkpt lat="45.49525232305502" lon="9.21949326450218"><ele>132.0</ele><time>2026-04-25T05:14:58.999Z</time></trkpt><trkpt lat="45.49531892770217" lon="9.219505263091701"><ele>132.0</ele><time>2026-04-25T05:14:59.999Z</time></trkpt><trkpt lat="45.49538421039147" lon="9.219513433542232"><ele>132.0</ele><time>2026-04-25T05:15:00.999Z</time></trkpt><trkpt lat="45.495445266120484" lon="9.219542610566696"><ele>132.2</ele><time>2026-04-25T05:15:01.999Z</time></trkpt><trkpt lat="45.49551714442122" lon="9.219541658218326"><ele>132.39999999999998</ele><time>2026-04-25T05:15:02.999Z</time></trkpt><trkpt lat="45.4956376185815" lon="9.219601221698547"><ele>132.60000000000002</ele><time>2026-04-25T05:15:04.999Z</time></trkpt><trkpt lat="45.49575636517377" lon="9.219635970890934"><ele>132.8</ele><time>2026-04-25T05:15:06.999Z</time></trkpt><trkpt lat="45.495864721002654" lon="9.219668348256894"><ele>133.0</ele><time>2026-04-25T05:15:08.999Z</time></trkpt><trkpt lat="45.4959632877281" lon="9.219697858596586"><ele>133.0</ele><time>2026-04-25T05:15:10.999Z</time></trkpt><trkpt lat="45.496088548393" lon="9.219734739205663"><ele>133.0</ele><time>2026-04-25T05:15:12.999Z</time></trkpt><trkpt lat="45.49615260997827" lon="9.219753238743227"><ele>133.0</ele><time>2026-04-25T05:15:13.999Z</time></trkpt><trkpt lat="45.496219423924" lon="9.219772448593524"><ele>133.0</ele><time>2026-04-25T05:15:14.999Z</time></trkpt><trkpt lat="45.496287827565276" lon="9.21977469930282"><ele>133.0</ele><time>2026-04-25T05:15:15.999Z</time></trkpt><trkpt lat="45.49635336334333" lon="9.219803247005613"><ele>133.0</ele><time>2026-04-25T05:15:16.999Z</time></trkpt><trkpt lat="45.49642674265394" lon="9.219827774052517"><ele>132.33333333333334</ele><time>2026-04-25T05:15:17.999Z</time></trkpt><trkpt lat="45.49649543323373" lon="9.219861338834027"><ele>131.66666666666669</ele><time>2026-04-25T05:15:18.999Z</time></trkpt><trkpt lat="45.496565405163864" lon="9.219891661295202"><ele>131.0</ele><time>2026-04-25T05:15:19.999Z</time></trkpt><trkpt lat="45.4966336952122" lon="9.219922727714268"><ele>130.33333333333334</ele><time>2026-04-25T05:15:20.999Z</time></trkpt><trkpt lat="45.4967069984382" lon="9.219959526056027"><ele>129.66666666666666</ele><time>2026-04-25T05:15:21.999Z</time></trkpt><trkpt lat="45.4967836977292" lon="9.220010396393034"><ele>129.0</ele><time>2026-04-25T05:15:22.999Z</time></trkpt><trkpt lat="45.49686410077076" lon="9.220010002586644"><ele>129.0</ele><time>2026-04-25T05:15:23.999Z</time></trkpt><trkpt lat="45.496936062745405" lon="9.220081440803023"><ele>129.0</ele><time>2026-04-25T05:15:24.999Z</time></trkpt><trkpt lat="45.49701330299611" lon="9.220107399797582"><ele>129.0</ele><time>2026-04-25T05:15:25.999Z</time></trkpt><trkpt lat="45.4971290304747" lon="9.220189231319399"><ele>129.0</ele><time>2026-04-25T05:15:27.999Z</time></trkpt><trkpt lat="45.49721935709446" lon="9.22019661266016"><ele>129.0</ele><time>2026-04-25T05:15:28.999Z</time></trkpt><trkpt lat="45.49728591905542" lon="9.220186948237883"><ele>128.99999999999997</ele><time>2026-04-25T05:15:29.999Z</time></trkpt><trkpt lat="45.49735689041205" lon="9.220199044287503"><ele>129.0</ele><time>2026-04-25T05:15:30.999Z</time></trkpt><trkpt lat="45.49742756741565" lon="9.220216142634563"><ele>129.0</ele><time>2026-04-25T05:15:31.999Z</time></trkpt><trkpt lat="45.49750486652634" lon="9.220238012559063"><ele>129.0</ele><time>2026-04-25T05:15:32.999Z</time></trkpt><trkpt lat="45.49757604854103" lon="9.220248742574862"><ele>129.0</ele><time>2026-04-25T05:15:33.999Z</time></trkpt><trkpt lat="45.49764347533658" lon="9.220265652376094"><ele>128.99999999999997</ele><time>2026-04-25T05:15:34.999Z</time></trkpt><trkpt lat="45.49771246049803" lon="9.220286461594668"><ele>129.0</ele><time>2026-04-25T05:15:35.999Z</time></trkpt><trkpt lat="45.49778441609709" lon="9.220291998924415"><ele>128.99999999999997</ele><time>2026-04-25T05:15:36.999Z</time></trkpt><trkpt lat="45.49785896842363" lon="9.220309270453576"><ele>129.0</ele><time>2026-04-25T05:15:37.999Z</time></trkpt><trkpt lat="45.49793184576938" lon="9.22032544066387"><ele>129.0</ele><time>2026-04-25T05:15:38.999Z</time></trkpt><trkpt lat="45.49800162916011" lon="9.22034868873651"><ele>129.0</ele><time>2026-04-25T05:15:39.999Z</time></trkpt><trkpt lat="45.498073484714844" lon="9.220366330581522"><ele>129.0</ele><time>2026-04-25T05:15:40.999Z</time></trkpt><trkpt lat="45.49814603721726" lon="9.220381380623264"><ele>128.99999999999997</ele><time>2026-04-25T05:15:41.999Z</time></trkpt><trkpt lat="45.498216366482204" lon="9.220400651510728"><ele>129.0</ele><time>2026-04-25T05:15:42.999Z</time></trkpt><trkpt lat="45.4982916837294" lon="9.220420711074262"><ele>128.99999999999997</ele><time>2026-04-25T05:15:43.999Z</time></trkpt><trkpt lat="45.49836782557114" lon="9.220437481074546"><ele>129.0</ele><time>2026-04-25T05:15:44.999Z</time></trkpt><trkpt lat="45.498440232953165" lon="9.220450025332793"><ele>129.0</ele><time>2026-04-25T05:15:45.999Z</time></trkpt><trkpt lat="45.49850732745113" lon="9.22045708453299"><ele>129.0</ele><time>2026-04-25T05:15:46.999Z</time></trkpt><trkpt lat="45.498579808819954" lon="9.220474387080369"><ele>129.0</ele><time>2026-04-25T05:15:47.999Z</time></trkpt><trkpt lat="45.49866179007286" lon="9.220508699388912"><ele>128.99999999999997</ele><time>2026-04-25T05:15:48.999Z</time></trkpt><trkpt lat="45.49872489290794" lon="9.220535571781646"><ele>129.0</ele><time>2026-04-25T05:15:49.999Z</time></trkpt><trkpt lat="45.49880180095321" lon="9.220571495021733"><ele>129.0</ele><time>2026-04-25T05:15:50.999Z</time></trkpt><trkpt lat="45.49887883757136" lon="9.220595627367286"><ele>129.0</ele><time>2026-04-25T05:15:51.999Z</time></trkpt><trkpt lat="45.49895644030474" lon="9.220619396866502"><ele>129.0</ele><time>2026-04-25T05:15:52.999Z</time></trkpt><trkpt lat="45.49903215299791" lon="9.220645761697465"><ele>129.0</ele><time>2026-04-25T05:15:53.999Z</time></trkpt><trkpt lat="45.49910452773403" lon="9.220651937360728"><ele>129.0</ele><time>2026-04-25T05:15:54.999Z</time></trkpt><trkpt lat="45.49917818389554" lon="9.220665666557734"><ele>129.0</ele><time>2026-04-25T05:15:55.999Z</time></trkpt><trkpt lat="45.499251567864015" lon="9.220683117919151"><ele>129.42857142857142</ele><time>2026-04-25T05:15:56.999Z</time></trkpt><trkpt lat="45.49931979565614" lon="9.220703640448942"><ele>129.85714285714286</ele><time>2026-04-25T05:15:57.999Z</time></trkpt><trkpt lat="45.49938959330488" lon="9.220705090380338"><ele>130.28571428571428</ele><time>2026-04-25T05:15:58.999Z</time></trkpt><trkpt lat="45.49945565519282" lon="9.220748227589683"><ele>130.71428571428572</ele><time>2026-04-25T05:15:59.999Z</time></trkpt><trkpt lat="45.499526227587275" lon="9.22076930859337"><ele>131.14285714285714</ele><time>2026-04-25T05:16:00.999Z</time></trkpt><trkpt lat="45.49959903620485" lon="9.22079105755261"><ele>131.57142857142856</ele><time>2026-04-25T05:16:01.999Z</time></trkpt><trkpt lat="45.49967072729421" lon="9.220812473605143"><ele>132.0</ele><time>2026-04-25T05:16:02.999Z</time></trkpt><trkpt lat="45.49974688358292" lon="9.220836213495064"><ele>132.33333333333334</ele><time>2026-04-25T05:16:03.999Z</time></trkpt><trkpt lat="45.49982193534185" lon="9.220859184738233"><ele>132.66666666666666</ele><time>2026-04-25T05:16:04.999Z</time></trkpt><trkpt lat="45.49989666007004" lon="9.220882055828925"><ele>133.0</ele><time>2026-04-25T05:16:05.999Z</time></trkpt><trkpt lat="45.4999666816359" lon="9.220903487414068"><ele>133.33333333333331</ele><time>2026-04-25T05:16:06.999Z</time></trkpt><trkpt lat="45.500042629218115" lon="9.220926949413839"><ele>133.66666666666666</ele><time>2026-04-25T05:16:07.999Z</time></trkpt><trkpt lat="45.50011325308596" lon="9.220949045037012"><ele>134.0</ele><time>2026-04-25T05:16:08.999Z</time></trkpt><trkpt lat="45.50018741715119" lon="9.220972248328636"><ele>134.0</ele><time>2026-04-25T05:16:09.999Z</time></trkpt><trkpt lat="45.50025988139271" lon="9.220994772582937"><ele>134.0</ele><time>2026-04-25T05:16:10.999Z</time></trkpt><trkpt lat="45.50033826617405" lon="9.221019104769217"><ele>134.0</ele><time>2026-04-25T05:16:11.999Z</time></trkpt><trkpt lat="45.50040561486139" lon="9.22104001112246"><ele>134.0</ele><time>2026-04-25T05:16:12.999Z</time></trkpt><trkpt lat="45.50047864115577" lon="9.221062609487412"><ele>134.0</ele><time>2026-04-25T05:16:13.999Z</time></trkpt><trkpt lat="45.50055466273443" lon="9.2210842485764"><ele>134.0</ele><time>2026-04-25T05:16:14.999Z</time></trkpt><trkpt lat="45.50062773843234" lon="9.221105049167528"><ele>134.0</ele><time>2026-04-25T05:16:15.999Z</time></trkpt><trkpt lat="45.50069989170927" lon="9.22112558718051"><ele>134.0</ele><time>2026-04-25T05:16:16.999Z</time></trkpt><trkpt lat="45.50077204908238" lon="9.221146126358656"><ele>134.0</ele><time>2026-04-25T05:16:17.999Z</time></trkpt><trkpt lat="45.50084066288451" lon="9.221165656872085"><ele>134.0</ele><time>2026-04-25T05:16:19Z</time></trkpt><trkpt lat="45.50091189511641" lon="9.221186568042583"><ele>134.0</ele><time>2026-04-25T05:16:20Z</time></trkpt><trkpt lat="45.50098730642452" lon="9.221209381864075"><ele>134.0</ele><time>2026-04-25T05:16:21Z</time></trkpt><trkpt lat="45.501059867379794" lon="9.22123133342341"><ele>134.0</ele><time>2026-04-25T05:16:22Z</time></trkpt><trkpt lat="45.50113685028872" lon="9.221255515673038"><ele>134.0</ele><time>2026-04-25T05:16:23Z</time></trkpt><trkpt lat="45.50121120272046" lon="9.221278903788345"><ele>134.0</ele><time>2026-04-25T05:16:24Z</time></trkpt><trkpt lat="45.50128751883457" lon="9.221302362319532"><ele>134.0</ele><time>2026-04-25T05:16:25Z</time></trkpt><trkpt lat="45.501359407233124" lon="9.221324387028945"><ele>134.0</ele><time>2026-04-25T05:16:26Z</time></trkpt><trkpt lat="45.50143252176007" lon="9.221346787404949"><ele>134.0</ele><time>2026-04-25T05:16:27Z</time></trkpt><trkpt lat="45.50150568563422" lon="9.22136875169576"><ele>134.0</ele><time>2026-04-25T05:16:28Z</time></trkpt><trkpt lat="45.50157576135158" lon="9.22138967237199"><ele>134.0</ele><time>2026-04-25T05:16:29Z</time></trkpt><trkpt lat="45.50164499299608" lon="9.221410341028058"><ele>134.16666666666666</ele><time>2026-04-25T05:16:30Z</time></trkpt><trkpt lat="45.5017138167365" lon="9.221431078740874"><ele>134.33333333333331</ele><time>2026-04-25T05:16:31Z</time></trkpt><trkpt lat="45.50178106623937" lon="9.221451847803738"><ele>134.5</ele><time>2026-04-25T05:16:32Z</time></trkpt><trkpt lat="45.50189719455951" lon="9.22148771236972"><ele>134.66666666666666</ele><time>2026-04-25T05:16:34Z</time></trkpt><trkpt lat="45.50197426798289" lon="9.221511515417134"><ele>134.83333333333334</ele><time>2026-04-25T05:16:36Z</time></trkpt><trkpt lat="45.50203398371738" lon="9.221461580881382"><ele>135.0</ele><time>2026-04-25T05:16:41Z</time></trkpt><trkpt lat="45.50207860170074" lon="9.221542681415585"><ele>134.66666666666666</ele><time>2026-04-25T05:17:04.999Z</time></trkpt><trkpt lat="45.50215210332039" lon="9.221583969408004"><ele>134.33333333333334</ele><time>2026-04-25T05:17:07.999Z</time></trkpt><trkpt lat="45.50221688004991" lon="9.22159645007285"><ele>134.0</ele><time>2026-04-25T05:17:09.999Z</time></trkpt><trkpt lat="45.502282378358544" lon="9.22162614496788"><ele>133.66666666666669</ele><time>2026-04-25T05:17:11.999Z</time></trkpt><trkpt lat="45.50236157408829" lon="9.221649986748108"><ele>133.33333333333334</ele><time>2026-04-25T05:17:13.999Z</time></trkpt><trkpt lat="45.502463385494245" lon="9.2216765130875"><ele>133.0</ele><time>2026-04-25T05:17:15.999Z</time></trkpt><trkpt lat="45.50257425533113" lon="9.221719195160746"><ele>133.0</ele><time>2026-04-25T05:17:17.999Z</time></trkpt><trkpt lat="45.50268608454167" lon="9.221756971453697"><ele>133.0</ele><time>2026-04-25T05:17:19.999Z</time></trkpt><trkpt lat="45.50280920586864" lon="9.22178815747156"><ele>133.0</ele><time>2026-04-25T05:17:21.999Z</time></trkpt><trkpt lat="45.502873205198185" lon="9.2218067593914"><ele>133.0</ele><time>2026-04-25T05:17:22.999Z</time></trkpt><trkpt lat="45.50293802559178" lon="9.221821452690861"><ele>133.0</ele><time>2026-04-25T05:17:23.999Z</time></trkpt><trkpt lat="45.50300478629099" lon="9.221839164331469"><ele>133.0</ele><time>2026-04-25T05:17:24.999Z</time></trkpt><trkpt lat="45.50307096573751" lon="9.221858784470825"><ele>132.85714285714286</ele><time>2026-04-25T05:17:25.999Z</time></trkpt><trkpt lat="45.50313790488172" lon="9.221879837243332"><ele>132.71428571428572</ele><time>2026-04-25T05:17:26.999Z</time></trkpt><trkpt lat="45.50320533874308" lon="9.221896633515529"><ele>132.57142857142856</ele><time>2026-04-25T05:17:27.999Z</time></trkpt><trkpt lat="45.503276136549545" lon="9.221918111009673"><ele>132.42857142857144</ele><time>2026-04-25T05:17:28.999Z</time></trkpt><trkpt lat="45.50334834482516" lon="9.22193793983252"><ele>132.28571428571428</ele><time>2026-04-25T05:17:29.999Z</time></trkpt><trkpt lat="45.503415343851714" lon="9.22195397195701"><ele>132.14285714285714</ele><time>2026-04-25T05:17:30.999Z</time></trkpt><trkpt lat="45.503493016920324" lon="9.221983453955035"><ele>132.0</ele><time>2026-04-25T05:17:31.999Z</time></trkpt><trkpt lat="45.50356369246122" lon="9.222005631136513"><ele>132.0</ele><time>2026-04-25T05:17:32.999Z</time></trkpt><trkpt lat="45.503636212012175" lon="9.222027366496446"><ele>132.0</ele><time>2026-04-25T05:17:33.999Z</time></trkpt><trkpt lat="45.50371014117285" lon="9.22205026268035"><ele>132.0</ele><time>2026-04-25T05:17:34.999Z</time></trkpt><trkpt lat="45.503782772710984" lon="9.222074451876257"><ele>132.0</ele><time>2026-04-25T05:17:35.999Z</time></trkpt><trkpt lat="45.50385807565621" lon="9.222097367316954"><ele>132.0</ele><time>2026-04-25T05:17:36.999Z</time></trkpt><trkpt lat="45.503935796143125" lon="9.222122229332394"><ele>132.0</ele><time>2026-04-25T05:17:37.999Z</time></trkpt><trkpt lat="45.50400685033594" lon="9.222151478985909"><ele>132.5</ele><time>2026-04-25T05:17:38.999Z</time></trkpt><trkpt lat="45.50408214315407" lon="9.222178441412124"><ele>133.0</ele><time>2026-04-25T05:17:39.999Z</time></trkpt><trkpt lat="45.504155070914024" lon="9.22220224680983"><ele>133.5</ele><time>2026-04-25T05:17:40.999Z</time></trkpt><trkpt lat="45.504230167669334" lon="9.222221380438219"><ele>134.0</ele><time>2026-04-25T05:17:41.999Z</time></trkpt><trkpt lat="45.504302882064465" lon="9.222244784479194"><ele>134.5</ele><time>2026-04-25T05:17:42.999Z</time></trkpt><trkpt lat="45.50438180739632" lon="9.222270503475555"><ele>135.0</ele><time>2026-04-25T05:17:43.999Z</time></trkpt><trkpt lat="45.50445641322472" lon="9.222297708890599"><ele>135.0</ele><time>2026-04-25T05:17:44.999Z</time></trkpt><trkpt lat="45.504533062203286" lon="9.222319626693515"><ele>135.0</ele><time>2026-04-25T05:17:45.999Z</time></trkpt><trkpt lat="45.50460970495637" lon="9.222345134143545"><ele>135.0</ele><time>2026-04-25T05:17:46.999Z</time></trkpt><trkpt lat="45.504682922081194" lon="9.222363321370478"><ele>135.0</ele><time>2026-04-25T05:17:47.999Z</time></trkpt><trkpt lat="45.50475357112289" lon="9.22238759122135"><ele>135.0</ele><time>2026-04-25T05:17:48.999Z</time></trkpt><trkpt lat="45.50482788251769" lon="9.222413530963598"><ele>135.0</ele><time>2026-04-25T05:17:49.999Z</time></trkpt><trkpt lat="45.5049037145751" lon="9.222432163705097"><ele>135.0</ele><time>2026-04-25T05:17:50.999Z</time></trkpt><trkpt lat="45.50498207853018" lon="9.222451390458803"><ele>135.0</ele><time>2026-04-25T05:17:51.999Z</time></trkpt><trkpt lat="45.50506079270317" lon="9.222477607475007"><ele>135.0</ele><time>2026-04-25T05:17:52.999Z</time></trkpt><trkpt lat="45.50513791874154" lon="9.222501460753778"><ele>135.0</ele><time>2026-04-25T05:17:53.999Z</time></trkpt><trkpt lat="45.505210478081324" lon="9.222525337224669"><ele>135.0</ele><time>2026-04-25T05:17:54.999Z</time></trkpt><trkpt lat="45.505280899467856" lon="9.222549236550968"><ele>135.0</ele><time>2026-04-25T05:17:55.999Z</time></trkpt><trkpt lat="45.50535658037019" lon="9.22257077836093"><ele>135.28571428571428</ele><time>2026-04-25T05:17:56.999Z</time></trkpt><trkpt lat="45.5054293702104" lon="9.222593648993142"><ele>135.57142857142856</ele><time>2026-04-25T05:17:57.999Z</time></trkpt><trkpt lat="45.505505195257925" lon="9.222618986738848"><ele>135.85714285714286</ele><time>2026-04-25T05:17:58.999Z</time></trkpt><trkpt lat="45.50557785017491" lon="9.222642202088048"><ele>136.14285714285714</ele><time>2026-04-25T05:17:59.999Z</time></trkpt><trkpt lat="45.505647602662286" lon="9.222665729660928"><ele>136.42857142857144</ele><time>2026-04-25T05:18:00.999Z</time></trkpt><trkpt lat="45.50571884572132" lon="9.222688267705811"><ele>136.71428571428572</ele><time>2026-04-25T05:18:01.999Z</time></trkpt><trkpt lat="45.50579045992618" lon="9.222708160560975"><ele>137.0</ele><time>2026-04-25T05:18:02.999Z</time></trkpt><trkpt lat="45.50586272963441" lon="9.222733457941759"><ele>137.00000000000003</ele><time>2026-04-25T05:18:03.999Z</time></trkpt><trkpt lat="45.505936509886084" lon="9.222754940900387"><ele>137.0</ele><time>2026-04-25T05:18:04.999Z</time></trkpt><trkpt lat="45.50600812768552" lon="9.222780763340527"><ele>137.0</ele><time>2026-04-25T05:18:05.999Z</time></trkpt><trkpt lat="45.50608040646128" lon="9.222803146224946"><ele>137.0</ele><time>2026-04-25T05:18:06.999Z</time></trkpt><trkpt lat="45.50615226915477" lon="9.222825730723605"><ele>137.0</ele><time>2026-04-25T05:18:07.999Z</time></trkpt><trkpt lat="45.50622536570904" lon="9.22285314365315"><ele>137.00000000000003</ele><time>2026-04-25T05:18:08.999Z</time></trkpt><trkpt lat="45.50629771206238" lon="9.222879441527633"><ele>137.0</ele><time>2026-04-25T05:18:09.999Z</time></trkpt><trkpt lat="45.50636716970878" lon="9.222896202918905"><ele>136.33333333333331</ele><time>2026-04-25T05:18:10.999Z</time></trkpt><trkpt lat="45.50643907821114" lon="9.222922283953979"><ele>135.66666666666666</ele><time>2026-04-25T05:18:11.999Z</time></trkpt><trkpt lat="45.50651496582989" lon="9.222943379718524"><ele>135.0</ele><time>2026-04-25T05:18:12.999Z</time></trkpt><trkpt lat="45.5065904943112" lon="9.222967210725269"><ele>134.33333333333334</ele><time>2026-04-25T05:18:13.999Z</time></trkpt><trkpt lat="45.506664582037274" lon="9.22299223459596"><ele>133.66666666666669</ele><time>2026-04-25T05:18:14.999Z</time></trkpt><trkpt lat="45.50674025488557" lon="9.22301601594246"><ele>133.0</ele><time>2026-04-25T05:18:15.999Z</time></trkpt><trkpt lat="45.50681374441916" lon="9.223041719437829"><ele>133.0</ele><time>2026-04-25T05:18:16.999Z</time></trkpt><trkpt lat="45.506889955327786" lon="9.223060871686231"><ele>133.0</ele><time>2026-04-25T05:18:17.999Z</time></trkpt><trkpt lat="45.50696574476605" lon="9.22308145345818"><ele>133.0</ele><time>2026-04-25T05:18:18.999Z</time></trkpt><trkpt lat="45.50704129435478" lon="9.223106946272221"><ele>133.0</ele><time>2026-04-25T05:18:19.999Z</time></trkpt><trkpt lat="45.507118778233" lon="9.22312863872428"><ele>133.0</ele><time>2026-04-25T05:18:20.999Z</time></trkpt><trkpt lat="45.50719571071042" lon="9.223151793227219"><ele>133.0</ele><time>2026-04-25T05:18:21.999Z</time></trkpt><trkpt lat="45.50727019287157" lon="9.22317445227754"><ele>132.83333333333334</ele><time>2026-04-25T05:18:22.999Z</time></trkpt><trkpt lat="45.5073464599406" lon="9.223195165869464"><ele>132.66666666666669</ele><time>2026-04-25T05:18:23.999Z</time></trkpt><trkpt lat="45.50742274952303" lon="9.223218898832643"><ele>132.5</ele><time>2026-04-25T05:18:25Z</time></trkpt><trkpt lat="45.50749710697699" lon="9.223245040855694"><ele>132.33333333333334</ele><time>2026-04-25T05:18:26Z</time></trkpt><trkpt lat="45.507575844301634" lon="9.223265285708827"><ele>132.16666666666666</ele><time>2026-04-25T05:18:27Z</time></trkpt><trkpt lat="45.50765281149167" lon="9.223289294227415"><ele>132.0</ele><time>2026-04-25T05:18:28Z</time></trkpt><trkpt lat="45.507731142394576" lon="9.223312661908409"><ele>132.0</ele><time>2026-04-25T05:18:29Z</time></trkpt><trkpt lat="45.50780475861914" lon="9.223334037756523"><ele>132.0</ele><time>2026-04-25T05:18:30Z</time></trkpt><trkpt lat="45.50788074239037" lon="9.223357749133866"><ele>132.0</ele><time>2026-04-25T05:18:31Z</time></trkpt><trkpt lat="45.5079561122161" lon="9.22337962711495"><ele>132.0</ele><time>2026-04-25T05:18:32Z</time></trkpt><trkpt lat="45.50803262256318" lon="9.22340248246626"><ele>132.0</ele><time>2026-04-25T05:18:33Z</time></trkpt><trkpt lat="45.508109306413516" lon="9.223424470648824"><ele>132.0</ele><time>2026-04-25T05:18:34Z</time></trkpt><trkpt lat="45.508185258430885" lon="9.22343898366614"><ele>131.85714285714286</ele><time>2026-04-25T05:18:35Z</time></trkpt><trkpt lat="45.50825872297798" lon="9.223463796719162"><ele>131.71428571428572</ele><time>2026-04-25T05:18:36Z</time></trkpt><trkpt lat="45.50832792819905" lon="9.223485788339756"><ele>131.57142857142858</ele><time>2026-04-25T05:18:37Z</time></trkpt><trkpt lat="45.508401190035016" lon="9.223506590095791"><ele>131.42857142857144</ele><time>2026-04-25T05:18:38Z</time></trkpt><trkpt lat="45.508473742451976" lon="9.223530491653072"><ele>131.2857142857143</ele><time>2026-04-25T05:18:39Z</time></trkpt><trkpt lat="45.50854458888414" lon="9.223553858567596"><ele>131.14285714285714</ele><time>2026-04-25T05:18:40Z</time></trkpt><trkpt lat="45.50861716133215" lon="9.223574657238787"><ele>131.0</ele><time>2026-04-25T05:18:41Z</time></trkpt><trkpt lat="45.508688963217324" lon="9.223595825002661"><ele>131.33333333333331</ele><time>2026-04-25T05:18:42Z</time></trkpt><trkpt lat="45.50876136774555" lon="9.223620643323118"><ele>131.66666666666666</ele><time>2026-04-25T05:18:43Z</time></trkpt><trkpt lat="45.508838718660755" lon="9.223641859501232"><ele>132.0</ele><time>2026-04-25T05:18:44Z</time></trkpt><trkpt lat="45.508909014507914" lon="9.223665457580033"><ele>132.33333333333334</ele><time>2026-04-25T05:18:45Z</time></trkpt><trkpt lat="45.508985527461526" lon="9.2236880852677"><ele>132.66666666666669</ele><time>2026-04-25T05:18:46Z</time></trkpt><trkpt lat="45.50905929930907" lon="9.223710217282932"><ele>133.0</ele><time>2026-04-25T05:18:47Z</time></trkpt><trkpt lat="45.50913435593898" lon="9.223732618683353"><ele>133.0</ele><time>2026-04-25T05:18:48Z</time></trkpt><trkpt lat="45.5092099858311" lon="9.223757230025155"><ele>133.0</ele><time>2026-04-25T05:18:48.999Z</time></trkpt><trkpt lat="45.509285575061035" lon="9.223778290767283"><ele>133.0</ele><time>2026-04-25T05:18:49.999Z</time></trkpt><trkpt lat="45.50935966968241" lon="9.223800895659643"><ele>133.0</ele><time>2026-04-25T05:18:50.999Z</time></trkpt><trkpt lat="45.50943602313312" lon="9.223823066795083"><ele>133.0</ele><time>2026-04-25T05:18:51.999Z</time></trkpt><trkpt lat="45.50951120502656" lon="9.22384209376741"><ele>133.0</ele><time>2026-04-25T05:18:52.999Z</time></trkpt><trkpt lat="45.509582848620255" lon="9.223864552984216"><ele>132.66666666666669</ele><time>2026-04-25T05:18:53.999Z</time></trkpt><trkpt lat="45.50965643329225" lon="9.223886689949847"><ele>132.33333333333334</ele><time>2026-04-25T05:18:54.999Z</time></trkpt><trkpt lat="45.50973039210192" lon="9.22390889838465"><ele>132.0</ele><time>2026-04-25T05:18:55.999Z</time></trkpt><trkpt lat="45.50980490819899" lon="9.223933415812878"><ele>131.66666666666666</ele><time>2026-04-25T05:18:56.999Z</time></trkpt><trkpt lat="45.50987980663163" lon="9.223955756862685"><ele>131.33333333333331</ele><time>2026-04-25T05:18:57.999Z</time></trkpt><trkpt lat="45.50995093473492" lon="9.223975812688531"><ele>131.0</ele><time>2026-04-25T05:18:58.999Z</time></trkpt><trkpt lat="45.51002395660548" lon="9.223994943867623"><ele>131.71428571428572</ele><time>2026-04-25T05:18:59.999Z</time></trkpt><trkpt lat="45.510096860470995" lon="9.224014453319162"><ele>132.42857142857144</ele><time>2026-04-25T05:19:00.999Z</time></trkpt><trkpt lat="45.51017255362298" lon="9.224041132611196"><ele>133.14285714285714</ele><time>2026-04-25T05:19:01.999Z</time></trkpt><trkpt lat="45.51024597138736" lon="9.224058348261146"><ele>133.85714285714286</ele><time>2026-04-25T05:19:02.999Z</time></trkpt><trkpt lat="45.51031680288912" lon="9.224082604745501"><ele>134.57142857142856</ele><time>2026-04-25T05:19:03.999Z</time></trkpt><trkpt lat="45.51038958143563" lon="9.224104274962047"><ele>135.28571428571428</ele><time>2026-04-25T05:19:04.999Z</time></trkpt><trkpt lat="45.51045849278826" lon="9.224119957756873"><ele>136.0</ele><time>2026-04-25T05:19:05.999Z</time></trkpt><trkpt lat="45.51052478831743" lon="9.224143365989168"><ele>136.0</ele><time>2026-04-25T05:19:06.999Z</time></trkpt><trkpt lat="45.51059183349249" lon="9.224162130607283"><ele>136.0</ele><time>2026-04-25T05:19:07.999Z</time></trkpt><trkpt lat="45.5107083327623" lon="9.224199329770137"><ele>136.0</ele><time>2026-04-25T05:19:09.999Z</time></trkpt><trkpt lat="45.510796897483274" lon="9.224231811261111"><ele>136.0</ele><time>2026-04-25T05:19:11.999Z</time></trkpt><trkpt lat="45.510867487005456" lon="9.224254327669634"><ele>136.0</ele><time>2026-04-25T05:19:14.999Z</time></trkpt><trkpt lat="45.51093601258926" lon="9.224280104978977"><ele>136.0</ele><time>2026-04-25T05:19:18.999Z</time></trkpt><trkpt lat="45.511010218147916" lon="9.22433229158786"><ele>136.0</ele><time>2026-04-25T05:19:32.999Z</time></trkpt><trkpt lat="45.51110519315099" lon="9.224350716084855"><ele>136.0</ele><time>2026-04-25T05:19:35.999Z</time></trkpt><trkpt lat="45.51119283858017" lon="9.224360750505694"><ele>136.0</ele><time>2026-04-25T05:19:37.999Z</time></trkpt><trkpt lat="45.51128891562323" lon="9.22438288786263"><ele>136.0</ele><time>2026-04-25T05:19:39.999Z</time></trkpt><trkpt lat="45.511399640169195" lon="9.224399376629258"><ele>136.0</ele><time>2026-04-25T05:19:41.999Z</time></trkpt><trkpt lat="45.511518914242934" lon="9.224430877654079"><ele>136.16666666666669</ele><time>2026-04-25T05:19:43.999Z</time></trkpt><trkpt lat="45.51158158821607" lon="9.224453362650763"><ele>136.33333333333334</ele><time>2026-04-25T05:19:44.999Z</time></trkpt><trkpt lat="45.51164503175994" lon="9.22446724396042"><ele>136.5</ele><time>2026-04-25T05:19:45.999Z</time></trkpt><trkpt lat="45.51176767352612" lon="9.224505494471817"><ele>136.66666666666666</ele><time>2026-04-25T05:19:47.999Z</time></trkpt><trkpt lat="45.51183122357744" lon="9.224523102436574"><ele>136.83333333333331</ele><time>2026-04-25T05:19:48.999Z</time></trkpt><trkpt lat="45.51194634556695" lon="9.224555497636588"><ele>137.0</ele><time>2026-04-25T05:19:50.999Z</time></trkpt><trkpt lat="45.51205690796934" lon="9.224581908717989"><ele>136.2</ele><time>2026-04-25T05:19:52.999Z</time></trkpt><trkpt lat="45.512143952894135" lon="9.224604370376058"><ele>135.39999999999998</ele><time>2026-04-25T05:19:54.999Z</time></trkpt><trkpt lat="45.512234955826" lon="9.2246192205601"><ele>134.60000000000002</ele><time>2026-04-25T05:19:58.999Z</time></trkpt><trkpt lat="45.51233407117684" lon="9.224648752608916"><ele>133.8</ele><time>2026-04-25T05:20:01.999Z</time></trkpt><trkpt lat="45.51242655176916" lon="9.224684362723465"><ele>133.0</ele><time>2026-04-25T05:20:03.999Z</time></trkpt><trkpt lat="45.512534717900216" lon="9.224699500443315"><ele>133.0</ele><time>2026-04-25T05:20:05.999Z</time></trkpt><trkpt lat="45.512650715839655" lon="9.224737187609348"><ele>133.0</ele><time>2026-04-25T05:20:07.999Z</time></trkpt><trkpt lat="45.51271048057048" lon="9.224766108343653"><ele>133.0</ele><time>2026-04-25T05:20:08.999Z</time></trkpt><trkpt lat="45.5127724660095" lon="9.224789049721371"><ele>133.0</ele><time>2026-04-25T05:20:09.999Z</time></trkpt><trkpt lat="45.51283565217755" lon="9.224811361835727"><ele>133.0</ele><time>2026-04-25T05:20:10.999Z</time></trkpt><trkpt lat="45.51290054472643" lon="9.224832508184464"><ele>133.0</ele><time>2026-04-25T05:20:11.999Z</time></trkpt><trkpt lat="45.512962809330176" lon="9.224853924233047"><ele>133.0</ele><time>2026-04-25T05:20:12.999Z</time></trkpt><trkpt lat="45.51302982015726" lon="9.224874739482528"><ele>133.14285714285714</ele><time>2026-04-25T05:20:13.999Z</time></trkpt><trkpt lat="45.51309197238087" lon="9.224898986126977"><ele>133.28571428571428</ele><time>2026-04-25T05:20:14.999Z</time></trkpt><trkpt lat="45.51315905463077" lon="9.224908936076016"><ele>133.42857142857144</ele><time>2026-04-25T05:20:15.999Z</time></trkpt><trkpt lat="45.513228027405084" lon="9.224933761833011"><ele>133.57142857142856</ele><time>2026-04-25T05:20:16.999Z</time></trkpt><trkpt lat="45.513297466175466" lon="9.224956436616939"><ele>133.71428571428572</ele><time>2026-04-25T05:20:17.999Z</time></trkpt><trkpt lat="45.51337099034994" lon="9.22497374044263"><ele>133.85714285714286</ele><time>2026-04-25T05:20:18.999Z</time></trkpt><trkpt lat="45.51344712299755" lon="9.22499658289073"><ele>134.0</ele><time>2026-04-25T05:20:19.999Z</time></trkpt><trkpt lat="45.51351392563622" lon="9.22502466496244"><ele>134.0</ele><time>2026-04-25T05:20:20.999Z</time></trkpt><trkpt lat="45.513579920017015" lon="9.225042713629037"><ele>134.0</ele><time>2026-04-25T05:20:21.999Z</time></trkpt><trkpt lat="45.51364330081111" lon="9.225055272982456"><ele>134.0</ele><time>2026-04-25T05:20:22.999Z</time></trkpt><trkpt lat="45.513708911315966" lon="9.225069942740669"><ele>134.0</ele><time>2026-04-25T05:20:23.998Z</time></trkpt><trkpt lat="45.513776102123366" lon="9.225089563391446"><ele>134.0</ele><time>2026-04-25T05:20:24.998Z</time></trkpt><trkpt lat="45.51384571269582" lon="9.225115125774778"><ele>134.0</ele><time>2026-04-25T05:20:25.998Z</time></trkpt><trkpt lat="45.513915961684944" lon="9.225134377748747"><ele>134.0</ele><time>2026-04-25T05:20:26.998Z</time></trkpt><trkpt lat="45.51398515406835" lon="9.225159389453092"><ele>134.28571428571428</ele><time>2026-04-25T05:20:27.998Z</time></trkpt><trkpt lat="45.514055122406624" lon="9.225185209507295"><ele>134.57142857142856</ele><time>2026-04-25T05:20:28.998Z</time></trkpt><trkpt lat="45.51412589253296" lon="9.225210961924365"><ele>134.85714285714283</ele><time>2026-04-25T05:20:29.998Z</time></trkpt><trkpt lat="45.514198874218366" lon="9.22523596738651"><ele>135.14285714285714</ele><time>2026-04-25T05:20:31Z</time></trkpt><trkpt lat="45.51426957130788" lon="9.225262275932744"><ele>135.42857142857142</ele><time>2026-04-25T05:20:32Z</time></trkpt><trkpt lat="45.51434194746162" lon="9.22528736897626"><ele>135.7142857142857</ele><time>2026-04-25T05:20:33Z</time></trkpt><trkpt lat="45.51441491048279" lon="9.225309489976045"><ele>136.0</ele><time>2026-04-25T05:20:34Z</time></trkpt><trkpt lat="45.514487256423564" lon="9.22532991381955"><ele>135.99999999999997</ele><time>2026-04-25T05:20:35Z</time></trkpt><trkpt lat="45.51456031645719" lon="9.225352028703496"><ele>136.0</ele><time>2026-04-25T05:20:36Z</time></trkpt><trkpt lat="45.514632641142136" lon="9.225375499865896"><ele>136.0</ele><time>2026-04-25T05:20:37Z</time></trkpt><trkpt lat="45.51470596074922" lon="9.225399498549587"><ele>136.0</ele><time>2026-04-25T05:20:38Z</time></trkpt><trkpt lat="45.51478024700245" lon="9.225422264280772"><ele>136.0</ele><time>2026-04-25T05:20:39Z</time></trkpt><trkpt lat="45.51485267287922" lon="9.22544651379352"><ele>135.99999999999997</ele><time>2026-04-25T05:20:40Z</time></trkpt><trkpt lat="45.51492598263604" lon="9.225465668720982"><ele>136.0</ele><time>2026-04-25T05:20:41Z</time></trkpt><trkpt lat="45.51499794522507" lon="9.225492287706945"><ele>135.83333333333334</ele><time>2026-04-25T05:20:42Z</time></trkpt><trkpt lat="45.51507340502607" lon="9.225516553478947"><ele>135.66666666666669</ele><time>2026-04-25T05:20:43Z</time></trkpt><trkpt lat="45.51515026679617" lon="9.22554083245449"><ele>135.5</ele><time>2026-04-25T05:20:44Z</time></trkpt><trkpt lat="45.51522660736377" lon="9.225566990341799"><ele>135.33333333333334</ele><time>2026-04-25T05:20:45Z</time></trkpt><trkpt lat="45.51530257472314" lon="9.2255904580212"><ele>135.16666666666666</ele><time>2026-04-25T05:20:46Z</time></trkpt><trkpt lat="45.51537751915689" lon="9.225615940243934"><ele>135.0</ele><time>2026-04-25T05:20:47Z</time></trkpt><trkpt lat="45.515453776350924" lon="9.22563957205827"><ele>135.16666666666666</ele><time>2026-04-25T05:20:48Z</time></trkpt><trkpt lat="45.515532780335796" lon="9.225667661755784"><ele>135.33333333333334</ele><time>2026-04-25T05:20:49Z</time></trkpt><trkpt lat="45.51560615446528" lon="9.225691348791909"><ele>135.5</ele><time>2026-04-25T05:20:50Z</time></trkpt><trkpt lat="45.515683222572214" lon="9.225709506454429"><ele>135.66666666666669</ele><time>2026-04-25T05:20:51Z</time></trkpt><trkpt lat="45.51575736490914" lon="9.22573937740925"><ele>135.83333333333334</ele><time>2026-04-25T05:20:52Z</time></trkpt><trkpt lat="45.515833973068794" lon="9.22576126355837"><ele>136.0</ele><time>2026-04-25T05:20:53Z</time></trkpt><trkpt lat="45.51591064365131" lon="9.225783252689647"><ele>135.99999999999997</ele><time>2026-04-25T05:20:54Z</time></trkpt><trkpt lat="45.51598651006968" lon="9.225806533295815"><ele>136.0</ele><time>2026-04-25T05:20:55Z</time></trkpt><trkpt lat="45.51605661465913" lon="9.225830207269945"><ele>136.0</ele><time>2026-04-25T05:20:56Z</time></trkpt><trkpt lat="45.516126499259606" lon="9.22585118284197"><ele>136.0</ele><time>2026-04-25T05:20:57Z</time></trkpt><trkpt lat="45.51620098046499" lon="9.225868625840477"><ele>136.0</ele><time>2026-04-25T05:20:58Z</time></trkpt><trkpt lat="45.51627344471937" lon="9.225889363057972"><ele>135.99999999999997</ele><time>2026-04-25T05:20:59Z</time></trkpt><trkpt lat="45.51634637139193" lon="9.225906941304418"><ele>136.0</ele><time>2026-04-25T05:20:59.999Z</time></trkpt><trkpt lat="45.51641658633826" lon="9.225924803000462"><ele>136.16666666666669</ele><time>2026-04-25T05:21:00.999Z</time></trkpt><trkpt lat="45.516482822699345" lon="9.225946456267403"><ele>136.33333333333334</ele><time>2026-04-25T05:21:01.999Z</time></trkpt><trkpt lat="45.51654832988836" lon="9.225966890868717"><ele>136.5</ele><time>2026-04-25T05:21:02.999Z</time></trkpt><trkpt lat="45.51661255519824" lon="9.225984655816871"><ele>136.66666666666666</ele><time>2026-04-25T05:21:03.999Z</time></trkpt><trkpt lat="45.5167278766321" lon="9.226023518811932"><ele>136.83333333333331</ele><time>2026-04-25T05:21:05.999Z</time></trkpt><trkpt lat="45.5168320237418" lon="9.226051390059164"><ele>137.0</ele><time>2026-04-25T05:21:07.999Z</time></trkpt><trkpt lat="45.51693727736186" lon="9.226077398507698"><ele>137.0</ele><time>2026-04-25T05:21:09.999Z</time></trkpt><trkpt lat="45.51704534250914" lon="9.226109302358859"><ele>137.0</ele><time>2026-04-25T05:21:11.999Z</time></trkpt><trkpt lat="45.5171083275441" lon="9.226127896187984"><ele>137.0</ele><time>2026-04-25T05:21:12.999Z</time></trkpt><trkpt lat="45.517168413546464" lon="9.226165721663252"><ele>137.0</ele><time>2026-04-25T05:21:13.999Z</time></trkpt><trkpt lat="45.51724275594589" lon="9.226173118295929"><ele>137.0</ele><time>2026-04-25T05:21:14.999Z</time></trkpt><trkpt lat="45.51731666916222" lon="9.226201859145203"><ele>137.0</ele><time>2026-04-25T05:21:15.999Z</time></trkpt><trkpt lat="45.5173889667212" lon="9.226223850203843"><ele>137.16666666666666</ele><time>2026-04-25T05:21:16.999Z</time></trkpt><trkpt lat="45.51746198875623" lon="9.226246439062392"><ele>137.33333333333331</ele><time>2026-04-25T05:21:17.999Z</time></trkpt><trkpt lat="45.517535906864694" lon="9.22626344708139"><ele>137.5</ele><time>2026-04-25T05:21:18.999Z</time></trkpt><trkpt lat="45.51761060514039" lon="9.226282186535641"><ele>137.66666666666666</ele><time>2026-04-25T05:21:19.999Z</time></trkpt><trkpt lat="45.51768916061682" lon="9.22630508660165"><ele>137.83333333333334</ele><time>2026-04-25T05:21:20.999Z</time></trkpt><trkpt lat="45.51776503779659" lon="9.226326199627762"><ele>138.0</ele><time>2026-04-25T05:21:21.999Z</time></trkpt><trkpt lat="45.51784125944337" lon="9.226348280525059"><ele>137.85714285714286</ele><time>2026-04-25T05:21:22.999Z</time></trkpt><trkpt lat="45.51791761365787" lon="9.226370550062407"><ele>137.71428571428572</ele><time>2026-04-25T05:21:23.999Z</time></trkpt><trkpt lat="45.51799525501575" lon="9.226389408239358"><ele>137.57142857142858</ele><time>2026-04-25T05:21:24.999Z</time></trkpt><trkpt lat="45.51806611113702" lon="9.226411502894635"><ele>137.42857142857144</ele><time>2026-04-25T05:21:25.999Z</time></trkpt><trkpt lat="45.5181336000343" lon="9.226432720696247"><ele>137.28571428571428</ele><time>2026-04-25T05:21:26.999Z</time></trkpt><trkpt lat="45.518201256316225" lon="9.226451145336725"><ele>137.14285714285717</ele><time>2026-04-25T05:21:27.999Z</time></trkpt><trkpt lat="45.518266825144885" lon="9.226472790633983"><ele>137.0</ele><time>2026-04-25T05:21:28.999Z</time></trkpt><trkpt lat="45.5183291606959" lon="9.226496268173888"><ele>137.0</ele><time>2026-04-25T05:21:29.999Z</time></trkpt><trkpt lat="45.51845069027078" lon="9.226541468879965"><ele>137.0</ele><time>2026-04-25T05:21:31.999Z</time></trkpt><trkpt lat="45.51855367380313" lon="9.226575930358294"><ele>137.0</ele><time>2026-04-25T05:21:33.999Z</time></trkpt><trkpt lat="45.51861837215896" lon="9.22659975605095"><ele>137.0</ele><time>2026-04-25T05:21:35.999Z</time></trkpt><trkpt lat="45.518686381099855" lon="9.226609189630116"><ele>137.0</ele><time>2026-04-25T05:21:38.999Z</time></trkpt><trkpt lat="45.51884469972757" lon="9.226676417656941"><ele>136.79999999999998</ele><time>2026-04-25T05:21:42.999Z</time></trkpt><trkpt lat="45.51895523353466" lon="9.22669306651606"><ele>136.6</ele><time>2026-04-25T05:21:44.999Z</time></trkpt><trkpt lat="45.51908051866933" lon="9.226734650676484"><ele>136.39999999999998</ele><time>2026-04-25T05:21:46.999Z</time></trkpt><trkpt lat="45.51921027069436" lon="9.226771438198368"><ele>136.2</ele><time>2026-04-25T05:21:48.999Z</time></trkpt><trkpt lat="45.51927859581434" lon="9.226791428368553"><ele>136.0</ele><time>2026-04-25T05:21:49.999Z</time></trkpt><trkpt lat="45.519346227043265" lon="9.226812500639591"><ele>135.99999999999997</ele><time>2026-04-25T05:21:50.999Z</time></trkpt><trkpt lat="45.51941245241368" lon="9.226830098195647"><ele>136.0</ele><time>2026-04-25T05:21:51.999Z</time></trkpt><trkpt lat="45.51947809823684" lon="9.226854226485983"><ele>136.0</ele><time>2026-04-25T05:21:52.999Z</time></trkpt><trkpt lat="45.51954771922458" lon="9.22687327851611"><ele>136.0</ele><time>2026-04-25T05:21:53.999Z</time></trkpt><trkpt lat="45.519619126373094" lon="9.226894733883636"><ele>136.0</ele><time>2026-04-25T05:21:54.999Z</time></trkpt><trkpt lat="45.519690508843766" lon="9.226914667805065"><ele>135.99999999999997</ele><time>2026-04-25T05:21:55.999Z</time></trkpt><trkpt lat="45.5197607200878" lon="9.22693251690698"><ele>136.0</ele><time>2026-04-25T05:21:56.999Z</time></trkpt><trkpt lat="45.51983531821818" lon="9.226954258068586"><ele>136.66666666666669</ele><time>2026-04-25T05:21:57.999Z</time></trkpt><trkpt lat="45.51990973492698" lon="9.226977052414064"><ele>137.33333333333334</ele><time>2026-04-25T05:21:58.999Z</time></trkpt><trkpt lat="45.51998251329416" lon="9.227006697855611"><ele>138.0</ele><time>2026-04-25T05:21:59.999Z</time></trkpt><trkpt lat="45.52005764193302" lon="9.227031359206451"><ele>138.66666666666666</ele><time>2026-04-25T05:22:00.999Z</time></trkpt><trkpt lat="45.5201331115596" lon="9.227055791293036"><ele>139.33333333333331</ele><time>2026-04-25T05:22:01.999Z</time></trkpt><trkpt lat="45.52020609958449" lon="9.22707816854417"><ele>140.0</ele><time>2026-04-25T05:22:02.999Z</time></trkpt><trkpt lat="45.520281499709455" lon="9.2270985355158"><ele>140.0</ele><time>2026-04-25T05:22:03.999Z</time></trkpt><trkpt lat="45.52035598614568" lon="9.22712215788161"><ele>140.0</ele><time>2026-04-25T05:22:04.999Z</time></trkpt><trkpt lat="45.520428175136786" lon="9.227142590359424"><ele>140.0</ele><time>2026-04-25T05:22:05.999Z</time></trkpt><trkpt lat="45.52050172806651" lon="9.227162507698912"><ele>140.0</ele><time>2026-04-25T05:22:06.999Z</time></trkpt><trkpt lat="45.520573321164306" lon="9.227182884202946"><ele>140.0</ele><time>2026-04-25T05:22:07.999Z</time></trkpt><trkpt lat="45.52064582231504" lon="9.227204076239541"><ele>140.0</ele><time>2026-04-25T05:22:08.999Z</time></trkpt><trkpt lat="45.52072081240518" lon="9.227225194689384"><ele>140.0</ele><time>2026-04-25T05:22:09.999Z</time></trkpt><trkpt lat="45.5207975271453" lon="9.227248265892253"><ele>139.66666666666666</ele><time>2026-04-25T05:22:10.999Z</time></trkpt><trkpt lat="45.520872547466794" lon="9.227271826002175"><ele>139.33333333333331</ele><time>2026-04-25T05:22:11.999Z</time></trkpt><trkpt lat="45.52094899517044" lon="9.227294997587776"><ele>139.0</ele><time>2026-04-25T05:22:12.999Z</time></trkpt><trkpt lat="45.52102551976213" lon="9.227314992894863"><ele>138.66666666666666</ele><time>2026-04-25T05:22:13.999Z</time></trkpt><trkpt lat="45.52109714465207" lon="9.227337904028065"><ele>138.33333333333334</ele><time>2026-04-25T05:22:14.999Z</time></trkpt><trkpt lat="45.52117200749343" lon="9.227361374935416"><ele>138.0</ele><time>2026-04-25T05:22:15.999Z</time></trkpt><trkpt lat="45.52124674573008" lon="9.227381694123494"><ele>138.0</ele><time>2026-04-25T05:22:16.999Z</time></trkpt><trkpt lat="45.521323773188904" lon="9.227401524623755"><ele>138.0</ele><time>2026-04-25T05:22:17.999Z</time></trkpt><trkpt lat="45.521395285778326" lon="9.227429238629545"><ele>138.0</ele><time>2026-04-25T05:22:18.999Z</time></trkpt><trkpt lat="45.52147125492192" lon="9.227449957787366"><ele>138.0</ele><time>2026-04-25T05:22:19.999Z</time></trkpt><trkpt lat="45.521543242760586" lon="9.22747279595353"><ele>138.0</ele><time>2026-04-25T05:22:20.999Z</time></trkpt><trkpt lat="45.52161711352184" lon="9.227495450834766"><ele>138.0</ele><time>2026-04-25T05:22:21.999Z</time></trkpt><trkpt lat="45.52169331056042" lon="9.227519386175864"><ele>138.0</ele><time>2026-04-25T05:22:22.999Z</time></trkpt><trkpt lat="45.52176873977517" lon="9.227541583283603"><ele>138.0</ele><time>2026-04-25T05:22:23.999Z</time></trkpt><trkpt lat="45.5218426779344" lon="9.227564378440405"><ele>138.0</ele><time>2026-04-25T05:22:24.999Z</time></trkpt><trkpt lat="45.52191368182758" lon="9.227587487540626"><ele>138.0</ele><time>2026-04-25T05:22:25.999Z</time></trkpt><trkpt lat="45.52198558594767" lon="9.22760851333657"><ele>138.0</ele><time>2026-04-25T05:22:26.999Z</time></trkpt><trkpt lat="45.52205876357746" lon="9.227631452621646"><ele>138.0</ele><time>2026-04-25T05:22:27.999Z</time></trkpt><trkpt lat="45.52213134508804" lon="9.227653454570087"><ele>138.0</ele><time>2026-04-25T05:22:28.999Z</time></trkpt><trkpt lat="45.52220704193347" lon="9.22767365730326"><ele>138.28571428571428</ele><time>2026-04-25T05:22:29.999Z</time></trkpt><trkpt lat="45.5222824251844" lon="9.227695670087206"><ele>138.57142857142858</ele><time>2026-04-25T05:22:30.999Z</time></trkpt><trkpt lat="45.52235654780375" lon="9.227720689644565"><ele>138.85714285714286</ele><time>2026-04-25T05:22:31.999Z</time></trkpt><trkpt lat="45.52243006460734" lon="9.227744157959433"><ele>139.14285714285714</ele><time>2026-04-25T05:22:32.999Z</time></trkpt><trkpt lat="45.52250097098967" lon="9.227762837070554"><ele>139.42857142857144</ele><time>2026-04-25T05:22:33.999Z</time></trkpt><trkpt lat="45.5225730761103" lon="9.227768223129168"><ele>139.71428571428572</ele><time>2026-04-25T05:22:34.999Z</time></trkpt><trkpt lat="45.52263514876606" lon="9.227791643611805"><ele>140.0</ele><time>2026-04-25T05:22:35.999Z</time></trkpt><trkpt lat="45.52270866014991" lon="9.22782125223946"><ele>140.0</ele><time>2026-04-25T05:22:37Z</time></trkpt><trkpt lat="45.52277736028732" lon="9.22783681700847"><ele>140.0</ele><time>2026-04-25T05:22:38Z</time></trkpt><trkpt lat="45.52284524101791" lon="9.22785646946321"><ele>140.0</ele><time>2026-04-25T05:22:39Z</time></trkpt><trkpt lat="45.5229097105255" lon="9.227868245071074"><ele>140.0</ele><time>2026-04-25T05:22:40Z</time></trkpt><trkpt lat="45.52297407343702" lon="9.22787856952926"><ele>140.0</ele><time>2026-04-25T05:22:41Z</time></trkpt><trkpt lat="45.52309600653426" lon="9.227888227191698"><ele>140.0</ele><time>2026-04-25T05:22:43Z</time></trkpt><trkpt lat="45.5232083762435" lon="9.227918913780332"><ele>139.83333333333331</ele><time>2026-04-25T05:22:45Z</time></trkpt><trkpt lat="45.52329688573129" lon="9.227952482219774"><ele>139.66666666666666</ele><time>2026-04-25T05:22:47Z</time></trkpt><trkpt lat="45.523376026206115" lon="9.228002257692218"><ele>139.5</ele><time>2026-04-25T05:22:50Z</time></trkpt><trkpt lat="45.52343849940833" lon="9.228030725447974"><ele>139.33333333333334</ele><time>2026-04-25T05:22:53Z</time></trkpt><trkpt lat="45.523516303504856" lon="9.22807849294593"><ele>139.16666666666669</ele><time>2026-04-25T05:22:57Z</time></trkpt><trkpt lat="45.52360351693619" lon="9.228095063778417"><ele>139.0</ele><time>2026-04-25T05:22:59Z</time></trkpt><trkpt lat="45.523706949439834" lon="9.228119966248247"><ele>139.0</ele><time>2026-04-25T05:23:01Z</time></trkpt><trkpt lat="45.52381628329923" lon="9.228139122879746"><ele>139.0</ele><time>2026-04-25T05:23:03Z</time></trkpt><trkpt lat="45.52393689469083" lon="9.228174074923016"><ele>139.0</ele><time>2026-04-25T05:23:05Z</time></trkpt><trkpt lat="45.523999155746935" lon="9.228194466805125"><ele>139.0</ele><time>2026-04-25T05:23:06Z</time></trkpt><trkpt lat="45.524065746451434" lon="9.22821639719433"><ele>139.0</ele><time>2026-04-25T05:23:07Z</time></trkpt><trkpt lat="45.52413226066498" lon="9.228236900214812"><ele>139.0</ele><time>2026-04-25T05:23:08Z</time></trkpt><trkpt lat="45.52420070006195" lon="9.228259683288814"><ele>139.0</ele><time>2026-04-25T05:23:09Z</time></trkpt><trkpt lat="45.524269311782" lon="9.228279336985159"><ele>139.0</ele><time>2026-04-25T05:23:10Z</time></trkpt><trkpt lat="45.52433810048401" lon="9.228300956092388"><ele>139.0</ele><time>2026-04-25T05:23:11Z</time></trkpt><trkpt lat="45.52440708675772" lon="9.228320051306081"><ele>139.0</ele><time>2026-04-25T05:23:11.999Z</time></trkpt><trkpt lat="45.52447945064952" lon="9.228337876080198"><ele>139.0</ele><time>2026-04-25T05:23:12.999Z</time></trkpt><trkpt lat="45.52455064296989" lon="9.22835925260653"><ele>139.0</ele><time>2026-04-25T05:23:13.999Z</time></trkpt><trkpt lat="45.52461782089787" lon="9.228379662934957"><ele>139.0</ele><time>2026-04-25T05:23:14.999Z</time></trkpt><trkpt lat="45.52468269390392" lon="9.228399601151523"><ele>139.57142857142856</ele><time>2026-04-25T05:23:15.999Z</time></trkpt><trkpt lat="45.52474717085091" lon="9.228422987094074"><ele>140.14285714285714</ele><time>2026-04-25T05:23:16.999Z</time></trkpt><trkpt lat="45.52481679227868" lon="9.228444782706728"><ele>140.71428571428572</ele><time>2026-04-25T05:23:17.999Z</time></trkpt><trkpt lat="45.52488837713423" lon="9.228465235693482"><ele>141.28571428571428</ele><time>2026-04-25T05:23:18.999Z</time></trkpt><trkpt lat="45.5249595392375" lon="9.22849005753852"><ele>141.85714285714286</ele><time>2026-04-25T05:23:19.999Z</time></trkpt><trkpt lat="45.52503154439413" lon="9.228510909882466"><ele>142.42857142857142</ele><time>2026-04-25T05:23:20.999Z</time></trkpt><trkpt lat="45.525099613853676" lon="9.22853016441824"><ele>143.0</ele><time>2026-04-25T05:23:21.999Z</time></trkpt><trkpt lat="45.52516774088285" lon="9.228550420516036"><ele>142.99999999999997</ele><time>2026-04-25T05:23:22.999Z</time></trkpt><trkpt lat="45.52523643329839" lon="9.228571744229995"><ele>143.0</ele><time>2026-04-25T05:23:23.999Z</time></trkpt><trkpt lat="45.52530977114843" lon="9.228589851171954"><ele>143.0</ele><time>2026-04-25T05:23:24.999Z</time></trkpt><trkpt lat="45.5253797945667" lon="9.228610334155618"><ele>143.0</ele><time>2026-04-25T05:23:25.999Z</time></trkpt><trkpt lat="45.52544746070938" lon="9.228631679099655"><ele>143.0</ele><time>2026-04-25T05:23:26.999Z</time></trkpt><trkpt lat="45.525517241976544" lon="9.22865301161275"><ele>142.99999999999997</ele><time>2026-04-25T05:23:27.999Z</time></trkpt><trkpt lat="45.52558913719575" lon="9.228674231514422"><ele>143.0</ele><time>2026-04-25T05:23:28.999Z</time></trkpt><trkpt lat="45.52566194718537" lon="9.228694533250772"><ele>142.66666666666666</ele><time>2026-04-25T05:23:29.999Z</time></trkpt><trkpt lat="45.525732810535104" lon="9.228715164179803"><ele>142.33333333333331</ele><time>2026-04-25T05:23:30.999Z</time></trkpt><trkpt lat="45.525800543649574" lon="9.228737133657123"><ele>142.0</ele><time>2026-04-25T05:23:31.999Z</time></trkpt><trkpt lat="45.52586574877181" lon="9.228755481291463"><ele>141.66666666666666</ele><time>2026-04-25T05:23:32.999Z</time></trkpt><trkpt lat="45.525929861895236" lon="9.228773626518334"><ele>141.33333333333334</ele><time>2026-04-25T05:23:33.999Z</time></trkpt><trkpt lat="45.525991931986404" lon="9.228790399500989"><ele>141.0</ele><time>2026-04-25T05:23:34.999Z</time></trkpt><trkpt lat="45.526106146114465" lon="9.228822951394193"><ele>141.0</ele><time>2026-04-25T05:23:36.999Z</time></trkpt><trkpt lat="45.52621193320695" lon="9.228856182835592"><ele>141.0</ele><time>2026-04-25T05:23:38.999Z</time></trkpt><trkpt lat="45.52629010844796" lon="9.228881775468405"><ele>141.0</ele><time>2026-04-25T05:23:40.999Z</time></trkpt><trkpt lat="45.52635568116777" lon="9.228912521934351"><ele>141.0</ele><time>2026-04-25T05:23:42.999Z</time></trkpt><trkpt lat="45.526449300079825" lon="9.22894656204358"><ele>141.0</ele><time>2026-04-25T05:23:45.999Z</time></trkpt><trkpt lat="45.5265221228578" lon="9.228941716764313"><ele>141.0</ele><time>2026-04-25T05:23:47.999Z</time></trkpt><trkpt lat="45.52661148502825" lon="9.228911544245074"><ele>141.0</ele><time>2026-04-25T05:23:49.999Z</time></trkpt><trkpt lat="45.52672166842997" lon="9.228867429269767"><ele>141.0</ele><time>2026-04-25T05:23:51.999Z</time></trkpt><trkpt lat="45.52683916891211" lon="9.228828671554695"><ele>141.0</ele><time>2026-04-25T05:23:53.999Z</time></trkpt><trkpt lat="45.52690455499246" lon="9.228822063303184"><ele>141.0</ele><time>2026-04-25T05:23:54.999Z</time></trkpt><trkpt lat="45.52697117699611" lon="9.228828907806282"><ele>141.0</ele><time>2026-04-25T05:23:55.999Z</time></trkpt><trkpt lat="45.52703958388796" lon="9.228830658642337"><ele>141.0</ele><time>2026-04-25T05:23:56.999Z</time></trkpt><trkpt lat="45.52710592927166" lon="9.22882799000058"><ele>141.0</ele><time>2026-04-25T05:23:57.999Z</time></trkpt><trkpt lat="45.52722648346605" lon="9.228853477555637"><ele>141.0</ele><time>2026-04-25T05:23:59.999Z</time></trkpt><trkpt lat="45.52734933459427" lon="9.228877509878348"><ele>141.0</ele><time>2026-04-25T05:24:01.999Z</time></trkpt><trkpt lat="45.52741553872489" lon="9.228894578386857"><ele>141.0</ele><time>2026-04-25T05:24:02.999Z</time></trkpt><trkpt lat="45.52748111074397" lon="9.228909650889038"><ele>141.0</ele><time>2026-04-25T05:24:03.999Z</time></trkpt><trkpt lat="45.527544375308665" lon="9.22892288646851"><ele>141.0</ele><time>2026-04-25T05:24:04.999Z</time></trkpt><trkpt lat="45.52761252900093" lon="9.228933822954664"><ele>141.0</ele><time>2026-04-25T05:24:05.999Z</time></trkpt><trkpt lat="45.52767955834227" lon="9.228948929766071"><ele>141.0</ele><time>2026-04-25T05:24:06.999Z</time></trkpt><trkpt lat="45.52774618905592" lon="9.22895930658839"><ele>141.0</ele><time>2026-04-25T05:24:07.999Z</time></trkpt><trkpt lat="45.527815137349336" lon="9.228975049888556"><ele>141.0</ele><time>2026-04-25T05:24:08.999Z</time></trkpt><trkpt lat="45.52788343199827" lon="9.228986568734108"><ele>141.0</ele><time>2026-04-25T05:24:09.999Z</time></trkpt><trkpt lat="45.527951447365695" lon="9.22899689425715"><ele>141.0</ele><time>2026-04-25T05:24:10.999Z</time></trkpt><trkpt lat="45.52802109321865" lon="9.22901493707847"><ele>141.0</ele><time>2026-04-25T05:24:11.999Z</time></trkpt><trkpt lat="45.52808848844823" lon="9.229026550155082"><ele>141.0</ele><time>2026-04-25T05:24:12.999Z</time></trkpt><trkpt lat="45.52815805073481" lon="9.229040855632547"><ele>141.0</ele><time>2026-04-25T05:24:13.999Z</time></trkpt><trkpt lat="45.528227967066606" lon="9.229058457794803"><ele>141.0</ele><time>2026-04-25T05:24:14.999Z</time></trkpt><trkpt lat="45.528297303189845" lon="9.229072356136491"><ele>141.0</ele><time>2026-04-25T05:24:15.999Z</time></trkpt><trkpt lat="45.52836882032526" lon="9.229087610877595"><ele>141.0</ele><time>2026-04-25T05:24:16.999Z</time></trkpt><trkpt lat="45.528440972284166" lon="9.229099455047066"><ele>141.0</ele><time>2026-04-25T05:24:17.999Z</time></trkpt><trkpt lat="45.528511316789356" lon="9.229110321114991"><ele>141.0</ele><time>2026-04-25T05:24:18.999Z</time></trkpt><trkpt lat="45.528584938084535" lon="9.229112447550765"><ele>141.0</ele><time>2026-04-25T05:24:19.999Z</time></trkpt><trkpt lat="45.52865201646546" lon="9.229097964797727"><ele>141.0</ele><time>2026-04-25T05:24:20.999Z</time></trkpt><trkpt lat="45.52872219086888" lon="9.229084994373437"><ele>141.0</ele><time>2026-04-25T05:24:21.999Z</time></trkpt><trkpt lat="45.528798001029095" lon="9.229065649522033"><ele>141.0</ele><time>2026-04-25T05:24:22.999Z</time></trkpt><trkpt lat="45.52886854734337" lon="9.229037255232003"><ele>141.0</ele><time>2026-04-25T05:24:23.999Z</time></trkpt><trkpt lat="45.52893970459364" lon="9.229012668103861"><ele>141.0</ele><time>2026-04-25T05:24:24.999Z</time></trkpt><trkpt lat="45.52900938381699" lon="9.22898932506565"><ele>141.0</ele><time>2026-04-25T05:24:25.999Z</time></trkpt><trkpt lat="45.52908125418166" lon="9.228968375104111"><ele>141.14285714285714</ele><time>2026-04-25T05:24:26.999Z</time></trkpt><trkpt lat="45.52915287461618" lon="9.228948045648929"><ele>141.28571428571428</ele><time>2026-04-25T05:24:27.999Z</time></trkpt><trkpt lat="45.529224810730824" lon="9.228924854486133"><ele>141.42857142857142</ele><time>2026-04-25T05:24:28.999Z</time></trkpt><trkpt lat="45.529298000772386" lon="9.228901461013695"><ele>141.57142857142856</ele><time>2026-04-25T05:24:29.999Z</time></trkpt><trkpt lat="45.52936823328708" lon="9.228875341241675"><ele>141.7142857142857</ele><time>2026-04-25T05:24:30.999Z</time></trkpt><trkpt lat="45.52944023178463" lon="9.228856954021383"><ele>141.85714285714286</ele><time>2026-04-25T05:24:31.999Z</time></trkpt><trkpt lat="45.529511585756104" lon="9.228836597273414"><ele>142.0</ele><time>2026-04-25T05:24:32.999Z</time></trkpt><trkpt lat="45.5295853562457" lon="9.228814561190562"><ele>142.0</ele><time>2026-04-25T05:24:33.999Z</time></trkpt><trkpt lat="45.529658366837964" lon="9.228797217305292"><ele>142.0</ele><time>2026-04-25T05:24:34.999Z</time></trkpt><trkpt lat="45.52973176294365" lon="9.228782456822477"><ele>142.0</ele><time>2026-04-25T05:24:35.999Z</time></trkpt><trkpt lat="45.52979742274171" lon="9.228753965025948"><ele>142.0</ele><time>2026-04-25T05:24:36.999Z</time></trkpt><trkpt lat="45.529869437602194" lon="9.228737259516375"><ele>142.0</ele><time>2026-04-25T05:24:37.999Z</time></trkpt><trkpt lat="45.52993840335342" lon="9.22871957024584"><ele>142.0</ele><time>2026-04-25T05:24:38.999Z</time></trkpt><trkpt lat="45.53000729852894" lon="9.228702830059918"><ele>142.0</ele><time>2026-04-25T05:24:39.999Z</time></trkpt><trkpt lat="45.53007235209701" lon="9.228683359913653"><ele>142.0</ele><time>2026-04-25T05:24:40.999Z</time></trkpt><trkpt lat="45.53013340608158" lon="9.228656593652177"><ele>142.0</ele><time>2026-04-25T05:24:41.999Z</time></trkpt><trkpt lat="45.530198620831904" lon="9.228634116600638"><ele>142.0</ele><time>2026-04-25T05:24:43Z</time></trkpt><trkpt lat="45.53026822024297" lon="9.228626107961492"><ele>142.0</ele><time>2026-04-25T05:24:44Z</time></trkpt><trkpt lat="45.53033813205088" lon="9.228619951462706"><ele>142.0</ele><time>2026-04-25T05:24:45Z</time></trkpt><trkpt lat="45.53040373765187" lon="9.228614221071558"><ele>142.0</ele><time>2026-04-25T05:24:46Z</time></trkpt><trkpt lat="45.530467069556636" lon="9.228600921000478"><ele>142.0</ele><time>2026-04-25T05:24:47Z</time></trkpt><trkpt lat="45.53053245661838" lon="9.228582534899964"><ele>142.16666666666669</ele><time>2026-04-25T05:24:48Z</time></trkpt><trkpt lat="45.53059691558135" lon="9.228561157967144"><ele>142.33333333333334</ele><time>2026-04-25T05:24:49Z</time></trkpt><trkpt lat="45.53066280653578" lon="9.228542963253078"><ele>142.5</ele><time>2026-04-25T05:24:50Z</time></trkpt><trkpt lat="45.53072822123222" lon="9.22852787148451"><ele>142.66666666666666</ele><time>2026-04-25T05:24:51Z</time></trkpt><trkpt lat="45.53079307029094" lon="9.22851229172905"><ele>142.83333333333331</ele><time>2026-04-25T05:24:52Z</time></trkpt><trkpt lat="45.53091748475841" lon="9.228480123624033"><ele>143.0</ele><time>2026-04-25T05:24:54Z</time></trkpt><trkpt lat="45.53098358086516" lon="9.228475505461788"><ele>143.0</ele><time>2026-04-25T05:24:55Z</time></trkpt><trkpt lat="45.53105209672821" lon="9.228486279847885"><ele>143.0</ele><time>2026-04-25T05:24:56Z</time></trkpt><trkpt lat="45.53112338766619" lon="9.22851188040132"><ele>143.0</ele><time>2026-04-25T05:24:57Z</time></trkpt><trkpt lat="45.5311938477225" lon="9.228547192342273"><ele>143.0</ele><time>2026-04-25T05:24:58Z</time></trkpt><trkpt lat="45.53126564224156" lon="9.228591296980122"><ele>143.0</ele><time>2026-04-25T05:24:59Z</time></trkpt><trkpt lat="45.53133541135523" lon="9.22864212790009"><ele>143.0</ele><time>2026-04-25T05:25:00Z</time></trkpt><trkpt lat="45.53140685751737" lon="9.228703939429922"><ele>143.0</ele><time>2026-04-25T05:25:01Z</time></trkpt><trkpt lat="45.5314770092206" lon="9.228771228552835"><ele>143.0</ele><time>2026-04-25T05:25:02Z</time></trkpt><trkpt lat="45.531549356701326" lon="9.228841171616226"><ele>143.0</ele><time>2026-04-25T05:25:03Z</time></trkpt><trkpt lat="45.53161879083688" lon="9.228916734081864"><ele>143.0</ele><time>2026-04-25T05:25:04Z</time></trkpt><trkpt lat="45.531698030191244" lon="9.22896410596058"><ele>143.0</ele><time>2026-04-25T05:25:05Z</time></trkpt><trkpt lat="45.53176373552177" lon="9.229058478119258"><ele>143.0</ele><time>2026-04-25T05:25:06Z</time></trkpt><trkpt lat="45.531816264439584" lon="9.229152010445468"><ele>143.16666666666666</ele><time>2026-04-25T05:25:07Z</time></trkpt><trkpt lat="45.53188387551557" lon="9.229225740016565"><ele>143.33333333333331</ele><time>2026-04-25T05:25:08Z</time></trkpt><trkpt lat="45.53194072593659" lon="9.229317981963042"><ele>143.5</ele><time>2026-04-25T05:25:09Z</time></trkpt><trkpt lat="45.53200294559429" lon="9.229403030042736"><ele>143.66666666666666</ele><time>2026-04-25T05:25:10Z</time></trkpt><trkpt lat="45.53207165102743" lon="9.22949169585296"><ele>143.83333333333334</ele><time>2026-04-25T05:25:11Z</time></trkpt><trkpt lat="45.53213540154933" lon="9.229575726936567"><ele>144.0</ele><time>2026-04-25T05:25:12Z</time></trkpt><trkpt lat="45.53220231998301" lon="9.229658501094796"><ele>144.16666666666666</ele><time>2026-04-25T05:25:13Z</time></trkpt><trkpt lat="45.53226604548932" lon="9.229745250259047"><ele>144.33333333333334</ele><time>2026-04-25T05:25:14Z</time></trkpt><trkpt lat="45.53233190559224" lon="9.229826311152241"><ele>144.5</ele><time>2026-04-25T05:25:15Z</time></trkpt><trkpt lat="45.532394787053406" lon="9.229905473989657"><ele>144.66666666666669</ele><time>2026-04-25T05:25:16Z</time></trkpt><trkpt lat="45.53245641035123" lon="9.229986588021077"><ele>144.83333333333334</ele><time>2026-04-25T05:25:17Z</time></trkpt><trkpt lat="45.53251737787256" lon="9.230063259320119"><ele>145.0</ele><time>2026-04-25T05:25:18Z</time></trkpt><trkpt lat="45.5325770290146" lon="9.23014791265078"><ele>144.66666666666669</ele><time>2026-04-25T05:25:19Z</time></trkpt><trkpt lat="45.53264053818014" lon="9.230231535529462"><ele>144.33333333333334</ele><time>2026-04-25T05:25:20Z</time></trkpt><trkpt lat="45.532702067108495" lon="9.230317183045534"><ele>144.0</ele><time>2026-04-25T05:25:21Z</time></trkpt><trkpt lat="45.53276277135551" lon="9.230401035705823"><ele>143.66666666666666</ele><time>2026-04-25T05:25:22Z</time></trkpt><trkpt lat="45.53282035137795" lon="9.230488572756515"><ele>143.33333333333331</ele><time>2026-04-25T05:25:23Z</time></trkpt><trkpt lat="45.53287732811756" lon="9.23057347479539"><ele>143.0</ele><time>2026-04-25T05:25:23.999Z</time></trkpt><trkpt lat="45.53293247431048" lon="9.230659095123885"><ele>143.0</ele><time>2026-04-25T05:25:24.999Z</time></trkpt><trkpt lat="45.53299058319282" lon="9.230737014722573"><ele>143.0</ele><time>2026-04-25T05:25:25.999Z</time></trkpt><trkpt lat="45.53305372874647" lon="9.23080590963497"><ele>143.0</ele><time>2026-04-25T05:25:26.999Z</time></trkpt><trkpt lat="45.53311808435506" lon="9.230864983317817"><ele>143.0</ele><time>2026-04-25T05:25:27.999Z</time></trkpt><trkpt lat="45.533181731559125" lon="9.230919865220498"><ele>143.0</ele><time>2026-04-25T05:25:28.999Z</time></trkpt><trkpt lat="45.533256343524144" lon="9.230938960755578"><ele>143.0</ele><time>2026-04-25T05:25:29.999Z</time></trkpt><trkpt lat="45.53332409397825" lon="9.230963457463497"><ele>143.0</ele><time>2026-04-25T05:25:30.999Z</time></trkpt><trkpt lat="45.533390404845" lon="9.230980027281054"><ele>143.0</ele><time>2026-04-25T05:25:31.999Z</time></trkpt><trkpt lat="45.53351022133573" lon="9.231008019639154"><ele>143.0</ele><time>2026-04-25T05:25:33.999Z</time></trkpt><trkpt lat="45.53363266256017" lon="9.231041896786413"><ele>143.0</ele><time>2026-04-25T05:25:35.999Z</time></trkpt><trkpt lat="45.53370481143777" lon="9.231062549007284"><ele>143.0</ele><time>2026-04-25T05:25:36.999Z</time></trkpt><trkpt lat="45.53377604067213" lon="9.231086690584661"><ele>143.0</ele><time>2026-04-25T05:25:37.999Z</time></trkpt><trkpt lat="45.53385345892839" lon="9.231123735681237"><ele>143.0</ele><time>2026-04-25T05:25:38.999Z</time></trkpt><trkpt lat="45.53394258127741" lon="9.231167220437706"><ele>143.0</ele><time>2026-04-25T05:25:39.999Z</time></trkpt><trkpt lat="45.534007502662476" lon="9.231241386732876"><ele>143.0</ele><time>2026-04-25T05:25:40.999Z</time></trkpt><trkpt lat="45.53407921323514" lon="9.231319329997921"><ele>143.0</ele><time>2026-04-25T05:25:41.999Z</time></trkpt><trkpt lat="45.53414767497955" lon="9.231400092260396"><ele>143.0</ele><time>2026-04-25T05:25:42.999Z</time></trkpt><trkpt lat="45.53421611326643" lon="9.231474957344929"><ele>143.14285714285714</ele><time>2026-04-25T05:25:43.999Z</time></trkpt><trkpt lat="45.53427714900752" lon="9.23153530445137"><ele>143.28571428571428</ele><time>2026-04-25T05:25:44.999Z</time></trkpt><trkpt lat="45.53433779137886" lon="9.23158793859901"><ele>143.42857142857144</ele><time>2026-04-25T05:25:45.999Z</time></trkpt><trkpt lat="45.53439825334431" lon="9.231642949130078"><ele>143.57142857142856</ele><time>2026-04-25T05:25:46.999Z</time></trkpt><trkpt lat="45.534460545871596" lon="9.231695266163511"><ele>143.71428571428572</ele><time>2026-04-25T05:25:47.999Z</time></trkpt><trkpt lat="45.534520354151155" lon="9.231750301050564"><ele>143.85714285714286</ele><time>2026-04-25T05:25:48.999Z</time></trkpt><trkpt lat="45.53458389201066" lon="9.231801192066067"><ele>144.0</ele><time>2026-04-25T05:25:49.999Z</time></trkpt><trkpt lat="45.53464494407676" lon="9.23185612151112"><ele>144.00000000000003</ele><time>2026-04-25T05:25:50.999Z</time></trkpt><trkpt lat="45.53470734481084" lon="9.231910752669387"><ele>144.0</ele><time>2026-04-25T05:25:51.999Z</time></trkpt><trkpt lat="45.5347688818539" lon="9.231961914837752"><ele>144.0</ele><time>2026-04-25T05:25:52.999Z</time></trkpt><trkpt lat="45.53482816174643" lon="9.23201735476406"><ele>144.0</ele><time>2026-04-25T05:25:53.999Z</time></trkpt><trkpt lat="45.534882896362724" lon="9.232075025691325"><ele>144.0</ele><time>2026-04-25T05:25:54.999Z</time></trkpt><trkpt lat="45.534941496681924" lon="9.232123839988109"><ele>144.00000000000003</ele><time>2026-04-25T05:25:55.999Z</time></trkpt><trkpt lat="45.53499753133306" lon="9.232171537664854"><ele>144.0</ele><time>2026-04-25T05:25:56.999Z</time></trkpt><trkpt lat="45.53505242140706" lon="9.232221038656443"><ele>144.0</ele><time>2026-04-25T05:25:57.999Z</time></trkpt><trkpt lat="45.53510738954819" lon="9.232269101930273"><ele>144.0</ele><time>2026-04-25T05:25:58.999Z</time></trkpt><trkpt lat="45.535207197266956" lon="9.232364336855596"><ele>144.0</ele><time>2026-04-25T05:26:00.999Z</time></trkpt><trkpt lat="45.53529133787147" lon="9.232455074882587"><ele>144.0</ele><time>2026-04-25T05:26:02.999Z</time></trkpt><trkpt lat="45.535387604107605" lon="9.232543357458217"><ele>144.0</ele><time>2026-04-25T05:26:04.999Z</time></trkpt><trkpt lat="45.53549618011964" lon="9.232637746297298"><ele>144.14285714285717</ele><time>2026-04-25T05:26:06.999Z</time></trkpt><trkpt lat="45.53555413468204" lon="9.23268661961463"><ele>144.28571428571428</ele><time>2026-04-25T05:26:07.999Z</time></trkpt><trkpt lat="45.53560989458768" lon="9.23273910641488"><ele>144.42857142857144</ele><time>2026-04-25T05:26:08.999Z</time></trkpt><trkpt lat="45.53566752657506" lon="9.232778367606986"><ele>144.57142857142858</ele><time>2026-04-25T05:26:09.999Z</time></trkpt><trkpt lat="45.53572510084874" lon="9.232816432798483"><ele>144.71428571428572</ele><time>2026-04-25T05:26:10.999Z</time></trkpt><trkpt lat="45.535783483932356" lon="9.232858801214578"><ele>144.85714285714286</ele><time>2026-04-25T05:26:11.999Z</time></trkpt><trkpt lat="45.53584329014052" lon="9.23290187104236"><ele>145.0</ele><time>2026-04-25T05:26:12.999Z</time></trkpt><trkpt lat="45.53590638278631" lon="9.232944250200658"><ele>145.0</ele><time>2026-04-25T05:26:13.999Z</time></trkpt><trkpt lat="45.53596395153262" lon="9.232988738177426"><ele>145.0</ele><time>2026-04-25T05:26:14.999Z</time></trkpt><trkpt lat="45.53601989364381" lon="9.23303826938623"><ele>145.0</ele><time>2026-04-25T05:26:15.999Z</time></trkpt><trkpt lat="45.53607723982817" lon="9.233091582181817"><ele>145.0</ele><time>2026-04-25T05:26:16.999Z</time></trkpt><trkpt lat="45.53614102243614" lon="9.233141105799458"><ele>145.0</ele><time>2026-04-25T05:26:17.999Z</time></trkpt><trkpt lat="45.53620080391745" lon="9.23319215976952"><ele>145.0</ele><time>2026-04-25T05:26:18.999Z</time></trkpt><trkpt lat="45.53625827852827" lon="9.233240802062356"><ele>145.0</ele><time>2026-04-25T05:26:19.999Z</time></trkpt><trkpt lat="45.5363168086745" lon="9.233291601891136"><ele>145.0</ele><time>2026-04-25T05:26:20.999Z</time></trkpt><trkpt lat="45.536376406014476" lon="9.233347422349135"><ele>145.0</ele><time>2026-04-25T05:26:21.999Z</time></trkpt><trkpt lat="45.536436971525404" lon="9.233402730916138"><ele>145.0</ele><time>2026-04-25T05:26:22.999Z</time></trkpt><trkpt lat="45.53649697933086" lon="9.233453548247"><ele>145.0</ele><time>2026-04-25T05:26:23.999Z</time></trkpt><trkpt lat="45.53655376709314" lon="9.233506725231042"><ele>145.0</ele><time>2026-04-25T05:26:24.999Z</time></trkpt><trkpt lat="45.53661472423688" lon="9.233559315970698"><ele>145.0</ele><time>2026-04-25T05:26:25.999Z</time></trkpt><trkpt lat="45.536680135694425" lon="9.233613976932846"><ele>145.0</ele><time>2026-04-25T05:26:26.999Z</time></trkpt><trkpt lat="45.53674324206459" lon="9.233671938536329"><ele>145.0</ele><time>2026-04-25T05:26:27.999Z</time></trkpt><trkpt lat="45.53680734930268" lon="9.233726861880045"><ele>145.0</ele><time>2026-04-25T05:26:28.999Z</time></trkpt><trkpt lat="45.536871815437394" lon="9.233787270079029"><ele>145.0</ele><time>2026-04-25T05:26:29.999Z</time></trkpt><trkpt lat="45.53693749101012" lon="9.233847198125266"><ele>145.0</ele><time>2026-04-25T05:26:30.999Z</time></trkpt><trkpt lat="45.537004805693705" lon="9.233901617679928"><ele>145.0</ele><time>2026-04-25T05:26:31.999Z</time></trkpt><trkpt lat="45.53707372049718" lon="9.23395965429128"><ele>145.0</ele><time>2026-04-25T05:26:32.999Z</time></trkpt><trkpt lat="45.53714136649755" lon="9.234024685393836"><ele>145.16666666666669</ele><time>2026-04-25T05:26:33.999Z</time></trkpt><trkpt lat="45.53720884042515" lon="9.23409552175408"><ele>145.33333333333334</ele><time>2026-04-25T05:26:34.999Z</time></trkpt><trkpt lat="45.5372757288475" lon="9.234170883616343"><ele>145.5</ele><time>2026-04-25T05:26:35.999Z</time></trkpt><trkpt lat="45.537342974008475" lon="9.234244322619716"><ele>145.66666666666666</ele><time>2026-04-25T05:26:36.999Z</time></trkpt><trkpt lat="45.537415925804765" lon="9.234308379423695"><ele>145.83333333333331</ele><time>2026-04-25T05:26:37.999Z</time></trkpt><trkpt lat="45.537490429980366" lon="9.234373452779145"><ele>146.0</ele><time>2026-04-25T05:26:38.999Z</time></trkpt><trkpt lat="45.53756539662879" lon="9.23444029949443"><ele>146.0</ele><time>2026-04-25T05:26:39.999Z</time></trkpt><trkpt lat="45.537633381230876" lon="9.23450860945289"><ele>146.0</ele><time>2026-04-25T05:26:40.999Z</time></trkpt><trkpt lat="45.537702036274815" lon="9.23457718065382"><ele>146.0</ele><time>2026-04-25T05:26:41.999Z</time></trkpt><trkpt lat="45.53777151111861" lon="9.234644633558942"><ele>146.0</ele><time>2026-04-25T05:26:42.999Z</time></trkpt><trkpt lat="45.537838947400026" lon="9.234709923462525"><ele>146.0</ele><time>2026-04-25T05:26:43.999Z</time></trkpt><trkpt lat="45.537904640766754" lon="9.234770671688505"><ele>146.0</ele><time>2026-04-25T05:26:44.999Z</time></trkpt><trkpt lat="45.5379705032848" lon="9.234831776782606"><ele>145.83333333333331</ele><time>2026-04-25T05:26:45.999Z</time></trkpt><trkpt lat="45.53803466642138" lon="9.234887248986082"><ele>145.66666666666666</ele><time>2026-04-25T05:26:46.999Z</time></trkpt><trkpt lat="45.53809645416848" lon="9.234947215732852"><ele>145.5</ele><time>2026-04-25T05:26:47.999Z</time></trkpt><trkpt lat="45.53815564390544" lon="9.235007657912515"><ele>145.33333333333334</ele><time>2026-04-25T05:26:49Z</time></trkpt><trkpt lat="45.53821453894149" lon="9.235064157151744"><ele>145.16666666666669</ele><time>2026-04-25T05:26:50Z</time></trkpt><trkpt lat="45.5382687780935" lon="9.235121893151618"><ele>145.0</ele><time>2026-04-25T05:26:51Z</time></trkpt><trkpt lat="45.53835619747778" lon="9.235221811509609"><ele>145.0</ele><time>2026-04-25T05:26:53Z</time></trkpt><trkpt lat="45.53842077181195" lon="9.235305065975044"><ele>145.0</ele><time>2026-04-25T05:26:55Z</time></trkpt><trkpt lat="45.53848365709871" lon="9.235388675904376"><ele>145.0</ele><time>2026-04-25T05:26:58Z</time></trkpt><trkpt lat="45.538547100233" lon="9.235456894385745"><ele>145.0</ele><time>2026-04-25T05:27:01Z</time></trkpt><trkpt lat="45.53864049871083" lon="9.23551834593927"><ele>145.0</ele><time>2026-04-25T05:27:04Z</time></trkpt><trkpt lat="45.53873041455129" lon="9.235590735757373"><ele>145.0</ele><time>2026-04-25T05:27:06Z</time></trkpt><trkpt lat="45.5388113253439" lon="9.235659157117606"><ele>145.0</ele><time>2026-04-25T05:27:08Z</time></trkpt><trkpt lat="45.538901739311406" lon="9.235737053643225"><ele>145.0</ele><time>2026-04-25T05:27:10Z</time></trkpt><trkpt lat="45.53899082460243" lon="9.235829516152586"><ele>145.0</ele><time>2026-04-25T05:27:12Z</time></trkpt><trkpt lat="45.539074067800605" lon="9.235912313954865"><ele>145.0</ele><time>2026-04-25T05:27:14Z</time></trkpt><trkpt lat="45.53916052725031" lon="9.235995482751271"><ele>145.0</ele><time>2026-04-25T05:27:16Z</time></trkpt><trkpt lat="45.53924670438633" lon="9.236079444873242"><ele>145.0</ele><time>2026-04-25T05:27:18Z</time></trkpt><trkpt lat="45.53931897703603" lon="9.23616236214859"><ele>145.0</ele><time>2026-04-25T05:27:20Z</time></trkpt><trkpt lat="45.53937757544059" lon="9.23622686181257"><ele>145.0</ele><time>2026-04-25T05:27:22Z</time></trkpt><trkpt lat="45.53943896640432" lon="9.236285811576728"><ele>145.0</ele><time>2026-04-25T05:27:25Z</time></trkpt><trkpt lat="45.53949570589656" lon="9.236334886727585"><ele>145.0</ele><time>2026-04-25T05:27:28Z</time></trkpt><trkpt lat="45.539555265414016" lon="9.236395150058277"><ele>144.8</ele><time>2026-04-25T05:27:31Z</time></trkpt><trkpt lat="45.539618750194016" lon="9.236472875761974"><ele>144.6</ele><time>2026-04-25T05:27:32.999Z</time></trkpt><trkpt lat="45.5397066982066" lon="9.2365544551194"><ele>144.4</ele><time>2026-04-25T05:27:34.999Z</time></trkpt><trkpt lat="45.53980201018094" lon="9.23664757486583"><ele>144.2</ele><time>2026-04-25T05:27:36.999Z</time></trkpt><trkpt lat="45.5398565521462" lon="9.236693830693048"><ele>144.0</ele><time>2026-04-25T05:27:37.999Z</time></trkpt><trkpt lat="45.53995675633931" lon="9.236797607399588"><ele>144.00000000000003</ele><time>2026-04-25T05:27:39.999Z</time></trkpt><trkpt lat="45.54001001925044" lon="9.236847812616729"><ele>144.0</ele><time>2026-04-25T05:27:40.999Z</time></trkpt><trkpt lat="45.54006836024708" lon="9.236896008861686"><ele>144.0</ele><time>2026-04-25T05:27:41.999Z</time></trkpt><trkpt lat="45.54012435261173" lon="9.236949660025099"><ele>144.0</ele><time>2026-04-25T05:27:42.999Z</time></trkpt><trkpt lat="45.54018117241997" lon="9.237008194662906"><ele>144.0</ele><time>2026-04-25T05:27:43.999Z</time></trkpt><trkpt lat="45.54023898600316" lon="9.237063316358277"><ele>144.00000000000003</ele><time>2026-04-25T05:27:44.999Z</time></trkpt><trkpt lat="45.54029617632153" lon="9.237118189656755"><ele>144.0</ele><time>2026-04-25T05:27:45.999Z</time></trkpt><trkpt lat="45.54035422285895" lon="9.23717503240329"><ele>144.16666666666666</ele><time>2026-04-25T05:27:46.999Z</time></trkpt><trkpt lat="45.54041523506513" lon="9.237233654297034"><ele>144.33333333333334</ele><time>2026-04-25T05:27:47.999Z</time></trkpt><trkpt lat="45.540477263858534" lon="9.237293460694282"><ele>144.5</ele><time>2026-04-25T05:27:48.999Z</time></trkpt><trkpt lat="45.540540239187905" lon="9.23735253280481"><ele>144.66666666666669</ele><time>2026-04-25T05:27:49.999Z</time></trkpt><trkpt lat="45.54060201279239" lon="9.237413217721157"><ele>144.83333333333334</ele><time>2026-04-25T05:27:50.999Z</time></trkpt><trkpt lat="45.540665013178966" lon="9.237471524591548"><ele>145.0</ele><time>2026-04-25T05:27:51.999Z</time></trkpt><trkpt lat="45.54072918729444" lon="9.237532433126198"><ele>145.0</ele><time>2026-04-25T05:27:52.999Z</time></trkpt><trkpt lat="45.5407940662723" lon="9.237591341225688"><ele>145.0</ele><time>2026-04-25T05:27:53.999Z</time></trkpt><trkpt lat="45.54085385007802" lon="9.237648327535517"><ele>145.0</ele><time>2026-04-25T05:27:54.999Z</time></trkpt><trkpt lat="45.54091413359721" lon="9.237706213451258"><ele>145.0</ele><time>2026-04-25T05:27:55.999Z</time></trkpt><trkpt lat="45.5409767807492" lon="9.237766226866622"><ele>145.0</ele><time>2026-04-25T05:27:56.999Z</time></trkpt><trkpt lat="45.54104022664726" lon="9.23782501463784"><ele>145.0</ele><time>2026-04-25T05:27:57.999Z</time></trkpt><trkpt lat="45.54110288166395" lon="9.237884282270585"><ele>145.0</ele><time>2026-04-25T05:27:58.999Z</time></trkpt><trkpt lat="45.54116514211563" lon="9.2379463215318"><ele>145.16666666666669</ele><time>2026-04-25T05:27:59.999Z</time></trkpt><trkpt lat="45.541229642458816" lon="9.238009789720778"><ele>145.33333333333334</ele><time>2026-04-25T05:28:00.999Z</time></trkpt><trkpt lat="45.54129502123014" lon="9.238070325889021"><ele>145.5</ele><time>2026-04-25T05:28:01.999Z</time></trkpt><trkpt lat="45.5413607679368" lon="9.238131049819462"><ele>145.66666666666666</ele><time>2026-04-25T05:28:02.999Z</time></trkpt><trkpt lat="45.54142598281137" lon="9.238194010361264"><ele>145.83333333333331</ele><time>2026-04-25T05:28:03.999Z</time></trkpt><trkpt lat="45.54149480913769" lon="9.238256372348644"><ele>146.0</ele><time>2026-04-25T05:28:04.999Z</time></trkpt><trkpt lat="45.54156095596393" lon="9.238316712097456"><ele>146.0</ele><time>2026-04-25T05:28:05.999Z</time></trkpt><trkpt lat="45.541623173060515" lon="9.238375235025932"><ele>146.0</ele><time>2026-04-25T05:28:06.999Z</time></trkpt><trkpt lat="45.541684363847466" lon="9.238437266128328"><ele>146.0</ele><time>2026-04-25T05:28:07.999Z</time></trkpt><trkpt lat="45.54174532293066" lon="9.23849715629268"><ele>146.0</ele><time>2026-04-25T05:28:08.999Z</time></trkpt><trkpt lat="45.54180941016259" lon="9.23855771747988"><ele>146.0</ele><time>2026-04-25T05:28:09.999Z</time></trkpt><trkpt lat="45.541873968306874" lon="9.238620580417516"><ele>146.0</ele><time>2026-04-25T05:28:10.999Z</time></trkpt><trkpt lat="45.541940170258115" lon="9.238679844367585"><ele>146.0</ele><time>2026-04-25T05:28:11.999Z</time></trkpt><trkpt lat="45.542007474923466" lon="9.23874234132873"><ele>146.0</ele><time>2026-04-25T05:28:12.999Z</time></trkpt><trkpt lat="45.54207330878902" lon="9.238806534598776"><ele>146.0</ele><time>2026-04-25T05:28:13.999Z</time></trkpt><trkpt lat="45.54213965878957" lon="9.23886878118623"><ele>146.0</ele><time>2026-04-25T05:28:14.999Z</time></trkpt><trkpt lat="45.54220705179375" lon="9.238931332797874"><ele>146.0</ele><time>2026-04-25T05:28:15.999Z</time></trkpt><trkpt lat="45.54227338355777" lon="9.238994014338301"><ele>146.0</ele><time>2026-04-25T05:28:16.999Z</time></trkpt><trkpt lat="45.542340300940964" lon="9.239061931923068"><ele>146.33333333333331</ele><time>2026-04-25T05:28:17.999Z</time></trkpt><trkpt lat="45.54241545772355" lon="9.23910584269867"><ele>146.66666666666666</ele><time>2026-04-25T05:28:18.999Z</time></trkpt><trkpt lat="45.54247978897865" lon="9.239166666380457"><ele>147.0</ele><time>2026-04-25T05:28:19.999Z</time></trkpt><trkpt lat="45.5425431672193" lon="9.239226482981065"><ele>147.33333333333334</ele><time>2026-04-25T05:28:20.999Z</time></trkpt><trkpt lat="45.542606312353854" lon="9.239286029737874"><ele>147.66666666666669</ele><time>2026-04-25T05:28:21.999Z</time></trkpt><trkpt lat="45.54266957088947" lon="9.239345683436811"><ele>148.0</ele><time>2026-04-25T05:28:22.999Z</time></trkpt><trkpt lat="45.54273266144234" lon="9.239405178719066"><ele>148.0</ele><time>2026-04-25T05:28:23.999Z</time></trkpt><trkpt lat="45.54279468252335" lon="9.23946366548383"><ele>148.0</ele><time>2026-04-25T05:28:24.999Z</time></trkpt><trkpt lat="45.5428546354456" lon="9.239520214934785"><ele>148.0</ele><time>2026-04-25T05:28:25.999Z</time></trkpt><trkpt lat="45.54291264299672" lon="9.239575002570412"><ele>148.0</ele><time>2026-04-25T05:28:26.999Z</time></trkpt><trkpt lat="45.54297406261338" lon="9.239633012792273"><ele>148.0</ele><time>2026-04-25T05:28:27.999Z</time></trkpt><trkpt lat="45.54303521393755" lon="9.239690769641218"><ele>148.0</ele><time>2026-04-25T05:28:28.999Z</time></trkpt><trkpt lat="45.54309829631865" lon="9.239750350354186"><ele>148.0</ele><time>2026-04-25T05:28:29.999Z</time></trkpt><trkpt lat="45.54316108437195" lon="9.239809653068901"><ele>147.71428571428572</ele><time>2026-04-25T05:28:30.999Z</time></trkpt><trkpt lat="45.54322347943516" lon="9.23986858461618"><ele>147.42857142857142</ele><time>2026-04-25T05:28:31.999Z</time></trkpt><trkpt lat="45.543288898098716" lon="9.23993037190425"><ele>147.14285714285714</ele><time>2026-04-25T05:28:32.999Z</time></trkpt><trkpt lat="45.54335196965502" lon="9.239989942047963"><ele>146.85714285714286</ele><time>2026-04-25T05:28:33.999Z</time></trkpt><trkpt lat="45.5434120693133" lon="9.240046915381868"><ele>146.57142857142858</ele><time>2026-04-25T05:28:34.999Z</time></trkpt><trkpt lat="45.543462830691176" lon="9.240119791668343"><ele>146.28571428571428</ele><time>2026-04-25T05:28:35.999Z</time></trkpt><trkpt lat="45.54352439520622" lon="9.240176704526448"><ele>146.0</ele><time>2026-04-25T05:28:36.999Z</time></trkpt><trkpt lat="45.54358574257449" lon="9.240234112717687"><ele>146.0</ele><time>2026-04-25T05:28:37.999Z</time></trkpt><trkpt lat="45.54364852324517" lon="9.240291761636499"><ele>146.0</ele><time>2026-04-25T05:28:38.999Z</time></trkpt><trkpt lat="45.54370843895591" lon="9.240347904686159"><ele>146.0</ele><time>2026-04-25T05:28:39.999Z</time></trkpt><trkpt lat="45.54376586379352" lon="9.24040265867849"><ele>146.0</ele><time>2026-04-25T05:28:40.999Z</time></trkpt><trkpt lat="45.54382295154738" lon="9.240456622478606"><ele>146.0</ele><time>2026-04-25T05:28:41.999Z</time></trkpt><trkpt lat="45.543880854712945" lon="9.240511143670545"><ele>146.0</ele><time>2026-04-25T05:28:42.999Z</time></trkpt><trkpt lat="45.54393715748662" lon="9.240565283671696"><ele>146.0</ele><time>2026-04-25T05:28:43.999Z</time></trkpt><trkpt lat="45.543994248250144" lon="9.240617348849199"><ele>146.0</ele><time>2026-04-25T05:28:44.999Z</time></trkpt><trkpt lat="45.54405083028357" lon="9.240673812673869"><ele>146.0</ele><time>2026-04-25T05:28:45.999Z</time></trkpt><trkpt lat="45.54410867502412" lon="9.240724862528939"><ele>146.0</ele><time>2026-04-25T05:28:46.999Z</time></trkpt><trkpt lat="45.54416422761215" lon="9.240772987016605"><ele>146.0</ele><time>2026-04-25T05:28:47.999Z</time></trkpt><trkpt lat="45.544219943657204" lon="9.240822984880356"><ele>146.0</ele><time>2026-04-25T05:28:48.999Z</time></trkpt><trkpt lat="45.544276624294675" lon="9.240878527403993"><ele>146.0</ele><time>2026-04-25T05:28:49.999Z</time></trkpt><trkpt lat="45.544333286746486" lon="9.240933655133505"><ele>146.0</ele><time>2026-04-25T05:28:50.999Z</time></trkpt><trkpt lat="45.544389060201574" lon="9.240987766110813"><ele>146.0</ele><time>2026-04-25T05:28:51.999Z</time></trkpt><trkpt lat="45.54444647734818" lon="9.241041606388192"><ele>146.0</ele><time>2026-04-25T05:28:52.999Z</time></trkpt><trkpt lat="45.54450623927136" lon="9.241094794780068"><ele>146.0</ele><time>2026-04-25T05:28:53.999Z</time></trkpt><trkpt lat="45.544567879597764" lon="9.241151660275682"><ele>146.0</ele><time>2026-04-25T05:28:55Z</time></trkpt><trkpt lat="45.544625852149146" lon="9.241208743740037"><ele>146.0</ele><time>2026-04-25T05:28:56Z</time></trkpt><trkpt lat="45.54468378784841" lon="9.241263607265017"><ele>146.0</ele><time>2026-04-25T05:28:57Z</time></trkpt><trkpt lat="45.54474359918377" lon="9.241320457923484"><ele>146.0</ele><time>2026-04-25T05:28:58Z</time></trkpt><trkpt lat="45.544801893078635" lon="9.241371236675601"><ele>146.57142857142856</ele><time>2026-04-25T05:28:59Z</time></trkpt><trkpt lat="45.54486151652646" lon="9.241424020462672"><ele>147.14285714285714</ele><time>2026-04-25T05:29:00Z</time></trkpt><trkpt lat="45.54492458598274" lon="9.24147968959091"><ele>147.71428571428572</ele><time>2026-04-25T05:29:01Z</time></trkpt><trkpt lat="45.54497925747927" lon="9.241541505937603"><ele>148.28571428571428</ele><time>2026-04-25T05:29:02Z</time></trkpt><trkpt lat="45.545039170312904" lon="9.241595788381586"><ele>148.85714285714286</ele><time>2026-04-25T05:29:03Z</time></trkpt><trkpt lat="45.54509477333767" lon="9.241647744021478"><ele>149.42857142857142</ele><time>2026-04-25T05:29:04Z</time></trkpt><trkpt lat="45.545150787992405" lon="9.241700986327722"><ele>150.0</ele><time>2026-04-25T05:29:05Z</time></trkpt><trkpt lat="45.54520824634835" lon="9.241756534229484"><ele>149.99999999999997</ele><time>2026-04-25T05:29:06Z</time></trkpt><trkpt lat="45.54526594995357" lon="9.241807859630512"><ele>150.0</ele><time>2026-04-25T05:29:07Z</time></trkpt><trkpt lat="45.54532411434359" lon="9.24186283447057"><ele>150.0</ele><time>2026-04-25T05:29:08Z</time></trkpt><trkpt lat="45.54538018502385" lon="9.241915905550831"><ele>150.0</ele><time>2026-04-25T05:29:09Z</time></trkpt><trkpt lat="45.54543744830741" lon="9.241968958901207"><ele>150.0</ele><time>2026-04-25T05:29:10Z</time></trkpt><trkpt lat="45.545497461808" lon="9.242021015243996"><ele>149.99999999999997</ele><time>2026-04-25T05:29:11Z</time></trkpt><trkpt lat="45.54555776416346" lon="9.242072424480192"><ele>150.0</ele><time>2026-04-25T05:29:12Z</time></trkpt><trkpt lat="45.54561600039832" lon="9.242126277879086"><ele>149.99999999999997</ele><time>2026-04-25T05:29:13Z</time></trkpt><trkpt lat="45.54567536606537" lon="9.242180917778986"><ele>150.0</ele><time>2026-04-25T05:29:14Z</time></trkpt><trkpt lat="45.54573207773224" lon="9.242233923046776"><ele>150.0</ele><time>2026-04-25T05:29:15Z</time></trkpt><trkpt lat="45.54578798237896" lon="9.242287732537774"><ele>150.0</ele><time>2026-04-25T05:29:16Z</time></trkpt><trkpt lat="45.54584615210429" lon="9.242342562613759"><ele>150.0</ele><time>2026-04-25T05:29:17Z</time></trkpt><trkpt lat="45.54590472009462" lon="9.242398793877005"><ele>149.99999999999997</ele><time>2026-04-25T05:29:18Z</time></trkpt><trkpt lat="45.545959229376514" lon="9.242451258734555"><ele>150.0</ele><time>2026-04-25T05:29:19Z</time></trkpt><trkpt lat="45.546064851491266" lon="9.242551040760254"><ele>149.66666666666666</ele><time>2026-04-25T05:29:21Z</time></trkpt><trkpt lat="45.546117826876795" lon="9.242602433760963"><ele>149.33333333333334</ele><time>2026-04-25T05:29:22Z</time></trkpt><trkpt lat="45.54617268854681" lon="9.242650008873385"><ele>149.0</ele><time>2026-04-25T05:29:23Z</time></trkpt><trkpt lat="45.546272750184805" lon="9.242748250650019"><ele>148.66666666666669</ele><time>2026-04-25T05:29:25Z</time></trkpt><trkpt lat="45.5463579301489" lon="9.242826674258035"><ele>148.33333333333334</ele><time>2026-04-25T05:29:27Z</time></trkpt><trkpt lat="45.54643221721409" lon="9.242900746268077"><ele>148.0</ele><time>2026-04-25T05:29:29Z</time></trkpt><trkpt lat="45.546508928642275" lon="9.242980556059344"><ele>147.83333333333334</ele><time>2026-04-25T05:29:31Z</time></trkpt><trkpt lat="45.54660257883326" lon="9.243068802485638"><ele>147.66666666666669</ele><time>2026-04-25T05:29:33Z</time></trkpt><trkpt lat="45.54671003483928" lon="9.243166006664588"><ele>147.5</ele><time>2026-04-25T05:29:35Z</time></trkpt><trkpt lat="45.54676750371164" lon="9.243218016017462"><ele>147.33333333333334</ele><time>2026-04-25T05:29:36Z</time></trkpt><trkpt lat="45.54682279337415" lon="9.243269922984164"><ele>147.16666666666666</ele><time>2026-04-25T05:29:37Z</time></trkpt><trkpt lat="45.54687713980678" lon="9.243321543724818"><ele>147.0</ele><time>2026-04-25T05:29:38Z</time></trkpt><trkpt lat="45.54693315265411" lon="9.243375088577523"><ele>147.28571428571428</ele><time>2026-04-25T05:29:39Z</time></trkpt><trkpt lat="45.54699081838683" lon="9.243432069728133"><ele>147.57142857142856</ele><time>2026-04-25T05:29:40Z</time></trkpt><trkpt lat="45.54704995347838" lon="9.243488265760298"><ele>147.85714285714286</ele><time>2026-04-25T05:29:41Z</time></trkpt><trkpt lat="45.547109390602586" lon="9.24354375908967"><ele>148.14285714285714</ele><time>2026-04-25T05:29:42Z</time></trkpt><trkpt lat="45.54716836148315" lon="9.24359710722874"><ele>148.42857142857142</ele><time>2026-04-25T05:29:43Z</time></trkpt><trkpt lat="45.54722548168126" lon="9.243650537126118"><ele>148.71428571428572</ele><time>2026-04-25T05:29:44Z</time></trkpt><trkpt lat="45.54728263811754" lon="9.243705809746741"><ele>149.0</ele><time>2026-04-25T05:29:45Z</time></trkpt><trkpt lat="45.54733783797749" lon="9.243766706565848"><ele>149.0</ele><time>2026-04-25T05:29:45.999Z</time></trkpt><trkpt lat="45.54739876719421" lon="9.243821639535172"><ele>149.0</ele><time>2026-04-25T05:29:46.999Z</time></trkpt><trkpt lat="45.547455121367065" lon="9.243875898486001"><ele>149.0</ele><time>2026-04-25T05:29:47.999Z</time></trkpt><trkpt lat="45.5475130658252" lon="9.24392905738752"><ele>149.0</ele><time>2026-04-25T05:29:48.999Z</time></trkpt><trkpt lat="45.547570540754876" lon="9.24398388625837"><ele>149.0</ele><time>2026-04-25T05:29:49.999Z</time></trkpt><trkpt lat="45.547629885626506" lon="9.24403889528064"><ele>149.0</ele><time>2026-04-25T05:29:50.999Z</time></trkpt><trkpt lat="45.54768591557664" lon="9.24409203773318"><ele>149.0</ele><time>2026-04-25T05:29:51.999Z</time></trkpt><trkpt lat="45.54774220464215" lon="9.244144215324626"><ele>148.71428571428572</ele><time>2026-04-25T05:29:52.999Z</time></trkpt><trkpt lat="45.547797864728544" lon="9.244194989162773"><ele>148.42857142857142</ele><time>2026-04-25T05:29:53.999Z</time></trkpt><trkpt lat="45.54785380789153" lon="9.244248715424899"><ele>148.14285714285714</ele><time>2026-04-25T05:29:54.999Z</time></trkpt><trkpt lat="45.547906152520895" lon="9.244302543374939"><ele>147.85714285714286</ele><time>2026-04-25T05:29:55.999Z</time></trkpt><trkpt lat="45.547958486802976" lon="9.24435345421284"><ele>147.57142857142856</ele><time>2026-04-25T05:29:56.999Z</time></trkpt><trkpt lat="45.548010295706845" lon="9.2444056170166"><ele>147.28571428571428</ele><time>2026-04-25T05:29:57.999Z</time></trkpt><trkpt lat="45.54811789795333" lon="9.244479421967412"><ele>147.0</ele><time>2026-04-25T05:29:59.999Z</time></trkpt><trkpt lat="45.548210612169775" lon="9.244565922296433"><ele>146.83333333333334</ele><time>2026-04-25T05:30:01.999Z</time></trkpt><trkpt lat="45.54830580109879" lon="9.244653594986698"><ele>146.66666666666666</ele><time>2026-04-25T05:30:03.999Z</time></trkpt><trkpt lat="45.548411232216345" lon="9.24475208604525"><ele>146.5</ele><time>2026-04-25T05:30:05.999Z</time></trkpt><trkpt lat="45.548466574390744" lon="9.244803785271621"><ele>146.33333333333331</ele><time>2026-04-25T05:30:06.999Z</time></trkpt><trkpt lat="45.54852320237334" lon="9.244856684631154"><ele>146.16666666666666</ele><time>2026-04-25T05:30:07.999Z</time></trkpt><trkpt lat="45.548580262245565" lon="9.244908571420126"><ele>146.0</ele><time>2026-04-25T05:30:08.999Z</time></trkpt><trkpt lat="45.548635954321895" lon="9.24495988924964"><ele>146.0</ele><time>2026-04-25T05:30:09.999Z</time></trkpt><trkpt lat="45.548693496325235" lon="9.245012911681671"><ele>146.0</ele><time>2026-04-25T05:30:10.999Z</time></trkpt><trkpt lat="45.54875286036456" lon="9.24506761304865"><ele>146.0</ele><time>2026-04-25T05:30:11.999Z</time></trkpt><trkpt lat="45.54881232738855" lon="9.245122409322612"><ele>146.0</ele><time>2026-04-25T05:30:12.999Z</time></trkpt><trkpt lat="45.54887072760178" lon="9.245176222580325"><ele>146.0</ele><time>2026-04-25T05:30:13.999Z</time></trkpt><trkpt lat="45.54892991621164" lon="9.245231173056865"><ele>146.0</ele><time>2026-04-25T05:30:14.999Z</time></trkpt><trkpt lat="45.54898972392447" lon="9.245287287287443"><ele>146.0</ele><time>2026-04-25T05:30:15.999Z</time></trkpt><trkpt lat="45.549048764787926" lon="9.245342681839078"><ele>146.0</ele><time>2026-04-25T05:30:16.999Z</time></trkpt><trkpt lat="45.54911013685764" lon="9.245396439263956"><ele>146.0</ele><time>2026-04-25T05:30:17.999Z</time></trkpt><trkpt lat="45.54916908375764" lon="9.245451168359184"><ele>146.0</ele><time>2026-04-25T05:30:18.999Z</time></trkpt><trkpt lat="45.54922710617713" lon="9.245505039097845"><ele>146.0</ele><time>2026-04-25T05:30:19.999Z</time></trkpt><trkpt lat="45.549287691971735" lon="9.245563263862332"><ele>146.0</ele><time>2026-04-25T05:30:20.999Z</time></trkpt><trkpt lat="45.549346972266164" lon="9.245623956235747"><ele>146.0</ele><time>2026-04-25T05:30:21.999Z</time></trkpt><trkpt lat="45.549402565592914" lon="9.245680873891123"><ele>146.0</ele><time>2026-04-25T05:30:22.999Z</time></trkpt><trkpt lat="45.549455504894155" lon="9.245735074260667"><ele>146.14285714285714</ele><time>2026-04-25T05:30:23.999Z</time></trkpt><trkpt lat="45.54950573870621" lon="9.245799206395125"><ele>146.28571428571428</ele><time>2026-04-25T05:30:24.999Z</time></trkpt><trkpt lat="45.54956567596514" lon="9.245842928241146"><ele>146.42857142857144</ele><time>2026-04-25T05:30:25.999Z</time></trkpt><trkpt lat="45.54962839401924" lon="9.245874830474317"><ele>146.57142857142856</ele><time>2026-04-25T05:30:26.999Z</time></trkpt><trkpt lat="45.54968981237909" lon="9.24590295745012"><ele>146.71428571428572</ele><time>2026-04-25T05:30:27.999Z</time></trkpt><trkpt lat="45.54975385210359" lon="9.245933349275113"><ele>146.85714285714286</ele><time>2026-04-25T05:30:28.999Z</time></trkpt><trkpt lat="45.54981408029919" lon="9.245970841519009"><ele>147.0</ele><time>2026-04-25T05:30:29.999Z</time></trkpt><trkpt lat="45.54987127165243" lon="9.246018542305723"><ele>147.0</ele><time>2026-04-25T05:30:30.999Z</time></trkpt><trkpt lat="45.54992417767316" lon="9.246075450433317"><ele>147.0</ele><time>2026-04-25T05:30:31.999Z</time></trkpt><trkpt lat="45.54996926170566" lon="9.246149760539923"><ele>147.0</ele><time>2026-04-25T05:30:32.999Z</time></trkpt><trkpt lat="45.550013059039834" lon="9.246227355786585"><ele>147.0</ele><time>2026-04-25T05:30:33.999Z</time></trkpt><trkpt lat="45.55005871777054" lon="9.246305432780481"><ele>147.0</ele><time>2026-04-25T05:30:34.999Z</time></trkpt><trkpt lat="45.55010917688294" lon="9.246377680216234"><ele>147.0</ele><time>2026-04-25T05:30:35.999Z</time></trkpt><trkpt lat="45.55016459268537" lon="9.246441943472764"><ele>147.0</ele><time>2026-04-25T05:30:36.999Z</time></trkpt><trkpt lat="45.55021829835841" lon="9.246496791126281"><ele>147.28571428571428</ele><time>2026-04-25T05:30:37.999Z</time></trkpt><trkpt lat="45.55027847837467" lon="9.246549761287357"><ele>147.57142857142856</ele><time>2026-04-25T05:30:38.999Z</time></trkpt><trkpt lat="45.550335003881095" lon="9.246602742417922"><ele>147.85714285714286</ele><time>2026-04-25T05:30:39.999Z</time></trkpt><trkpt lat="45.5503926912849" lon="9.24665871766904"><ele>148.14285714285714</ele><time>2026-04-25T05:30:40.999Z</time></trkpt><trkpt lat="45.550451651379696" lon="9.24671530935426"><ele>148.42857142857142</ele><time>2026-04-25T05:30:41.999Z</time></trkpt><trkpt lat="45.55051295193544" lon="9.246773637312957"><ele>148.71428571428572</ele><time>2026-04-25T05:30:42.999Z</time></trkpt><trkpt lat="45.550571483502424" lon="9.24682701534933"><ele>149.0</ele><time>2026-04-25T05:30:43.999Z</time></trkpt><trkpt lat="45.550629185652795" lon="9.2468815067824"><ele>149.14285714285714</ele><time>2026-04-25T05:30:44.999Z</time></trkpt><trkpt lat="45.55068465951537" lon="9.24693465887504"><ele>149.28571428571428</ele><time>2026-04-25T05:30:45.999Z</time></trkpt><trkpt lat="45.55074088431636" lon="9.24699344394289"><ele>149.42857142857142</ele><time>2026-04-25T05:30:46.999Z</time></trkpt><trkpt lat="45.55080167584841" lon="9.247045000311761"><ele>149.57142857142856</ele><time>2026-04-25T05:30:47.999Z</time></trkpt><trkpt lat="45.55086404916881" lon="9.247095229254333"><ele>149.71428571428572</ele><time>2026-04-25T05:30:48.999Z</time></trkpt><trkpt lat="45.550922813933816" lon="9.247144416896894"><ele>149.85714285714283</ele><time>2026-04-25T05:30:49.999Z</time></trkpt><trkpt lat="45.55097892846768" lon="9.247194281618363"><ele>150.0</ele><time>2026-04-25T05:30:50.999Z</time></trkpt><trkpt lat="45.55103772275352" lon="9.247247814012695"><ele>149.99999999999997</ele><time>2026-04-25T05:30:51.999Z</time></trkpt><trkpt lat="45.55109358340807" lon="9.247304026889072"><ele>150.0</ele><time>2026-04-25T05:30:52.999Z</time></trkpt><trkpt lat="45.55115276964341" lon="9.247360372341275"><ele>150.0</ele><time>2026-04-25T05:30:53.999Z</time></trkpt><trkpt lat="45.55121118473031" lon="9.247416054656039"><ele>150.0</ele><time>2026-04-25T05:30:54.999Z</time></trkpt><trkpt lat="45.551267914648434" lon="9.247470832042147"><ele>150.0</ele><time>2026-04-25T05:30:55.999Z</time></trkpt><trkpt lat="45.5513244824787" lon="9.247528970744652"><ele>149.99999999999997</ele><time>2026-04-25T05:30:56.999Z</time></trkpt><trkpt lat="45.551381057397826" lon="9.247592634080899"><ele>150.0</ele><time>2026-04-25T05:30:57.999Z</time></trkpt><trkpt lat="45.55143503647285" lon="9.24765500749067"><ele>150.0</ele><time>2026-04-25T05:30:58.999Z</time></trkpt><trkpt lat="45.55148429191648" lon="9.247714452443583"><ele>150.0</ele><time>2026-04-25T05:30:59.999Z</time></trkpt><trkpt lat="45.55152842149477" lon="9.2477814780706"><ele>150.0</ele><time>2026-04-25T05:31:01Z</time></trkpt><trkpt lat="45.551565069934234" lon="9.247856975866192"><ele>150.0</ele><time>2026-04-25T05:31:02Z</time></trkpt><trkpt lat="45.55162172830046" lon="9.248010463094117"><ele>150.0</ele><time>2026-04-25T05:31:04Z</time></trkpt><trkpt lat="45.55165290313896" lon="9.248169954048562"><ele>150.0</ele><time>2026-04-25T05:31:06Z</time></trkpt><trkpt lat="45.551679365164965" lon="9.248332836666918"><ele>150.2</ele><time>2026-04-25T05:31:08Z</time></trkpt><trkpt lat="45.55174153489673" lon="9.248478834342206"><ele>150.4</ele><time>2026-04-25T05:31:10Z</time></trkpt><trkpt lat="45.55184069835179" lon="9.24852121308272"><ele>150.6</ele><time>2026-04-25T05:31:12Z</time></trkpt><trkpt lat="45.55194678088311" lon="9.248461203538401"><ele>150.8</ele><time>2026-04-25T05:31:14Z</time></trkpt><trkpt lat="45.55200133800554" lon="9.248415451847576"><ele>151.0</ele><time>2026-04-25T05:31:15Z</time></trkpt><trkpt lat="45.552119443562574" lon="9.248355359119962"><ele>150.66666666666669</ele><time>2026-04-25T05:31:17Z</time></trkpt><trkpt lat="45.552187580663855" lon="9.248362562672764"><ele>150.33333333333334</ele><time>2026-04-25T05:31:18Z</time></trkpt><trkpt lat="45.552255224287514" lon="9.248402954932235"><ele>150.0</ele><time>2026-04-25T05:31:19Z</time></trkpt><trkpt lat="45.5523227630406" lon="9.248463456301751"><ele>149.66666666666666</ele><time>2026-04-25T05:31:20Z</time></trkpt><trkpt lat="45.552390964766694" lon="9.248531661325083"><ele>149.33333333333331</ele><time>2026-04-25T05:31:21Z</time></trkpt><trkpt lat="45.552457682575714" lon="9.248601153232885"><ele>149.0</ele><time>2026-04-25T05:31:22Z</time></trkpt><trkpt lat="45.55252925957754" lon="9.248670205546015"><ele>149.0</ele><time>2026-04-25T05:31:23Z</time></trkpt><trkpt lat="45.55260156938804" lon="9.248734794936047"><ele>149.0</ele><time>2026-04-25T05:31:24Z</time></trkpt><trkpt lat="45.55267111964365" lon="9.248800276123958"><ele>149.0</ele><time>2026-04-25T05:31:25Z</time></trkpt><trkpt lat="45.552739114722364" lon="9.24886527952307"><ele>149.0</ele><time>2026-04-25T05:31:26Z</time></trkpt><trkpt lat="45.552810139592644" lon="9.24893168764972"><ele>149.0</ele><time>2026-04-25T05:31:27Z</time></trkpt><trkpt lat="45.55287878656614" lon="9.24899904647181"><ele>149.0</ele><time>2026-04-25T05:31:28Z</time></trkpt><trkpt lat="45.55294453736973" lon="9.249067670657277"><ele>149.5</ele><time>2026-04-25T05:31:29Z</time></trkpt><trkpt lat="45.55300974851715" lon="9.249131644613248"><ele>150.0</ele><time>2026-04-25T05:31:30Z</time></trkpt><trkpt lat="45.55307491242229" lon="9.249197784272111"><ele>150.5</ele><time>2026-04-25T05:31:31Z</time></trkpt><trkpt lat="45.55313459950224" lon="9.24926050771779"><ele>151.0</ele><time>2026-04-25T05:31:32Z</time></trkpt><trkpt lat="45.553197534908705" lon="9.249327706220388"><ele>151.5</ele><time>2026-04-25T05:31:33Z</time></trkpt><trkpt lat="45.55326344266152" lon="9.249396081858954"><ele>152.0</ele><time>2026-04-25T05:31:34Z</time></trkpt><trkpt lat="45.55332043799938" lon="9.249465918607278"><ele>152.0</ele><time>2026-04-25T05:31:35Z</time></trkpt><trkpt lat="45.55341589745431" lon="9.249510297549492"><ele>152.0</ele><time>2026-04-25T05:31:36Z</time></trkpt><trkpt lat="45.55347249665804" lon="9.249564433649084"><ele>152.0</ele><time>2026-04-25T05:31:37Z</time></trkpt><trkpt lat="45.553529651873916" lon="9.24962795154626"><ele>152.0</ele><time>2026-04-25T05:31:38Z</time></trkpt><trkpt lat="45.55359775397902" lon="9.2496915013031"><ele>152.0</ele><time>2026-04-25T05:31:39Z</time></trkpt><trkpt lat="45.55366328542533" lon="9.249748778568744"><ele>152.0</ele><time>2026-04-25T05:31:40Z</time></trkpt><trkpt lat="45.55372400814467" lon="9.249810369741015"><ele>151.7142857142857</ele><time>2026-04-25T05:31:41Z</time></trkpt><trkpt lat="45.55378849847506" lon="9.249868453979607"><ele>151.42857142857144</ele><time>2026-04-25T05:31:42Z</time></trkpt><trkpt lat="45.553852561507505" lon="9.249928932759286"><ele>151.14285714285714</ele><time>2026-04-25T05:31:43Z</time></trkpt><trkpt lat="45.553913629767806" lon="9.24998892441937"><ele>150.85714285714283</ele><time>2026-04-25T05:31:44Z</time></trkpt><trkpt lat="45.553973865879556" lon="9.250048215543071"><ele>150.57142857142856</ele><time>2026-04-25T05:31:45Z</time></trkpt><trkpt lat="45.554036895019635" lon="9.25010505738928"><ele>150.28571428571428</ele><time>2026-04-25T05:31:46Z</time></trkpt><trkpt lat="45.554101347781014" lon="9.250157732128008"><ele>150.0</ele><time>2026-04-25T05:31:47Z</time></trkpt><trkpt lat="45.5541583629387" lon="9.2502140585022"><ele>149.99999999999997</ele><time>2026-04-25T05:31:48Z</time></trkpt><trkpt lat="45.55421394379235" lon="9.250271440050236"><ele>150.0</ele><time>2026-04-25T05:31:49Z</time></trkpt><trkpt lat="45.55427343603919" lon="9.250328599679154"><ele>150.0</ele><time>2026-04-25T05:31:50Z</time></trkpt><trkpt lat="45.55433475371946" lon="9.250384126215215"><ele>150.0</ele><time>2026-04-25T05:31:51Z</time></trkpt><trkpt lat="45.55439573217793" lon="9.250441531661366"><ele>150.0</ele><time>2026-04-25T05:31:52Z</time></trkpt><trkpt lat="45.55445645044328" lon="9.25049911572521"><ele>149.99999999999997</ele><time>2026-04-25T05:31:53Z</time></trkpt><trkpt lat="45.55451459627303" lon="9.250550471980697"><ele>150.0</ele><time>2026-04-25T05:31:54Z</time></trkpt><trkpt lat="45.55457320374616" lon="9.250599987159061"><ele>150.28571428571428</ele><time>2026-04-25T05:31:55Z</time></trkpt><trkpt lat="45.55464880043598" lon="9.250611630249816"><ele>150.57142857142856</ele><time>2026-04-25T05:31:56Z</time></trkpt><trkpt lat="45.55471086692949" lon="9.250659689906735"><ele>150.85714285714283</ele><time>2026-04-25T05:31:56.999Z</time></trkpt><trkpt lat="45.55477503779046" lon="9.250697599763564"><ele>151.14285714285714</ele><time>2026-04-25T05:31:57.999Z</time></trkpt><trkpt lat="45.55482821328569" lon="9.250792873463679"><ele>151.42857142857144</ele><time>2026-04-25T05:31:58.999Z</time></trkpt><trkpt lat="45.554864333855114" lon="9.250878736262088"><ele>151.7142857142857</ele><time>2026-04-25T05:31:59.999Z</time></trkpt><trkpt lat="45.55492120896677" lon="9.250941861080518"><ele>152.0</ele><time>2026-04-25T05:32:00.999Z</time></trkpt><trkpt lat="45.554994611688144" lon="9.25096729427157"><ele>152.0</ele><time>2026-04-25T05:32:01.999Z</time></trkpt><trkpt lat="45.55506910599468" lon="9.250984187534918"><ele>152.0</ele><time>2026-04-25T05:32:02.999Z</time></trkpt><trkpt lat="45.55514690348885" lon="9.25104202636845"><ele>152.0</ele><time>2026-04-25T05:32:03.999Z</time></trkpt><trkpt lat="45.55519905504504" lon="9.251125910853103"><ele>152.0</ele><time>2026-04-25T05:32:04.999Z</time></trkpt><trkpt lat="45.55524993789608" lon="9.251204481286651"><ele>152.0</ele><time>2026-04-25T05:32:05.999Z</time></trkpt><trkpt lat="45.555303666986674" lon="9.251287082636152"><ele>152.0</ele><time>2026-04-25T05:32:06.999Z</time></trkpt><trkpt lat="45.55536366193676" lon="9.251360760785026"><ele>152.16666666666666</ele><time>2026-04-25T05:32:07.999Z</time></trkpt><trkpt lat="45.55542981474958" lon="9.251425810665337"><ele>152.33333333333331</ele><time>2026-04-25T05:32:08.999Z</time></trkpt><trkpt lat="45.55549399399154" lon="9.251484620975143"><ele>152.5</ele><time>2026-04-25T05:32:09.999Z</time></trkpt><trkpt lat="45.55556814086644" lon="9.251508384028405"><ele>152.66666666666666</ele><time>2026-04-25T05:32:10.999Z</time></trkpt><trkpt lat="45.555637508822024" lon="9.251536265666735"><ele>152.83333333333334</ele><time>2026-04-25T05:32:11.999Z</time></trkpt><trkpt lat="45.55568720231755" lon="9.251666043366743"><ele>153.0</ele><time>2026-04-25T05:32:12.999Z</time></trkpt><trkpt lat="45.555751039260095" lon="9.251725521088904"><ele>152.66666666666666</ele><time>2026-04-25T05:32:13.999Z</time></trkpt><trkpt lat="45.55581085228802" lon="9.251782402825574"><ele>152.33333333333334</ele><time>2026-04-25T05:32:14.999Z</time></trkpt><trkpt lat="45.55587365596351" lon="9.251843158937216"><ele>152.0</ele><time>2026-04-25T05:32:15.999Z</time></trkpt><trkpt lat="45.55593769190728" lon="9.251901923973186"><ele>151.66666666666669</ele><time>2026-04-25T05:32:16.999Z</time></trkpt><trkpt lat="45.55600285005292" lon="9.251959611397865"><ele>151.33333333333334</ele><time>2026-04-25T05:32:17.999Z</time></trkpt><trkpt lat="45.55606745005044" lon="9.252022153462928"><ele>151.0</ele><time>2026-04-25T05:32:18.999Z</time></trkpt><trkpt lat="45.55613125346266" lon="9.252081784660858"><ele>151.0</ele><time>2026-04-25T05:32:19.999Z</time></trkpt><trkpt lat="45.55619387442398" lon="9.252137711298328"><ele>151.0</ele><time>2026-04-25T05:32:20.999Z</time></trkpt><trkpt lat="45.55625692066494" lon="9.25219584538924"><ele>151.0</ele><time>2026-04-25T05:32:21.999Z</time></trkpt><trkpt lat="45.556320385071174" lon="9.252258654774906"><ele>151.0</ele><time>2026-04-25T05:32:22.999Z</time></trkpt><trkpt lat="45.55638594194592" lon="9.252321696467623"><ele>151.0</ele><time>2026-04-25T05:32:23.999Z</time></trkpt><trkpt lat="45.55645200469193" lon="9.252381014717704"><ele>151.0</ele><time>2026-04-25T05:32:24.999Z</time></trkpt><trkpt lat="45.55651714513496" lon="9.252435600989493"><ele>151.16666666666669</ele><time>2026-04-25T05:32:25.999Z</time></trkpt><trkpt lat="45.55658080814379" lon="9.25249285556443"><ele>151.33333333333334</ele><time>2026-04-25T05:32:26.999Z</time></trkpt><trkpt lat="45.55664645698504" lon="9.252555677693673"><ele>151.5</ele><time>2026-04-25T05:32:27.999Z</time></trkpt><trkpt lat="45.55671042356337" lon="9.252617852019045"><ele>151.66666666666666</ele><time>2026-04-25T05:32:28.999Z</time></trkpt><trkpt lat="45.55677388869022" lon="9.252683708511762"><ele>151.83333333333331</ele><time>2026-04-25T05:32:29.999Z</time></trkpt><trkpt lat="45.5568359538519" lon="9.252742958221607"><ele>152.0</ele><time>2026-04-25T05:32:30.999Z</time></trkpt><trkpt lat="45.556900649768956" lon="9.252793934232031"><ele>152.0</ele><time>2026-04-25T05:32:31.999Z</time></trkpt><trkpt lat="45.55696115208433" lon="9.25284981328863"><ele>152.0</ele><time>2026-04-25T05:32:32.999Z</time></trkpt><trkpt lat="45.55702345560812" lon="9.252910862885011"><ele>152.0</ele><time>2026-04-25T05:32:33.999Z</time></trkpt><trkpt lat="45.55708734306488" lon="9.25297374397705"><ele>152.0</ele><time>2026-04-25T05:32:34.999Z</time></trkpt><trkpt lat="45.557154645838416" lon="9.253031189213011"><ele>152.0</ele><time>2026-04-25T05:32:35.999Z</time></trkpt><trkpt lat="45.55722015853041" lon="9.253092199153048"><ele>152.0</ele><time>2026-04-25T05:32:36.999Z</time></trkpt><trkpt lat="45.5572798804022" lon="9.25315068882098"><ele>152.16666666666666</ele><time>2026-04-25T05:32:37.999Z</time></trkpt><trkpt lat="45.55733930321837" lon="9.253207500002901"><ele>152.33333333333331</ele><time>2026-04-25T05:32:38.999Z</time></trkpt><trkpt lat="45.55740058264228" lon="9.253267177202913"><ele>152.5</ele><time>2026-04-25T05:32:39.999Z</time></trkpt><trkpt lat="45.557463772588456" lon="9.2533236406446"><ele>152.66666666666666</ele><time>2026-04-25T05:32:40.999Z</time></trkpt><trkpt lat="45.55752878692923" lon="9.253381017834515"><ele>152.83333333333334</ele><time>2026-04-25T05:32:41.999Z</time></trkpt><trkpt lat="45.557591699862705" lon="9.253441634876372"><ele>153.0</ele><time>2026-04-25T05:32:42.999Z</time></trkpt><trkpt lat="45.55765452661517" lon="9.253506358515082"><ele>153.0</ele><time>2026-04-25T05:32:43.999Z</time></trkpt><trkpt lat="45.55771674062112" lon="9.253561502374264"><ele>153.0</ele><time>2026-04-25T05:32:44.999Z</time></trkpt><trkpt lat="45.557777880944876" lon="9.253616902617447"><ele>153.0</ele><time>2026-04-25T05:32:45.999Z</time></trkpt><trkpt lat="45.5578427421008" lon="9.253673674946365"><ele>153.0</ele><time>2026-04-25T05:32:46.999Z</time></trkpt><trkpt lat="45.557907752407466" lon="9.253729865773133"><ele>153.0</ele><time>2026-04-25T05:32:47.999Z</time></trkpt><trkpt lat="45.55797109354549" lon="9.253790899460554"><ele>153.0</ele><time>2026-04-25T05:32:48.999Z</time></trkpt><trkpt lat="45.55803629029027" lon="9.253851694373079"><ele>153.0</ele><time>2026-04-25T05:32:49.999Z</time></trkpt><trkpt lat="45.55810145171715" lon="9.253914616876886"><ele>153.0</ele><time>2026-04-25T05:32:50.999Z</time></trkpt><trkpt lat="45.55816731725606" lon="9.253976960285488"><ele>153.0</ele><time>2026-04-25T05:32:51.999Z</time></trkpt><trkpt lat="45.5582310605824" lon="9.25403563040991"><ele>153.0</ele><time>2026-04-25T05:32:52.999Z</time></trkpt><trkpt lat="45.55829202833023" lon="9.254099555331939"><ele>153.0</ele><time>2026-04-25T05:32:53.999Z</time></trkpt><trkpt lat="45.55835385209494" lon="9.254167036020252"><ele>153.0</ele><time>2026-04-25T05:32:54.999Z</time></trkpt><trkpt lat="45.55841333780777" lon="9.254234035633143"><ele>153.0</ele><time>2026-04-25T05:32:55.999Z</time></trkpt><trkpt lat="45.55847370201157" lon="9.254295899408088"><ele>153.0</ele><time>2026-04-25T05:32:56.999Z</time></trkpt><trkpt lat="45.55853926240008" lon="9.25435633253271"><ele>153.0</ele><time>2026-04-25T05:32:57.999Z</time></trkpt><trkpt lat="45.55861854809622" lon="9.254387435399913"><ele>153.0</ele><time>2026-04-25T05:32:58.999Z</time></trkpt><trkpt lat="45.558685671230336" lon="9.254448133206074"><ele>153.0</ele><time>2026-04-25T05:32:59.999Z</time></trkpt><trkpt lat="45.55874840346901" lon="9.254506769964461"><ele>153.0</ele><time>2026-04-25T05:33:00.999Z</time></trkpt><trkpt lat="45.558810680992416" lon="9.25456498168068"><ele>153.0</ele><time>2026-04-25T05:33:01.999Z</time></trkpt><trkpt lat="45.558871326549536" lon="9.254621667984887"><ele>153.0</ele><time>2026-04-25T05:33:02.999Z</time></trkpt><trkpt lat="45.558937246173436" lon="9.254683284030481"><ele>153.0</ele><time>2026-04-25T05:33:03.999Z</time></trkpt><trkpt lat="45.55900153278816" lon="9.254743373705319"><ele>153.0</ele><time>2026-04-25T05:33:04.999Z</time></trkpt><trkpt lat="45.55906518289631" lon="9.254802348755307"><ele>153.0</ele><time>2026-04-25T05:33:05.999Z</time></trkpt><trkpt lat="45.55912905255528" lon="9.254861041815852"><ele>153.0</ele><time>2026-04-25T05:33:07Z</time></trkpt><trkpt lat="45.55919431570167" lon="9.254921015412993"><ele>152.5</ele><time>2026-04-25T05:33:08Z</time></trkpt><trkpt lat="45.55925931541511" lon="9.254980746953201"><ele>152.0</ele><time>2026-04-25T05:33:09Z</time></trkpt><trkpt lat="45.55932511476662" lon="9.255042595373679"><ele>151.5</ele><time>2026-04-25T05:33:10Z</time></trkpt><trkpt lat="45.55939107339511" lon="9.255105634609247"><ele>151.0</ele><time>2026-04-25T05:33:11Z</time></trkpt><trkpt lat="45.559456144858196" lon="9.255167416022978"><ele>150.5</ele><time>2026-04-25T05:33:12Z</time></trkpt><trkpt lat="45.55952141371044" lon="9.255229039842584"><ele>150.0</ele><time>2026-04-25T05:33:13Z</time></trkpt><trkpt lat="45.55958854241743" lon="9.2552924196348"><ele>149.83333333333334</ele><time>2026-04-25T05:33:14Z</time></trkpt><trkpt lat="45.55965412098853" lon="9.255354058462405"><ele>149.66666666666666</ele><time>2026-04-25T05:33:15Z</time></trkpt><trkpt lat="45.559717115154605" lon="9.255413249986862"><ele>149.5</ele><time>2026-04-25T05:33:16Z</time></trkpt><trkpt lat="45.55977976279702" lon="9.255472073586587"><ele>149.33333333333331</ele><time>2026-04-25T05:33:17Z</time></trkpt><trkpt lat="45.559843953607746" lon="9.255532151503495"><ele>149.16666666666666</ele><time>2026-04-25T05:33:18Z</time></trkpt><trkpt lat="45.55990693789221" lon="9.255591385676007"><ele>149.0</ele><time>2026-04-25T05:33:19Z</time></trkpt><trkpt lat="45.55997240154827" lon="9.255653019840917"><ele>149.0</ele><time>2026-04-25T05:33:20Z</time></trkpt><trkpt lat="45.560034567220534" lon="9.255711715665718"><ele>149.0</ele><time>2026-04-25T05:33:21Z</time></trkpt><trkpt lat="45.56009501579042" lon="9.255768020128686"><ele>149.0</ele><time>2026-04-25T05:33:22Z</time></trkpt><trkpt lat="45.560146074357704" lon="9.255841926274716"><ele>149.0</ele><time>2026-04-25T05:33:23Z</time></trkpt><trkpt lat="45.560206276938686" lon="9.255897136913"><ele>149.0</ele><time>2026-04-25T05:33:24Z</time></trkpt><trkpt lat="45.56026779070793" lon="9.255956283506798"><ele>149.0</ele><time>2026-04-25T05:33:25Z</time></trkpt><trkpt lat="45.56033972393917" lon="9.255997328989416"><ele>149.0</ele><time>2026-04-25T05:33:26Z</time></trkpt><trkpt lat="45.56039315863105" lon="9.256070906521687"><ele>149.33333333333331</ele><time>2026-04-25T05:33:27Z</time></trkpt><trkpt lat="45.56045281300621" lon="9.256129892173197"><ele>149.66666666666666</ele><time>2026-04-25T05:33:28Z</time></trkpt><trkpt lat="45.5605167411395" lon="9.256187418533047"><ele>150.0</ele><time>2026-04-25T05:33:29Z</time></trkpt><trkpt lat="45.56057979597217" lon="9.256247007718342"><ele>150.33333333333334</ele><time>2026-04-25T05:33:30Z</time></trkpt><trkpt lat="45.56064417288983" lon="9.256306195961592"><ele>150.66666666666669</ele><time>2026-04-25T05:33:31Z</time></trkpt><trkpt lat="45.56070863384216" lon="9.256362392436492"><ele>151.0</ele><time>2026-04-25T05:33:32Z</time></trkpt><trkpt lat="45.56077306581138" lon="9.256421839083524"><ele>151.42857142857144</ele><time>2026-04-25T05:33:33Z</time></trkpt><trkpt lat="45.56083479209867" lon="9.256475897777138"><ele>151.85714285714286</ele><time>2026-04-25T05:33:34Z</time></trkpt><trkpt lat="45.56089703971968" lon="9.25652950821844"><ele>152.28571428571428</ele><time>2026-04-25T05:33:35Z</time></trkpt><trkpt lat="45.56096223123713" lon="9.256586482633848"><ele>152.71428571428572</ele><time>2026-04-25T05:33:36Z</time></trkpt><trkpt lat="45.561027392941924" lon="9.256639869140564"><ele>153.14285714285714</ele><time>2026-04-25T05:33:37Z</time></trkpt><trkpt lat="45.56109369602744" lon="9.256692563877568"><ele>153.57142857142858</ele><time>2026-04-25T05:33:38Z</time></trkpt><trkpt lat="45.56115303003991" lon="9.256748954532382"><ele>154.0</ele><time>2026-04-25T05:33:39Z</time></trkpt><trkpt lat="45.56121277085757" lon="9.256809899874678"><ele>154.16666666666669</ele><time>2026-04-25T05:33:40Z</time></trkpt><trkpt lat="45.561272296260206" lon="9.256880655349502"><ele>154.33333333333334</ele><time>2026-04-25T05:33:41Z</time></trkpt><trkpt lat="45.56133183966286" lon="9.256949064959532"><ele>154.5</ele><time>2026-04-25T05:33:42Z</time></trkpt><trkpt lat="45.56139290698126" lon="9.257012157564274"><ele>154.66666666666666</ele><time>2026-04-25T05:33:43Z</time></trkpt><trkpt lat="45.561455449916366" lon="9.257072242305494"><ele>154.83333333333331</ele><time>2026-04-25T05:33:44Z</time></trkpt><trkpt lat="45.561518742978215" lon="9.257133666455765"><ele>155.0</ele><time>2026-04-25T05:33:45Z</time></trkpt><trkpt lat="45.56158179539743" lon="9.257192370713847"><ele>155.0</ele><time>2026-04-25T05:33:46Z</time></trkpt><trkpt lat="45.56164510203986" lon="9.257249671872223"><ele>155.0</ele><time>2026-04-25T05:33:47Z</time></trkpt><trkpt lat="45.56170563049651" lon="9.257306098105937"><ele>155.0</ele><time>2026-04-25T05:33:48Z</time></trkpt><trkpt lat="45.56176592610926" lon="9.25736534721421"><ele>155.0</ele><time>2026-04-25T05:33:49Z</time></trkpt><trkpt lat="45.56182854744198" lon="9.257427015124605"><ele>155.0</ele><time>2026-04-25T05:33:50Z</time></trkpt><trkpt lat="45.561887494495416" lon="9.25748901088545"><ele>155.0</ele><time>2026-04-25T05:33:51Z</time></trkpt><trkpt lat="45.56194933093975" lon="9.257546900496711"><ele>155.0</ele><time>2026-04-25T05:33:52Z</time></trkpt><trkpt lat="45.562010008324584" lon="9.257601853822482"><ele>155.28571428571428</ele><time>2026-04-25T05:33:53Z</time></trkpt><trkpt lat="45.56207118844874" lon="9.257655962204678"><ele>155.57142857142856</ele><time>2026-04-25T05:33:54Z</time></trkpt><trkpt lat="45.56213120865784" lon="9.257712463395286"><ele>155.85714285714283</ele><time>2026-04-25T05:33:55Z</time></trkpt><trkpt lat="45.562192889606166" lon="9.257775701478765"><ele>156.14285714285714</ele><time>2026-04-25T05:33:56Z</time></trkpt><trkpt lat="45.562251615776475" lon="9.257835295452152"><ele>156.42857142857142</ele><time>2026-04-25T05:33:57Z</time></trkpt><trkpt lat="45.562311512192096" lon="9.257895226784424"><ele>156.7142857142857</ele><time>2026-04-25T05:33:58Z</time></trkpt><trkpt lat="45.562372429317215" lon="9.25795418160723"><ele>157.0</ele><time>2026-04-25T05:33:59Z</time></trkpt><trkpt lat="45.56243252749504" lon="9.258008170106093"><ele>156.99999999999997</ele><time>2026-04-25T05:34:00Z</time></trkpt><trkpt lat="45.562491309224455" lon="9.258062003219631"><ele>157.0</ele><time>2026-04-25T05:34:01Z</time></trkpt><trkpt lat="45.56255298730466" lon="9.258122594010535"><ele>157.0</ele><time>2026-04-25T05:34:02Z</time></trkpt><trkpt lat="45.562613751969565" lon="9.258182097301834"><ele>157.0</ele><time>2026-04-25T05:34:03Z</time></trkpt><trkpt lat="45.562673366097606" lon="9.258241563230445"><ele>157.0</ele><time>2026-04-25T05:34:04Z</time></trkpt><trkpt lat="45.562733692351685" lon="9.258297129895004"><ele>156.99999999999997</ele><time>2026-04-25T05:34:05Z</time></trkpt><trkpt lat="45.56279252940254" lon="9.25835258575645"><ele>157.0</ele><time>2026-04-25T05:34:06Z</time></trkpt><trkpt lat="45.56285514816923" lon="9.258411486906043"><ele>156.85714285714283</ele><time>2026-04-25T05:34:06.999Z</time></trkpt><trkpt lat="45.562912341421175" lon="9.258468515184289"><ele>156.71428571428572</ele><time>2026-04-25T05:34:07.999Z</time></trkpt><trkpt lat="45.56297164215591" lon="9.25852170637653"><ele>156.57142857142856</ele><time>2026-04-25T05:34:08.999Z</time></trkpt><trkpt lat="45.56302964702374" lon="9.258577756349602"><ele>156.42857142857142</ele><time>2026-04-25T05:34:09.999Z</time></trkpt><trkpt lat="45.56308743855834" lon="9.258635821181729"><ele>156.28571428571428</ele><time>2026-04-25T05:34:10.999Z</time></trkpt><trkpt lat="45.563146495818465" lon="9.258686856834775"><ele>156.14285714285714</ele><time>2026-04-25T05:34:11.999Z</time></trkpt><trkpt lat="45.56320564896544" lon="9.258739077302955"><ele>156.0</ele><time>2026-04-25T05:34:12.999Z</time></trkpt><trkpt lat="45.5632626484689" lon="9.258792502146688"><ele>156.0</ele><time>2026-04-25T05:34:13.999Z</time></trkpt><trkpt lat="45.56331971049722" lon="9.258848604512803"><ele>156.0</ele><time>2026-04-25T05:34:14.999Z</time></trkpt><trkpt lat="45.56337586663074" lon="9.258901497396465"><ele>156.0</ele><time>2026-04-25T05:34:15.999Z</time></trkpt><trkpt lat="45.56343132405269" lon="9.258954032274387"><ele>156.0</ele><time>2026-04-25T05:34:16.999Z</time></trkpt><trkpt lat="45.56348922371353" lon="9.25901040370997"><ele>156.0</ele><time>2026-04-25T05:34:17.999Z</time></trkpt><trkpt lat="45.56355097801631" lon="9.259065106772361"><ele>156.0</ele><time>2026-04-25T05:34:18.999Z</time></trkpt><trkpt lat="45.563608197301726" lon="9.259119884981208"><ele>156.0</ele><time>2026-04-25T05:34:19.999Z</time></trkpt><trkpt lat="45.5636671702385" lon="9.259180966283415"><ele>156.0</ele><time>2026-04-25T05:34:20.999Z</time></trkpt><trkpt lat="45.56372757172852" lon="9.259236872986547"><ele>156.0</ele><time>2026-04-25T05:34:21.999Z</time></trkpt><trkpt lat="45.56378534801721" lon="9.259288265199473"><ele>156.0</ele><time>2026-04-25T05:34:22.999Z</time></trkpt><trkpt lat="45.56384283013056" lon="9.259339912991578"><ele>156.0</ele><time>2026-04-25T05:34:23.999Z</time></trkpt><trkpt lat="45.56389921566641" lon="9.25939170511488"><ele>156.0</ele><time>2026-04-25T05:34:24.999Z</time></trkpt><trkpt lat="45.56395436324236" lon="9.259441110069018"><ele>156.0</ele><time>2026-04-25T05:34:25.999Z</time></trkpt><trkpt lat="45.56400795726982" lon="9.25949422678757"><ele>156.0</ele><time>2026-04-25T05:34:26.999Z</time></trkpt><trkpt lat="45.56411124423095" lon="9.259596946524562"><ele>156.0</ele><time>2026-04-25T05:34:28.999Z</time></trkpt><trkpt lat="45.564166147253026" lon="9.259647057510326"><ele>156.0</ele><time>2026-04-25T05:34:29.999Z</time></trkpt><trkpt lat="45.56422104836929" lon="9.25969564228832"><ele>156.0</ele><time>2026-04-25T05:34:30.999Z</time></trkpt><trkpt lat="45.5643141663077" lon="9.259791908860212"><ele>156.0</ele><time>2026-04-25T05:34:32.999Z</time></trkpt><trkpt lat="45.56440308191196" lon="9.259887346090155"><ele>156.0</ele><time>2026-04-25T05:34:34.999Z</time></trkpt><trkpt lat="45.56448688431556" lon="9.259960602700819"><ele>156.0</ele><time>2026-04-25T05:34:36.999Z</time></trkpt><trkpt lat="45.564556628971715" lon="9.260013363566282"><ele>156.0</ele><time>2026-04-25T05:34:38.999Z</time></trkpt><trkpt lat="45.564616039910824" lon="9.260076693254465"><ele>156.0</ele><time>2026-04-25T05:34:40.999Z</time></trkpt><trkpt lat="45.564698356409174" lon="9.260150360527977"><ele>156.0</ele><time>2026-04-25T05:34:42.999Z</time></trkpt><trkpt lat="45.56479921256278" lon="9.260234493237093"><ele>156.0</ele><time>2026-04-25T05:34:44.999Z</time></trkpt><trkpt lat="45.564852562776615" lon="9.26028236992051"><ele>156.0</ele><time>2026-04-25T05:34:45.999Z</time></trkpt><trkpt lat="45.564957451427745" lon="9.260378553675059"><ele>156.0</ele><time>2026-04-25T05:34:47.999Z</time></trkpt><trkpt lat="45.56501056396694" lon="9.26043611779397"><ele>156.0</ele><time>2026-04-25T05:34:48.999Z</time></trkpt><trkpt lat="45.565066215419535" lon="9.260491851384597"><ele>156.0</ele><time>2026-04-25T05:34:49.999Z</time></trkpt><trkpt lat="45.5651274336713" lon="9.260544865206333"><ele>156.0</ele><time>2026-04-25T05:34:50.999Z</time></trkpt><trkpt lat="45.565186670681165" lon="9.260602190602224"><ele>156.0</ele><time>2026-04-25T05:34:51.999Z</time></trkpt><trkpt lat="45.56524720261979" lon="9.260660050109065"><ele>156.0</ele><time>2026-04-25T05:34:52.999Z</time></trkpt><trkpt lat="45.56530693800951" lon="9.260718200776221"><ele>156.0</ele><time>2026-04-25T05:34:53.999Z</time></trkpt><trkpt lat="45.56536632567646" lon="9.260781200616009"><ele>156.0</ele><time>2026-04-25T05:34:54.999Z</time></trkpt><trkpt lat="45.565429046888724" lon="9.260840804548556"><ele>156.0</ele><time>2026-04-25T05:34:55.999Z</time></trkpt><trkpt lat="45.56549586611297" lon="9.260897356247355"><ele>156.0</ele><time>2026-04-25T05:34:56.999Z</time></trkpt><trkpt lat="45.56555623444164" lon="9.260957368773914"><ele>156.0</ele><time>2026-04-25T05:34:57.999Z</time></trkpt><trkpt lat="45.565618664132224" lon="9.261018822122782"><ele>156.0</ele><time>2026-04-25T05:34:58.999Z</time></trkpt><trkpt lat="45.56567949440407" lon="9.261077088006504"><ele>156.0</ele><time>2026-04-25T05:34:59.999Z</time></trkpt><trkpt lat="45.56574299644689" lon="9.26113793432931"><ele>156.0</ele><time>2026-04-25T05:35:00.999Z</time></trkpt><trkpt lat="45.56580696776284" lon="9.26119819697898"><ele>156.0</ele><time>2026-04-25T05:35:01.999Z</time></trkpt><trkpt lat="45.565870866895885" lon="9.261260598900781"><ele>156.0</ele><time>2026-04-25T05:35:02.999Z</time></trkpt><trkpt lat="45.56593305931084" lon="9.26132107503857"><ele>156.0</ele><time>2026-04-25T05:35:03.999Z</time></trkpt><trkpt lat="45.56599120153338" lon="9.261379309211046"><ele>156.0</ele><time>2026-04-25T05:35:04.999Z</time></trkpt><trkpt lat="45.5660502683742" lon="9.261439564218955"><ele>156.0</ele><time>2026-04-25T05:35:05.999Z</time></trkpt><trkpt lat="45.5661103058071" lon="9.261498648603899"><ele>156.0</ele><time>2026-04-25T05:35:06.999Z</time></trkpt><trkpt lat="45.56616859024243" lon="9.261550934783392"><ele>156.0</ele><time>2026-04-25T05:35:07.999Z</time></trkpt><trkpt lat="45.56622829839381" lon="9.261603473552881"><ele>156.0</ele><time>2026-04-25T05:35:08.999Z</time></trkpt><trkpt lat="45.566286585664635" lon="9.261660747372371"><ele>156.0</ele><time>2026-04-25T05:35:09.999Z</time></trkpt><trkpt lat="45.56634378763291" lon="9.261716285028385"><ele>156.0</ele><time>2026-04-25T05:35:10.999Z</time></trkpt><trkpt lat="45.56640290429997" lon="9.261771166150897"><ele>156.0</ele><time>2026-04-25T05:35:12Z</time></trkpt><trkpt lat="45.566461041026315" lon="9.2618286010454"><ele>156.0</ele><time>2026-04-25T05:35:13Z</time></trkpt><trkpt lat="45.566522276119876" lon="9.261886758503753"><ele>156.0</ele><time>2026-04-25T05:35:14Z</time></trkpt><trkpt lat="45.566580218726024" lon="9.261938244963774"><ele>156.0</ele><time>2026-04-25T05:35:15Z</time></trkpt><trkpt lat="45.56663787709538" lon="9.261989980850695"><ele>156.0</ele><time>2026-04-25T05:35:16Z</time></trkpt><trkpt lat="45.56669619861495" lon="9.262047408553025"><ele>156.0</ele><time>2026-04-25T05:35:17Z</time></trkpt><trkpt lat="45.566754509310066" lon="9.262105756920235"><ele>156.0</ele><time>2026-04-25T05:35:18Z</time></trkpt><trkpt lat="45.56681091692674" lon="9.262160263779922"><ele>156.0</ele><time>2026-04-25T05:35:19Z</time></trkpt><trkpt lat="45.566867385783354" lon="9.262213176750661"><ele>156.0</ele><time>2026-04-25T05:35:20Z</time></trkpt><trkpt lat="45.56692463472992" lon="9.262267962106485"><ele>156.0</ele><time>2026-04-25T05:35:21Z</time></trkpt><trkpt lat="45.56698108008096" lon="9.26232392091718"><ele>155.85714285714286</ele><time>2026-04-25T05:35:22Z</time></trkpt><trkpt lat="45.56703679923603" lon="9.262379382348412"><ele>155.7142857142857</ele><time>2026-04-25T05:35:23Z</time></trkpt><trkpt lat="45.56709326904452" lon="9.262437258151172"><ele>155.57142857142856</ele><time>2026-04-25T05:35:24Z</time></trkpt><trkpt lat="45.567148945022" lon="9.262488580527872"><ele>155.42857142857144</ele><time>2026-04-25T05:35:25Z</time></trkpt><trkpt lat="45.567207016296614" lon="9.262542701576754"><ele>155.28571428571428</ele><time>2026-04-25T05:35:26Z</time></trkpt><trkpt lat="45.56726723869686" lon="9.262596140627869"><ele>155.14285714285714</ele><time>2026-04-25T05:35:27Z</time></trkpt><trkpt lat="45.56732670112911" lon="9.262649901924883"><ele>155.0</ele><time>2026-04-25T05:35:28Z</time></trkpt><trkpt lat="45.56738613195477" lon="9.262706194543235"><ele>155.0</ele><time>2026-04-25T05:35:29Z</time></trkpt><trkpt lat="45.56744199483481" lon="9.262761036091481"><ele>155.0</ele><time>2026-04-25T05:35:30Z</time></trkpt><trkpt lat="45.567502149514326" lon="9.262816269064192"><ele>155.0</ele><time>2026-04-25T05:35:31Z</time></trkpt><trkpt lat="45.5675656831423" lon="9.262871147593263"><ele>155.0</ele><time>2026-04-25T05:35:32Z</time></trkpt><trkpt lat="45.5676266294404" lon="9.262923495651457"><ele>155.0</ele><time>2026-04-25T05:35:33Z</time></trkpt><trkpt lat="45.567686667368704" lon="9.262976820410351"><ele>155.0</ele><time>2026-04-25T05:35:34Z</time></trkpt><trkpt lat="45.56774109417067" lon="9.26302879295134"><ele>155.0</ele><time>2026-04-25T05:35:35Z</time></trkpt><trkpt lat="45.56779719763133" lon="9.263080717935807"><ele>155.0</ele><time>2026-04-25T05:35:36Z</time></trkpt><trkpt lat="45.567856623498145" lon="9.26313580794922"><ele>155.0</ele><time>2026-04-25T05:35:37Z</time></trkpt><trkpt lat="45.56791709894466" lon="9.263188564520242"><ele>155.0</ele><time>2026-04-25T05:35:38Z</time></trkpt><trkpt lat="45.567976241484594" lon="9.26324157476734"><ele>155.0</ele><time>2026-04-25T05:35:39Z</time></trkpt><trkpt lat="45.56803417196422" lon="9.263299482210844"><ele>155.0</ele><time>2026-04-25T05:35:40Z</time></trkpt><trkpt lat="45.5680922710485" lon="9.26335342921546"><ele>155.0</ele><time>2026-04-25T05:35:41Z</time></trkpt><trkpt lat="45.56815506109552" lon="9.263403986425319"><ele>155.0</ele><time>2026-04-25T05:35:42Z</time></trkpt><trkpt lat="45.568215573214026" lon="9.263460286587437"><ele>155.0</ele><time>2026-04-25T05:35:43Z</time></trkpt><trkpt lat="45.568276041672284" lon="9.263514958497952"><ele>155.0</ele><time>2026-04-25T05:35:44Z</time></trkpt><trkpt lat="45.56833227563661" lon="9.26357066761717"><ele>155.0</ele><time>2026-04-25T05:35:45Z</time></trkpt><trkpt lat="45.568392170197384" lon="9.263628274662178"><ele>155.0</ele><time>2026-04-25T05:35:46Z</time></trkpt><trkpt lat="45.56845505906035" lon="9.26368284585228"><ele>155.0</ele><time>2026-04-25T05:35:47Z</time></trkpt><trkpt lat="45.568514565782685" lon="9.26373795600536"><ele>155.0</ele><time>2026-04-25T05:35:48Z</time></trkpt><trkpt lat="45.56857277673035" lon="9.263796932053625"><ele>155.0</ele><time>2026-04-25T05:35:49Z</time></trkpt><trkpt lat="45.56863110022952" lon="9.26385530451608"><ele>155.42857142857144</ele><time>2026-04-25T05:35:50Z</time></trkpt><trkpt lat="45.5686929660906" lon="9.263911897454301"><ele>155.85714285714286</ele><time>2026-04-25T05:35:51Z</time></trkpt><trkpt lat="45.568754912412224" lon="9.263970007992121"><ele>156.28571428571428</ele><time>2026-04-25T05:35:52Z</time></trkpt><trkpt lat="45.56881534951033" lon="9.264031030312283"><ele>156.71428571428572</ele><time>2026-04-25T05:35:53Z</time></trkpt><trkpt lat="45.56887538832009" lon="9.264087940053482"><ele>157.14285714285714</ele><time>2026-04-25T05:35:54Z</time></trkpt><trkpt lat="45.568934749179355" lon="9.264136081180526"><ele>157.57142857142858</ele><time>2026-04-25T05:35:55Z</time></trkpt><trkpt lat="45.568993794080306" lon="9.264194140058825"><ele>158.0</ele><time>2026-04-25T05:35:56Z</time></trkpt><trkpt lat="45.56905366166075" lon="9.264256386301755"><ele>158.14285714285717</ele><time>2026-04-25T05:35:57Z</time></trkpt><trkpt lat="45.56911238958155" lon="9.264314221362207"><ele>158.28571428571428</ele><time>2026-04-25T05:35:58Z</time></trkpt><trkpt lat="45.56917506010584" lon="9.264368856868973"><ele>158.42857142857144</ele><time>2026-04-25T05:35:59Z</time></trkpt><trkpt lat="45.56923730020516" lon="9.264421356973163"><ele>158.57142857142858</ele><time>2026-04-25T05:36:00Z</time></trkpt><trkpt lat="45.569300300073174" lon="9.264480293240082"><ele>158.71428571428572</ele><time>2026-04-25T05:36:01Z</time></trkpt><trkpt lat="45.56936017256783" lon="9.26453964595539"><ele>158.85714285714286</ele><time>2026-04-25T05:36:02Z</time></trkpt><trkpt lat="45.569420705098246" lon="9.2646039859928"><ele>159.0</ele><time>2026-04-25T05:36:03Z</time></trkpt><trkpt lat="45.569478944212655" lon="9.264661695862934"><ele>159.28571428571428</ele><time>2026-04-25T05:36:04Z</time></trkpt><trkpt lat="45.56953828985839" lon="9.264717479457566"><ele>159.57142857142858</ele><time>2026-04-25T05:36:05Z</time></trkpt><trkpt lat="45.569600744178835" lon="9.264773786647105"><ele>159.85714285714286</ele><time>2026-04-25T05:36:06Z</time></trkpt><trkpt lat="45.56966339212849" lon="9.264831654453994"><ele>160.14285714285714</ele><time>2026-04-25T05:36:07Z</time></trkpt><trkpt lat="45.569728414949374" lon="9.264886350866666"><ele>160.42857142857144</ele><time>2026-04-25T05:36:08Z</time></trkpt><trkpt lat="45.569792683515566" lon="9.264940749512053"><ele>160.71428571428572</ele><time>2026-04-25T05:36:09Z</time></trkpt><trkpt lat="45.569853483471334" lon="9.26500340786249"><ele>161.0</ele><time>2026-04-25T05:36:10Z</time></trkpt><trkpt lat="45.56991492731317" lon="9.265062203144836"><ele>161.0</ele><time>2026-04-25T05:36:11Z</time></trkpt><trkpt lat="45.5699741828389" lon="9.265124470534131"><ele>161.0</ele><time>2026-04-25T05:36:12Z</time></trkpt><trkpt lat="45.57003510458627" lon="9.265184482325969"><ele>161.0</ele><time>2026-04-25T05:36:13Z</time></trkpt><trkpt lat="45.570097826092486" lon="9.265247391751343"><ele>161.0</ele><time>2026-04-25T05:36:14Z</time></trkpt><trkpt lat="45.5701600905878" lon="9.265303984226694"><ele>161.0</ele><time>2026-04-25T05:36:15Z</time></trkpt><trkpt lat="45.57022161308064" lon="9.265359588894034"><ele>161.0</ele><time>2026-04-25T05:36:16Z</time></trkpt><trkpt lat="45.57028456267876" lon="9.26541912291463"><ele>161.0</ele><time>2026-04-25T05:36:17Z</time></trkpt><trkpt lat="45.570349491242084" lon="9.26547480847263"><ele>161.0</ele><time>2026-04-25T05:36:18Z</time></trkpt><trkpt lat="45.57041116554569" lon="9.265536642401477"><ele>161.0</ele><time>2026-04-25T05:36:18.999Z</time></trkpt><trkpt lat="45.57047532173901" lon="9.265596860872444"><ele>161.0</ele><time>2026-04-25T05:36:19.999Z</time></trkpt><trkpt lat="45.57053771734007" lon="9.265661464129229"><ele>161.0</ele><time>2026-04-25T05:36:20.999Z</time></trkpt><trkpt lat="45.57060265558303" lon="9.265717870776351"><ele>161.0</ele><time>2026-04-25T05:36:21.999Z</time></trkpt><trkpt lat="45.57066564333389" lon="9.265774277709136"><ele>161.0</ele><time>2026-04-25T05:36:22.999Z</time></trkpt><trkpt lat="45.57072591680078" lon="9.265828790309815"><ele>161.0</ele><time>2026-04-25T05:36:23.999Z</time></trkpt><trkpt lat="45.57078599132463" lon="9.265885978064869"><ele>161.0</ele><time>2026-04-25T05:36:24.999Z</time></trkpt><trkpt lat="45.570845282431556" lon="9.265937862495429"><ele>161.0</ele><time>2026-04-25T05:36:25.999Z</time></trkpt><trkpt lat="45.57090690482426" lon="9.26599054322164"><ele>161.0</ele><time>2026-04-25T05:36:26.999Z</time></trkpt><trkpt lat="45.57097106039346" lon="9.266045949423846"><ele>161.0</ele><time>2026-04-25T05:36:27.999Z</time></trkpt><trkpt lat="45.5710335043195" lon="9.266103783466905"><ele>161.0</ele><time>2026-04-25T05:36:28.999Z</time></trkpt><trkpt lat="45.57109449714817" lon="9.266156159508675"><ele>161.0</ele><time>2026-04-25T05:36:29.999Z</time></trkpt><trkpt lat="45.57115379662255" lon="9.266214048658597"><ele>161.0</ele><time>2026-04-25T05:36:30.999Z</time></trkpt><trkpt lat="45.57121497016813" lon="9.2662748000818"><ele>161.0</ele><time>2026-04-25T05:36:31.999Z</time></trkpt><trkpt lat="45.571276516660625" lon="9.266334946918262"><ele>161.0</ele><time>2026-04-25T05:36:32.999Z</time></trkpt><trkpt lat="45.57134209321655" lon="9.266391113927297"><ele>161.0</ele><time>2026-04-25T05:36:33.999Z</time></trkpt><trkpt lat="45.57140494098788" lon="9.266451734446816"><ele>161.0</ele><time>2026-04-25T05:36:34.999Z</time></trkpt><trkpt lat="45.57146541192001" lon="9.266510864099054"><ele>161.0</ele><time>2026-04-25T05:36:35.999Z</time></trkpt><trkpt lat="45.57151922773817" lon="9.266581624911936"><ele>161.0</ele><time>2026-04-25T05:36:36.999Z</time></trkpt><trkpt lat="45.57159392446049" lon="9.266610933474695"><ele>161.0</ele><time>2026-04-25T05:36:37.999Z</time></trkpt><trkpt lat="45.571651380676144" lon="9.26667990026518"><ele>161.0</ele><time>2026-04-25T05:36:38.999Z</time></trkpt><trkpt lat="45.57171120709233" lon="9.266745592904018"><ele>161.0</ele><time>2026-04-25T05:36:39.999Z</time></trkpt><trkpt lat="45.57177020542797" lon="9.266810220784146"><ele>161.0</ele><time>2026-04-25T05:36:40.999Z</time></trkpt><trkpt lat="45.57183607224614" lon="9.26686538464754"><ele>161.0</ele><time>2026-04-25T05:36:41.999Z</time></trkpt><trkpt lat="45.57190099840666" lon="9.266919773075111"><ele>161.0</ele><time>2026-04-25T05:36:42.999Z</time></trkpt><trkpt lat="45.571968348376764" lon="9.266974211486882"><ele>161.14285714285714</ele><time>2026-04-25T05:36:43.999Z</time></trkpt><trkpt lat="45.572025482782465" lon="9.267029857285417"><ele>161.28571428571428</ele><time>2026-04-25T05:36:44.999Z</time></trkpt><trkpt lat="45.572086478556194" lon="9.267085854689002"><ele>161.42857142857144</ele><time>2026-04-25T05:36:45.999Z</time></trkpt><trkpt lat="45.572148439141564" lon="9.267141406813971"><ele>161.57142857142856</ele><time>2026-04-25T05:36:46.999Z</time></trkpt><trkpt lat="45.57221055053047" lon="9.267198935563725"><ele>161.71428571428572</ele><time>2026-04-25T05:36:47.999Z</time></trkpt><trkpt lat="45.57226878159848" lon="9.267253943438286"><ele>161.85714285714286</ele><time>2026-04-25T05:36:48.999Z</time></trkpt><trkpt lat="45.572332388408356" lon="9.267305850019484"><ele>162.0</ele><time>2026-04-25T05:36:49.999Z</time></trkpt><trkpt lat="45.57239430219952" lon="9.267361803103535"><ele>162.0</ele><time>2026-04-25T05:36:50.999Z</time></trkpt><trkpt lat="45.57245467082279" lon="9.26741776804562"><ele>162.0</ele><time>2026-04-25T05:36:51.999Z</time></trkpt><trkpt lat="45.57251370804127" lon="9.267471185091148"><ele>162.0</ele><time>2026-04-25T05:36:52.999Z</time></trkpt><trkpt lat="45.57256781700165" lon="9.267531830431608"><ele>162.0</ele><time>2026-04-25T05:36:53.999Z</time></trkpt><trkpt lat="45.572674983201495" lon="9.267618513305479"><ele>162.0</ele><time>2026-04-25T05:36:55.999Z</time></trkpt><trkpt lat="45.57273363791549" lon="9.267666950675519"><ele>162.0</ele><time>2026-04-25T05:36:56.999Z</time></trkpt><trkpt lat="45.57278907023286" lon="9.26771685079629"><ele>162.0</ele><time>2026-04-25T05:36:57.999Z</time></trkpt><trkpt lat="45.57284837644375" lon="9.267778397865486"><ele>162.0</ele><time>2026-04-25T05:36:58.999Z</time></trkpt><trkpt lat="45.57290472974455" lon="9.267837432975366"><ele>162.0</ele><time>2026-04-25T05:36:59.999Z</time></trkpt><trkpt lat="45.57296638894221" lon="9.267899248311574"><ele>162.0</ele><time>2026-04-25T05:37:00.999Z</time></trkpt><trkpt lat="45.573028360464335" lon="9.267956137672211"><ele>162.0</ele><time>2026-04-25T05:37:01.999Z</time></trkpt><trkpt lat="45.57311185782165" lon="9.267995880312474"><ele>162.0</ele><time>2026-04-25T05:37:02.999Z</time></trkpt><trkpt lat="45.5731640481658" lon="9.268068501855158"><ele>162.28571428571428</ele><time>2026-04-25T05:37:03.999Z</time></trkpt><trkpt lat="45.57321925607518" lon="9.268127084738426"><ele>162.57142857142856</ele><time>2026-04-25T05:37:04.999Z</time></trkpt><trkpt lat="45.57328097320398" lon="9.268179867126618"><ele>162.85714285714283</ele><time>2026-04-25T05:37:05.999Z</time></trkpt><trkpt lat="45.57334230455077" lon="9.26823706814184"><ele>163.14285714285714</ele><time>2026-04-25T05:37:06.999Z</time></trkpt><trkpt lat="45.573403890852575" lon="9.268299937356824"><ele>163.42857142857142</ele><time>2026-04-25T05:37:07.999Z</time></trkpt><trkpt lat="45.57346673158944" lon="9.2683581915548"><ele>163.7142857142857</ele><time>2026-04-25T05:37:08.999Z</time></trkpt><trkpt lat="45.57352883836153" lon="9.268413303578043"><ele>164.0</ele><time>2026-04-25T05:37:09.999Z</time></trkpt><trkpt lat="45.57358834817178" lon="9.268470714914601"><ele>163.99999999999997</ele><time>2026-04-25T05:37:10.999Z</time></trkpt><trkpt lat="45.5736521131521" lon="9.268528224564545"><ele>164.0</ele><time>2026-04-25T05:37:11.999Z</time></trkpt><trkpt lat="45.57371238268385" lon="9.268587074552718"><ele>164.0</ele><time>2026-04-25T05:37:12.999Z</time></trkpt><trkpt lat="45.5737725616218" lon="9.26864371184486"><ele>164.0</ele><time>2026-04-25T05:37:13.999Z</time></trkpt><trkpt lat="45.57383117854516" lon="9.268702119937812"><ele>164.0</ele><time>2026-04-25T05:37:14.999Z</time></trkpt><trkpt lat="45.57388969479467" lon="9.268758806548849"><ele>163.99999999999997</ele><time>2026-04-25T05:37:15.999Z</time></trkpt><trkpt lat="45.57395108159066" lon="9.26881694494236"><ele>164.0</ele><time>2026-04-25T05:37:16.999Z</time></trkpt><trkpt lat="45.57401255780511" lon="9.268873687535507"><ele>163.85714285714283</ele><time>2026-04-25T05:37:18Z</time></trkpt><trkpt lat="45.57407325361063" lon="9.268928808782132"><ele>163.71428571428572</ele><time>2026-04-25T05:37:19Z</time></trkpt><trkpt lat="45.57413153440521" lon="9.268984536053336"><ele>163.57142857142856</ele><time>2026-04-25T05:37:20Z</time></trkpt><trkpt lat="45.57419025813925" lon="9.269040382278714"><ele>163.42857142857142</ele><time>2026-04-25T05:37:21Z</time></trkpt><trkpt lat="45.57425017422743" lon="9.269096317875531"><ele>163.28571428571428</ele><time>2026-04-25T05:37:22Z</time></trkpt><trkpt lat="45.5743069440971" lon="9.269158967988513"><ele>163.14285714285714</ele><time>2026-04-25T05:37:23Z</time></trkpt><trkpt lat="45.57437139420745" lon="9.269209333999465"><ele>163.0</ele><time>2026-04-25T05:37:24Z</time></trkpt><trkpt lat="45.5744332064645" lon="9.26926003185458"><ele>163.14285714285714</ele><time>2026-04-25T05:37:25Z</time></trkpt><trkpt lat="45.57449350109952" lon="9.269315841578585"><ele>163.28571428571428</ele><time>2026-04-25T05:37:26Z</time></trkpt><trkpt lat="45.57455030949915" lon="9.269378341366586"><ele>163.42857142857142</ele><time>2026-04-25T05:37:27Z</time></trkpt><trkpt lat="45.574614997718164" lon="9.269433462567195"><ele>163.57142857142856</ele><time>2026-04-25T05:37:28Z</time></trkpt><trkpt lat="45.57467892515227" lon="9.26948994810525"><ele>163.71428571428572</ele><time>2026-04-25T05:37:29Z</time></trkpt><trkpt lat="45.57474581015845" lon="9.269543550827867"><ele>163.85714285714283</ele><time>2026-04-25T05:37:30Z</time></trkpt><trkpt lat="45.57481083656113" lon="9.269604450600212"><ele>164.0</ele><time>2026-04-25T05:37:31Z</time></trkpt><trkpt lat="45.574870059798954" lon="9.269665884473232"><ele>163.99999999999997</ele><time>2026-04-25T05:37:32Z</time></trkpt><trkpt lat="45.57492892171478" lon="9.26972029346681"><ele>164.0</ele><time>2026-04-25T05:37:33Z</time></trkpt><trkpt lat="45.574994621071674" lon="9.269774856152955"><ele>164.0</ele><time>2026-04-25T05:37:34Z</time></trkpt><trkpt lat="45.575058414290865" lon="9.269832369838412"><ele>164.0</ele><time>2026-04-25T05:37:35Z</time></trkpt><trkpt lat="45.57512378951264" lon="9.269883766381188"><ele>164.0</ele><time>2026-04-25T05:37:36Z</time></trkpt><trkpt lat="45.57518653865066" lon="9.269931319821998"><ele>163.99999999999997</ele><time>2026-04-25T05:37:37Z</time></trkpt><trkpt lat="45.575255144730065" lon="9.269974582599744"><ele>164.0</ele><time>2026-04-25T05:37:38Z</time></trkpt><trkpt lat="45.57532138035576" lon="9.270017462389248"><ele>163.99999999999997</ele><time>2026-04-25T05:37:39Z</time></trkpt><trkpt lat="45.57538604019306" lon="9.270060575580171"><ele>164.0</ele><time>2026-04-25T05:37:40Z</time></trkpt><trkpt lat="45.57545202205011" lon="9.270103335028544"><ele>164.0</ele><time>2026-04-25T05:37:41Z</time></trkpt><trkpt lat="45.5755148983725" lon="9.27014651482642"><ele>164.0</ele><time>2026-04-25T05:37:42Z</time></trkpt><trkpt lat="45.5755811520003" lon="9.27019061586689"><ele>164.0</ele><time>2026-04-25T05:37:43Z</time></trkpt><trkpt lat="45.57564632501653" lon="9.270232644146791"><ele>163.99999999999997</ele><time>2026-04-25T05:37:44Z</time></trkpt><trkpt lat="45.575709116182" lon="9.270277058302122"><ele>164.0</ele><time>2026-04-25T05:37:45Z</time></trkpt><trkpt lat="45.575773180757494" lon="9.27032148729242"><ele>163.99999999999997</ele><time>2026-04-25T05:37:46Z</time></trkpt><trkpt lat="45.5758330200846" lon="9.27036873031122"><ele>164.0</ele><time>2026-04-25T05:37:47Z</time></trkpt><trkpt lat="45.57589642595929" lon="9.270415393863859"><ele>164.0</ele><time>2026-04-25T05:37:48Z</time></trkpt><trkpt lat="45.57596313327226" lon="9.270460437787275"><ele>164.0</ele><time>2026-04-25T05:37:49Z</time></trkpt><trkpt lat="45.576027815517996" lon="9.270505751719654"><ele>164.0</ele><time>2026-04-25T05:37:50Z</time></trkpt><trkpt lat="45.57609151027133" lon="9.27054740092277"><ele>163.99999999999997</ele><time>2026-04-25T05:37:51Z</time></trkpt><trkpt lat="45.57615408827001" lon="9.270582971565393"><ele>164.0</ele><time>2026-04-25T05:37:52Z</time></trkpt><trkpt lat="45.57621400588202" lon="9.27061926383553"><ele>164.28571428571428</ele><time>2026-04-25T05:37:53Z</time></trkpt><trkpt lat="45.57627286066028" lon="9.270659579355723"><ele>164.57142857142856</ele><time>2026-04-25T05:37:54Z</time></trkpt><trkpt lat="45.57633531064994" lon="9.270696790108765"><ele>164.85714285714283</ele><time>2026-04-25T05:37:55Z</time></trkpt><trkpt lat="45.576397108828196" lon="9.270736243144405"><ele>165.14285714285714</ele><time>2026-04-25T05:37:56Z</time></trkpt><trkpt lat="45.57645702353063" lon="9.270775583417738"><ele>165.42857142857144</ele><time>2026-04-25T05:37:57Z</time></trkpt><trkpt lat="45.57651707824927" lon="9.270816250286247"><ele>165.7142857142857</ele><time>2026-04-25T05:37:58Z</time></trkpt><trkpt lat="45.57657840701951" lon="9.270857278486169"><ele>166.0</ele><time>2026-04-25T05:37:59Z</time></trkpt><trkpt lat="45.57664058607074" lon="9.270898346421149"><ele>166.0</ele><time>2026-04-25T05:38:00Z</time></trkpt><trkpt lat="45.57670301855502" lon="9.270939955707282"><ele>166.0</ele><time>2026-04-25T05:38:01Z</time></trkpt><trkpt lat="45.57676731893751" lon="9.27098458353394"><ele>166.0</ele><time>2026-04-25T05:38:02Z</time></trkpt><trkpt lat="45.576830302165995" lon="9.271029199090018"><ele>166.0</ele><time>2026-04-25T05:38:03Z</time></trkpt><trkpt lat="45.5768970441148" lon="9.271070045552598"><ele>166.0</ele><time>2026-04-25T05:38:04Z</time></trkpt><trkpt lat="45.57696628203651" lon="9.271107387683216"><ele>166.0</ele><time>2026-04-25T05:38:05Z</time></trkpt><trkpt lat="45.57702784297467" lon="9.271154022516182"><ele>166.0</ele><time>2026-04-25T05:38:06Z</time></trkpt><trkpt lat="45.5770923049297" lon="9.271196980324778"><ele>166.0</ele><time>2026-04-25T05:38:07Z</time></trkpt><trkpt lat="45.57716233211687" lon="9.271243202041951"><ele>166.0</ele><time>2026-04-25T05:38:08Z</time></trkpt><trkpt lat="45.57722935692576" lon="9.271285644654876"><ele>166.0</ele><time>2026-04-25T05:38:09Z</time></trkpt><trkpt lat="45.57729737262874" lon="9.27132857715299"><ele>166.0</ele><time>2026-04-25T05:38:10Z</time></trkpt><trkpt lat="45.577366098191014" lon="9.271370295899771"><ele>166.0</ele><time>2026-04-25T05:38:11Z</time></trkpt><trkpt lat="45.5774338536628" lon="9.271415000802087"><ele>166.0</ele><time>2026-04-25T05:38:12Z</time></trkpt><trkpt lat="45.57750331617004" lon="9.271461536809163"><ele>166.0</ele><time>2026-04-25T05:38:13Z</time></trkpt><trkpt lat="45.57756982133112" lon="9.271509471254443"><ele>166.0</ele><time>2026-04-25T05:38:14Z</time></trkpt><trkpt lat="45.57763638976452" lon="9.27155930220521"><ele>166.0</ele><time>2026-04-25T05:38:15Z</time></trkpt><trkpt lat="45.57770170523239" lon="9.27160388668398"><ele>166.0</ele><time>2026-04-25T05:38:16Z</time></trkpt><trkpt lat="45.57777112018789" lon="9.271652553736788"><ele>166.0</ele><time>2026-04-25T05:38:17Z</time></trkpt><trkpt lat="45.57783859890585" lon="9.271698128057663"><ele>166.0</ele><time>2026-04-25T05:38:18Z</time></trkpt><trkpt lat="45.57790450366925" lon="9.271745395595314"><ele>166.0</ele><time>2026-04-25T05:38:19Z</time></trkpt><trkpt lat="45.577974011368106" lon="9.271795568543483"><ele>165.85714285714286</ele><time>2026-04-25T05:38:20Z</time></trkpt><trkpt lat="45.578040740340505" lon="9.271843879735151"><ele>165.71428571428572</ele><time>2026-04-25T05:38:21Z</time></trkpt><trkpt lat="45.5781013481051" lon="9.271881979363657"><ele>165.57142857142858</ele><time>2026-04-25T05:38:22Z</time></trkpt><trkpt lat="45.578171265440666" lon="9.271922383652504"><ele>165.42857142857144</ele><time>2026-04-25T05:38:23Z</time></trkpt><trkpt lat="45.57823433260373" lon="9.27196512025184"><ele>165.28571428571428</ele><time>2026-04-25T05:38:24Z</time></trkpt><trkpt lat="45.578297827656954" lon="9.272006734966249"><ele>165.14285714285717</ele><time>2026-04-25T05:38:25Z</time></trkpt><trkpt lat="45.57836096408901" lon="9.272049915214872"><ele>165.0</ele><time>2026-04-25T05:38:26Z</time></trkpt><trkpt lat="45.578426813918675" lon="9.272091547078245"><ele>165.00000000000003</ele><time>2026-04-25T05:38:27Z</time></trkpt><trkpt lat="45.57849191289705" lon="9.2721363126117"><ele>165.0</ele><time>2026-04-25T05:38:28Z</time></trkpt><trkpt lat="45.578555458716686" lon="9.272176543332318"><ele>165.0</ele><time>2026-04-25T05:38:29Z</time></trkpt><trkpt lat="45.578618474759615" lon="9.272221193204924"><ele>165.0</ele><time>2026-04-25T05:38:30Z</time></trkpt><trkpt lat="45.578682312458724" lon="9.272263390536759"><ele>165.0</ele><time>2026-04-25T05:38:30.999Z</time></trkpt><trkpt lat="45.57874551866632" lon="9.272306475814256"><ele>165.00000000000003</ele><time>2026-04-25T05:38:31.999Z</time></trkpt><trkpt lat="45.578809667865734" lon="9.272346735211709"><ele>165.0</ele><time>2026-04-25T05:38:32.999Z</time></trkpt><trkpt lat="45.57887261718099" lon="9.272385204624431"><ele>165.33333333333334</ele><time>2026-04-25T05:38:33.999Z</time></trkpt><trkpt lat="45.57893179777497" lon="9.272422335330884"><ele>165.66666666666666</ele><time>2026-04-25T05:38:34.999Z</time></trkpt><trkpt lat="45.57899470581518" lon="9.272468397585161"><ele>166.0</ele><time>2026-04-25T05:38:35.999Z</time></trkpt><trkpt lat="45.57905817031589" lon="9.272508261100342"><ele>166.33333333333331</ele><time>2026-04-25T05:38:36.999Z</time></trkpt><trkpt lat="45.57912305234026" lon="9.272547918300281"><ele>166.66666666666666</ele><time>2026-04-25T05:38:37.999Z</time></trkpt><trkpt lat="45.57923660526526" lon="9.272623936869536"><ele>167.0</ele><time>2026-04-25T05:38:39.999Z</time></trkpt><trkpt lat="45.579351186475634" lon="9.272695295620684"><ele>167.0</ele><time>2026-04-25T05:38:41.999Z</time></trkpt><trkpt lat="45.57941045365079" lon="9.272732671392822"><ele>167.0</ele><time>2026-04-25T05:38:42.999Z</time></trkpt><trkpt lat="45.57946754984951" lon="9.272772231523561"><ele>167.0</ele><time>2026-04-25T05:38:43.999Z</time></trkpt><trkpt lat="45.579577747593454" lon="9.27284771998173"><ele>167.0</ele><time>2026-04-25T05:38:45.999Z</time></trkpt><trkpt lat="45.57968552953564" lon="9.272922578797914"><ele>167.0</ele><time>2026-04-25T05:38:47.999Z</time></trkpt><trkpt lat="45.5797851874413" lon="9.272990131565303"><ele>166.66666666666666</ele><time>2026-04-25T05:38:49.999Z</time></trkpt><trkpt lat="45.57987966113971" lon="9.27305026879556"><ele>166.33333333333331</ele><time>2026-04-25T05:38:51.999Z</time></trkpt><trkpt lat="45.579961736067354" lon="9.27310872992952"><ele>166.0</ele><time>2026-04-25T05:38:53.999Z</time></trkpt><trkpt lat="45.580022334190794" lon="9.273148470919963"><ele>165.66666666666666</ele><time>2026-04-25T05:38:55.999Z</time></trkpt><trkpt lat="45.58008682579409" lon="9.273190323025098"><ele>165.33333333333334</ele><time>2026-04-25T05:38:57.999Z</time></trkpt><trkpt lat="45.5801470770361" lon="9.27323772320555"><ele>165.0</ele><time>2026-04-25T05:38:59.999Z</time></trkpt><trkpt lat="45.58020698400986" lon="9.273311386685222"><ele>165.0</ele><time>2026-04-25T05:39:01.999Z</time></trkpt><trkpt lat="45.58029774520322" lon="9.273348226578188"><ele>165.0</ele><time>2026-04-25T05:39:03.999Z</time></trkpt><trkpt lat="45.58040253797794" lon="9.27332409066027"><ele>165.0</ele><time>2026-04-25T05:39:05.999Z</time></trkpt><trkpt lat="45.58050291058727" lon="9.273221973892637"><ele>165.0</ele><time>2026-04-25T05:39:07.999Z</time></trkpt><trkpt lat="45.58058344381738" lon="9.273096958635067"><ele>165.0</ele><time>2026-04-25T05:39:09.999Z</time></trkpt><trkpt lat="45.580626946421866" lon="9.27303057682018"><ele>166.75</ele><time>2026-04-25T05:39:10.999Z</time></trkpt><trkpt lat="45.58071925633358" lon="9.272926938414193"><ele>168.5</ele><time>2026-04-25T05:39:12.999Z</time></trkpt><trkpt lat="45.580808232688206" lon="9.272802852766073"><ele>170.25</ele><time>2026-04-25T05:39:14.999Z</time></trkpt><trkpt lat="45.580893692593854" lon="9.272683421050846"><ele>172.0</ele><time>2026-04-25T05:39:16.999Z</time></trkpt><trkpt lat="45.58098356552706" lon="9.272569938305782"><ele>172.0</ele><time>2026-04-25T05:39:18.999Z</time></trkpt><trkpt lat="45.581074122535675" lon="9.272471546316432"><ele>172.0</ele><time>2026-04-25T05:39:20.999Z</time></trkpt><trkpt lat="45.58117656349292" lon="9.272392225210679"><ele>172.0</ele><time>2026-04-25T05:39:22.999Z</time></trkpt><trkpt lat="45.58128895004006" lon="9.272312859865226"><ele>172.0</ele><time>2026-04-25T05:39:25Z</time></trkpt><trkpt lat="45.58140414001066" lon="9.272247441552604"><ele>171.39999999999998</ele><time>2026-04-25T05:39:27Z</time></trkpt><trkpt lat="45.58151889773943" lon="9.272189237549211"><ele>170.79999999999998</ele><time>2026-04-25T05:39:29Z</time></trkpt><trkpt lat="45.581638065847905" lon="9.272129275532837"><ele>170.2</ele><time>2026-04-25T05:39:31Z</time></trkpt><trkpt lat="45.581697644240435" lon="9.272098754118407"><ele>169.6</ele><time>2026-04-25T05:39:32Z</time></trkpt><trkpt lat="45.58181425501169" lon="9.272065313745149"><ele>169.0</ele><time>2026-04-25T05:39:34Z</time></trkpt><trkpt lat="45.581867613105224" lon="9.272014013000152"><ele>169.0</ele><time>2026-04-25T05:39:35Z</time></trkpt><trkpt lat="45.58197973726634" lon="9.271960518860748"><ele>169.0</ele><time>2026-04-25T05:39:37Z</time></trkpt><trkpt lat="45.58207341941508" lon="9.271917184373843"><ele>169.0</ele><time>2026-04-25T05:39:39Z</time></trkpt><trkpt lat="45.5821525444899" lon="9.271883733533985"><ele>169.0</ele><time>2026-04-25T05:39:42Z</time></trkpt><trkpt lat="45.58224221300321" lon="9.271854994574204"><ele>169.0</ele><time>2026-04-25T05:39:47Z</time></trkpt><trkpt lat="45.58239144821063" lon="9.271849249235316"><ele>169.0</ele><time>2026-04-25T05:40:58.999Z</time></trkpt><trkpt lat="45.58248548618726" lon="9.271787791768206"><ele>169.0</ele><time>2026-04-25T05:41:01.999Z</time></trkpt><trkpt lat="45.58257314521224" lon="9.271747419681244"><ele>169.0</ele><time>2026-04-25T05:41:03.999Z</time></trkpt><trkpt lat="45.58266825761298" lon="9.271707979019641"><ele>169.0</ele><time>2026-04-25T05:41:05.999Z</time></trkpt><trkpt lat="45.58276653944451" lon="9.271656473329019"><ele>169.0</ele><time>2026-04-25T05:41:07.999Z</time></trkpt><trkpt lat="45.58287365371091" lon="9.271600910460224"><ele>169.2</ele><time>2026-04-25T05:41:09.999Z</time></trkpt><trkpt lat="45.58298494450589" lon="9.271551199380678"><ele>169.39999999999998</ele><time>2026-04-25T05:41:11.999Z</time></trkpt><trkpt lat="45.58310509120921" lon="9.271495327538798"><ele>169.6</ele><time>2026-04-25T05:41:13.999Z</time></trkpt><trkpt lat="45.58316461003171" lon="9.271462906712193"><ele>169.8</ele><time>2026-04-25T05:41:14.999Z</time></trkpt><trkpt lat="45.583278184658596" lon="9.271420615840425"><ele>170.0</ele><time>2026-04-25T05:41:16.999Z</time></trkpt><trkpt lat="45.583395118092895" lon="9.271345557500169"><ele>170.0</ele><time>2026-04-25T05:41:18.999Z</time></trkpt><trkpt lat="45.583459288961286" lon="9.27132304707825"><ele>170.0</ele><time>2026-04-25T05:41:19.999Z</time></trkpt><trkpt lat="45.5835183664464" lon="9.271285421449212"><ele>170.0</ele><time>2026-04-25T05:41:20.999Z</time></trkpt><trkpt lat="45.58363234141866" lon="9.271218805379108"><ele>170.0</ele><time>2026-04-25T05:41:22.999Z</time></trkpt><trkpt lat="45.583692524508926" lon="9.271190024856715"><ele>170.0</ele><time>2026-04-25T05:41:23.999Z</time></trkpt><trkpt lat="45.58381437467694" lon="9.271137988155036"><ele>170.0</ele><time>2026-04-25T05:41:25.999Z</time></trkpt><trkpt lat="45.58387564092707" lon="9.271114597455306"><ele>170.0</ele><time>2026-04-25T05:41:26.999Z</time></trkpt><trkpt lat="45.58398652866504" lon="9.271053194483262"><ele>170.0</ele><time>2026-04-25T05:41:28.999Z</time></trkpt><trkpt lat="45.58410367952215" lon="9.271005297134206"><ele>170.0</ele><time>2026-04-25T05:41:31Z</time></trkpt><trkpt lat="45.5842133575797" lon="9.270936312029102"><ele>170.0</ele><time>2026-04-25T05:41:33Z</time></trkpt><trkpt lat="45.58433735665048" lon="9.27088117276809"><ele>170.0</ele><time>2026-04-25T05:41:35Z</time></trkpt><trkpt lat="45.58440038290138" lon="9.27085149130142"><ele>170.0</ele><time>2026-04-25T05:41:36Z</time></trkpt><trkpt lat="45.58447467086057" lon="9.270825520326682"><ele>170.0</ele><time>2026-04-25T05:41:37Z</time></trkpt><trkpt lat="45.58464442271137" lon="9.270780981196417"><ele>170.0</ele><time>2026-04-25T05:41:40Z</time></trkpt><trkpt lat="45.58470086127217" lon="9.270736954665749"><ele>170.0</ele><time>2026-04-25T05:41:41Z</time></trkpt><trkpt lat="45.584760220169706" lon="9.270700849144728"><ele>170.0</ele><time>2026-04-25T05:41:42Z</time></trkpt><trkpt lat="45.584821611514485" lon="9.270668219031242"><ele>170.8</ele><time>2026-04-25T05:41:43Z</time></trkpt><trkpt lat="45.5849324305025" lon="9.270617553522696"><ele>171.6</ele><time>2026-04-25T05:41:45Z</time></trkpt><trkpt lat="45.58503236496572" lon="9.270558702246186"><ele>172.39999999999998</ele><time>2026-04-25T05:41:47Z</time></trkpt><trkpt lat="45.58515217655413" lon="9.270503034056695"><ele>173.2</ele><time>2026-04-25T05:41:49Z</time></trkpt><trkpt lat="45.58521462707116" lon="9.270476598104569"><ele>174.0</ele><time>2026-04-25T05:41:50Z</time></trkpt><trkpt lat="45.58527436309845" lon="9.270437883340264"><ele>174.0</ele><time>2026-04-25T05:41:51Z</time></trkpt><trkpt lat="45.585333206421716" lon="9.270403790030073"><ele>174.0</ele><time>2026-04-25T05:41:52Z</time></trkpt><trkpt lat="45.58539392836895" lon="9.270366353782196"><ele>174.0</ele><time>2026-04-25T05:41:53Z</time></trkpt><trkpt lat="45.58545357339823" lon="9.270330071385954"><ele>174.0</ele><time>2026-04-25T05:41:54Z</time></trkpt><trkpt lat="45.58552027467818" lon="9.270324029455635"><ele>174.0</ele><time>2026-04-25T05:41:55Z</time></trkpt><trkpt lat="45.58558479003507" lon="9.2702937280988"><ele>174.0</ele><time>2026-04-25T05:41:56Z</time></trkpt><trkpt lat="45.585646231066896" lon="9.270264856230115"><ele>174.0</ele><time>2026-04-25T05:41:57Z</time></trkpt><trkpt lat="45.58570627310278" lon="9.270236641765448"><ele>174.28571428571428</ele><time>2026-04-25T05:41:58Z</time></trkpt><trkpt lat="45.585766094184734" lon="9.270208531100218"><ele>174.57142857142858</ele><time>2026-04-25T05:41:59Z</time></trkpt><trkpt lat="45.58583006811797" lon="9.270178468972514"><ele>174.85714285714286</ele><time>2026-04-25T05:42:00Z</time></trkpt><trkpt lat="45.58589266952566" lon="9.270149051841159"><ele>175.14285714285714</ele><time>2026-04-25T05:42:01Z</time></trkpt><trkpt lat="45.58595326099335" lon="9.270120579195614"><ele>175.42857142857142</ele><time>2026-04-25T05:42:02Z</time></trkpt><trkpt lat="45.58601696296366" lon="9.270090644880387"><ele>175.71428571428572</ele><time>2026-04-25T05:42:03Z</time></trkpt><trkpt lat="45.5860781532351" lon="9.270061890828211"><ele>176.0</ele><time>2026-04-25T05:42:04Z</time></trkpt><trkpt lat="45.58618983085589" lon="9.270015374201863"><ele>176.4</ele><time>2026-04-25T05:42:06Z</time></trkpt><trkpt lat="45.58628922635371" lon="9.27001156557523"><ele>176.8</ele><time>2026-04-25T05:42:08Z</time></trkpt><trkpt lat="45.58639172172395" lon="9.270057614745264"><ele>177.20000000000002</ele><time>2026-04-25T05:42:10Z</time></trkpt><trkpt lat="45.586507556367856" lon="9.270138887635945"><ele>177.60000000000002</ele><time>2026-04-25T05:42:12Z</time></trkpt><trkpt lat="45.58656418392073" lon="9.270185081726451"><ele>178.0</ele><time>2026-04-25T05:42:13Z</time></trkpt><trkpt lat="45.5866237741385" lon="9.270235821319469"><ele>178.0</ele><time>2026-04-25T05:42:14Z</time></trkpt><trkpt lat="45.58667361931913" lon="9.27029521751451"><ele>178.0</ele><time>2026-04-25T05:42:15Z</time></trkpt><trkpt lat="45.58672862449497" lon="9.270355143611559"><ele>178.0</ele><time>2026-04-25T05:42:16Z</time></trkpt><trkpt lat="45.58678773653907" lon="9.27041578794669"><ele>178.0</ele><time>2026-04-25T05:42:17Z</time></trkpt><trkpt lat="45.58684555224407" lon="9.270472405733775"><ele>178.0</ele><time>2026-04-25T05:42:18Z</time></trkpt><trkpt lat="45.58694232055651" lon="9.270584309361602"><ele>178.0</ele><time>2026-04-25T05:42:20Z</time></trkpt><trkpt lat="45.58698188759293" lon="9.270666696941273"><ele>177.33333333333334</ele><time>2026-04-25T05:42:21Z</time></trkpt><trkpt lat="45.58701509310071" lon="9.270762620981941"><ele>176.66666666666669</ele><time>2026-04-25T05:42:22Z</time></trkpt><trkpt lat="45.58703033220154" lon="9.270861365795513"><ele>176.0</ele><time>2026-04-25T05:42:23Z</time></trkpt><trkpt lat="45.58705342208916" lon="9.27096032841283"><ele>175.33333333333334</ele><time>2026-04-25T05:42:24Z</time></trkpt><trkpt lat="45.587078022137085" lon="9.271068304650962"><ele>174.66666666666666</ele><time>2026-04-25T05:42:25Z</time></trkpt><trkpt lat="45.58710161583906" lon="9.271171864139678"><ele>174.0</ele><time>2026-04-25T05:42:26Z</time></trkpt><trkpt lat="45.58712492961179" lon="9.271274194353014"><ele>174.0</ele><time>2026-04-25T05:42:27Z</time></trkpt><trkpt lat="45.587147172585404" lon="9.271371824676065"><ele>174.0</ele><time>2026-04-25T05:42:28Z</time></trkpt><trkpt lat="45.58716987268942" lon="9.271471461383692"><ele>174.0</ele><time>2026-04-25T05:42:29Z</time></trkpt><trkpt lat="45.58719100979449" lon="9.271564238002636"><ele>174.0</ele><time>2026-04-25T05:42:30Z</time></trkpt><trkpt lat="45.587212756244206" lon="9.271659688863686"><ele>174.0</ele><time>2026-04-25T05:42:31Z</time></trkpt><trkpt lat="45.58723250758766" lon="9.2717463824798"><ele>174.0</ele><time>2026-04-25T05:42:32Z</time></trkpt><trkpt lat="45.587252254196585" lon="9.27183305616456"><ele>174.0</ele><time>2026-04-25T05:42:33Z</time></trkpt><trkpt lat="45.587271871862235" lon="9.271919163373209"><ele>174.2</ele><time>2026-04-25T05:42:34Z</time></trkpt><trkpt lat="45.58730950842262" lon="9.272081790697719"><ele>174.39999999999998</ele><time>2026-04-25T05:42:36Z</time></trkpt><trkpt lat="45.587344293367785" lon="9.272231211952196"><ele>174.6</ele><time>2026-04-25T05:42:38Z</time></trkpt><trkpt lat="45.587373781477936" lon="9.272357880316143"><ele>174.8</ele><time>2026-04-25T05:42:40Z</time></trkpt><trkpt lat="45.58739685774355" lon="9.272457005870969"><ele>175.0</ele><time>2026-04-25T05:42:42Z</time></trkpt><trkpt lat="45.587427573714784" lon="9.272581111837729"><ele>175.0</ele><time>2026-04-25T05:42:45Z</time></trkpt><trkpt lat="45.58745662418942" lon="9.272697777156953"><ele>175.0</ele><time>2026-04-25T05:42:47Z</time></trkpt><trkpt lat="45.587490733864676" lon="9.272837694456928"><ele>175.0</ele><time>2026-04-25T05:42:49Z</time></trkpt><trkpt lat="45.58752886590816" lon="9.27299355092607"><ele>175.0</ele><time>2026-04-25T05:42:51Z</time></trkpt><trkpt lat="45.58754982662289" lon="9.273079369548132"><ele>175.0</ele><time>2026-04-25T05:42:52Z</time></trkpt><trkpt lat="45.587571481092205" lon="9.273169957568696"><ele>175.0</ele><time>2026-04-25T05:42:52.999Z</time></trkpt><trkpt lat="45.58759325853527" lon="9.273261878824483"><ele>174.85714285714286</ele><time>2026-04-25T05:42:53.999Z</time></trkpt><trkpt lat="45.58761490725341" lon="9.273353256699451"><ele>174.71428571428572</ele><time>2026-04-25T05:42:54.999Z</time></trkpt><trkpt lat="45.58763620188849" lon="9.273443140000667"><ele>174.57142857142856</ele><time>2026-04-25T05:42:55.999Z</time></trkpt><trkpt lat="45.58765869729445" lon="9.273538091600308"><ele>174.42857142857144</ele><time>2026-04-25T05:42:56.999Z</time></trkpt><trkpt lat="45.58768057777512" lon="9.273630447828323"><ele>174.28571428571428</ele><time>2026-04-25T05:42:57.999Z</time></trkpt><trkpt lat="45.587701894789475" lon="9.273720425622374"><ele>174.14285714285714</ele><time>2026-04-25T05:42:58.999Z</time></trkpt><trkpt lat="45.58772413380811" lon="9.27381429570603"><ele>174.0</ele><time>2026-04-25T05:42:59.999Z</time></trkpt><trkpt lat="45.587746251724866" lon="9.273909166976878"><ele>174.0</ele><time>2026-04-25T05:43:00.999Z</time></trkpt><trkpt lat="45.58778417354202" lon="9.273997439907212"><ele>174.0</ele><time>2026-04-25T05:43:01.999Z</time></trkpt><trkpt lat="45.58780321371623" lon="9.274093749116176"><ele>174.0</ele><time>2026-04-25T05:43:02.999Z</time></trkpt><trkpt lat="45.58782267574963" lon="9.274186618423617"><ele>174.0</ele><time>2026-04-25T05:43:03.999Z</time></trkpt><trkpt lat="45.58784309100475" lon="9.274279775927655"><ele>174.0</ele><time>2026-04-25T05:43:04.999Z</time></trkpt><trkpt lat="45.58786741099383" lon="9.274373739641609"><ele>174.0</ele><time>2026-04-25T05:43:05.999Z</time></trkpt><trkpt lat="45.587890351142576" lon="9.274468572541723"><ele>174.0</ele><time>2026-04-25T05:43:06.999Z</time></trkpt><trkpt lat="45.58791100641547" lon="9.274566658291663"><ele>174.0</ele><time>2026-04-25T05:43:07.999Z</time></trkpt><trkpt lat="45.58793461433047" lon="9.27466327537279"><ele>174.0</ele><time>2026-04-25T05:43:08.999Z</time></trkpt><trkpt lat="45.58795891419456" lon="9.274759768587145"><ele>174.0</ele><time>2026-04-25T05:43:09.999Z</time></trkpt><trkpt lat="45.58798197047881" lon="9.274856704459134"><ele>174.0</ele><time>2026-04-25T05:43:10.999Z</time></trkpt><trkpt lat="45.58800474269991" lon="9.274953984519128"><ele>174.0</ele><time>2026-04-25T05:43:11.999Z</time></trkpt><trkpt lat="45.588025225545785" lon="9.2750478689264"><ele>174.0</ele><time>2026-04-25T05:43:12.999Z</time></trkpt><trkpt lat="45.588048867303534" lon="9.27514093756029"><ele>174.0</ele><time>2026-04-25T05:43:13.999Z</time></trkpt><trkpt lat="45.58806633136154" lon="9.27523535264563"><ele>173.83333333333334</ele><time>2026-04-25T05:43:14.999Z</time></trkpt><trkpt lat="45.588085337031856" lon="9.275328845500178"><ele>173.66666666666666</ele><time>2026-04-25T05:43:15.999Z</time></trkpt><trkpt lat="45.58810870460613" lon="9.275419027289717"><ele>173.5</ele><time>2026-04-25T05:43:16.999Z</time></trkpt><trkpt lat="45.58812980656437" lon="9.27550674751504"><ele>173.33333333333331</ele><time>2026-04-25T05:43:17.999Z</time></trkpt><trkpt lat="45.58817173115268" lon="9.27567359239469"><ele>173.16666666666666</ele><time>2026-04-25T05:43:19.999Z</time></trkpt><trkpt lat="45.588194928526434" lon="9.275761441462857"><ele>173.0</ele><time>2026-04-25T05:43:20.999Z</time></trkpt><trkpt lat="45.588233225281705" lon="9.275919963376099"><ele>173.0</ele><time>2026-04-25T05:43:22.999Z</time></trkpt><trkpt lat="45.58829439746492" lon="9.275953056769357"><ele>173.0</ele><time>2026-04-25T05:43:23.999Z</time></trkpt><trkpt lat="45.58841715729098" lon="9.275966061937826"><ele>173.0</ele><time>2026-04-25T05:43:25.999Z</time></trkpt><trkpt lat="45.588513950845744" lon="9.275875664603992"><ele>173.0</ele><time>2026-04-25T05:43:27.999Z</time></trkpt><trkpt lat="45.588566704251576" lon="9.275720372310968"><ele>173.0</ele><time>2026-04-25T05:43:29.999Z</time></trkpt><trkpt lat="45.58859500330806" lon="9.275553265548533"><ele>173.0</ele><time>2026-04-25T05:43:31.999Z</time></trkpt><trkpt lat="45.58864705682002" lon="9.275401914723446"><ele>173.0</ele><time>2026-04-25T05:43:33.999Z</time></trkpt><trkpt lat="45.58872869324035" lon="9.27529537947372"><ele>173.0</ele><time>2026-04-25T05:43:36Z</time></trkpt><trkpt lat="45.58882069697027" lon="9.2751799999838"><ele>173.0</ele><time>2026-04-25T05:43:38Z</time></trkpt><trkpt lat="45.5888626810257" lon="9.275111289935946"><ele>173.0</ele><time>2026-04-25T05:43:39Z</time></trkpt><trkpt lat="45.58896106843262" lon="9.275001389859018"><ele>173.42857142857142</ele><time>2026-04-25T05:43:41Z</time></trkpt><trkpt lat="45.58901143070212" lon="9.27494696238386"><ele>173.85714285714286</ele><time>2026-04-25T05:43:42Z</time></trkpt><trkpt lat="45.58906168367901" lon="9.274887314500072"><ele>174.28571428571428</ele><time>2026-04-25T05:43:43Z</time></trkpt><trkpt lat="45.58911115503521" lon="9.27482651880238"><ele>174.71428571428572</ele><time>2026-04-25T05:43:44Z</time></trkpt><trkpt lat="45.5891616580854" lon="9.274763702522293"><ele>175.14285714285714</ele><time>2026-04-25T05:43:45Z</time></trkpt><trkpt lat="45.58921470104718" lon="9.274706544811533"><ele>175.57142857142858</ele><time>2026-04-25T05:43:46Z</time></trkpt><trkpt lat="45.58927129301338" lon="9.274654665316021"><ele>176.0</ele><time>2026-04-25T05:43:47Z</time></trkpt><trkpt lat="45.589377291369416" lon="9.274537649991588"><ele>176.28571428571428</ele><time>2026-04-25T05:43:49Z</time></trkpt><trkpt lat="45.58943067557817" lon="9.27447516003877"><ele>176.57142857142856</ele><time>2026-04-25T05:43:50Z</time></trkpt><trkpt lat="45.58948377112786" lon="9.274416491241707"><ele>176.85714285714283</ele><time>2026-04-25T05:43:51Z</time></trkpt><trkpt lat="45.58953934266929" lon="9.274353478176657"><ele>177.14285714285714</ele><time>2026-04-25T05:43:52Z</time></trkpt><trkpt lat="45.58959242108521" lon="9.274287835001068"><ele>177.42857142857142</ele><time>2026-04-25T05:43:53Z</time></trkpt><trkpt lat="45.58964645383587" lon="9.274222799428358"><ele>177.7142857142857</ele><time>2026-04-25T05:43:54Z</time></trkpt><trkpt lat="45.589700679196646" lon="9.274162517687719"><ele>178.0</ele><time>2026-04-25T05:43:55Z</time></trkpt><trkpt lat="45.589755441866735" lon="9.274100304255768"><ele>177.85714285714283</ele><time>2026-04-25T05:43:56Z</time></trkpt><trkpt lat="45.58981336707643" lon="9.274037119536137"><ele>177.71428571428572</ele><time>2026-04-25T05:43:57Z</time></trkpt><trkpt lat="45.58986535900442" lon="9.273970493455934"><ele>177.57142857142856</ele><time>2026-04-25T05:43:58Z</time></trkpt><trkpt lat="45.58992279615729" lon="9.273908986711051"><ele>177.42857142857142</ele><time>2026-04-25T05:43:59Z</time></trkpt><trkpt lat="45.58998047086144" lon="9.273845338229851"><ele>177.28571428571428</ele><time>2026-04-25T05:44:00Z</time></trkpt><trkpt lat="45.59003837815866" lon="9.27378575043287"><ele>177.14285714285714</ele><time>2026-04-25T05:44:01Z</time></trkpt><trkpt lat="45.59009410499618" lon="9.273727472246796"><ele>177.0</ele><time>2026-04-25T05:44:02Z</time></trkpt><trkpt lat="45.59014882637817" lon="9.273659949113076"><ele>177.0</ele><time>2026-04-25T05:44:03Z</time></trkpt><trkpt lat="45.590208025658605" lon="9.273604127987062"><ele>177.0</ele><time>2026-04-25T05:44:04Z</time></trkpt><trkpt lat="45.59026278802168" lon="9.27354143684729"><ele>177.0</ele><time>2026-04-25T05:44:05Z</time></trkpt><trkpt lat="45.59032046162319" lon="9.273476365053831"><ele>177.0</ele><time>2026-04-25T05:44:06Z</time></trkpt><trkpt lat="45.59037212162052" lon="9.273413678936787"><ele>177.0</ele><time>2026-04-25T05:44:07Z</time></trkpt><trkpt lat="45.59042592671189" lon="9.27335159252799"><ele>177.0</ele><time>2026-04-25T05:44:08Z</time></trkpt><trkpt lat="45.5904787497778" lon="9.27329384718231"><ele>177.0</ele><time>2026-04-25T05:44:09Z</time></trkpt><trkpt lat="45.59053132543625" lon="9.27323002087429"><ele>177.2</ele><time>2026-04-25T05:44:10Z</time></trkpt><trkpt lat="45.5905843133811" lon="9.273171340410421"><ele>177.39999999999998</ele><time>2026-04-25T05:44:11Z</time></trkpt><trkpt lat="45.590633787102874" lon="9.27310919706571"><ele>177.60000000000002</ele><time>2026-04-25T05:44:12Z</time></trkpt><trkpt lat="45.59072787636205" lon="9.273008181991994"><ele>177.8</ele><time>2026-04-25T05:44:14Z</time></trkpt><trkpt lat="45.590823028621735" lon="9.272911584309337"><ele>178.0</ele><time>2026-04-25T05:44:16Z</time></trkpt><trkpt lat="45.59089336832071" lon="9.272844031247194"><ele>178.0</ele><time>2026-04-25T05:44:18Z</time></trkpt><trkpt lat="45.59096132107675" lon="9.272774239656426"><ele>178.0</ele><time>2026-04-25T05:44:21Z</time></trkpt><trkpt lat="45.591028642471784" lon="9.272712280277624"><ele>178.0</ele><time>2026-04-25T05:46:26Z</time></trkpt><trkpt lat="45.591080529505206" lon="9.272654053406509"><ele>178.0</ele><time>2026-04-25T05:46:28Z</time></trkpt><trkpt lat="45.59113863920856" lon="9.272576673619891"><ele>178.0</ele><time>2026-04-25T05:46:30Z</time></trkpt><trkpt lat="45.591215873576644" lon="9.27250076140572"><ele>178.0</ele><time>2026-04-25T05:46:32Z</time></trkpt><trkpt lat="45.591308940505705" lon="9.272413859509589"><ele>177.60000000000002</ele><time>2026-04-25T05:46:34Z</time></trkpt><trkpt lat="45.591408849998786" lon="9.27230663528377"><ele>177.20000000000002</ele><time>2026-04-25T05:46:36Z</time></trkpt><trkpt lat="45.59152278445464" lon="9.272247251512875"><ele>176.8</ele><time>2026-04-25T05:46:38Z</time></trkpt><trkpt lat="45.59158855348944" lon="9.272233071920917"><ele>176.4</ele><time>2026-04-25T05:46:39Z</time></trkpt><trkpt lat="45.59171562391693" lon="9.272200995600109"><ele>176.0</ele><time>2026-04-25T05:46:41Z</time></trkpt><trkpt lat="45.59178597063979" lon="9.272175825665167"><ele>176.5</ele><time>2026-04-25T05:46:42Z</time></trkpt><trkpt lat="45.591852496984856" lon="9.27215284007977"><ele>177.0</ele><time>2026-04-25T05:46:43Z</time></trkpt><trkpt lat="45.591918138311236" lon="9.272133467074617"><ele>177.5</ele><time>2026-04-25T05:46:44Z</time></trkpt><trkpt lat="45.59198320771897" lon="9.272115611700304"><ele>178.0</ele><time>2026-04-25T05:46:45Z</time></trkpt><trkpt lat="45.59210247582368" lon="9.272086145016795"><ele>178.5</ele><time>2026-04-25T05:46:47Z</time></trkpt><trkpt lat="45.592224370315705" lon="9.272048460040036"><ele>179.0</ele><time>2026-04-25T05:46:49Z</time></trkpt><trkpt lat="45.59234031664315" lon="9.272013455121488"><ele>179.0</ele><time>2026-04-25T05:46:51Z</time></trkpt><trkpt lat="45.59244601470959" lon="9.271981186878344"><ele>179.0</ele><time>2026-04-25T05:46:53Z</time></trkpt><trkpt lat="45.59253413590472" lon="9.271941921631168"><ele>179.0</ele><time>2026-04-25T05:46:55Z</time></trkpt><trkpt lat="45.592630853734526" lon="9.27190272630934"><ele>179.0</ele><time>2026-04-25T05:46:57Z</time></trkpt><trkpt lat="45.59273030724059" lon="9.271877626061197"><ele>179.0</ele><time>2026-04-25T05:46:59Z</time></trkpt><trkpt lat="45.592822030309364" lon="9.271846714895863"><ele>178.5</ele><time>2026-04-25T05:47:01Z</time></trkpt><trkpt lat="45.59293311470586" lon="9.271845060097615"><ele>178.0</ele><time>2026-04-25T05:47:03Z</time></trkpt><trkpt lat="45.593054940244606" lon="9.271821260966199"><ele>177.5</ele><time>2026-04-25T05:47:05Z</time></trkpt><trkpt lat="45.59311894018959" lon="9.27180478879311"><ele>177.0</ele><time>2026-04-25T05:47:06Z</time></trkpt><trkpt lat="45.59318311517232" lon="9.271786586884776"><ele>176.5</ele><time>2026-04-25T05:47:07Z</time></trkpt><trkpt lat="45.59324725401085" lon="9.271765598469244"><ele>176.0</ele><time>2026-04-25T05:47:08Z</time></trkpt><trkpt lat="45.59331548482306" lon="9.271742147321149"><ele>176.0</ele><time>2026-04-25T05:47:09Z</time></trkpt><trkpt lat="45.59338108370164" lon="9.271722400658584"><ele>176.0</ele><time>2026-04-25T05:47:10Z</time></trkpt><trkpt lat="45.59344806826661" lon="9.271701840114723"><ele>176.0</ele><time>2026-04-25T05:47:11Z</time></trkpt><trkpt lat="45.59351626285623" lon="9.27168707262747"><ele>176.0</ele><time>2026-04-25T05:47:12Z</time></trkpt><trkpt lat="45.59358548320021" lon="9.271663907826143"><ele>176.0</ele><time>2026-04-25T05:47:13Z</time></trkpt><trkpt lat="45.59365318770582" lon="9.271641506812792"><ele>176.0</ele><time>2026-04-25T05:47:14Z</time></trkpt><trkpt lat="45.59372262528198" lon="9.27162252041831"><ele>176.0</ele><time>2026-04-25T05:47:15Z</time></trkpt><trkpt lat="45.593792591213955" lon="9.271600734000513"><ele>176.28571428571428</ele><time>2026-04-25T05:47:16Z</time></trkpt><trkpt lat="45.59386428320596" lon="9.27158276103545"><ele>176.57142857142856</ele><time>2026-04-25T05:47:16.999Z</time></trkpt><trkpt lat="45.59393448633793" lon="9.271563526449365"><ele>176.85714285714283</ele><time>2026-04-25T05:47:17.999Z</time></trkpt><trkpt lat="45.5940067891307" lon="9.271543798094795"><ele>177.14285714285714</ele><time>2026-04-25T05:47:18.999Z</time></trkpt><trkpt lat="45.59407742590125" lon="9.271528057256232"><ele>177.42857142857142</ele><time>2026-04-25T05:47:19.999Z</time></trkpt><trkpt lat="45.59415132140443" lon="9.271506318079755"><ele>177.7142857142857</ele><time>2026-04-25T05:47:20.999Z</time></trkpt><trkpt lat="45.59422221984268" lon="9.271483007894536"><ele>178.0</ele><time>2026-04-25T05:47:21.999Z</time></trkpt><trkpt lat="45.59429278310023" lon="9.271462671223441"><ele>177.99999999999997</ele><time>2026-04-25T05:47:22.999Z</time></trkpt><trkpt lat="45.5943616351034" lon="9.271445437394938"><ele>178.0</ele><time>2026-04-25T05:47:23.999Z</time></trkpt><trkpt lat="45.59443342408208" lon="9.271421763707956"><ele>178.0</ele><time>2026-04-25T05:47:24.999Z</time></trkpt><trkpt lat="45.594500679553875" lon="9.271403222443466"><ele>178.0</ele><time>2026-04-25T05:47:25.999Z</time></trkpt><trkpt lat="45.59456967510977" lon="9.271380732799043"><ele>178.0</ele><time>2026-04-25T05:47:26.999Z</time></trkpt><trkpt lat="45.59464162340019" lon="9.271360872296462"><ele>177.99999999999997</ele><time>2026-04-25T05:47:27.999Z</time></trkpt><trkpt lat="45.59471469871933" lon="9.271339722051286"><ele>178.0</ele><time>2026-04-25T05:47:28.999Z</time></trkpt><trkpt lat="45.59478579030944" lon="9.271319739668273"><ele>178.42857142857142</ele><time>2026-04-25T05:47:29.999Z</time></trkpt><trkpt lat="45.594851113642804" lon="9.271299177878657"><ele>178.85714285714286</ele><time>2026-04-25T05:47:30.999Z</time></trkpt><trkpt lat="45.594925364587034" lon="9.271273524349816"><ele>179.28571428571428</ele><time>2026-04-25T05:47:31.999Z</time></trkpt><trkpt lat="45.594998726504606" lon="9.271253840409097"><ele>179.71428571428572</ele><time>2026-04-25T05:47:32.999Z</time></trkpt><trkpt lat="45.59507107876804" lon="9.271233073560802"><ele>180.14285714285714</ele><time>2026-04-25T05:47:33.999Z</time></trkpt><trkpt lat="45.59514428031849" lon="9.271211205853461"><ele>180.57142857142856</ele><time>2026-04-25T05:47:34.999Z</time></trkpt><trkpt lat="45.59521873647435" lon="9.271192402689355"><ele>181.0</ele><time>2026-04-25T05:47:35.999Z</time></trkpt><trkpt lat="45.59528958136139" lon="9.27116886200635"><ele>181.16666666666669</ele><time>2026-04-25T05:47:36.999Z</time></trkpt><trkpt lat="45.595362075645866" lon="9.271142062673057"><ele>181.33333333333334</ele><time>2026-04-25T05:47:37.999Z</time></trkpt><trkpt lat="45.59543517780998" lon="9.271115209479548"><ele>181.5</ele><time>2026-04-25T05:47:38.999Z</time></trkpt><trkpt lat="45.5955086569989" lon="9.271096782089767"><ele>181.66666666666666</ele><time>2026-04-25T05:47:39.999Z</time></trkpt><trkpt lat="45.59558376826687" lon="9.271075881907871"><ele>181.83333333333331</ele><time>2026-04-25T05:47:40.999Z</time></trkpt><trkpt lat="45.595658735720946" lon="9.27105771864323"><ele>182.0</ele><time>2026-04-25T05:47:41.999Z</time></trkpt><trkpt lat="45.59573551209378" lon="9.271036770518666"><ele>182.0</ele><time>2026-04-25T05:47:42.999Z</time></trkpt><trkpt lat="45.595812815635206" lon="9.271010430383935"><ele>182.0</ele><time>2026-04-25T05:47:43.999Z</time></trkpt><trkpt lat="45.59588518153825" lon="9.270985290318414"><ele>182.0</ele><time>2026-04-25T05:47:44.999Z</time></trkpt><trkpt lat="45.59595679637483" lon="9.270961748571338"><ele>182.0</ele><time>2026-04-25T05:47:45.999Z</time></trkpt><trkpt lat="45.596033658456356" lon="9.270941269105759"><ele>182.0</ele><time>2026-04-25T05:47:46.999Z</time></trkpt><trkpt lat="45.596109395130384" lon="9.27092052026531"><ele>182.0</ele><time>2026-04-25T05:47:48Z</time></trkpt><trkpt lat="45.5961843955186" lon="9.270899977495866"><ele>182.0</ele><time>2026-04-25T05:47:49Z</time></trkpt><trkpt lat="45.59626052548628" lon="9.27087518461932"><ele>182.0</ele><time>2026-04-25T05:47:50Z</time></trkpt><trkpt lat="45.5963394179009" lon="9.270853064163324"><ele>182.0</ele><time>2026-04-25T05:47:51Z</time></trkpt><trkpt lat="45.59641534538268" lon="9.270834025118239"><ele>182.0</ele><time>2026-04-25T05:47:52Z</time></trkpt><trkpt lat="45.596492846059945" lon="9.270815444012143"><ele>182.0</ele><time>2026-04-25T05:47:53Z</time></trkpt><trkpt lat="45.596572775775755" lon="9.270790617351466"><ele>182.0</ele><time>2026-04-25T05:47:54Z</time></trkpt><trkpt lat="45.59664991944489" lon="9.27076906014853"><ele>182.0</ele><time>2026-04-25T05:47:55Z</time></trkpt><trkpt lat="45.596724219778146" lon="9.270744190449685"><ele>182.0</ele><time>2026-04-25T05:47:56Z</time></trkpt><trkpt lat="45.59679536200065" lon="9.270720823251233"><ele>182.0</ele><time>2026-04-25T05:47:57Z</time></trkpt><trkpt lat="45.596865137353554" lon="9.2707010094867"><ele>182.0</ele><time>2026-04-25T05:47:58Z</time></trkpt><trkpt lat="45.5969311294535" lon="9.27067829404786"><ele>182.0</ele><time>2026-04-25T05:47:59Z</time></trkpt><trkpt lat="45.59699374087007" lon="9.270657963721215"><ele>182.0</ele><time>2026-04-25T05:48:00Z</time></trkpt><trkpt lat="45.59705761277317" lon="9.270637465918506"><ele>182.0</ele><time>2026-04-25T05:48:01Z</time></trkpt><trkpt lat="45.59711973788609" lon="9.270622137054902"><ele>181.8</ele><time>2026-04-25T05:48:02Z</time></trkpt><trkpt lat="45.59723137439026" lon="9.270586458333936"><ele>181.6</ele><time>2026-04-25T05:48:04Z</time></trkpt><trkpt lat="45.597326228686995" lon="9.270544661793938"><ele>181.4</ele><time>2026-04-25T05:48:06Z</time></trkpt><trkpt lat="45.597428334003745" lon="9.27052231423817"><ele>181.20000000000002</ele><time>2026-04-25T05:48:08Z</time></trkpt><trkpt lat="45.5975425716978" lon="9.270511334208514"><ele>181.0</ele><time>2026-04-25T05:48:10Z</time></trkpt><trkpt lat="45.597671197022635" lon="9.270475572443978"><ele>181.0</ele><time>2026-04-25T05:48:12Z</time></trkpt><trkpt lat="45.59773712112384" lon="9.270463379236677"><ele>181.0</ele><time>2026-04-25T05:48:13Z</time></trkpt><trkpt lat="45.59780184972192" lon="9.270450456413352"><ele>181.0</ele><time>2026-04-25T05:48:14Z</time></trkpt><trkpt lat="45.597866033974995" lon="9.270432430607329"><ele>181.0</ele><time>2026-04-25T05:48:15Z</time></trkpt><trkpt lat="45.597930528087026" lon="9.27040997759826"><ele>181.0</ele><time>2026-04-25T05:48:16Z</time></trkpt><trkpt lat="45.59799949970027" lon="9.270387037147726"><ele>181.0</ele><time>2026-04-25T05:48:17Z</time></trkpt><trkpt lat="45.59806673721509" lon="9.270367990158315"><ele>181.0</ele><time>2026-04-25T05:48:18Z</time></trkpt><trkpt lat="45.59813597355235" lon="9.27034857262567"><ele>181.28571428571428</ele><time>2026-04-25T05:48:19Z</time></trkpt><trkpt lat="45.59820707773392" lon="9.270329003004786"><ele>181.57142857142856</ele><time>2026-04-25T05:48:20Z</time></trkpt><trkpt lat="45.5982765637606" lon="9.270305592082194"><ele>181.85714285714286</ele><time>2026-04-25T05:48:21Z</time></trkpt><trkpt lat="45.59835206423379" lon="9.270286865077066"><ele>182.14285714285714</ele><time>2026-04-25T05:48:22Z</time></trkpt><trkpt lat="45.59842039908223" lon="9.270258818498169"><ele>182.42857142857144</ele><time>2026-04-25T05:48:23Z</time></trkpt><trkpt lat="45.59849820557228" lon="9.270240588069422"><ele>182.71428571428572</ele><time>2026-04-25T05:48:24Z</time></trkpt><trkpt lat="45.598573183814686" lon="9.270219849988008"><ele>183.0</ele><time>2026-04-25T05:48:25Z</time></trkpt><trkpt lat="45.59864801877667" lon="9.27019652939509"><ele>183.66666666666666</ele><time>2026-04-25T05:48:26Z</time></trkpt><trkpt lat="45.598723784115954" lon="9.270177357247409"><ele>184.33333333333334</ele><time>2026-04-25T05:48:27Z</time></trkpt><trkpt lat="45.59879803941614" lon="9.270156972184765"><ele>185.0</ele><time>2026-04-25T05:48:28Z</time></trkpt><trkpt lat="45.59887405831655" lon="9.270136154644023"><ele>185.66666666666669</ele><time>2026-04-25T05:48:29Z</time></trkpt><trkpt lat="45.5989487675444" lon="9.270115803142572"><ele>186.33333333333334</ele><time>2026-04-25T05:48:30Z</time></trkpt><trkpt lat="45.59902510308919" lon="9.27009181146782"><ele>187.0</ele><time>2026-04-25T05:48:31Z</time></trkpt><trkpt lat="45.59909882372087" lon="9.27007121506179"><ele>187.0</ele><time>2026-04-25T05:48:32Z</time></trkpt><trkpt lat="45.59917688719358" lon="9.270050731900957"><ele>187.0</ele><time>2026-04-25T05:48:33Z</time></trkpt><trkpt lat="45.59925368259823" lon="9.270029537414558"><ele>187.0</ele><time>2026-04-25T05:48:34Z</time></trkpt><trkpt lat="45.59932941098352" lon="9.270005194105948"><ele>187.0</ele><time>2026-04-25T05:48:35Z</time></trkpt><trkpt lat="45.59940527478482" lon="9.269982278545697"><ele>187.0</ele><time>2026-04-25T05:48:36Z</time></trkpt><trkpt lat="45.59948289387606" lon="9.269962612954954"><ele>187.0</ele><time>2026-04-25T05:48:37Z</time></trkpt><trkpt lat="45.59955757351664" lon="9.2699373403839"><ele>187.16666666666669</ele><time>2026-04-25T05:48:38Z</time></trkpt><trkpt lat="45.59963443580879" lon="9.269911359818092"><ele>187.33333333333334</ele><time>2026-04-25T05:48:39Z</time></trkpt><trkpt lat="45.599709736839515" lon="9.269891862962677"><ele>187.5</ele><time>2026-04-25T05:48:40Z</time></trkpt><trkpt lat="45.599786470433735" lon="9.269869798424676"><ele>187.66666666666666</ele><time>2026-04-25T05:48:41Z</time></trkpt><trkpt lat="45.59986260669292" lon="9.269846122446431"><ele>187.83333333333331</ele><time>2026-04-25T05:48:42Z</time></trkpt><trkpt lat="45.5999395007841" lon="9.269827884262849"><ele>188.0</ele><time>2026-04-25T05:48:43Z</time></trkpt><trkpt lat="45.60001521244281" lon="9.2698072544015"><ele>188.0</ele><time>2026-04-25T05:48:44Z</time></trkpt><trkpt lat="45.60009192932345" lon="9.269788217441592"><ele>188.0</ele><time>2026-04-25T05:48:45Z</time></trkpt><trkpt lat="45.600168422545295" lon="9.269762046180668"><ele>188.0</ele><time>2026-04-25T05:48:46Z</time></trkpt><trkpt lat="45.60024476367993" lon="9.269737871904866"><ele>188.0</ele><time>2026-04-25T05:48:47Z</time></trkpt><trkpt lat="45.60032023898288" lon="9.269717451239664"><ele>188.0</ele><time>2026-04-25T05:48:48Z</time></trkpt><trkpt lat="45.60039649071407" lon="9.269693602522324"><ele>188.0</ele><time>2026-04-25T05:48:49Z</time></trkpt><trkpt lat="45.600472695777974" lon="9.26967367958736"><ele>187.83333333333331</ele><time>2026-04-25T05:48:50Z</time></trkpt><trkpt lat="45.60054891995706" lon="9.269653102512736"><ele>187.66666666666666</ele><time>2026-04-25T05:48:51Z</time></trkpt><trkpt lat="45.600625308322456" lon="9.269630105444612"><ele>187.5</ele><time>2026-04-25T05:48:52Z</time></trkpt><trkpt lat="45.600703176077786" lon="9.269609377395751"><ele>187.33333333333334</ele><time>2026-04-25T05:48:53Z</time></trkpt><trkpt lat="45.60078023711301" lon="9.269588418358257"><ele>187.16666666666669</ele><time>2026-04-25T05:48:54Z</time></trkpt><trkpt lat="45.60085547852365" lon="9.269566558587682"><ele>187.0</ele><time>2026-04-25T05:48:55Z</time></trkpt><trkpt lat="45.60093239899169" lon="9.269544293625637"><ele>187.0</ele><time>2026-04-25T05:48:56Z</time></trkpt><trkpt lat="45.60100747689719" lon="9.269511709646514"><ele>187.0</ele><time>2026-04-25T05:48:57Z</time></trkpt><trkpt lat="45.60108283595424" lon="9.269492684277731"><ele>187.0</ele><time>2026-04-25T05:48:58Z</time></trkpt><trkpt lat="45.60116102003076" lon="9.26946912412226"><ele>187.0</ele><time>2026-04-25T05:48:59Z</time></trkpt><trkpt lat="45.60123835031301" lon="9.269448704767237"><ele>187.0</ele><time>2026-04-25T05:49:00Z</time></trkpt><trkpt lat="45.601315985681154" lon="9.269420738879328"><ele>187.0</ele><time>2026-04-25T05:49:01Z</time></trkpt><trkpt lat="45.60139361648098" lon="9.269396587085996"><ele>186.66666666666669</ele><time>2026-04-25T05:49:02Z</time></trkpt><trkpt lat="45.601470601744566" lon="9.269376529229994"><ele>186.33333333333334</ele><time>2026-04-25T05:49:03Z</time></trkpt><trkpt lat="45.6015475014648" lon="9.269355682705488"><ele>186.0</ele><time>2026-04-25T05:49:04Z</time></trkpt><trkpt lat="45.6016265455042" lon="9.269340685798413"><ele>185.66666666666666</ele><time>2026-04-25T05:49:05Z</time></trkpt><trkpt lat="45.601705688108154" lon="9.269323992321608"><ele>185.33333333333331</ele><time>2026-04-25T05:49:06Z</time></trkpt><trkpt lat="45.60178919371003" lon="9.269304368301599"><ele>185.0</ele><time>2026-04-25T05:49:07Z</time></trkpt><trkpt lat="45.60186672869633" lon="9.269282633901668"><ele>185.0</ele><time>2026-04-25T05:49:08Z</time></trkpt><trkpt lat="45.60194323515206" lon="9.269256262506664"><ele>185.0</ele><time>2026-04-25T05:49:09Z</time></trkpt><trkpt lat="45.60202327781039" lon="9.269231092291392"><ele>185.0</ele><time>2026-04-25T05:49:10Z</time></trkpt><trkpt lat="45.602102348480805" lon="9.26920699417302"><ele>185.0</ele><time>2026-04-25T05:49:11Z</time></trkpt><trkpt lat="45.60218058601136" lon="9.269181446206268"><ele>185.0</ele><time>2026-04-25T05:49:12Z</time></trkpt><trkpt lat="45.6022583353963" lon="9.26915873577428"><ele>185.0</ele><time>2026-04-25T05:49:13Z</time></trkpt><trkpt lat="45.60233682904441" lon="9.269138718736441"><ele>185.16666666666666</ele><time>2026-04-25T05:49:14Z</time></trkpt><trkpt lat="45.60241531491721" lon="9.26911649194232"><ele>185.33333333333331</ele><time>2026-04-25T05:49:15Z</time></trkpt><trkpt lat="45.60249329765304" lon="9.269095368895197"><ele>185.5</ele><time>2026-04-25T05:49:16Z</time></trkpt><trkpt lat="45.60257143318535" lon="9.269073443924924"><ele>185.66666666666666</ele><time>2026-04-25T05:49:17Z</time></trkpt><trkpt lat="45.60265045262229" lon="9.269049663604521"><ele>185.83333333333334</ele><time>2026-04-25T05:49:18Z</time></trkpt><trkpt lat="45.60272841096958" lon="9.269025601870133"><ele>186.0</ele><time>2026-04-25T05:49:19Z</time></trkpt><trkpt lat="45.60280427602945" lon="9.26899693623907"><ele>185.83333333333334</ele><time>2026-04-25T05:49:20Z</time></trkpt><trkpt lat="45.60288132217594" lon="9.268975161983496"><ele>185.66666666666666</ele><time>2026-04-25T05:49:21Z</time></trkpt><trkpt lat="45.60295910910624" lon="9.26895084855629"><ele>185.5</ele><time>2026-04-25T05:49:22Z</time></trkpt><trkpt lat="45.60303647684682" lon="9.268923544903862"><ele>185.33333333333331</ele><time>2026-04-25T05:49:23Z</time></trkpt><trkpt lat="45.60311614672241" lon="9.268900685569632"><ele>185.16666666666666</ele><time>2026-04-25T05:49:24Z</time></trkpt><trkpt lat="45.6031944648217" lon="9.268876001194657"><ele>185.0</ele><time>2026-04-25T05:49:24.999Z</time></trkpt><trkpt lat="45.603272400329004" lon="9.268853652298137"><ele>185.0</ele><time>2026-04-25T05:49:25.999Z</time></trkpt><trkpt lat="45.60335105908514" lon="9.268830629355453"><ele>185.0</ele><time>2026-04-25T05:49:26.999Z</time></trkpt><trkpt lat="45.603429635272065" lon="9.268806219675692"><ele>185.0</ele><time>2026-04-25T05:49:27.999Z</time></trkpt><trkpt lat="45.60350714189156" lon="9.268781965290456"><ele>185.0</ele><time>2026-04-25T05:49:28.999Z</time></trkpt><trkpt lat="45.60358583969015" lon="9.26875673200992"><ele>185.0</ele><time>2026-04-25T05:49:29.999Z</time></trkpt><trkpt lat="45.603664849812304" lon="9.268738180008503"><ele>185.0</ele><time>2026-04-25T05:49:30.999Z</time></trkpt><trkpt lat="45.60374297271485" lon="9.26871661603716"><ele>185.83333333333331</ele><time>2026-04-25T05:49:31.999Z</time></trkpt><trkpt lat="45.60382007483049" lon="9.268692004744716"><ele>186.66666666666666</ele><time>2026-04-25T05:49:32.999Z</time></trkpt><trkpt lat="45.60389827306601" lon="9.26867439121535"><ele>187.5</ele><time>2026-04-25T05:49:33.999Z</time></trkpt><trkpt lat="45.603977923421716" lon="9.268652526331772"><ele>188.33333333333334</ele><time>2026-04-25T05:49:34.999Z</time></trkpt><trkpt lat="45.604055397202494" lon="9.26863305296725"><ele>189.16666666666669</ele><time>2026-04-25T05:49:35.999Z</time></trkpt><trkpt lat="45.60413402050719" lon="9.268607631967026"><ele>190.0</ele><time>2026-04-25T05:49:36.999Z</time></trkpt><trkpt lat="45.604211703988405" lon="9.268582110314686"><ele>190.0</ele><time>2026-04-25T05:49:37.999Z</time></trkpt><trkpt lat="45.604279810633415" lon="9.26856194209188"><ele>190.0</ele><time>2026-04-25T05:49:38.999Z</time></trkpt><trkpt lat="45.604356838351634" lon="9.26854692079205"><ele>190.0</ele><time>2026-04-25T05:49:39.999Z</time></trkpt><trkpt lat="45.60442099555643" lon="9.268536734283572"><ele>190.0</ele><time>2026-04-25T05:49:40.999Z</time></trkpt><trkpt lat="45.60449798048473" lon="9.268509384672045"><ele>190.0</ele><time>2026-04-25T05:49:41.999Z</time></trkpt><trkpt lat="45.604575661619194" lon="9.268480025301695"><ele>190.0</ele><time>2026-04-25T05:49:42.999Z</time></trkpt><trkpt lat="45.60464880305559" lon="9.268450734347992"><ele>190.0</ele><time>2026-04-25T05:49:43.999Z</time></trkpt><trkpt lat="45.60472190094232" lon="9.268421587251867"><ele>190.16666666666669</ele><time>2026-04-25T05:49:44.999Z</time></trkpt><trkpt lat="45.60480092972583" lon="9.268404218841964"><ele>190.33333333333334</ele><time>2026-04-25T05:49:45.999Z</time></trkpt><trkpt lat="45.60488138010382" lon="9.26838886242415"><ele>190.5</ele><time>2026-04-25T05:49:46.999Z</time></trkpt><trkpt lat="45.604959320527236" lon="9.26836592457357"><ele>190.66666666666666</ele><time>2026-04-25T05:49:47.999Z</time></trkpt><trkpt lat="45.60503777130584" lon="9.268347549734766"><ele>190.83333333333331</ele><time>2026-04-25T05:49:48.999Z</time></trkpt><trkpt lat="45.6051187764908" lon="9.268327772369325"><ele>191.0</ele><time>2026-04-25T05:49:49.999Z</time></trkpt><trkpt lat="45.60519793114514" lon="9.268302810544455"><ele>191.0</ele><time>2026-04-25T05:49:50.999Z</time></trkpt><trkpt lat="45.60527195883347" lon="9.268273955186878"><ele>191.0</ele><time>2026-04-25T05:49:51.999Z</time></trkpt><trkpt lat="45.60535145611359" lon="9.268251462269214"><ele>191.0</ele><time>2026-04-25T05:49:52.999Z</time></trkpt><trkpt lat="45.60543166666784" lon="9.268223826614095"><ele>191.0</ele><time>2026-04-25T05:49:54Z</time></trkpt><trkpt lat="45.60551189081156" lon="9.268205103906682"><ele>191.0</ele><time>2026-04-25T05:49:55Z</time></trkpt><trkpt lat="45.605584130832845" lon="9.268182174658978"><ele>191.0</ele><time>2026-04-25T05:49:56Z</time></trkpt><trkpt lat="45.60565776847569" lon="9.26815349060321"><ele>190.5</ele><time>2026-04-25T05:49:57Z</time></trkpt><trkpt lat="45.60573326195229" lon="9.268131624790488"><ele>190.0</ele><time>2026-04-25T05:49:58Z</time></trkpt><trkpt lat="45.6058107177779" lon="9.26811307251712"><ele>189.5</ele><time>2026-04-25T05:49:59Z</time></trkpt><trkpt lat="45.60589084039649" lon="9.26810201813162"><ele>189.0</ele><time>2026-04-25T05:50:00Z</time></trkpt><trkpt lat="45.605968525423144" lon="9.268086073574786"><ele>188.5</ele><time>2026-04-25T05:50:01Z</time></trkpt><trkpt lat="45.60604713822071" lon="9.268079662105913"><ele>188.0</ele><time>2026-04-25T05:50:02Z</time></trkpt><trkpt lat="45.60612518309091" lon="9.268077152042522"><ele>187.83333333333331</ele><time>2026-04-25T05:50:03Z</time></trkpt><trkpt lat="45.60620243194841" lon="9.268076571515403"><ele>187.66666666666666</ele><time>2026-04-25T05:50:04Z</time></trkpt><trkpt lat="45.60627912352312" lon="9.26808162477703"><ele>187.5</ele><time>2026-04-25T05:50:05Z</time></trkpt><trkpt lat="45.60635605599613" lon="9.268092001081104"><ele>187.33333333333334</ele><time>2026-04-25T05:50:06Z</time></trkpt><trkpt lat="45.60643280685702" lon="9.268105022542764"><ele>187.16666666666669</ele><time>2026-04-25T05:50:07Z</time></trkpt><trkpt lat="45.60650856048063" lon="9.26812610137741"><ele>187.0</ele><time>2026-04-25T05:50:08Z</time></trkpt><trkpt lat="45.60657908576526" lon="9.268147961684118"><ele>187.0</ele><time>2026-04-25T05:50:09Z</time></trkpt><trkpt lat="45.60664679187033" lon="9.268170500552786"><ele>187.0</ele><time>2026-04-25T05:50:10Z</time></trkpt><trkpt lat="45.6067147967635" lon="9.26820478042524"><ele>187.0</ele><time>2026-04-25T05:50:11Z</time></trkpt><trkpt lat="45.606784962362546" lon="9.268242041008984"><ele>187.0</ele><time>2026-04-25T05:50:12Z</time></trkpt><trkpt lat="45.60685579366296" lon="9.268282629575278"><ele>187.0</ele><time>2026-04-25T05:50:13Z</time></trkpt><trkpt lat="45.606925063903475" lon="9.268329365308878"><ele>187.0</ele><time>2026-04-25T05:50:14Z</time></trkpt><trkpt lat="45.60699254386168" lon="9.268378277200817"><ele>187.0</ele><time>2026-04-25T05:50:15Z</time></trkpt><trkpt lat="45.607060423868866" lon="9.26842943121038"><ele>186.83333333333334</ele><time>2026-04-25T05:50:16Z</time></trkpt><trkpt lat="45.607124860358056" lon="9.268481718532769"><ele>186.66666666666669</ele><time>2026-04-25T05:50:17Z</time></trkpt><trkpt lat="45.607191874063375" lon="9.26853674626406"><ele>186.5</ele><time>2026-04-25T05:50:18Z</time></trkpt><trkpt lat="45.607256573550025" lon="9.268594054659818"><ele>186.33333333333334</ele><time>2026-04-25T05:50:19Z</time></trkpt><trkpt lat="45.607321424525715" lon="9.268653147715664"><ele>186.16666666666666</ele><time>2026-04-25T05:50:20Z</time></trkpt><trkpt lat="45.607386313394045" lon="9.268714481168002"><ele>186.0</ele><time>2026-04-25T05:50:21Z</time></trkpt><trkpt lat="45.60744865392387" lon="9.268773832680873"><ele>186.00000000000003</ele><time>2026-04-25T05:50:22Z</time></trkpt><trkpt lat="45.60751182769669" lon="9.268825919985149"><ele>186.0</ele><time>2026-04-25T05:50:23Z</time></trkpt><trkpt lat="45.60757259316196" lon="9.268875395218615"><ele>186.0</ele><time>2026-04-25T05:50:24Z</time></trkpt><trkpt lat="45.607633392124335" lon="9.268929372906275"><ele>186.0</ele><time>2026-04-25T05:50:25Z</time></trkpt><trkpt lat="45.60769828811241" lon="9.268975567916947"><ele>186.0</ele><time>2026-04-25T05:50:26Z</time></trkpt><trkpt lat="45.607760854024825" lon="9.269023588999426"><ele>186.00000000000003</ele><time>2026-04-25T05:50:27Z</time></trkpt><trkpt lat="45.6078264540977" lon="9.269077863905697"><ele>186.0</ele><time>2026-04-25T05:50:28Z</time></trkpt><trkpt lat="45.607887294813956" lon="9.269137968623145"><ele>186.33333333333334</ele><time>2026-04-25T05:50:29Z</time></trkpt><trkpt lat="45.60795267830088" lon="9.269189113671958"><ele>186.66666666666666</ele><time>2026-04-25T05:50:30Z</time></trkpt><trkpt lat="45.60802651443552" lon="9.269231391100828"><ele>187.0</ele><time>2026-04-25T05:50:31Z</time></trkpt><trkpt lat="45.60809482866714" lon="9.269283477665974"><ele>187.33333333333331</ele><time>2026-04-25T05:50:32Z</time></trkpt><trkpt lat="45.60815110183518" lon="9.26935130554455"><ele>187.66666666666666</ele><time>2026-04-25T05:50:33Z</time></trkpt><trkpt lat="45.60820214141529" lon="9.26942837903004"><ele>188.0</ele><time>2026-04-25T05:50:34Z</time></trkpt><trkpt lat="45.60826175597045" lon="9.269493922849392"><ele>188.0</ele><time>2026-04-25T05:50:35Z</time></trkpt><trkpt lat="45.60832432516763" lon="9.269551886027175"><ele>188.0</ele><time>2026-04-25T05:50:36Z</time></trkpt><trkpt lat="45.60839098613267" lon="9.269608107943876"><ele>188.0</ele><time>2026-04-25T05:50:37Z</time></trkpt><trkpt lat="45.608454791477314" lon="9.269663685737514"><ele>188.0</ele><time>2026-04-25T05:50:38Z</time></trkpt><trkpt lat="45.60851777975771" lon="9.269724865162704"><ele>188.0</ele><time>2026-04-25T05:50:39Z</time></trkpt><trkpt lat="45.60858215045152" lon="9.26978611876773"><ele>188.0</ele><time>2026-04-25T05:50:40Z</time></trkpt><trkpt lat="45.60864589839171" lon="9.269845613074917"><ele>188.33333333333331</ele><time>2026-04-25T05:50:41Z</time></trkpt><trkpt lat="45.60870940113356" lon="9.269905849503006"><ele>188.66666666666666</ele><time>2026-04-25T05:50:42Z</time></trkpt><trkpt lat="45.608773640107" lon="9.26996367030185"><ele>189.0</ele><time>2026-04-25T05:50:43Z</time></trkpt><trkpt lat="45.608836509505394" lon="9.27002189338343"><ele>189.33333333333334</ele><time>2026-04-25T05:50:44Z</time></trkpt><trkpt lat="45.608904306243815" lon="9.270075971387458"><ele>189.66666666666669</ele><time>2026-04-25T05:50:45Z</time></trkpt><trkpt lat="45.608968880692586" lon="9.270131447722013"><ele>190.0</ele><time>2026-04-25T05:50:46Z</time></trkpt><trkpt lat="45.60903303982706" lon="9.270184456378846"><ele>190.0</ele><time>2026-04-25T05:50:47Z</time></trkpt><trkpt lat="45.60909322495688" lon="9.27023738759813"><ele>190.0</ele><time>2026-04-25T05:50:48Z</time></trkpt><trkpt lat="45.60915280819751" lon="9.270290235761088"><ele>190.0</ele><time>2026-04-25T05:50:49Z</time></trkpt><trkpt lat="45.60921228985281" lon="9.270343392581733"><ele>190.0</ele><time>2026-04-25T05:50:50Z</time></trkpt><trkpt lat="45.609272710851855" lon="9.270396336574587"><ele>190.0</ele><time>2026-04-25T05:50:51Z</time></trkpt><trkpt lat="45.609328913276414" lon="9.270445745161403"><ele>190.0</ele><time>2026-04-25T05:50:52Z</time></trkpt><trkpt lat="45.60938651448946" lon="9.270494882782629"><ele>190.0</ele><time>2026-04-25T05:50:53Z</time></trkpt><trkpt lat="45.60943910674958" lon="9.270545705523103"><ele>189.5</ele><time>2026-04-25T05:50:54Z</time></trkpt><trkpt lat="45.60954242819709" lon="9.270641308399348"><ele>189.0</ele><time>2026-04-25T05:50:56Z</time></trkpt><trkpt lat="45.609635713369705" lon="9.27074143830766"><ele>188.5</ele><time>2026-04-25T05:50:58Z</time></trkpt><trkpt lat="45.609724109445644" lon="9.270830819899874"><ele>188.0</ele><time>2026-04-25T05:51:00Z</time></trkpt><trkpt lat="45.60981904456259" lon="9.270898145732104"><ele>188.0</ele><time>2026-04-25T05:51:02Z</time></trkpt><trkpt lat="45.60992213407469" lon="9.270983038578414"><ele>188.0</ele><time>2026-04-25T05:51:04Z</time></trkpt><trkpt lat="45.60997517863324" lon="9.271039210972802"><ele>188.0</ele><time>2026-04-25T05:51:05Z</time></trkpt><trkpt lat="45.610029916149415" lon="9.271087345877625"><ele>188.0</ele><time>2026-04-25T05:51:06Z</time></trkpt><trkpt lat="45.61008755427496" lon="9.2711386530677"><ele>188.0</ele><time>2026-04-25T05:51:07Z</time></trkpt><trkpt lat="45.610143220112995" lon="9.271189398738361"><ele>188.0</ele><time>2026-04-25T05:51:08Z</time></trkpt><trkpt lat="45.610200758159145" lon="9.271241994739656"><ele>188.0</ele><time>2026-04-25T05:51:09Z</time></trkpt><trkpt lat="45.610258850037674" lon="9.271292783635635"><ele>188.0</ele><time>2026-04-25T05:51:10Z</time></trkpt><trkpt lat="45.61031827284102" lon="9.271347543140497"><ele>188.0</ele><time>2026-04-25T05:51:11Z</time></trkpt><trkpt lat="45.61037311972403" lon="9.271404410675165"><ele>188.0</ele><time>2026-04-25T05:51:12Z</time></trkpt><trkpt lat="45.610432719214806" lon="9.271460330666564"><ele>188.0</ele><time>2026-04-25T05:51:13Z</time></trkpt><trkpt lat="45.61049384852175" lon="9.27151424942634"><ele>188.0</ele><time>2026-04-25T05:51:14Z</time></trkpt><trkpt lat="45.61055582992464" lon="9.27156452262212"><ele>188.0</ele><time>2026-04-25T05:51:15Z</time></trkpt><trkpt lat="45.61061686030588" lon="9.271616794173246"><ele>188.14285714285714</ele><time>2026-04-25T05:51:16Z</time></trkpt><trkpt lat="45.610675532636535" lon="9.27167300686843"><ele>188.28571428571428</ele><time>2026-04-25T05:51:17Z</time></trkpt><trkpt lat="45.61073666920509" lon="9.27172691632687"><ele>188.42857142857144</ele><time>2026-04-25T05:51:18Z</time></trkpt><trkpt lat="45.61079613250004" lon="9.27177862046175"><ele>188.57142857142856</ele><time>2026-04-25T05:51:19Z</time></trkpt><trkpt lat="45.61085785321881" lon="9.271832407291214"><ele>188.71428571428572</ele><time>2026-04-25T05:51:20Z</time></trkpt><trkpt lat="45.61091867840375" lon="9.271886764377166"><ele>188.85714285714286</ele><time>2026-04-25T05:51:21Z</time></trkpt><trkpt lat="45.61097699404393" lon="9.271942507689907"><ele>189.0</ele><time>2026-04-25T05:51:22Z</time></trkpt><trkpt lat="45.611036543211895" lon="9.27199710433787"><ele>189.0</ele><time>2026-04-25T05:51:23Z</time></trkpt><trkpt lat="45.611098916164615" lon="9.272045738566721"><ele>189.0</ele><time>2026-04-25T05:51:24Z</time></trkpt><trkpt lat="45.61116202654096" lon="9.272093365809178"><ele>189.0</ele><time>2026-04-25T05:51:25Z</time></trkpt><trkpt lat="45.61122369503764" lon="9.272138823212055"><ele>189.0</ele><time>2026-04-25T05:51:26Z</time></trkpt><trkpt lat="45.61128347055096" lon="9.27218413573908"><ele>189.0</ele><time>2026-04-25T05:51:27Z</time></trkpt><trkpt lat="45.611348987893315" lon="9.272220720383592"><ele>189.0</ele><time>2026-04-25T05:51:28Z</time></trkpt><trkpt lat="45.61141618828383" lon="9.272254449580052"><ele>189.0</ele><time>2026-04-25T05:51:29Z</time></trkpt><trkpt lat="45.611482317596156" lon="9.272285342485892"><ele>189.42857142857142</ele><time>2026-04-25T05:51:30Z</time></trkpt><trkpt lat="45.61154949984987" lon="9.27231523969264"><ele>189.85714285714286</ele><time>2026-04-25T05:51:31Z</time></trkpt><trkpt lat="45.611620066651234" lon="9.272337068324514"><ele>190.28571428571428</ele><time>2026-04-25T05:51:32Z</time></trkpt><trkpt lat="45.611687935369176" lon="9.272359499460931"><ele>190.71428571428572</ele><time>2026-04-25T05:51:33Z</time></trkpt><trkpt lat="45.611757565345876" lon="9.272377962058428"><ele>191.14285714285714</ele><time>2026-04-25T05:51:34Z</time></trkpt><trkpt lat="45.61183083617615" lon="9.272392622234548"><ele>191.57142857142856</ele><time>2026-04-25T05:51:35Z</time></trkpt><trkpt lat="45.611900902837846" lon="9.272404983765865"><ele>192.0</ele><time>2026-04-25T05:51:36Z</time></trkpt><trkpt lat="45.61197473574379" lon="9.272411925564278"><ele>191.7142857142857</ele><time>2026-04-25T05:51:37Z</time></trkpt><trkpt lat="45.61204686810596" lon="9.272423112143004"><ele>191.42857142857142</ele><time>2026-04-25T05:51:38Z</time></trkpt><trkpt lat="45.61212039435823" lon="9.272430349919132"><ele>191.14285714285714</ele><time>2026-04-25T05:51:39Z</time></trkpt><trkpt lat="45.6121937285687" lon="9.272441003793828"><ele>190.85714285714283</ele><time>2026-04-25T05:51:40Z</time></trkpt><trkpt lat="45.61226598175472" lon="9.272449482668787"><ele>190.57142857142858</ele><time>2026-04-25T05:51:41Z</time></trkpt><trkpt lat="45.61233888839997" lon="9.272453246903675"><ele>190.28571428571428</ele><time>2026-04-25T05:51:42Z</time></trkpt><trkpt lat="45.612409709701815" lon="9.272459351002478"><ele>190.0</ele><time>2026-04-25T05:51:42.999Z</time></trkpt><trkpt lat="45.61248124918789" lon="9.272472316953655"><ele>190.0</ele><time>2026-04-25T05:51:43.999Z</time></trkpt><trkpt lat="45.612555671122585" lon="9.272482154535627"><ele>190.0</ele><time>2026-04-25T05:51:44.999Z</time></trkpt><trkpt lat="45.612632028250175" lon="9.272488502221208"><ele>190.0</ele><time>2026-04-25T05:51:45.999Z</time></trkpt><trkpt lat="45.61270937214151" lon="9.272498080658776"><ele>190.0</ele><time>2026-04-25T05:51:46.999Z</time></trkpt><trkpt lat="45.61278358600519" lon="9.272509013094824"><ele>190.0</ele><time>2026-04-25T05:51:47.999Z</time></trkpt><trkpt lat="45.61285878903812" lon="9.272520657750603"><ele>190.0</ele><time>2026-04-25T05:51:48.999Z</time></trkpt><trkpt lat="45.61293458697809" lon="9.272533269385384"><ele>190.33333333333334</ele><time>2026-04-25T05:51:49.999Z</time></trkpt><trkpt lat="45.61301062701419" lon="9.272545911665768"><ele>190.66666666666669</ele><time>2026-04-25T05:51:50.999Z</time></trkpt><trkpt lat="45.6130885288357" lon="9.272557716484265"><ele>191.0</ele><time>2026-04-25T05:51:51.999Z</time></trkpt><trkpt lat="45.6131645122944" lon="9.272569978146723"><ele>191.33333333333334</ele><time>2026-04-25T05:51:52.999Z</time></trkpt><trkpt lat="45.61324114354398" lon="9.272584168082233"><ele>191.66666666666666</ele><time>2026-04-25T05:51:53.999Z</time></trkpt><trkpt lat="45.6133190105664" lon="9.272601376656132"><ele>192.0</ele><time>2026-04-25T05:51:54.999Z</time></trkpt><trkpt lat="45.61339346284683" lon="9.272621448544896"><ele>192.0</ele><time>2026-04-25T05:51:55.999Z</time></trkpt><trkpt lat="45.61347053726242" lon="9.272641828992928"><ele>192.0</ele><time>2026-04-25T05:51:56.999Z</time></trkpt><trkpt lat="45.61354841300962" lon="9.272667938189741"><ele>192.0</ele><time>2026-04-25T05:51:57.999Z</time></trkpt><trkpt lat="45.613624218335836" lon="9.272693253730715"><ele>192.0</ele><time>2026-04-25T05:51:58.999Z</time></trkpt><trkpt lat="45.61370210692568" lon="9.272714446396456"><ele>192.0</ele><time>2026-04-25T05:52:00Z</time></trkpt><trkpt lat="45.613778446387556" lon="9.272736219374767"><ele>192.0</ele><time>2026-04-25T05:52:01Z</time></trkpt><trkpt lat="45.61385436326463" lon="9.272761070692392"><ele>192.16666666666666</ele><time>2026-04-25T05:52:02Z</time></trkpt><trkpt lat="45.61392756046374" lon="9.272787481181098"><ele>192.33333333333331</ele><time>2026-04-25T05:52:03Z</time></trkpt><trkpt lat="45.61400165099059" lon="9.272803596496491"><ele>192.5</ele><time>2026-04-25T05:52:04Z</time></trkpt><trkpt lat="45.61407251299776" lon="9.272822036497619"><ele>192.66666666666666</ele><time>2026-04-25T05:52:05Z</time></trkpt><trkpt lat="45.61414495680129" lon="9.27284779565937"><ele>192.83333333333331</ele><time>2026-04-25T05:52:06Z</time></trkpt><trkpt lat="45.6142175772551" lon="9.272871023716382"><ele>193.0</ele><time>2026-04-25T05:52:07Z</time></trkpt><trkpt lat="45.614293559916604" lon="9.272897565752372"><ele>192.99999999999997</ele><time>2026-04-25T05:52:08Z</time></trkpt><trkpt lat="45.614369517200316" lon="9.272926792185688"><ele>193.0</ele><time>2026-04-25T05:52:09Z</time></trkpt><trkpt lat="45.614448480527436" lon="9.272953638113943"><ele>193.0</ele><time>2026-04-25T05:52:10Z</time></trkpt><trkpt lat="45.614526435594115" lon="9.27298053126644"><ele>193.0</ele><time>2026-04-25T05:52:11Z</time></trkpt><trkpt lat="45.614600950705615" lon="9.273011751802711"><ele>192.99999999999997</ele><time>2026-04-25T05:52:12Z</time></trkpt><trkpt lat="45.614675855319895" lon="9.27304023095789"><ele>193.0</ele><time>2026-04-25T05:52:13Z</time></trkpt><trkpt lat="45.61475015431373" lon="9.273065077571706"><ele>192.83333333333331</ele><time>2026-04-25T05:52:14Z</time></trkpt><trkpt lat="45.614827890300624" lon="9.273091301767142"><ele>192.66666666666666</ele><time>2026-04-25T05:52:15Z</time></trkpt><trkpt lat="45.61490544382161" lon="9.273120221629261"><ele>192.5</ele><time>2026-04-25T05:52:16Z</time></trkpt><trkpt lat="45.61498046952947" lon="9.273147553533327"><ele>192.33333333333331</ele><time>2026-04-25T05:52:17Z</time></trkpt><trkpt lat="45.615055133332945" lon="9.273176116013262"><ele>192.16666666666666</ele><time>2026-04-25T05:52:18Z</time></trkpt><trkpt lat="45.615132209728785" lon="9.273205722493984"><ele>192.0</ele><time>2026-04-25T05:52:19Z</time></trkpt><trkpt lat="45.61520964666566" lon="9.27323458266246"><ele>192.0</ele><time>2026-04-25T05:52:20Z</time></trkpt><trkpt lat="45.615289018494124" lon="9.273262152488645"><ele>192.0</ele><time>2026-04-25T05:52:21Z</time></trkpt><trkpt lat="45.61536553269886" lon="9.27329325522596"><ele>192.0</ele><time>2026-04-25T05:52:22Z</time></trkpt><trkpt lat="45.61544300811928" lon="9.273321381380939"><ele>192.0</ele><time>2026-04-25T05:52:23Z</time></trkpt><trkpt lat="45.61551991100062" lon="9.27335385797738"><ele>192.0</ele><time>2026-04-25T05:52:24Z</time></trkpt><trkpt lat="45.615598333332585" lon="9.273383769346012"><ele>192.0</ele><time>2026-04-25T05:52:25Z</time></trkpt><trkpt lat="45.61567822952152" lon="9.273408840170887"><ele>192.0</ele><time>2026-04-25T05:52:26Z</time></trkpt><trkpt lat="45.61575761438985" lon="9.273437387982735"><ele>192.0</ele><time>2026-04-25T05:52:27Z</time></trkpt><trkpt lat="45.61583598630761" lon="9.273466515246726"><ele>192.0</ele><time>2026-04-25T05:52:28Z</time></trkpt><trkpt lat="45.61591533838524" lon="9.273497302329783"><ele>192.0</ele><time>2026-04-25T05:52:29Z</time></trkpt><trkpt lat="45.615993460670246" lon="9.273532889095572"><ele>192.0</ele><time>2026-04-25T05:52:30Z</time></trkpt><trkpt lat="45.616070208356206" lon="9.273567111859432"><ele>192.0</ele><time>2026-04-25T05:52:31Z</time></trkpt><trkpt lat="45.61615016819362" lon="9.273599640781397"><ele>192.16666666666666</ele><time>2026-04-25T05:52:32Z</time></trkpt><trkpt lat="45.61622681986567" lon="9.273624884546326"><ele>192.33333333333331</ele><time>2026-04-25T05:52:33Z</time></trkpt><trkpt lat="45.61630615792537" lon="9.273652137840584"><ele>192.5</ele><time>2026-04-25T05:52:34Z</time></trkpt><trkpt lat="45.61638620816577" lon="9.273676386134197"><ele>192.66666666666666</ele><time>2026-04-25T05:52:35Z</time></trkpt><trkpt lat="45.616463734150805" lon="9.273704674286277"><ele>192.83333333333331</ele><time>2026-04-25T05:52:36Z</time></trkpt><trkpt lat="45.616542250310424" lon="9.273735272121622"><ele>193.0</ele><time>2026-04-25T05:52:37Z</time></trkpt><trkpt lat="45.61661939690461" lon="9.273765811370877"><ele>192.99999999999997</ele><time>2026-04-25T05:52:38Z</time></trkpt><trkpt lat="45.61669820122743" lon="9.273794011401922"><ele>193.0</ele><time>2026-04-25T05:52:39Z</time></trkpt><trkpt lat="45.61677645248738" lon="9.273821609672597"><ele>193.0</ele><time>2026-04-25T05:52:40Z</time></trkpt><trkpt lat="45.616854561379" lon="9.273851837066308"><ele>193.0</ele><time>2026-04-25T05:52:41Z</time></trkpt><trkpt lat="45.61693336303374" lon="9.273881243328118"><ele>192.99999999999997</ele><time>2026-04-25T05:52:42Z</time></trkpt><trkpt lat="45.61701406587671" lon="9.273909820090818"><ele>193.0</ele><time>2026-04-25T05:52:43Z</time></trkpt><trkpt lat="45.61708986459801" lon="9.273938572497897"><ele>193.33333333333331</ele><time>2026-04-25T05:52:44Z</time></trkpt><trkpt lat="45.61717205276657" lon="9.273966353872357"><ele>193.66666666666666</ele><time>2026-04-25T05:52:45Z</time></trkpt><trkpt lat="45.61725144444288" lon="9.27399798945154"><ele>194.0</ele><time>2026-04-25T05:52:46Z</time></trkpt><trkpt lat="45.617331958427" lon="9.274023532607371"><ele>194.33333333333331</ele><time>2026-04-25T05:52:47Z</time></trkpt><trkpt lat="45.617410554608256" lon="9.274055728521823"><ele>194.66666666666666</ele><time>2026-04-25T05:52:48Z</time></trkpt><trkpt lat="45.61749000279022" lon="9.274087280094673"><ele>195.0</ele><time>2026-04-25T05:52:49Z</time></trkpt><trkpt lat="45.61756925644798" lon="9.274119697349676"><ele>195.0</ele><time>2026-04-25T05:52:50Z</time></trkpt><trkpt lat="45.617647993281864" lon="9.274146028314647"><ele>195.0</ele><time>2026-04-25T05:52:51Z</time></trkpt><trkpt lat="45.617726636545754" lon="9.274175684958474"><ele>195.0</ele><time>2026-04-25T05:52:52Z</time></trkpt><trkpt lat="45.6178024859207" lon="9.274202399891537"><ele>195.0</ele><time>2026-04-25T05:52:53Z</time></trkpt><trkpt lat="45.61788233000795" lon="9.274234858403458"><ele>195.0</ele><time>2026-04-25T05:52:54Z</time></trkpt><trkpt lat="45.61796050452395" lon="9.274266450001766"><ele>195.0</ele><time>2026-04-25T05:52:55Z</time></trkpt><trkpt lat="45.618038530990326" lon="9.27429462357724"><ele>195.16666666666666</ele><time>2026-04-25T05:52:56Z</time></trkpt><trkpt lat="45.618116441522396" lon="9.274321352898534"><ele>195.33333333333331</ele><time>2026-04-25T05:52:57Z</time></trkpt><trkpt lat="45.618196343745915" lon="9.274350835237305"><ele>195.5</ele><time>2026-04-25T05:52:58Z</time></trkpt><trkpt lat="45.61827605351955" lon="9.274382564846263"><ele>195.66666666666666</ele><time>2026-04-25T05:52:59Z</time></trkpt><trkpt lat="45.61835367752681" lon="9.274414208317788"><ele>195.83333333333331</ele><time>2026-04-25T05:53:00Z</time></trkpt><trkpt lat="45.61843314101034" lon="9.274442766905805"><ele>196.0</ele><time>2026-04-25T05:53:01Z</time></trkpt><trkpt lat="45.61851132488522" lon="9.274469766566982"><ele>195.99999999999997</ele><time>2026-04-25T05:53:02Z</time></trkpt><trkpt lat="45.61859056230113" lon="9.274501864628167"><ele>196.0</ele><time>2026-04-25T05:53:03Z</time></trkpt><trkpt lat="45.61867019263034" lon="9.274527691632226"><ele>196.0</ele><time>2026-04-25T05:53:04Z</time></trkpt><trkpt lat="45.618747690697326" lon="9.274548111024895"><ele>196.0</ele><time>2026-04-25T05:53:05Z</time></trkpt><trkpt lat="45.61882805547464" lon="9.274583536539216"><ele>195.99999999999997</ele><time>2026-04-25T05:53:06Z</time></trkpt><trkpt lat="45.618907289507504" lon="9.274612740812831"><ele>196.0</ele><time>2026-04-25T05:53:07Z</time></trkpt><trkpt lat="45.618986549603854" lon="9.27464211143975"><ele>195.99999999999997</ele><time>2026-04-25T05:53:08Z</time></trkpt><trkpt lat="45.61906724596612" lon="9.274673959953178"><ele>196.0</ele><time>2026-04-25T05:53:09Z</time></trkpt><trkpt lat="45.6191457215578" lon="9.274707277309217"><ele>196.0</ele><time>2026-04-25T05:53:10Z</time></trkpt><trkpt lat="45.61922562386368" lon="9.274735919628005"><ele>196.0</ele><time>2026-04-25T05:53:11Z</time></trkpt><trkpt lat="45.619304670177065" lon="9.274764697082741"><ele>195.99999999999997</ele><time>2026-04-25T05:53:12Z</time></trkpt><trkpt lat="45.619381402143944" lon="9.274791881134522"><ele>196.0</ele><time>2026-04-25T05:53:13Z</time></trkpt><trkpt lat="45.61946071816684" lon="9.274818601940593"><ele>196.16666666666666</ele><time>2026-04-25T05:53:14Z</time></trkpt><trkpt lat="45.61953830349001" lon="9.27485037365436"><ele>196.33333333333331</ele><time>2026-04-25T05:53:15Z</time></trkpt><trkpt lat="45.6196166285032" lon="9.274876724292472"><ele>196.5</ele><time>2026-04-25T05:53:16Z</time></trkpt><trkpt lat="45.61969565433771" lon="9.274908579841117"><ele>196.66666666666669</ele><time>2026-04-25T05:53:17Z</time></trkpt><trkpt lat="45.61977376215279" lon="9.274937244799705"><ele>196.83333333333334</ele><time>2026-04-25T05:53:18Z</time></trkpt><trkpt lat="45.61985177183923" lon="9.27496911044863"><ele>197.0</ele><time>2026-04-25T05:53:19Z</time></trkpt><trkpt lat="45.619928211496436" lon="9.274998691322903"><ele>197.00000000000003</ele><time>2026-04-25T05:53:20Z</time></trkpt><trkpt lat="45.62000744723349" lon="9.275031235394863"><ele>197.0</ele><time>2026-04-25T05:53:21Z</time></trkpt><trkpt lat="45.620085067616856" lon="9.275060413426768"><ele>197.0</ele><time>2026-04-25T05:53:22Z</time></trkpt><trkpt lat="45.620162266729295" lon="9.27508957629012"><ele>197.0</ele><time>2026-04-25T05:53:23Z</time></trkpt><trkpt lat="45.62024013290952" lon="9.275118497040413"><ele>197.00000000000003</ele><time>2026-04-25T05:53:24Z</time></trkpt><trkpt lat="45.62032052719452" lon="9.275149507990683"><ele>197.0</ele><time>2026-04-25T05:53:25Z</time></trkpt><trkpt lat="45.6203996051757" lon="9.275192627059326"><ele>197.33333333333334</ele><time>2026-04-25T05:53:26Z</time></trkpt><trkpt lat="45.62047645051525" lon="9.275228813772008"><ele>197.66666666666669</ele><time>2026-04-25T05:53:27Z</time></trkpt><trkpt lat="45.620554804860866" lon="9.275262713715184"><ele>198.0</ele><time>2026-04-25T05:53:28Z</time></trkpt><trkpt lat="45.620630815047086" lon="9.275288095919432"><ele>198.33333333333331</ele><time>2026-04-25T05:53:29Z</time></trkpt><trkpt lat="45.62071402007347" lon="9.27531877780185"><ele>198.66666666666666</ele><time>2026-04-25T05:53:30Z</time></trkpt><trkpt lat="45.62079382270543" lon="9.275346983445194"><ele>199.0</ele><time>2026-04-25T05:53:31Z</time></trkpt><trkpt lat="45.62087414891883" lon="9.275379566385505"><ele>198.99999999999997</ele><time>2026-04-25T05:53:32Z</time></trkpt><trkpt lat="45.62095310391525" lon="9.275406294186688"><ele>199.0</ele><time>2026-04-25T05:53:33Z</time></trkpt><trkpt lat="45.621031432053655" lon="9.275431912477751"><ele>199.0</ele><time>2026-04-25T05:53:34Z</time></trkpt><trkpt lat="45.62110583059947" lon="9.275461616412615"><ele>199.0</ele><time>2026-04-25T05:53:35Z</time></trkpt><trkpt lat="45.62117995556284" lon="9.275490796086645"><ele>198.99999999999997</ele><time>2026-04-25T05:53:36Z</time></trkpt><trkpt lat="45.62125333061529" lon="9.275521254400916"><ele>199.0</ele><time>2026-04-25T05:53:37Z</time></trkpt><trkpt lat="45.62133208075338" lon="9.275552089593885"><ele>198.99999999999997</ele><time>2026-04-25T05:53:38Z</time></trkpt><trkpt lat="45.62140924950166" lon="9.275581961435332"><ele>199.0</ele><time>2026-04-25T05:53:39Z</time></trkpt><trkpt lat="45.62148755247961" lon="9.2756096733367"><ele>199.0</ele><time>2026-04-25T05:53:40Z</time></trkpt><trkpt lat="45.62156776146413" lon="9.275639567444907"><ele>199.0</ele><time>2026-04-25T05:53:41Z</time></trkpt><trkpt lat="45.62164091068444" lon="9.275668364677205"><ele>198.99999999999997</ele><time>2026-04-25T05:53:42Z</time></trkpt><trkpt lat="45.621715927936194" lon="9.27569218160046"><ele>199.0</ele><time>2026-04-25T05:53:43Z</time></trkpt><trkpt lat="45.6217886712823" lon="9.275721144423224"><ele>199.33333333333331</ele><time>2026-04-25T05:53:44Z</time></trkpt><trkpt lat="45.62185860870776" lon="9.275751148675935"><ele>199.66666666666666</ele><time>2026-04-25T05:53:45Z</time></trkpt><trkpt lat="45.6219342878403" lon="9.27578069139155"><ele>200.0</ele><time>2026-04-25T05:53:46Z</time></trkpt><trkpt lat="45.62200903485103" lon="9.275804198253402"><ele>200.33333333333331</ele><time>2026-04-25T05:53:47Z</time></trkpt><trkpt lat="45.62208059334932" lon="9.275826454161484"><ele>200.66666666666666</ele><time>2026-04-25T05:53:48Z</time></trkpt><trkpt lat="45.62215604554033" lon="9.275857994992217"><ele>201.0</ele><time>2026-04-25T05:53:49Z</time></trkpt><trkpt lat="45.62222754686244" lon="9.27588723036945"><ele>200.28571428571428</ele><time>2026-04-25T05:53:50Z</time></trkpt><trkpt lat="45.62229679446704" lon="9.275913339375226"><ele>199.57142857142858</ele><time>2026-04-25T05:53:51Z</time></trkpt><trkpt lat="45.62236061320979" lon="9.275937096813289"><ele>198.85714285714286</ele><time>2026-04-25T05:53:51.999Z</time></trkpt><trkpt lat="45.62242432138277" lon="9.275963290524658"><ele>198.14285714285714</ele><time>2026-04-25T05:53:52.999Z</time></trkpt><trkpt lat="45.62248764397045" lon="9.275986624710589"><ele>197.42857142857144</ele><time>2026-04-25T05:53:53.999Z</time></trkpt><trkpt lat="45.62254923090177" lon="9.276017539760376"><ele>196.71428571428572</ele><time>2026-04-25T05:53:54.999Z</time></trkpt><trkpt lat="45.62261221026898" lon="9.276056600220025"><ele>196.0</ele><time>2026-04-25T05:53:55.999Z</time></trkpt><trkpt lat="45.622670817193175" lon="9.276101958322672"><ele>196.0</ele><time>2026-04-25T05:53:56.999Z</time></trkpt><trkpt lat="45.62272407999579" lon="9.276155251108051"><ele>196.0</ele><time>2026-04-25T05:53:57.999Z</time></trkpt><trkpt lat="45.622770233146326" lon="9.276220089571718"><ele>196.0</ele><time>2026-04-25T05:53:58.999Z</time></trkpt><trkpt lat="45.62282241176957" lon="9.276275331130512"><ele>196.0</ele><time>2026-04-25T05:53:59.999Z</time></trkpt><trkpt lat="45.62288837858715" lon="9.276286568172207"><ele>196.0</ele><time>2026-04-25T05:54:00.999Z</time></trkpt><trkpt lat="45.62295548826417" lon="9.276268577360689"><ele>196.0</ele><time>2026-04-25T05:54:01.999Z</time></trkpt><trkpt lat="45.62301891274002" lon="9.27622697655702"><ele>196.0</ele><time>2026-04-25T05:54:02.999Z</time></trkpt><trkpt lat="45.62308848091123" lon="9.276206165989363"><ele>196.0</ele><time>2026-04-25T05:54:03.999Z</time></trkpt><trkpt lat="45.62316021574536" lon="9.276216121493045"><ele>196.0</ele><time>2026-04-25T05:54:04.999Z</time></trkpt><trkpt lat="45.6232313467159" lon="9.276245042806174"><ele>196.0</ele><time>2026-04-25T05:54:06.001Z</time></trkpt><trkpt lat="45.62330420043253" lon="9.276279147268971"><ele>196.0</ele><time>2026-04-25T05:54:07.001Z</time></trkpt><trkpt lat="45.62337649220118" lon="9.276304299779785"><ele>196.0</ele><time>2026-04-25T05:54:08.001Z</time></trkpt><trkpt lat="45.62344377835051" lon="9.27632876791093"><ele>196.0</ele><time>2026-04-25T05:54:09.001Z</time></trkpt><trkpt lat="45.623517197468246" lon="9.276346494907788"><ele>196.0</ele><time>2026-04-25T05:54:10.001Z</time></trkpt><trkpt lat="45.623588528321854" lon="9.276369341313544"><ele>196.28571428571428</ele><time>2026-04-25T05:54:11.001Z</time></trkpt><trkpt lat="45.623661945607694" lon="9.276394543521747"><ele>196.57142857142856</ele><time>2026-04-25T05:54:12.001Z</time></trkpt><trkpt lat="45.623737346992044" lon="9.276408765944993"><ele>196.85714285714286</ele><time>2026-04-25T05:54:13.001Z</time></trkpt><trkpt lat="45.62381071529228" lon="9.276418281400376"><ele>197.14285714285714</ele><time>2026-04-25T05:54:14.001Z</time></trkpt><trkpt lat="45.62388275438755" lon="9.276424129757865"><ele>197.42857142857142</ele><time>2026-04-25T05:54:15.001Z</time></trkpt><trkpt lat="45.62395301348286" lon="9.276422289694228"><ele>197.71428571428572</ele><time>2026-04-25T05:54:16.001Z</time></trkpt><trkpt lat="45.62401951269003" lon="9.276414545552345"><ele>198.0</ele><time>2026-04-25T05:54:17.001Z</time></trkpt><trkpt lat="45.62408852875685" lon="9.276404137181592"><ele>198.0</ele><time>2026-04-25T05:54:18.001Z</time></trkpt><trkpt lat="45.62415656146025" lon="9.2763890202381"><ele>198.0</ele><time>2026-04-25T05:54:19.001Z</time></trkpt><trkpt lat="45.62422557607199" lon="9.276372133194167"><ele>198.0</ele><time>2026-04-25T05:54:20.001Z</time></trkpt><trkpt lat="45.62429243628896" lon="9.276344709426795"><ele>198.0</ele><time>2026-04-25T05:54:21.001Z</time></trkpt><trkpt lat="45.624360263032365" lon="9.276315942584525"><ele>198.0</ele><time>2026-04-25T05:54:22.001Z</time></trkpt><trkpt lat="45.62442765885823" lon="9.276286508208349"><ele>198.0</ele><time>2026-04-25T05:54:23.001Z</time></trkpt><trkpt lat="45.624494679565274" lon="9.276251671963465"><ele>198.0</ele><time>2026-04-25T05:54:24Z</time></trkpt><trkpt lat="45.62456341257624" lon="9.27622009702443"><ele>198.0</ele><time>2026-04-25T05:54:25Z</time></trkpt><trkpt lat="45.62463387271364" lon="9.276192141241095"><ele>198.0</ele><time>2026-04-25T05:54:26Z</time></trkpt><trkpt lat="45.62469836473637" lon="9.27615543529267"><ele>198.0</ele><time>2026-04-25T05:54:27Z</time></trkpt><trkpt lat="45.62476775206306" lon="9.276130130129944"><ele>198.0</ele><time>2026-04-25T05:54:28Z</time></trkpt><trkpt lat="45.624836878885894" lon="9.276100148607398"><ele>198.0</ele><time>2026-04-25T05:54:29Z</time></trkpt><trkpt lat="45.62490609773371" lon="9.276071976192592"><ele>198.0</ele><time>2026-04-25T05:54:30Z</time></trkpt><trkpt lat="45.624973335944496" lon="9.276043128439602"><ele>198.0</ele><time>2026-04-25T05:54:31Z</time></trkpt><trkpt lat="45.625036157142" lon="9.27601284131271"><ele>198.0</ele><time>2026-04-25T05:54:32Z</time></trkpt><trkpt lat="45.625102214489715" lon="9.275982337782754"><ele>198.0</ele><time>2026-04-25T05:54:33Z</time></trkpt><trkpt lat="45.6251684191998" lon="9.275952094846113"><ele>198.0</ele><time>2026-04-25T05:54:34Z</time></trkpt><trkpt lat="45.62523223726919" lon="9.27592399636339"><ele>198.0</ele><time>2026-04-25T05:54:35Z</time></trkpt><trkpt lat="45.625353521224234" lon="9.275874062088933"><ele>198.0</ele><time>2026-04-25T05:54:37Z</time></trkpt><trkpt lat="45.6254154037645" lon="9.27584788270347"><ele>198.0</ele><time>2026-04-25T05:54:38Z</time></trkpt><trkpt lat="45.62548162145522" lon="9.275824567919914"><ele>198.2</ele><time>2026-04-25T05:54:39Z</time></trkpt><trkpt lat="45.62554312874328" lon="9.275802071940937"><ele>198.4</ele><time>2026-04-25T05:54:40Z</time></trkpt><trkpt lat="45.62566391115512" lon="9.275772777592627"><ele>198.6</ele><time>2026-04-25T05:54:42Z</time></trkpt><trkpt lat="45.6257789551482" lon="9.27577719085638"><ele>198.79999999999998</ele><time>2026-04-25T05:54:44Z</time></trkpt><trkpt lat="45.625881245666434" lon="9.275685660924026"><ele>199.0</ele><time>2026-04-25T05:54:46Z</time></trkpt><trkpt lat="45.62593676189368" lon="9.2756412680017"><ele>198.99999999999997</ele><time>2026-04-25T05:54:47Z</time></trkpt><trkpt lat="45.625997143979454" lon="9.275602527715431"><ele>199.0</ele><time>2026-04-25T05:54:48Z</time></trkpt><trkpt lat="45.62611444590688" lon="9.275544335485407"><ele>199.0</ele><time>2026-04-25T05:54:50Z</time></trkpt><trkpt lat="45.62617458563703" lon="9.275514533949703"><ele>199.0</ele><time>2026-04-25T05:54:51Z</time></trkpt><trkpt lat="45.6262350907963" lon="9.275484886719227"><ele>198.99999999999997</ele><time>2026-04-25T05:54:52Z</time></trkpt><trkpt lat="45.62635170290796" lon="9.275425020681375"><ele>199.0</ele><time>2026-04-25T05:54:54Z</time></trkpt><trkpt lat="45.62641284706742" lon="9.275397494381545"><ele>198.79999999999998</ele><time>2026-04-25T05:54:55Z</time></trkpt><trkpt lat="45.62647314159693" lon="9.275365560108474"><ele>198.6</ele><time>2026-04-25T05:54:56Z</time></trkpt><trkpt lat="45.62658945957415" lon="9.275315811201748"><ele>198.4</ele><time>2026-04-25T05:54:58Z</time></trkpt><trkpt lat="45.62665068925192" lon="9.275289741466565"><ele>198.2</ele><time>2026-04-25T05:54:59Z</time></trkpt><trkpt lat="45.626754579482906" lon="9.275243153520723"><ele>198.0</ele><time>2026-04-25T05:55:01Z</time></trkpt><trkpt lat="45.626866454667415" lon="9.27519723063537"><ele>198.5</ele><time>2026-04-25T05:55:03Z</time></trkpt><trkpt lat="45.62698208001883" lon="9.275147829583512"><ele>199.0</ele><time>2026-04-25T05:55:05Z</time></trkpt><trkpt lat="45.62704445407544" lon="9.275121579271218"><ele>199.5</ele><time>2026-04-25T05:55:06Z</time></trkpt><trkpt lat="45.62710879459693" lon="9.275100224579804"><ele>200.0</ele><time>2026-04-25T05:55:07Z</time></trkpt><trkpt lat="45.62722738643388" lon="9.275058342793743"><ele>200.5</ele><time>2026-04-25T05:55:09Z</time></trkpt><trkpt lat="45.62728797633123" lon="9.275033764359037"><ele>201.0</ele><time>2026-04-25T05:55:10Z</time></trkpt><trkpt lat="45.6273485459831" lon="9.275007559221313"><ele>201.0</ele><time>2026-04-25T05:55:11Z</time></trkpt><trkpt lat="45.62745946274265" lon="9.274959343452746"><ele>201.0</ele><time>2026-04-25T05:55:13Z</time></trkpt><trkpt lat="45.62757089613919" lon="9.274918319502431"><ele>201.0</ele><time>2026-04-25T05:55:15Z</time></trkpt><trkpt lat="45.627685600850434" lon="9.274882265686452"><ele>201.0</ele><time>2026-04-25T05:55:17Z</time></trkpt><trkpt lat="45.62780430370416" lon="9.274847125296436"><ele>201.0</ele><time>2026-04-25T05:55:19Z</time></trkpt><trkpt lat="45.62792497334032" lon="9.274823601534102"><ele>201.0</ele><time>2026-04-25T05:55:21Z</time></trkpt><trkpt lat="45.62804513091623" lon="9.274780787782644"><ele>201.0</ele><time>2026-04-25T05:55:23Z</time></trkpt><trkpt lat="45.62816403358177" lon="9.274743117907553"><ele>201.0</ele><time>2026-04-25T05:55:25Z</time></trkpt><trkpt lat="45.6282275376043" lon="9.274727940362922"><ele>201.0</ele><time>2026-04-25T05:55:26Z</time></trkpt><trkpt lat="45.62828996757237" lon="9.274706160665739"><ele>201.33333333333334</ele><time>2026-04-25T05:55:27Z</time></trkpt><trkpt lat="45.62835468084921" lon="9.274690090660686"><ele>201.66666666666669</ele><time>2026-04-25T05:55:28Z</time></trkpt><trkpt lat="45.62847720171382" lon="9.274663556139526"><ele>202.0</ele><time>2026-04-25T05:55:30Z</time></trkpt><trkpt lat="45.628540142420015" lon="9.274645681629728"><ele>202.33333333333334</ele><time>2026-04-25T05:55:31Z</time></trkpt><trkpt lat="45.62860526354843" lon="9.274624520713866"><ele>202.66666666666669</ele><time>2026-04-25T05:55:32Z</time></trkpt><trkpt lat="45.628726371743454" lon="9.274595637292148"><ele>203.0</ele><time>2026-04-25T05:55:34Z</time></trkpt><trkpt lat="45.62878940396112" lon="9.274579767603203"><ele>203.0</ele><time>2026-04-25T05:55:35Z</time></trkpt><trkpt lat="45.62885395644839" lon="9.274561097118434"><ele>203.0</ele><time>2026-04-25T05:55:36Z</time></trkpt><trkpt lat="45.628917319195665" lon="9.274538022141652"><ele>203.0</ele><time>2026-04-25T05:55:37Z</time></trkpt><trkpt lat="45.628981571989165" lon="9.274520898151005"><ele>203.0</ele><time>2026-04-25T05:55:38Z</time></trkpt><trkpt lat="45.62909970746395" lon="9.27448362135059"><ele>203.0</ele><time>2026-04-25T05:55:40Z</time></trkpt><trkpt lat="45.62916147844365" lon="9.274463087844863"><ele>203.0</ele><time>2026-04-25T05:55:41Z</time></trkpt><trkpt lat="45.62922430744243" lon="9.274441540896888"><ele>203.0</ele><time>2026-04-25T05:55:42Z</time></trkpt><trkpt lat="45.62929310406497" lon="9.274430013535955"><ele>203.0</ele><time>2026-04-25T05:55:43Z</time></trkpt><trkpt lat="45.62935964185825" lon="9.274413149749048"><ele>203.0</ele><time>2026-04-25T05:55:44Z</time></trkpt><trkpt lat="45.62942158282949" lon="9.274396160411934"><ele>203.0</ele><time>2026-04-25T05:55:45Z</time></trkpt><trkpt lat="45.62948668138654" lon="9.274374430859487"><ele>203.0</ele><time>2026-04-25T05:55:46Z</time></trkpt><trkpt lat="45.62955082074004" lon="9.274354595383086"><ele>203.0</ele><time>2026-04-25T05:55:47Z</time></trkpt><trkpt lat="45.62961543492714" lon="9.274338783323776"><ele>203.0</ele><time>2026-04-25T05:55:48Z</time></trkpt><trkpt lat="45.62968124423828" lon="9.274322289555665"><ele>203.0</ele><time>2026-04-25T05:55:49Z</time></trkpt><trkpt lat="45.62974681156938" lon="9.274309602620892"><ele>203.0</ele><time>2026-04-25T05:55:50Z</time></trkpt><trkpt lat="45.629810481346006" lon="9.27429120880936"><ele>203.0</ele><time>2026-04-25T05:55:51Z</time></trkpt><trkpt lat="45.62987286591511" lon="9.274270269332899"><ele>203.0</ele><time>2026-04-25T05:55:52Z</time></trkpt><trkpt lat="45.62993862061742" lon="9.274247376026835"><ele>203.0</ele><time>2026-04-25T05:55:53Z</time></trkpt><trkpt lat="45.6300041908088" lon="9.274229181930693"><ele>203.0</ele><time>2026-04-25T05:55:54Z</time></trkpt><trkpt lat="45.63006983496761" lon="9.274211382654574"><ele>203.0</ele><time>2026-04-25T05:55:55Z</time></trkpt><trkpt lat="45.63013323170118" lon="9.274197661027868"><ele>203.0</ele><time>2026-04-25T05:55:56Z</time></trkpt><trkpt lat="45.630246893700594" lon="9.274166963237162"><ele>203.4</ele><time>2026-04-25T05:55:58Z</time></trkpt><trkpt lat="45.630339366254205" lon="9.274137858866196"><ele>203.8</ele><time>2026-04-25T05:56:00Z</time></trkpt><trkpt lat="45.63042907500443" lon="9.274117195505974"><ele>204.2</ele><time>2026-04-25T05:56:02Z</time></trkpt><trkpt lat="45.63051424822974" lon="9.274083437682782"><ele>204.6</ele><time>2026-04-25T05:56:04Z</time></trkpt><trkpt lat="45.63061768635967" lon="9.274049084750317"><ele>205.0</ele><time>2026-04-25T05:56:05.999Z</time></trkpt><trkpt lat="45.6307212505558" lon="9.27400722206118"><ele>205.0</ele><time>2026-04-25T05:56:07.999Z</time></trkpt><trkpt lat="45.630833884002726" lon="9.27396808477776"><ele>205.0</ele><time>2026-04-25T05:56:09.999Z</time></trkpt><trkpt lat="45.630948612980724" lon="9.273921511030668"><ele>205.0</ele><time>2026-04-25T05:56:12.001Z</time></trkpt><trkpt lat="45.63106431485593" lon="9.273872375922231"><ele>205.0</ele><time>2026-04-25T05:56:14.001Z</time></trkpt><trkpt lat="45.63118344677852" lon="9.273824830075798"><ele>204.99999999999997</ele><time>2026-04-25T05:56:16.001Z</time></trkpt><trkpt lat="45.631247810018195" lon="9.273803135817705"><ele>205.0</ele><time>2026-04-25T05:56:17.001Z</time></trkpt><trkpt lat="45.63131298850332" lon="9.273787051292055"><ele>205.0</ele><time>2026-04-25T05:56:18.001Z</time></trkpt><trkpt lat="45.631377373000845" lon="9.273768243940554"><ele>205.0</ele><time>2026-04-25T05:56:19.001Z</time></trkpt><trkpt lat="45.63144095010747" lon="9.273743915080338"><ele>204.99999999999997</ele><time>2026-04-25T05:56:20.001Z</time></trkpt><trkpt lat="45.63155906916072" lon="9.273702489470338"><ele>205.0</ele><time>2026-04-25T05:56:22.001Z</time></trkpt><trkpt lat="45.631624455112885" lon="9.273704229267068"><ele>205.0</ele><time>2026-04-25T05:56:23.001Z</time></trkpt><trkpt lat="45.63168859375806" lon="9.273685002096562"><ele>205.0</ele><time>2026-04-25T05:56:24.001Z</time></trkpt><trkpt lat="45.63174928908391" lon="9.273644157554953"><ele>205.0</ele><time>2026-04-25T05:56:25.001Z</time></trkpt><trkpt lat="45.63187007545959" lon="9.273610778963166"><ele>205.0</ele><time>2026-04-25T05:56:27.001Z</time></trkpt><trkpt lat="45.63193371704121" lon="9.273589471484861"><ele>205.0</ele><time>2026-04-25T05:56:28.001Z</time></trkpt><trkpt lat="45.631995865569536" lon="9.273571023383328"><ele>205.0</ele><time>2026-04-25T05:56:29.001Z</time></trkpt><trkpt lat="45.632058499932576" lon="9.273552737916877"><ele>205.0</ele><time>2026-04-25T05:56:30.001Z</time></trkpt><trkpt lat="45.63218497494938" lon="9.273534470297117"><ele>205.0</ele><time>2026-04-25T05:56:32Z</time></trkpt><trkpt lat="45.632297981884136" lon="9.27347195447164"><ele>205.0</ele><time>2026-04-25T05:56:34Z</time></trkpt><trkpt lat="45.632419108000626" lon="9.273434168259808"><ele>205.0</ele><time>2026-04-25T05:56:36Z</time></trkpt><trkpt lat="45.63248484425929" lon="9.273409024359601"><ele>205.0</ele><time>2026-04-25T05:56:37Z</time></trkpt><trkpt lat="45.63254849692025" lon="9.273382017482767"><ele>205.0</ele><time>2026-04-25T05:56:38Z</time></trkpt><trkpt lat="45.63266255388689" lon="9.27330074133907"><ele>204.99999999999997</ele><time>2026-04-25T05:56:40Z</time></trkpt><trkpt lat="45.63272413531952" lon="9.273258869182612"><ele>205.0</ele><time>2026-04-25T05:56:41Z</time></trkpt><trkpt lat="45.63278727804366" lon="9.273225013793757"><ele>205.0</ele><time>2026-04-25T05:56:42Z</time></trkpt><trkpt lat="45.63284858150942" lon="9.273190110084682"><ele>205.0</ele><time>2026-04-25T05:56:43Z</time></trkpt><trkpt lat="45.632964460942084" lon="9.273119428608148"><ele>204.99999999999997</ele><time>2026-04-25T05:56:45Z</time></trkpt><trkpt lat="45.63302638728852" lon="9.27308229213743"><ele>205.0</ele><time>2026-04-25T05:56:46Z</time></trkpt><trkpt lat="45.63308529892444" lon="9.27304533626188"><ele>205.14285714285714</ele><time>2026-04-25T05:56:47Z</time></trkpt><trkpt lat="45.63314560486285" lon="9.273009040347574"><ele>205.28571428571428</ele><time>2026-04-25T05:56:48Z</time></trkpt><trkpt lat="45.63320507424439" lon="9.27297289647002"><ele>205.42857142857142</ele><time>2026-04-25T05:56:49Z</time></trkpt><trkpt lat="45.63326678854467" lon="9.272935715126094"><ele>205.57142857142856</ele><time>2026-04-25T05:56:50Z</time></trkpt><trkpt lat="45.63332987349339" lon="9.272902390983631"><ele>205.71428571428572</ele><time>2026-04-25T05:56:51Z</time></trkpt><trkpt lat="45.63339053648564" lon="9.272868211227154"><ele>205.85714285714283</ele><time>2026-04-25T05:56:52Z</time></trkpt><trkpt lat="45.63345082859116" lon="9.272829836776314"><ele>206.0</ele><time>2026-04-25T05:56:53Z</time></trkpt><trkpt lat="45.63351042415203" lon="9.272791825837665"><ele>205.99999999999997</ele><time>2026-04-25T05:56:54Z</time></trkpt><trkpt lat="45.633569792311086" lon="9.272750944626624"><ele>206.0</ele><time>2026-04-25T05:56:55Z</time></trkpt><trkpt lat="45.63363311224797" lon="9.272713823020934"><ele>206.0</ele><time>2026-04-25T05:56:56Z</time></trkpt><trkpt lat="45.63369276561822" lon="9.272678234534695"><ele>206.0</ele><time>2026-04-25T05:56:57Z</time></trkpt><trkpt lat="45.63375492883182" lon="9.27264050120214"><ele>206.0</ele><time>2026-04-25T05:56:58Z</time></trkpt><trkpt lat="45.63381771349164" lon="9.272600986619095"><ele>205.99999999999997</ele><time>2026-04-25T05:56:59Z</time></trkpt><trkpt lat="45.63387830188317" lon="9.272556954152849"><ele>206.0</ele><time>2026-04-25T05:57:00Z</time></trkpt><trkpt lat="45.63393714168294" lon="9.272517847936099"><ele>206.00000000000003</ele><time>2026-04-25T05:57:01Z</time></trkpt><trkpt lat="45.63404961657057" lon="9.272435672454352"><ele>206.0</ele><time>2026-04-25T05:57:03Z</time></trkpt><trkpt lat="45.63410714913265" lon="9.272390994264814"><ele>206.0</ele><time>2026-04-25T05:57:04Z</time></trkpt><trkpt lat="45.63416733877206" lon="9.272344751692987"><ele>206.0</ele><time>2026-04-25T05:57:05Z</time></trkpt><trkpt lat="45.63422620361132" lon="9.272300049821897"><ele>206.00000000000003</ele><time>2026-04-25T05:57:06Z</time></trkpt><trkpt lat="45.63428658074551" lon="9.272262548650115"><ele>206.0</ele><time>2026-04-25T05:57:07Z</time></trkpt><trkpt lat="45.63439882730314" lon="9.272189904145424"><ele>206.4</ele><time>2026-04-25T05:57:09Z</time></trkpt><trkpt lat="45.63450168173353" lon="9.272119893135407"><ele>206.8</ele><time>2026-04-25T05:57:10.999Z</time></trkpt><trkpt lat="45.63462260499097" lon="9.272084154401117"><ele>207.20000000000002</ele><time>2026-04-25T05:57:12.999Z</time></trkpt><trkpt lat="45.63473014187101" lon="9.272013618137457"><ele>207.60000000000002</ele><time>2026-04-25T05:57:14.999Z</time></trkpt><trkpt lat="45.63476474205702" lon="9.271935107038002"><ele>208.0</ele><time>2026-04-25T05:57:15.999Z</time></trkpt><trkpt lat="45.63479842814603" lon="9.271852153609805"><ele>208.0</ele><time>2026-04-25T05:57:16.999Z</time></trkpt><trkpt lat="45.63484179500703" lon="9.271775617102426"><ele>208.0</ele><time>2026-04-25T05:57:17.999Z</time></trkpt><trkpt lat="45.6348939898885" lon="9.271704451387118"><ele>208.0</ele><time>2026-04-25T05:57:18.999Z</time></trkpt><trkpt lat="45.634946346104364" lon="9.271638845230102"><ele>208.0</ele><time>2026-04-25T05:57:19.999Z</time></trkpt><trkpt lat="45.63499826193637" lon="9.271577247490029"><ele>208.0</ele><time>2026-04-25T05:57:20.999Z</time></trkpt><trkpt lat="45.635051094825045" lon="9.271510768670732"><ele>208.0</ele><time>2026-04-25T05:57:21.999Z</time></trkpt><trkpt lat="45.6351040682624" lon="9.271442799341909"><ele>208.0</ele><time>2026-04-25T05:57:22.999Z</time></trkpt><trkpt lat="45.63515803578822" lon="9.271371697819959"><ele>208.14285714285714</ele><time>2026-04-25T05:57:23.999Z</time></trkpt><trkpt lat="45.635212820667064" lon="9.271299181618257"><ele>208.2857142857143</ele><time>2026-04-25T05:57:24.999Z</time></trkpt><trkpt lat="45.635266681852215" lon="9.271226062640224"><ele>208.42857142857144</ele><time>2026-04-25T05:57:25.999Z</time></trkpt><trkpt lat="45.63531797409797" lon="9.271148035794631"><ele>208.57142857142856</ele><time>2026-04-25T05:57:26.999Z</time></trkpt><trkpt lat="45.6353685975022" lon="9.27106654485923"><ele>208.71428571428572</ele><time>2026-04-25T05:57:27.999Z</time></trkpt><trkpt lat="45.63541774021114" lon="9.270984370328708"><ele>208.85714285714286</ele><time>2026-04-25T05:57:28.999Z</time></trkpt><trkpt lat="45.63546576844456" lon="9.270904316792274"><ele>209.0</ele><time>2026-04-25T05:57:29.999Z</time></trkpt><trkpt lat="45.63551466843339" lon="9.270826810169352"><ele>209.28571428571428</ele><time>2026-04-25T05:57:30.999Z</time></trkpt><trkpt lat="45.63556097653911" lon="9.270744760925938"><ele>209.57142857142856</ele><time>2026-04-25T05:57:31.999Z</time></trkpt><trkpt lat="45.63560707244263" lon="9.270659423912972"><ele>209.85714285714286</ele><time>2026-04-25T05:57:32.999Z</time></trkpt><trkpt lat="45.63565203981647" lon="9.270577189187609"><ele>210.14285714285714</ele><time>2026-04-25T05:57:33.999Z</time></trkpt><trkpt lat="45.6356988114663" lon="9.270498117270302"><ele>210.42857142857144</ele><time>2026-04-25T05:57:34.999Z</time></trkpt><trkpt lat="45.63574613188562" lon="9.27041807792987"><ele>210.71428571428572</ele><time>2026-04-25T05:57:35.999Z</time></trkpt><trkpt lat="45.63579238516868" lon="9.270339560820382"><ele>211.0</ele><time>2026-04-25T05:57:36.999Z</time></trkpt><trkpt lat="45.635837466630655" lon="9.27025944617577"><ele>211.0</ele><time>2026-04-25T05:57:37.999Z</time></trkpt><trkpt lat="45.63588459844918" lon="9.27017780609985"><ele>211.0</ele><time>2026-04-25T05:57:38.999Z</time></trkpt><trkpt lat="45.635932756992815" lon="9.270096406769705"><ele>211.0</ele><time>2026-04-25T05:57:39.999Z</time></trkpt><trkpt lat="45.635978209194754" lon="9.270016515328397"><ele>211.0</ele><time>2026-04-25T05:57:40.999Z</time></trkpt><trkpt lat="45.636024218418804" lon="9.269936828737993"><ele>211.0</ele><time>2026-04-25T05:57:41.999Z</time></trkpt><trkpt lat="45.636069379149134" lon="9.269857138243772"><ele>211.0</ele><time>2026-04-25T05:57:42.999Z</time></trkpt><trkpt lat="45.63611430658572" lon="9.269778192330513"><ele>211.0</ele><time>2026-04-25T05:57:43.999Z</time></trkpt><trkpt lat="45.63616080241605" lon="9.269698333125975"><ele>211.0</ele><time>2026-04-25T05:57:44.999Z</time></trkpt><trkpt lat="45.63620617151587" lon="9.269617991153135"><ele>211.0</ele><time>2026-04-25T05:57:45.999Z</time></trkpt><trkpt lat="45.63624952472923" lon="9.269541343982503"><ele>211.0</ele><time>2026-04-25T05:57:46.999Z</time></trkpt><trkpt lat="45.63629081110245" lon="9.269462556466795"><ele>211.0</ele><time>2026-04-25T05:57:47.999Z</time></trkpt><trkpt lat="45.63633435608876" lon="9.269385480446378"><ele>211.0</ele><time>2026-04-25T05:57:48.999Z</time></trkpt><trkpt lat="45.63638185731631" lon="9.269307276636845"><ele>211.0</ele><time>2026-04-25T05:57:49.999Z</time></trkpt><trkpt lat="45.6364298695323" lon="9.269235220451895"><ele>211.0</ele><time>2026-04-25T05:57:50.999Z</time></trkpt><trkpt lat="45.63648036992969" lon="9.269171511100181"><ele>211.0</ele><time>2026-04-25T05:57:51.999Z</time></trkpt><trkpt lat="45.63653643862283" lon="9.269109651263511"><ele>211.0</ele><time>2026-04-25T05:57:52.999Z</time></trkpt><trkpt lat="45.63658345670753" lon="9.269033800638542"><ele>211.0</ele><time>2026-04-25T05:57:53.999Z</time></trkpt><trkpt lat="45.6366242105673" lon="9.26895061738941"><ele>211.0</ele><time>2026-04-25T05:57:54.999Z</time></trkpt><trkpt lat="45.63665673388823" lon="9.268862846337855"><ele>211.0</ele><time>2026-04-25T05:57:55.999Z</time></trkpt><trkpt lat="45.63669617343268" lon="9.268776515104445"><ele>211.0</ele><time>2026-04-25T05:57:56.999Z</time></trkpt><trkpt lat="45.63674129914324" lon="9.2686992963208"><ele>211.0</ele><time>2026-04-25T05:57:57.999Z</time></trkpt><trkpt lat="45.63679135437881" lon="9.268623485388472"><ele>211.0</ele><time>2026-04-25T05:57:58.999Z</time></trkpt><trkpt lat="45.636840242225226" lon="9.268546102105292"><ele>211.0</ele><time>2026-04-25T05:57:59.999Z</time></trkpt><trkpt lat="45.63688925569286" lon="9.268469624974598"><ele>211.0</ele><time>2026-04-25T05:58:00.999Z</time></trkpt><trkpt lat="45.63693815021403" lon="9.268397132269234"><ele>211.0</ele><time>2026-04-25T05:58:01.999Z</time></trkpt><trkpt lat="45.63698527592183" lon="9.268324527517919"><ele>211.0</ele><time>2026-04-25T05:58:02.999Z</time></trkpt><trkpt lat="45.63702854385174" lon="9.268251085175052"><ele>211.0</ele><time>2026-04-25T05:58:03.999Z</time></trkpt><trkpt lat="45.63707058644495" lon="9.268174738339175"><ele>211.0</ele><time>2026-04-25T05:58:04.999Z</time></trkpt><trkpt lat="45.63711646672919" lon="9.268097997279565"><ele>211.0</ele><time>2026-04-25T05:58:05.999Z</time></trkpt><trkpt lat="45.63716125806185" lon="9.268025252477956"><ele>211.0</ele><time>2026-04-25T05:58:06.999Z</time></trkpt><trkpt lat="45.63720615069294" lon="9.267951001402155"><ele>211.0</ele><time>2026-04-25T05:58:07.999Z</time></trkpt><trkpt lat="45.63725012408603" lon="9.26787619376659"><ele>211.0</ele><time>2026-04-25T05:58:08.999Z</time></trkpt><trkpt lat="45.63729408115063" lon="9.267799820510032"><ele>211.0</ele><time>2026-04-25T05:58:09.999Z</time></trkpt><trkpt lat="45.63733939594114" lon="9.267724101243397"><ele>211.0</ele><time>2026-04-25T05:58:10.999Z</time></trkpt><trkpt lat="45.637381666676866" lon="9.267648410546208"><ele>211.0</ele><time>2026-04-25T05:58:11.998Z</time></trkpt><trkpt lat="45.63742521568466" lon="9.26757620778105"><ele>211.0</ele><time>2026-04-25T05:58:12.998Z</time></trkpt><trkpt lat="45.63746917513301" lon="9.26750996443344"><ele>211.0</ele><time>2026-04-25T05:58:13.998Z</time></trkpt><trkpt lat="45.63751255843563" lon="9.267436200138377"><ele>211.0</ele><time>2026-04-25T05:58:14.998Z</time></trkpt><trkpt lat="45.637554157440576" lon="9.267356134066647"><ele>211.0</ele><time>2026-04-25T05:58:15.998Z</time></trkpt><trkpt lat="45.637598909627364" lon="9.267275316382799"><ele>211.0</ele><time>2026-04-25T05:58:16.998Z</time></trkpt><trkpt lat="45.637644771392075" lon="9.267199580632866"><ele>211.0</ele><time>2026-04-25T05:58:18Z</time></trkpt><trkpt lat="45.63768837012575" lon="9.267127197315839"><ele>211.0</ele><time>2026-04-25T05:58:19Z</time></trkpt><trkpt lat="45.637732582114516" lon="9.267052139817014"><ele>211.14285714285714</ele><time>2026-04-25T05:58:20Z</time></trkpt><trkpt lat="45.63777268574768" lon="9.266978925257211"><ele>211.28571428571428</ele><time>2026-04-25T05:58:21Z</time></trkpt><trkpt lat="45.637814643109856" lon="9.266904961070738"><ele>211.42857142857144</ele><time>2026-04-25T05:58:22Z</time></trkpt><trkpt lat="45.63786111133287" lon="9.266834119002581"><ele>211.57142857142856</ele><time>2026-04-25T05:58:23Z</time></trkpt><trkpt lat="45.63790722580699" lon="9.266749191650577"><ele>211.7142857142857</ele><time>2026-04-25T05:58:24Z</time></trkpt><trkpt lat="45.63795467592258" lon="9.266674831288052"><ele>211.85714285714286</ele><time>2026-04-25T05:58:25Z</time></trkpt><trkpt lat="45.6379995112451" lon="9.266599030641627"><ele>212.0</ele><time>2026-04-25T05:58:26Z</time></trkpt><trkpt lat="45.63804042856638" lon="9.26651592435549"><ele>212.0</ele><time>2026-04-25T05:58:27Z</time></trkpt><trkpt lat="45.63808748459476" lon="9.266445688828439"><ele>212.0</ele><time>2026-04-25T05:58:28Z</time></trkpt><trkpt lat="45.638130837234364" lon="9.266371951003126"><ele>212.0</ele><time>2026-04-25T05:58:29Z</time></trkpt><trkpt lat="45.638173335820206" lon="9.266293545465894"><ele>212.0</ele><time>2026-04-25T05:58:30Z</time></trkpt><trkpt lat="45.63821637172682" lon="9.26621346351407"><ele>212.0</ele><time>2026-04-25T05:58:31Z</time></trkpt><trkpt lat="45.63826033737095" lon="9.26613011527952"><ele>212.0</ele><time>2026-04-25T05:58:32Z</time></trkpt><trkpt lat="45.63830965713334" lon="9.266053058090431"><ele>212.0</ele><time>2026-04-25T05:58:33Z</time></trkpt><trkpt lat="45.63835594569723" lon="9.265980770235691"><ele>212.00000000000003</ele><time>2026-04-25T05:58:34Z</time></trkpt><trkpt lat="45.63840229739947" lon="9.26590643959336"><ele>212.0</ele><time>2026-04-25T05:58:35Z</time></trkpt><trkpt lat="45.63844703545828" lon="9.265825904488963"><ele>212.0</ele><time>2026-04-25T05:58:36Z</time></trkpt><trkpt lat="45.6384861690795" lon="9.265745429562925"><ele>212.0</ele><time>2026-04-25T05:58:37Z</time></trkpt><trkpt lat="45.63852107958073" lon="9.265669692091123"><ele>212.00000000000003</ele><time>2026-04-25T05:58:38Z</time></trkpt><trkpt lat="45.638584435646464" lon="9.26552013278046"><ele>212.0</ele><time>2026-04-25T05:58:39.999Z</time></trkpt><trkpt lat="45.638657888587296" lon="9.26538060033383"><ele>212.14285714285714</ele><time>2026-04-25T05:58:41.999Z</time></trkpt><trkpt lat="45.63870586383437" lon="9.265316383616348"><ele>212.28571428571428</ele><time>2026-04-25T05:58:42.999Z</time></trkpt><trkpt lat="45.638757229341216" lon="9.265252444147253"><ele>212.42857142857142</ele><time>2026-04-25T05:58:43.999Z</time></trkpt><trkpt lat="45.63880986463631" lon="9.265190231125937"><ele>212.57142857142856</ele><time>2026-04-25T05:58:44.999Z</time></trkpt><trkpt lat="45.63885982739026" lon="9.265119782614075"><ele>212.71428571428572</ele><time>2026-04-25T05:58:45.999Z</time></trkpt><trkpt lat="45.6389069654668" lon="9.265045157605574"><ele>212.85714285714283</ele><time>2026-04-25T05:58:46.999Z</time></trkpt><trkpt lat="45.63894886933226" lon="9.264969890402297"><ele>213.0</ele><time>2026-04-25T05:58:47.999Z</time></trkpt><trkpt lat="45.638989919398355" lon="9.264899485704946"><ele>213.0</ele><time>2026-04-25T05:58:48.999Z</time></trkpt><trkpt lat="45.63903291701978" lon="9.264825757179011"><ele>213.0</ele><time>2026-04-25T05:58:49.999Z</time></trkpt><trkpt lat="45.63907415251395" lon="9.264754649603459"><ele>213.0</ele><time>2026-04-25T05:58:50.999Z</time></trkpt><trkpt lat="45.63915546568701" lon="9.264615957686365"><ele>213.0</ele><time>2026-04-25T05:58:52.999Z</time></trkpt><trkpt lat="45.6391977941435" lon="9.264545099048492"><ele>213.0</ele><time>2026-04-25T05:58:53.999Z</time></trkpt><trkpt lat="45.63923866382317" lon="9.264473870259806"><ele>213.0</ele><time>2026-04-25T05:58:54.999Z</time></trkpt><trkpt lat="45.639280639425785" lon="9.264404781116003"><ele>212.99999999999997</ele><time>2026-04-25T05:58:55.999Z</time></trkpt><trkpt lat="45.63932051751223" lon="9.264332697864702"><ele>213.0</ele><time>2026-04-25T05:58:56.999Z</time></trkpt><trkpt lat="45.63935906724155" lon="9.264258726015253"><ele>213.0</ele><time>2026-04-25T05:58:57.999Z</time></trkpt><trkpt lat="45.63939833676558" lon="9.264181704135748"><ele>213.0</ele><time>2026-04-25T05:58:58.999Z</time></trkpt><trkpt lat="45.639442386780715" lon="9.264111873803325"><ele>213.0</ele><time>2026-04-25T05:58:59.999Z</time></trkpt><trkpt lat="45.639487882785524" lon="9.264039554011914"><ele>212.99999999999997</ele><time>2026-04-25T05:59:00.999Z</time></trkpt><trkpt lat="45.63953204544402" lon="9.263967229066706"><ele>213.0</ele><time>2026-04-25T05:59:01.999Z</time></trkpt><trkpt lat="45.639576943299396" lon="9.263896609844668"><ele>212.99999999999997</ele><time>2026-04-25T05:59:02.999Z</time></trkpt><trkpt lat="45.639619268343424" lon="9.26382424072094"><ele>213.0</ele><time>2026-04-25T05:59:03.999Z</time></trkpt><trkpt lat="45.63965986940747" lon="9.263752235862922"><ele>213.0</ele><time>2026-04-25T05:59:04.999Z</time></trkpt><trkpt lat="45.639702535094635" lon="9.26367897464206"><ele>213.0</ele><time>2026-04-25T05:59:05.999Z</time></trkpt><trkpt lat="45.63974503589059" lon="9.263603500698952"><ele>213.0</ele><time>2026-04-25T05:59:06.999Z</time></trkpt><trkpt lat="45.639789823534315" lon="9.263527475494673"><ele>212.99999999999997</ele><time>2026-04-25T05:59:07.999Z</time></trkpt><trkpt lat="45.63983404327804" lon="9.263454561000403"><ele>213.0</ele><time>2026-04-25T05:59:08.999Z</time></trkpt><trkpt lat="45.639877018940844" lon="9.263380720077283"><ele>212.99999999999997</ele><time>2026-04-25T05:59:09.999Z</time></trkpt><trkpt lat="45.639917324227056" lon="9.263304914929016"><ele>213.0</ele><time>2026-04-25T05:59:10.999Z</time></trkpt><trkpt lat="45.63995973361334" lon="9.263233515089977"><ele>213.0</ele><time>2026-04-25T05:59:11.999Z</time></trkpt><trkpt lat="45.640004585032486" lon="9.26316255766723"><ele>213.0</ele><time>2026-04-25T05:59:12.999Z</time></trkpt><trkpt lat="45.640049183589454" lon="9.263089167116409"><ele>213.0</ele><time>2026-04-25T05:59:13.999Z</time></trkpt><trkpt lat="45.64009346036073" lon="9.26301495765898"><ele>212.99999999999997</ele><time>2026-04-25T05:59:14.999Z</time></trkpt><trkpt lat="45.64013812273066" lon="9.262943207679317"><ele>213.0</ele><time>2026-04-25T05:59:15.999Z</time></trkpt><trkpt lat="45.6401827278745" lon="9.262876853462615"><ele>213.28571428571428</ele><time>2026-04-25T05:59:16.999Z</time></trkpt><trkpt lat="45.64022930873749" lon="9.262808327831703"><ele>213.57142857142856</ele><time>2026-04-25T05:59:17.999Z</time></trkpt><trkpt lat="45.64027897397324" lon="9.262740674136662"><ele>213.85714285714283</ele><time>2026-04-25T05:59:18.999Z</time></trkpt><trkpt lat="45.640328166099316" lon="9.26267288050357"><ele>214.14285714285714</ele><time>2026-04-25T05:59:19.999Z</time></trkpt><trkpt lat="45.640377622563676" lon="9.262607563934505"><ele>214.42857142857144</ele><time>2026-04-25T05:59:20.999Z</time></trkpt><trkpt lat="45.64042786742691" lon="9.262546319605816"><ele>214.7142857142857</ele><time>2026-04-25T05:59:21.999Z</time></trkpt><trkpt lat="45.64047749073157" lon="9.262485927279455"><ele>215.0</ele><time>2026-04-25T05:59:22.999Z</time></trkpt><trkpt lat="45.64052860832191" lon="9.262427499552155"><ele>215.0</ele><time>2026-04-25T05:59:23.999Z</time></trkpt><trkpt lat="45.64057996792012" lon="9.262371899542993"><ele>215.0</ele><time>2026-04-25T05:59:24.999Z</time></trkpt><trkpt lat="45.64063275124955" lon="9.262311534394785"><ele>215.0</ele><time>2026-04-25T05:59:25.999Z</time></trkpt><trkpt lat="45.64068659034523" lon="9.262251562304828"><ele>215.0</ele><time>2026-04-25T05:59:26.999Z</time></trkpt><trkpt lat="45.64074090046171" lon="9.262197594842794"><ele>215.0</ele><time>2026-04-25T05:59:27.999Z</time></trkpt><trkpt lat="45.64079745291627" lon="9.262140115532578"><ele>215.0</ele><time>2026-04-25T05:59:28.999Z</time></trkpt><trkpt lat="45.64085458047713" lon="9.262085913641561"><ele>215.0</ele><time>2026-04-25T05:59:29.999Z</time></trkpt><trkpt lat="45.64091438351475" lon="9.262037575857816"><ele>214.7142857142857</ele><time>2026-04-25T05:59:30.999Z</time></trkpt><trkpt lat="45.640973520899664" lon="9.26198862944089"><ele>214.42857142857144</ele><time>2026-04-25T05:59:31.999Z</time></trkpt><trkpt lat="45.641033452816885" lon="9.261941407832678"><ele>214.14285714285714</ele><time>2026-04-25T05:59:32.999Z</time></trkpt><trkpt lat="45.641093945408095" lon="9.261895373905833"><ele>213.85714285714283</ele><time>2026-04-25T05:59:33.999Z</time></trkpt><trkpt lat="45.64115646778115" lon="9.261853228409485"><ele>213.57142857142856</ele><time>2026-04-25T05:59:34.999Z</time></trkpt><trkpt lat="45.64121921863521" lon="9.261811410299515"><ele>213.28571428571428</ele><time>2026-04-25T05:59:35.999Z</time></trkpt><trkpt lat="45.64128430504591" lon="9.261775726528045"><ele>213.0</ele><time>2026-04-25T05:59:36.999Z</time></trkpt><trkpt lat="45.641347863800746" lon="9.261736627353889"><ele>213.7142857142857</ele><time>2026-04-25T05:59:37.999Z</time></trkpt><trkpt lat="45.64141175577133" lon="9.2617002121985"><ele>214.42857142857142</ele><time>2026-04-25T05:59:38.999Z</time></trkpt><trkpt lat="45.641476013479746" lon="9.261666993610325"><ele>215.14285714285714</ele><time>2026-04-25T05:59:39.999Z</time></trkpt><trkpt lat="45.64154197301514" lon="9.261634814452476"><ele>215.85714285714283</ele><time>2026-04-25T05:59:40.999Z</time></trkpt><trkpt lat="45.64160943488749" lon="9.261604944600627"><ele>216.57142857142858</ele><time>2026-04-25T05:59:41.999Z</time></trkpt><trkpt lat="45.641673677211436" lon="9.261570752160301"><ele>217.28571428571428</ele><time>2026-04-25T05:59:42.999Z</time></trkpt><trkpt lat="45.641739738508136" lon="9.261535070055713"><ele>218.0</ele><time>2026-04-25T05:59:43.999Z</time></trkpt><trkpt lat="45.64180936104681" lon="9.261505892836842"><ele>218.0</ele><time>2026-04-25T05:59:44.999Z</time></trkpt><trkpt lat="45.64187677911034" lon="9.261480901423704"><ele>218.0</ele><time>2026-04-25T05:59:45.999Z</time></trkpt><trkpt lat="45.64194468851448" lon="9.261459250394722"><ele>218.0</ele><time>2026-04-25T05:59:46.999Z</time></trkpt><trkpt lat="45.64201258875753" lon="9.261440337347883"><ele>218.0</ele><time>2026-04-25T05:59:47.999Z</time></trkpt><trkpt lat="45.64207855706225" lon="9.261424961004083"><ele>218.0</ele><time>2026-04-25T05:59:48.999Z</time></trkpt><trkpt lat="45.64214580516286" lon="9.261404876043853"><ele>218.0</ele><time>2026-04-25T05:59:49.999Z</time></trkpt><trkpt lat="45.64221545492592" lon="9.261388071511545"><ele>218.0</ele><time>2026-04-25T05:59:50.999Z</time></trkpt><trkpt lat="45.64228278615974" lon="9.261370170912134"><ele>218.0</ele><time>2026-04-25T05:59:51.999Z</time></trkpt><trkpt lat="45.64234837037271" lon="9.261354476718274"><ele>218.0</ele><time>2026-04-25T05:59:52.999Z</time></trkpt><trkpt lat="45.64241183196664" lon="9.261337871896608"><ele>218.0</ele><time>2026-04-25T05:59:53.999Z</time></trkpt><trkpt lat="45.642476674854834" lon="9.261320538711248"><ele>218.0</ele><time>2026-04-25T05:59:54.999Z</time></trkpt><trkpt lat="45.64254445147473" lon="9.261306170391284"><ele>218.0</ele><time>2026-04-25T05:59:55.999Z</time></trkpt><trkpt lat="45.64261454825685" lon="9.261294211356518"><ele>218.0</ele><time>2026-04-25T05:59:56.999Z</time></trkpt><trkpt lat="45.64268474047874" lon="9.261283524812049"><ele>218.0</ele><time>2026-04-25T05:59:57.999Z</time></trkpt><trkpt lat="45.64275653617839" lon="9.261270767682893"><ele>218.0</ele><time>2026-04-25T05:59:58.999Z</time></trkpt><trkpt lat="45.642828705640184" lon="9.261256699956066"><ele>218.0</ele><time>2026-04-25T05:59:59.999Z</time></trkpt><trkpt lat="45.64290180311047" lon="9.261239684324577"><ele>218.0</ele><time>2026-04-25T06:00:00.999Z</time></trkpt><trkpt lat="45.642972477024564" lon="9.261226597198188"><ele>218.0</ele><time>2026-04-25T06:00:01.999Z</time></trkpt><trkpt lat="45.64304575168961" lon="9.261214649163124"><ele>218.0</ele><time>2026-04-25T06:00:02.999Z</time></trkpt><trkpt lat="45.64312125291999" lon="9.2612003497767"><ele>218.0</ele><time>2026-04-25T06:00:03.999Z</time></trkpt><trkpt lat="45.64319779702487" lon="9.26118790883289"><ele>218.0</ele><time>2026-04-25T06:00:04.999Z</time></trkpt><trkpt lat="45.64327612155641" lon="9.261172795435808"><ele>218.00000000000003</ele><time>2026-04-25T06:00:05.999Z</time></trkpt><trkpt lat="45.643356274408134" lon="9.2611563327905"><ele>218.0</ele><time>2026-04-25T06:00:06.999Z</time></trkpt><trkpt lat="45.64343643025192" lon="9.261139403995484"><ele>218.0</ele><time>2026-04-25T06:00:07.999Z</time></trkpt><trkpt lat="45.643519112334104" lon="9.261120962963023"><ele>218.0</ele><time>2026-04-25T06:00:08.999Z</time></trkpt><trkpt lat="45.643602971100655" lon="9.26110468726563"><ele>218.00000000000003</ele><time>2026-04-25T06:00:09.999Z</time></trkpt><trkpt lat="45.64368861168953" lon="9.261086743921426"><ele>218.0</ele><time>2026-04-25T06:00:10.999Z</time></trkpt><trkpt lat="45.64377573771629" lon="9.261070056991628"><ele>218.16666666666669</ele><time>2026-04-25T06:00:11.999Z</time></trkpt><trkpt lat="45.64386445963453" lon="9.26105113633241"><ele>218.33333333333334</ele><time>2026-04-25T06:00:12.999Z</time></trkpt><trkpt lat="45.64395265378546" lon="9.261030799870566"><ele>218.5</ele><time>2026-04-25T06:00:13.999Z</time></trkpt><trkpt lat="45.6440423461429" lon="9.261015391223614"><ele>218.66666666666669</ele><time>2026-04-25T06:00:14.999Z</time></trkpt><trkpt lat="45.644129925848674" lon="9.260998393847466"><ele>218.83333333333334</ele><time>2026-04-25T06:00:15.999Z</time></trkpt><trkpt lat="45.644216224196185" lon="9.26098048999971"><ele>219.0</ele><time>2026-04-25T06:00:16.999Z</time></trkpt><trkpt lat="45.64430122895451" lon="9.26096236308324"><ele>219.0</ele><time>2026-04-25T06:00:17.999Z</time></trkpt><trkpt lat="45.64438442285981" lon="9.26094409930667"><ele>219.0</ele><time>2026-04-25T06:00:18.999Z</time></trkpt><trkpt lat="45.644465699827634" lon="9.260926858844066"><ele>219.0</ele><time>2026-04-25T06:00:19.998Z</time></trkpt><trkpt lat="45.64454766814038" lon="9.260911430936627"><ele>219.0</ele><time>2026-04-25T06:00:20.998Z</time></trkpt><trkpt lat="45.6446300067007" lon="9.260892694746797"><ele>219.0</ele><time>2026-04-25T06:00:21.998Z</time></trkpt><trkpt lat="45.64471324298976" lon="9.260876706165364"><ele>219.0</ele><time>2026-04-25T06:00:22.998Z</time></trkpt><trkpt lat="45.64479797798012" lon="9.260862356008131"><ele>219.0</ele><time>2026-04-25T06:00:24Z</time></trkpt><trkpt lat="45.64488169802404" lon="9.260847049096482"><ele>219.0</ele><time>2026-04-25T06:00:25Z</time></trkpt><trkpt lat="45.6449666324705" lon="9.260831703188279"><ele>219.0</ele><time>2026-04-25T06:00:26Z</time></trkpt><trkpt lat="45.64504776950525" lon="9.260821722146629"><ele>219.0</ele><time>2026-04-25T06:00:27Z</time></trkpt><trkpt lat="45.64512646482938" lon="9.260803844144467"><ele>219.0</ele><time>2026-04-25T06:00:28Z</time></trkpt><trkpt lat="45.645204778286654" lon="9.260784142367381"><ele>219.0</ele><time>2026-04-25T06:00:29Z</time></trkpt><trkpt lat="45.64528318946333" lon="9.260769366032411"><ele>218.85714285714286</ele><time>2026-04-25T06:00:30Z</time></trkpt><trkpt lat="45.6453603707904" lon="9.260757452316318"><ele>218.7142857142857</ele><time>2026-04-25T06:00:31Z</time></trkpt><trkpt lat="45.64543699723195" lon="9.260741925465066"><ele>218.57142857142856</ele><time>2026-04-25T06:00:32Z</time></trkpt><trkpt lat="45.6455089097566" lon="9.260724634552854"><ele>218.42857142857144</ele><time>2026-04-25T06:00:33Z</time></trkpt><trkpt lat="45.64558125464002" lon="9.260709070102061"><ele>218.28571428571428</ele><time>2026-04-25T06:00:34Z</time></trkpt><trkpt lat="45.645650053361194" lon="9.260696993678694"><ele>218.14285714285714</ele><time>2026-04-25T06:00:35Z</time></trkpt><trkpt lat="45.64571666276886" lon="9.260689406514107"><ele>218.0</ele><time>2026-04-25T06:00:36Z</time></trkpt><trkpt lat="45.645784401622834" lon="9.260690913829297"><ele>218.0</ele><time>2026-04-25T06:00:37Z</time></trkpt><trkpt lat="45.64585497422833" lon="9.260695008392164"><ele>218.0</ele><time>2026-04-25T06:00:38Z</time></trkpt><trkpt lat="45.645930340252576" lon="9.26069085234651"><ele>218.0</ele><time>2026-04-25T06:00:39Z</time></trkpt><trkpt lat="45.64600032889267" lon="9.260661943464918"><ele>218.0</ele><time>2026-04-25T06:00:40Z</time></trkpt><trkpt lat="45.64606927849497" lon="9.260630396754193"><ele>218.0</ele><time>2026-04-25T06:00:41Z</time></trkpt><trkpt lat="45.64613787090529" lon="9.260601659665484"><ele>218.0</ele><time>2026-04-25T06:00:42Z</time></trkpt><trkpt lat="45.64621028640706" lon="9.260581919352486"><ele>218.0</ele><time>2026-04-25T06:00:42.999Z</time></trkpt><trkpt lat="45.64628253795245" lon="9.260575284098831"><ele>218.42857142857144</ele><time>2026-04-25T06:00:43.999Z</time></trkpt><trkpt lat="45.64635311575188" lon="9.260565045379963"><ele>218.85714285714286</ele><time>2026-04-25T06:00:44.999Z</time></trkpt><trkpt lat="45.646426097410995" lon="9.260551775743846"><ele>219.28571428571428</ele><time>2026-04-25T06:00:45.999Z</time></trkpt><trkpt lat="45.646500019951944" lon="9.260536315754834"><ele>219.71428571428572</ele><time>2026-04-25T06:00:46.999Z</time></trkpt><trkpt lat="45.64657175261564" lon="9.260522829541454"><ele>220.14285714285714</ele><time>2026-04-25T06:00:47.999Z</time></trkpt><trkpt lat="45.64664195713053" lon="9.260512001464717"><ele>220.57142857142858</ele><time>2026-04-25T06:00:48.999Z</time></trkpt><trkpt lat="45.64671387150795" lon="9.260493794709747"><ele>221.0</ele><time>2026-04-25T06:00:49.999Z</time></trkpt><trkpt lat="45.64678455726763" lon="9.260476304699436"><ele>221.00000000000003</ele><time>2026-04-25T06:00:50.999Z</time></trkpt><trkpt lat="45.64685566800084" lon="9.260457515636721"><ele>221.0</ele><time>2026-04-25T06:00:51.999Z</time></trkpt><trkpt lat="45.646925331336774" lon="9.260446045232346"><ele>221.0</ele><time>2026-04-25T06:00:52.999Z</time></trkpt><trkpt lat="45.6469952685824" lon="9.260426815003674"><ele>221.0</ele><time>2026-04-25T06:00:53.999Z</time></trkpt><trkpt lat="45.64706365441259" lon="9.260409675994675"><ele>221.0</ele><time>2026-04-25T06:00:54.999Z</time></trkpt><trkpt lat="45.64713345779771" lon="9.260397337114703"><ele>221.00000000000003</ele><time>2026-04-25T06:00:55.999Z</time></trkpt><trkpt lat="45.64720014458399" lon="9.260380948000941"><ele>221.0</ele><time>2026-04-25T06:00:56.999Z</time></trkpt><trkpt lat="45.6472644587586" lon="9.260374182638401"><ele>221.4</ele><time>2026-04-25T06:00:57.999Z</time></trkpt><trkpt lat="45.64732764078057" lon="9.260361982391409"><ele>221.8</ele><time>2026-04-25T06:00:58.999Z</time></trkpt><trkpt lat="45.64739111128769" lon="9.260343670380587"><ele>222.20000000000002</ele><time>2026-04-25T06:00:59.999Z</time></trkpt><trkpt lat="45.64750709131214" lon="9.260306256199112"><ele>222.60000000000002</ele><time>2026-04-25T06:01:01.999Z</time></trkpt><trkpt lat="45.64762046685567" lon="9.260264677027257"><ele>223.0</ele><time>2026-04-25T06:01:03.999Z</time></trkpt><trkpt lat="45.64771002319869" lon="9.260227436565108"><ele>222.99999999999997</ele><time>2026-04-25T06:01:05.999Z</time></trkpt><trkpt lat="45.64777230216911" lon="9.260207021433487"><ele>223.0</ele><time>2026-04-25T06:01:07.999Z</time></trkpt><trkpt lat="45.64783675079378" lon="9.260193929019923"><ele>223.0</ele><time>2026-04-25T06:01:11.999Z</time></trkpt><trkpt lat="45.64791169010742" lon="9.260152517454786"><ele>223.0</ele><time>2026-04-25T06:01:27.999Z</time></trkpt><trkpt lat="45.64798500479301" lon="9.260118430676242"><ele>222.99999999999997</ele><time>2026-04-25T06:01:29.999Z</time></trkpt><trkpt lat="45.64806246745132" lon="9.26006711106668"><ele>223.0</ele><time>2026-04-25T06:01:31.999Z</time></trkpt><trkpt lat="45.6481567388717" lon="9.260019522537734"><ele>222.66666666666666</ele><time>2026-04-25T06:01:33.999Z</time></trkpt><trkpt lat="45.64825635083388" lon="9.259960581094369"><ele>222.33333333333331</ele><time>2026-04-25T06:01:35.999Z</time></trkpt><trkpt lat="45.648362352341685" lon="9.25988695318794"><ele>222.0</ele><time>2026-04-25T06:01:37.999Z</time></trkpt><trkpt lat="45.64842193820494" lon="9.259848292437782"><ele>221.66666666666669</ele><time>2026-04-25T06:01:38.999Z</time></trkpt><trkpt lat="45.64848288180389" lon="9.259810912639228"><ele>221.33333333333334</ele><time>2026-04-25T06:01:39.999Z</time></trkpt><trkpt lat="45.64854473978938" lon="9.25976554700092"><ele>221.0</ele><time>2026-04-25T06:01:40.999Z</time></trkpt><trkpt lat="45.64860634669625" lon="9.25972286871925"><ele>221.2857142857143</ele><time>2026-04-25T06:01:41.999Z</time></trkpt><trkpt lat="45.6486730667157" lon="9.25967899000658"><ele>221.57142857142858</ele><time>2026-04-25T06:01:42.999Z</time></trkpt><trkpt lat="45.64873473060654" lon="9.259634283565113"><ele>221.85714285714286</ele><time>2026-04-25T06:01:43.999Z</time></trkpt><trkpt lat="45.64879677575524" lon="9.259583110230567"><ele>222.14285714285717</ele><time>2026-04-25T06:01:44.999Z</time></trkpt><trkpt lat="45.64886083509624" lon="9.259533045382739"><ele>222.42857142857142</ele><time>2026-04-25T06:01:45.999Z</time></trkpt><trkpt lat="45.64892905160899" lon="9.259481980828099"><ele>222.71428571428572</ele><time>2026-04-25T06:01:46.999Z</time></trkpt><trkpt lat="45.64899447665919" lon="9.259439414421264"><ele>223.0</ele><time>2026-04-25T06:01:47.999Z</time></trkpt><trkpt lat="45.6490540655081" lon="9.259392222714233"><ele>223.0</ele><time>2026-04-25T06:01:48.999Z</time></trkpt><trkpt lat="45.649113805694405" lon="9.25934611510806"><ele>223.0</ele><time>2026-04-25T06:01:49.999Z</time></trkpt><trkpt lat="45.64918144042204" lon="9.259301472678365"><ele>223.0</ele><time>2026-04-25T06:01:50.999Z</time></trkpt><trkpt lat="45.649249857409416" lon="9.259253890863274"><ele>223.0</ele><time>2026-04-25T06:01:51.999Z</time></trkpt><trkpt lat="45.649315736055534" lon="9.25920339601832"><ele>223.0</ele><time>2026-04-25T06:01:52.999Z</time></trkpt><trkpt lat="45.64937650156781" lon="9.259149628785387"><ele>223.0</ele><time>2026-04-25T06:01:53.999Z</time></trkpt><trkpt lat="45.649441814247034" lon="9.259092946803966"><ele>223.0</ele><time>2026-04-25T06:01:54.999Z</time></trkpt><trkpt lat="45.64951171230602" lon="9.259044085694953"><ele>223.14285714285714</ele><time>2026-04-25T06:01:55.999Z</time></trkpt><trkpt lat="45.649578827393" lon="9.258996932666543"><ele>223.28571428571428</ele><time>2026-04-25T06:01:56.999Z</time></trkpt><trkpt lat="45.64964139427619" lon="9.258945461368052"><ele>223.42857142857144</ele><time>2026-04-25T06:01:57.999Z</time></trkpt><trkpt lat="45.64970777653776" lon="9.258897415054147"><ele>223.57142857142856</ele><time>2026-04-25T06:01:58.999Z</time></trkpt><trkpt lat="45.649773588672964" lon="9.258851260723887"><ele>223.71428571428572</ele><time>2026-04-25T06:01:59.999Z</time></trkpt><trkpt lat="45.649839851387945" lon="9.258810723975543"><ele>223.85714285714286</ele><time>2026-04-25T06:02:00.999Z</time></trkpt><trkpt lat="45.64990054276951" lon="9.258770891975995"><ele>224.0</ele><time>2026-04-25T06:02:01.999Z</time></trkpt><trkpt lat="45.64995929643005" lon="9.25872470279391"><ele>224.0</ele><time>2026-04-25T06:02:02.999Z</time></trkpt><trkpt lat="45.65001972727947" lon="9.258678425203902"><ele>224.0</ele><time>2026-04-25T06:02:03.999Z</time></trkpt><trkpt lat="45.65008275420148" lon="9.25863594490689"><ele>224.0</ele><time>2026-04-25T06:02:04.999Z</time></trkpt><trkpt lat="45.6501508193674" lon="9.258586878871697"><ele>224.0</ele><time>2026-04-25T06:02:05.999Z</time></trkpt><trkpt lat="45.650215104483166" lon="9.258537931049453"><ele>224.0</ele><time>2026-04-25T06:02:06.999Z</time></trkpt><trkpt lat="45.65028235330557" lon="9.25848766713878"><ele>224.0</ele><time>2026-04-25T06:02:07.999Z</time></trkpt><trkpt lat="45.650345837677776" lon="9.258439893922501"><ele>224.0</ele><time>2026-04-25T06:02:08.999Z</time></trkpt><trkpt lat="45.65041120050528" lon="9.258390935473944"><ele>224.00000000000003</ele><time>2026-04-25T06:02:09.999Z</time></trkpt><trkpt lat="45.650477632057616" lon="9.258342819786723"><ele>224.0</ele><time>2026-04-25T06:02:10.999Z</time></trkpt><trkpt lat="45.65054623160375" lon="9.25829372944172"><ele>224.0</ele><time>2026-04-25T06:02:11.999Z</time></trkpt><trkpt lat="45.65061259043425" lon="9.258245859231144"><ele>224.0</ele><time>2026-04-25T06:02:12.999Z</time></trkpt><trkpt lat="45.650680748270844" lon="9.258198014135264"><ele>224.00000000000003</ele><time>2026-04-25T06:02:13.999Z</time></trkpt><trkpt lat="45.65074799729425" lon="9.258146917159047"><ele>224.0</ele><time>2026-04-25T06:02:14.999Z</time></trkpt><trkpt lat="45.650815277409365" lon="9.258094451311809"><ele>224.14285714285714</ele><time>2026-04-25T06:02:15.999Z</time></trkpt><trkpt lat="45.65088408771602" lon="9.25804226900116"><ele>224.28571428571428</ele><time>2026-04-25T06:02:16.999Z</time></trkpt><trkpt lat="45.65095346637941" lon="9.257994269857388"><ele>224.42857142857144</ele><time>2026-04-25T06:02:17.999Z</time></trkpt><trkpt lat="45.65102168639392" lon="9.257944253994633"><ele>224.57142857142858</ele><time>2026-04-25T06:02:18.999Z</time></trkpt><trkpt lat="45.65109083527791" lon="9.257896700365823"><ele>224.71428571428572</ele><time>2026-04-25T06:02:19.999Z</time></trkpt><trkpt lat="45.65115447291375" lon="9.25785267280113"><ele>224.8571428571429</ele><time>2026-04-25T06:02:20.999Z</time></trkpt><trkpt lat="45.651215582211016" lon="9.257807687588203"><ele>225.00000000000003</ele><time>2026-04-25T06:02:21.999Z</time></trkpt><trkpt lat="45.65127567053864" lon="9.257765952539772"><ele>225.00000000000003</ele><time>2026-04-25T06:02:22.998Z</time></trkpt><trkpt lat="45.65133723619519" lon="9.25771707507792"><ele>225.0</ele><time>2026-04-25T06:02:23.998Z</time></trkpt><trkpt lat="45.651400601871146" lon="9.257668012685254"><ele>225.00000000000003</ele><time>2026-04-25T06:02:24.998Z</time></trkpt><trkpt lat="45.651463212848135" lon="9.257619214056755"><ele>225.00000000000003</ele><time>2026-04-25T06:02:25.998Z</time></trkpt><trkpt lat="45.651527539292424" lon="9.257576057913418"><ele>225.0</ele><time>2026-04-25T06:02:26.998Z</time></trkpt><trkpt lat="45.65158840923533" lon="9.257534664360108"><ele>225.00000000000003</ele><time>2026-04-25T06:02:27.998Z</time></trkpt><trkpt lat="45.6516504742502" lon="9.257489903648633"><ele>225.00000000000003</ele><time>2026-04-25T06:02:29Z</time></trkpt><trkpt lat="45.65171251462641" lon="9.257446240647033"><ele>225.00000000000003</ele><time>2026-04-25T06:02:30Z</time></trkpt><trkpt lat="45.65177253227837" lon="9.25740168168538"><ele>225.0</ele><time>2026-04-25T06:02:31Z</time></trkpt><trkpt lat="45.65183071636561" lon="9.257357881426707"><ele>225.00000000000003</ele><time>2026-04-25T06:02:32Z</time></trkpt><trkpt lat="45.65188608773392" lon="9.257315024038824"><ele>225.00000000000003</ele><time>2026-04-25T06:02:33Z</time></trkpt><trkpt lat="45.6519970913106" lon="9.257235834701909"><ele>225.0</ele><time>2026-04-25T06:02:35Z</time></trkpt><trkpt lat="45.6520546595667" lon="9.257198161502933"><ele>225.00000000000003</ele><time>2026-04-25T06:02:36Z</time></trkpt><trkpt lat="45.652116648920945" lon="9.257168114932155"><ele>225.00000000000003</ele><time>2026-04-25T06:02:37Z</time></trkpt><trkpt lat="45.652182738235986" lon="9.257147786682683"><ele>225.42857142857144</ele><time>2026-04-25T06:02:38Z</time></trkpt><trkpt lat="45.6522500760513" lon="9.25711534712298"><ele>225.85714285714286</ele><time>2026-04-25T06:02:39Z</time></trkpt><trkpt lat="45.65230753611679" lon="9.25705639042782"><ele>226.28571428571428</ele><time>2026-04-25T06:02:40Z</time></trkpt><trkpt lat="45.652356775694564" lon="9.25698468279847"><ele>226.71428571428572</ele><time>2026-04-25T06:02:41Z</time></trkpt><trkpt lat="45.65241222485096" lon="9.256929208529224"><ele>227.1428571428571</ele><time>2026-04-25T06:02:42Z</time></trkpt><trkpt lat="45.652472780797844" lon="9.256878646598837"><ele>227.57142857142856</ele><time>2026-04-25T06:02:43Z</time></trkpt><trkpt lat="45.652536613591884" lon="9.256837756801813"><ele>228.0</ele><time>2026-04-25T06:02:44Z</time></trkpt><trkpt lat="45.65259998246513" lon="9.256792075480925"><ele>228.0</ele><time>2026-04-25T06:02:45Z</time></trkpt><trkpt lat="45.65266276190594" lon="9.256743565700537"><ele>227.99999999999997</ele><time>2026-04-25T06:02:46Z</time></trkpt><trkpt lat="45.65272683332449" lon="9.256697470085648"><ele>228.0</ele><time>2026-04-25T06:02:47Z</time></trkpt><trkpt lat="45.65279128980901" lon="9.256648154938077"><ele>228.0</ele><time>2026-04-25T06:02:48Z</time></trkpt><trkpt lat="45.65285444757683" lon="9.25660166323501"><ele>227.99999999999997</ele><time>2026-04-25T06:02:49Z</time></trkpt><trkpt lat="45.652919328855795" lon="9.256554310125406"><ele>228.0</ele><time>2026-04-25T06:02:50Z</time></trkpt><trkpt lat="45.652983336407054" lon="9.256506817733749"><ele>228.0</ele><time>2026-04-25T06:02:51Z</time></trkpt><trkpt lat="45.65304673007953" lon="9.256462121827541"><ele>228.0</ele><time>2026-04-25T06:02:51.999Z</time></trkpt><trkpt lat="45.653109118964586" lon="9.25641529829534"><ele>227.99999999999997</ele><time>2026-04-25T06:02:52.999Z</time></trkpt><trkpt lat="45.65317242257326" lon="9.25636995385831"><ele>228.0</ele><time>2026-04-25T06:02:53.999Z</time></trkpt><trkpt lat="45.653237859891696" lon="9.256321259200071"><ele>228.0</ele><time>2026-04-25T06:02:54.999Z</time></trkpt><trkpt lat="45.653300597327984" lon="9.256274779403824"><ele>227.99999999999997</ele><time>2026-04-25T06:02:55.999Z</time></trkpt><trkpt lat="45.653363248392125" lon="9.256231167168261"><ele>228.0</ele><time>2026-04-25T06:02:56.999Z</time></trkpt><trkpt lat="45.653422651640966" lon="9.256186665351015"><ele>228.0</ele><time>2026-04-25T06:02:57.999Z</time></trkpt><trkpt lat="45.65348166162821" lon="9.2561409035559"><ele>228.0</ele><time>2026-04-25T06:02:58.999Z</time></trkpt><trkpt lat="45.65354078779078" lon="9.256096606787969"><ele>227.99999999999997</ele><time>2026-04-25T06:02:59.999Z</time></trkpt><trkpt lat="45.65360058587256" lon="9.256054371995463"><ele>228.0</ele><time>2026-04-25T06:03:00.999Z</time></trkpt><trkpt lat="45.6536596503129" lon="9.256009408270476"><ele>228.0</ele><time>2026-04-25T06:03:01.999Z</time></trkpt><trkpt lat="45.65371808499694" lon="9.255965632524157"><ele>227.99999999999997</ele><time>2026-04-25T06:03:02.999Z</time></trkpt><trkpt lat="45.653775534511894" lon="9.255921673748366"><ele>228.0</ele><time>2026-04-25T06:03:03.999Z</time></trkpt><trkpt lat="45.65383578857419" lon="9.255880898604898"><ele>228.0</ele><time>2026-04-25T06:03:04.999Z</time></trkpt><trkpt lat="45.65389429558405" lon="9.255839862506374"><ele>228.0</ele><time>2026-04-25T06:03:05.999Z</time></trkpt><trkpt lat="45.65395366249531" lon="9.255794664675767"><ele>227.99999999999997</ele><time>2026-04-25T06:03:06.999Z</time></trkpt><trkpt lat="45.65401316811672" lon="9.255751501144927"><ele>228.0</ele><time>2026-04-25T06:03:07.999Z</time></trkpt><trkpt lat="45.654071958836525" lon="9.25571052444052"><ele>228.0</ele><time>2026-04-25T06:03:08.999Z</time></trkpt><trkpt lat="45.65412924211316" lon="9.255670045464376"><ele>227.99999999999997</ele><time>2026-04-25T06:03:09.999Z</time></trkpt><trkpt lat="45.65418815208986" lon="9.255624140097664"><ele>228.0</ele><time>2026-04-25T06:03:10.999Z</time></trkpt><trkpt lat="45.654245101459225" lon="9.255579260878003"><ele>228.0</ele><time>2026-04-25T06:03:11.999Z</time></trkpt><trkpt lat="45.654303237056496" lon="9.25553726724993"><ele>227.85714285714283</ele><time>2026-04-25T06:03:12.999Z</time></trkpt><trkpt lat="45.65436416936292" lon="9.25549367967849"><ele>227.7142857142857</ele><time>2026-04-25T06:03:13.999Z</time></trkpt><trkpt lat="45.654423879854335" lon="9.255449019952978"><ele>227.57142857142856</ele><time>2026-04-25T06:03:14.999Z</time></trkpt><trkpt lat="45.6544836354336" lon="9.25540405717443"><ele>227.42857142857144</ele><time>2026-04-25T06:03:15.999Z</time></trkpt><trkpt lat="45.65454321889672" lon="9.255358618463331"><ele>227.2857142857143</ele><time>2026-04-25T06:03:16.999Z</time></trkpt><trkpt lat="45.65460356588244" lon="9.255318669326277"><ele>227.14285714285717</ele><time>2026-04-25T06:03:17.999Z</time></trkpt><trkpt lat="45.654663283632175" lon="9.255272860257621"><ele>227.0</ele><time>2026-04-25T06:03:18.999Z</time></trkpt><trkpt lat="45.65472246502378" lon="9.255227991239167"><ele>227.2857142857143</ele><time>2026-04-25T06:03:19.999Z</time></trkpt><trkpt lat="45.6547817396534" lon="9.255182872246436"><ele>227.5714285714286</ele><time>2026-04-25T06:03:20.999Z</time></trkpt><trkpt lat="45.65483880058896" lon="9.2551367867019"><ele>227.85714285714286</ele><time>2026-04-25T06:03:21.999Z</time></trkpt><trkpt lat="45.65489625504244" lon="9.255091954622047"><ele>228.14285714285717</ele><time>2026-04-25T06:03:22.999Z</time></trkpt><trkpt lat="45.65495366769367" lon="9.255049715335636"><ele>228.42857142857144</ele><time>2026-04-25T06:03:23.999Z</time></trkpt><trkpt lat="45.65501191125979" lon="9.255004471679241"><ele>228.71428571428572</ele><time>2026-04-25T06:03:24.999Z</time></trkpt><trkpt lat="45.655069465797986" lon="9.254962934593227"><ele>229.0</ele><time>2026-04-25T06:03:25.999Z</time></trkpt><trkpt lat="45.655182799451914" lon="9.254874487228706"><ele>228.99999999999997</ele><time>2026-04-25T06:03:27.999Z</time></trkpt><trkpt lat="45.65524054078638" lon="9.254833568321175"><ele>229.0</ele><time>2026-04-25T06:03:28.999Z</time></trkpt><trkpt lat="45.65535355203633" lon="9.254752717319468"><ele>229.0</ele><time>2026-04-25T06:03:30.999Z</time></trkpt><trkpt lat="45.65541015151246" lon="9.254710262759348"><ele>229.0</ele><time>2026-04-25T06:03:31.999Z</time></trkpt><trkpt lat="45.65552070021173" lon="9.254625401815797"><ele>228.99999999999997</ele><time>2026-04-25T06:03:33.999Z</time></trkpt><trkpt lat="45.65557697746987" lon="9.254582337652685"><ele>229.0</ele><time>2026-04-25T06:03:34.999Z</time></trkpt><trkpt lat="45.655635078853706" lon="9.254539431081556"><ele>229.6</ele><time>2026-04-25T06:03:35.999Z</time></trkpt><trkpt lat="45.6556922062791" lon="9.254500177559557"><ele>230.2</ele><time>2026-04-25T06:03:36.999Z</time></trkpt><trkpt lat="45.655798513876775" lon="9.254417571474313"><ele>230.79999999999998</ele><time>2026-04-25T06:03:38.999Z</time></trkpt><trkpt lat="45.65591231890796" lon="9.254348323672948"><ele>231.39999999999998</ele><time>2026-04-25T06:03:40.999Z</time></trkpt><trkpt lat="45.65603770173289" lon="9.254312343580505"><ele>232.0</ele><time>2026-04-25T06:03:42.999Z</time></trkpt><trkpt lat="45.65610565587917" lon="9.254301124766638"><ele>231.8571428571429</ele><time>2026-04-25T06:03:43.999Z</time></trkpt><trkpt lat="45.656169539737895" lon="9.254271846499096"><ele>231.71428571428572</ele><time>2026-04-25T06:03:44.999Z</time></trkpt><trkpt lat="45.65622264646757" lon="9.254212029916582"><ele>231.57142857142858</ele><time>2026-04-25T06:03:45.999Z</time></trkpt><trkpt lat="45.656265260866626" lon="9.254139328761706"><ele>231.42857142857144</ele><time>2026-04-25T06:03:46.999Z</time></trkpt><trkpt lat="45.65631313855015" lon="9.254066188925428"><ele>231.28571428571428</ele><time>2026-04-25T06:03:47.999Z</time></trkpt><trkpt lat="45.65636717027932" lon="9.254010109514956"><ele>231.14285714285714</ele><time>2026-04-25T06:03:48.999Z</time></trkpt><trkpt lat="45.65643107978009" lon="9.253970766293364"><ele>231.0</ele><time>2026-04-25T06:03:49.999Z</time></trkpt><trkpt lat="45.65649555374993" lon="9.253931316555738"><ele>231.28571428571428</ele><time>2026-04-25T06:03:50.999Z</time></trkpt><trkpt lat="45.65655726109513" lon="9.253887332387917"><ele>231.57142857142856</ele><time>2026-04-25T06:03:51.999Z</time></trkpt><trkpt lat="45.656614215135214" lon="9.253841654948003"><ele>231.85714285714286</ele><time>2026-04-25T06:03:52.999Z</time></trkpt><trkpt lat="45.656672728429314" lon="9.253796466578649"><ele>232.14285714285714</ele><time>2026-04-25T06:03:53.999Z</time></trkpt><trkpt lat="45.65673449829254" lon="9.253751992022702"><ele>232.42857142857142</ele><time>2026-04-25T06:03:54.999Z</time></trkpt><trkpt lat="45.65679508934693" lon="9.253707049498484"><ele>232.71428571428572</ele><time>2026-04-25T06:03:55.999Z</time></trkpt><trkpt lat="45.65685186901374" lon="9.253656721386605"><ele>233.0</ele><time>2026-04-25T06:03:56.999Z</time></trkpt><trkpt lat="45.65691434396398" lon="9.25361329380174"><ele>233.0</ele><time>2026-04-25T06:03:57.999Z</time></trkpt><trkpt lat="45.65697281391549" lon="9.253566682206412"><ele>233.0</ele><time>2026-04-25T06:03:58.999Z</time></trkpt><trkpt lat="45.65703126179312" lon="9.253523164384916"><ele>233.0</ele><time>2026-04-25T06:03:59.999Z</time></trkpt><trkpt lat="45.657090320414966" lon="9.253477243669025"><ele>233.0</ele><time>2026-04-25T06:04:00.999Z</time></trkpt><trkpt lat="45.65715142252344" lon="9.253427291183714"><ele>233.0</ele><time>2026-04-25T06:04:01.999Z</time></trkpt><trkpt lat="45.65721082483361" lon="9.253382976269437"><ele>233.0</ele><time>2026-04-25T06:04:02.999Z</time></trkpt><trkpt lat="45.65726998608643" lon="9.253340597040799"><ele>233.0</ele><time>2026-04-25T06:04:03.999Z</time></trkpt><trkpt lat="45.65732613340519" lon="9.253295621130327"><ele>233.0</ele><time>2026-04-25T06:04:04.999Z</time></trkpt><trkpt lat="45.65738596918821" lon="9.253260962712329"><ele>233.0</ele><time>2026-04-25T06:04:05.999Z</time></trkpt><trkpt lat="45.657448081170415" lon="9.253239968418153"><ele>233.0</ele><time>2026-04-25T06:04:06.999Z</time></trkpt><trkpt lat="45.65751591523479" lon="9.253255417035138"><ele>233.0</ele><time>2026-04-25T06:04:07.999Z</time></trkpt><trkpt lat="45.65757962145135" lon="9.253293081585904"><ele>233.0</ele><time>2026-04-25T06:04:08.999Z</time></trkpt><trkpt lat="45.65764680690891" lon="9.253310508755812"><ele>233.0</ele><time>2026-04-25T06:04:09.999Z</time></trkpt><trkpt lat="45.65771226080592" lon="9.253287855191251"><ele>233.0</ele><time>2026-04-25T06:04:10.999Z</time></trkpt><trkpt lat="45.657765641751816" lon="9.253229224517952"><ele>233.14285714285717</ele><time>2026-04-25T06:04:11.999Z</time></trkpt><trkpt lat="45.657805857941426" lon="9.253143078858004"><ele>233.28571428571428</ele><time>2026-04-25T06:04:12.999Z</time></trkpt><trkpt lat="45.65783266380416" lon="9.253040176805134"><ele>233.42857142857144</ele><time>2026-04-25T06:04:13.999Z</time></trkpt><trkpt lat="45.657861971005445" lon="9.252939797901487"><ele>233.57142857142858</ele><time>2026-04-25T06:04:14.999Z</time></trkpt><trkpt lat="45.65790793343855" lon="9.252862781482564"><ele>233.71428571428572</ele><time>2026-04-25T06:04:15.999Z</time></trkpt><trkpt lat="45.65797072229048" lon="9.252812827588352"><ele>233.85714285714286</ele><time>2026-04-25T06:04:16.999Z</time></trkpt><trkpt lat="45.65803967626673" lon="9.252774289291198"><ele>234.0</ele><time>2026-04-25T06:04:17.999Z</time></trkpt><trkpt lat="45.65810761423706" lon="9.252728180654476"><ele>234.0</ele><time>2026-04-25T06:04:18.999Z</time></trkpt><trkpt lat="45.658174663851746" lon="9.252677075281456"><ele>234.0</ele><time>2026-04-25T06:04:19.999Z</time></trkpt><trkpt lat="45.658239868920774" lon="9.252619067166044"><ele>234.0</ele><time>2026-04-25T06:04:20.999Z</time></trkpt><trkpt lat="45.658302257998066" lon="9.252553036437664"><ele>234.0</ele><time>2026-04-25T06:04:21.999Z</time></trkpt><trkpt lat="45.65836353178024" lon="9.252483189098417"><ele>234.0</ele><time>2026-04-25T06:04:22.999Z</time></trkpt><trkpt lat="45.65842510762251" lon="9.25241302713868"><ele>234.0</ele><time>2026-04-25T06:04:23.999Z</time></trkpt><trkpt lat="45.6584903863649" lon="9.252344697446267"><ele>233.83333333333334</ele><time>2026-04-25T06:04:24.999Z</time></trkpt><trkpt lat="45.658550280035" lon="9.252272031173787"><ele>233.66666666666669</ele><time>2026-04-25T06:04:25.999Z</time></trkpt><trkpt lat="45.65861316008021" lon="9.252198385074706"><ele>233.5</ele><time>2026-04-25T06:04:26.999Z</time></trkpt><trkpt lat="45.65867862109001" lon="9.252120497760224"><ele>233.33333333333334</ele><time>2026-04-25T06:04:27.999Z</time></trkpt><trkpt lat="45.65874523933886" lon="9.252041170618362"><ele>233.16666666666669</ele><time>2026-04-25T06:04:28.999Z</time></trkpt><trkpt lat="45.658815371775944" lon="9.251968759799942"><ele>233.0</ele><time>2026-04-25T06:04:29.999Z</time></trkpt><trkpt lat="45.65888601574527" lon="9.25189812723415"><ele>232.66666666666669</ele><time>2026-04-25T06:04:30.999Z</time></trkpt><trkpt lat="45.65895656490329" lon="9.251822681867074"><ele>232.33333333333334</ele><time>2026-04-25T06:04:31.999Z</time></trkpt><trkpt lat="45.65902541174705" lon="9.251742181754102"><ele>232.0</ele><time>2026-04-25T06:04:32.999Z</time></trkpt><trkpt lat="45.659094724767435" lon="9.251661229361957"><ele>231.66666666666669</ele><time>2026-04-25T06:04:34Z</time></trkpt><trkpt lat="45.65916270270033" lon="9.25158378441137"><ele>231.33333333333334</ele><time>2026-04-25T06:04:35Z</time></trkpt><trkpt lat="45.65923084633336" lon="9.251509093719422"><ele>231.0</ele><time>2026-04-25T06:04:36Z</time></trkpt><trkpt lat="45.659300280363695" lon="9.251430071976545"><ele>231.0</ele><time>2026-04-25T06:04:37Z</time></trkpt><trkpt lat="45.65936762705615" lon="9.25134819034519"><ele>231.0</ele><time>2026-04-25T06:04:38Z</time></trkpt><trkpt lat="45.659436534870046" lon="9.251268099307426"><ele>231.0</ele><time>2026-04-25T06:04:39Z</time></trkpt><trkpt lat="45.6595040937615" lon="9.251189291486707"><ele>231.0</ele><time>2026-04-25T06:04:40Z</time></trkpt><trkpt lat="45.65956943207688" lon="9.251112475915052"><ele>231.0</ele><time>2026-04-25T06:04:41Z</time></trkpt><trkpt lat="45.659636770708474" lon="9.251035411744315"><ele>231.0</ele><time>2026-04-25T06:04:42Z</time></trkpt><trkpt lat="45.65970621184487" lon="9.2509586345869"><ele>230.33333333333334</ele><time>2026-04-25T06:04:43Z</time></trkpt><trkpt lat="45.659777637981996" lon="9.250881514945695"><ele>229.66666666666669</ele><time>2026-04-25T06:04:44Z</time></trkpt><trkpt lat="45.659845100356634" lon="9.250801358491334"><ele>229.0</ele><time>2026-04-25T06:04:45Z</time></trkpt><trkpt lat="45.659914767309964" lon="9.250723174911979"><ele>228.33333333333334</ele><time>2026-04-25T06:04:46Z</time></trkpt><trkpt lat="45.65998377153655" lon="9.250647625864376"><ele>227.66666666666669</ele><time>2026-04-25T06:04:47Z</time></trkpt><trkpt lat="45.66005267583773" lon="9.250575397892627"><ele>227.0</ele><time>2026-04-25T06:04:48Z</time></trkpt><trkpt lat="45.660121623500686" lon="9.250504727427812"><ele>227.00000000000003</ele><time>2026-04-25T06:04:49Z</time></trkpt><trkpt lat="45.66019141967211" lon="9.250433097649028"><ele>227.0</ele><time>2026-04-25T06:04:50Z</time></trkpt><trkpt lat="45.660263737845355" lon="9.250366803081725"><ele>227.0</ele><time>2026-04-25T06:04:51Z</time></trkpt><trkpt lat="45.660339082567376" lon="9.250303968539386"><ele>227.0</ele><time>2026-04-25T06:04:52Z</time></trkpt><trkpt lat="45.66041422127113" lon="9.25024844672442"><ele>227.00000000000003</ele><time>2026-04-25T06:04:53Z</time></trkpt><trkpt lat="45.66049043718208" lon="9.250196515362635"><ele>227.0</ele><time>2026-04-25T06:04:54Z</time></trkpt><trkpt lat="45.66056785244937" lon="9.250146474537377"><ele>227.16666666666669</ele><time>2026-04-25T06:04:55Z</time></trkpt><trkpt lat="45.66064337574266" lon="9.250097127009301"><ele>227.33333333333334</ele><time>2026-04-25T06:04:56Z</time></trkpt><trkpt lat="45.66071821949223" lon="9.250046829536757"><ele>227.5</ele><time>2026-04-25T06:04:57Z</time></trkpt><trkpt lat="45.660793873971514" lon="9.249998788790245"><ele>227.66666666666669</ele><time>2026-04-25T06:04:58Z</time></trkpt><trkpt lat="45.66086883275171" lon="9.249949793006175"><ele>227.83333333333334</ele><time>2026-04-25T06:04:59Z</time></trkpt><trkpt lat="45.6609438152322" lon="9.249900730233138"><ele>228.0</ele><time>2026-04-25T06:05:00Z</time></trkpt><trkpt lat="45.66101846044549" lon="9.249852940919856"><ele>228.0</ele><time>2026-04-25T06:05:01Z</time></trkpt><trkpt lat="45.66109385346715" lon="9.249801366026782"><ele>228.0</ele><time>2026-04-25T06:05:02Z</time></trkpt><trkpt lat="45.66116945449644" lon="9.24975173232315"><ele>228.0</ele><time>2026-04-25T06:05:03Z</time></trkpt><trkpt lat="45.661242964552486" lon="9.249701799713524"><ele>228.0</ele><time>2026-04-25T06:05:04Z</time></trkpt><trkpt lat="45.66131572167502" lon="9.24965516094247"><ele>228.0</ele><time>2026-04-25T06:05:05Z</time></trkpt><trkpt lat="45.66138736892453" lon="9.249608518134606"><ele>228.0</ele><time>2026-04-25T06:05:06Z</time></trkpt><trkpt lat="45.66146066620082" lon="9.249559144452922"><ele>228.0</ele><time>2026-04-25T06:05:07Z</time></trkpt><trkpt lat="45.661533166097136" lon="9.249510824970379"><ele>228.0</ele><time>2026-04-25T06:05:07.999Z</time></trkpt><trkpt lat="45.66160508695162" lon="9.249464154832548"><ele>228.0</ele><time>2026-04-25T06:05:08.999Z</time></trkpt><trkpt lat="45.661677936024546" lon="9.249415729788742"><ele>228.0</ele><time>2026-04-25T06:05:09.999Z</time></trkpt><trkpt lat="45.66175283253168" lon="9.249365860001484"><ele>228.0</ele><time>2026-04-25T06:05:10.999Z</time></trkpt><trkpt lat="45.66182607091319" lon="9.24931939797322"><ele>228.0</ele><time>2026-04-25T06:05:11.999Z</time></trkpt><trkpt lat="45.66189885118694" lon="9.249274605210852"><ele>228.0</ele><time>2026-04-25T06:05:12.999Z</time></trkpt><trkpt lat="45.6619672312589" lon="9.249224734699206"><ele>228.0</ele><time>2026-04-25T06:05:13.999Z</time></trkpt><trkpt lat="45.66203926631119" lon="9.249177874733759"><ele>228.0</ele><time>2026-04-25T06:05:14.999Z</time></trkpt><trkpt lat="45.6621110752901" lon="9.249130325591922"><ele>228.0</ele><time>2026-04-25T06:05:15.999Z</time></trkpt><trkpt lat="45.66218162470763" lon="9.2490852599396"><ele>228.0</ele><time>2026-04-25T06:05:16.999Z</time></trkpt><trkpt lat="45.662252201515884" lon="9.249039927457579"><ele>228.0</ele><time>2026-04-25T06:05:17.999Z</time></trkpt><trkpt lat="45.66232205446782" lon="9.248992036585737"><ele>227.83333333333334</ele><time>2026-04-25T06:05:18.999Z</time></trkpt><trkpt lat="45.66239347430708" lon="9.248946022050413"><ele>227.66666666666669</ele><time>2026-04-25T06:05:19.999Z</time></trkpt><trkpt lat="45.66246378547855" lon="9.24889887235991"><ele>227.5</ele><time>2026-04-25T06:05:20.999Z</time></trkpt><trkpt lat="45.662532936265734" lon="9.2488532430264"><ele>227.33333333333334</ele><time>2026-04-25T06:05:21.999Z</time></trkpt><trkpt lat="45.6626010502905" lon="9.248804388474595"><ele>227.16666666666669</ele><time>2026-04-25T06:05:22.999Z</time></trkpt><trkpt lat="45.66267161519487" lon="9.248758731108506"><ele>227.0</ele><time>2026-04-25T06:05:23.999Z</time></trkpt><trkpt lat="45.66274087068003" lon="9.248717810953568"><ele>227.00000000000003</ele><time>2026-04-25T06:05:24.999Z</time></trkpt><trkpt lat="45.662808695838145" lon="9.248671618464003"><ele>227.0</ele><time>2026-04-25T06:05:25.999Z</time></trkpt><trkpt lat="45.66287643791013" lon="9.248626194338325"><ele>227.0</ele><time>2026-04-25T06:05:26.999Z</time></trkpt><trkpt lat="45.6629456418653" lon="9.248582151229742"><ele>227.0</ele><time>2026-04-25T06:05:27.999Z</time></trkpt><trkpt lat="45.66301473759156" lon="9.248536219389205"><ele>227.00000000000003</ele><time>2026-04-25T06:05:28.999Z</time></trkpt><trkpt lat="45.66308377385476" lon="9.248488600410836"><ele>227.0</ele><time>2026-04-25T06:05:29.999Z</time></trkpt><trkpt lat="45.663151063791936" lon="9.24844669620711"><ele>227.00000000000003</ele><time>2026-04-25T06:05:30.999Z</time></trkpt><trkpt lat="45.66321890688053" lon="9.248402517069122"><ele>227.0</ele><time>2026-04-25T06:05:31.999Z</time></trkpt><trkpt lat="45.66328714835324" lon="9.248356381066072"><ele>227.0</ele><time>2026-04-25T06:05:32.999Z</time></trkpt><trkpt lat="45.66335586357607" lon="9.248312473003926"><ele>227.0</ele><time>2026-04-25T06:05:33.999Z</time></trkpt><trkpt lat="45.66342534253982" lon="9.248267229493841"><ele>227.00000000000003</ele><time>2026-04-25T06:05:34.999Z</time></trkpt><trkpt lat="45.66349436943005" lon="9.24822041640802"><ele>227.0</ele><time>2026-04-25T06:05:35.999Z</time></trkpt><trkpt lat="45.66356530524338" lon="9.248175902607276"><ele>227.16666666666669</ele><time>2026-04-25T06:05:36.999Z</time></trkpt><trkpt lat="45.66363496539181" lon="9.248129932382884"><ele>227.33333333333334</ele><time>2026-04-25T06:05:37.999Z</time></trkpt><trkpt lat="45.6637062605981" lon="9.248082500735142"><ele>227.5</ele><time>2026-04-25T06:05:38.999Z</time></trkpt><trkpt lat="45.663776768623116" lon="9.248034740458621"><ele>227.66666666666669</ele><time>2026-04-25T06:05:39.999Z</time></trkpt><trkpt lat="45.66384635197389" lon="9.247987252886599"><ele>227.83333333333334</ele><time>2026-04-25T06:05:40.999Z</time></trkpt><trkpt lat="45.663918218815375" lon="9.24793847865414"><ele>228.0</ele><time>2026-04-25T06:05:41.999Z</time></trkpt><trkpt lat="45.66399017795796" lon="9.247891125898844"><ele>228.5</ele><time>2026-04-25T06:05:42.999Z</time></trkpt><trkpt lat="45.66406259675827" lon="9.247843317080033"><ele>229.0</ele><time>2026-04-25T06:05:43.999Z</time></trkpt><trkpt lat="45.664134590071015" lon="9.247795587257155"><ele>229.5</ele><time>2026-04-25T06:05:44.999Z</time></trkpt><trkpt lat="45.66420819411534" lon="9.247749121047008"><ele>230.0</ele><time>2026-04-25T06:05:45.999Z</time></trkpt><trkpt lat="45.66428139213448" lon="9.24770252094225"><ele>230.5</ele><time>2026-04-25T06:05:46.999Z</time></trkpt><trkpt lat="45.66435418973775" lon="9.247656655265587"><ele>231.0</ele><time>2026-04-25T06:05:47.999Z</time></trkpt><trkpt lat="45.66442594592137" lon="9.24760776297882"><ele>230.5</ele><time>2026-04-25T06:05:48.999Z</time></trkpt><trkpt lat="45.66449848828031" lon="9.247557503396136"><ele>230.0</ele><time>2026-04-25T06:05:49.999Z</time></trkpt><trkpt lat="45.66457101322202" lon="9.24751002916216"><ele>229.5</ele><time>2026-04-25T06:05:50.999Z</time></trkpt><trkpt lat="45.66464254312447" lon="9.247467433526486"><ele>229.0</ele><time>2026-04-25T06:05:51.999Z</time></trkpt><trkpt lat="45.664715645778784" lon="9.24742243897107"><ele>228.5</ele><time>2026-04-25T06:05:52.999Z</time></trkpt><trkpt lat="45.66478677865139" lon="9.247377503943055"><ele>228.0</ele><time>2026-04-25T06:05:53.999Z</time></trkpt><trkpt lat="45.6648576605901" lon="9.247330979410851"><ele>228.0</ele><time>2026-04-25T06:05:54.999Z</time></trkpt><trkpt lat="45.664928640121026" lon="9.247279439624439"><ele>228.0</ele><time>2026-04-25T06:05:55.999Z</time></trkpt><trkpt lat="45.66499760242087" lon="9.247229947145936"><ele>228.0</ele><time>2026-04-25T06:05:56.999Z</time></trkpt><trkpt lat="45.66506877003812" lon="9.247184174526225"><ele>228.0</ele><time>2026-04-25T06:05:57.999Z</time></trkpt><trkpt lat="45.66514225846805" lon="9.247134978511998"><ele>228.0</ele><time>2026-04-25T06:05:58.999Z</time></trkpt><trkpt lat="45.665213980053124" lon="9.247089144496304"><ele>228.0</ele><time>2026-04-25T06:05:59.999Z</time></trkpt><trkpt lat="45.665283260297976" lon="9.247041560515296"><ele>228.0</ele><time>2026-04-25T06:06:00.999Z</time></trkpt><trkpt lat="45.66535315161621" lon="9.246993760507431"><ele>228.0</ele><time>2026-04-25T06:06:01.999Z</time></trkpt><trkpt lat="45.66542544155002" lon="9.246946618505199"><ele>228.0</ele><time>2026-04-25T06:06:02.999Z</time></trkpt><trkpt lat="45.665496424927724" lon="9.246900665373191"><ele>228.0</ele><time>2026-04-25T06:06:03.999Z</time></trkpt><trkpt lat="45.66556657409365" lon="9.246855242783843"><ele>228.0</ele><time>2026-04-25T06:06:04.999Z</time></trkpt><trkpt lat="45.66563547505502" lon="9.246808290882356"><ele>228.0</ele><time>2026-04-25T06:06:05.999Z</time></trkpt><trkpt lat="45.66570704642449" lon="9.246761858320305"><ele>228.0</ele><time>2026-04-25T06:06:06.999Z</time></trkpt><trkpt lat="45.665775923088496" lon="9.246718740564216"><ele>228.0</ele><time>2026-04-25T06:06:07.999Z</time></trkpt><trkpt lat="45.665846471049264" lon="9.246679290972999"><ele>228.0</ele><time>2026-04-25T06:06:08.999Z</time></trkpt><trkpt lat="45.66591829699373" lon="9.246635497634392"><ele>228.0</ele><time>2026-04-25T06:06:09.999Z</time></trkpt><trkpt lat="45.66599021016032" lon="9.246587634521001"><ele>228.0</ele><time>2026-04-25T06:06:10.999Z</time></trkpt><trkpt lat="45.66606358819531" lon="9.2465436315046"><ele>228.0</ele><time>2026-04-25T06:06:11.999Z</time></trkpt><trkpt lat="45.66613803083788" lon="9.246496504808404"><ele>228.16666666666666</ele><time>2026-04-25T06:06:12.999Z</time></trkpt><trkpt lat="45.6662120419654" lon="9.246448320737299"><ele>228.33333333333331</ele><time>2026-04-25T06:06:13.999Z</time></trkpt><trkpt lat="45.6662849317482" lon="9.24639668270117"><ele>228.5</ele><time>2026-04-25T06:06:14.999Z</time></trkpt><trkpt lat="45.666359066038204" lon="9.246345437272266"><ele>228.66666666666666</ele><time>2026-04-25T06:06:15.999Z</time></trkpt><trkpt lat="45.66643288102319" lon="9.246297202258773"><ele>228.83333333333331</ele><time>2026-04-25T06:06:16.999Z</time></trkpt><trkpt lat="45.666504578065414" lon="9.246250888452957"><ele>229.0</ele><time>2026-04-25T06:06:17.999Z</time></trkpt><trkpt lat="45.66657372899815" lon="9.246206571754172"><ele>228.99999999999997</ele><time>2026-04-25T06:06:18.999Z</time></trkpt><trkpt lat="45.66664457033842" lon="9.246163847513781"><ele>229.0</ele><time>2026-04-25T06:06:19.999Z</time></trkpt><trkpt lat="45.66671637922046" lon="9.246118140780885"><ele>229.0</ele><time>2026-04-25T06:06:20.999Z</time></trkpt><trkpt lat="45.666787079890945" lon="9.246073551837531"><ele>229.0</ele><time>2026-04-25T06:06:21.999Z</time></trkpt><trkpt lat="45.66685550179086" lon="9.246024914597646"><ele>228.99999999999997</ele><time>2026-04-25T06:06:22.999Z</time></trkpt><trkpt lat="45.66692693132027" lon="9.245975228133227"><ele>229.0</ele><time>2026-04-25T06:06:23.999Z</time></trkpt><trkpt lat="45.66699416614908" lon="9.245927205771899"><ele>229.28571428571428</ele><time>2026-04-25T06:06:24.999Z</time></trkpt><trkpt lat="45.66706313964692" lon="9.245885590713364"><ele>229.57142857142858</ele><time>2026-04-25T06:06:25.999Z</time></trkpt><trkpt lat="45.66713138871932" lon="9.24584298685257"><ele>229.85714285714286</ele><time>2026-04-25T06:06:26.999Z</time></trkpt><trkpt lat="45.667197499359176" lon="9.245796655965496"><ele>230.14285714285714</ele><time>2026-04-25T06:06:27.999Z</time></trkpt><trkpt lat="45.66726334717743" lon="9.2457540717682"><ele>230.42857142857144</ele><time>2026-04-25T06:06:28.999Z</time></trkpt><trkpt lat="45.6673310222767" lon="9.245712309213996"><ele>230.71428571428572</ele><time>2026-04-25T06:06:29.999Z</time></trkpt><trkpt lat="45.667399512814114" lon="9.245667544296948"><ele>231.0</ele><time>2026-04-25T06:06:30.999Z</time></trkpt><trkpt lat="45.66746826557855" lon="9.24561650842914"><ele>231.0</ele><time>2026-04-25T06:06:31.999Z</time></trkpt><trkpt lat="45.66753687382144" lon="9.24556738639635"><ele>231.0</ele><time>2026-04-25T06:06:32.999Z</time></trkpt><trkpt lat="45.66760546474839" lon="9.245518320618487"><ele>231.0</ele><time>2026-04-25T06:06:33.999Z</time></trkpt><trkpt lat="45.66767555509499" lon="9.245471676465893"><ele>231.0</ele><time>2026-04-25T06:06:34.999Z</time></trkpt><trkpt lat="45.667745587794855" lon="9.24542559499303"><ele>231.0</ele><time>2026-04-25T06:06:35.999Z</time></trkpt><trkpt lat="45.66781613887181" lon="9.245379982659928"><ele>231.0</ele><time>2026-04-25T06:06:36.999Z</time></trkpt><trkpt lat="45.66788151143444" lon="9.245337020802873"><ele>231.42857142857144</ele><time>2026-04-25T06:06:37.999Z</time></trkpt><trkpt lat="45.667948130782946" lon="9.245298465711334"><ele>231.85714285714286</ele><time>2026-04-25T06:06:38.999Z</time></trkpt><trkpt lat="45.66801470272571" lon="9.24526222873554"><ele>232.28571428571428</ele><time>2026-04-25T06:06:40Z</time></trkpt><trkpt lat="45.668079512445" lon="9.24522631645257"><ele>232.71428571428572</ele><time>2026-04-25T06:06:41Z</time></trkpt><trkpt lat="45.66814420184357" lon="9.245189565942951"><ele>233.14285714285717</ele><time>2026-04-25T06:06:42Z</time></trkpt><trkpt lat="45.66821123309729" lon="9.245151832251628"><ele>233.57142857142858</ele><time>2026-04-25T06:06:43Z</time></trkpt><trkpt lat="45.66827821879623" lon="9.245116175225425"><ele>234.0</ele><time>2026-04-25T06:06:44Z</time></trkpt><trkpt lat="45.66834279778198" lon="9.245083220737024"><ele>234.0</ele><time>2026-04-25T06:06:45Z</time></trkpt><trkpt lat="45.66840674873719" lon="9.245050916574131"><ele>234.00000000000003</ele><time>2026-04-25T06:06:46Z</time></trkpt><trkpt lat="45.66847184064406" lon="9.245023061688961"><ele>234.0</ele><time>2026-04-25T06:06:47Z</time></trkpt><trkpt lat="45.668535568639314" lon="9.244994003630536"><ele>234.0</ele><time>2026-04-25T06:06:48Z</time></trkpt><trkpt lat="45.668599664226086" lon="9.24496552825666"><ele>234.00000000000003</ele><time>2026-04-25T06:06:49Z</time></trkpt><trkpt lat="45.668662253439244" lon="9.24493885257347"><ele>234.0</ele><time>2026-04-25T06:06:50Z</time></trkpt><trkpt lat="45.66872605796428" lon="9.244919278982767"><ele>234.0</ele><time>2026-04-25T06:06:51Z</time></trkpt><trkpt lat="45.668788623744064" lon="9.244898759364258"><ele>235.0</ele><time>2026-04-25T06:06:52Z</time></trkpt><trkpt lat="45.668852864167974" lon="9.244869868276536"><ele>236.0</ele><time>2026-04-25T06:06:53Z</time></trkpt><trkpt lat="45.668975011153435" lon="9.244814612791727"><ele>237.0</ele><time>2026-04-25T06:06:55Z</time></trkpt><trkpt lat="45.66903844563292" lon="9.244788990743247"><ele>238.0</ele><time>2026-04-25T06:06:56Z</time></trkpt><trkpt lat="45.66910199585672" lon="9.244762831162635"><ele>239.0</ele><time>2026-04-25T06:06:57Z</time></trkpt><trkpt lat="45.66916628612955" lon="9.24473550447847"><ele>240.0</ele><time>2026-04-25T06:06:58Z</time></trkpt><trkpt lat="45.66922835049008" lon="9.244708139271687"><ele>240.0</ele><time>2026-04-25T06:06:59Z</time></trkpt><trkpt lat="45.66929185141368" lon="9.244684299180081"><ele>240.0</ele><time>2026-04-25T06:07:00Z</time></trkpt><trkpt lat="45.669355907440526" lon="9.244660406180406"><ele>240.0</ele><time>2026-04-25T06:07:01Z</time></trkpt><trkpt lat="45.66942030277653" lon="9.24463670690188"><ele>240.0</ele><time>2026-04-25T06:07:02Z</time></trkpt><trkpt lat="45.669484150214586" lon="9.24461620421208"><ele>240.0</ele><time>2026-04-25T06:07:03Z</time></trkpt><trkpt lat="45.669547124376024" lon="9.244591460956324"><ele>240.0</ele><time>2026-04-25T06:07:04Z</time></trkpt><trkpt lat="45.669612499648906" lon="9.244567439900594"><ele>240.0</ele><time>2026-04-25T06:07:05Z</time></trkpt><trkpt lat="45.66967576410045" lon="9.244545867127915"><ele>240.0</ele><time>2026-04-25T06:07:06Z</time></trkpt><trkpt lat="45.66974135590416" lon="9.244520199582755"><ele>240.0</ele><time>2026-04-25T06:07:07Z</time></trkpt><trkpt lat="45.66980657977124" lon="9.244492609034822"><ele>240.0</ele><time>2026-04-25T06:07:08Z</time></trkpt><trkpt lat="45.669872587992835" lon="9.244469400580568"><ele>240.0</ele><time>2026-04-25T06:07:09Z</time></trkpt><trkpt lat="45.66993913220788" lon="9.244448916735244"><ele>240.0</ele><time>2026-04-25T06:07:10Z</time></trkpt><trkpt lat="45.670000073181235" lon="9.244425504442384"><ele>240.0</ele><time>2026-04-25T06:07:11Z</time></trkpt><trkpt lat="45.670062064230834" lon="9.244398375200564"><ele>240.0</ele><time>2026-04-25T06:07:11.999Z</time></trkpt><trkpt lat="45.67012722708427" lon="9.244374374323511"><ele>240.0</ele><time>2026-04-25T06:07:12.999Z</time></trkpt><trkpt lat="45.670187972634025" lon="9.24435016924769"><ele>240.0</ele><time>2026-04-25T06:07:13.999Z</time></trkpt><trkpt lat="45.670249907607065" lon="9.244327730651703"><ele>240.0</ele><time>2026-04-25T06:07:14.999Z</time></trkpt><trkpt lat="45.67031137323005" lon="9.24430625576005"><ele>240.0</ele><time>2026-04-25T06:07:15.999Z</time></trkpt><trkpt lat="45.670373442815" lon="9.24428548486067"><ele>240.0</ele><time>2026-04-25T06:07:16.999Z</time></trkpt><trkpt lat="45.67043788930216" lon="9.244260051423677"><ele>240.0</ele><time>2026-04-25T06:07:17.999Z</time></trkpt><trkpt lat="45.67050013997409" lon="9.244234420070104"><ele>240.0</ele><time>2026-04-25T06:07:18.999Z</time></trkpt><trkpt lat="45.67056285919627" lon="9.244210326022174"><ele>239.85714285714286</ele><time>2026-04-25T06:07:19.999Z</time></trkpt><trkpt lat="45.670624424419515" lon="9.244191400821554"><ele>239.71428571428572</ele><time>2026-04-25T06:07:20.999Z</time></trkpt><trkpt lat="45.67068713087114" lon="9.24417099770885"><ele>239.57142857142858</ele><time>2026-04-25T06:07:21.999Z</time></trkpt><trkpt lat="45.670751457568905" lon="9.24414547698555"><ele>239.42857142857144</ele><time>2026-04-25T06:07:22.999Z</time></trkpt><trkpt lat="45.67087044180921" lon="9.244106720306684"><ele>239.28571428571428</ele><time>2026-04-25T06:07:24.999Z</time></trkpt><trkpt lat="45.6709337705165" lon="9.24408663311888"><ele>239.14285714285717</ele><time>2026-04-25T06:07:25.999Z</time></trkpt><trkpt lat="45.670997939255116" lon="9.24406376914708"><ele>239.00000000000003</ele><time>2026-04-25T06:07:26.999Z</time></trkpt><trkpt lat="45.671062178314024" lon="9.244042415348051"><ele>239.66666666666669</ele><time>2026-04-25T06:07:27.999Z</time></trkpt><trkpt lat="45.67118630553643" lon="9.243995883978005"><ele>240.33333333333334</ele><time>2026-04-25T06:07:29.999Z</time></trkpt><trkpt lat="45.671252027336116" lon="9.24397527043628"><ele>241.0</ele><time>2026-04-25T06:07:30.999Z</time></trkpt><trkpt lat="45.67131791936143" lon="9.24395453762619"><ele>241.66666666666669</ele><time>2026-04-25T06:07:31.999Z</time></trkpt><trkpt lat="45.67138108260597" lon="9.243937748006076"><ele>242.33333333333334</ele><time>2026-04-25T06:07:32.999Z</time></trkpt><trkpt lat="45.67144266917595" lon="9.243912131368624"><ele>243.0</ele><time>2026-04-25T06:07:33.999Z</time></trkpt><trkpt lat="45.67150479019809" lon="9.24388604519026"><ele>243.5</ele><time>2026-04-25T06:07:34.999Z</time></trkpt><trkpt lat="45.671567862695824" lon="9.243866065228955"><ele>244.0</ele><time>2026-04-25T06:07:35.999Z</time></trkpt><trkpt lat="45.67162983435208" lon="9.243841692267813"><ele>244.5</ele><time>2026-04-25T06:07:36.999Z</time></trkpt><trkpt lat="45.67169436103764" lon="9.243821219362186"><ele>245.0</ele><time>2026-04-25T06:07:37.999Z</time></trkpt><trkpt lat="45.67175710884613" lon="9.243796363830896"><ele>245.5</ele><time>2026-04-25T06:07:38.999Z</time></trkpt><trkpt lat="45.67188027355366" lon="9.243748087564434"><ele>246.0</ele><time>2026-04-25T06:07:40.999Z</time></trkpt><trkpt lat="45.671996871723245" lon="9.243704317659235"><ele>246.0</ele><time>2026-04-25T06:07:42.999Z</time></trkpt><trkpt lat="45.672118668756056" lon="9.243664823745615"><ele>246.00000000000003</ele><time>2026-04-25T06:07:44.999Z</time></trkpt><trkpt lat="45.67223712934662" lon="9.24362127512795"><ele>246.00000000000003</ele><time>2026-04-25T06:07:46.999Z</time></trkpt><trkpt lat="45.67235822289645" lon="9.243576627498857"><ele>246.0</ele><time>2026-04-25T06:07:48.999Z</time></trkpt><trkpt lat="45.672420876272746" lon="9.243558283879636"><ele>246.0</ele><time>2026-04-25T06:07:49.999Z</time></trkpt><trkpt lat="45.672538635512986" lon="9.24350073698907"><ele>246.0</ele><time>2026-04-25T06:07:51.999Z</time></trkpt><trkpt lat="45.67265329145741" lon="9.243432507115651"><ele>246.00000000000003</ele><time>2026-04-25T06:07:53.999Z</time></trkpt><trkpt lat="45.67276810274341" lon="9.243361329609803"><ele>246.00000000000003</ele><time>2026-04-25T06:07:55.999Z</time></trkpt><trkpt lat="45.67288965840624" lon="9.243317735811347"><ele>246.0</ele><time>2026-04-25T06:07:57.999Z</time></trkpt><trkpt lat="45.672958275691855" lon="9.24332026672139"><ele>246.0</ele><time>2026-04-25T06:07:58.999Z</time></trkpt><trkpt lat="45.673024459856755" lon="9.243319359312688"><ele>245.66666666666666</ele><time>2026-04-25T06:07:59.999Z</time></trkpt><trkpt lat="45.673144967730146" lon="9.243280523164529"><ele>245.33333333333331</ele><time>2026-04-25T06:08:01.999Z</time></trkpt><trkpt lat="45.67320970580269" lon="9.243257865797199"><ele>245.0</ele><time>2026-04-25T06:08:02.999Z</time></trkpt><trkpt lat="45.673273755686196" lon="9.24323670585168"><ele>244.66666666666666</ele><time>2026-04-25T06:08:03.999Z</time></trkpt><trkpt lat="45.67333651253682" lon="9.243216129687934"><ele>244.33333333333331</ele><time>2026-04-25T06:08:04.999Z</time></trkpt><trkpt lat="45.67345629077351" lon="9.243178754705987"><ele>244.0</ele><time>2026-04-25T06:08:06.999Z</time></trkpt><trkpt lat="45.67357597212145" lon="9.243139137865867"><ele>245.0</ele><time>2026-04-25T06:08:08.999Z</time></trkpt><trkpt lat="45.67368914687219" lon="9.243101915067502"><ele>245.99999999999997</ele><time>2026-04-25T06:08:10.999Z</time></trkpt><trkpt lat="45.673797315757334" lon="9.243071451536691"><ele>246.99999999999997</ele><time>2026-04-25T06:08:12.999Z</time></trkpt><trkpt lat="45.673917253929375" lon="9.243022406372123"><ele>248.0</ele><time>2026-04-25T06:08:14.999Z</time></trkpt><trkpt lat="45.67398153667793" lon="9.243000684488116"><ele>249.0</ele><time>2026-04-25T06:08:15.999Z</time></trkpt><trkpt lat="45.674044297796186" lon="9.242981963008454"><ele>249.0</ele><time>2026-04-25T06:08:16.999Z</time></trkpt><trkpt lat="45.674109807756366" lon="9.242960356007805"><ele>248.99999999999997</ele><time>2026-04-25T06:08:17.999Z</time></trkpt><trkpt lat="45.67417927785876" lon="9.242943519946346"><ele>249.0</ele><time>2026-04-25T06:08:18.999Z</time></trkpt><trkpt lat="45.67424672120682" lon="9.242933103696545"><ele>249.0</ele><time>2026-04-25T06:08:19.999Z</time></trkpt><trkpt lat="45.674316715877396" lon="9.242923255450776"><ele>248.99999999999997</ele><time>2026-04-25T06:08:20.999Z</time></trkpt><trkpt lat="45.67438970062776" lon="9.242909247497552"><ele>249.0</ele><time>2026-04-25T06:08:21.999Z</time></trkpt><trkpt lat="45.67446049607971" lon="9.24289661690211"><ele>249.0</ele><time>2026-04-25T06:08:22.999Z</time></trkpt><trkpt lat="45.67452983899244" lon="9.242889968557705"><ele>249.0</ele><time>2026-04-25T06:08:23.999Z</time></trkpt><trkpt lat="45.6745991712459" lon="9.242887589952927"><ele>248.99999999999997</ele><time>2026-04-25T06:08:24.999Z</time></trkpt><trkpt lat="45.674673478766394" lon="9.242888592055362"><ele>249.0</ele><time>2026-04-25T06:08:25.999Z</time></trkpt><trkpt lat="45.674748665776605" lon="9.242893905742111"><ele>249.0</ele><time>2026-04-25T06:08:26.999Z</time></trkpt><trkpt lat="45.67482495099271" lon="9.242895131077637"><ele>248.99999999999997</ele><time>2026-04-25T06:08:27.999Z</time></trkpt><trkpt lat="45.67489995271029" lon="9.242898111401427"><ele>249.0</ele><time>2026-04-25T06:08:28.999Z</time></trkpt><trkpt lat="45.67497131843293" lon="9.242903573195896"><ele>249.0</ele><time>2026-04-25T06:08:29.999Z</time></trkpt><trkpt lat="45.67504155658097" lon="9.242911012224454"><ele>249.0</ele><time>2026-04-25T06:08:30.999Z</time></trkpt><trkpt lat="45.675111785119725" lon="9.242920977496745"><ele>248.99999999999997</ele><time>2026-04-25T06:08:31.999Z</time></trkpt><trkpt lat="45.67518416728026" lon="9.242924888467794"><ele>249.0</ele><time>2026-04-25T06:08:32.999Z</time></trkpt><trkpt lat="45.67525327206703" lon="9.242927235785867"><ele>249.0</ele><time>2026-04-25T06:08:33.999Z</time></trkpt><trkpt lat="45.675322646134944" lon="9.242928978801526"><ele>248.99999999999997</ele><time>2026-04-25T06:08:34.999Z</time></trkpt><trkpt lat="45.6753900534145" lon="9.242931271918378"><ele>249.0</ele><time>2026-04-25T06:08:35.999Z</time></trkpt><trkpt lat="45.6754586483999" lon="9.242930686083035"><ele>249.0</ele><time>2026-04-25T06:08:36.999Z</time></trkpt><trkpt lat="45.67558404445041" lon="9.242928710387742"><ele>248.6</ele><time>2026-04-25T06:08:38.999Z</time></trkpt><trkpt lat="45.675647760397666" lon="9.242927538100732"><ele>248.2</ele><time>2026-04-25T06:08:39.999Z</time></trkpt><trkpt lat="45.67577432773632" lon="9.242928944431336"><ele>247.79999999999998</ele><time>2026-04-25T06:08:41.999Z</time></trkpt><trkpt lat="45.67589338894086" lon="9.242971104993797"><ele>247.39999999999998</ele><time>2026-04-25T06:08:43.999Z</time></trkpt><trkpt lat="45.67600373049981" lon="9.243044072648214"><ele>247.0</ele><time>2026-04-25T06:08:46Z</time></trkpt><trkpt lat="45.67610227445327" lon="9.243100379593027"><ele>246.6</ele><time>2026-04-25T06:08:48Z</time></trkpt><trkpt lat="45.67616643774658" lon="9.242955700708466"><ele>246.2</ele><time>2026-04-25T06:08:49Z</time></trkpt><trkpt lat="45.676195150462014" lon="9.242874894577302"><ele>245.8</ele><time>2026-04-25T06:08:50Z</time></trkpt><trkpt lat="45.67627916259323" lon="9.242742100391203"><ele>245.4</ele><time>2026-04-25T06:08:52Z</time></trkpt><trkpt lat="45.67632747320938" lon="9.242678763431265"><ele>245.0</ele><time>2026-04-25T06:08:53Z</time></trkpt><trkpt lat="45.67641291927241" lon="9.242678762161134"><ele>245.00000000000003</ele><time>2026-04-25T06:08:54Z</time></trkpt><trkpt lat="45.676472569065986" lon="9.242649920478815"><ele>245.0</ele><time>2026-04-25T06:08:55Z</time></trkpt><trkpt lat="45.676590080862844" lon="9.242575799569096"><ele>245.0</ele><time>2026-04-25T06:08:57Z</time></trkpt><trkpt lat="45.676649645539754" lon="9.242530783029153"><ele>245.0</ele><time>2026-04-25T06:08:58Z</time></trkpt><trkpt lat="45.676708878016655" lon="9.242482173569279"><ele>245.00000000000003</ele><time>2026-04-25T06:08:59Z</time></trkpt><trkpt lat="45.676769340124295" lon="9.242433268120624"><ele>245.0</ele><time>2026-04-25T06:09:00Z</time></trkpt><trkpt lat="45.67683013136064" lon="9.24238098944363"><ele>245.0</ele><time>2026-04-25T06:09:01Z</time></trkpt><trkpt lat="45.67689104432735" lon="9.242327189630148"><ele>245.0</ele><time>2026-04-25T06:09:02Z</time></trkpt><trkpt lat="45.67694900802434" lon="9.242271295990706"><ele>245.0</ele><time>2026-04-25T06:09:03Z</time></trkpt><trkpt lat="45.67700547455944" lon="9.242210158021633"><ele>245.0</ele><time>2026-04-25T06:09:04Z</time></trkpt><trkpt lat="45.67706284362369" lon="9.242146652240507"><ele>245.0</ele><time>2026-04-25T06:09:05Z</time></trkpt><trkpt lat="45.677115512617185" lon="9.242078123093558"><ele>245.0</ele><time>2026-04-25T06:09:06Z</time></trkpt><trkpt lat="45.67716477552584" lon="9.242011366290917"><ele>245.0</ele><time>2026-04-25T06:09:07Z</time></trkpt><trkpt lat="45.677213336824174" lon="9.241945890271497"><ele>245.16666666666669</ele><time>2026-04-25T06:09:08Z</time></trkpt><trkpt lat="45.67726169673767" lon="9.241879927641483"><ele>245.33333333333334</ele><time>2026-04-25T06:09:09Z</time></trkpt><trkpt lat="45.6773089339951" lon="9.241807113480805"><ele>245.5</ele><time>2026-04-25T06:09:10Z</time></trkpt><trkpt lat="45.6773540418546" lon="9.241730750482581"><ele>245.66666666666669</ele><time>2026-04-25T06:09:11Z</time></trkpt><trkpt lat="45.67739600425026" lon="9.241655574443937"><ele>245.83333333333334</ele><time>2026-04-25T06:09:12Z</time></trkpt><trkpt lat="45.677468299766076" lon="9.241507881195517"><ele>246.0</ele><time>2026-04-25T06:09:14Z</time></trkpt><trkpt lat="45.677503890012176" lon="9.241430905405165"><ele>246.66666666666666</ele><time>2026-04-25T06:09:15Z</time></trkpt><trkpt lat="45.67753753884384" lon="9.24134945566145"><ele>247.33333333333331</ele><time>2026-04-25T06:09:16Z</time></trkpt><trkpt lat="45.67756962257145" lon="9.241266362540056"><ele>248.0</ele><time>2026-04-25T06:09:17Z</time></trkpt><trkpt lat="45.67760502464154" lon="9.24118667416277"><ele>248.66666666666666</ele><time>2026-04-25T06:09:18Z</time></trkpt><trkpt lat="45.67763721371122" lon="9.241107152992013"><ele>249.33333333333331</ele><time>2026-04-25T06:09:19Z</time></trkpt><trkpt lat="45.6777019616059" lon="9.240963246644167"><ele>250.0</ele><time>2026-04-25T06:09:21Z</time></trkpt><trkpt lat="45.67776644878614" lon="9.24081796704542"><ele>249.75</ele><time>2026-04-25T06:09:23Z</time></trkpt><trkpt lat="45.67783495396109" lon="9.24068532294727"><ele>249.5</ele><time>2026-04-25T06:09:25Z</time></trkpt><trkpt lat="45.67790680872461" lon="9.240549583124729"><ele>249.25</ele><time>2026-04-25T06:09:26.999Z</time></trkpt><trkpt lat="45.677967605020136" lon="9.240393612865788"><ele>249.0</ele><time>2026-04-25T06:09:28.999Z</time></trkpt><trkpt lat="45.67804260095092" lon="9.240246446628786"><ele>249.0</ele><time>2026-04-25T06:09:30.999Z</time></trkpt><trkpt lat="45.67807989328041" lon="9.240169400073242"><ele>248.99999999999997</ele><time>2026-04-25T06:09:31.999Z</time></trkpt><trkpt lat="45.6781148461029" lon="9.240087624010497"><ele>249.0</ele><time>2026-04-25T06:09:32.999Z</time></trkpt><trkpt lat="45.67815065219185" lon="9.240007920785038"><ele>249.0</ele><time>2026-04-25T06:09:33.999Z</time></trkpt><trkpt lat="45.678187047265546" lon="9.239925816541827"><ele>248.99999999999997</ele><time>2026-04-25T06:09:34.999Z</time></trkpt><trkpt lat="45.67822867200252" lon="9.239846760298686"><ele>249.0</ele><time>2026-04-25T06:09:35.999Z</time></trkpt><trkpt lat="45.67826950978907" lon="9.239766802972804"><ele>249.0</ele><time>2026-04-25T06:09:36.999Z</time></trkpt><trkpt lat="45.67831835977207" lon="9.239693517158495"><ele>248.7142857142857</ele><time>2026-04-25T06:09:37.999Z</time></trkpt><trkpt lat="45.67836071489302" lon="9.239625347455906"><ele>248.4285714285714</ele><time>2026-04-25T06:09:38.999Z</time></trkpt><trkpt lat="45.67840204029956" lon="9.239551692400735"><ele>248.14285714285714</ele><time>2026-04-25T06:09:39.999Z</time></trkpt><trkpt lat="45.678452848423625" lon="9.239472813301214"><ele>247.85714285714283</ele><time>2026-04-25T06:09:40.999Z</time></trkpt><trkpt lat="45.67850367251435" lon="9.239402207439841"><ele>247.57142857142856</ele><time>2026-04-25T06:09:41.999Z</time></trkpt><trkpt lat="45.678559359439134" lon="9.239335231867244"><ele>247.28571428571428</ele><time>2026-04-25T06:09:42.999Z</time></trkpt><trkpt lat="45.67862053402283" lon="9.23927588391454"><ele>247.0</ele><time>2026-04-25T06:09:43.999Z</time></trkpt><trkpt lat="45.67867576734846" lon="9.239216228898707"><ele>247.0</ele><time>2026-04-25T06:09:44.999Z</time></trkpt><trkpt lat="45.678729789283935" lon="9.239151478931696"><ele>247.0</ele><time>2026-04-25T06:09:45.999Z</time></trkpt><trkpt lat="45.67878639370962" lon="9.239088875136561"><ele>247.0</ele><time>2026-04-25T06:09:46.999Z</time></trkpt><trkpt lat="45.678842176287205" lon="9.239029253024208"><ele>247.0</ele><time>2026-04-25T06:09:47.999Z</time></trkpt><trkpt lat="45.678896555441604" lon="9.238965305118873"><ele>247.0</ele><time>2026-04-25T06:09:48.999Z</time></trkpt><trkpt lat="45.678951573269394" lon="9.238905494737462"><ele>247.0</ele><time>2026-04-25T06:09:49.999Z</time></trkpt><trkpt lat="45.679005497223145" lon="9.23884149793914"><ele>247.0</ele><time>2026-04-25T06:09:50.999Z</time></trkpt><trkpt lat="45.67905714246074" lon="9.238774422105822"><ele>248.66666666666666</ele><time>2026-04-25T06:09:51.999Z</time></trkpt><trkpt lat="45.67910626359706" lon="9.238701570169797"><ele>250.33333333333331</ele><time>2026-04-25T06:09:52.999Z</time></trkpt><trkpt lat="45.67914952716015" lon="9.238623429551094"><ele>252.0</ele><time>2026-04-25T06:09:53.999Z</time></trkpt><trkpt lat="45.67920698171631" lon="9.238462397680745"><ele>253.66666666666669</ele><time>2026-04-25T06:09:55.999Z</time></trkpt><trkpt lat="45.67923012142855" lon="9.238377522923143"><ele>255.33333333333334</ele><time>2026-04-25T06:09:56.999Z</time></trkpt><trkpt lat="45.679267858203296" lon="9.23830431640738"><ele>257.0</ele><time>2026-04-25T06:09:57.999Z</time></trkpt><trkpt lat="45.679306477306135" lon="9.238149905466752"><ele>257.5</ele><time>2026-04-25T06:09:59.999Z</time></trkpt><trkpt lat="45.67933019023146" lon="9.238000262214005"><ele>258.0</ele><time>2026-04-25T06:10:01.999Z</time></trkpt><trkpt lat="45.67931416361347" lon="9.237861758026174"><ele>258.5</ele><time>2026-04-25T06:10:03.999Z</time></trkpt><trkpt lat="45.67931884219764" lon="9.237757913125145"><ele>259.0</ele><time>2026-04-25T06:10:05.999Z</time></trkpt><trkpt lat="45.67934163896259" lon="9.237667815875554"><ele>259.5</ele><time>2026-04-25T06:11:03Z</time></trkpt><trkpt lat="45.679353294916886" lon="9.237577724983048"><ele>260.0</ele><time>2026-04-25T06:11:06Z</time></trkpt><trkpt lat="45.679346530381295" lon="9.237468689696353"><ele>260.0</ele><time>2026-04-25T06:11:08Z</time></trkpt><trkpt lat="45.67932931897889" lon="9.2373424613159"><ele>260.0</ele><time>2026-04-25T06:11:10Z</time></trkpt><trkpt lat="45.67931516215999" lon="9.237209880531562"><ele>260.0</ele><time>2026-04-25T06:11:12Z</time></trkpt><trkpt lat="45.679282368500665" lon="9.23706776468258"><ele>260.0</ele><time>2026-04-25T06:11:14Z</time></trkpt><trkpt lat="45.67930760855777" lon="9.236948078753015"><ele>260.0</ele><time>2026-04-25T06:11:16Z</time></trkpt><trkpt lat="45.679403201583796" lon="9.236919096357008"><ele>260.25</ele><time>2026-04-25T06:11:18Z</time></trkpt><trkpt lat="45.67949665023227" lon="9.236899478127913"><ele>260.5</ele><time>2026-04-25T06:11:20Z</time></trkpt><trkpt lat="45.67960121071499" lon="9.236847218024964"><ele>260.75</ele><time>2026-04-25T06:11:22Z</time></trkpt><trkpt lat="45.679715048560794" lon="9.236782792082568"><ele>261.0</ele><time>2026-04-25T06:11:24Z</time></trkpt><trkpt lat="45.67981588099884" lon="9.23667674712108"><ele>261.0</ele><time>2026-04-25T06:11:26Z</time></trkpt><trkpt lat="45.67992142683829" lon="9.236587723662423"><ele>261.0</ele><time>2026-04-25T06:11:28Z</time></trkpt><trkpt lat="45.68001907934635" lon="9.236492278165777"><ele>261.0</ele><time>2026-04-25T06:11:30Z</time></trkpt><trkpt lat="45.68010499400015" lon="9.236402880110454"><ele>261.0</ele><time>2026-04-25T06:11:32Z</time></trkpt><trkpt lat="45.68017385689351" lon="9.236341378058274"><ele>261.0</ele><time>2026-04-25T06:11:33Z</time></trkpt><trkpt lat="45.68028769489041" lon="9.236260967438781"><ele>262.2</ele><time>2026-04-25T06:11:35Z</time></trkpt><trkpt lat="45.68039073003397" lon="9.236160415866303"><ele>263.40000000000003</ele><time>2026-04-25T06:11:37Z</time></trkpt><trkpt lat="45.68044996308041" lon="9.236110296429223"><ele>264.6</ele><time>2026-04-25T06:11:38Z</time></trkpt><trkpt lat="45.680556924024955" lon="9.236011438516918"><ele>265.8</ele><time>2026-04-25T06:11:40Z</time></trkpt><trkpt lat="45.68061224905703" lon="9.235959050562473"><ele>267.0</ele><time>2026-04-25T06:11:40.999Z</time></trkpt><trkpt lat="45.68067510911998" lon="9.235930458429715"><ele>267.0</ele><time>2026-04-25T06:11:41.999Z</time></trkpt><trkpt lat="45.68073042257868" lon="9.235882614398179"><ele>267.0</ele><time>2026-04-25T06:11:42.999Z</time></trkpt><trkpt lat="45.68078671878793" lon="9.235832473117329"><ele>267.0</ele><time>2026-04-25T06:11:43.999Z</time></trkpt><trkpt lat="45.68089215293612" lon="9.23574524127752"><ele>267.0</ele><time>2026-04-25T06:11:45.999Z</time></trkpt><trkpt lat="45.6809494531552" lon="9.23569839169445"><ele>267.0</ele><time>2026-04-25T06:11:46.999Z</time></trkpt><trkpt lat="45.68105722204713" lon="9.235604874158263"><ele>267.0</ele><time>2026-04-25T06:11:48.999Z</time></trkpt><trkpt lat="45.68116149837309" lon="9.235512101947426"><ele>266.8333333333333</ele><time>2026-04-25T06:11:50.999Z</time></trkpt><trkpt lat="45.68126962440661" lon="9.235422206098615"><ele>266.6666666666667</ele><time>2026-04-25T06:11:52.999Z</time></trkpt><trkpt lat="45.6813242746091" lon="9.235375840887308"><ele>266.5</ele><time>2026-04-25T06:11:53.999Z</time></trkpt><trkpt lat="45.68138079352791" lon="9.235329526098383"><ele>266.33333333333337</ele><time>2026-04-25T06:11:54.999Z</time></trkpt><trkpt lat="45.6814374275436" lon="9.235286606914318"><ele>266.1666666666667</ele><time>2026-04-25T06:11:55.999Z</time></trkpt><trkpt lat="45.68149824834655" lon="9.235236776645124"><ele>266.0</ele><time>2026-04-25T06:11:56.999Z</time></trkpt><trkpt lat="45.68155973338206" lon="9.235199225968937"><ele>266.0</ele><time>2026-04-25T06:11:57.999Z</time></trkpt><trkpt lat="45.68162062128267" lon="9.23516022952091"><ele>266.0</ele><time>2026-04-25T06:11:58.999Z</time></trkpt><trkpt lat="45.68168858787383" lon="9.235132477732094"><ele>266.0</ele><time>2026-04-25T06:11:59.999Z</time></trkpt><trkpt lat="45.68175690157128" lon="9.23510125464642"><ele>266.0</ele><time>2026-04-25T06:12:00.999Z</time></trkpt><trkpt lat="45.681819267056085" lon="9.235066587843644"><ele>266.0</ele><time>2026-04-25T06:12:01.999Z</time></trkpt><trkpt lat="45.681884827277734" lon="9.235036439519579"><ele>266.0</ele><time>2026-04-25T06:12:02.999Z</time></trkpt><trkpt lat="45.68201101009026" lon="9.2349738251884"><ele>265.7142857142857</ele><time>2026-04-25T06:12:04.999Z</time></trkpt><trkpt lat="45.6820758598563" lon="9.234939314979096"><ele>265.42857142857144</ele><time>2026-04-25T06:12:05.999Z</time></trkpt><trkpt lat="45.68213753680387" lon="9.234907621903565"><ele>265.1428571428571</ele><time>2026-04-25T06:12:06.999Z</time></trkpt><trkpt lat="45.6822065174986" lon="9.234873314227027"><ele>264.8571428571429</ele><time>2026-04-25T06:12:07.999Z</time></trkpt><trkpt lat="45.68228188073806" lon="9.234845385592468"><ele>264.57142857142856</ele><time>2026-04-25T06:12:08.999Z</time></trkpt><trkpt lat="45.682358035981494" lon="9.23480798783994"><ele>264.2857142857143</ele><time>2026-04-25T06:12:09.999Z</time></trkpt><trkpt lat="45.682417944909396" lon="9.234763451266417"><ele>264.0</ele><time>2026-04-25T06:12:10.999Z</time></trkpt><trkpt lat="45.682501496841404" lon="9.234734315439493"><ele>264.1666666666667</ele><time>2026-04-25T06:12:11.999Z</time></trkpt><trkpt lat="45.68258182244797" lon="9.234692027947503"><ele>264.3333333333333</ele><time>2026-04-25T06:12:12.999Z</time></trkpt><trkpt lat="45.68265087131216" lon="9.234644515638559"><ele>264.5</ele><time>2026-04-25T06:12:13.999Z</time></trkpt><trkpt lat="45.68273234370916" lon="9.23462448857499"><ele>264.66666666666663</ele><time>2026-04-25T06:12:14.999Z</time></trkpt><trkpt lat="45.68281276311621" lon="9.234573173197422"><ele>264.8333333333333</ele><time>2026-04-25T06:12:15.999Z</time></trkpt><trkpt lat="45.68287204711746" lon="9.234512677189267"><ele>265.0</ele><time>2026-04-25T06:12:16.999Z</time></trkpt><trkpt lat="45.68294444562547" lon="9.234456079929059"><ele>265.0</ele><time>2026-04-25T06:12:17.999Z</time></trkpt><trkpt lat="45.68301627811516" lon="9.234387155818377"><ele>265.0</ele><time>2026-04-25T06:12:18.999Z</time></trkpt><trkpt lat="45.6830892440316" lon="9.234306765406709"><ele>265.0</ele><time>2026-04-25T06:12:19.999Z</time></trkpt><trkpt lat="45.68314823496875" lon="9.23421845093922"><ele>265.0</ele><time>2026-04-25T06:12:20.999Z</time></trkpt><trkpt lat="45.68321031574174" lon="9.234132161484073"><ele>265.0</ele><time>2026-04-25T06:12:21.999Z</time></trkpt><trkpt lat="45.68326699074186" lon="9.234048387047078"><ele>265.0</ele><time>2026-04-25T06:12:22.999Z</time></trkpt><trkpt lat="45.68332477432854" lon="9.233965658812718"><ele>265.0</ele><time>2026-04-25T06:12:23.999Z</time></trkpt><trkpt lat="45.683383719490685" lon="9.233874131501938"><ele>265.0</ele><time>2026-04-25T06:12:24.999Z</time></trkpt><trkpt lat="45.68344444789548" lon="9.233784293966908"><ele>265.0</ele><time>2026-04-25T06:12:25.999Z</time></trkpt><trkpt lat="45.68351354320178" lon="9.233711496929525"><ele>265.0</ele><time>2026-04-25T06:12:26.999Z</time></trkpt><trkpt lat="45.68357069961398" lon="9.233629269663478"><ele>265.0</ele><time>2026-04-25T06:12:27.999Z</time></trkpt><trkpt lat="45.68361808352392" lon="9.233527503011423"><ele>265.0</ele><time>2026-04-25T06:12:28.999Z</time></trkpt><trkpt lat="45.68367313552167" lon="9.233447869944714"><ele>265.0</ele><time>2026-04-25T06:12:29.999Z</time></trkpt><trkpt lat="45.68374311962505" lon="9.233380218405978"><ele>265.0</ele><time>2026-04-25T06:12:30.999Z</time></trkpt><trkpt lat="45.68379591281129" lon="9.233301407766703"><ele>265.0</ele><time>2026-04-25T06:12:31.999Z</time></trkpt><trkpt lat="45.68385328029637" lon="9.233213889135053"><ele>265.0</ele><time>2026-04-25T06:12:32.999Z</time></trkpt><trkpt lat="45.68389261452799" lon="9.233112266048801"><ele>265.0</ele><time>2026-04-25T06:12:33.999Z</time></trkpt><trkpt lat="45.683949720402126" lon="9.23302124376658"><ele>265.0</ele><time>2026-04-25T06:12:34.999Z</time></trkpt><trkpt lat="45.68398791463423" lon="9.232923779006287"><ele>265.16666666666663</ele><time>2026-04-25T06:12:35.999Z</time></trkpt><trkpt lat="45.684029524745426" lon="9.232823470954095"><ele>265.3333333333333</ele><time>2026-04-25T06:12:36.999Z</time></trkpt><trkpt lat="45.684067135539294" lon="9.232717584554573"><ele>265.5</ele><time>2026-04-25T06:12:37.999Z</time></trkpt><trkpt lat="45.684104003594285" lon="9.23261355441809"><ele>265.6666666666667</ele><time>2026-04-25T06:12:38.999Z</time></trkpt><trkpt lat="45.68413496694624" lon="9.23250861838517"><ele>265.83333333333337</ele><time>2026-04-25T06:12:39.999Z</time></trkpt><trkpt lat="45.684158705322936" lon="9.232404863565735"><ele>266.0</ele><time>2026-04-25T06:12:40.999Z</time></trkpt><trkpt lat="45.684181568350915" lon="9.232301022636452"><ele>266.0</ele><time>2026-04-25T06:12:41.999Z</time></trkpt><trkpt lat="45.6842105077919" lon="9.232195792883163"><ele>266.0</ele><time>2026-04-25T06:12:42.999Z</time></trkpt><trkpt lat="45.68424100192998" lon="9.232087171110859"><ele>266.0</ele><time>2026-04-25T06:12:43.999Z</time></trkpt><trkpt lat="45.68427261239572" lon="9.231980134272263"><ele>266.0</ele><time>2026-04-25T06:12:44.999Z</time></trkpt><trkpt lat="45.68430211132952" lon="9.2318714357416"><ele>266.0</ele><time>2026-04-25T06:12:45.999Z</time></trkpt><trkpt lat="45.68432964765701" lon="9.231763000055752"><ele>266.0</ele><time>2026-04-25T06:12:46.999Z</time></trkpt><trkpt lat="45.68435709761102" lon="9.231654265260582"><ele>266.0</ele><time>2026-04-25T06:12:47.999Z</time></trkpt><trkpt lat="45.68438294811178" lon="9.231543182388789"><ele>266.0</ele><time>2026-04-25T06:12:48.999Z</time></trkpt><trkpt lat="45.68440863483384" lon="9.231436418017402"><ele>266.0</ele><time>2026-04-25T06:12:49.999Z</time></trkpt><trkpt lat="45.68443401614496" lon="9.231333510947096"><ele>266.0</ele><time>2026-04-25T06:12:50.999Z</time></trkpt><trkpt lat="45.684457866259635" lon="9.231234957737392"><ele>266.0</ele><time>2026-04-25T06:12:51.999Z</time></trkpt><trkpt lat="45.684483065782054" lon="9.2311390763268"><ele>266.0</ele><time>2026-04-25T06:12:52.999Z</time></trkpt><trkpt lat="45.68451172953431" lon="9.23104773992962"><ele>266.14285714285717</ele><time>2026-04-25T06:12:53.999Z</time></trkpt><trkpt lat="45.68454687290345" lon="9.230963800031732"><ele>266.2857142857143</ele><time>2026-04-25T06:12:54.999Z</time></trkpt><trkpt lat="45.68460444422098" lon="9.230902568294821"><ele>266.42857142857144</ele><time>2026-04-25T06:12:55.999Z</time></trkpt><trkpt lat="45.684605691522876" lon="9.230789294379429"><ele>266.57142857142856</ele><time>2026-04-25T06:12:57Z</time></trkpt><trkpt lat="45.68461337235452" lon="9.230682266794602"><ele>266.7142857142857</ele><time>2026-04-25T06:12:58Z</time></trkpt><trkpt lat="45.68462853942346" lon="9.230578603996474"><ele>266.8571428571429</ele><time>2026-04-25T06:12:59Z</time></trkpt><trkpt lat="45.68465235795327" lon="9.230478433972133"><ele>267.0</ele><time>2026-04-25T06:13:00Z</time></trkpt><trkpt lat="45.68467863130849" lon="9.23037778163416"><ele>267.0</ele><time>2026-04-25T06:13:01Z</time></trkpt><trkpt lat="45.68470418236066" lon="9.230271972452208"><ele>267.0</ele><time>2026-04-25T06:13:02Z</time></trkpt><trkpt lat="45.684730577894996" lon="9.230170855797908"><ele>267.0</ele><time>2026-04-25T06:13:03Z</time></trkpt><trkpt lat="45.68475852701132" lon="9.230070619218775"><ele>267.0</ele><time>2026-04-25T06:13:04Z</time></trkpt><trkpt lat="45.684781050147095" lon="9.229967858922304"><ele>267.0</ele><time>2026-04-25T06:13:05Z</time></trkpt><trkpt lat="45.68480917681668" lon="9.229867875478762"><ele>267.0</ele><time>2026-04-25T06:13:06Z</time></trkpt><trkpt lat="45.684840050769616" lon="9.22976714302438"><ele>266.5</ele><time>2026-04-25T06:13:07Z</time></trkpt><trkpt lat="45.684867903858816" lon="9.22965907489495"><ele>266.0</ele><time>2026-04-25T06:13:08Z</time></trkpt><trkpt lat="45.68489475083937" lon="9.229549834671198"><ele>265.5</ele><time>2026-04-25T06:13:09Z</time></trkpt><trkpt lat="45.684921202435916" lon="9.229439264324384"><ele>265.0</ele><time>2026-04-25T06:13:10Z</time></trkpt><trkpt lat="45.684946984794934" lon="9.229327869962564"><ele>264.5</ele><time>2026-04-25T06:13:11Z</time></trkpt><trkpt lat="45.68497254743681" lon="9.22922018645959"><ele>264.0</ele><time>2026-04-25T06:13:12Z</time></trkpt><trkpt lat="45.684996943163476" lon="9.229114235890355"><ele>264.0</ele><time>2026-04-25T06:13:13Z</time></trkpt><trkpt lat="45.685019141650976" lon="9.229011799855456"><ele>264.0</ele><time>2026-04-25T06:13:14Z</time></trkpt><trkpt lat="45.685045012195594" lon="9.22890940972392"><ele>264.0</ele><time>2026-04-25T06:13:15Z</time></trkpt><trkpt lat="45.685091613831204" lon="9.228823496111449"><ele>264.0</ele><time>2026-04-25T06:13:16Z</time></trkpt><trkpt lat="45.68510671675684" lon="9.228718839535993"><ele>264.0</ele><time>2026-04-25T06:13:17Z</time></trkpt><trkpt lat="45.68513561795393" lon="9.2286249785968"><ele>264.0</ele><time>2026-04-25T06:13:18Z</time></trkpt><trkpt lat="45.68516184241181" lon="9.228530115557902"><ele>264.0</ele><time>2026-04-25T06:13:19Z</time></trkpt><trkpt lat="45.685195561742574" lon="9.228442348798728"><ele>264.0</ele><time>2026-04-25T06:13:20Z</time></trkpt><trkpt lat="45.6852457738269" lon="9.228370957524591"><ele>264.0</ele><time>2026-04-25T06:13:21Z</time></trkpt><trkpt lat="45.68530478859224" lon="9.228313110314101"><ele>264.0</ele><time>2026-04-25T06:13:22Z</time></trkpt><trkpt lat="45.685368085699295" lon="9.228253809309042"><ele>264.0</ele><time>2026-04-25T06:13:23Z</time></trkpt><trkpt lat="45.68542896899009" lon="9.228190995379833"><ele>264.0</ele><time>2026-04-25T06:13:24Z</time></trkpt><trkpt lat="45.685490438988936" lon="9.228121882470528"><ele>264.0</ele><time>2026-04-25T06:13:25Z</time></trkpt><trkpt lat="45.6855542818173" lon="9.228060586702265"><ele>264.0</ele><time>2026-04-25T06:13:26Z</time></trkpt><trkpt lat="45.68561876848467" lon="9.228005797350237"><ele>264.1666666666667</ele><time>2026-04-25T06:13:27Z</time></trkpt><trkpt lat="45.685684990819915" lon="9.227959727044555"><ele>264.3333333333333</ele><time>2026-04-25T06:13:28Z</time></trkpt><trkpt lat="45.68575064253209" lon="9.227909518324482"><ele>264.5</ele><time>2026-04-25T06:13:28.999Z</time></trkpt><trkpt lat="45.6858212779338" lon="9.227864668289504"><ele>264.66666666666663</ele><time>2026-04-25T06:13:29.999Z</time></trkpt><trkpt lat="45.68588734865997" lon="9.22782574932374"><ele>264.8333333333333</ele><time>2026-04-25T06:13:30.999Z</time></trkpt><trkpt lat="45.68595735569826" lon="9.227784801764944"><ele>265.0</ele><time>2026-04-25T06:13:31.999Z</time></trkpt><trkpt lat="45.68602973102366" lon="9.227744805550111"><ele>265.16666666666663</ele><time>2026-04-25T06:13:32.999Z</time></trkpt><trkpt lat="45.6860998065307" lon="9.22770121546112"><ele>265.3333333333333</ele><time>2026-04-25T06:13:33.999Z</time></trkpt><trkpt lat="45.68617111811269" lon="9.2276608530497"><ele>265.5</ele><time>2026-04-25T06:13:34.999Z</time></trkpt><trkpt lat="45.68624466280929" lon="9.227627117705497"><ele>265.6666666666667</ele><time>2026-04-25T06:13:35.999Z</time></trkpt><trkpt lat="45.686317282230945" lon="9.227589607999011"><ele>265.83333333333337</ele><time>2026-04-25T06:13:36.999Z</time></trkpt><trkpt lat="45.68638994052418" lon="9.227552623546513"><ele>266.0</ele><time>2026-04-25T06:13:37.999Z</time></trkpt><trkpt lat="45.68646249812045" lon="9.22750959170472"><ele>266.0</ele><time>2026-04-25T06:13:38.999Z</time></trkpt><trkpt lat="45.686535529482406" lon="9.227469979719634"><ele>266.0</ele><time>2026-04-25T06:13:39.999Z</time></trkpt><trkpt lat="45.686606922054644" lon="9.227430518336284"><ele>266.0</ele><time>2026-04-25T06:13:40.999Z</time></trkpt><trkpt lat="45.68668022781573" lon="9.227391236796942"><ele>266.0</ele><time>2026-04-25T06:13:41.999Z</time></trkpt><trkpt lat="45.68675475858723" lon="9.227358119721679"><ele>266.0</ele><time>2026-04-25T06:13:42.999Z</time></trkpt><trkpt lat="45.68682950233875" lon="9.227327178136012"><ele>266.0</ele><time>2026-04-25T06:13:43.999Z</time></trkpt><trkpt lat="45.686909180127046" lon="9.227295151105542"><ele>266.1666666666667</ele><time>2026-04-25T06:13:44.999Z</time></trkpt><trkpt lat="45.68698338781859" lon="9.227260193345717"><ele>266.33333333333337</ele><time>2026-04-25T06:13:45.999Z</time></trkpt><trkpt lat="45.687058901543494" lon="9.227229942455534"><ele>266.5</ele><time>2026-04-25T06:13:46.999Z</time></trkpt><trkpt lat="45.68713361601579" lon="9.227197159574581"><ele>266.6666666666667</ele><time>2026-04-25T06:13:47.999Z</time></trkpt><trkpt lat="45.6872094991139" lon="9.22716125849481"><ele>266.8333333333333</ele><time>2026-04-25T06:13:48.999Z</time></trkpt><trkpt lat="45.68728438668412" lon="9.22711919090239"><ele>267.0</ele><time>2026-04-25T06:13:49.999Z</time></trkpt><trkpt lat="45.68735967557242" lon="9.227079635625357"><ele>267.0</ele><time>2026-04-25T06:13:50.999Z</time></trkpt><trkpt lat="45.68743513903955" lon="9.227043587607426"><ele>267.0</ele><time>2026-04-25T06:13:51.999Z</time></trkpt><trkpt lat="45.68750529807389" lon="9.227000479545499"><ele>267.0</ele><time>2026-04-25T06:13:52.999Z</time></trkpt><trkpt lat="45.68756964044151" lon="9.226950015425347"><ele>267.0</ele><time>2026-04-25T06:13:53.999Z</time></trkpt><trkpt lat="45.68763652509649" lon="9.226909301251146"><ele>267.0</ele><time>2026-04-25T06:13:54.999Z</time></trkpt><trkpt lat="45.68770572007852" lon="9.22686710820116"><ele>267.0</ele><time>2026-04-25T06:13:55.999Z</time></trkpt><trkpt lat="45.687774560814574" lon="9.226816835074679"><ele>267.42857142857144</ele><time>2026-04-25T06:13:56.999Z</time></trkpt><trkpt lat="45.68783785575435" lon="9.22675712697962"><ele>267.8571428571429</ele><time>2026-04-25T06:13:57.999Z</time></trkpt><trkpt lat="45.6879058796435" lon="9.226709255127266"><ele>268.2857142857143</ele><time>2026-04-25T06:13:58.999Z</time></trkpt><trkpt lat="45.687974481087174" lon="9.226661844964408"><ele>268.7142857142857</ele><time>2026-04-25T06:13:59.999Z</time></trkpt><trkpt lat="45.688038148509236" lon="9.226609126591196"><ele>269.1428571428571</ele><time>2026-04-25T06:14:00.999Z</time></trkpt><trkpt lat="45.6881060375555" lon="9.226564997921995"><ele>269.57142857142856</ele><time>2026-04-25T06:14:01.999Z</time></trkpt><trkpt lat="45.688171576547056" lon="9.226519072655579"><ele>270.0</ele><time>2026-04-25T06:14:02.999Z</time></trkpt><trkpt lat="45.68824145778329" lon="9.226474255131976"><ele>270.0</ele><time>2026-04-25T06:14:03.999Z</time></trkpt><trkpt lat="45.68831097237469" lon="9.226425891972614"><ele>270.0</ele><time>2026-04-25T06:14:04.999Z</time></trkpt><trkpt lat="45.688374946649816" lon="9.226373063140404"><ele>270.0</ele><time>2026-04-25T06:14:05.999Z</time></trkpt><trkpt lat="45.6884402023322" lon="9.22632807048521"><ele>270.0</ele><time>2026-04-25T06:14:06.999Z</time></trkpt><trkpt lat="45.68850608388109" lon="9.226281361136117"><ele>270.0</ele><time>2026-04-25T06:14:07.999Z</time></trkpt><trkpt lat="45.68857275778859" lon="9.226231983346208"><ele>270.0</ele><time>2026-04-25T06:14:08.999Z</time></trkpt><trkpt lat="45.688639994772004" lon="9.226182289571199"><ele>270.0</ele><time>2026-04-25T06:14:09.999Z</time></trkpt><trkpt lat="45.68870747132701" lon="9.22613565169938"><ele>270.0</ele><time>2026-04-25T06:14:10.999Z</time></trkpt><trkpt lat="45.688779810745594" lon="9.226090910048839"><ele>270.0</ele><time>2026-04-25T06:14:11.999Z</time></trkpt><trkpt lat="45.6888453093128" lon="9.226049988332408"><ele>270.0</ele><time>2026-04-25T06:14:12.999Z</time></trkpt><trkpt lat="45.6889088414059" lon="9.226013931517985"><ele>270.0</ele><time>2026-04-25T06:14:13.999Z</time></trkpt><trkpt lat="45.688969047449795" lon="9.22598017934776"><ele>270.0</ele><time>2026-04-25T06:14:14.999Z</time></trkpt><trkpt lat="45.689029350702896" lon="9.225949043131227"><ele>270.0</ele><time>2026-04-25T06:14:15.999Z</time></trkpt><trkpt lat="45.68913476393863" lon="9.225876480027488"><ele>270.0</ele><time>2026-04-25T06:14:17.999Z</time></trkpt><trkpt lat="45.68922420525391" lon="9.225808101449015"><ele>270.0</ele><time>2026-04-25T06:14:19.999Z</time></trkpt><trkpt lat="45.689317096968765" lon="9.225739405631128"><ele>270.0</ele><time>2026-04-25T06:14:21.999Z</time></trkpt><trkpt lat="45.68941968936173" lon="9.225676027224706"><ele>270.0</ele><time>2026-04-25T06:14:23.999Z</time></trkpt><trkpt lat="45.68952409235952" lon="9.225601640905678"><ele>270.0</ele><time>2026-04-25T06:14:25.999Z</time></trkpt><trkpt lat="45.689639064970514" lon="9.225525993415543"><ele>270.2857142857143</ele><time>2026-04-25T06:14:27.999Z</time></trkpt><trkpt lat="45.689698711472225" lon="9.225481848097388"><ele>270.57142857142856</ele><time>2026-04-25T06:14:28.999Z</time></trkpt><trkpt lat="45.68976058909858" lon="9.225433730250932"><ele>270.85714285714283</ele><time>2026-04-25T06:14:29.999Z</time></trkpt><trkpt lat="45.68982528936636" lon="9.2253850397608"><ele>271.1428571428571</ele><time>2026-04-25T06:14:30.999Z</time></trkpt><trkpt lat="45.689888646534676" lon="9.225337483244447"><ele>271.42857142857144</ele><time>2026-04-25T06:14:31.999Z</time></trkpt><trkpt lat="45.68995053043454" lon="9.22528831610304"><ele>271.71428571428567</ele><time>2026-04-25T06:14:32.999Z</time></trkpt><trkpt lat="45.69001368561811" lon="9.225236301286499"><ele>272.0</ele><time>2026-04-25T06:14:33.999Z</time></trkpt><trkpt lat="45.69007943024458" lon="9.225186044166115"><ele>271.99999999999994</ele><time>2026-04-25T06:14:34.999Z</time></trkpt><trkpt lat="45.690143742256204" lon="9.225132809486407"><ele>272.0</ele><time>2026-04-25T06:14:35.999Z</time></trkpt><trkpt lat="45.69020948880767" lon="9.225076429468523"><ele>272.0</ele><time>2026-04-25T06:14:36.999Z</time></trkpt><trkpt lat="45.69027179274423" lon="9.225023167762851"><ele>272.0</ele><time>2026-04-25T06:14:37.999Z</time></trkpt><trkpt lat="45.690337777375134" lon="9.22496754198234"><ele>272.0</ele><time>2026-04-25T06:14:38.999Z</time></trkpt><trkpt lat="45.690400973610835" lon="9.224913029692253"><ele>271.99999999999994</ele><time>2026-04-25T06:14:39.999Z</time></trkpt><trkpt lat="45.69046260028523" lon="9.224858642661001"><ele>272.0</ele><time>2026-04-25T06:14:40.999Z</time></trkpt><trkpt lat="45.69051975947907" lon="9.224806838438695"><ele>271.85714285714283</ele><time>2026-04-25T06:14:41.999Z</time></trkpt><trkpt lat="45.690576748105116" lon="9.224754567638358"><ele>271.7142857142857</ele><time>2026-04-25T06:14:42.999Z</time></trkpt><trkpt lat="45.690636134712356" lon="9.22470140424382"><ele>271.57142857142856</ele><time>2026-04-25T06:14:43.999Z</time></trkpt><trkpt lat="45.69070079232606" lon="9.224647324383582"><ele>271.42857142857144</ele><time>2026-04-25T06:14:44.999Z</time></trkpt><trkpt lat="45.69076320712521" lon="9.224587959848895"><ele>271.2857142857143</ele><time>2026-04-25T06:14:45.999Z</time></trkpt><trkpt lat="45.690828413707806" lon="9.22452137453954"><ele>271.1428571428571</ele><time>2026-04-25T06:14:46.999Z</time></trkpt><trkpt lat="45.690890867639744" lon="9.2244618426634"><ele>271.0</ele><time>2026-04-25T06:14:47.999Z</time></trkpt><trkpt lat="45.69096036632647" lon="9.224421762608237"><ele>271.0</ele><time>2026-04-25T06:14:48.999Z</time></trkpt><trkpt lat="45.691032625878854" lon="9.22440509275021"><ele>271.0</ele><time>2026-04-25T06:14:49.999Z</time></trkpt><trkpt lat="45.69110465890075" lon="9.224395665526998"><ele>271.0</ele><time>2026-04-25T06:14:50.999Z</time></trkpt><trkpt lat="45.69117551624525" lon="9.224374848580768"><ele>271.0</ele><time>2026-04-25T06:14:51.999Z</time></trkpt><trkpt lat="45.69124587455897" lon="9.22435039815769"><ele>271.0</ele><time>2026-04-25T06:14:52.999Z</time></trkpt><trkpt lat="45.69128821885547" lon="9.224239988855217"><ele>271.0</ele><time>2026-04-25T06:14:53.999Z</time></trkpt><trkpt lat="45.69131901532509" lon="9.22413930907045"><ele>271.0</ele><time>2026-04-25T06:14:54.999Z</time></trkpt><trkpt lat="45.69134361156037" lon="9.224039625849612"><ele>271.0</ele><time>2026-04-25T06:14:55.999Z</time></trkpt><trkpt lat="45.69137867007618" lon="9.223941556613326"><ele>271.0</ele><time>2026-04-25T06:14:56.999Z</time></trkpt><trkpt lat="45.69142563957291" lon="9.22385481856659"><ele>271.0</ele><time>2026-04-25T06:14:57.999Z</time></trkpt><trkpt lat="45.69148462409179" lon="9.223782543377972"><ele>271.0</ele><time>2026-04-25T06:14:58.999Z</time></trkpt><trkpt lat="45.69154601914644" lon="9.22371805643372"><ele>271.0</ele><time>2026-04-25T06:14:59.999Z</time></trkpt><trkpt lat="45.69160575711643" lon="9.223654028489733"><ele>270.8333333333333</ele><time>2026-04-25T06:15:00.999Z</time></trkpt><trkpt lat="45.69166236893186" lon="9.223585979860392"><ele>270.66666666666663</ele><time>2026-04-25T06:15:02Z</time></trkpt><trkpt lat="45.6917205231785" lon="9.223509702886453"><ele>270.5</ele><time>2026-04-25T06:15:03Z</time></trkpt><trkpt lat="45.69178037951001" lon="9.223427788622415"><ele>270.3333333333333</ele><time>2026-04-25T06:15:04Z</time></trkpt><trkpt lat="45.69184166825747" lon="9.223345082702593"><ele>270.1666666666667</ele><time>2026-04-25T06:15:05Z</time></trkpt><trkpt lat="45.6919054569059" lon="9.223259945764893"><ele>270.0</ele><time>2026-04-25T06:15:06Z</time></trkpt><trkpt lat="45.69196905867683" lon="9.22317663888907"><ele>269.6</ele><time>2026-04-25T06:15:07Z</time></trkpt><trkpt lat="45.69203439665009" lon="9.223088138052995"><ele>269.2</ele><time>2026-04-25T06:15:08Z</time></trkpt><trkpt lat="45.69209998153436" lon="9.222999519495513"><ele>268.8</ele><time>2026-04-25T06:15:09Z</time></trkpt><trkpt lat="45.69216752731245" lon="9.222912109524497"><ele>268.4</ele><time>2026-04-25T06:15:10Z</time></trkpt><trkpt lat="45.692233124196" lon="9.222823308855103"><ele>268.0</ele><time>2026-04-25T06:15:11Z</time></trkpt><trkpt lat="45.692318023567154" lon="9.22271444042267"><ele>268.0</ele><time>2026-04-25T06:15:12Z</time></trkpt><trkpt lat="45.69238449323245" lon="9.222628633402365"><ele>268.0</ele><time>2026-04-25T06:15:13Z</time></trkpt><trkpt lat="45.69244780524835" lon="9.222560312243992"><ele>268.0</ele><time>2026-04-25T06:15:14Z</time></trkpt><trkpt lat="45.692517860123104" lon="9.22248583226045"><ele>268.0</ele><time>2026-04-25T06:15:15Z</time></trkpt><trkpt lat="45.69256792691025" lon="9.222390678808727"><ele>268.0</ele><time>2026-04-25T06:15:16Z</time></trkpt><trkpt lat="45.69262697860952" lon="9.222306338568746"><ele>268.0</ele><time>2026-04-25T06:15:17Z</time></trkpt><trkpt lat="45.69268829685221" lon="9.222220451713236"><ele>267.8333333333333</ele><time>2026-04-25T06:15:18Z</time></trkpt><trkpt lat="45.69274969368449" lon="9.222139313177138"><ele>267.66666666666663</ele><time>2026-04-25T06:15:19Z</time></trkpt><trkpt lat="45.69280130905812" lon="9.222058308818811"><ele>267.5</ele><time>2026-04-25T06:15:20Z</time></trkpt><trkpt lat="45.69285960450791" lon="9.221982237571128"><ele>267.3333333333333</ele><time>2026-04-25T06:15:21Z</time></trkpt><trkpt lat="45.69291497198184" lon="9.221904668112375"><ele>267.1666666666667</ele><time>2026-04-25T06:15:22Z</time></trkpt><trkpt lat="45.69296986960712" lon="9.22182587962333"><ele>267.0</ele><time>2026-04-25T06:15:23Z</time></trkpt><trkpt lat="45.693022884877564" lon="9.22175013484374"><ele>267.0</ele><time>2026-04-25T06:15:24Z</time></trkpt><trkpt lat="45.69306839474775" lon="9.221684758457071"><ele>267.0</ele><time>2026-04-25T06:15:25Z</time></trkpt><trkpt lat="45.69311279501449" lon="9.221612722728562"><ele>267.0</ele><time>2026-04-25T06:15:26Z</time></trkpt><trkpt lat="45.693154386140314" lon="9.221544615146922"><ele>267.0</ele><time>2026-04-25T06:15:27Z</time></trkpt><trkpt lat="45.693223375604695" lon="9.221431029965448"><ele>267.0</ele><time>2026-04-25T06:15:29Z</time></trkpt><trkpt lat="45.693282707517" lon="9.221348748272904"><ele>267.0</ele><time>2026-04-25T06:15:31Z</time></trkpt><trkpt lat="45.693340512749536" lon="9.221296525773997"><ele>267.0</ele><time>2026-04-25T06:16:00Z</time></trkpt><trkpt lat="45.69338231426634" lon="9.221205630943135"><ele>267.0</ele><time>2026-04-25T06:16:02.999Z</time></trkpt><trkpt lat="45.69342341159372" lon="9.221122688452771"><ele>267.0</ele><time>2026-04-25T06:16:04.999Z</time></trkpt><trkpt lat="45.69347208027889" lon="9.221018020933473"><ele>267.0</ele><time>2026-04-25T06:16:06.999Z</time></trkpt><trkpt lat="45.69352541099587" lon="9.220898138988968"><ele>267.0</ele><time>2026-04-25T06:16:08.999Z</time></trkpt><trkpt lat="45.69358715463626" lon="9.22075882391741"><ele>267.0</ele><time>2026-04-25T06:16:10.999Z</time></trkpt><trkpt lat="45.693619874366945" lon="9.220680402026481"><ele>267.00000000000006</ele><time>2026-04-25T06:16:11.999Z</time></trkpt><trkpt lat="45.693650388785656" lon="9.220596765639371"><ele>267.0</ele><time>2026-04-25T06:16:12.999Z</time></trkpt><trkpt lat="45.69368159121601" lon="9.220509108881103"><ele>267.0</ele><time>2026-04-25T06:16:13.999Z</time></trkpt><trkpt lat="45.693713592674975" lon="9.220422095452465"><ele>267.0</ele><time>2026-04-25T06:16:14.999Z</time></trkpt><trkpt lat="45.69374737747054" lon="9.220341944316202"><ele>267.0</ele><time>2026-04-25T06:16:15.999Z</time></trkpt><trkpt lat="45.69378424309954" lon="9.220259814251268"><ele>267.00000000000006</ele><time>2026-04-25T06:16:16.999Z</time></trkpt><trkpt lat="45.69382183146036" lon="9.22017126094145"><ele>267.0</ele><time>2026-04-25T06:16:17.999Z</time></trkpt><trkpt lat="45.69386146624576" lon="9.220084116694338"><ele>267.00000000000006</ele><time>2026-04-25T06:16:18.999Z</time></trkpt><trkpt lat="45.69390132253965" lon="9.219994397852634"><ele>267.0</ele><time>2026-04-25T06:16:19.999Z</time></trkpt><trkpt lat="45.69394160384409" lon="9.21990482448178"><ele>267.0</ele><time>2026-04-25T06:16:20.999Z</time></trkpt><trkpt lat="45.693979505533534" lon="9.21981682449182"><ele>267.0</ele><time>2026-04-25T06:16:21.999Z</time></trkpt><trkpt lat="45.69402075761709" lon="9.21973449281654"><ele>267.0</ele><time>2026-04-25T06:16:22.999Z</time></trkpt><trkpt lat="45.69405871338349" lon="9.2196523223205"><ele>267.00000000000006</ele><time>2026-04-25T06:16:23.999Z</time></trkpt><trkpt lat="45.69409871093102" lon="9.219564570002673"><ele>267.0</ele><time>2026-04-25T06:16:24.999Z</time></trkpt><trkpt lat="45.694141025929284" lon="9.219479018676564"><ele>267.28571428571433</ele><time>2026-04-25T06:16:25.999Z</time></trkpt><trkpt lat="45.694185208253714" lon="9.219393699032576"><ele>267.57142857142856</ele><time>2026-04-25T06:16:26.999Z</time></trkpt><trkpt lat="45.694230851626095" lon="9.21931029574587"><ele>267.8571428571429</ele><time>2026-04-25T06:16:27.999Z</time></trkpt><trkpt lat="45.69427703130853" lon="9.21922557793441"><ele>268.14285714285717</ele><time>2026-04-25T06:16:28.999Z</time></trkpt><trkpt lat="45.69432554651953" lon="9.21914192637353"><ele>268.42857142857144</ele><time>2026-04-25T06:16:29.999Z</time></trkpt><trkpt lat="45.694368421558806" lon="9.21906156496125"><ele>268.7142857142857</ele><time>2026-04-25T06:16:30.999Z</time></trkpt><trkpt lat="45.69441332836654" lon="9.218976731537696"><ele>269.0</ele><time>2026-04-25T06:16:31.999Z</time></trkpt><trkpt lat="45.69445361591855" lon="9.218900677874194"><ele>269.2857142857143</ele><time>2026-04-25T06:16:32.999Z</time></trkpt><trkpt lat="45.694498860520795" lon="9.218829793824131"><ele>269.5714285714286</ele><time>2026-04-25T06:16:33.999Z</time></trkpt><trkpt lat="45.69454655105824" lon="9.218752539631808"><ele>269.8571428571429</ele><time>2026-04-25T06:16:34.999Z</time></trkpt><trkpt lat="45.694595899521566" lon="9.218676255791507"><ele>270.14285714285717</ele><time>2026-04-25T06:16:35.999Z</time></trkpt><trkpt lat="45.69464437324219" lon="9.218595410345877"><ele>270.42857142857144</ele><time>2026-04-25T06:16:36.999Z</time></trkpt><trkpt lat="45.6946914554834" lon="9.218516458877334"><ele>270.7142857142857</ele><time>2026-04-25T06:16:37.999Z</time></trkpt><trkpt lat="45.69473395012944" lon="9.21844194826934"><ele>271.0</ele><time>2026-04-25T06:16:38.999Z</time></trkpt><trkpt lat="45.69477942538822" lon="9.21837393725247"><ele>271.0</ele><time>2026-04-25T06:16:39.999Z</time></trkpt><trkpt lat="45.69486583675012" lon="9.218233203200992"><ele>271.0</ele><time>2026-04-25T06:16:41.999Z</time></trkpt><trkpt lat="45.69491262270906" lon="9.21816173344742"><ele>271.0</ele><time>2026-04-25T06:16:42.999Z</time></trkpt><trkpt lat="45.69496173020491" lon="9.218087204099673"><ele>271.0</ele><time>2026-04-25T06:16:43.999Z</time></trkpt><trkpt lat="45.69500922976204" lon="9.218010960412736"><ele>271.0</ele><time>2026-04-25T06:16:44.999Z</time></trkpt><trkpt lat="45.695053879385334" lon="9.21792982911126"><ele>271.0</ele><time>2026-04-25T06:16:45.999Z</time></trkpt><trkpt lat="45.6950989621056" lon="9.217847560360024"><ele>271.0</ele><time>2026-04-25T06:16:46.999Z</time></trkpt><trkpt lat="45.69514145151482" lon="9.217759348493857"><ele>271.0</ele><time>2026-04-25T06:16:47.999Z</time></trkpt><trkpt lat="45.69518070523682" lon="9.217668593252375"><ele>271.0</ele><time>2026-04-25T06:16:48.999Z</time></trkpt><trkpt lat="45.69522167141906" lon="9.217577575486338"><ele>271.0</ele><time>2026-04-25T06:16:49.999Z</time></trkpt><trkpt lat="45.6952593839161" lon="9.217486650704098"><ele>271.0</ele><time>2026-04-25T06:16:50.999Z</time></trkpt><trkpt lat="45.69529544005733" lon="9.217390780549797"><ele>271.0</ele><time>2026-04-25T06:16:51.999Z</time></trkpt><trkpt lat="45.69533283888435" lon="9.21729188259707"><ele>270.85714285714283</ele><time>2026-04-25T06:16:52.999Z</time></trkpt><trkpt lat="45.69536921729538" lon="9.217196820497676"><ele>270.7142857142857</ele><time>2026-04-25T06:16:53.999Z</time></trkpt><trkpt lat="45.695403324311826" lon="9.21711032729513"><ele>270.57142857142856</ele><time>2026-04-25T06:16:54.999Z</time></trkpt><trkpt lat="45.695436906584554" lon="9.217012704892955"><ele>270.42857142857144</ele><time>2026-04-25T06:16:55.999Z</time></trkpt><trkpt lat="45.69547568133144" lon="9.21692182706744"><ele>270.2857142857143</ele><time>2026-04-25T06:16:56.999Z</time></trkpt><trkpt lat="45.69551000936913" lon="9.216827245815324"><ele>270.1428571428571</ele><time>2026-04-25T06:16:57.999Z</time></trkpt><trkpt lat="45.69554173872799" lon="9.216738204863459"><ele>270.0</ele><time>2026-04-25T06:16:58.999Z</time></trkpt><trkpt lat="45.69558193562113" lon="9.21664774124296"><ele>270.0</ele><time>2026-04-25T06:16:59.999Z</time></trkpt><trkpt lat="45.69562325362389" lon="9.216557369558226"><ele>270.0</ele><time>2026-04-25T06:17:00.999Z</time></trkpt><trkpt lat="45.69566228210467" lon="9.216464849598607"><ele>270.0</ele><time>2026-04-25T06:17:01.999Z</time></trkpt><trkpt lat="45.69569929024351" lon="9.216373536652858"><ele>270.0</ele><time>2026-04-25T06:17:02.999Z</time></trkpt><trkpt lat="45.69573907675668" lon="9.216286313890345"><ele>270.0</ele><time>2026-04-25T06:17:03.999Z</time></trkpt><trkpt lat="45.69577724166333" lon="9.216204024000604"><ele>270.0</ele><time>2026-04-25T06:17:04.999Z</time></trkpt><trkpt lat="45.69581722359592" lon="9.21612565255731"><ele>270.0</ele><time>2026-04-25T06:17:05.999Z</time></trkpt><trkpt lat="45.69585474407216" lon="9.216047354239027"><ele>270.0</ele><time>2026-04-25T06:17:06.999Z</time></trkpt><trkpt lat="45.69588581673216" lon="9.215968047897938"><ele>270.0</ele><time>2026-04-25T06:17:08Z</time></trkpt><trkpt lat="45.69592600143157" lon="9.215892843659468"><ele>270.0</ele><time>2026-04-25T06:17:09Z</time></trkpt><trkpt lat="45.69596914057476" lon="9.215815326960863"><ele>270.0</ele><time>2026-04-25T06:17:10Z</time></trkpt><trkpt lat="45.69601029285733" lon="9.21573238941501"><ele>270.0</ele><time>2026-04-25T06:17:11Z</time></trkpt><trkpt lat="45.69605054292551" lon="9.21564743347736"><ele>270.0</ele><time>2026-04-25T06:17:12Z</time></trkpt><trkpt lat="45.696088508974746" lon="9.215572160129245"><ele>270.0</ele><time>2026-04-25T06:17:13Z</time></trkpt><trkpt lat="45.696125277929916" lon="9.215495848075067"><ele>270.0</ele><time>2026-04-25T06:17:14Z</time></trkpt><trkpt lat="45.6961636314423" lon="9.215418954878634"><ele>270.0</ele><time>2026-04-25T06:17:15Z</time></trkpt><trkpt lat="45.696202850522724" lon="9.215344670991694"><ele>270.0</ele><time>2026-04-25T06:17:16Z</time></trkpt><trkpt lat="45.69627871570245" lon="9.215210573881528"><ele>270.0</ele><time>2026-04-25T06:17:18Z</time></trkpt><trkpt lat="45.69635279562675" lon="9.215087989246376"><ele>270.0</ele><time>2026-04-25T06:17:20Z</time></trkpt><trkpt lat="45.69645262660075" lon="9.215009183194715"><ele>270.0</ele><time>2026-04-25T06:17:22Z</time></trkpt><trkpt lat="45.69651621461165" lon="9.214986562982618"><ele>270.0</ele><time>2026-04-25T06:17:23Z</time></trkpt><trkpt lat="45.69658242967947" lon="9.21497406765494"><ele>270.0</ele><time>2026-04-25T06:17:24Z</time></trkpt><trkpt lat="45.69665086556949" lon="9.21497504537365"><ele>270.0</ele><time>2026-04-25T06:17:25Z</time></trkpt><trkpt lat="45.69671444973476" lon="9.21498488529656"><ele>270.0</ele><time>2026-04-25T06:17:26Z</time></trkpt><trkpt lat="45.69683654198892" lon="9.215035685532884"><ele>270.0</ele><time>2026-04-25T06:17:28Z</time></trkpt><trkpt lat="45.69689831445334" lon="9.215066292154544"><ele>270.8</ele><time>2026-04-25T06:17:29Z</time></trkpt><trkpt lat="45.69695955374034" lon="9.215096266224645"><ele>271.6</ele><time>2026-04-25T06:17:30Z</time></trkpt><trkpt lat="45.697080308251984" lon="9.215148834758223"><ele>272.4</ele><time>2026-04-25T06:17:32Z</time></trkpt><trkpt lat="45.697142616451465" lon="9.215108364357558"><ele>273.2</ele><time>2026-04-25T06:17:33Z</time></trkpt><trkpt lat="45.697200727257595" lon="9.215198856051627"><ele>274.0</ele><time>2026-04-25T06:17:34Z</time></trkpt><trkpt lat="45.697321388406486" lon="9.215252339314272"><ele>274.00000000000006</ele><time>2026-04-25T06:17:36Z</time></trkpt><trkpt lat="45.697381572159514" lon="9.215278827875965"><ele>274.0</ele><time>2026-04-25T06:17:37Z</time></trkpt><trkpt lat="45.69744448263353" lon="9.215307354571767"><ele>274.0</ele><time>2026-04-25T06:17:38Z</time></trkpt><trkpt lat="45.697505831048154" lon="9.21533999237079"><ele>274.0</ele><time>2026-04-25T06:17:39Z</time></trkpt><trkpt lat="45.69756623275966" lon="9.215372511352882"><ele>274.0</ele><time>2026-04-25T06:17:40Z</time></trkpt><trkpt lat="45.6976278167206" lon="9.215399157012818"><ele>274.00000000000006</ele><time>2026-04-25T06:17:41Z</time></trkpt><trkpt lat="45.69769072287436" lon="9.215430059556843"><ele>274.0</ele><time>2026-04-25T06:17:42Z</time></trkpt><trkpt lat="45.697754465272716" lon="9.215460645370337"><ele>274.00000000000006</ele><time>2026-04-25T06:17:43Z</time></trkpt><trkpt lat="45.697817072374654" lon="9.215484170642934"><ele>274.0</ele><time>2026-04-25T06:17:44Z</time></trkpt><trkpt lat="45.69788129955687" lon="9.215517114547037"><ele>274.0</ele><time>2026-04-25T06:17:45Z</time></trkpt><trkpt lat="45.697946005151096" lon="9.21554317293046"><ele>274.0</ele><time>2026-04-25T06:17:46Z</time></trkpt><trkpt lat="45.69800967783881" lon="9.215570629189468"><ele>274.0</ele><time>2026-04-25T06:17:47Z</time></trkpt><trkpt lat="45.69807423067811" lon="9.215599017324589"><ele>274.00000000000006</ele><time>2026-04-25T06:17:48Z</time></trkpt><trkpt lat="45.69813652006625" lon="9.215629898968162"><ele>274.0</ele><time>2026-04-25T06:17:49Z</time></trkpt><trkpt lat="45.6981986867985" lon="9.215658452299984"><ele>273.8571428571429</ele><time>2026-04-25T06:17:50Z</time></trkpt><trkpt lat="45.69826342561784" lon="9.215692569781986"><ele>273.7142857142857</ele><time>2026-04-25T06:17:51Z</time></trkpt><trkpt lat="45.698323537340734" lon="9.21573257458393"><ele>273.57142857142856</ele><time>2026-04-25T06:17:52Z</time></trkpt><trkpt lat="45.6983827825529" lon="9.215778149215543"><ele>273.42857142857144</ele><time>2026-04-25T06:17:53Z</time></trkpt><trkpt lat="45.69843890845701" lon="9.215835943778115"><ele>273.2857142857143</ele><time>2026-04-25T06:17:54Z</time></trkpt><trkpt lat="45.698493171423216" lon="9.215891782400885"><ele>273.14285714285717</ele><time>2026-04-25T06:17:55Z</time></trkpt><trkpt lat="45.69855581561006" lon="9.215931431652761"><ele>273.0</ele><time>2026-04-25T06:17:56Z</time></trkpt><trkpt lat="45.698624156078004" lon="9.21594721904742"><ele>273.42857142857144</ele><time>2026-04-25T06:17:57Z</time></trkpt><trkpt lat="45.69869659396446" lon="9.215939203638564"><ele>273.8571428571429</ele><time>2026-04-25T06:17:58Z</time></trkpt><trkpt lat="45.69876498242562" lon="9.215926769581749"><ele>274.2857142857143</ele><time>2026-04-25T06:17:59Z</time></trkpt><trkpt lat="45.69882959505066" lon="9.215930848198829"><ele>274.7142857142857</ele><time>2026-04-25T06:18:00Z</time></trkpt><trkpt lat="45.69889485218197" lon="9.215955399118258"><ele>275.14285714285717</ele><time>2026-04-25T06:18:01Z</time></trkpt><trkpt lat="45.6989579017447" lon="9.215990919165963"><ele>275.57142857142856</ele><time>2026-04-25T06:18:02Z</time></trkpt><trkpt lat="45.69902265119622" lon="9.216025374520807"><ele>276.0</ele><time>2026-04-25T06:18:03Z</time></trkpt><trkpt lat="45.69909023387949" lon="9.216009726413015"><ele>276.0</ele><time>2026-04-25T06:18:04Z</time></trkpt><trkpt lat="45.69915294553147" lon="9.21607931474626"><ele>276.0</ele><time>2026-04-25T06:18:05Z</time></trkpt><trkpt lat="45.69921745961293" lon="9.216107360745518"><ele>276.0</ele><time>2026-04-25T06:18:06Z</time></trkpt><trkpt lat="45.69928345811985" lon="9.2161319166037"><ele>276.0</ele><time>2026-04-25T06:18:07Z</time></trkpt><trkpt lat="45.699350361904855" lon="9.21615420400021"><ele>276.0</ele><time>2026-04-25T06:18:08Z</time></trkpt><trkpt lat="45.69941656384511" lon="9.216177740468163"><ele>276.0</ele><time>2026-04-25T06:18:09Z</time></trkpt><trkpt lat="45.69948270650049" lon="9.216203223665573"><ele>276.0</ele><time>2026-04-25T06:18:10Z</time></trkpt><trkpt lat="45.69954995973711" lon="9.216229189204256"><ele>276.14285714285717</ele><time>2026-04-25T06:18:11Z</time></trkpt><trkpt lat="45.69961536822239" lon="9.216251830436441"><ele>276.28571428571433</ele><time>2026-04-25T06:18:12Z</time></trkpt><trkpt lat="45.699683966901716" lon="9.21627288993812"><ele>276.42857142857144</ele><time>2026-04-25T06:18:13Z</time></trkpt><trkpt lat="45.69975171419992" lon="9.216294925067078"><ele>276.57142857142856</ele><time>2026-04-25T06:18:14Z</time></trkpt><trkpt lat="45.69982010812827" lon="9.216315243865406"><ele>276.71428571428567</ele><time>2026-04-25T06:18:15Z</time></trkpt><trkpt lat="45.6998890361627" lon="9.216332863832834"><ele>276.85714285714283</ele><time>2026-04-25T06:18:16Z</time></trkpt><trkpt lat="45.69995828400116" lon="9.216344878047947"><ele>277.0</ele><time>2026-04-25T06:18:17Z</time></trkpt><trkpt lat="45.70002949012225" lon="9.216357806209627"><ele>277.0</ele><time>2026-04-25T06:18:18Z</time></trkpt><trkpt lat="45.70009841825293" lon="9.216366745220977"><ele>277.0</ele><time>2026-04-25T06:18:19Z</time></trkpt><trkpt lat="45.7001674057216" lon="9.216371204213848"><ele>277.0</ele><time>2026-04-25T06:18:19.999Z</time></trkpt><trkpt lat="45.70023940540569" lon="9.216372926590951"><ele>277.0</ele><time>2026-04-25T06:18:20.999Z</time></trkpt><trkpt lat="45.70031138468845" lon="9.216371681654595"><ele>277.0</ele><time>2026-04-25T06:18:21.999Z</time></trkpt><trkpt lat="45.70038334719219" lon="9.216361610260183"><ele>277.0</ele><time>2026-04-25T06:18:22.999Z</time></trkpt><trkpt lat="45.70045767986155" lon="9.21635131648544"><ele>277.0</ele><time>2026-04-25T06:18:23.999Z</time></trkpt><trkpt lat="45.70052850620821" lon="9.21634402603362"><ele>277.42857142857144</ele><time>2026-04-25T06:18:24.999Z</time></trkpt><trkpt lat="45.7005985132238" lon="9.216329647322253"><ele>277.85714285714283</ele><time>2026-04-25T06:18:25.999Z</time></trkpt><trkpt lat="45.70067185879223" lon="9.2163184448317"><ele>278.2857142857143</ele><time>2026-04-25T06:18:26.999Z</time></trkpt><trkpt lat="45.70074395528355" lon="9.216306170258362"><ele>278.7142857142857</ele><time>2026-04-25T06:18:27.999Z</time></trkpt><trkpt lat="45.700816726514965" lon="9.216297261579514"><ele>279.1428571428571</ele><time>2026-04-25T06:18:28.999Z</time></trkpt><trkpt lat="45.70088927795955" lon="9.216287629781881"><ele>279.57142857142856</ele><time>2026-04-25T06:18:29.999Z</time></trkpt><trkpt lat="45.70096271595984" lon="9.216275498048017"><ele>280.0</ele><time>2026-04-25T06:18:30.999Z</time></trkpt><trkpt lat="45.70103529383645" lon="9.216261231592162"><ele>280.14285714285717</ele><time>2026-04-25T06:18:31.999Z</time></trkpt><trkpt lat="45.70110753740582" lon="9.216249808401773"><ele>280.2857142857143</ele><time>2026-04-25T06:18:32.999Z</time></trkpt><trkpt lat="45.70118065588811" lon="9.216238527330411"><ele>280.42857142857144</ele><time>2026-04-25T06:18:33.999Z</time></trkpt><trkpt lat="45.70125262392511" lon="9.216224874707894"><ele>280.57142857142856</ele><time>2026-04-25T06:18:34.999Z</time></trkpt><trkpt lat="45.70132697701475" lon="9.216213659291256"><ele>280.7142857142857</ele><time>2026-04-25T06:18:35.999Z</time></trkpt><trkpt lat="45.70140152509751" lon="9.216208039112935"><ele>280.8571428571429</ele><time>2026-04-25T06:18:36.999Z</time></trkpt><trkpt lat="45.701474927275854" lon="9.216197873545365"><ele>281.0</ele><time>2026-04-25T06:18:37.999Z</time></trkpt><trkpt lat="45.701548827796664" lon="9.216189988548601"><ele>281.00000000000006</ele><time>2026-04-25T06:18:38.999Z</time></trkpt><trkpt lat="45.70162059963335" lon="9.216175931211954"><ele>281.0</ele><time>2026-04-25T06:18:39.999Z</time></trkpt><trkpt lat="45.701693815421585" lon="9.216162153118102"><ele>281.0</ele><time>2026-04-25T06:18:40.999Z</time></trkpt><trkpt lat="45.70176607804983" lon="9.216150405561141"><ele>281.0</ele><time>2026-04-25T06:18:41.999Z</time></trkpt><trkpt lat="45.70183921283254" lon="9.216141916530704"><ele>281.0</ele><time>2026-04-25T06:18:42.999Z</time></trkpt><trkpt lat="45.701910753429736" lon="9.216135409234218"><ele>281.00000000000006</ele><time>2026-04-25T06:18:43.999Z</time></trkpt><trkpt lat="45.70198245354884" lon="9.216124232186642"><ele>281.0</ele><time>2026-04-25T06:18:44.999Z</time></trkpt><trkpt lat="45.702055693375854" lon="9.216119762937074"><ele>281.28571428571433</ele><time>2026-04-25T06:18:45.999Z</time></trkpt><trkpt lat="45.70212846404232" lon="9.2161282472471"><ele>281.57142857142856</ele><time>2026-04-25T06:18:46.999Z</time></trkpt><trkpt lat="45.70220067735052" lon="9.21615434556193"><ele>281.8571428571429</ele><time>2026-04-25T06:18:47.999Z</time></trkpt><trkpt lat="45.70227237974078" lon="9.216191342031635"><ele>282.14285714285717</ele><time>2026-04-25T06:18:48.999Z</time></trkpt><trkpt lat="45.70234076606547" lon="9.216237401094498"><ele>282.42857142857144</ele><time>2026-04-25T06:18:49.999Z</time></trkpt><trkpt lat="45.70240930807956" lon="9.216282786295016"><ele>282.7142857142857</ele><time>2026-04-25T06:18:50.999Z</time></trkpt><trkpt lat="45.702480729506206" lon="9.216293151392271"><ele>283.0</ele><time>2026-04-25T06:18:51.999Z</time></trkpt><trkpt lat="45.70255774018373" lon="9.216272963405208"><ele>283.0</ele><time>2026-04-25T06:18:52.999Z</time></trkpt><trkpt lat="45.70262948658316" lon="9.216230722889918"><ele>283.0</ele><time>2026-04-25T06:18:53.999Z</time></trkpt><trkpt lat="45.70269596014667" lon="9.216175577452256"><ele>283.0</ele><time>2026-04-25T06:18:54.999Z</time></trkpt><trkpt lat="45.70275887052113" lon="9.216114222954774"><ele>283.0</ele><time>2026-04-25T06:18:55.999Z</time></trkpt><trkpt lat="45.70280169240987" lon="9.216026252229137"><ele>283.0</ele><time>2026-04-25T06:18:56.999Z</time></trkpt><trkpt lat="45.70289160379447" lon="9.216013408106294"><ele>283.0</ele><time>2026-04-25T06:18:57.999Z</time></trkpt><trkpt lat="45.70296307222251" lon="9.21599150134344"><ele>283.2857142857143</ele><time>2026-04-25T06:18:58.999Z</time></trkpt><trkpt lat="45.70303483410252" lon="9.215974066877504"><ele>283.5714285714286</ele><time>2026-04-25T06:18:59.999Z</time></trkpt><trkpt lat="45.703108678632105" lon="9.215961871725904"><ele>283.8571428571429</ele><time>2026-04-25T06:19:00.999Z</time></trkpt><trkpt lat="45.7031830897023" lon="9.215958542767906"><ele>284.14285714285717</ele><time>2026-04-25T06:19:01.999Z</time></trkpt><trkpt lat="45.70325375088068" lon="9.215953615035327"><ele>284.42857142857144</ele><time>2026-04-25T06:19:02.999Z</time></trkpt><trkpt lat="45.70332654910875" lon="9.21594525303918"><ele>284.7142857142857</ele><time>2026-04-25T06:19:03.999Z</time></trkpt><trkpt lat="45.70339813831229" lon="9.215933955192309"><ele>285.0</ele><time>2026-04-25T06:19:04.999Z</time></trkpt><trkpt lat="45.7034698008502" lon="9.215921385204567"><ele>285.0</ele><time>2026-04-25T06:19:05.999Z</time></trkpt><trkpt lat="45.703543872507076" lon="9.215906127733037"><ele>285.0</ele><time>2026-04-25T06:19:06.999Z</time></trkpt><trkpt lat="45.70361599482701" lon="9.215894007603385"><ele>285.0</ele><time>2026-04-25T06:19:07.999Z</time></trkpt><trkpt lat="45.703688063919834" lon="9.215881949869496"><ele>285.0</ele><time>2026-04-25T06:19:08.999Z</time></trkpt><trkpt lat="45.70376191391055" lon="9.21587193688359"><ele>285.0</ele><time>2026-04-25T06:19:09.999Z</time></trkpt><trkpt lat="45.7038316748332" lon="9.215859994645283"><ele>285.0</ele><time>2026-04-25T06:19:10.999Z</time></trkpt><trkpt lat="45.703900622375535" lon="9.215847287838617"><ele>285.0</ele><time>2026-04-25T06:19:11.999Z</time></trkpt><trkpt lat="45.703967131692096" lon="9.215837925538587"><ele>285.5</ele><time>2026-04-25T06:19:12.999Z</time></trkpt><trkpt lat="45.704034086740286" lon="9.21583003690753"><ele>286.0</ele><time>2026-04-25T06:19:14Z</time></trkpt><trkpt lat="45.70410080708853" lon="9.21582054213465"><ele>286.5</ele><time>2026-04-25T06:19:15Z</time></trkpt><trkpt lat="45.70416719053354" lon="9.215809210897325"><ele>287.0</ele><time>2026-04-25T06:19:16Z</time></trkpt><trkpt lat="45.70423181304455" lon="9.215798259421549"><ele>287.5</ele><time>2026-04-25T06:19:17Z</time></trkpt><trkpt lat="45.70435031010062" lon="9.21578345385657"><ele>288.0</ele><time>2026-04-25T06:19:19Z</time></trkpt><trkpt lat="45.704465161346135" lon="9.215762943872368"><ele>288.2</ele><time>2026-04-25T06:19:21Z</time></trkpt><trkpt lat="45.70457401717148" lon="9.215740831994546"><ele>288.4</ele><time>2026-04-25T06:19:23Z</time></trkpt><trkpt lat="45.70468868751579" lon="9.215725869107574"><ele>288.59999999999997</ele><time>2026-04-25T06:19:25Z</time></trkpt><trkpt lat="45.70479749550064" lon="9.215707804908774"><ele>288.8</ele><time>2026-04-25T06:19:27Z</time></trkpt><trkpt lat="45.704906125971796" lon="9.215686421010574"><ele>289.0</ele><time>2026-04-25T06:19:29Z</time></trkpt><trkpt lat="45.70501754093761" lon="9.215672286735197"><ele>289.0</ele><time>2026-04-25T06:19:31Z</time></trkpt><trkpt lat="45.70512204298141" lon="9.215656634971083"><ele>289.0</ele><time>2026-04-25T06:19:33Z</time></trkpt><trkpt lat="45.705223339679605" lon="9.21564212409389"><ele>289.0</ele><time>2026-04-25T06:19:35Z</time></trkpt><trkpt lat="45.70533080308178" lon="9.215625016864163"><ele>289.0</ele><time>2026-04-25T06:19:37Z</time></trkpt><trkpt lat="45.70544437351654" lon="9.21561070133277"><ele>289.0</ele><time>2026-04-25T06:19:39Z</time></trkpt><trkpt lat="45.705550693680735" lon="9.215591865471712"><ele>289.0</ele><time>2026-04-25T06:19:41Z</time></trkpt><trkpt lat="45.70567372415085" lon="9.215579917957795"><ele>289.0</ele><time>2026-04-25T06:19:43Z</time></trkpt><trkpt lat="45.705804244910254" lon="9.215556815142877"><ele>289.0</ele><time>2026-04-25T06:19:45Z</time></trkpt><trkpt lat="45.70586794653041" lon="9.215548906132472"><ele>289.0</ele><time>2026-04-25T06:19:46Z</time></trkpt><trkpt lat="45.70593534491006" lon="9.21554343471298"><ele>289.0</ele><time>2026-04-25T06:19:47Z</time></trkpt><trkpt lat="45.70600525901379" lon="9.215531951678132"><ele>289.0</ele><time>2026-04-25T06:19:48Z</time></trkpt><trkpt lat="45.70607238867966" lon="9.21551978217715"><ele>289.0</ele><time>2026-04-25T06:19:49Z</time></trkpt><trkpt lat="45.706140791335955" lon="9.215511134349809"><ele>289.0</ele><time>2026-04-25T06:19:50Z</time></trkpt><trkpt lat="45.706210610032755" lon="9.21549795827119"><ele>289.0</ele><time>2026-04-25T06:19:51Z</time></trkpt><trkpt lat="45.70627624504478" lon="9.215491874837753"><ele>289.0</ele><time>2026-04-25T06:19:52Z</time></trkpt><trkpt lat="45.706339025580036" lon="9.215483851606114"><ele>289.0</ele><time>2026-04-25T06:19:53Z</time></trkpt><trkpt lat="45.70646347961564" lon="9.215463765940328"><ele>289.0</ele><time>2026-04-25T06:19:55Z</time></trkpt><trkpt lat="45.70652867773165" lon="9.21545624011014"><ele>289.0</ele><time>2026-04-25T06:19:56Z</time></trkpt><trkpt lat="45.70659397205994" lon="9.215445633216344"><ele>289.0</ele><time>2026-04-25T06:19:57Z</time></trkpt><trkpt lat="45.70665713331095" lon="9.215438651078387"><ele>289.0</ele><time>2026-04-25T06:19:58Z</time></trkpt><trkpt lat="45.70672123548671" lon="9.215434267603381"><ele>289.0</ele><time>2026-04-25T06:19:59Z</time></trkpt><trkpt lat="45.70684630861754" lon="9.21541241694062"><ele>289.0</ele><time>2026-04-25T06:20:01Z</time></trkpt><trkpt lat="45.706967747920565" lon="9.21539650824227"><ele>289.0</ele><time>2026-04-25T06:20:03Z</time></trkpt><trkpt lat="45.70708375642597" lon="9.215380261226445"><ele>289.0</ele><time>2026-04-25T06:20:05Z</time></trkpt><trkpt lat="45.70720450098175" lon="9.215365149596682"><ele>289.0</ele><time>2026-04-25T06:20:07Z</time></trkpt><trkpt lat="45.70727175269772" lon="9.215355407330485"><ele>289.0</ele><time>2026-04-25T06:20:08Z</time></trkpt><trkpt lat="45.70734020699447" lon="9.215340866027104"><ele>289.0</ele><time>2026-04-25T06:20:09Z</time></trkpt><trkpt lat="45.70740856881138" lon="9.215328169893237"><ele>289.0</ele><time>2026-04-25T06:20:10Z</time></trkpt><trkpt lat="45.70747311794911" lon="9.215317127611987"><ele>289.0</ele><time>2026-04-25T06:20:11Z</time></trkpt><trkpt lat="45.70753854088011" lon="9.215311570490103"><ele>289.0</ele><time>2026-04-25T06:20:12Z</time></trkpt><trkpt lat="45.70760265491534" lon="9.215300888866002"><ele>289.0</ele><time>2026-04-25T06:20:13Z</time></trkpt><trkpt lat="45.70766801268332" lon="9.215294776512788"><ele>289.0</ele><time>2026-04-25T06:20:14Z</time></trkpt><trkpt lat="45.707734628195254" lon="9.215281122049598"><ele>289.0</ele><time>2026-04-25T06:20:15Z</time></trkpt><trkpt lat="45.70780413310056" lon="9.215269137208251"><ele>289.0</ele><time>2026-04-25T06:20:16Z</time></trkpt><trkpt lat="45.707873099550895" lon="9.215260438814633"><ele>289.0</ele><time>2026-04-25T06:20:17Z</time></trkpt><trkpt lat="45.707939030960105" lon="9.215254686868793"><ele>289.14285714285717</ele><time>2026-04-25T06:20:18Z</time></trkpt><trkpt lat="45.70800505833048" lon="9.215245023093688"><ele>289.2857142857143</ele><time>2026-04-25T06:20:19Z</time></trkpt><trkpt lat="45.70807030317268" lon="9.215235166366124"><ele>289.42857142857144</ele><time>2026-04-25T06:20:20Z</time></trkpt><trkpt lat="45.708136412556975" lon="9.215222603882511"><ele>289.57142857142856</ele><time>2026-04-25T06:20:21Z</time></trkpt><trkpt lat="45.70820230271066" lon="9.215211051641045"><ele>289.7142857142857</ele><time>2026-04-25T06:20:22Z</time></trkpt><trkpt lat="45.70826887719054" lon="9.215203155205742"><ele>289.8571428571429</ele><time>2026-04-25T06:20:23Z</time></trkpt><trkpt lat="45.70833453182788" lon="9.21519678513415"><ele>290.0</ele><time>2026-04-25T06:20:24Z</time></trkpt><trkpt lat="45.70839814049684" lon="9.215188511409549"><ele>290.0</ele><time>2026-04-25T06:20:25Z</time></trkpt><trkpt lat="45.70846094840545" lon="9.215181842297572"><ele>290.0</ele><time>2026-04-25T06:20:26Z</time></trkpt><trkpt lat="45.708524262300045" lon="9.21516739001692"><ele>290.0</ele><time>2026-04-25T06:20:27Z</time></trkpt><trkpt lat="45.70858856464504" lon="9.215157426975503"><ele>290.0</ele><time>2026-04-25T06:20:28Z</time></trkpt><trkpt lat="45.70865504959271" lon="9.215148918438782"><ele>290.0</ele><time>2026-04-25T06:20:29Z</time></trkpt><trkpt lat="45.70872155131351" lon="9.215138083586803"><ele>290.0</ele><time>2026-04-25T06:20:30Z</time></trkpt><trkpt lat="45.708788962200074" lon="9.215127697158005"><ele>290.0</ele><time>2026-04-25T06:20:31Z</time></trkpt><trkpt lat="45.70885793550144" lon="9.21511700689789"><ele>290.2857142857143</ele><time>2026-04-25T06:20:32Z</time></trkpt><trkpt lat="45.7089252743038" lon="9.215105696703187"><ele>290.5714285714286</ele><time>2026-04-25T06:20:33Z</time></trkpt><trkpt lat="45.70899229418132" lon="9.215095383958483"><ele>290.8571428571429</ele><time>2026-04-25T06:20:34Z</time></trkpt><trkpt lat="45.70905666574852" lon="9.21508543572379"><ele>291.14285714285717</ele><time>2026-04-25T06:20:35Z</time></trkpt><trkpt lat="45.7091200906503" lon="9.215077778518035"><ele>291.42857142857144</ele><time>2026-04-25T06:20:36Z</time></trkpt><trkpt lat="45.70918673143034" lon="9.21507021312657"><ele>291.7142857142857</ele><time>2026-04-25T06:20:37Z</time></trkpt><trkpt lat="45.70925497842647" lon="9.215060324682225"><ele>292.0</ele><time>2026-04-25T06:20:37.999Z</time></trkpt><trkpt lat="45.70932306287457" lon="9.215049804550992"><ele>292.0</ele><time>2026-04-25T06:20:38.999Z</time></trkpt><trkpt lat="45.709388770765194" lon="9.215039247544853"><ele>292.0</ele><time>2026-04-25T06:20:39.999Z</time></trkpt><trkpt lat="45.7094529418598" lon="9.215029071623297"><ele>292.0</ele><time>2026-04-25T06:20:40.999Z</time></trkpt><trkpt lat="45.70951714393272" lon="9.215020544259374"><ele>292.0</ele><time>2026-04-25T06:20:41.999Z</time></trkpt><trkpt lat="45.70958349584285" lon="9.215011335205315"><ele>292.0</ele><time>2026-04-25T06:20:42.999Z</time></trkpt><trkpt lat="45.70964862926847" lon="9.215002699296681"><ele>292.0</ele><time>2026-04-25T06:20:43.999Z</time></trkpt><trkpt lat="45.709714688963565" lon="9.214994709321"><ele>292.0</ele><time>2026-04-25T06:20:44.999Z</time></trkpt><trkpt lat="45.7097820885496" lon="9.21498354970403"><ele>292.0</ele><time>2026-04-25T06:20:45.999Z</time></trkpt><trkpt lat="45.70985103678377" lon="9.214970788801184"><ele>292.0</ele><time>2026-04-25T06:20:46.999Z</time></trkpt><trkpt lat="45.70991857105109" lon="9.214959145088422"><ele>292.0</ele><time>2026-04-25T06:20:47.999Z</time></trkpt><trkpt lat="45.70998474310056" lon="9.214946097950811"><ele>292.0</ele><time>2026-04-25T06:20:48.999Z</time></trkpt><trkpt lat="45.7100529986951" lon="9.214938487068062"><ele>292.0</ele><time>2026-04-25T06:20:49.999Z</time></trkpt><trkpt lat="45.71012060865141" lon="9.214932260038875"><ele>292.0</ele><time>2026-04-25T06:20:50.999Z</time></trkpt><trkpt lat="45.71018564086239" lon="9.214922905467315"><ele>292.0</ele><time>2026-04-25T06:20:51.999Z</time></trkpt><trkpt lat="45.710251652640835" lon="9.2149125087371"><ele>291.7142857142857</ele><time>2026-04-25T06:20:52.999Z</time></trkpt><trkpt lat="45.710318564896696" lon="9.214901223694214"><ele>291.42857142857144</ele><time>2026-04-25T06:20:53.999Z</time></trkpt><trkpt lat="45.71038631689891" lon="9.214888510511472"><ele>291.14285714285717</ele><time>2026-04-25T06:20:54.999Z</time></trkpt><trkpt lat="45.710452154070836" lon="9.214878765798305"><ele>290.8571428571429</ele><time>2026-04-25T06:20:55.999Z</time></trkpt><trkpt lat="45.71051779685554" lon="9.214871374896488"><ele>290.5714285714286</ele><time>2026-04-25T06:20:56.999Z</time></trkpt><trkpt lat="45.71058181553019" lon="9.214865077824587"><ele>290.2857142857143</ele><time>2026-04-25T06:20:57.999Z</time></trkpt><trkpt lat="45.71064957291771" lon="9.214858857498745"><ele>290.0</ele><time>2026-04-25T06:20:58.999Z</time></trkpt><trkpt lat="45.710717673316964" lon="9.214852665595224"><ele>290.0</ele><time>2026-04-25T06:20:59.999Z</time></trkpt><trkpt lat="45.7107853062307" lon="9.214844387607414"><ele>290.0</ele><time>2026-04-25T06:21:00.999Z</time></trkpt><trkpt lat="45.710853523818734" lon="9.214844030992364"><ele>290.0</ele><time>2026-04-25T06:21:01.999Z</time></trkpt><trkpt lat="45.71091833767947" lon="9.214845212731124"><ele>290.0</ele><time>2026-04-25T06:21:02.999Z</time></trkpt><trkpt lat="45.71098404303461" lon="9.214847630280188"><ele>290.0</ele><time>2026-04-25T06:21:03.999Z</time></trkpt><trkpt lat="45.711051168721504" lon="9.214845063871943"><ele>290.0</ele><time>2026-04-25T06:21:04.999Z</time></trkpt><trkpt lat="45.711117922315346" lon="9.214847562942973"><ele>290.0</ele><time>2026-04-25T06:21:05.999Z</time></trkpt><trkpt lat="45.711188107791735" lon="9.214853701024008"><ele>290.0</ele><time>2026-04-25T06:21:06.999Z</time></trkpt><trkpt lat="45.71125462731055" lon="9.214859267797793"><ele>290.0</ele><time>2026-04-25T06:21:07.999Z</time></trkpt><trkpt lat="45.711320096359856" lon="9.214866398911223"><ele>290.0</ele><time>2026-04-25T06:21:08.999Z</time></trkpt><trkpt lat="45.71138824673398" lon="9.214871045313412"><ele>290.0</ele><time>2026-04-25T06:21:09.999Z</time></trkpt><trkpt lat="45.711459432451825" lon="9.214871567893546"><ele>290.0</ele><time>2026-04-25T06:21:10.999Z</time></trkpt><trkpt lat="45.71153260278821" lon="9.214881249051258"><ele>290.0</ele><time>2026-04-25T06:21:11.999Z</time></trkpt><trkpt lat="45.71160392595854" lon="9.214900122150704"><ele>290.0</ele><time>2026-04-25T06:21:12.999Z</time></trkpt><trkpt lat="45.71167808949367" lon="9.214919501061019"><ele>290.0</ele><time>2026-04-25T06:21:13.999Z</time></trkpt><trkpt lat="45.711749584698865" lon="9.214941104697434"><ele>290.0</ele><time>2026-04-25T06:21:14.999Z</time></trkpt><trkpt lat="45.711821278691154" lon="9.214964366863454"><ele>290.0</ele><time>2026-04-25T06:21:15.999Z</time></trkpt><trkpt lat="45.711891713797904" lon="9.214990712619189"><ele>290.0</ele><time>2026-04-25T06:21:16.999Z</time></trkpt><trkpt lat="45.71196151838271" lon="9.21501840081611"><ele>290.0</ele><time>2026-04-25T06:21:17.999Z</time></trkpt><trkpt lat="45.71203433788426" lon="9.215046236164357"><ele>290.0</ele><time>2026-04-25T06:21:18.999Z</time></trkpt><trkpt lat="45.71210601441358" lon="9.215073689768149"><ele>290.0</ele><time>2026-04-25T06:21:20Z</time></trkpt><trkpt lat="45.71217757806092" lon="9.21510808274815"><ele>290.1666666666667</ele><time>2026-04-25T06:21:21Z</time></trkpt><trkpt lat="45.71224914133032" lon="9.215134295860047"><ele>290.33333333333337</ele><time>2026-04-25T06:21:22Z</time></trkpt><trkpt lat="45.71232261812879" lon="9.215159103100252"><ele>290.5</ele><time>2026-04-25T06:21:23Z</time></trkpt><trkpt lat="45.712394476772715" lon="9.21518885376357"><ele>290.6666666666667</ele><time>2026-04-25T06:21:24Z</time></trkpt><trkpt lat="45.71246722298244" lon="9.21521914324316"><ele>290.8333333333333</ele><time>2026-04-25T06:21:25Z</time></trkpt><trkpt lat="45.71253897767054" lon="9.215250409210597"><ele>291.0</ele><time>2026-04-25T06:21:26Z</time></trkpt><trkpt lat="45.71261297618664" lon="9.215284111060964"><ele>291.0</ele><time>2026-04-25T06:21:27Z</time></trkpt><trkpt lat="45.71268835876114" lon="9.21531255496351"><ele>291.0</ele><time>2026-04-25T06:21:28Z</time></trkpt><trkpt lat="45.712762057396866" lon="9.215341099495024"><ele>291.0</ele><time>2026-04-25T06:21:29Z</time></trkpt><trkpt lat="45.7128357832071" lon="9.215370656000085"><ele>291.0</ele><time>2026-04-25T06:21:30Z</time></trkpt><trkpt lat="45.71290951238535" lon="9.215400166251298"><ele>291.0</ele><time>2026-04-25T06:21:31Z</time></trkpt><trkpt lat="45.712982402415356" lon="9.21543229378504"><ele>291.0</ele><time>2026-04-25T06:21:32Z</time></trkpt><trkpt lat="45.713055457921804" lon="9.215465431237389"><ele>291.0</ele><time>2026-04-25T06:21:33Z</time></trkpt><trkpt lat="45.713129349035995" lon="9.215495868672269"><ele>291.0</ele><time>2026-04-25T06:21:34Z</time></trkpt><trkpt lat="45.71320417613719" lon="9.215521914785251"><ele>291.0</ele><time>2026-04-25T06:21:35Z</time></trkpt><trkpt lat="45.71327707130972" lon="9.215550842904367"><ele>291.0</ele><time>2026-04-25T06:21:36Z</time></trkpt><trkpt lat="45.713349880837775" lon="9.215581412334926"><ele>291.0</ele><time>2026-04-25T06:21:37Z</time></trkpt><trkpt lat="45.713422516603856" lon="9.215613933242686"><ele>291.0</ele><time>2026-04-25T06:21:38Z</time></trkpt><trkpt lat="45.71349595423066" lon="9.215643343387772"><ele>292.0</ele><time>2026-04-25T06:21:39Z</time></trkpt><trkpt lat="45.71356950811517" lon="9.215669374251549"><ele>293.0</ele><time>2026-04-25T06:21:40Z</time></trkpt><trkpt lat="45.71364339397675" lon="9.215699693622806"><ele>294.0</ele><time>2026-04-25T06:21:41Z</time></trkpt><trkpt lat="45.71371493988994" lon="9.21572908177408"><ele>295.0</ele><time>2026-04-25T06:21:42Z</time></trkpt><trkpt lat="45.713788998237305" lon="9.21575992806957"><ele>296.0</ele><time>2026-04-25T06:21:43Z</time></trkpt><trkpt lat="45.71386253469448" lon="9.215792057546347"><ele>297.0</ele><time>2026-04-25T06:21:44Z</time></trkpt><trkpt lat="45.71393678346526" lon="9.215818683397796"><ele>297.0</ele><time>2026-04-25T06:21:45Z</time></trkpt><trkpt lat="45.71401104153437" lon="9.215846313461949"><ele>297.0</ele><time>2026-04-25T06:21:46Z</time></trkpt><trkpt lat="45.71408707053593" lon="9.215875360292344"><ele>297.0</ele><time>2026-04-25T06:21:47Z</time></trkpt><trkpt lat="45.71416176356018" lon="9.215906324409733"><ele>297.0</ele><time>2026-04-25T06:21:48Z</time></trkpt><trkpt lat="45.714237175491775" lon="9.215935019145402"><ele>297.0</ele><time>2026-04-25T06:21:49Z</time></trkpt><trkpt lat="45.71431320549933" lon="9.215965121649472"><ele>297.0</ele><time>2026-04-25T06:21:50Z</time></trkpt><trkpt lat="45.71438879787598" lon="9.215994843565506"><ele>297.3333333333333</ele><time>2026-04-25T06:21:51Z</time></trkpt><trkpt lat="45.71446292597412" lon="9.216024313427711"><ele>297.6666666666667</ele><time>2026-04-25T06:21:52Z</time></trkpt><trkpt lat="45.71453902442614" lon="9.216055799702128"><ele>298.0</ele><time>2026-04-25T06:21:53Z</time></trkpt><trkpt lat="45.71461375606993" lon="9.21608634011818"><ele>298.33333333333337</ele><time>2026-04-25T06:21:54Z</time></trkpt><trkpt lat="45.71468698344139" lon="9.216116313314211"><ele>298.6666666666667</ele><time>2026-04-25T06:21:55Z</time></trkpt><trkpt lat="45.714771353720856" lon="9.216132218841732"><ele>299.0</ele><time>2026-04-25T06:21:56Z</time></trkpt><trkpt lat="45.71483988827836" lon="9.216160440322069"><ele>299.0</ele><time>2026-04-25T06:21:57Z</time></trkpt><trkpt lat="45.71491716042529" lon="9.216189359045854"><ele>299.0</ele><time>2026-04-25T06:21:58Z</time></trkpt><trkpt lat="45.714995313123445" lon="9.216212963662775"><ele>299.0</ele><time>2026-04-25T06:21:59Z</time></trkpt><trkpt lat="45.71507144769934" lon="9.21623072053049"><ele>299.0</ele><time>2026-04-25T06:22:00Z</time></trkpt><trkpt lat="45.71514830097025" lon="9.216243696537612"><ele>299.0</ele><time>2026-04-25T06:22:01Z</time></trkpt><trkpt lat="45.71522477328203" lon="9.21624898516834"><ele>299.0</ele><time>2026-04-25T06:22:02Z</time></trkpt><trkpt lat="45.71530155491151" lon="9.216256872582253"><ele>298.83333333333337</ele><time>2026-04-25T06:22:03Z</time></trkpt><trkpt lat="45.71537920979003" lon="9.216264201221193"><ele>298.6666666666667</ele><time>2026-04-25T06:22:04Z</time></trkpt><trkpt lat="45.71545805204192" lon="9.216268894945841"><ele>298.5</ele><time>2026-04-25T06:22:05Z</time></trkpt><trkpt lat="45.71553593858288" lon="9.216278373255406"><ele>298.3333333333333</ele><time>2026-04-25T06:22:06Z</time></trkpt><trkpt lat="45.71561368656507" lon="9.216285710934429"><ele>298.16666666666663</ele><time>2026-04-25T06:22:07Z</time></trkpt><trkpt lat="45.71569127424895" lon="9.216286859779933"><ele>298.0</ele><time>2026-04-25T06:22:08Z</time></trkpt><trkpt lat="45.71576728584876" lon="9.216266355288779"><ele>298.0</ele><time>2026-04-25T06:22:09Z</time></trkpt><trkpt lat="45.71584421313834" lon="9.216235555791704"><ele>298.0</ele><time>2026-04-25T06:22:10Z</time></trkpt><trkpt lat="45.71592177950574" lon="9.216204457628796"><ele>298.0</ele><time>2026-04-25T06:22:11Z</time></trkpt><trkpt lat="45.715998630462174" lon="9.216189989873913"><ele>298.0</ele><time>2026-04-25T06:22:12Z</time></trkpt><trkpt lat="45.71607218087153" lon="9.216195005715885"><ele>298.0</ele><time>2026-04-25T06:22:13Z</time></trkpt><trkpt lat="45.716142686090194" lon="9.216199225784505"><ele>298.0</ele><time>2026-04-25T06:22:14Z</time></trkpt><trkpt lat="45.71621321329044" lon="9.216196268912327"><ele>298.66666666666663</ele><time>2026-04-25T06:22:15Z</time></trkpt><trkpt lat="45.716287410147324" lon="9.216189120123175"><ele>299.3333333333333</ele><time>2026-04-25T06:22:16Z</time></trkpt><trkpt lat="45.71636230147404" lon="9.216178064633992"><ele>300.0</ele><time>2026-04-25T06:22:17Z</time></trkpt><trkpt lat="45.716438243469334" lon="9.216167100633651"><ele>300.6666666666667</ele><time>2026-04-25T06:22:18Z</time></trkpt><trkpt lat="45.7165151121477" lon="9.216157434011452"><ele>301.33333333333337</ele><time>2026-04-25T06:22:19Z</time></trkpt><trkpt lat="45.7165913442563" lon="9.216148336474332"><ele>302.0</ele><time>2026-04-25T06:22:20Z</time></trkpt><trkpt lat="45.716668867285364" lon="9.216138020511472"><ele>302.0</ele><time>2026-04-25T06:22:21Z</time></trkpt><trkpt lat="45.71674505410685" lon="9.216127384031122"><ele>302.0</ele><time>2026-04-25T06:22:22Z</time></trkpt><trkpt lat="45.716823197501775" lon="9.21611748200325"><ele>302.0</ele><time>2026-04-25T06:22:23Z</time></trkpt><trkpt lat="45.716899893246435" lon="9.216108813526498"><ele>302.0</ele><time>2026-04-25T06:22:24Z</time></trkpt><trkpt lat="45.71697521733939" lon="9.216100182279922"><ele>302.0</ele><time>2026-04-25T06:22:25Z</time></trkpt><trkpt lat="45.71705210170517" lon="9.216087537295214"><ele>302.0</ele><time>2026-04-25T06:22:26Z</time></trkpt><trkpt lat="45.717126943337156" lon="9.216075213857264"><ele>302.0</ele><time>2026-04-25T06:22:27Z</time></trkpt><trkpt lat="45.71720458475145" lon="9.216071678271405"><ele>302.0</ele><time>2026-04-25T06:22:28Z</time></trkpt><trkpt lat="45.71728272117598" lon="9.216064714964114"><ele>302.0</ele><time>2026-04-25T06:22:29Z</time></trkpt><trkpt lat="45.71736078272925" lon="9.216053700547853"><ele>302.0</ele><time>2026-04-25T06:22:30Z</time></trkpt><trkpt lat="45.71743829302719" lon="9.216042814028308"><ele>302.0</ele><time>2026-04-25T06:22:31Z</time></trkpt><trkpt lat="45.71751614094467" lon="9.216029967193569"><ele>302.0</ele><time>2026-04-25T06:22:32Z</time></trkpt><trkpt lat="45.71759381950485" lon="9.21602082814715"><ele>302.0</ele><time>2026-04-25T06:22:33Z</time></trkpt><trkpt lat="45.71767141019167" lon="9.216013423152546"><ele>302.0</ele><time>2026-04-25T06:22:34Z</time></trkpt><trkpt lat="45.71774907338061" lon="9.216002051754563"><ele>302.0</ele><time>2026-04-25T06:22:35Z</time></trkpt><trkpt lat="45.71782670134769" lon="9.21599146218105"><ele>302.0</ele><time>2026-04-25T06:22:36Z</time></trkpt><trkpt lat="45.7179030443805" lon="9.215983384032901"><ele>302.0</ele><time>2026-04-25T06:22:37Z</time></trkpt><trkpt lat="45.717980903259395" lon="9.215970857396009"><ele>302.0</ele><time>2026-04-25T06:22:38Z</time></trkpt><trkpt lat="45.7180587385089" lon="9.215961213006155"><ele>301.8571428571429</ele><time>2026-04-25T06:22:39Z</time></trkpt><trkpt lat="45.718136281449645" lon="9.215948743115883"><ele>301.7142857142857</ele><time>2026-04-25T06:22:40Z</time></trkpt><trkpt lat="45.71821000824852" lon="9.215942960829826"><ele>301.57142857142856</ele><time>2026-04-25T06:22:41Z</time></trkpt><trkpt lat="45.7182803341349" lon="9.215935848193427"><ele>301.42857142857144</ele><time>2026-04-25T06:22:42Z</time></trkpt><trkpt lat="45.718348658586514" lon="9.215930067025958"><ele>301.2857142857143</ele><time>2026-04-25T06:22:43Z</time></trkpt><trkpt lat="45.71841562325011" lon="9.215922295926237"><ele>301.14285714285717</ele><time>2026-04-25T06:22:44Z</time></trkpt><trkpt lat="45.71848000614384" lon="9.21592176076116"><ele>301.0</ele><time>2026-04-25T06:22:45Z</time></trkpt><trkpt lat="45.718603516736515" lon="9.21594029850192"><ele>301.0</ele><time>2026-04-25T06:22:46.999Z</time></trkpt><trkpt lat="45.718667918044" lon="9.215962977209944"><ele>301.0</ele><time>2026-04-25T06:22:47.999Z</time></trkpt><trkpt lat="45.71873443935927" lon="9.21599101794874"><ele>301.0</ele><time>2026-04-25T06:22:48.999Z</time></trkpt><trkpt lat="45.71880396045322" lon="9.216010931143257"><ele>301.0</ele><time>2026-04-25T06:22:49.999Z</time></trkpt><trkpt lat="45.71886943170024" lon="9.216001893417177"><ele>301.0</ele><time>2026-04-25T06:22:50.999Z</time></trkpt><trkpt lat="45.718929992524785" lon="9.21596465161504"><ele>301.0</ele><time>2026-04-25T06:22:51.999Z</time></trkpt><trkpt lat="45.718989697786576" lon="9.21591464353027"><ele>301.0</ele><time>2026-04-25T06:22:52.999Z</time></trkpt><trkpt lat="45.71905393725811" lon="9.215871127257246"><ele>301.0</ele><time>2026-04-25T06:22:53.999Z</time></trkpt><trkpt lat="45.7191210414841" lon="9.215838914172572"><ele>301.0</ele><time>2026-04-25T06:22:54.999Z</time></trkpt><trkpt lat="45.71919129662845" lon="9.21582095574114"><ele>301.0</ele><time>2026-04-25T06:22:55.999Z</time></trkpt><trkpt lat="45.71926247132814" lon="9.215811594029557"><ele>301.0</ele><time>2026-04-25T06:22:56.999Z</time></trkpt><trkpt lat="45.71933545976661" lon="9.215804922497446"><ele>301.0</ele><time>2026-04-25T06:22:57.999Z</time></trkpt><trkpt lat="45.719406694544986" lon="9.21579376091866"><ele>301.0</ele><time>2026-04-25T06:22:58.999Z</time></trkpt><trkpt lat="45.7194786645896" lon="9.215782231857027"><ele>301.0</ele><time>2026-04-25T06:22:59.999Z</time></trkpt><trkpt lat="45.71955218138867" lon="9.215774293265206"><ele>301.5</ele><time>2026-04-25T06:23:00.999Z</time></trkpt><trkpt lat="45.71962893756559" lon="9.215767473701508"><ele>302.0</ele><time>2026-04-25T06:23:01.999Z</time></trkpt><trkpt lat="45.71970374389645" lon="9.215759045817215"><ele>302.5</ele><time>2026-04-25T06:23:02.999Z</time></trkpt><trkpt lat="45.71977910894737" lon="9.215749710647348"><ele>303.0</ele><time>2026-04-25T06:23:03.999Z</time></trkpt><trkpt lat="45.719855760417744" lon="9.215738513195047"><ele>303.5</ele><time>2026-04-25T06:23:04.999Z</time></trkpt><trkpt lat="45.7199337138467" lon="9.215730321117858"><ele>304.0</ele><time>2026-04-25T06:23:05.999Z</time></trkpt><trkpt lat="45.720011706968165" lon="9.21572281065358"><ele>304.0</ele><time>2026-04-25T06:23:06.999Z</time></trkpt><trkpt lat="45.72008854938684" lon="9.215710144863307"><ele>304.0</ele><time>2026-04-25T06:23:07.999Z</time></trkpt><trkpt lat="45.720166490837855" lon="9.21569806145928"><ele>304.0</ele><time>2026-04-25T06:23:08.999Z</time></trkpt><trkpt lat="45.72024353764388" lon="9.21569038804399"><ele>304.0</ele><time>2026-04-25T06:23:09.999Z</time></trkpt><trkpt lat="45.7203218279985" lon="9.215682538601246"><ele>304.0</ele><time>2026-04-25T06:23:10.999Z</time></trkpt><trkpt lat="45.72040192312726" lon="9.215670782265738"><ele>304.0</ele><time>2026-04-25T06:23:11.999Z</time></trkpt><trkpt lat="45.720479295648055" lon="9.215659882502711"><ele>304.3333333333333</ele><time>2026-04-25T06:23:12.999Z</time></trkpt><trkpt lat="45.72055767463191" lon="9.215649554152307"><ele>304.66666666666663</ele><time>2026-04-25T06:23:13.999Z</time></trkpt><trkpt lat="45.72063640642605" lon="9.215636496587068"><ele>305.0</ele><time>2026-04-25T06:23:14.999Z</time></trkpt><trkpt lat="45.72071473553107" lon="9.215624213545897"><ele>305.3333333333333</ele><time>2026-04-25T06:23:15.999Z</time></trkpt><trkpt lat="45.720793650207185" lon="9.215612178758061"><ele>305.6666666666667</ele><time>2026-04-25T06:23:16.999Z</time></trkpt><trkpt lat="45.72087180250639" lon="9.215598698721639"><ele>306.0</ele><time>2026-04-25T06:23:17.999Z</time></trkpt><trkpt lat="45.72095014090022" lon="9.2155871039102"><ele>306.0</ele><time>2026-04-25T06:23:18.999Z</time></trkpt><trkpt lat="45.72102960733145" lon="9.21557860864988"><ele>306.0</ele><time>2026-04-25T06:23:19.999Z</time></trkpt><trkpt lat="45.721109687547234" lon="9.215572643579288"><ele>306.0</ele><time>2026-04-25T06:23:20.999Z</time></trkpt><trkpt lat="45.721187466467896" lon="9.215555000053639"><ele>306.0</ele><time>2026-04-25T06:23:21.999Z</time></trkpt><trkpt lat="45.721265051979415" lon="9.215545491315021"><ele>306.0</ele><time>2026-04-25T06:23:22.999Z</time></trkpt><trkpt lat="45.72134691582607" lon="9.215537771716354"><ele>306.0</ele><time>2026-04-25T06:23:23.999Z</time></trkpt><trkpt lat="45.72142773743738" lon="9.215526901253552"><ele>305.8333333333333</ele><time>2026-04-25T06:23:24.999Z</time></trkpt><trkpt lat="45.72150868671569" lon="9.215515468588364"><ele>305.6666666666667</ele><time>2026-04-25T06:23:26Z</time></trkpt><trkpt lat="45.72158870014551" lon="9.215505276752827"><ele>305.5</ele><time>2026-04-25T06:23:27Z</time></trkpt><trkpt lat="45.7216690389213" lon="9.215495732312688"><ele>305.33333333333337</ele><time>2026-04-25T06:23:28Z</time></trkpt><trkpt lat="45.721749764981745" lon="9.215484863901725"><ele>305.1666666666667</ele><time>2026-04-25T06:23:29Z</time></trkpt><trkpt lat="45.72183216168112" lon="9.215476456887004"><ele>305.0</ele><time>2026-04-25T06:23:30Z</time></trkpt><trkpt lat="45.72191296950159" lon="9.215465226889847"><ele>305.83333333333337</ele><time>2026-04-25T06:23:31Z</time></trkpt><trkpt lat="45.72199428875893" lon="9.215454180931708"><ele>306.6666666666667</ele><time>2026-04-25T06:23:32Z</time></trkpt><trkpt lat="45.72207465852877" lon="9.215444033402036"><ele>307.5</ele><time>2026-04-25T06:23:33Z</time></trkpt><trkpt lat="45.72215505741101" lon="9.215432226350943"><ele>308.3333333333333</ele><time>2026-04-25T06:23:34Z</time></trkpt><trkpt lat="45.722234212370694" lon="9.21542046405719"><ele>309.16666666666663</ele><time>2026-04-25T06:23:35Z</time></trkpt><trkpt lat="45.72231457478903" lon="9.21541387991135"><ele>310.0</ele><time>2026-04-25T06:23:36Z</time></trkpt><trkpt lat="45.722395847010766" lon="9.215407940804898"><ele>310.0</ele><time>2026-04-25T06:23:37Z</time></trkpt><trkpt lat="45.72247482015601" lon="9.215400110804197"><ele>310.0</ele><time>2026-04-25T06:23:38Z</time></trkpt><trkpt lat="45.722556097926855" lon="9.215389703391583"><ele>310.0</ele><time>2026-04-25T06:23:39Z</time></trkpt><trkpt lat="45.72263601036974" lon="9.215376793821681"><ele>310.0</ele><time>2026-04-25T06:23:40Z</time></trkpt><trkpt lat="45.72271599859762" lon="9.215363568109286"><ele>310.0</ele><time>2026-04-25T06:23:41Z</time></trkpt><trkpt lat="45.72279637249028" lon="9.215355837980455"><ele>310.0</ele><time>2026-04-25T06:23:42Z</time></trkpt><trkpt lat="45.722876128978584" lon="9.215346042029047"><ele>310.16666666666663</ele><time>2026-04-25T06:23:43Z</time></trkpt><trkpt lat="45.7229559300662" lon="9.215337703463144"><ele>310.3333333333333</ele><time>2026-04-25T06:23:44Z</time></trkpt><trkpt lat="45.72303639399226" lon="9.215330850969458"><ele>310.5</ele><time>2026-04-25T06:23:45Z</time></trkpt><trkpt lat="45.72311307021298" lon="9.215321210090265"><ele>310.6666666666667</ele><time>2026-04-25T06:23:46Z</time></trkpt><trkpt lat="45.72318965391142" lon="9.215313791216376"><ele>310.83333333333337</ele><time>2026-04-25T06:23:47Z</time></trkpt><trkpt lat="45.72326800102692" lon="9.215303616736078"><ele>311.0</ele><time>2026-04-25T06:23:48Z</time></trkpt><trkpt lat="45.723346863726874" lon="9.215296504913091"><ele>311.0</ele><time>2026-04-25T06:23:49Z</time></trkpt><trkpt lat="45.7234252745666" lon="9.215288421488639"><ele>311.0</ele><time>2026-04-25T06:23:50Z</time></trkpt><trkpt lat="45.72350343341956" lon="9.215278359238535"><ele>311.0</ele><time>2026-04-25T06:23:51Z</time></trkpt><trkpt lat="45.723581903179266" lon="9.215267948735503"><ele>311.0</ele><time>2026-04-25T06:23:52Z</time></trkpt><trkpt lat="45.72366067814045" lon="9.215258986428697"><ele>311.0</ele><time>2026-04-25T06:23:53Z</time></trkpt><trkpt lat="45.723739244195414" lon="9.215248802690237"><ele>311.0</ele><time>2026-04-25T06:23:54Z</time></trkpt><trkpt lat="45.72381637518499" lon="9.215235111526477"><ele>311.1666666666667</ele><time>2026-04-25T06:23:55Z</time></trkpt><trkpt lat="45.72389456977383" lon="9.215225084867372"><ele>311.33333333333337</ele><time>2026-04-25T06:23:56Z</time></trkpt><trkpt lat="45.72397373611492" lon="9.215213685097654"><ele>311.5</ele><time>2026-04-25T06:23:57Z</time></trkpt><trkpt lat="45.72405152464442" lon="9.215202265106413"><ele>311.6666666666667</ele><time>2026-04-25T06:23:58Z</time></trkpt><trkpt lat="45.72413176887873" lon="9.21519358716754"><ele>311.8333333333333</ele><time>2026-04-25T06:23:59Z</time></trkpt><trkpt lat="45.72420990697442" lon="9.215180467792985"><ele>312.0</ele><time>2026-04-25T06:24:00Z</time></trkpt><trkpt lat="45.72428839155978" lon="9.215167362660695"><ele>312.0</ele><time>2026-04-25T06:24:01Z</time></trkpt><trkpt lat="45.72436684615196" lon="9.215157549911442"><ele>312.0</ele><time>2026-04-25T06:24:02Z</time></trkpt><trkpt lat="45.72444467551213" lon="9.215151355785629"><ele>312.0</ele><time>2026-04-25T06:24:03Z</time></trkpt><trkpt lat="45.72452441822653" lon="9.215143444251288"><ele>312.0</ele><time>2026-04-25T06:24:04Z</time></trkpt><trkpt lat="45.72460388263184" lon="9.215137192920993"><ele>312.0</ele><time>2026-04-25T06:24:05Z</time></trkpt><trkpt lat="45.724683520985224" lon="9.215128676693727"><ele>312.0</ele><time>2026-04-25T06:24:06Z</time></trkpt><trkpt lat="45.72476160238546" lon="9.215122102146493"><ele>312.1666666666667</ele><time>2026-04-25T06:24:07Z</time></trkpt><trkpt lat="45.724840470545715" lon="9.215114263629783"><ele>312.3333333333333</ele><time>2026-04-25T06:24:08Z</time></trkpt><trkpt lat="45.7249186159275" lon="9.215108217213837"><ele>312.5</ele><time>2026-04-25T06:24:09Z</time></trkpt><trkpt lat="45.724997067943676" lon="9.215106365678709"><ele>312.66666666666663</ele><time>2026-04-25T06:24:10Z</time></trkpt><trkpt lat="45.72507606067052" lon="9.21509779841669"><ele>312.8333333333333</ele><time>2026-04-25T06:24:11Z</time></trkpt><trkpt lat="45.72514769532812" lon="9.215085470582297"><ele>313.0</ele><time>2026-04-25T06:24:12Z</time></trkpt><trkpt lat="45.72521905450821" lon="9.215071539189175"><ele>313.6</ele><time>2026-04-25T06:24:13Z</time></trkpt><trkpt lat="45.72529072385874" lon="9.21506321721804"><ele>314.20000000000005</ele><time>2026-04-25T06:24:14Z</time></trkpt><trkpt lat="45.72535886139256" lon="9.215055635792625"><ele>314.8</ele><time>2026-04-25T06:24:15Z</time></trkpt><trkpt lat="45.72548082495094" lon="9.215042972569087"><ele>315.40000000000003</ele><time>2026-04-25T06:24:17Z</time></trkpt><trkpt lat="45.7256062089745" lon="9.215067540737145"><ele>316.0</ele><time>2026-04-25T06:24:19Z</time></trkpt><trkpt lat="45.72567115733501" lon="9.215083167529292"><ele>316.00000000000006</ele><time>2026-04-25T06:24:20Z</time></trkpt><trkpt lat="45.725740020683695" lon="9.215082342186607"><ele>316.0</ele><time>2026-04-25T06:24:21Z</time></trkpt><trkpt lat="45.725807163981315" lon="9.215063019560521"><ele>316.0</ele><time>2026-04-25T06:24:22Z</time></trkpt><trkpt lat="45.725875430194186" lon="9.215039044953349"><ele>316.0</ele><time>2026-04-25T06:24:23Z</time></trkpt><trkpt lat="45.72594517903554" lon="9.21501363547602"><ele>316.0</ele><time>2026-04-25T06:24:24Z</time></trkpt><trkpt lat="45.726016665388094" lon="9.21499520497444"><ele>316.00000000000006</ele><time>2026-04-25T06:24:25Z</time></trkpt><trkpt lat="45.7260866763362" lon="9.214981912045022"><ele>316.0</ele><time>2026-04-25T06:24:26Z</time></trkpt><trkpt lat="45.72615760160394" lon="9.214968971618621"><ele>316.5714285714286</ele><time>2026-04-25T06:24:27Z</time></trkpt><trkpt lat="45.72622930331713" lon="9.214956042417844"><ele>317.14285714285717</ele><time>2026-04-25T06:24:28Z</time></trkpt><trkpt lat="45.72630001369419" lon="9.214943433585873"><ele>317.7142857142857</ele><time>2026-04-25T06:24:29Z</time></trkpt><trkpt lat="45.72637227225472" lon="9.21493243149988"><ele>318.28571428571433</ele><time>2026-04-25T06:24:30Z</time></trkpt><trkpt lat="45.72644508331316" lon="9.214920520970995"><ele>318.8571428571429</ele><time>2026-04-25T06:24:31Z</time></trkpt><trkpt lat="45.726517018053315" lon="9.214908763055158"><ele>319.42857142857144</ele><time>2026-04-25T06:24:32Z</time></trkpt><trkpt lat="45.726588785607014" lon="9.21489594392745"><ele>320.0</ele><time>2026-04-25T06:24:33Z</time></trkpt><trkpt lat="45.726660973072484" lon="9.214886823943056"><ele>320.0</ele><time>2026-04-25T06:24:34Z</time></trkpt><trkpt lat="45.72673422729161" lon="9.2148759670016"><ele>320.0</ele><time>2026-04-25T06:24:35Z</time></trkpt><trkpt lat="45.72680525758103" lon="9.21486210623214"><ele>320.0</ele><time>2026-04-25T06:24:36Z</time></trkpt><trkpt lat="45.726878567178474" lon="9.214852343472236"><ele>320.0</ele><time>2026-04-25T06:24:37Z</time></trkpt><trkpt lat="45.72695094267296" lon="9.214844610597856"><ele>320.0</ele><time>2026-04-25T06:24:38Z</time></trkpt><trkpt lat="45.727023055694936" lon="9.214835026006227"><ele>320.0</ele><time>2026-04-25T06:24:39Z</time></trkpt><trkpt lat="45.727094962765314" lon="9.214825608928466"><ele>320.0</ele><time>2026-04-25T06:24:40Z</time></trkpt><trkpt lat="45.727168141157826" lon="9.214817156717658"><ele>320.57142857142856</ele><time>2026-04-25T06:24:41Z</time></trkpt><trkpt lat="45.72724090927465" lon="9.214808776591685"><ele>321.14285714285717</ele><time>2026-04-25T06:24:42Z</time></trkpt><trkpt lat="45.72731424992652" lon="9.214799774685511"><ele>321.7142857142857</ele><time>2026-04-25T06:24:43Z</time></trkpt><trkpt lat="45.72738691751209" lon="9.214790838142024"><ele>322.2857142857143</ele><time>2026-04-25T06:24:44Z</time></trkpt><trkpt lat="45.72745973785875" lon="9.214777702024135"><ele>322.85714285714283</ele><time>2026-04-25T06:24:45Z</time></trkpt><trkpt lat="45.72753221970826" lon="9.21476967292191"><ele>323.42857142857144</ele><time>2026-04-25T06:24:46Z</time></trkpt><trkpt lat="45.72760593007342" lon="9.21475836822022"><ele>324.0</ele><time>2026-04-25T06:24:47Z</time></trkpt><trkpt lat="45.72768057491956" lon="9.21475153426012"><ele>324.3333333333333</ele><time>2026-04-25T06:24:48Z</time></trkpt><trkpt lat="45.72775394157169" lon="9.214744535570727"><ele>324.6666666666667</ele><time>2026-04-25T06:24:48.999Z</time></trkpt><trkpt lat="45.72782842877935" lon="9.21473417392086"><ele>325.0</ele><time>2026-04-25T06:24:49.999Z</time></trkpt><trkpt lat="45.72790286452713" lon="9.214723186519574"><ele>325.33333333333337</ele><time>2026-04-25T06:24:50.999Z</time></trkpt><trkpt lat="45.72797724491612" lon="9.214712694141289"><ele>325.6666666666667</ele><time>2026-04-25T06:24:51.999Z</time></trkpt><trkpt lat="45.72805192267154" lon="9.21470423697106"><ele>326.0</ele><time>2026-04-25T06:24:52.999Z</time></trkpt><trkpt lat="45.72812839720778" lon="9.21469486522422"><ele>326.0</ele><time>2026-04-25T06:24:53.999Z</time></trkpt><trkpt lat="45.728203379082814" lon="9.214685114606816"><ele>326.0</ele><time>2026-04-25T06:24:54.999Z</time></trkpt><trkpt lat="45.728278561572296" lon="9.214677202158283"><ele>326.0</ele><time>2026-04-25T06:24:55.999Z</time></trkpt><trkpt lat="45.728355151491115" lon="9.214669790790671"><ele>326.0</ele><time>2026-04-25T06:24:56.999Z</time></trkpt><trkpt lat="45.72843009746113" lon="9.21465985100922"><ele>326.0</ele><time>2026-04-25T06:24:57.999Z</time></trkpt><trkpt lat="45.72850654345911" lon="9.214649861124876"><ele>326.0</ele><time>2026-04-25T06:24:58.999Z</time></trkpt><trkpt lat="45.72858030091877" lon="9.214635081980768"><ele>325.6666666666667</ele><time>2026-04-25T06:24:59.999Z</time></trkpt><trkpt lat="45.72865496987949" lon="9.214624762586451"><ele>325.33333333333337</ele><time>2026-04-25T06:25:00.999Z</time></trkpt><trkpt lat="45.72872675437037" lon="9.21461779832129"><ele>325.0</ele><time>2026-04-25T06:25:01.999Z</time></trkpt><trkpt lat="45.728794167658975" lon="9.21461077025524"><ele>324.6666666666667</ele><time>2026-04-25T06:25:02.999Z</time></trkpt><trkpt lat="45.728858304698846" lon="9.214604966581836"><ele>324.3333333333333</ele><time>2026-04-25T06:25:03.999Z</time></trkpt><trkpt lat="45.72897082104175" lon="9.214592526988294"><ele>324.0</ele><time>2026-04-25T06:25:05.999Z</time></trkpt><trkpt lat="45.72906234727288" lon="9.214583057155304"><ele>324.0</ele><time>2026-04-25T06:25:07.999Z</time></trkpt><trkpt lat="45.72914718573913" lon="9.21457338723238"><ele>324.0</ele><time>2026-04-25T06:25:09.999Z</time></trkpt><trkpt lat="45.7292334512497" lon="9.214560261292744"><ele>324.0</ele><time>2026-04-25T06:25:11.999Z</time></trkpt><trkpt lat="45.72932332702368" lon="9.214547613329335"><ele>324.0</ele><time>2026-04-25T06:25:13.999Z</time></trkpt><trkpt lat="45.72941636171933" lon="9.21453297470663"><ele>324.0</ele><time>2026-04-25T06:25:15.999Z</time></trkpt><trkpt lat="45.729509951483614" lon="9.214521093194024"><ele>323.5</ele><time>2026-04-25T06:25:17.999Z</time></trkpt><trkpt lat="45.7296103953551" lon="9.214501967559556"><ele>323.0</ele><time>2026-04-25T06:25:19.999Z</time></trkpt><trkpt lat="45.72972707561051" lon="9.214473007025866"><ele>322.5</ele><time>2026-04-25T06:25:21.999Z</time></trkpt><trkpt lat="45.72979366018783" lon="9.214465384331897"><ele>322.0</ele><time>2026-04-25T06:25:22.999Z</time></trkpt><trkpt lat="45.729858457004624" lon="9.21446538687651"><ele>321.5</ele><time>2026-04-25T06:25:23.999Z</time></trkpt><trkpt lat="45.729926849115046" lon="9.21446411914994"><ele>321.0</ele><time>2026-04-25T06:25:24.999Z</time></trkpt><trkpt lat="45.72999539150477" lon="9.214458979104492"><ele>320.99999999999994</ele><time>2026-04-25T06:25:25.999Z</time></trkpt><trkpt lat="45.730064767590825" lon="9.214449830319419"><ele>321.0</ele><time>2026-04-25T06:25:26.999Z</time></trkpt><trkpt lat="45.73013415054009" lon="9.214439957316612"><ele>321.0</ele><time>2026-04-25T06:25:27.999Z</time></trkpt><trkpt lat="45.7302045008264" lon="9.214429152336255"><ele>321.0</ele><time>2026-04-25T06:25:28.999Z</time></trkpt><trkpt lat="45.730274714568125" lon="9.214421034556809"><ele>321.0</ele><time>2026-04-25T06:25:29.999Z</time></trkpt><trkpt lat="45.73034376474887" lon="9.214413240635455"><ele>320.99999999999994</ele><time>2026-04-25T06:25:30.999Z</time></trkpt><trkpt lat="45.730416544527685" lon="9.214402874476418"><ele>321.0</ele><time>2026-04-25T06:25:32Z</time></trkpt><trkpt lat="45.73048744678609" lon="9.214391395000112"><ele>321.1428571428571</ele><time>2026-04-25T06:25:33Z</time></trkpt><trkpt lat="45.73056079247812" lon="9.214382496018168"><ele>321.2857142857143</ele><time>2026-04-25T06:25:34Z</time></trkpt><trkpt lat="45.7306348607506" lon="9.214370777526565"><ele>321.42857142857144</ele><time>2026-04-25T06:25:35Z</time></trkpt><trkpt lat="45.730709552740336" lon="9.214359348767074"><ele>321.57142857142856</ele><time>2026-04-25T06:25:36Z</time></trkpt><trkpt lat="45.730782640658084" lon="9.214348265523773"><ele>321.7142857142857</ele><time>2026-04-25T06:25:37Z</time></trkpt><trkpt lat="45.73085363088831" lon="9.214335867172448"><ele>321.85714285714283</ele><time>2026-04-25T06:25:38Z</time></trkpt><trkpt lat="45.73092011681757" lon="9.214320329211317"><ele>322.0</ele><time>2026-04-25T06:25:39Z</time></trkpt><trkpt lat="45.730985132554295" lon="9.214306057627029"><ele>323.0</ele><time>2026-04-25T06:25:40Z</time></trkpt><trkpt lat="45.73110712007008" lon="9.214283067879336"><ele>324.0</ele><time>2026-04-25T06:25:42Z</time></trkpt><trkpt lat="45.73122986970231" lon="9.214292306026994"><ele>325.0</ele><time>2026-04-25T06:25:44Z</time></trkpt><trkpt lat="45.731294098449204" lon="9.214322894287895"><ele>326.0</ele><time>2026-04-25T06:25:45Z</time></trkpt><trkpt lat="45.731360730931556" lon="9.214355675649161"><ele>327.0</ele><time>2026-04-25T06:25:46Z</time></trkpt><trkpt lat="45.73143005927305" lon="9.214361198759962"><ele>327.0</ele><time>2026-04-25T06:25:47Z</time></trkpt><trkpt lat="45.731494491734075" lon="9.21443237089734"><ele>327.0</ele><time>2026-04-25T06:25:48Z</time></trkpt><trkpt lat="45.73155889942697" lon="9.214480384719343"><ele>327.0</ele><time>2026-04-25T06:25:49Z</time></trkpt><trkpt lat="45.731624787917426" lon="9.214527402269583"><ele>327.0</ele><time>2026-04-25T06:25:50Z</time></trkpt><trkpt lat="45.731695621718494" lon="9.214570470339446"><ele>327.0</ele><time>2026-04-25T06:25:51Z</time></trkpt><trkpt lat="45.73177021807692" lon="9.21461558167777"><ele>327.0</ele><time>2026-04-25T06:25:52Z</time></trkpt><trkpt lat="45.73184785354024" lon="9.214665174311156"><ele>327.0</ele><time>2026-04-25T06:25:53Z</time></trkpt><trkpt lat="45.73192823943255" lon="9.214720971178728"><ele>327.0</ele><time>2026-04-25T06:25:54Z</time></trkpt><trkpt lat="45.73200638500696" lon="9.214778590548383"><ele>327.0</ele><time>2026-04-25T06:25:55Z</time></trkpt><trkpt lat="45.732081936393165" lon="9.214829017208737"><ele>327.0</ele><time>2026-04-25T06:25:56Z</time></trkpt><trkpt lat="45.73215531543477" lon="9.214879300548864"><ele>327.0</ele><time>2026-04-25T06:25:57Z</time></trkpt><trkpt lat="45.73222750982379" lon="9.214927034360821"><ele>327.0</ele><time>2026-04-25T06:25:58Z</time></trkpt><trkpt lat="45.732297548579695" lon="9.214974813261042"><ele>326.85714285714283</ele><time>2026-04-25T06:25:59Z</time></trkpt><trkpt lat="45.73237095399447" lon="9.215019407801917"><ele>326.7142857142857</ele><time>2026-04-25T06:26:00Z</time></trkpt><trkpt lat="45.73243754303946" lon="9.215064849560381"><ele>326.57142857142856</ele><time>2026-04-25T06:26:01Z</time></trkpt><trkpt lat="45.73250194407652" lon="9.215112462385589"><ele>326.42857142857144</ele><time>2026-04-25T06:26:02Z</time></trkpt><trkpt lat="45.73256728330415" lon="9.215160869692328"><ele>326.2857142857143</ele><time>2026-04-25T06:26:03Z</time></trkpt><trkpt lat="45.732631558132574" lon="9.215203594740697"><ele>326.14285714285717</ele><time>2026-04-25T06:26:04Z</time></trkpt><trkpt lat="45.73269338124019" lon="9.21524475965024"><ele>326.0</ele><time>2026-04-25T06:26:05Z</time></trkpt><trkpt lat="45.732752748458914" lon="9.215280772245489"><ele>326.0</ele><time>2026-04-25T06:26:06Z</time></trkpt><trkpt lat="45.73281474185441" lon="9.215317877502148"><ele>326.0</ele><time>2026-04-25T06:26:07Z</time></trkpt><trkpt lat="45.73287358587214" lon="9.215357213407751"><ele>326.0</ele><time>2026-04-25T06:26:08Z</time></trkpt><trkpt lat="45.73293093301824" lon="9.215399397520386"><ele>326.0</ele><time>2026-04-25T06:26:09Z</time></trkpt><trkpt lat="45.73299001213039" lon="9.215438662493735"><ele>326.0</ele><time>2026-04-25T06:26:10Z</time></trkpt><trkpt lat="45.733048036355854" lon="9.215477767657166"><ele>326.0</ele><time>2026-04-25T06:26:11Z</time></trkpt><trkpt lat="45.73311461185944" lon="9.215517522557258"><ele>326.0</ele><time>2026-04-25T06:26:12Z</time></trkpt><trkpt lat="45.73318311513478" lon="9.215560178972485"><ele>326.0</ele><time>2026-04-25T06:26:13Z</time></trkpt><trkpt lat="45.733253511916686" lon="9.215605855282679"><ele>326.0</ele><time>2026-04-25T06:26:14Z</time></trkpt><trkpt lat="45.73332132715378" lon="9.215655263542367"><ele>326.0</ele><time>2026-04-25T06:26:15Z</time></trkpt><trkpt lat="45.733387923698665" lon="9.2157057651459"><ele>326.0</ele><time>2026-04-25T06:26:16Z</time></trkpt><trkpt lat="45.733455304085766" lon="9.215755927923588"><ele>326.0</ele><time>2026-04-25T06:26:17Z</time></trkpt><trkpt lat="45.73352736931875" lon="9.215800255400573"><ele>326.0</ele><time>2026-04-25T06:26:18Z</time></trkpt><trkpt lat="45.73359630525692" lon="9.215847623948457"><ele>325.6666666666667</ele><time>2026-04-25T06:26:19Z</time></trkpt><trkpt lat="45.7336658121333" lon="9.215890764801893"><ele>325.33333333333337</ele><time>2026-04-25T06:26:20Z</time></trkpt><trkpt lat="45.73373412395536" lon="9.215935751001693"><ele>325.0</ele><time>2026-04-25T06:26:21Z</time></trkpt><trkpt lat="45.73379954404185" lon="9.21598279461523"><ele>324.6666666666667</ele><time>2026-04-25T06:26:22Z</time></trkpt><trkpt lat="45.7338678852194" lon="9.216027726834472"><ele>324.3333333333333</ele><time>2026-04-25T06:26:23Z</time></trkpt><trkpt lat="45.733938359825956" lon="9.216075947788699"><ele>324.0</ele><time>2026-04-25T06:26:24Z</time></trkpt><trkpt lat="45.73401254157552" lon="9.21612172497023"><ele>324.0</ele><time>2026-04-25T06:26:25Z</time></trkpt><trkpt lat="45.73408383553717" lon="9.216173392139686"><ele>324.0</ele><time>2026-04-25T06:26:26Z</time></trkpt><trkpt lat="45.7341539236358" lon="9.21622520030659"><ele>324.0</ele><time>2026-04-25T06:26:27Z</time></trkpt><trkpt lat="45.734226840019524" lon="9.216276906673922"><ele>324.0</ele><time>2026-04-25T06:26:28Z</time></trkpt><trkpt lat="45.7343043415294" lon="9.21632364626293"><ele>324.0</ele><time>2026-04-25T06:26:29Z</time></trkpt><trkpt lat="45.73438023832322" lon="9.216373680341622"><ele>324.0</ele><time>2026-04-25T06:26:30Z</time></trkpt><trkpt lat="45.73445843793221" lon="9.216424648848918"><ele>324.3333333333333</ele><time>2026-04-25T06:26:31Z</time></trkpt><trkpt lat="45.734534572470636" lon="9.216478736764088"><ele>324.6666666666667</ele><time>2026-04-25T06:26:32Z</time></trkpt><trkpt lat="45.73461294943785" lon="9.216532220576365"><ele>325.0</ele><time>2026-04-25T06:26:33Z</time></trkpt><trkpt lat="45.7346881366627" lon="9.216584372774554"><ele>325.33333333333337</ele><time>2026-04-25T06:26:34Z</time></trkpt><trkpt lat="45.734761530707814" lon="9.21664348173693"><ele>325.6666666666667</ele><time>2026-04-25T06:26:35Z</time></trkpt><trkpt lat="45.73483598061468" lon="9.216691227593364"><ele>326.0</ele><time>2026-04-25T06:26:36Z</time></trkpt><trkpt lat="45.73490801842838" lon="9.216737916943647"><ele>326.0</ele><time>2026-04-25T06:26:37Z</time></trkpt><trkpt lat="45.734986512065746" lon="9.216779013229527"><ele>326.0</ele><time>2026-04-25T06:26:38Z</time></trkpt><trkpt lat="45.73506167534173" lon="9.216827571534573"><ele>326.0</ele><time>2026-04-25T06:26:39Z</time></trkpt><trkpt lat="45.73513451468081" lon="9.216889033601571"><ele>326.0</ele><time>2026-04-25T06:26:40Z</time></trkpt><trkpt lat="45.73521280108207" lon="9.216934616900145"><ele>326.0</ele><time>2026-04-25T06:26:41Z</time></trkpt><trkpt lat="45.735292123480484" lon="9.216984620478483"><ele>326.0</ele><time>2026-04-25T06:26:42Z</time></trkpt><trkpt lat="45.73537101532224" lon="9.217035767476814"><ele>326.1666666666667</ele><time>2026-04-25T06:26:43Z</time></trkpt><trkpt lat="45.73545106668255" lon="9.217085885711855"><ele>326.33333333333337</ele><time>2026-04-25T06:26:44Z</time></trkpt><trkpt lat="45.73552993381568" lon="9.217137516058685"><ele>326.5</ele><time>2026-04-25T06:26:45Z</time></trkpt><trkpt lat="45.73560642730035" lon="9.217194315156485"><ele>326.6666666666667</ele><time>2026-04-25T06:26:46Z</time></trkpt><trkpt lat="45.73567946303753" lon="9.217249156773484"><ele>326.8333333333333</ele><time>2026-04-25T06:26:47Z</time></trkpt><trkpt lat="45.73575580181536" lon="9.217301552234838"><ele>327.0</ele><time>2026-04-25T06:26:48Z</time></trkpt><trkpt lat="45.73582635356983" lon="9.217355173460835"><ele>326.3333333333333</ele><time>2026-04-25T06:26:49Z</time></trkpt><trkpt lat="45.735899320136134" lon="9.21740582584369"><ele>325.6666666666667</ele><time>2026-04-25T06:26:50Z</time></trkpt><trkpt lat="45.73597667228661" lon="9.217457654958448"><ele>325.0</ele><time>2026-04-25T06:26:51Z</time></trkpt><trkpt lat="45.73605542165547" lon="9.217506171465685"><ele>324.33333333333337</ele><time>2026-04-25T06:26:52Z</time></trkpt><trkpt lat="45.73613653581051" lon="9.21755621414929"><ele>323.6666666666667</ele><time>2026-04-25T06:26:52.999Z</time></trkpt><trkpt lat="45.73621529817771" lon="9.217607144316153"><ele>323.0</ele><time>2026-04-25T06:26:53.999Z</time></trkpt><trkpt lat="45.736292652979984" lon="9.217656612174306"><ele>323.0</ele><time>2026-04-25T06:26:54.999Z</time></trkpt><trkpt lat="45.736367344412656" lon="9.217704263827493"><ele>323.0</ele><time>2026-04-25T06:26:55.999Z</time></trkpt><trkpt lat="45.73643686703638" lon="9.217755939460426"><ele>323.0</ele><time>2026-04-25T06:26:56.999Z</time></trkpt><trkpt lat="45.73651097594529" lon="9.217811146455482"><ele>323.0</ele><time>2026-04-25T06:26:57.999Z</time></trkpt><trkpt lat="45.736587551778044" lon="9.2178641222565"><ele>323.0</ele><time>2026-04-25T06:26:58.999Z</time></trkpt><trkpt lat="45.736665222345735" lon="9.217918573559677"><ele>323.0</ele><time>2026-04-25T06:26:59.999Z</time></trkpt><trkpt lat="45.73674398361797" lon="9.217971266739609"><ele>323.0</ele><time>2026-04-25T06:27:00.999Z</time></trkpt><trkpt lat="45.7368219688284" lon="9.218020332316494"><ele>323.0</ele><time>2026-04-25T06:27:01.999Z</time></trkpt><trkpt lat="45.73689943127391" lon="9.218067686991366"><ele>323.0</ele><time>2026-04-25T06:27:02.999Z</time></trkpt><trkpt lat="45.736973291807516" lon="9.218118220974809"><ele>323.0</ele><time>2026-04-25T06:27:03.999Z</time></trkpt><trkpt lat="45.737047517381455" lon="9.218172191226941"><ele>323.0</ele><time>2026-04-25T06:27:04.999Z</time></trkpt><trkpt lat="45.7371259903427" lon="9.218223824411288"><ele>323.0</ele><time>2026-04-25T06:27:05.999Z</time></trkpt><trkpt lat="45.73720774402221" lon="9.21827195551"><ele>322.83333333333337</ele><time>2026-04-25T06:27:06.999Z</time></trkpt><trkpt lat="45.73728525001378" lon="9.218324016742583"><ele>322.6666666666667</ele><time>2026-04-25T06:27:07.999Z</time></trkpt><trkpt lat="45.73736116168391" lon="9.218374548533783"><ele>322.5</ele><time>2026-04-25T06:27:08.999Z</time></trkpt><trkpt lat="45.737438322764135" lon="9.218427361615692"><ele>322.3333333333333</ele><time>2026-04-25T06:27:09.999Z</time></trkpt><trkpt lat="45.73751662780463" lon="9.218481115699959"><ele>322.16666666666663</ele><time>2026-04-25T06:27:10.999Z</time></trkpt><trkpt lat="45.73759130823122" lon="9.218537804052083"><ele>322.0</ele><time>2026-04-25T06:27:11.999Z</time></trkpt><trkpt lat="45.73766518538425" lon="9.2185956248223"><ele>322.5</ele><time>2026-04-25T06:27:12.999Z</time></trkpt><trkpt lat="45.737738231834456" lon="9.218657740993525"><ele>323.0</ele><time>2026-04-25T06:27:13.999Z</time></trkpt><trkpt lat="45.73781276312678" lon="9.218720106346158"><ele>323.5</ele><time>2026-04-25T06:27:14.999Z</time></trkpt><trkpt lat="45.737883666704136" lon="9.218786145827895"><ele>324.0</ele><time>2026-04-25T06:27:15.999Z</time></trkpt><trkpt lat="45.73794904372509" lon="9.218860223954612"><ele>324.5</ele><time>2026-04-25T06:27:16.999Z</time></trkpt><trkpt lat="45.738012380974325" lon="9.218937949340747"><ele>325.0</ele><time>2026-04-25T06:27:17.999Z</time></trkpt><trkpt lat="45.73807519889675" lon="9.219015899255565"><ele>325.0</ele><time>2026-04-25T06:27:18.999Z</time></trkpt><trkpt lat="45.73813621392683" lon="9.219096090153853"><ele>325.0</ele><time>2026-04-25T06:27:19.999Z</time></trkpt><trkpt lat="45.73819333860288" lon="9.219178176514157"><ele>325.0</ele><time>2026-04-25T06:27:20.999Z</time></trkpt><trkpt lat="45.73824462001065" lon="9.219261449338413"><ele>325.0</ele><time>2026-04-25T06:27:21.999Z</time></trkpt><trkpt lat="45.73829218053048" lon="9.21935036418467"><ele>325.0</ele><time>2026-04-25T06:27:22.999Z</time></trkpt><trkpt lat="45.73833839648548" lon="9.219442660045807"><ele>325.0</ele><time>2026-04-25T06:27:23.999Z</time></trkpt><trkpt lat="45.73838530804488" lon="9.219531706123849"><ele>325.0</ele><time>2026-04-25T06:27:24.999Z</time></trkpt><trkpt lat="45.738426274831085" lon="9.219619754932044"><ele>325.0</ele><time>2026-04-25T06:27:25.999Z</time></trkpt><trkpt lat="45.738468825662444" lon="9.219706544312135"><ele>325.0</ele><time>2026-04-25T06:27:26.999Z</time></trkpt><trkpt lat="45.738511069519525" lon="9.219797959670515"><ele>325.0</ele><time>2026-04-25T06:27:27.999Z</time></trkpt><trkpt lat="45.738554115896164" lon="9.219889833891523"><ele>325.0</ele><time>2026-04-25T06:27:28.999Z</time></trkpt><trkpt lat="45.73859799014697" lon="9.219981029545432"><ele>325.0</ele><time>2026-04-25T06:27:29.999Z</time></trkpt><trkpt lat="45.738640452528166" lon="9.22006872624023"><ele>326.0</ele><time>2026-04-25T06:27:30.999Z</time></trkpt><trkpt lat="45.7386824809765" lon="9.220153517780771"><ele>327.0</ele><time>2026-04-25T06:27:31.999Z</time></trkpt><trkpt lat="45.738721112293106" lon="9.220234856547536"><ele>328.0</ele><time>2026-04-25T06:27:32.999Z</time></trkpt><trkpt lat="45.73876111240196" lon="9.220318938355328"><ele>329.0</ele><time>2026-04-25T06:27:33.999Z</time></trkpt><trkpt lat="45.73880170380594" lon="9.220401638275922"><ele>330.0</ele><time>2026-04-25T06:27:34.999Z</time></trkpt><trkpt lat="45.738840454270274" lon="9.220483182284514"><ele>331.0</ele><time>2026-04-25T06:27:35.999Z</time></trkpt><trkpt lat="45.738880811013786" lon="9.220562862455157"><ele>332.0</ele><time>2026-04-25T06:27:36.999Z</time></trkpt><trkpt lat="45.73891956340113" lon="9.220638528438911"><ele>331.57142857142856</ele><time>2026-04-25T06:27:38Z</time></trkpt><trkpt lat="45.73898743840636" lon="9.22078275410158"><ele>331.14285714285717</ele><time>2026-04-25T06:27:40Z</time></trkpt><trkpt lat="45.739024484904775" lon="9.220857595157636"><ele>330.7142857142857</ele><time>2026-04-25T06:27:41Z</time></trkpt><trkpt lat="45.7390607156383" lon="9.220934540472332"><ele>330.2857142857143</ele><time>2026-04-25T06:27:42Z</time></trkpt><trkpt lat="45.73909859994089" lon="9.22101391049814"><ele>329.8571428571429</ele><time>2026-04-25T06:27:43Z</time></trkpt><trkpt lat="45.739136356972914" lon="9.221090742369386"><ele>329.42857142857144</ele><time>2026-04-25T06:27:44Z</time></trkpt><trkpt lat="45.73917321043688" lon="9.22116575868854"><ele>329.0</ele><time>2026-04-25T06:27:45Z</time></trkpt><trkpt lat="45.739207765309196" lon="9.221243213720784"><ele>329.0</ele><time>2026-04-25T06:27:46Z</time></trkpt><trkpt lat="45.739243396156816" lon="9.221321459074204"><ele>329.0</ele><time>2026-04-25T06:27:47Z</time></trkpt><trkpt lat="45.739283865842246" lon="9.221399991968257"><ele>329.0</ele><time>2026-04-25T06:27:48Z</time></trkpt><trkpt lat="45.739323193519645" lon="9.221475533097161"><ele>329.0</ele><time>2026-04-25T06:27:49Z</time></trkpt><trkpt lat="45.739360441074574" lon="9.22155450795766"><ele>329.0</ele><time>2026-04-25T06:27:50Z</time></trkpt><trkpt lat="45.7393957111947" lon="9.221629875516392"><ele>329.0</ele><time>2026-04-25T06:27:51Z</time></trkpt><trkpt lat="45.73947184207502" lon="9.221777956612636"><ele>329.57142857142856</ele><time>2026-04-25T06:27:53Z</time></trkpt><trkpt lat="45.73951091977084" lon="9.221853405371201"><ele>330.1428571428571</ele><time>2026-04-25T06:27:54Z</time></trkpt><trkpt lat="45.73954780291936" lon="9.221928802613085"><ele>330.7142857142857</ele><time>2026-04-25T06:27:55Z</time></trkpt><trkpt lat="45.73958364950388" lon="9.222003807560966"><ele>331.2857142857143</ele><time>2026-04-25T06:27:56Z</time></trkpt><trkpt lat="45.73962319597317" lon="9.22207795348915"><ele>331.85714285714283</ele><time>2026-04-25T06:27:57Z</time></trkpt><trkpt lat="45.73966070919366" lon="9.222152498288999"><ele>332.42857142857144</ele><time>2026-04-25T06:27:58Z</time></trkpt><trkpt lat="45.73969798365126" lon="9.222227825762426"><ele>333.0</ele><time>2026-04-25T06:27:59Z</time></trkpt><trkpt lat="45.73976096492903" lon="9.222377536642583"><ele>333.0</ele><time>2026-04-25T06:28:01Z</time></trkpt><trkpt lat="45.73979974920195" lon="9.222450193553179"><ele>333.0</ele><time>2026-04-25T06:28:02Z</time></trkpt><trkpt lat="45.739839269684694" lon="9.222521574183597"><ele>333.0</ele><time>2026-04-25T06:28:03Z</time></trkpt><trkpt lat="45.73991105105489" lon="9.222665435755673"><ele>333.0</ele><time>2026-04-25T06:28:05Z</time></trkpt><trkpt lat="45.739984526151964" lon="9.222804277191422"><ele>333.0</ele><time>2026-04-25T06:28:07Z</time></trkpt><trkpt lat="45.740061914452866" lon="9.222932753884226"><ele>333.0</ele><time>2026-04-25T06:28:09Z</time></trkpt><trkpt lat="45.74012682767141" lon="9.223074570247341"><ele>333.0</ele><time>2026-04-25T06:28:11Z</time></trkpt><trkpt lat="45.74020076459153" lon="9.22319818420104"><ele>333.0</ele><time>2026-04-25T06:28:13Z</time></trkpt><trkpt lat="45.74027582636647" lon="9.223323437110874"><ele>333.0</ele><time>2026-04-25T06:28:15Z</time></trkpt><trkpt lat="45.740350881598445" lon="9.223448663815093"><ele>334.2</ele><time>2026-04-25T06:28:17Z</time></trkpt><trkpt lat="45.74043660381265" lon="9.223539130517672"><ele>335.4</ele><time>2026-04-25T06:28:19Z</time></trkpt><trkpt lat="45.74052762873902" lon="9.223601937492283"><ele>336.59999999999997</ele><time>2026-04-25T06:28:21Z</time></trkpt><trkpt lat="45.74059884860039" lon="9.223692151860199"><ele>337.79999999999995</ele><time>2026-04-25T06:28:23Z</time></trkpt><trkpt lat="45.74068389047264" lon="9.223568547451343"><ele>339.0</ele><time>2026-04-25T06:28:24Z</time></trkpt><trkpt lat="45.740778672428235" lon="9.22353989398561"><ele>339.0</ele><time>2026-04-25T06:28:26Z</time></trkpt><trkpt lat="45.740884776567825" lon="9.223522689817926"><ele>339.0</ele><time>2026-04-25T06:28:28Z</time></trkpt><trkpt lat="45.74097626209417" lon="9.223458432813459"><ele>339.0</ele><time>2026-04-25T06:28:30Z</time></trkpt><trkpt lat="45.741070290474426" lon="9.223402549775479"><ele>339.0</ele><time>2026-04-25T06:28:32Z</time></trkpt><trkpt lat="45.741161694769715" lon="9.223349387262218"><ele>339.0</ele><time>2026-04-25T06:28:34Z</time></trkpt><trkpt lat="45.74125708127886" lon="9.223327742684564"><ele>339.79999999999995</ele><time>2026-04-25T06:28:36Z</time></trkpt><trkpt lat="45.74133761342469" lon="9.223328673676212"><ele>340.59999999999997</ele><time>2026-04-25T06:28:38Z</time></trkpt><trkpt lat="45.741430023275505" lon="9.223324723461987"><ele>341.4</ele><time>2026-04-25T06:28:40Z</time></trkpt><trkpt lat="45.74152695370895" lon="9.223320580002339"><ele>342.2</ele><time>2026-04-25T06:28:42Z</time></trkpt><trkpt lat="45.74162847497984" lon="9.223297886033484"><ele>343.0</ele><time>2026-04-25T06:28:44Z</time></trkpt><trkpt lat="45.74172344804778" lon="9.223293806323513"><ele>343.0</ele><time>2026-04-25T06:28:46Z</time></trkpt><trkpt lat="45.741821275116905" lon="9.223281385611283"><ele>343.0</ele><time>2026-04-25T06:28:48Z</time></trkpt><trkpt lat="45.74191896201031" lon="9.223257527604703"><ele>343.0</ele><time>2026-04-25T06:28:50Z</time></trkpt><trkpt lat="45.74201466772284" lon="9.223228089870865"><ele>343.0</ele><time>2026-04-25T06:28:52Z</time></trkpt><trkpt lat="45.74211168011134" lon="9.223193684426588"><ele>343.0</ele><time>2026-04-25T06:28:54Z</time></trkpt><trkpt lat="45.74221313729126" lon="9.22316318084827"><ele>344.79999999999995</ele><time>2026-04-25T06:28:56Z</time></trkpt><trkpt lat="45.74231358977951" lon="9.223133366316604"><ele>346.6</ele><time>2026-04-25T06:28:58Z</time></trkpt><trkpt lat="45.74241418380206" lon="9.223091736878171"><ele>348.4</ele><time>2026-04-25T06:28:59.999Z</time></trkpt><trkpt lat="45.742514307304155" lon="9.223053327901248"><ele>350.20000000000005</ele><time>2026-04-25T06:29:01.999Z</time></trkpt><trkpt lat="45.742616448561805" lon="9.223013542894405"><ele>352.0</ele><time>2026-04-25T06:29:03.999Z</time></trkpt><trkpt lat="45.74272172594402" lon="9.22296186437957"><ele>352.0</ele><time>2026-04-25T06:29:05.999Z</time></trkpt><trkpt lat="45.74282064823735" lon="9.222896373387945"><ele>352.0</ele><time>2026-04-25T06:29:07.999Z</time></trkpt><trkpt lat="45.742925089648736" lon="9.22282381567419"><ele>352.0</ele><time>2026-04-25T06:29:09.999Z</time></trkpt><trkpt lat="45.743034623009564" lon="9.222754751287878"><ele>352.0</ele><time>2026-04-25T06:29:11.999Z</time></trkpt><trkpt lat="45.74314882471383" lon="9.222685245708288"><ele>352.0</ele><time>2026-04-25T06:29:13.999Z</time></trkpt><trkpt lat="45.74320841132848" lon="9.222652409928939"><ele>352.0</ele><time>2026-04-25T06:29:14.999Z</time></trkpt><trkpt lat="45.74332404061056" lon="9.222575641114789"><ele>352.0</ele><time>2026-04-25T06:29:16.999Z</time></trkpt><trkpt lat="45.74338377178138" lon="9.222534822792754"><ele>352.0</ele><time>2026-04-25T06:29:17.999Z</time></trkpt><trkpt lat="45.74344398444567" lon="9.222492699893087"><ele>352.0</ele><time>2026-04-25T06:29:18.999Z</time></trkpt><trkpt lat="45.7435040483537" lon="9.222449488597974"><ele>352.0</ele><time>2026-04-25T06:29:19.999Z</time></trkpt><trkpt lat="45.743565217733" lon="9.222410992011671"><ele>351.57142857142856</ele><time>2026-04-25T06:29:20.999Z</time></trkpt><trkpt lat="45.74362691725797" lon="9.222375007488255"><ele>351.1428571428571</ele><time>2026-04-25T06:29:21.999Z</time></trkpt><trkpt lat="45.743687181953334" lon="9.222333291338172"><ele>350.71428571428567</ele><time>2026-04-25T06:29:22.999Z</time></trkpt><trkpt lat="45.743749494913764" lon="9.222294021443318"><ele>350.2857142857143</ele><time>2026-04-25T06:29:23.999Z</time></trkpt><trkpt lat="45.7438115906411" lon="9.222255831174948"><ele>349.85714285714283</ele><time>2026-04-25T06:29:24.999Z</time></trkpt><trkpt lat="45.74387126013778" lon="9.222217791831474"><ele>349.4285714285714</ele><time>2026-04-25T06:29:25.999Z</time></trkpt><trkpt lat="45.74393041765891" lon="9.222172197992661"><ele>349.0</ele><time>2026-04-25T06:29:26.999Z</time></trkpt><trkpt lat="45.743996119619965" lon="9.222125900116168"><ele>348.99999999999994</ele><time>2026-04-25T06:29:27.999Z</time></trkpt><trkpt lat="45.744061927707094" lon="9.222077479831054"><ele>349.0</ele><time>2026-04-25T06:29:28.999Z</time></trkpt><trkpt lat="45.744133272714016" lon="9.222033820181021"><ele>349.0</ele><time>2026-04-25T06:29:29.999Z</time></trkpt><trkpt lat="45.74420227019587" lon="9.221989472913235"><ele>349.0</ele><time>2026-04-25T06:29:30.999Z</time></trkpt><trkpt lat="45.74427038842801" lon="9.22195381067981"><ele>349.0</ele><time>2026-04-25T06:29:31.999Z</time></trkpt><trkpt lat="45.744337406873576" lon="9.22191209558432"><ele>348.99999999999994</ele><time>2026-04-25T06:29:32.999Z</time></trkpt><trkpt lat="45.7444057231978" lon="9.221869296190578"><ele>349.0</ele><time>2026-04-25T06:29:33.999Z</time></trkpt><trkpt lat="45.744473768954244" lon="9.221826840447898"><ele>347.71428571428567</ele><time>2026-04-25T06:29:34.999Z</time></trkpt><trkpt lat="45.744543696515116" lon="9.221788503804827"><ele>346.42857142857144</ele><time>2026-04-25T06:29:35.999Z</time></trkpt><trkpt lat="45.744613637610954" lon="9.221747201716637"><ele>345.1428571428571</ele><time>2026-04-25T06:29:36.999Z</time></trkpt><trkpt lat="45.74468026036224" lon="9.221717146985297"><ele>343.85714285714283</ele><time>2026-04-25T06:29:37.999Z</time></trkpt><trkpt lat="45.74474820426694" lon="9.221686143557536"><ele>342.57142857142856</ele><time>2026-04-25T06:29:38.999Z</time></trkpt><trkpt lat="45.744814407327034" lon="9.221654444515124"><ele>341.2857142857143</ele><time>2026-04-25T06:29:39.999Z</time></trkpt><trkpt lat="45.74488139951822" lon="9.221625301036276"><ele>340.0</ele><time>2026-04-25T06:29:40.999Z</time></trkpt><trkpt lat="45.74495061768258" lon="9.221602187029125"><ele>340.0</ele><time>2026-04-25T06:29:41.999Z</time></trkpt><trkpt lat="45.74501771343266" lon="9.221583986542221"><ele>340.0</ele><time>2026-04-25T06:29:42.999Z</time></trkpt><trkpt lat="45.7450846211203" lon="9.221567933131738"><ele>340.0</ele><time>2026-04-25T06:29:44Z</time></trkpt><trkpt lat="45.745154609945416" lon="9.221553145303638"><ele>340.0</ele><time>2026-04-25T06:29:45Z</time></trkpt><trkpt lat="45.745226414353404" lon="9.221533040286712"><ele>340.0</ele><time>2026-04-25T06:29:46Z</time></trkpt><trkpt lat="45.745302924882026" lon="9.2215089197114"><ele>340.0</ele><time>2026-04-25T06:29:47Z</time></trkpt><trkpt lat="45.74537906648869" lon="9.221481873294406"><ele>340.0</ele><time>2026-04-25T06:29:48Z</time></trkpt><trkpt lat="45.745456371130395" lon="9.221461370211747"><ele>339.66666666666663</ele><time>2026-04-25T06:29:49Z</time></trkpt><trkpt lat="45.74553429073278" lon="9.221440403114846"><ele>339.3333333333333</ele><time>2026-04-25T06:29:50Z</time></trkpt><trkpt lat="45.74561114974048" lon="9.221418879999192"><ele>339.0</ele><time>2026-04-25T06:29:51Z</time></trkpt><trkpt lat="45.74568556909094" lon="9.221400853474695"><ele>338.6666666666667</ele><time>2026-04-25T06:29:52Z</time></trkpt><trkpt lat="45.74576522914334" lon="9.221375983437191"><ele>338.33333333333337</ele><time>2026-04-25T06:29:53Z</time></trkpt><trkpt lat="45.745842888223436" lon="9.221353355135895"><ele>338.0</ele><time>2026-04-25T06:29:54Z</time></trkpt><trkpt lat="45.74591740247276" lon="9.221330601883384"><ele>338.0</ele><time>2026-04-25T06:29:55Z</time></trkpt><trkpt lat="45.74599459958086" lon="9.221308594332418"><ele>338.0</ele><time>2026-04-25T06:29:56Z</time></trkpt><trkpt lat="45.746073928951006" lon="9.221284950119397"><ele>338.0</ele><time>2026-04-25T06:29:57Z</time></trkpt><trkpt lat="45.74615625453565" lon="9.221262912801206"><ele>338.0</ele><time>2026-04-25T06:29:58Z</time></trkpt><trkpt lat="45.74623650892765" lon="9.221241385330284"><ele>338.0</ele><time>2026-04-25T06:29:59Z</time></trkpt><trkpt lat="45.746315866018804" lon="9.221216182443511"><ele>338.0</ele><time>2026-04-25T06:30:00Z</time></trkpt><trkpt lat="45.74639478768183" lon="9.221191025035397"><ele>338.0</ele><time>2026-04-25T06:30:01Z</time></trkpt><trkpt lat="45.74647215352089" lon="9.221170578607833"><ele>338.0</ele><time>2026-04-25T06:30:02Z</time></trkpt><trkpt lat="45.746549948260856" lon="9.22114702699392"><ele>338.0</ele><time>2026-04-25T06:30:03Z</time></trkpt><trkpt lat="45.746628611773644" lon="9.221121712597153"><ele>338.0</ele><time>2026-04-25T06:30:04Z</time></trkpt><trkpt lat="45.74671062201783" lon="9.221097886210389"><ele>338.0</ele><time>2026-04-25T06:30:05Z</time></trkpt><trkpt lat="45.74679248355955" lon="9.221073030057278"><ele>338.0</ele><time>2026-04-25T06:30:06Z</time></trkpt><trkpt lat="45.74687459525827" lon="9.221052307828817"><ele>338.0</ele><time>2026-04-25T06:30:07Z</time></trkpt><trkpt lat="45.74695816723764" lon="9.221026900776009"><ele>338.0</ele><time>2026-04-25T06:30:08Z</time></trkpt><trkpt lat="45.747043702197736" lon="9.221003496185654"><ele>338.0</ele><time>2026-04-25T06:30:09Z</time></trkpt><trkpt lat="45.74712891784086" lon="9.220980254944314"><ele>338.0</ele><time>2026-04-25T06:30:10Z</time></trkpt><trkpt lat="45.74721491604588" lon="9.22095603101419"><ele>338.0</ele><time>2026-04-25T06:30:11Z</time></trkpt><trkpt lat="45.74730139058593" lon="9.220926832239751"><ele>338.0</ele><time>2026-04-25T06:30:12Z</time></trkpt><trkpt lat="45.74738721673781" lon="9.22090302869831"><ele>338.0</ele><time>2026-04-25T06:30:13Z</time></trkpt><trkpt lat="45.74746940960551" lon="9.220876212617883"><ele>338.0</ele><time>2026-04-25T06:30:14Z</time></trkpt><trkpt lat="45.747551382878505" lon="9.220853486373171"><ele>338.0</ele><time>2026-04-25T06:30:15Z</time></trkpt><trkpt lat="45.74763232275606" lon="9.220830840351947"><ele>338.0</ele><time>2026-04-25T06:30:16Z</time></trkpt><trkpt lat="45.74771234013673" lon="9.220808733176534"><ele>338.0</ele><time>2026-04-25T06:30:17Z</time></trkpt><trkpt lat="45.74778756703029" lon="9.220776227019597"><ele>338.0</ele><time>2026-04-25T06:30:18Z</time></trkpt><trkpt lat="45.74786523899203" lon="9.22075600408413"><ele>338.0</ele><time>2026-04-25T06:30:19Z</time></trkpt><trkpt lat="45.74794121186259" lon="9.220727721219815"><ele>338.0</ele><time>2026-04-25T06:30:20Z</time></trkpt><trkpt lat="45.7480160770936" lon="9.220699433426375"><ele>338.0</ele><time>2026-04-25T06:30:21Z</time></trkpt><trkpt lat="45.74808975549046" lon="9.220671929156284"><ele>338.0</ele><time>2026-04-25T06:30:22Z</time></trkpt><trkpt lat="45.74816315717068" lon="9.220643876820532"><ele>338.0</ele><time>2026-04-25T06:30:23Z</time></trkpt><trkpt lat="45.74823387801129" lon="9.220607038464399"><ele>338.0</ele><time>2026-04-25T06:30:24Z</time></trkpt><trkpt lat="45.74830670757628" lon="9.220569296867037"><ele>338.0</ele><time>2026-04-25T06:30:25Z</time></trkpt><trkpt lat="45.74838093825625" lon="9.220534105194906"><ele>338.0</ele><time>2026-04-25T06:30:26Z</time></trkpt><trkpt lat="45.74845428524446" lon="9.2205042396277"><ele>338.0</ele><time>2026-04-25T06:30:27Z</time></trkpt><trkpt lat="45.74852798765952" lon="9.22048284053478"><ele>338.0</ele><time>2026-04-25T06:30:28Z</time></trkpt><trkpt lat="45.748606569906954" lon="9.220461557008269"><ele>338.0</ele><time>2026-04-25T06:30:29Z</time></trkpt><trkpt lat="45.748688429081625" lon="9.22045213830149"><ele>338.0</ele><time>2026-04-25T06:30:30Z</time></trkpt><trkpt lat="45.74877184177004" lon="9.220449427976135"><ele>338.0</ele><time>2026-04-25T06:30:31Z</time></trkpt><trkpt lat="45.74885230234458" lon="9.220454851825131"><ele>338.0</ele><time>2026-04-25T06:30:32Z</time></trkpt><trkpt lat="45.74893047283532" lon="9.220464757706521"><ele>338.0</ele><time>2026-04-25T06:30:33Z</time></trkpt><trkpt lat="45.749011240941414" lon="9.220473324995131"><ele>338.0</ele><time>2026-04-25T06:30:34Z</time></trkpt><trkpt lat="45.74909143098952" lon="9.22047192332745"><ele>338.0</ele><time>2026-04-25T06:30:35Z</time></trkpt><trkpt lat="45.7491739517685" lon="9.220477808482316"><ele>338.0</ele><time>2026-04-25T06:30:36Z</time></trkpt><trkpt lat="45.7492511919014" lon="9.220485904451607"><ele>338.0</ele><time>2026-04-25T06:30:37Z</time></trkpt><trkpt lat="45.74933040464528" lon="9.22050269675544"><ele>338.0</ele><time>2026-04-25T06:30:38Z</time></trkpt><trkpt lat="45.74941066929305" lon="9.220525100257028"><ele>338.0</ele><time>2026-04-25T06:30:39Z</time></trkpt><trkpt lat="45.749491014957805" lon="9.220560648221527"><ele>338.0</ele><time>2026-04-25T06:30:40Z</time></trkpt><trkpt lat="45.74956881914674" lon="9.220603701720165"><ele>338.0</ele><time>2026-04-25T06:30:41Z</time></trkpt><trkpt lat="45.74964679432229" lon="9.220649217634625"><ele>338.0</ele><time>2026-04-25T06:30:42Z</time></trkpt><trkpt lat="45.74972599792472" lon="9.220689893890926"><ele>337.5</ele><time>2026-04-25T06:30:43Z</time></trkpt><trkpt lat="45.74979814082096" lon="9.22073683761"><ele>337.0</ele><time>2026-04-25T06:30:44Z</time></trkpt><trkpt lat="45.74987077803142" lon="9.22078828882118"><ele>336.5</ele><time>2026-04-25T06:30:45Z</time></trkpt><trkpt lat="45.74994375323183" lon="9.220839177947544"><ele>336.0</ele><time>2026-04-25T06:30:46Z</time></trkpt><trkpt lat="45.750014988469815" lon="9.220891678839989"><ele>335.5</ele><time>2026-04-25T06:30:47Z</time></trkpt><trkpt lat="45.75008866893701" lon="9.22094339552081"><ele>335.0</ele><time>2026-04-25T06:30:48Z</time></trkpt><trkpt lat="45.75016311439318" lon="9.2209918775358"><ele>335.5</ele><time>2026-04-25T06:30:49Z</time></trkpt><trkpt lat="45.75023708734298" lon="9.221043994294059"><ele>336.0</ele><time>2026-04-25T06:30:50Z</time></trkpt><trkpt lat="45.7503112464767" lon="9.221097889602103"><ele>336.5</ele><time>2026-04-25T06:30:51Z</time></trkpt><trkpt lat="45.750386641108044" lon="9.22115007143735"><ele>337.0</ele><time>2026-04-25T06:30:52Z</time></trkpt><trkpt lat="45.75046220466058" lon="9.221201647564703"><ele>337.5</ele><time>2026-04-25T06:30:53Z</time></trkpt><trkpt lat="45.75053921773059" lon="9.22125337922682"><ele>338.0</ele><time>2026-04-25T06:30:54Z</time></trkpt><trkpt lat="45.75061609742795" lon="9.221307561829192"><ele>338.0</ele><time>2026-04-25T06:30:55Z</time></trkpt><trkpt lat="45.75069389839008" lon="9.221362208703727"><ele>338.0</ele><time>2026-04-25T06:30:56Z</time></trkpt><trkpt lat="45.750767697205355" lon="9.221415518493803"><ele>338.0</ele><time>2026-04-25T06:30:57Z</time></trkpt><trkpt lat="45.75083955140986" lon="9.221465265442204"><ele>338.0</ele><time>2026-04-25T06:30:58Z</time></trkpt><trkpt lat="45.750911676616944" lon="9.221515305954519"><ele>338.0</ele><time>2026-04-25T06:30:59Z</time></trkpt><trkpt lat="45.75098548613572" lon="9.221566815512977"><ele>338.0</ele><time>2026-04-25T06:31:00Z</time></trkpt><trkpt lat="45.75105750803253" lon="9.221616534747799"><ele>337.8571428571429</ele><time>2026-04-25T06:31:01Z</time></trkpt><trkpt lat="45.751128196002554" lon="9.22166677679925"><ele>337.7142857142857</ele><time>2026-04-25T06:31:02Z</time></trkpt><trkpt lat="45.75120038326205" lon="9.221711980087514"><ele>337.57142857142856</ele><time>2026-04-25T06:31:03Z</time></trkpt><trkpt lat="45.75126934981427" lon="9.221759529699293"><ele>337.42857142857144</ele><time>2026-04-25T06:31:04Z</time></trkpt><trkpt lat="45.7513339532491" lon="9.22180486150263"><ele>337.2857142857143</ele><time>2026-04-25T06:31:05Z</time></trkpt><trkpt lat="45.75139676723613" lon="9.221851256659178"><ele>337.14285714285717</ele><time>2026-04-25T06:31:06Z</time></trkpt><trkpt lat="45.751460990485626" lon="9.221898499996794"><ele>337.0</ele><time>2026-04-25T06:31:07Z</time></trkpt><trkpt lat="45.751528992450964" lon="9.221945286878446"><ele>337.0</ele><time>2026-04-25T06:31:08Z</time></trkpt><trkpt lat="45.75159822205364" lon="9.221996360180434"><ele>337.0</ele><time>2026-04-25T06:31:09Z</time></trkpt><trkpt lat="45.751666948378634" lon="9.222045290954217"><ele>337.0</ele><time>2026-04-25T06:31:10Z</time></trkpt><trkpt lat="45.75173782354025" lon="9.222089722228946"><ele>337.0</ele><time>2026-04-25T06:31:11Z</time></trkpt><trkpt lat="45.75180575579876" lon="9.222139015516433"><ele>337.0</ele><time>2026-04-25T06:31:12Z</time></trkpt><trkpt lat="45.75187043140135" lon="9.22218916407397"><ele>337.0</ele><time>2026-04-25T06:31:13Z</time></trkpt><trkpt lat="45.75193741568975" lon="9.222245848547914"><ele>336.8333333333333</ele><time>2026-04-25T06:31:14Z</time></trkpt><trkpt lat="45.752007021686346" lon="9.222296062949157"><ele>336.66666666666663</ele><time>2026-04-25T06:31:15Z</time></trkpt><trkpt lat="45.75207711967286" lon="9.222341636541419"><ele>336.5</ele><time>2026-04-25T06:31:16Z</time></trkpt><trkpt lat="45.75214849498356" lon="9.22238872178779"><ele>336.3333333333333</ele><time>2026-04-25T06:31:16.999Z</time></trkpt><trkpt lat="45.75222209872115" lon="9.22243368735538"><ele>336.1666666666667</ele><time>2026-04-25T06:31:17.999Z</time></trkpt><trkpt lat="45.75229202198468" lon="9.222478774632727"><ele>336.0</ele><time>2026-04-25T06:31:18.999Z</time></trkpt><trkpt lat="45.752360548270595" lon="9.222524130042316"><ele>336.1666666666667</ele><time>2026-04-25T06:31:19.999Z</time></trkpt><trkpt lat="45.752432841150366" lon="9.222570648752258"><ele>336.3333333333333</ele><time>2026-04-25T06:31:20.999Z</time></trkpt><trkpt lat="45.75250343438687" lon="9.222618017559482"><ele>336.5</ele><time>2026-04-25T06:31:21.999Z</time></trkpt><trkpt lat="45.752578130945864" lon="9.222668052698706"><ele>336.66666666666663</ele><time>2026-04-25T06:31:22.999Z</time></trkpt><trkpt lat="45.75265308054584" lon="9.222711379963414"><ele>336.8333333333333</ele><time>2026-04-25T06:31:23.999Z</time></trkpt><trkpt lat="45.75272750201628" lon="9.222755866654554"><ele>337.0</ele><time>2026-04-25T06:31:24.999Z</time></trkpt><trkpt lat="45.752802888748825" lon="9.222802192426364"><ele>337.0</ele><time>2026-04-25T06:31:25.999Z</time></trkpt><trkpt lat="45.752877695108424" lon="9.222852935166758"><ele>337.0</ele><time>2026-04-25T06:31:26.999Z</time></trkpt><trkpt lat="45.75295468664011" lon="9.222904912385467"><ele>337.0</ele><time>2026-04-25T06:31:27.999Z</time></trkpt><trkpt lat="45.75303238061413" lon="9.22295201695436"><ele>337.0</ele><time>2026-04-25T06:31:28.999Z</time></trkpt><trkpt lat="45.753108656812486" lon="9.223005035120869"><ele>337.0</ele><time>2026-04-25T06:31:29.999Z</time></trkpt><trkpt lat="45.75318351349574" lon="9.223067334954937"><ele>337.0</ele><time>2026-04-25T06:31:30.999Z</time></trkpt><trkpt lat="45.753253325790595" lon="9.223136173055304"><ele>336.8333333333333</ele><time>2026-04-25T06:31:31.999Z</time></trkpt><trkpt lat="45.75332059699181" lon="9.223205607542388"><ele>336.66666666666663</ele><time>2026-04-25T06:31:32.999Z</time></trkpt><trkpt lat="45.75338522981932" lon="9.223278104121315"><ele>336.5</ele><time>2026-04-25T06:31:33.999Z</time></trkpt><trkpt lat="45.753447268420096" lon="9.223349402854733"><ele>336.3333333333333</ele><time>2026-04-25T06:31:34.999Z</time></trkpt><trkpt lat="45.75350625967951" lon="9.223408074813458"><ele>336.1666666666667</ele><time>2026-04-25T06:31:35.999Z</time></trkpt><trkpt lat="45.75356877704043" lon="9.223439623300704"><ele>336.0</ele><time>2026-04-25T06:31:36.999Z</time></trkpt><trkpt lat="45.753640782989244" lon="9.223449403506223"><ele>336.0</ele><time>2026-04-25T06:31:37.999Z</time></trkpt><trkpt lat="45.75371499431564" lon="9.223450328534152"><ele>336.0</ele><time>2026-04-25T06:31:38.999Z</time></trkpt><trkpt lat="45.75379236130359" lon="9.22345965048673"><ele>336.0</ele><time>2026-04-25T06:31:39.999Z</time></trkpt><trkpt lat="45.75386797806722" lon="9.223483365807624"><ele>336.0</ele><time>2026-04-25T06:31:40.999Z</time></trkpt><trkpt lat="45.75394298777705" lon="9.223521037671048"><ele>336.0</ele><time>2026-04-25T06:31:41.999Z</time></trkpt><trkpt lat="45.75401859686385" lon="9.223575436583017"><ele>336.0</ele><time>2026-04-25T06:31:42.999Z</time></trkpt><trkpt lat="45.75409327589923" lon="9.223631364121948"><ele>336.0</ele><time>2026-04-25T06:31:43.999Z</time></trkpt><trkpt lat="45.75417215142134" lon="9.22368175377984"><ele>336.0</ele><time>2026-04-25T06:31:44.999Z</time></trkpt><trkpt lat="45.75425045364574" lon="9.223731956549338"><ele>336.0</ele><time>2026-04-25T06:31:45.999Z</time></trkpt><trkpt lat="45.75432945654575" lon="9.223782718511222"><ele>336.0</ele><time>2026-04-25T06:31:46.999Z</time></trkpt><trkpt lat="45.754411420742784" lon="9.22382899723371"><ele>336.0</ele><time>2026-04-25T06:31:47.999Z</time></trkpt><trkpt lat="45.75449225717295" lon="9.223876580107413"><ele>336.0</ele><time>2026-04-25T06:31:48.999Z</time></trkpt><trkpt lat="45.75456836901981" lon="9.223928763610225"><ele>336.1666666666667</ele><time>2026-04-25T06:31:50Z</time></trkpt><trkpt lat="45.754645889282884" lon="9.2239777164003"><ele>336.3333333333333</ele><time>2026-04-25T06:31:51Z</time></trkpt><trkpt lat="45.75472023728115" lon="9.224032797956832"><ele>336.5</ele><time>2026-04-25T06:31:52Z</time></trkpt><trkpt lat="45.75479392080396" lon="9.224083685584473"><ele>336.66666666666663</ele><time>2026-04-25T06:31:53Z</time></trkpt><trkpt lat="45.75486652129825" lon="9.224128610549014"><ele>336.8333333333333</ele><time>2026-04-25T06:31:54Z</time></trkpt><trkpt lat="45.754940282252555" lon="9.224171982365013"><ele>337.0</ele><time>2026-04-25T06:31:55Z</time></trkpt><trkpt lat="45.75501392286936" lon="9.224214038637072"><ele>337.0</ele><time>2026-04-25T06:31:56Z</time></trkpt><trkpt lat="45.75509374695286" lon="9.22426658902641"><ele>337.0</ele><time>2026-04-25T06:31:57Z</time></trkpt><trkpt lat="45.75517189611917" lon="9.224314935562687"><ele>337.0</ele><time>2026-04-25T06:31:58Z</time></trkpt><trkpt lat="45.75525058708024" lon="9.224367142521276"><ele>337.0</ele><time>2026-04-25T06:31:59Z</time></trkpt><trkpt lat="45.75532875365636" lon="9.224414975871548"><ele>337.0</ele><time>2026-04-25T06:32:00Z</time></trkpt><trkpt lat="45.75540632334288" lon="9.224460783533356"><ele>337.0</ele><time>2026-04-25T06:32:01Z</time></trkpt><trkpt lat="45.75548321844118" lon="9.224506337707732"><ele>336.3333333333333</ele><time>2026-04-25T06:32:02Z</time></trkpt><trkpt lat="45.75555802213943" lon="9.224554077498652"><ele>335.66666666666663</ele><time>2026-04-25T06:32:03Z</time></trkpt><trkpt lat="45.75563317474569" lon="9.22460225478004"><ele>335.0</ele><time>2026-04-25T06:32:04Z</time></trkpt><trkpt lat="45.755706064314154" lon="9.224651917831393"><ele>334.3333333333333</ele><time>2026-04-25T06:32:05Z</time></trkpt><trkpt lat="45.75578394944159" lon="9.224698127062974"><ele>333.6666666666667</ele><time>2026-04-25T06:32:06Z</time></trkpt><trkpt lat="45.755861853648916" lon="9.224748514834367"><ele>333.0</ele><time>2026-04-25T06:32:07Z</time></trkpt><trkpt lat="45.755940502563504" lon="9.224801042055546"><ele>332.5</ele><time>2026-04-25T06:32:08Z</time></trkpt><trkpt lat="45.756019444239115" lon="9.22484882662497"><ele>332.0</ele><time>2026-04-25T06:32:09Z</time></trkpt><trkpt lat="45.756096030151774" lon="9.224894751974956"><ele>331.5</ele><time>2026-04-25T06:32:10Z</time></trkpt><trkpt lat="45.75617159199295" lon="9.224940378255443"><ele>331.0</ele><time>2026-04-25T06:32:11Z</time></trkpt><trkpt lat="45.756248206910584" lon="9.224984228369033"><ele>330.5</ele><time>2026-04-25T06:32:12Z</time></trkpt><trkpt lat="45.756321813160504" lon="9.225030178831243"><ele>330.0</ele><time>2026-04-25T06:32:13Z</time></trkpt><trkpt lat="45.75639506860023" lon="9.225075659361357"><ele>330.00000000000006</ele><time>2026-04-25T06:32:14Z</time></trkpt><trkpt lat="45.75646429865804" lon="9.22512077757486"><ele>330.0</ele><time>2026-04-25T06:32:15Z</time></trkpt><trkpt lat="45.756527478059965" lon="9.225161279880785"><ele>330.0</ele><time>2026-04-25T06:32:16Z</time></trkpt><trkpt lat="45.75658760728611" lon="9.22520664807972"><ele>330.0</ele><time>2026-04-25T06:32:17Z</time></trkpt><trkpt lat="45.756647143424715" lon="9.225261017866885"><ele>330.0</ele><time>2026-04-25T06:32:18Z</time></trkpt><trkpt lat="45.756708867893146" lon="9.225320657808233"><ele>330.00000000000006</ele><time>2026-04-25T06:32:19Z</time></trkpt><trkpt lat="45.75677651038997" lon="9.225373072006331"><ele>330.0</ele><time>2026-04-25T06:32:20Z</time></trkpt><trkpt lat="45.75685611244746" lon="9.225401364281785"><ele>329.5</ele><time>2026-04-25T06:32:21Z</time></trkpt><trkpt lat="45.756942265435086" lon="9.225414862061394"><ele>329.0</ele><time>2026-04-25T06:32:22Z</time></trkpt><trkpt lat="45.757028856905976" lon="9.22542858428225"><ele>328.5</ele><time>2026-04-25T06:32:23Z</time></trkpt><trkpt lat="45.75711152516788" lon="9.225453812257701"><ele>328.0</ele><time>2026-04-25T06:32:24Z</time></trkpt><trkpt lat="45.75719000489635" lon="9.225483222200152"><ele>327.5</ele><time>2026-04-25T06:32:25Z</time></trkpt><trkpt lat="45.75726196355988" lon="9.225499200750859"><ele>327.0</ele><time>2026-04-25T06:32:26Z</time></trkpt><trkpt lat="45.75733796012359" lon="9.225529617394994"><ele>327.0</ele><time>2026-04-25T06:32:27Z</time></trkpt><trkpt lat="45.757407601520846" lon="9.225558627646466"><ele>327.0</ele><time>2026-04-25T06:32:28Z</time></trkpt><trkpt lat="45.75747406806456" lon="9.225605735632687"><ele>327.0</ele><time>2026-04-25T06:32:29Z</time></trkpt><trkpt lat="45.757537793397965" lon="9.225667175354143"><ele>327.0</ele><time>2026-04-25T06:32:30Z</time></trkpt><trkpt lat="45.75759873618791" lon="9.225720812858262"><ele>327.0</ele><time>2026-04-25T06:32:31Z</time></trkpt><trkpt lat="45.757661996380286" lon="9.225765072512319"><ele>327.0</ele><time>2026-04-25T06:32:32Z</time></trkpt><trkpt lat="45.75772921774595" lon="9.225790110226338"><ele>327.0</ele><time>2026-04-25T06:32:33Z</time></trkpt><trkpt lat="45.75779853713635" lon="9.225783365711285"><ele>326.3333333333333</ele><time>2026-04-25T06:32:34Z</time></trkpt><trkpt lat="45.75786891403479" lon="9.225745507551002"><ele>325.6666666666667</ele><time>2026-04-25T06:32:35Z</time></trkpt><trkpt lat="45.75792871423029" lon="9.225681398862006"><ele>325.0</ele><time>2026-04-25T06:32:36Z</time></trkpt><trkpt lat="45.757987357440044" lon="9.225621003303162"><ele>324.33333333333337</ele><time>2026-04-25T06:32:37Z</time></trkpt><trkpt lat="45.75810295199528" lon="9.225692481672745"><ele>323.6666666666667</ele><time>2026-04-25T06:32:38Z</time></trkpt><trkpt lat="45.75818490236181" lon="9.225720568369235"><ele>323.0</ele><time>2026-04-25T06:32:39Z</time></trkpt><trkpt lat="45.758265030569824" lon="9.225747674239416"><ele>323.0</ele><time>2026-04-25T06:32:40Z</time></trkpt><trkpt lat="45.758344771615526" lon="9.225776100970169"><ele>323.0</ele><time>2026-04-25T06:32:41Z</time></trkpt><trkpt lat="45.75842724005148" lon="9.225801453459336"><ele>323.0</ele><time>2026-04-25T06:32:42Z</time></trkpt><trkpt lat="45.758512187074864" lon="9.225824986276482"><ele>323.0</ele><time>2026-04-25T06:32:43Z</time></trkpt><trkpt lat="45.75859475937135" lon="9.225850092163922"><ele>323.0</ele><time>2026-04-25T06:32:44Z</time></trkpt><trkpt lat="45.75867632098906" lon="9.225875900059012"><ele>323.0</ele><time>2026-04-25T06:32:45Z</time></trkpt><trkpt lat="45.7587581442894" lon="9.22590003071576"><ele>323.0</ele><time>2026-04-25T06:32:46Z</time></trkpt><trkpt lat="45.75884448283815" lon="9.225927677122444"><ele>323.0</ele><time>2026-04-25T06:32:47Z</time></trkpt><trkpt lat="45.75893271179267" lon="9.225952502242592"><ele>323.0</ele><time>2026-04-25T06:32:48Z</time></trkpt><trkpt lat="45.75902121796903" lon="9.225976181141657"><ele>323.0</ele><time>2026-04-25T06:32:49Z</time></trkpt><trkpt lat="45.75911093919597" lon="9.226002401105617"><ele>323.0</ele><time>2026-04-25T06:32:50Z</time></trkpt><trkpt lat="45.75920247050364" lon="9.226026758909999"><ele>323.0</ele><time>2026-04-25T06:32:51Z</time></trkpt><trkpt lat="45.759293962446556" lon="9.226053652585936"><ele>323.0</ele><time>2026-04-25T06:32:52Z</time></trkpt><trkpt lat="45.759386171003214" lon="9.226083228357602"><ele>323.0</ele><time>2026-04-25T06:32:53Z</time></trkpt><trkpt lat="45.75947903268629" lon="9.226112355454827"><ele>323.0</ele><time>2026-04-25T06:32:54Z</time></trkpt><trkpt lat="45.75957276431104" lon="9.226139783232282"><ele>323.0</ele><time>2026-04-25T06:32:55Z</time></trkpt><trkpt lat="45.75966546863824" lon="9.226164249749381"><ele>324.0</ele><time>2026-04-25T06:32:56Z</time></trkpt><trkpt lat="45.75975697774351" lon="9.226184912510087"><ele>325.0</ele><time>2026-04-25T06:32:57Z</time></trkpt><trkpt lat="45.75984745693115" lon="9.22621211747432"><ele>326.0</ele><time>2026-04-25T06:32:58Z</time></trkpt><trkpt lat="45.75993667035089" lon="9.22624279451879"><ele>327.0</ele><time>2026-04-25T06:32:59Z</time></trkpt><trkpt lat="45.76002748596192" lon="9.226274717970323"><ele>328.0</ele><time>2026-04-25T06:33:00Z</time></trkpt><trkpt lat="45.7601206807744" lon="9.226306868162327"><ele>326.79999999999995</ele><time>2026-04-25T06:33:01Z</time></trkpt><trkpt lat="45.76021923669702" lon="9.226334715969347"><ele>325.6</ele><time>2026-04-25T06:33:02Z</time></trkpt><trkpt lat="45.76032113702562" lon="9.226362117127325"><ele>324.4</ele><time>2026-04-25T06:33:03Z</time></trkpt><trkpt lat="45.76042490213269" lon="9.226389859946888"><ele>323.20000000000005</ele><time>2026-04-25T06:33:04Z</time></trkpt><trkpt lat="45.76052888254597" lon="9.22642864634107"><ele>322.0</ele><time>2026-04-25T06:33:05Z</time></trkpt><trkpt lat="45.7606317470234" lon="9.2264791972465"><ele>322.0</ele><time>2026-04-25T06:33:06Z</time></trkpt><trkpt lat="45.760730890497335" lon="9.226547935252439"><ele>322.0</ele><time>2026-04-25T06:33:07Z</time></trkpt><trkpt lat="45.76082834246705" lon="9.226624975641453"><ele>322.0</ele><time>2026-04-25T06:33:08Z</time></trkpt><trkpt lat="45.7609271145102" lon="9.226701020550372"><ele>322.0</ele><time>2026-04-25T06:33:09Z</time></trkpt><trkpt lat="45.76102420471216" lon="9.226774568695708"><ele>322.0</ele><time>2026-04-25T06:33:10Z</time></trkpt><trkpt lat="45.761118974111376" lon="9.226855734176398"><ele>320.25</ele><time>2026-04-25T06:33:11Z</time></trkpt><trkpt lat="45.761212819024436" lon="9.226942825942148"><ele>318.5</ele><time>2026-04-25T06:33:12Z</time></trkpt><trkpt lat="45.76130911467559" lon="9.22703422678763"><ele>316.75</ele><time>2026-04-25T06:33:13Z</time></trkpt><trkpt lat="45.761407297400375" lon="9.227124507441829"><ele>315.0</ele><time>2026-04-25T06:33:14Z</time></trkpt><trkpt lat="45.76151015911038" lon="9.227217662770059"><ele>315.5</ele><time>2026-04-25T06:33:15Z</time></trkpt><trkpt lat="45.76161236128188" lon="9.227312163115334"><ele>316.0</ele><time>2026-04-25T06:33:16Z</time></trkpt><trkpt lat="45.76171737236776" lon="9.22741074560408"><ele>316.5</ele><time>2026-04-25T06:33:17Z</time></trkpt><trkpt lat="45.761822325708" lon="9.22751135289782"><ele>317.0</ele><time>2026-04-25T06:33:18Z</time></trkpt><trkpt lat="45.761928398077565" lon="9.227607500183456"><ele>313.75</ele><time>2026-04-25T06:33:19Z</time></trkpt><trkpt lat="45.76203730668963" lon="9.227708189623272"><ele>310.5</ele><time>2026-04-25T06:33:20Z</time></trkpt><trkpt lat="45.762146758369795" lon="9.227809720504588"><ele>307.25</ele><time>2026-04-25T06:33:20.999Z</time></trkpt><trkpt lat="45.76225736262295" lon="9.22791095154934"><ele>304.0</ele><time>2026-04-25T06:33:21.999Z</time></trkpt><trkpt lat="45.762367811689586" lon="9.228009928971503"><ele>304.0</ele><time>2026-04-25T06:33:22.999Z</time></trkpt><trkpt lat="45.762476799612124" lon="9.228106724184082"><ele>304.0</ele><time>2026-04-25T06:33:23.999Z</time></trkpt><trkpt lat="45.762588635546976" lon="9.228197816075667"><ele>304.0</ele><time>2026-04-25T06:33:24.999Z</time></trkpt><trkpt lat="45.762705944462624" lon="9.228275941022854"><ele>304.0</ele><time>2026-04-25T06:33:25.999Z</time></trkpt><trkpt lat="45.76282685913421" lon="9.228337443178793"><ele>304.0</ele><time>2026-04-25T06:33:26.999Z</time></trkpt><trkpt lat="45.76294580759774" lon="9.228394636224179"><ele>304.0</ele><time>2026-04-25T06:33:27.999Z</time></trkpt><trkpt lat="45.763064228109286" lon="9.228439064636971"><ele>304.0</ele><time>2026-04-25T06:33:28.999Z</time></trkpt><trkpt lat="45.76318415896969" lon="9.228473166606074"><ele>304.0</ele><time>2026-04-25T06:33:29.999Z</time></trkpt><trkpt lat="45.763299534838296" lon="9.228499442449364"><ele>304.0</ele><time>2026-04-25T06:33:30.999Z</time></trkpt><trkpt lat="45.763414932646725" lon="9.22852784230024"><ele>304.0</ele><time>2026-04-25T06:33:31.999Z</time></trkpt><trkpt lat="45.76353160950094" lon="9.228553123587863"><ele>304.0</ele><time>2026-04-25T06:33:32.999Z</time></trkpt><trkpt lat="45.76364825404184" lon="9.228577232221586"><ele>304.0</ele><time>2026-04-25T06:33:33.999Z</time></trkpt><trkpt lat="45.76376522501112" lon="9.22859661164782"><ele>304.0</ele><time>2026-04-25T06:33:34.999Z</time></trkpt><trkpt lat="45.76388317924068" lon="9.228616001296917"><ele>304.0</ele><time>2026-04-25T06:33:35.999Z</time></trkpt><trkpt lat="45.76400022531954" lon="9.228640957152392"><ele>304.0</ele><time>2026-04-25T06:33:36.999Z</time></trkpt><trkpt lat="45.76411415070835" lon="9.228669609236965"><ele>304.0</ele><time>2026-04-25T06:33:37.999Z</time></trkpt><trkpt lat="45.7642278302634" lon="9.228693891315698"><ele>304.0</ele><time>2026-04-25T06:33:38.999Z</time></trkpt><trkpt lat="45.76434264815122" lon="9.228715139763915"><ele>304.0</ele><time>2026-04-25T06:33:39.999Z</time></trkpt><trkpt lat="45.76445108552569" lon="9.228736227107564"><ele>304.0</ele><time>2026-04-25T06:33:40.999Z</time></trkpt><trkpt lat="45.7645595292736" lon="9.228756399310988"><ele>304.0</ele><time>2026-04-25T06:33:41.999Z</time></trkpt><trkpt lat="45.764664656426085" lon="9.228772029842554"><ele>304.0</ele><time>2026-04-25T06:33:42.999Z</time></trkpt><trkpt lat="45.76476799160079" lon="9.228792479293958"><ele>303.8</ele><time>2026-04-25T06:33:43.999Z</time></trkpt><trkpt lat="45.76486916410309" lon="9.228813244283078"><ele>303.59999999999997</ele><time>2026-04-25T06:33:44.999Z</time></trkpt><trkpt lat="45.76497163497825" lon="9.22883480953769"><ele>303.4</ele><time>2026-04-25T06:33:45.999Z</time></trkpt><trkpt lat="45.76507216882383" lon="9.228851953200442"><ele>303.2</ele><time>2026-04-25T06:33:46.999Z</time></trkpt><trkpt lat="45.765172208258235" lon="9.228869332202805"><ele>303.0</ele><time>2026-04-25T06:33:47.999Z</time></trkpt><trkpt lat="45.765266662812095" lon="9.22888330900575"><ele>303.0</ele><time>2026-04-25T06:33:48.999Z</time></trkpt><trkpt lat="45.765353642374905" lon="9.228903785979664"><ele>303.0</ele><time>2026-04-25T06:33:49.999Z</time></trkpt><trkpt lat="45.76543555820963" lon="9.228938117277316"><ele>303.0</ele><time>2026-04-25T06:33:50.999Z</time></trkpt><trkpt lat="45.76551236649287" lon="9.228995259577554"><ele>303.0</ele><time>2026-04-25T06:33:51.999Z</time></trkpt><trkpt lat="45.76558410929483" lon="9.229057998388258"><ele>303.0</ele><time>2026-04-25T06:33:52.999Z</time></trkpt><trkpt lat="45.76565947960568" lon="9.229104874004262"><ele>303.0</ele><time>2026-04-25T06:33:53.999Z</time></trkpt><trkpt lat="45.76574303434306" lon="9.22911778489294"><ele>303.0</ele><time>2026-04-25T06:33:54.999Z</time></trkpt><trkpt lat="45.765829001541476" lon="9.22909435130985"><ele>303.0</ele><time>2026-04-25T06:33:56Z</time></trkpt><trkpt lat="45.76590308798063" lon="9.2290383105121"><ele>303.0</ele><time>2026-04-25T06:33:57Z</time></trkpt><trkpt lat="45.76600971449347" lon="9.229045046170535"><ele>303.0</ele><time>2026-04-25T06:33:58Z</time></trkpt><trkpt lat="45.7661036956261" lon="9.229062797978528"><ele>303.0</ele><time>2026-04-25T06:33:59Z</time></trkpt><trkpt lat="45.76619946677392" lon="9.229086213690527"><ele>302.8</ele><time>2026-04-25T06:34:00Z</time></trkpt><trkpt lat="45.76629963249396" lon="9.22910191375021"><ele>302.6</ele><time>2026-04-25T06:34:01Z</time></trkpt><trkpt lat="45.76639671922112" lon="9.229120695419905"><ele>302.4</ele><time>2026-04-25T06:34:02Z</time></trkpt><trkpt lat="45.76649212610491" lon="9.229140106199651"><ele>302.2</ele><time>2026-04-25T06:34:03Z</time></trkpt><trkpt lat="45.76658592670969" lon="9.22916003537575"><ele>302.0</ele><time>2026-04-25T06:34:04Z</time></trkpt><trkpt lat="45.76667908556949" lon="9.229179111734178"><ele>302.0</ele><time>2026-04-25T06:34:05Z</time></trkpt><trkpt lat="45.76677118791184" lon="9.229193918542519"><ele>302.0</ele><time>2026-04-25T06:34:06Z</time></trkpt><trkpt lat="45.76686192275488" lon="9.229211407084179"><ele>302.0</ele><time>2026-04-25T06:34:07Z</time></trkpt><trkpt lat="45.76695109293638" lon="9.229228885856257"><ele>302.0</ele><time>2026-04-25T06:34:08Z</time></trkpt><trkpt lat="45.76703904798244" lon="9.229246803895888"><ele>302.0</ele><time>2026-04-25T06:34:09Z</time></trkpt><trkpt lat="45.7671258531657" lon="9.229266182845246"><ele>301.83333333333337</ele><time>2026-04-25T06:34:10Z</time></trkpt><trkpt lat="45.76721052825899" lon="9.229284748887974"><ele>301.6666666666667</ele><time>2026-04-25T06:34:11Z</time></trkpt><trkpt lat="45.76729517772121" lon="9.22930830198385"><ele>301.5</ele><time>2026-04-25T06:34:12Z</time></trkpt><trkpt lat="45.76738222005857" lon="9.229329667053992"><ele>301.3333333333333</ele><time>2026-04-25T06:34:13Z</time></trkpt><trkpt lat="45.76747247490073" lon="9.229348173969305"><ele>301.16666666666663</ele><time>2026-04-25T06:34:14Z</time></trkpt><trkpt lat="45.76756274975384" lon="9.22936550450336"><ele>301.0</ele><time>2026-04-25T06:34:15Z</time></trkpt><trkpt lat="45.76765514967355" lon="9.229384449491905"><ele>301.16666666666663</ele><time>2026-04-25T06:34:16Z</time></trkpt><trkpt lat="45.76774548452273" lon="9.229402940666386"><ele>301.3333333333333</ele><time>2026-04-25T06:34:17Z</time></trkpt><trkpt lat="45.76783398368249" lon="9.229420335513169"><ele>301.5</ele><time>2026-04-25T06:34:18Z</time></trkpt><trkpt lat="45.76792112333277" lon="9.229439825833841"><ele>301.6666666666667</ele><time>2026-04-25T06:34:19Z</time></trkpt><trkpt lat="45.76800648782241" lon="9.229456069791802"><ele>301.83333333333337</ele><time>2026-04-25T06:34:20Z</time></trkpt><trkpt lat="45.76809414838605" lon="9.22947160355259"><ele>302.0</ele><time>2026-04-25T06:34:21Z</time></trkpt><trkpt lat="45.768183913531516" lon="9.229488302229969"><ele>302.0</ele><time>2026-04-25T06:34:22Z</time></trkpt><trkpt lat="45.76827109707742" lon="9.22950583865523"><ele>302.0</ele><time>2026-04-25T06:34:23Z</time></trkpt><trkpt lat="45.76835493753071" lon="9.229525773969511"><ele>302.0</ele><time>2026-04-25T06:34:24Z</time></trkpt><trkpt lat="45.768438953725145" lon="9.22954287130149"><ele>302.0</ele><time>2026-04-25T06:34:25Z</time></trkpt><trkpt lat="45.76852114608447" lon="9.229559143459733"><ele>302.0</ele><time>2026-04-25T06:34:26Z</time></trkpt><trkpt lat="45.76859875700203" lon="9.229576497324548"><ele>302.0</ele><time>2026-04-25T06:34:27Z</time></trkpt><trkpt lat="45.76867572497821" lon="9.229595204817382"><ele>302.0</ele><time>2026-04-25T06:34:28Z</time></trkpt><trkpt lat="45.76875182755554" lon="9.229611430968887"><ele>302.0</ele><time>2026-04-25T06:34:29Z</time></trkpt><trkpt lat="45.768827539451856" lon="9.229625739600902"><ele>302.0</ele><time>2026-04-25T06:34:30Z</time></trkpt><trkpt lat="45.76890300126397" lon="9.229644864750535"><ele>302.0</ele><time>2026-04-25T06:34:31Z</time></trkpt><trkpt lat="45.76897807457452" lon="9.229660523071457"><ele>302.0</ele><time>2026-04-25T06:34:32Z</time></trkpt><trkpt lat="45.76905763361703" lon="9.229681532985621"><ele>302.0</ele><time>2026-04-25T06:34:33Z</time></trkpt><trkpt lat="45.76913989540739" lon="9.229696500488776"><ele>302.0</ele><time>2026-04-25T06:34:34Z</time></trkpt><trkpt lat="45.76922008810084" lon="9.229711477213824"><ele>302.0</ele><time>2026-04-25T06:34:35Z</time></trkpt><trkpt lat="45.76930154091073" lon="9.229730990105207"><ele>302.0</ele><time>2026-04-25T06:34:36Z</time></trkpt><trkpt lat="45.76938346390574" lon="9.229751249400877"><ele>302.0</ele><time>2026-04-25T06:34:37Z</time></trkpt><trkpt lat="45.76946676566532" lon="9.22976357930532"><ele>302.0</ele><time>2026-04-25T06:34:38Z</time></trkpt><trkpt lat="45.76954942799494" lon="9.229777287950531"><ele>302.0</ele><time>2026-04-25T06:34:39Z</time></trkpt><trkpt lat="45.769632933135334" lon="9.229792955886444"><ele>302.33333333333337</ele><time>2026-04-25T06:34:40Z</time></trkpt><trkpt lat="45.76971647601093" lon="9.22981181976791"><ele>302.6666666666667</ele><time>2026-04-25T06:34:41Z</time></trkpt><trkpt lat="45.76979886379386" lon="9.229829907571077"><ele>303.0</ele><time>2026-04-25T06:34:42Z</time></trkpt><trkpt lat="45.769882159378454" lon="9.229844909813869"><ele>303.3333333333333</ele><time>2026-04-25T06:34:43Z</time></trkpt><trkpt lat="45.76996446343211" lon="9.229862089734187"><ele>303.66666666666663</ele><time>2026-04-25T06:34:44Z</time></trkpt><trkpt lat="45.77004523680751" lon="9.229878627351946"><ele>304.0</ele><time>2026-04-25T06:34:45Z</time></trkpt><trkpt lat="45.770127679466626" lon="9.229901237372236"><ele>304.3333333333333</ele><time>2026-04-25T06:34:46Z</time></trkpt><trkpt lat="45.77020901496545" lon="9.229917614781"><ele>304.66666666666663</ele><time>2026-04-25T06:34:47Z</time></trkpt><trkpt lat="45.77028933609474" lon="9.229933990269702"><ele>305.0</ele><time>2026-04-25T06:34:48Z</time></trkpt><trkpt lat="45.770370203825955" lon="9.229953580459961"><ele>305.3333333333333</ele><time>2026-04-25T06:34:49Z</time></trkpt><trkpt lat="45.770450539369826" lon="9.229964995310317"><ele>305.6666666666667</ele><time>2026-04-25T06:34:50Z</time></trkpt><trkpt lat="45.770530614303894" lon="9.229975670323554"><ele>306.0</ele><time>2026-04-25T06:34:51Z</time></trkpt><trkpt lat="45.77061076071252" lon="9.229988420387915"><ele>306.0</ele><time>2026-04-25T06:34:52Z</time></trkpt><trkpt lat="45.77069127328189" lon="9.230005074377516"><ele>306.0</ele><time>2026-04-25T06:34:53Z</time></trkpt><trkpt lat="45.77077258930224" lon="9.230025279879184"><ele>306.0</ele><time>2026-04-25T06:34:54Z</time></trkpt><trkpt lat="45.77085190491219" lon="9.230045885322264"><ele>306.0</ele><time>2026-04-25T06:34:55Z</time></trkpt><trkpt lat="45.770933169723946" lon="9.230072407888354"><ele>306.0</ele><time>2026-04-25T06:34:56Z</time></trkpt><trkpt lat="45.77101343676652" lon="9.230094024886485"><ele>306.0</ele><time>2026-04-25T06:34:57Z</time></trkpt><trkpt lat="45.77109647817335" lon="9.23011408992686"><ele>306.8333333333333</ele><time>2026-04-25T06:34:58Z</time></trkpt><trkpt lat="45.77117993849239" lon="9.230130197914775"><ele>307.6666666666667</ele><time>2026-04-25T06:34:59Z</time></trkpt><trkpt lat="45.77126199027052" lon="9.230144332901833"><ele>308.5</ele><time>2026-04-25T06:35:00Z</time></trkpt><trkpt lat="45.77134328257918" lon="9.230155847586124"><ele>309.33333333333337</ele><time>2026-04-25T06:35:01Z</time></trkpt><trkpt lat="45.771424057169135" lon="9.230160841029015"><ele>310.1666666666667</ele><time>2026-04-25T06:35:02Z</time></trkpt><trkpt lat="45.771507001678906" lon="9.23016674938294"><ele>311.0</ele><time>2026-04-25T06:35:03Z</time></trkpt><trkpt lat="45.77158924374531" lon="9.230169113928632"><ele>311.0</ele><time>2026-04-25T06:35:04Z</time></trkpt><trkpt lat="45.77167316278488" lon="9.230175041602553"><ele>311.0</ele><time>2026-04-25T06:35:05Z</time></trkpt><trkpt lat="45.77175656516232" lon="9.230178927713306"><ele>311.0</ele><time>2026-04-25T06:35:06Z</time></trkpt><trkpt lat="45.77184026382356" lon="9.230178638354085"><ele>311.0</ele><time>2026-04-25T06:35:07Z</time></trkpt><trkpt lat="45.7719228145874" lon="9.230178465791184"><ele>311.0</ele><time>2026-04-25T06:35:08Z</time></trkpt><trkpt lat="45.77200804416362" lon="9.230180113751365"><ele>311.0</ele><time>2026-04-25T06:35:09Z</time></trkpt><trkpt lat="45.77209311503172" lon="9.230189238208528"><ele>310.83333333333337</ele><time>2026-04-25T06:35:10Z</time></trkpt><trkpt lat="45.77217763268376" lon="9.230193458979763"><ele>310.6666666666667</ele><time>2026-04-25T06:35:11Z</time></trkpt><trkpt lat="45.772262616203626" lon="9.230193647472314"><ele>310.5</ele><time>2026-04-25T06:35:12Z</time></trkpt><trkpt lat="45.77234637460687" lon="9.230193113035186"><ele>310.3333333333333</ele><time>2026-04-25T06:35:13Z</time></trkpt><trkpt lat="45.77242571884376" lon="9.230195000943901"><ele>310.16666666666663</ele><time>2026-04-25T06:35:14Z</time></trkpt><trkpt lat="45.77250799130798" lon="9.230193220803637"><ele>310.0</ele><time>2026-04-25T06:35:15Z</time></trkpt><trkpt lat="45.772594429625926" lon="9.230194121796691"><ele>310.0</ele><time>2026-04-25T06:35:16Z</time></trkpt><trkpt lat="45.77268399391319" lon="9.230197734050154"><ele>310.0</ele><time>2026-04-25T06:35:17Z</time></trkpt><trkpt lat="45.77277390040702" lon="9.230195412627694"><ele>310.0</ele><time>2026-04-25T06:35:18Z</time></trkpt><trkpt lat="45.77286701264175" lon="9.230191366738698"><ele>310.0</ele><time>2026-04-25T06:35:19Z</time></trkpt><trkpt lat="45.77295991932881" lon="9.230184137445848"><ele>310.0</ele><time>2026-04-25T06:35:20Z</time></trkpt><trkpt lat="45.77305386291507" lon="9.230173986099551"><ele>309.6</ele><time>2026-04-25T06:35:21Z</time></trkpt><trkpt lat="45.77314838019277" lon="9.230166398339959"><ele>309.2</ele><time>2026-04-25T06:35:22Z</time></trkpt><trkpt lat="45.7732417173449" lon="9.230159456724916"><ele>308.8</ele><time>2026-04-25T06:35:23Z</time></trkpt><trkpt lat="45.77333601018233" lon="9.230158133781272"><ele>308.4</ele><time>2026-04-25T06:35:24Z</time></trkpt><trkpt lat="45.77342952123458" lon="9.230161835135414"><ele>308.0</ele><time>2026-04-25T06:35:25Z</time></trkpt><trkpt lat="45.773520512734166" lon="9.230164356862714"><ele>308.0</ele><time>2026-04-25T06:35:26Z</time></trkpt><trkpt lat="45.77361497646571" lon="9.230161362788367"><ele>308.0</ele><time>2026-04-25T06:35:27Z</time></trkpt><trkpt lat="45.773709089447124" lon="9.230162055101188"><ele>308.0</ele><time>2026-04-25T06:35:28Z</time></trkpt><trkpt lat="45.773804745744336" lon="9.230167452270063"><ele>308.0</ele><time>2026-04-25T06:35:29Z</time></trkpt><trkpt lat="45.77390016272298" lon="9.230172363860259"><ele>308.0</ele><time>2026-04-25T06:35:30Z</time></trkpt><trkpt lat="45.773995170183134" lon="9.230174697459708"><ele>308.0</ele><time>2026-04-25T06:35:31Z</time></trkpt><trkpt lat="45.774092660046115" lon="9.230177386381136"><ele>308.0</ele><time>2026-04-25T06:35:32Z</time></trkpt><trkpt lat="45.77418873720121" lon="9.230177770418114"><ele>308.0</ele><time>2026-04-25T06:35:33Z</time></trkpt><trkpt lat="45.77428595691825" lon="9.230177638348309"><ele>308.0</ele><time>2026-04-25T06:35:34Z</time></trkpt><trkpt lat="45.774382333748385" lon="9.230179502426656"><ele>308.0</ele><time>2026-04-25T06:35:35Z</time></trkpt><trkpt lat="45.77447808682465" lon="9.230181444973855"><ele>308.0</ele><time>2026-04-25T06:35:36Z</time></trkpt><trkpt lat="45.774576284914716" lon="9.23018432290808"><ele>308.0</ele><time>2026-04-25T06:35:37Z</time></trkpt><trkpt lat="45.77467590226607" lon="9.230188046083219"><ele>308.0</ele><time>2026-04-25T06:35:38Z</time></trkpt><trkpt lat="45.7747735347977" lon="9.230187928916985"><ele>308.0</ele><time>2026-04-25T06:35:39Z</time></trkpt><trkpt lat="45.7748744746772" lon="9.230187869499014"><ele>308.0</ele><time>2026-04-25T06:35:40Z</time></trkpt><trkpt lat="45.77497486628991" lon="9.230194276511487"><ele>308.0</ele><time>2026-04-25T06:35:41Z</time></trkpt><trkpt lat="45.77507619022676" lon="9.230194857089074"><ele>308.0</ele><time>2026-04-25T06:35:42Z</time></trkpt><trkpt lat="45.775179772855445" lon="9.230198236282824"><ele>308.0</ele><time>2026-04-25T06:35:42.999Z</time></trkpt><trkpt lat="45.77528371661789" lon="9.23019830436663"><ele>308.0</ele><time>2026-04-25T06:35:43.999Z</time></trkpt><trkpt lat="45.77539012754814" lon="9.230201482127796"><ele>308.0</ele><time>2026-04-25T06:35:44.999Z</time></trkpt><trkpt lat="45.77549568012281" lon="9.230204282866213"><ele>307.8</ele><time>2026-04-25T06:35:45.999Z</time></trkpt><trkpt lat="45.775600645769636" lon="9.230206546965563"><ele>307.6</ele><time>2026-04-25T06:35:46.999Z</time></trkpt><trkpt lat="45.77570610490094" lon="9.230211722660203"><ele>307.4</ele><time>2026-04-25T06:35:47.999Z</time></trkpt><trkpt lat="45.77581214239875" lon="9.230223115131192"><ele>307.2</ele><time>2026-04-25T06:35:48.999Z</time></trkpt><trkpt lat="45.77591894743105" lon="9.230240872978236"><ele>307.0</ele><time>2026-04-25T06:35:49.999Z</time></trkpt><trkpt lat="45.77602471368862" lon="9.230265962348229"><ele>308.6</ele><time>2026-04-25T06:35:50.999Z</time></trkpt><trkpt lat="45.77613005701622" lon="9.230299390894237"><ele>310.2</ele><time>2026-04-25T06:35:51.999Z</time></trkpt><trkpt lat="45.77623461326289" lon="9.230339487540387"><ele>311.8</ele><time>2026-04-25T06:35:52.999Z</time></trkpt><trkpt lat="45.77633626610772" lon="9.230385676082328"><ele>313.4</ele><time>2026-04-25T06:35:53.999Z</time></trkpt><trkpt lat="45.77643684795673" lon="9.230438883304648"><ele>315.0</ele><time>2026-04-25T06:35:54.999Z</time></trkpt><trkpt lat="45.77653568366456" lon="9.230498777782289"><ele>315.0</ele><time>2026-04-25T06:35:55.999Z</time></trkpt><trkpt lat="45.77663450075771" lon="9.23056509856374"><ele>315.0</ele><time>2026-04-25T06:35:56.999Z</time></trkpt><trkpt lat="45.77673069681936" lon="9.230635782584253"><ele>315.0</ele><time>2026-04-25T06:35:57.999Z</time></trkpt><trkpt lat="45.776825364136144" lon="9.23071364794992"><ele>315.0</ele><time>2026-04-25T06:35:58.999Z</time></trkpt><trkpt lat="45.77691867497776" lon="9.230795624975222"><ele>315.0</ele><time>2026-04-25T06:35:59.999Z</time></trkpt><trkpt lat="45.77700901989898" lon="9.230885148858308"><ele>313.5</ele><time>2026-04-25T06:36:00.999Z</time></trkpt><trkpt lat="45.77709763696831" lon="9.230982759623311"><ele>312.0</ele><time>2026-04-25T06:36:02Z</time></trkpt><trkpt lat="45.77718175934148" lon="9.231090602432932"><ele>310.5</ele><time>2026-04-25T06:36:03Z</time></trkpt><trkpt lat="45.77726409010167" lon="9.231203996958739"><ele>309.0</ele><time>2026-04-25T06:36:04Z</time></trkpt><trkpt lat="45.77734371839105" lon="9.231321090277588"><ele>309.0</ele><time>2026-04-25T06:36:05Z</time></trkpt><trkpt lat="45.77742000960689" lon="9.231442846432335"><ele>309.0</ele><time>2026-04-25T06:36:06Z</time></trkpt><trkpt lat="45.77749159452113" lon="9.231572276354285"><ele>309.0</ele><time>2026-04-25T06:36:07Z</time></trkpt><trkpt lat="45.777560996029074" lon="9.23170615440475"><ele>309.0</ele><time>2026-04-25T06:36:08Z</time></trkpt><trkpt lat="45.77762617622537" lon="9.231843744334247"><ele>308.4</ele><time>2026-04-25T06:36:09Z</time></trkpt><trkpt lat="45.77768980535963" lon="9.231976091417106"><ele>307.79999999999995</ele><time>2026-04-25T06:36:10Z</time></trkpt><trkpt lat="45.77774760309044" lon="9.232112232106129"><ele>307.20000000000005</ele><time>2026-04-25T06:36:11Z</time></trkpt><trkpt lat="45.77780066524005" lon="9.232245238366733"><ele>306.6</ele><time>2026-04-25T06:36:12Z</time></trkpt><trkpt lat="45.7778521646226" lon="9.232380634490102"><ele>306.0</ele><time>2026-04-25T06:36:13Z</time></trkpt><trkpt lat="45.77790227003837" lon="9.232515919058926"><ele>305.2</ele><time>2026-04-25T06:36:14Z</time></trkpt><trkpt lat="45.77794743484054" lon="9.232649109273774"><ele>304.40000000000003</ele><time>2026-04-25T06:36:15Z</time></trkpt><trkpt lat="45.77798571371297" lon="9.232781662504568"><ele>303.6</ele><time>2026-04-25T06:36:16Z</time></trkpt><trkpt lat="45.778021733460875" lon="9.232913783038109"><ele>302.8</ele><time>2026-04-25T06:36:17Z</time></trkpt><trkpt lat="45.77805960258348" lon="9.233040310255584"><ele>302.0</ele><time>2026-04-25T06:36:18Z</time></trkpt><trkpt lat="45.77810204040866" lon="9.233162489452612"><ele>301.6</ele><time>2026-04-25T06:36:19Z</time></trkpt><trkpt lat="45.77815088947845" lon="9.233276971888396"><ele>301.2</ele><time>2026-04-25T06:36:20Z</time></trkpt><trkpt lat="45.778203791709004" lon="9.233393716054872"><ele>300.8</ele><time>2026-04-25T06:36:21Z</time></trkpt><trkpt lat="45.77825697159561" lon="9.233513515400702"><ele>300.4</ele><time>2026-04-25T06:36:22Z</time></trkpt><trkpt lat="45.77831469965123" lon="9.233632882705114"><ele>300.0</ele><time>2026-04-25T06:36:23Z</time></trkpt><trkpt lat="45.77837102600796" lon="9.233756180150841"><ele>300.0</ele><time>2026-04-25T06:36:24Z</time></trkpt><trkpt lat="45.7784274328474" lon="9.233880446361473"><ele>300.0</ele><time>2026-04-25T06:36:25Z</time></trkpt><trkpt lat="45.77848486490417" lon="9.234007478995249"><ele>300.0</ele><time>2026-04-25T06:36:26Z</time></trkpt><trkpt lat="45.778544681816115" lon="9.234132495302843"><ele>300.0</ele><time>2026-04-25T06:36:27Z</time></trkpt><trkpt lat="45.77860475954457" lon="9.234257786316942"><ele>300.0</ele><time>2026-04-25T06:36:28Z</time></trkpt><trkpt lat="45.77866942211634" lon="9.23438476006724"><ele>299.4</ele><time>2026-04-25T06:36:29Z</time></trkpt><trkpt lat="45.77873165425045" lon="9.234511512315951"><ele>298.8</ele><time>2026-04-25T06:36:30Z</time></trkpt><trkpt lat="45.778792216207805" lon="9.234638779271137"><ele>298.2</ele><time>2026-04-25T06:36:31Z</time></trkpt><trkpt lat="45.778850086516044" lon="9.234766301254465"><ele>297.6</ele><time>2026-04-25T06:36:32Z</time></trkpt><trkpt lat="45.77890705138985" lon="9.234894113857845"><ele>297.0</ele><time>2026-04-25T06:36:33Z</time></trkpt><trkpt lat="45.778966082758835" lon="9.235022007493221"><ele>297.0</ele><time>2026-04-25T06:36:34Z</time></trkpt><trkpt lat="45.77902704934785" lon="9.235147473378372"><ele>297.0</ele><time>2026-04-25T06:36:35Z</time></trkpt><trkpt lat="45.7790870772272" lon="9.23527603363616"><ele>297.0</ele><time>2026-04-25T06:36:36Z</time></trkpt><trkpt lat="45.77914556922708" lon="9.235405111974982"><ele>297.0</ele><time>2026-04-25T06:36:37Z</time></trkpt><trkpt lat="45.77920723906488" lon="9.235533615439726"><ele>297.0</ele><time>2026-04-25T06:36:38Z</time></trkpt><trkpt lat="45.77926966902712" lon="9.235663709099459"><ele>297.0</ele><time>2026-04-25T06:36:39Z</time></trkpt><trkpt lat="45.77933492818794" lon="9.23579304598525"><ele>297.0</ele><time>2026-04-25T06:36:40Z</time></trkpt><trkpt lat="45.77940561127427" lon="9.235921528781237"><ele>297.0</ele><time>2026-04-25T06:36:41Z</time></trkpt><trkpt lat="45.779478109676894" lon="9.236047415778804"><ele>297.0</ele><time>2026-04-25T06:36:42Z</time></trkpt><trkpt lat="45.77955418117381" lon="9.236168490483415"><ele>293.75</ele><time>2026-04-25T06:36:43Z</time></trkpt><trkpt lat="45.779638258052564" lon="9.236283192526349"><ele>290.5</ele><time>2026-04-25T06:36:44Z</time></trkpt><trkpt lat="45.77972780779585" lon="9.236388428088004"><ele>287.25</ele><time>2026-04-25T06:36:45Z</time></trkpt><trkpt lat="45.77981908106946" lon="9.236492442948371"><ele>284.0</ele><time>2026-04-25T06:36:46Z</time></trkpt><trkpt lat="45.77991141801155" lon="9.236595264840407"><ele>283.75</ele><time>2026-04-25T06:36:47Z</time></trkpt><trkpt lat="45.78000767176959" lon="9.236695442402628"><ele>283.5</ele><time>2026-04-25T06:36:48Z</time></trkpt><trkpt lat="45.7801054470876" lon="9.236792033346713"><ele>283.25</ele><time>2026-04-25T06:36:49Z</time></trkpt><trkpt lat="45.78020935559877" lon="9.23688304483876"><ele>283.0</ele><time>2026-04-25T06:36:50Z</time></trkpt><trkpt lat="45.78031798634368" lon="9.236971472945786"><ele>283.0</ele><time>2026-04-25T06:36:51Z</time></trkpt><trkpt lat="45.78043082273625" lon="9.237055446271372"><ele>283.0</ele><time>2026-04-25T06:36:52Z</time></trkpt><trkpt lat="45.78054645998597" lon="9.23713223503742"><ele>283.0</ele><time>2026-04-25T06:36:53Z</time></trkpt><trkpt lat="45.78066498587105" lon="9.237202229623634"><ele>283.0</ele><time>2026-04-25T06:36:54Z</time></trkpt><trkpt lat="45.780782970732936" lon="9.237266780744072"><ele>282.5</ele><time>2026-04-25T06:36:55Z</time></trkpt><trkpt lat="45.780900700463974" lon="9.237330084741068"><ele>282.0</ele><time>2026-04-25T06:36:56Z</time></trkpt><trkpt lat="45.7810169142674" lon="9.23739406448675"><ele>281.5</ele><time>2026-04-25T06:36:57Z</time></trkpt><trkpt lat="45.78113257777533" lon="9.237459681947344"><ele>281.0</ele><time>2026-04-25T06:36:58Z</time></trkpt><trkpt lat="45.78124459561814" lon="9.237525117053575"><ele>281.0</ele><time>2026-04-25T06:36:59Z</time></trkpt><trkpt lat="45.78135818380995" lon="9.237587078047095"><ele>281.0</ele><time>2026-04-25T06:37:00Z</time></trkpt><trkpt lat="45.78147290504002" lon="9.23764630943469"><ele>281.0</ele><time>2026-04-25T06:37:01Z</time></trkpt><trkpt lat="45.78158530744831" lon="9.237712677208641"><ele>281.0</ele><time>2026-04-25T06:37:02Z</time></trkpt><trkpt lat="45.781697872381145" lon="9.23777582384592"><ele>281.0</ele><time>2026-04-25T06:37:03Z</time></trkpt><trkpt lat="45.781811306913" lon="9.23783893961614"><ele>281.0</ele><time>2026-04-25T06:37:04Z</time></trkpt><trkpt lat="45.78192195608272" lon="9.237901410074139"><ele>281.0</ele><time>2026-04-25T06:37:05Z</time></trkpt><trkpt lat="45.78203522438799" lon="9.237957302938982"><ele>281.0</ele><time>2026-04-25T06:37:06Z</time></trkpt><trkpt lat="45.782141022120655" lon="9.238016967252037"><ele>281.0</ele><time>2026-04-25T06:37:07Z</time></trkpt><trkpt lat="45.78224829027325" lon="9.238074851446399"><ele>281.0</ele><time>2026-04-25T06:37:08Z</time></trkpt><trkpt lat="45.782355097031946" lon="9.238133544672854"><ele>281.0</ele><time>2026-04-25T06:37:09Z</time></trkpt><trkpt lat="45.7824620687052" lon="9.238190756315566"><ele>281.0</ele><time>2026-04-25T06:37:10Z</time></trkpt><trkpt lat="45.7825681357758" lon="9.23825120305987"><ele>281.0</ele><time>2026-04-25T06:37:11Z</time></trkpt><trkpt lat="45.78267671668695" lon="9.238308240691353"><ele>281.0</ele><time>2026-04-25T06:37:12Z</time></trkpt><trkpt lat="45.78278503735853" lon="9.238366760281018"><ele>281.0</ele><time>2026-04-25T06:37:13Z</time></trkpt><trkpt lat="45.782891605977674" lon="9.238423054253026"><ele>281.0</ele><time>2026-04-25T06:37:14Z</time></trkpt><trkpt lat="45.78300227771785" lon="9.23848620401827"><ele>281.0</ele><time>2026-04-25T06:37:15Z</time></trkpt><trkpt lat="45.78311362334342" lon="9.238546764531197"><ele>281.0</ele><time>2026-04-25T06:37:16Z</time></trkpt><trkpt lat="45.78322273471461" lon="9.23861061241913"><ele>281.0</ele><time>2026-04-25T06:37:17Z</time></trkpt><trkpt lat="45.78333475209266" lon="9.238671813400467"><ele>281.0</ele><time>2026-04-25T06:37:18Z</time></trkpt><trkpt lat="45.783445792742086" lon="9.238731793315017"><ele>281.0</ele><time>2026-04-25T06:37:19Z</time></trkpt><trkpt lat="45.78355865631222" lon="9.238794366041207"><ele>281.0</ele><time>2026-04-25T06:37:20Z</time></trkpt><trkpt lat="45.78366779293294" lon="9.238862484086109"><ele>281.0</ele><time>2026-04-25T06:37:21Z</time></trkpt><trkpt lat="45.78377932274577" lon="9.238939348901805"><ele>281.0</ele><time>2026-04-25T06:37:22Z</time></trkpt><trkpt lat="45.783887162816455" lon="9.239016636240407"><ele>281.0</ele><time>2026-04-25T06:37:23Z</time></trkpt><trkpt lat="45.78399498526066" lon="9.239098464066823"><ele>281.0</ele><time>2026-04-25T06:37:24Z</time></trkpt><trkpt lat="45.78410087823759" lon="9.239183807204443"><ele>281.0</ele><time>2026-04-25T06:37:25Z</time></trkpt><trkpt lat="45.7842022078227" lon="9.239268901622097"><ele>281.0</ele><time>2026-04-25T06:37:26Z</time></trkpt><trkpt lat="45.784298862230024" lon="9.239356089329787"><ele>280.0</ele><time>2026-04-25T06:37:27Z</time></trkpt><trkpt lat="45.784389702700274" lon="9.239446549075275"><ele>279.0</ele><time>2026-04-25T06:37:28Z</time></trkpt><trkpt lat="45.78447681994236" lon="9.239539395342799"><ele>278.0</ele><time>2026-04-25T06:37:29Z</time></trkpt><trkpt lat="45.78456130458798" lon="9.239629093033734"><ele>277.0</ele><time>2026-04-25T06:37:30Z</time></trkpt><trkpt lat="45.784639577806544" lon="9.2397265858416"><ele>276.0</ele><time>2026-04-25T06:37:31Z</time></trkpt><trkpt lat="45.78471537210566" lon="9.239829349844722"><ele>275.8</ele><time>2026-04-25T06:37:32Z</time></trkpt><trkpt lat="45.78479223261226" lon="9.239931710728275"><ele>275.6</ele><time>2026-04-25T06:37:33Z</time></trkpt><trkpt lat="45.78487126378785" lon="9.240031333788544"><ele>275.4</ele><time>2026-04-25T06:37:34Z</time></trkpt><trkpt lat="45.78495147742853" lon="9.24012691785637"><ele>275.2</ele><time>2026-04-25T06:37:35Z</time></trkpt><trkpt lat="45.78503146724528" lon="9.240221945835804"><ele>275.0</ele><time>2026-04-25T06:37:36Z</time></trkpt><trkpt lat="45.785108885109985" lon="9.240318050104248"><ele>273.6</ele><time>2026-04-25T06:37:37Z</time></trkpt><trkpt lat="45.785184633209845" lon="9.240410477827382"><ele>272.2</ele><time>2026-04-25T06:37:38Z</time></trkpt><trkpt lat="45.78525669189859" lon="9.24050267569843"><ele>270.8</ele><time>2026-04-25T06:37:39Z</time></trkpt><trkpt lat="45.78532646175987" lon="9.240596497174986"><ele>269.4</ele><time>2026-04-25T06:37:40Z</time></trkpt><trkpt lat="45.78539481004566" lon="9.240694050294222"><ele>268.0</ele><time>2026-04-25T06:37:41Z</time></trkpt><trkpt lat="45.78546533787552" lon="9.240791451411367"><ele>267.8</ele><time>2026-04-25T06:37:42Z</time></trkpt><trkpt lat="45.7855348764777" lon="9.240887472820729"><ele>267.6</ele><time>2026-04-25T06:37:43Z</time></trkpt><trkpt lat="45.78560546666407" lon="9.240982935413172"><ele>267.4</ele><time>2026-04-25T06:37:44Z</time></trkpt><trkpt lat="45.78567652080691" lon="9.241073176464775"><ele>267.2</ele><time>2026-04-25T06:37:45Z</time></trkpt><trkpt lat="45.78574840122838" lon="9.241166855953127"><ele>267.0</ele><time>2026-04-25T06:37:46Z</time></trkpt><trkpt lat="45.785819716992286" lon="9.241261429062153"><ele>267.0</ele><time>2026-04-25T06:37:47Z</time></trkpt><trkpt lat="45.785891553514574" lon="9.241355224608533"><ele>267.0</ele><time>2026-04-25T06:37:47.999Z</time></trkpt><trkpt lat="45.7859616255362" lon="9.241451193017141"><ele>267.0</ele><time>2026-04-25T06:37:48.999Z</time></trkpt><trkpt lat="45.78603408180205" lon="9.241545348690106"><ele>267.0</ele><time>2026-04-25T06:37:49.999Z</time></trkpt><trkpt lat="45.78611167043783" lon="9.241633062184912"><ele>267.0</ele><time>2026-04-25T06:37:50.999Z</time></trkpt><trkpt lat="45.78619178409102" lon="9.241717788644433"><ele>266.2</ele><time>2026-04-25T06:37:51.999Z</time></trkpt><trkpt lat="45.78627572515171" lon="9.241796206954808"><ele>265.4</ele><time>2026-04-25T06:37:52.999Z</time></trkpt><trkpt lat="45.78636132487778" lon="9.24187256289133"><ele>264.6</ele><time>2026-04-25T06:37:53.999Z</time></trkpt><trkpt lat="45.78644914707077" lon="9.24194644962033"><ele>263.8</ele><time>2026-04-25T06:37:54.999Z</time></trkpt><trkpt lat="45.786539300514185" lon="9.242013124996946"><ele>263.0</ele><time>2026-04-25T06:37:55.999Z</time></trkpt><trkpt lat="45.78663151342493" lon="9.242074549993903"><ele>263.0</ele><time>2026-04-25T06:37:56.999Z</time></trkpt><trkpt lat="45.7867260822668" lon="9.242131561661704"><ele>263.0</ele><time>2026-04-25T06:37:57.999Z</time></trkpt><trkpt lat="45.786821270112206" lon="9.242183579556652"><ele>263.0</ele><time>2026-04-25T06:37:58.999Z</time></trkpt><trkpt lat="45.78691635175802" lon="9.242232136703224"><ele>263.0</ele><time>2026-04-25T06:37:59.999Z</time></trkpt><trkpt lat="45.78701537550201" lon="9.242276076403451"><ele>263.0</ele><time>2026-04-25T06:38:00.999Z</time></trkpt><trkpt lat="45.78711354675017" lon="9.242316981787226"><ele>262.8</ele><time>2026-04-25T06:38:01.999Z</time></trkpt><trkpt lat="45.787213541925446" lon="9.24235475550705"><ele>262.6</ele><time>2026-04-25T06:38:02.999Z</time></trkpt><trkpt lat="45.78731187923673" lon="9.242392371232977"><ele>262.4</ele><time>2026-04-25T06:38:03.999Z</time></trkpt><trkpt lat="45.787413678667534" lon="9.24243256532962"><ele>262.2</ele><time>2026-04-25T06:38:04.999Z</time></trkpt><trkpt lat="45.78752025249921" lon="9.242471845537233"><ele>262.0</ele><time>2026-04-25T06:38:05.999Z</time></trkpt><trkpt lat="45.78762856465488" lon="9.242512612631366"><ele>262.0</ele><time>2026-04-25T06:38:06.999Z</time></trkpt><trkpt lat="45.78774159368337" lon="9.24255256301811"><ele>262.0</ele><time>2026-04-25T06:38:08Z</time></trkpt><trkpt lat="45.78785532485643" lon="9.242590262191936"><ele>262.0</ele><time>2026-04-25T06:38:09Z</time></trkpt><trkpt lat="45.78796928531815" lon="9.242632165981723"><ele>262.0</ele><time>2026-04-25T06:38:10Z</time></trkpt><trkpt lat="45.7880812747938" lon="9.242674926247867"><ele>262.0</ele><time>2026-04-25T06:38:11Z</time></trkpt><trkpt lat="45.78818981442798" lon="9.242716787559146"><ele>262.0</ele><time>2026-04-25T06:38:12Z</time></trkpt><trkpt lat="45.78829644537235" lon="9.242758727008155"><ele>262.0</ele><time>2026-04-25T06:38:13Z</time></trkpt><trkpt lat="45.78840450663715" lon="9.242799778864756"><ele>262.0</ele><time>2026-04-25T06:38:14Z</time></trkpt><trkpt lat="45.78851458862338" lon="9.242839973784568"><ele>262.0</ele><time>2026-04-25T06:38:15Z</time></trkpt><trkpt lat="45.788624870611734" lon="9.242878564488457"><ele>262.0</ele><time>2026-04-25T06:38:16Z</time></trkpt><trkpt lat="45.788734550622905" lon="9.24292374528965"><ele>262.0</ele><time>2026-04-25T06:38:17Z</time></trkpt><trkpt lat="45.78884448986718" lon="9.242967983789113"><ele>262.0</ele><time>2026-04-25T06:38:18Z</time></trkpt><trkpt lat="45.78895253030763" lon="9.243008285109774"><ele>262.0</ele><time>2026-04-25T06:38:19Z</time></trkpt><trkpt lat="45.78905698638305" lon="9.243046296402106"><ele>262.0</ele><time>2026-04-25T06:38:20Z</time></trkpt><trkpt lat="45.78916036875289" lon="9.243081255627269"><ele>262.0</ele><time>2026-04-25T06:38:21Z</time></trkpt><trkpt lat="45.789262478592065" lon="9.243110424841165"><ele>262.0</ele><time>2026-04-25T06:38:22Z</time></trkpt><trkpt lat="45.78936455877436" lon="9.243141997620747"><ele>262.0</ele><time>2026-04-25T06:38:23Z</time></trkpt><trkpt lat="45.78946764141616" lon="9.243177229072206"><ele>262.0</ele><time>2026-04-25T06:38:24Z</time></trkpt><trkpt lat="45.78956728876896" lon="9.243211477847725"><ele>262.0</ele><time>2026-04-25T06:38:25Z</time></trkpt><trkpt lat="45.789662891524195" lon="9.243246305464767"><ele>261.6</ele><time>2026-04-25T06:38:26Z</time></trkpt><trkpt lat="45.78975841580149" lon="9.243276327793158"><ele>261.2</ele><time>2026-04-25T06:38:27Z</time></trkpt><trkpt lat="45.78985296722778" lon="9.243307938490027"><ele>260.8</ele><time>2026-04-25T06:38:28Z</time></trkpt><trkpt lat="45.78994648391608" lon="9.243345561977174"><ele>260.4</ele><time>2026-04-25T06:38:29Z</time></trkpt><trkpt lat="45.7900432350857" lon="9.243384762390377"><ele>260.0</ele><time>2026-04-25T06:38:30Z</time></trkpt><trkpt lat="45.790143467059345" lon="9.243423530088172"><ele>259.6</ele><time>2026-04-25T06:38:31Z</time></trkpt><trkpt lat="45.79024536094875" lon="9.243462874111206"><ele>259.2</ele><time>2026-04-25T06:38:32Z</time></trkpt><trkpt lat="45.79034665261138" lon="9.243501678141989"><ele>258.8</ele><time>2026-04-25T06:38:33Z</time></trkpt><trkpt lat="45.790448216557245" lon="9.243541789415676"><ele>258.4</ele><time>2026-04-25T06:38:34Z</time></trkpt><trkpt lat="45.790548836672606" lon="9.243584182612626"><ele>258.0</ele><time>2026-04-25T06:38:35Z</time></trkpt><trkpt lat="45.79065021917129" lon="9.243629694128096"><ele>258.0</ele><time>2026-04-25T06:38:36Z</time></trkpt><trkpt lat="45.79075085894313" lon="9.243670494472049"><ele>258.0</ele><time>2026-04-25T06:38:37Z</time></trkpt><trkpt lat="45.790850473642614" lon="9.243702353187835"><ele>258.0</ele><time>2026-04-25T06:38:38Z</time></trkpt><trkpt lat="45.79094748281437" lon="9.243733443099172"><ele>258.0</ele><time>2026-04-25T06:38:39Z</time></trkpt><trkpt lat="45.791037997223256" lon="9.24376633075024"><ele>258.0</ele><time>2026-04-25T06:38:40Z</time></trkpt><trkpt lat="45.79112894479678" lon="9.24379081975957"><ele>258.6</ele><time>2026-04-25T06:38:41Z</time></trkpt><trkpt lat="45.791220774410334" lon="9.243815387667246"><ele>259.20000000000005</ele><time>2026-04-25T06:38:42Z</time></trkpt><trkpt lat="45.791313126697794" lon="9.243835022844374"><ele>259.8</ele><time>2026-04-25T06:38:43Z</time></trkpt><trkpt lat="45.79140577989342" lon="9.243849162364164"><ele>260.40000000000003</ele><time>2026-04-25T06:38:44Z</time></trkpt><trkpt lat="45.79149865602329" lon="9.243857257549317"><ele>261.0</ele><time>2026-04-25T06:38:45Z</time></trkpt><trkpt lat="45.791592707488306" lon="9.24385086350485"><ele>261.0</ele><time>2026-04-25T06:38:46Z</time></trkpt><trkpt lat="45.791686472350364" lon="9.243842979263636"><ele>261.0</ele><time>2026-04-25T06:38:47Z</time></trkpt><trkpt lat="45.791779816691246" lon="9.243829413438997"><ele>261.0</ele><time>2026-04-25T06:38:48Z</time></trkpt><trkpt lat="45.791871404886486" lon="9.24380671968216"><ele>261.0</ele><time>2026-04-25T06:38:49Z</time></trkpt><trkpt lat="45.79196030905339" lon="9.243778562939339"><ele>261.0</ele><time>2026-04-25T06:38:50Z</time></trkpt><trkpt lat="45.79204846117857" lon="9.243746562285313"><ele>261.6</ele><time>2026-04-25T06:38:51Z</time></trkpt><trkpt lat="45.79213693003196" lon="9.243708563099775"><ele>262.20000000000005</ele><time>2026-04-25T06:38:52Z</time></trkpt><trkpt lat="45.79222456542015" lon="9.243666911179494"><ele>262.79999999999995</ele><time>2026-04-25T06:38:53Z</time></trkpt><trkpt lat="45.79231133827854" lon="9.243623778039137"><ele>263.4</ele><time>2026-04-25T06:38:54Z</time></trkpt><trkpt lat="45.79239400421114" lon="9.24356952279181"><ele>264.0</ele><time>2026-04-25T06:38:55Z</time></trkpt><trkpt lat="45.79247324787418" lon="9.243509833300749"><ele>264.0</ele><time>2026-04-25T06:38:56Z</time></trkpt><trkpt lat="45.79255228938471" lon="9.243451671308046"><ele>264.0</ele><time>2026-04-25T06:38:57Z</time></trkpt><trkpt lat="45.7926348143795" lon="9.24339433642175"><ele>264.0</ele><time>2026-04-25T06:38:58Z</time></trkpt><trkpt lat="45.79271870754432" lon="9.243342072887382"><ele>264.0</ele><time>2026-04-25T06:38:59Z</time></trkpt><trkpt lat="45.79280265193832" lon="9.243287076876175"><ele>264.0</ele><time>2026-04-25T06:39:00Z</time></trkpt><trkpt lat="45.792884849392706" lon="9.24322815445573"><ele>263.8</ele><time>2026-04-25T06:39:01Z</time></trkpt><trkpt lat="45.79296765313058" lon="9.243171782251682"><ele>263.59999999999997</ele><time>2026-04-25T06:39:02Z</time></trkpt><trkpt lat="45.79305265461893" lon="9.243116778656395"><ele>263.4</ele><time>2026-04-25T06:39:03Z</time></trkpt><trkpt lat="45.79313718641519" lon="9.243061300282397"><ele>263.2</ele><time>2026-04-25T06:39:04Z</time></trkpt><trkpt lat="45.79321924323436" lon="9.242998828763843"><ele>263.0</ele><time>2026-04-25T06:39:05Z</time></trkpt><trkpt lat="45.79330240284706" lon="9.24294162009197"><ele>263.0</ele><time>2026-04-25T06:39:06Z</time></trkpt><trkpt lat="45.79338515629259" lon="9.242886438443112"><ele>263.0</ele><time>2026-04-25T06:39:07Z</time></trkpt><trkpt lat="45.793466740174985" lon="9.242832113626303"><ele>263.0</ele><time>2026-04-25T06:39:08Z</time></trkpt><trkpt lat="45.79355002246211" lon="9.242775661772063"><ele>263.0</ele><time>2026-04-25T06:39:09Z</time></trkpt><trkpt lat="45.793632930744906" lon="9.242715990725346"><ele>263.0</ele><time>2026-04-25T06:39:10Z</time></trkpt><trkpt lat="45.793714729042506" lon="9.242661546142301"><ele>262.83333333333337</ele><time>2026-04-25T06:39:11Z</time></trkpt><trkpt lat="45.79379398388766" lon="9.242609483404184"><ele>262.6666666666667</ele><time>2026-04-25T06:39:12Z</time></trkpt><trkpt lat="45.79387330162722" lon="9.24255583137462"><ele>262.5</ele><time>2026-04-25T06:39:13Z</time></trkpt><trkpt lat="45.79395307126044" lon="9.242501539112872"><ele>262.3333333333333</ele><time>2026-04-25T06:39:14Z</time></trkpt><trkpt lat="45.794034761215485" lon="9.24244453982878"><ele>262.16666666666663</ele><time>2026-04-25T06:39:15Z</time></trkpt><trkpt lat="45.79411638234092" lon="9.242389169504195"><ele>262.0</ele><time>2026-04-25T06:39:16Z</time></trkpt><trkpt lat="45.79419532121951" lon="9.242335231642704"><ele>262.16666666666663</ele><time>2026-04-25T06:39:17Z</time></trkpt><trkpt lat="45.79427206523959" lon="9.242280224932856"><ele>262.3333333333333</ele><time>2026-04-25T06:39:18Z</time></trkpt><trkpt lat="45.79435184264081" lon="9.242227245959075"><ele>262.5</ele><time>2026-04-25T06:39:19Z</time></trkpt><trkpt lat="45.79442941669336" lon="9.242173092114928"><ele>262.6666666666667</ele><time>2026-04-25T06:39:20Z</time></trkpt><trkpt lat="45.79450573371684" lon="9.242120575758355"><ele>262.83333333333337</ele><time>2026-04-25T06:39:21Z</time></trkpt><trkpt lat="45.79458240196988" lon="9.242067915279588"><ele>263.0</ele><time>2026-04-25T06:39:22Z</time></trkpt><trkpt lat="45.79466079907756" lon="9.24201483204751"><ele>263.1666666666667</ele><time>2026-04-25T06:39:23Z</time></trkpt><trkpt lat="45.79473929205083" lon="9.241960407807117"><ele>263.33333333333337</ele><time>2026-04-25T06:39:24Z</time></trkpt><trkpt lat="45.79481551375904" lon="9.241910601502058"><ele>263.5</ele><time>2026-04-25T06:39:25Z</time></trkpt><trkpt lat="45.79489048134544" lon="9.241861829329567"><ele>263.6666666666667</ele><time>2026-04-25T06:39:26Z</time></trkpt><trkpt lat="45.79496704647487" lon="9.241811623646226"><ele>263.8333333333333</ele><time>2026-04-25T06:39:27Z</time></trkpt><trkpt lat="45.79504583939278" lon="9.241763588884709"><ele>264.0</ele><time>2026-04-25T06:39:28Z</time></trkpt><trkpt lat="45.79512583609932" lon="9.241718270057284"><ele>264.0</ele><time>2026-04-25T06:39:29Z</time></trkpt><trkpt lat="45.79520229334008" lon="9.24166724293743"><ele>264.0</ele><time>2026-04-25T06:39:30Z</time></trkpt><trkpt lat="45.795266005621265" lon="9.24160044435589"><ele>264.0</ele><time>2026-04-25T06:39:31Z</time></trkpt><trkpt lat="45.795321846635105" lon="9.241523378649932"><ele>264.0</ele><time>2026-04-25T06:39:32Z</time></trkpt><trkpt lat="45.795387113755694" lon="9.241473141265814"><ele>264.0</ele><time>2026-04-25T06:39:33Z</time></trkpt><trkpt lat="45.79546191108986" lon="9.24144187078042"><ele>264.0</ele><time>2026-04-25T06:39:34Z</time></trkpt><trkpt lat="45.795539484930856" lon="9.241414050258799"><ele>264.1428571428571</ele><time>2026-04-25T06:39:35Z</time></trkpt><trkpt lat="45.79561105803341" lon="9.24138197312367"><ele>264.2857142857143</ele><time>2026-04-25T06:39:36Z</time></trkpt><trkpt lat="45.79567773376658" lon="9.241345023136796"><ele>264.42857142857144</ele><time>2026-04-25T06:39:37Z</time></trkpt><trkpt lat="45.79574145314284" lon="9.241300424231657"><ele>264.57142857142856</ele><time>2026-04-25T06:39:38Z</time></trkpt><trkpt lat="45.79580308688434" lon="9.241233960111296"><ele>264.7142857142857</ele><time>2026-04-25T06:39:39Z</time></trkpt><trkpt lat="45.79586295851625" lon="9.241166024163881"><ele>264.85714285714283</ele><time>2026-04-25T06:39:40Z</time></trkpt><trkpt lat="45.79592878269167" lon="9.241104321745903"><ele>265.0</ele><time>2026-04-25T06:39:41Z</time></trkpt><trkpt lat="45.79600133889037" lon="9.241054627235673"><ele>265.16666666666663</ele><time>2026-04-25T06:39:42Z</time></trkpt><trkpt lat="45.796073911126236" lon="9.241007503440727"><ele>265.3333333333333</ele><time>2026-04-25T06:39:43Z</time></trkpt><trkpt lat="45.796144636619324" lon="9.24096180139161"><ele>265.5</ele><time>2026-04-25T06:39:44Z</time></trkpt><trkpt lat="45.7962150519581" lon="9.24091371947185"><ele>265.6666666666667</ele><time>2026-04-25T06:39:45Z</time></trkpt><trkpt lat="45.79628334295204" lon="9.240866083879844"><ele>265.83333333333337</ele><time>2026-04-25T06:39:46Z</time></trkpt><trkpt lat="45.796351853401994" lon="9.24081139567897"><ele>266.0</ele><time>2026-04-25T06:39:47Z</time></trkpt><trkpt lat="45.79642386114664" lon="9.2407565368174"><ele>266.0</ele><time>2026-04-25T06:39:48Z</time></trkpt><trkpt lat="45.79649899864068" lon="9.240705884256599"><ele>266.0</ele><time>2026-04-25T06:39:49Z</time></trkpt><trkpt lat="45.796575526775655" lon="9.240655627461905"><ele>266.0</ele><time>2026-04-25T06:39:50Z</time></trkpt><trkpt lat="45.79665181279986" lon="9.24060543600316"><ele>266.0</ele><time>2026-04-25T06:39:51Z</time></trkpt><trkpt lat="45.79672421622696" lon="9.240556919605964"><ele>266.0</ele><time>2026-04-25T06:39:52Z</time></trkpt><trkpt lat="45.79679652495559" lon="9.240509868394154"><ele>266.0</ele><time>2026-04-25T06:39:53Z</time></trkpt><trkpt lat="45.79686912125025" lon="9.240461162248726"><ele>266.1666666666667</ele><time>2026-04-25T06:39:54Z</time></trkpt><trkpt lat="45.79694093319341" lon="9.240415008828492"><ele>266.33333333333337</ele><time>2026-04-25T06:39:55Z</time></trkpt><trkpt lat="45.797012173692586" lon="9.240367317573464"><ele>266.5</ele><time>2026-04-25T06:39:56Z</time></trkpt><trkpt lat="45.797083840223785" lon="9.24031470672396"><ele>266.6666666666667</ele><time>2026-04-25T06:39:57Z</time></trkpt><trkpt lat="45.79715368640427" lon="9.240264346866857"><ele>266.8333333333333</ele><time>2026-04-25T06:39:58Z</time></trkpt><trkpt lat="45.79722115494795" lon="9.240218170454634"><ele>267.0</ele><time>2026-04-25T06:39:59Z</time></trkpt><trkpt lat="45.79728933708993" lon="9.240170006118268"><ele>267.0</ele><time>2026-04-25T06:40:00Z</time></trkpt><trkpt lat="45.79735984106387" lon="9.24012055542005"><ele>267.0</ele><time>2026-04-25T06:40:01Z</time></trkpt><trkpt lat="45.797432317713245" lon="9.240069010021102"><ele>267.0</ele><time>2026-04-25T06:40:02Z</time></trkpt><trkpt lat="45.7975039192138" lon="9.240016128521813"><ele>267.0</ele><time>2026-04-25T06:40:03Z</time></trkpt><trkpt lat="45.797577711159356" lon="9.239965858765585"><ele>267.0</ele><time>2026-04-25T06:40:04Z</time></trkpt><trkpt lat="45.79764972019202" lon="9.239917308081514"><ele>267.0</ele><time>2026-04-25T06:40:05Z</time></trkpt><trkpt lat="45.79772029029949" lon="9.239879001094508"><ele>267.0</ele><time>2026-04-25T06:40:06Z</time></trkpt><trkpt lat="45.79779308800447" lon="9.239845737313377"><ele>267.0</ele><time>2026-04-25T06:40:07Z</time></trkpt><trkpt lat="45.797867677918745" lon="9.239812360935149"><ele>267.0</ele><time>2026-04-25T06:40:08Z</time></trkpt><trkpt lat="45.79794041250505" lon="9.239769663713355"><ele>267.0</ele><time>2026-04-25T06:40:09Z</time></trkpt><trkpt lat="45.79801240343683" lon="9.23972586566088"><ele>267.0</ele><time>2026-04-25T06:40:10Z</time></trkpt><trkpt lat="45.79808184800416" lon="9.239682847148208"><ele>267.0</ele><time>2026-04-25T06:40:11Z</time></trkpt><trkpt lat="45.79814911102463" lon="9.239636227759165"><ele>267.0</ele><time>2026-04-25T06:40:11.999Z</time></trkpt><trkpt lat="45.79821477804791" lon="9.239585430641894"><ele>267.0</ele><time>2026-04-25T06:40:13.001Z</time></trkpt><trkpt lat="45.798280357165716" lon="9.239534465081089"><ele>267.0</ele><time>2026-04-25T06:40:14.001Z</time></trkpt><trkpt lat="45.798346473650696" lon="9.239485178199214"><ele>267.0</ele><time>2026-04-25T06:40:15.001Z</time></trkpt><trkpt lat="45.79840993477496" lon="9.239442077287551"><ele>267.0</ele><time>2026-04-25T06:40:16.001Z</time></trkpt><trkpt lat="45.798470658058136" lon="9.239405974120025"><ele>267.0</ele><time>2026-04-25T06:40:17.001Z</time></trkpt><trkpt lat="45.79858991171671" lon="9.239332566911495"><ele>267.42857142857144</ele><time>2026-04-25T06:40:19.001Z</time></trkpt><trkpt lat="45.798660672447426" lon="9.239296889191621"><ele>267.8571428571429</ele><time>2026-04-25T06:40:20.001Z</time></trkpt><trkpt lat="45.79872883560683" lon="9.239256772491624"><ele>268.2857142857143</ele><time>2026-04-25T06:40:21.001Z</time></trkpt><trkpt lat="45.7987958489224" lon="9.239206833815786"><ele>268.7142857142857</ele><time>2026-04-25T06:40:22.001Z</time></trkpt><trkpt lat="45.798857296639376" lon="9.23915356665444"><ele>269.1428571428571</ele><time>2026-04-25T06:40:23.001Z</time></trkpt><trkpt lat="45.79892005496466" lon="9.239099483776332"><ele>269.57142857142856</ele><time>2026-04-25T06:40:24.001Z</time></trkpt><trkpt lat="45.79898642687766" lon="9.239053087003263"><ele>270.0</ele><time>2026-04-25T06:40:25.001Z</time></trkpt><trkpt lat="45.7990540754702" lon="9.239009960401471"><ele>270.0</ele><time>2026-04-25T06:40:26.001Z</time></trkpt><trkpt lat="45.79912034441523" lon="9.238965064856881"><ele>270.0</ele><time>2026-04-25T06:40:27.001Z</time></trkpt><trkpt lat="45.799189545392004" lon="9.238923714121968"><ele>270.0</ele><time>2026-04-25T06:40:28.001Z</time></trkpt><trkpt lat="45.7992547617046" lon="9.23887422221944"><ele>270.0</ele><time>2026-04-25T06:40:29.001Z</time></trkpt><trkpt lat="45.799322032379756" lon="9.238824615796483"><ele>270.0</ele><time>2026-04-25T06:40:30.001Z</time></trkpt><trkpt lat="45.799389139980626" lon="9.238776555774608"><ele>270.0</ele><time>2026-04-25T06:40:31.001Z</time></trkpt><trkpt lat="45.799453556505334" lon="9.23873106147543"><ele>270.0</ele><time>2026-04-25T06:40:32.001Z</time></trkpt><trkpt lat="45.79951367303429" lon="9.238690687554438"><ele>270.0</ele><time>2026-04-25T06:40:33.001Z</time></trkpt><trkpt lat="45.799576521811986" lon="9.238649549849962"><ele>270.0</ele><time>2026-04-25T06:40:34.001Z</time></trkpt><trkpt lat="45.799640171906994" lon="9.238604945387644"><ele>270.0</ele><time>2026-04-25T06:40:35Z</time></trkpt><trkpt lat="45.799705327532976" lon="9.23856119069348"><ele>270.0</ele><time>2026-04-25T06:40:36Z</time></trkpt><trkpt lat="45.79977099892534" lon="9.238516015047567"><ele>270.0</ele><time>2026-04-25T06:40:37Z</time></trkpt><trkpt lat="45.79983741823558" lon="9.238470610666722"><ele>270.0</ele><time>2026-04-25T06:40:38Z</time></trkpt><trkpt lat="45.7999041825464" lon="9.238426295792546"><ele>270.0</ele><time>2026-04-25T06:40:39Z</time></trkpt><trkpt lat="45.79997105032173" lon="9.238382844999288"><ele>270.0</ele><time>2026-04-25T06:40:40Z</time></trkpt><trkpt lat="45.80003691562572" lon="9.23833956300969"><ele>270.0</ele><time>2026-04-25T06:40:41Z</time></trkpt><trkpt lat="45.80010363458982" lon="9.238292808969366"><ele>270.0</ele><time>2026-04-25T06:40:42Z</time></trkpt><trkpt lat="45.8001683946683" lon="9.238251553976161"><ele>270.0</ele><time>2026-04-25T06:40:43Z</time></trkpt><trkpt lat="45.80022988754015" lon="9.238205222391752"><ele>270.0</ele><time>2026-04-25T06:40:44Z</time></trkpt><trkpt lat="45.80029331193233" lon="9.238159257187744"><ele>270.0</ele><time>2026-04-25T06:40:45Z</time></trkpt><trkpt lat="45.80035996392731" lon="9.238112898046323"><ele>270.0</ele><time>2026-04-25T06:40:46Z</time></trkpt><trkpt lat="45.80042562092097" lon="9.238067496884282"><ele>270.1428571428571</ele><time>2026-04-25T06:40:47Z</time></trkpt><trkpt lat="45.80049232834278" lon="9.238020856608626"><ele>270.2857142857143</ele><time>2026-04-25T06:40:48Z</time></trkpt><trkpt lat="45.80056062318498" lon="9.237974248223296"><ele>270.42857142857144</ele><time>2026-04-25T06:40:49Z</time></trkpt><trkpt lat="45.80062905159698" lon="9.237931573966653"><ele>270.57142857142856</ele><time>2026-04-25T06:40:50Z</time></trkpt><trkpt lat="45.80069580838728" lon="9.237886007986447"><ele>270.7142857142857</ele><time>2026-04-25T06:40:51Z</time></trkpt><trkpt lat="45.80076120135564" lon="9.237834134892578"><ele>270.85714285714283</ele><time>2026-04-25T06:40:52Z</time></trkpt><trkpt lat="45.80082713356888" lon="9.237782022356125"><ele>271.0</ele><time>2026-04-25T06:40:53Z</time></trkpt><trkpt lat="45.80089194780081" lon="9.237734030385601"><ele>271.0</ele><time>2026-04-25T06:40:54Z</time></trkpt><trkpt lat="45.80095969523512" lon="9.237689721901324"><ele>271.0</ele><time>2026-04-25T06:40:55Z</time></trkpt><trkpt lat="45.801023935299725" lon="9.23765225128296"><ele>271.0</ele><time>2026-04-25T06:40:56Z</time></trkpt><trkpt lat="45.80108481214321" lon="9.237612039351596"><ele>271.0</ele><time>2026-04-25T06:40:57Z</time></trkpt><trkpt lat="45.801142653728526" lon="9.237561451882762"><ele>271.0</ele><time>2026-04-25T06:40:58Z</time></trkpt><trkpt lat="45.80120169193024" lon="9.23750291083834"><ele>271.0</ele><time>2026-04-25T06:40:59Z</time></trkpt><trkpt lat="45.801264198923725" lon="9.237445018343818"><ele>271.0</ele><time>2026-04-25T06:41:00Z</time></trkpt><trkpt lat="45.80132831225508" lon="9.237392135281363"><ele>271.0</ele><time>2026-04-25T06:41:01Z</time></trkpt><trkpt lat="45.80139773243432" lon="9.237347575318351"><ele>271.0</ele><time>2026-04-25T06:41:02Z</time></trkpt><trkpt lat="45.801468100253416" lon="9.237303663757084"><ele>271.0</ele><time>2026-04-25T06:41:03Z</time></trkpt><trkpt lat="45.801539754995964" lon="9.23725913077594"><ele>271.0</ele><time>2026-04-25T06:41:04Z</time></trkpt><trkpt lat="45.801607496793395" lon="9.237209043315348"><ele>271.0</ele><time>2026-04-25T06:41:05Z</time></trkpt><trkpt lat="45.80167132757841" lon="9.237165862174042"><ele>271.0</ele><time>2026-04-25T06:41:06Z</time></trkpt><trkpt lat="45.80173593183773" lon="9.237128917588567"><ele>271.0</ele><time>2026-04-25T06:41:07Z</time></trkpt><trkpt lat="45.80180235153948" lon="9.237096096882505"><ele>271.1428571428571</ele><time>2026-04-25T06:41:08Z</time></trkpt><trkpt lat="45.801870332177614" lon="9.23706255920643"><ele>271.2857142857143</ele><time>2026-04-25T06:41:09Z</time></trkpt><trkpt lat="45.80193905087192" lon="9.237030777471023"><ele>271.42857142857144</ele><time>2026-04-25T06:41:10Z</time></trkpt><trkpt lat="45.802004631876144" lon="9.237004268198609"><ele>271.57142857142856</ele><time>2026-04-25T06:41:11Z</time></trkpt><trkpt lat="45.80206936992824" lon="9.23698449561624"><ele>271.7142857142857</ele><time>2026-04-25T06:41:12Z</time></trkpt><trkpt lat="45.80213135616716" lon="9.236962277208594"><ele>271.85714285714283</ele><time>2026-04-25T06:41:13Z</time></trkpt><trkpt lat="45.80218986425384" lon="9.236919089084362"><ele>272.0</ele><time>2026-04-25T06:41:14Z</time></trkpt><trkpt lat="45.802245282925405" lon="9.236857598452026"><ele>271.99999999999994</ele><time>2026-04-25T06:41:15Z</time></trkpt><trkpt lat="45.802297550039576" lon="9.236791239241835"><ele>272.0</ele><time>2026-04-25T06:41:16Z</time></trkpt><trkpt lat="45.80235707161633" lon="9.236735200427484"><ele>272.0</ele><time>2026-04-25T06:41:17Z</time></trkpt><trkpt lat="45.80242143417135" lon="9.236687351136409"><ele>272.0</ele><time>2026-04-25T06:41:18Z</time></trkpt><trkpt lat="45.80249005229893" lon="9.23664588245004"><ele>272.0</ele><time>2026-04-25T06:41:19Z</time></trkpt><trkpt lat="45.80255811363889" lon="9.236603102909415"><ele>271.99999999999994</ele><time>2026-04-25T06:41:20Z</time></trkpt><trkpt lat="45.80262376909191" lon="9.236548676874294"><ele>272.0</ele><time>2026-04-25T06:41:21Z</time></trkpt><trkpt lat="45.802689090833994" lon="9.236494384792568"><ele>272.33333333333337</ele><time>2026-04-25T06:41:22Z</time></trkpt><trkpt lat="45.802758395749166" lon="9.2364436460392"><ele>272.6666666666667</ele><time>2026-04-25T06:41:23Z</time></trkpt><trkpt lat="45.80282925843297" lon="9.23639981694406"><ele>273.0</ele><time>2026-04-25T06:41:24Z</time></trkpt><trkpt lat="45.80289976474737" lon="9.236353897050023"><ele>273.3333333333333</ele><time>2026-04-25T06:41:25Z</time></trkpt><trkpt lat="45.80296932012204" lon="9.236304397835497"><ele>273.66666666666663</ele><time>2026-04-25T06:41:26Z</time></trkpt><trkpt lat="45.80303848262793" lon="9.236256579127726"><ele>274.0</ele><time>2026-04-25T06:41:27Z</time></trkpt><trkpt lat="45.803109606947764" lon="9.236211674002934"><ele>274.0</ele><time>2026-04-25T06:41:28Z</time></trkpt><trkpt lat="45.80317859181576" lon="9.236165364136143"><ele>274.0</ele><time>2026-04-25T06:41:29Z</time></trkpt><trkpt lat="45.803249061351465" lon="9.236118720401175"><ele>274.0</ele><time>2026-04-25T06:41:30Z</time></trkpt><trkpt lat="45.80331867785351" lon="9.236072510037822"><ele>274.0</ele><time>2026-04-25T06:41:31Z</time></trkpt><trkpt lat="45.80338770692107" lon="9.236023666722359"><ele>274.0</ele><time>2026-04-25T06:41:32Z</time></trkpt><trkpt lat="45.80345855396044" lon="9.235977365277881"><ele>274.0</ele><time>2026-04-25T06:41:33Z</time></trkpt><trkpt lat="45.80352972702583" lon="9.23593064408732"><ele>274.0</ele><time>2026-04-25T06:41:34Z</time></trkpt><trkpt lat="45.80359812720116" lon="9.235878483729662"><ele>274.0</ele><time>2026-04-25T06:41:35Z</time></trkpt><trkpt lat="45.803665545331754" lon="9.23583307781339"><ele>274.0</ele><time>2026-04-25T06:41:36Z</time></trkpt><trkpt lat="45.80373530601815" lon="9.235789378731695"><ele>274.0</ele><time>2026-04-25T06:41:37Z</time></trkpt><trkpt lat="45.803804485868" lon="9.235741866796111"><ele>274.0</ele><time>2026-04-25T06:41:37.999Z</time></trkpt><trkpt lat="45.80387473867128" lon="9.235694951297118"><ele>274.0</ele><time>2026-04-25T06:41:38.999Z</time></trkpt><trkpt lat="45.80394472960676" lon="9.235646070069183"><ele>274.16666666666663</ele><time>2026-04-25T06:41:39.999Z</time></trkpt><trkpt lat="45.80401407325317" lon="9.235596521721387"><ele>274.3333333333333</ele><time>2026-04-25T06:41:40.999Z</time></trkpt><trkpt lat="45.804082623776395" lon="9.235546641743802"><ele>274.5</ele><time>2026-04-25T06:41:41.999Z</time></trkpt><trkpt lat="45.80414906185538" lon="9.235498602722872"><ele>274.6666666666667</ele><time>2026-04-25T06:41:42.999Z</time></trkpt><trkpt lat="45.804218127515625" lon="9.235448705983028"><ele>274.83333333333337</ele><time>2026-04-25T06:41:43.999Z</time></trkpt><trkpt lat="45.804282098873486" lon="9.2353934278654"><ele>275.0</ele><time>2026-04-25T06:41:44.999Z</time></trkpt><trkpt lat="45.80434708201762" lon="9.235335213271957"><ele>275.1666666666667</ele><time>2026-04-25T06:41:45.999Z</time></trkpt><trkpt lat="45.80441137777362" lon="9.235274244935486"><ele>275.33333333333337</ele><time>2026-04-25T06:41:46.999Z</time></trkpt><trkpt lat="45.80447540649388" lon="9.235217158043216"><ele>275.5</ele><time>2026-04-25T06:41:47.999Z</time></trkpt><trkpt lat="45.80453595922283" lon="9.23516139221052"><ele>275.6666666666667</ele><time>2026-04-25T06:41:48.999Z</time></trkpt><trkpt lat="45.80459032412989" lon="9.23510424719686"><ele>275.8333333333333</ele><time>2026-04-25T06:41:49.999Z</time></trkpt><trkpt lat="45.80464403575293" lon="9.235048284592242"><ele>276.0</ele><time>2026-04-25T06:41:50.999Z</time></trkpt><trkpt lat="45.80474427128729" lon="9.234946829576348"><ele>276.0</ele><time>2026-04-25T06:41:52.999Z</time></trkpt><trkpt lat="45.804838153648646" lon="9.234861648423927"><ele>276.0</ele><time>2026-04-25T06:41:54.999Z</time></trkpt><trkpt lat="45.80490516269152" lon="9.234774980892421"><ele>276.0</ele><time>2026-04-25T06:41:56.999Z</time></trkpt><trkpt lat="45.80497440922245" lon="9.2346879408871"><ele>276.0</ele><time>2026-04-25T06:41:58.999Z</time></trkpt><trkpt lat="45.80505991201435" lon="9.23461596576802"><ele>276.0</ele><time>2026-04-25T06:42:00.999Z</time></trkpt><trkpt lat="45.80513705511127" lon="9.234583229613339"><ele>276.8</ele><time>2026-04-25T06:42:02.999Z</time></trkpt><trkpt lat="45.80521622250461" lon="9.234580114118202"><ele>277.6</ele><time>2026-04-25T06:42:04.999Z</time></trkpt><trkpt lat="45.805308630884305" lon="9.234596246344818"><ele>278.4</ele><time>2026-04-25T06:42:06.999Z</time></trkpt><trkpt lat="45.80540048687891" lon="9.234585862600257"><ele>279.2</ele><time>2026-04-25T06:42:08.999Z</time></trkpt><trkpt lat="45.80547592893813" lon="9.23449944867195"><ele>280.0</ele><time>2026-04-25T06:42:10.999Z</time></trkpt><trkpt lat="45.805501968930585" lon="9.234369565592917"><ele>280.0</ele><time>2026-04-25T06:42:12.999Z</time></trkpt><trkpt lat="45.805475356776356" lon="9.234217885046153"><ele>280.0</ele><time>2026-04-25T06:42:14.999Z</time></trkpt><trkpt lat="45.80541963258106" lon="9.234068422979133"><ele>280.0</ele><time>2026-04-25T06:42:16.999Z</time></trkpt><trkpt lat="45.80537557520931" lon="9.233928194870906"><ele>280.0</ele><time>2026-04-25T06:42:19Z</time></trkpt><trkpt lat="45.80533975761367" lon="9.233773820565425"><ele>280.0</ele><time>2026-04-25T06:42:21Z</time></trkpt><trkpt lat="45.80530117255047" lon="9.233612685045935"><ele>280.0</ele><time>2026-04-25T06:42:23Z</time></trkpt><trkpt lat="45.80525707288641" lon="9.233446631556463"><ele>280.0</ele><time>2026-04-25T06:42:25Z</time></trkpt><trkpt lat="45.8052348534471" lon="9.233360769887849"><ele>280.0</ele><time>2026-04-25T06:42:26Z</time></trkpt><trkpt lat="45.80521200913313" lon="9.233274054337489"><ele>280.0</ele><time>2026-04-25T06:42:27Z</time></trkpt><trkpt lat="45.80519033967223" lon="9.233183234821224"><ele>280.0</ele><time>2026-04-25T06:42:28Z</time></trkpt><trkpt lat="45.80517289883058" lon="9.23308972287746"><ele>280.0</ele><time>2026-04-25T06:42:29Z</time></trkpt><trkpt lat="45.80515419192014" lon="9.232995060586571"><ele>279.57142857142856</ele><time>2026-04-25T06:42:30Z</time></trkpt><trkpt lat="45.80513478788956" lon="9.232900728152805"><ele>279.1428571428571</ele><time>2026-04-25T06:42:31Z</time></trkpt><trkpt lat="45.80511418108374" lon="9.232803252324157"><ele>278.7142857142857</ele><time>2026-04-25T06:42:32Z</time></trkpt><trkpt lat="45.80509317125736" lon="9.232705903574818"><ele>278.2857142857143</ele><time>2026-04-25T06:42:33Z</time></trkpt><trkpt lat="45.8050698021188" lon="9.232607647501233"><ele>277.85714285714283</ele><time>2026-04-25T06:42:34Z</time></trkpt><trkpt lat="45.80504884075442" lon="9.23250420488935"><ele>277.42857142857144</ele><time>2026-04-25T06:42:35Z</time></trkpt><trkpt lat="45.80502810963698" lon="9.232393599418534"><ele>277.0</ele><time>2026-04-25T06:42:36Z</time></trkpt><trkpt lat="45.805007154891925" lon="9.232283111010034"><ele>276.8333333333333</ele><time>2026-04-25T06:42:37Z</time></trkpt><trkpt lat="45.804982762199224" lon="9.23217231693184"><ele>276.66666666666663</ele><time>2026-04-25T06:42:38Z</time></trkpt><trkpt lat="45.80495755951603" lon="9.23206307687455"><ele>276.5</ele><time>2026-04-25T06:42:39Z</time></trkpt><trkpt lat="45.8049339164642" lon="9.231951208884063"><ele>276.3333333333333</ele><time>2026-04-25T06:42:40Z</time></trkpt><trkpt lat="45.80491131862384" lon="9.231837097782629"><ele>276.1666666666667</ele><time>2026-04-25T06:42:41Z</time></trkpt><trkpt lat="45.80488780062463" lon="9.231722894024182"><ele>276.0</ele><time>2026-04-25T06:42:41.999Z</time></trkpt><trkpt lat="45.804863597383" lon="9.23160794129928"><ele>276.0</ele><time>2026-04-25T06:42:42.999Z</time></trkpt><trkpt lat="45.804840030778664" lon="9.231491195949133"><ele>276.0</ele><time>2026-04-25T06:42:43.999Z</time></trkpt><trkpt lat="45.80481588149988" lon="9.231373513251143"><ele>276.0</ele><time>2026-04-25T06:42:44.999Z</time></trkpt><trkpt lat="45.80479106109764" lon="9.231256123718905"><ele>276.0</ele><time>2026-04-25T06:42:45.999Z</time></trkpt><trkpt lat="45.804764572897504" lon="9.231132971042763"><ele>276.0</ele><time>2026-04-25T06:42:46.999Z</time></trkpt><trkpt lat="45.80473964469832" lon="9.231006233489797"><ele>276.0</ele><time>2026-04-25T06:42:47.999Z</time></trkpt><trkpt lat="45.804714450621155" lon="9.230880440386152"><ele>276.0</ele><time>2026-04-25T06:42:48.999Z</time></trkpt><trkpt lat="45.80468535871606" lon="9.230757088915508"><ele>276.0</ele><time>2026-04-25T06:42:49.999Z</time></trkpt><trkpt lat="45.804659181547045" lon="9.230632713336071"><ele>276.0</ele><time>2026-04-25T06:42:50.999Z</time></trkpt><trkpt lat="45.80463133563819" lon="9.230506993173156"><ele>276.0</ele><time>2026-04-25T06:42:51.999Z</time></trkpt><trkpt lat="45.80460552148023" lon="9.230381666042634"><ele>276.0</ele><time>2026-04-25T06:42:52.999Z</time></trkpt><trkpt lat="45.80458130984737" lon="9.230254899115522"><ele>276.0</ele><time>2026-04-25T06:42:53.999Z</time></trkpt><trkpt lat="45.80455393646971" lon="9.230123618046054"><ele>276.0</ele><time>2026-04-25T06:42:54.999Z</time></trkpt><trkpt lat="45.804528260054454" lon="9.229988783878715"><ele>276.0</ele><time>2026-04-25T06:42:55.999Z</time></trkpt><trkpt lat="45.8045052632353" lon="9.229855332890205"><ele>276.0</ele><time>2026-04-25T06:42:56.999Z</time></trkpt><trkpt lat="45.804479922099674" lon="9.229723269333505"><ele>276.0</ele><time>2026-04-25T06:42:57.999Z</time></trkpt><trkpt lat="45.80445636575569" lon="9.229592136804941"><ele>275.6</ele><time>2026-04-25T06:42:58.999Z</time></trkpt><trkpt lat="45.80443000723951" lon="9.229460460912703"><ele>275.20000000000005</ele><time>2026-04-25T06:42:59.999Z</time></trkpt><trkpt lat="45.804404707434216" lon="9.229328607896424"><ele>274.79999999999995</ele><time>2026-04-25T06:43:00.999Z</time></trkpt><trkpt lat="45.80438024766983" lon="9.229197896426907"><ele>274.4</ele><time>2026-04-25T06:43:01.999Z</time></trkpt><trkpt lat="45.80435498663353" lon="9.229068329548191"><ele>274.0</ele><time>2026-04-25T06:43:02.999Z</time></trkpt><trkpt lat="45.80433096296089" lon="9.228939440047592"><ele>273.8</ele><time>2026-04-25T06:43:03.999Z</time></trkpt><trkpt lat="45.80430959473462" lon="9.228806145569768"><ele>273.59999999999997</ele><time>2026-04-25T06:43:04.999Z</time></trkpt><trkpt lat="45.80428392830098" lon="9.228673072765023"><ele>273.4</ele><time>2026-04-25T06:43:05.999Z</time></trkpt><trkpt lat="45.80425876676549" lon="9.228538284024967"><ele>273.2</ele><time>2026-04-25T06:43:06.999Z</time></trkpt><trkpt lat="45.80423070467242" lon="9.228404404353938"><ele>273.0</ele><time>2026-04-25T06:43:07.999Z</time></trkpt><trkpt lat="45.80420238940861" lon="9.22827375167592"><ele>273.0</ele><time>2026-04-25T06:43:08.999Z</time></trkpt><trkpt lat="45.80417467873871" lon="9.228146180500945"><ele>273.0</ele><time>2026-04-25T06:43:09.999Z</time></trkpt><trkpt lat="45.80414677362646" lon="9.228020154382358"><ele>273.0</ele><time>2026-04-25T06:43:10.999Z</time></trkpt><trkpt lat="45.804118698310795" lon="9.227896111088224"><ele>273.0</ele><time>2026-04-25T06:43:11.999Z</time></trkpt><trkpt lat="45.80409278835106" lon="9.227771779761442"><ele>273.0</ele><time>2026-04-25T06:43:12.999Z</time></trkpt><trkpt lat="45.80406911804189" lon="9.227643530855108"><ele>273.0</ele><time>2026-04-25T06:43:13.999Z</time></trkpt><trkpt lat="45.80404148357826" lon="9.227515958419628"><ele>273.0</ele><time>2026-04-25T06:43:14.999Z</time></trkpt><trkpt lat="45.80401293662913" lon="9.227386561996827"><ele>273.0</ele><time>2026-04-25T06:43:15.999Z</time></trkpt><trkpt lat="45.803985624293745" lon="9.227260069320002"><ele>273.0</ele><time>2026-04-25T06:43:16.999Z</time></trkpt><trkpt lat="45.803960479502614" lon="9.227133624514769"><ele>273.0</ele><time>2026-04-25T06:43:17.999Z</time></trkpt><trkpt lat="45.80393462121057" lon="9.227008713587997"><ele>273.0</ele><time>2026-04-25T06:43:18.999Z</time></trkpt><trkpt lat="45.80391117621799" lon="9.226886097410938"><ele>273.0</ele><time>2026-04-25T06:43:19.999Z</time></trkpt><trkpt lat="45.80388732991346" lon="9.22676521439722"><ele>273.0</ele><time>2026-04-25T06:43:20.999Z</time></trkpt><trkpt lat="45.803861278578694" lon="9.226645896639386"><ele>273.0</ele><time>2026-04-25T06:43:21.999Z</time></trkpt><trkpt lat="45.8038359955113" lon="9.22652831673417"><ele>273.0</ele><time>2026-04-25T06:43:22.999Z</time></trkpt><trkpt lat="45.803810379950555" lon="9.226410941929666"><ele>273.0</ele><time>2026-04-25T06:43:23.999Z</time></trkpt><trkpt lat="45.803784663418625" lon="9.22629244651146"><ele>272.8333333333333</ele><time>2026-04-25T06:43:24.999Z</time></trkpt><trkpt lat="45.80375929258503" lon="9.226174230029878"><ele>272.6666666666667</ele><time>2026-04-25T06:43:25.999Z</time></trkpt><trkpt lat="45.803736439733385" lon="9.226056135462967"><ele>272.5</ele><time>2026-04-25T06:43:26.999Z</time></trkpt><trkpt lat="45.80371236544719" lon="9.225938268861196"><ele>272.33333333333337</ele><time>2026-04-25T06:43:27.999Z</time></trkpt><trkpt lat="45.80368969969772" lon="9.225817773146462"><ele>272.1666666666667</ele><time>2026-04-25T06:43:28.999Z</time></trkpt><trkpt lat="45.80366436921791" lon="9.225697712558143"><ele>272.0</ele><time>2026-04-25T06:43:29.999Z</time></trkpt><trkpt lat="45.80364271954612" lon="9.225577220976405"><ele>272.0</ele><time>2026-04-25T06:43:30.999Z</time></trkpt><trkpt lat="45.803623619582815" lon="9.225457259097459"><ele>272.0</ele><time>2026-04-25T06:43:31.999Z</time></trkpt><trkpt lat="45.80360902530597" lon="9.2253362599234"><ele>272.0</ele><time>2026-04-25T06:43:32.999Z</time></trkpt><trkpt lat="45.803599536518675" lon="9.225215844888783"><ele>272.0</ele><time>2026-04-25T06:43:33.999Z</time></trkpt><trkpt lat="45.803592415580376" lon="9.225098819349334"><ele>272.0</ele><time>2026-04-25T06:43:34.999Z</time></trkpt><trkpt lat="45.803581156222755" lon="9.224984155586984"><ele>272.0</ele><time>2026-04-25T06:43:35.999Z</time></trkpt><trkpt lat="45.80356851690027" lon="9.224873786045151"><ele>271.99999999999994</ele><time>2026-04-25T06:43:36.999Z</time></trkpt><trkpt lat="45.80356159567625" lon="9.224764229881414"><ele>272.0</ele><time>2026-04-25T06:43:37.999Z</time></trkpt><trkpt lat="45.80355502483431" lon="9.224656745241568"><ele>272.0</ele><time>2026-04-25T06:43:38.999Z</time></trkpt><trkpt lat="45.803547019440494" lon="9.224550892245803"><ele>272.0</ele><time>2026-04-25T06:43:39.999Z</time></trkpt><trkpt lat="45.80353891197228" lon="9.224448211803809"><ele>272.0</ele><time>2026-04-25T06:43:40.999Z</time></trkpt><trkpt lat="45.803534294545805" lon="9.224349409214424"><ele>271.99999999999994</ele><time>2026-04-25T06:43:41.999Z</time></trkpt><trkpt lat="45.80353626734948" lon="9.224257827080772"><ele>272.0</ele><time>2026-04-25T06:43:42.999Z</time></trkpt><trkpt lat="45.80355309840757" lon="9.224085986229847"><ele>271.99999999999994</ele><time>2026-04-25T06:43:44.999Z</time></trkpt><trkpt lat="45.80357233491627" lon="9.223998578614237"><ele>272.0</ele><time>2026-04-25T06:43:45.999Z</time></trkpt><trkpt lat="45.80358627370115" lon="9.223900662463686"><ele>272.0</ele><time>2026-04-25T06:43:46.999Z</time></trkpt><trkpt lat="45.803576525626866" lon="9.223792881258257"><ele>272.0</ele><time>2026-04-25T06:43:47.999Z</time></trkpt><trkpt lat="45.80354550147881" lon="9.223691840600777"><ele>272.0</ele><time>2026-04-25T06:43:48.999Z</time></trkpt><trkpt lat="45.803505986237525" lon="9.223601467760396"><ele>271.99999999999994</ele><time>2026-04-25T06:43:49.999Z</time></trkpt><trkpt lat="45.80347910941875" lon="9.223511538422047"><ele>272.0</ele><time>2026-04-25T06:43:50.999Z</time></trkpt><trkpt lat="45.8034731727083" lon="9.223413169480764"><ele>272.1428571428571</ele><time>2026-04-25T06:43:51.999Z</time></trkpt><trkpt lat="45.80347592048251" lon="9.223308653038979"><ele>272.2857142857143</ele><time>2026-04-25T06:43:52.999Z</time></trkpt><trkpt lat="45.80347839613887" lon="9.223204731469398"><ele>272.42857142857144</ele><time>2026-04-25T06:43:53.999Z</time></trkpt><trkpt lat="45.803475931180785" lon="9.223101095134469"><ele>272.57142857142856</ele><time>2026-04-25T06:43:54.999Z</time></trkpt><trkpt lat="45.80347390289487" lon="9.222993100754877"><ele>272.7142857142857</ele><time>2026-04-25T06:43:55.999Z</time></trkpt><trkpt lat="45.80347784303882" lon="9.22289019696496"><ele>272.85714285714283</ele><time>2026-04-25T06:43:56.999Z</time></trkpt><trkpt lat="45.8034821602035" lon="9.222789858715858"><ele>273.0</ele><time>2026-04-25T06:43:57.999Z</time></trkpt><trkpt lat="45.803489029588526" lon="9.222691857877155"><ele>273.0</ele><time>2026-04-25T06:43:58.999Z</time></trkpt><trkpt lat="45.80349910956842" lon="9.222590044739993"><ele>273.0</ele><time>2026-04-25T06:43:59.999Z</time></trkpt><trkpt lat="45.80350711050581" lon="9.222486828338365"><ele>273.0</ele><time>2026-04-25T06:44:00.999Z</time></trkpt><trkpt lat="45.80351281195145" lon="9.222383958772763"><ele>273.0</ele><time>2026-04-25T06:44:01.999Z</time></trkpt><trkpt lat="45.803520611554724" lon="9.222279321288909"><ele>273.0</ele><time>2026-04-25T06:44:02.999Z</time></trkpt><trkpt lat="45.80353096268484" lon="9.222177462603822"><ele>273.0</ele><time>2026-04-25T06:44:03.999Z</time></trkpt><trkpt lat="45.803541531699516" lon="9.222074224970005"><ele>273.0</ele><time>2026-04-25T06:44:04.999Z</time></trkpt><trkpt lat="45.80355251257316" lon="9.221972525405718"><ele>273.0</ele><time>2026-04-25T06:44:05.999Z</time></trkpt><trkpt lat="45.80356564988064" lon="9.22186933658576"><ele>273.0</ele><time>2026-04-25T06:44:06.999Z</time></trkpt><trkpt lat="45.80357632952577" lon="9.22176621461664"><ele>273.0</ele><time>2026-04-25T06:44:07.999Z</time></trkpt><trkpt lat="45.803587271759675" lon="9.221659721072452"><ele>273.0</ele><time>2026-04-25T06:44:08.999Z</time></trkpt><trkpt lat="45.8035993274473" lon="9.221557238960417"><ele>273.0</ele><time>2026-04-25T06:44:09.999Z</time></trkpt><trkpt lat="45.803613580984376" lon="9.221453496047864"><ele>273.0</ele><time>2026-04-25T06:44:10.999Z</time></trkpt><trkpt lat="45.80363120361243" lon="9.22135213640058"><ele>273.0</ele><time>2026-04-25T06:44:11.999Z</time></trkpt><trkpt lat="45.80364958037784" lon="9.221251566714889"><ele>273.0</ele><time>2026-04-25T06:44:12.999Z</time></trkpt><trkpt lat="45.80366533866719" lon="9.221154125599153"><ele>273.0</ele><time>2026-04-25T06:44:13.999Z</time></trkpt><trkpt lat="45.80368132844185" lon="9.221056224397685"><ele>273.0</ele><time>2026-04-25T06:44:14.999Z</time></trkpt><trkpt lat="45.803699891080655" lon="9.22095817127605"><ele>273.0</ele><time>2026-04-25T06:44:15.999Z</time></trkpt><trkpt lat="45.80371923886928" lon="9.22085978220927"><ele>273.0</ele><time>2026-04-25T06:44:16.999Z</time></trkpt><trkpt lat="45.803738941637214" lon="9.220760839273005"><ele>273.0</ele><time>2026-04-25T06:44:17.999Z</time></trkpt><trkpt lat="45.80375873092779" lon="9.220666199104988"><ele>273.0</ele><time>2026-04-25T06:44:18.999Z</time></trkpt><trkpt lat="45.80377971640183" lon="9.220573793702645"><ele>273.42857142857144</ele><time>2026-04-25T06:44:19.999Z</time></trkpt><trkpt lat="45.80380197676372" lon="9.22047715736091"><ele>273.8571428571429</ele><time>2026-04-25T06:44:20.999Z</time></trkpt><trkpt lat="45.80382408611733" lon="9.220381884872243"><ele>274.2857142857143</ele><time>2026-04-25T06:44:21.999Z</time></trkpt><trkpt lat="45.803845004126615" lon="9.220283311816225"><ele>274.7142857142857</ele><time>2026-04-25T06:44:22.999Z</time></trkpt><trkpt lat="45.80386551750495" lon="9.220187396115351"><ele>275.14285714285717</ele><time>2026-04-25T06:44:23.999Z</time></trkpt><trkpt lat="45.803885112684796" lon="9.220090007818252"><ele>275.57142857142856</ele><time>2026-04-25T06:44:25Z</time></trkpt><trkpt lat="45.803908669252" lon="9.219995877553815"><ele>276.0</ele><time>2026-04-25T06:44:26Z</time></trkpt><trkpt lat="45.80393462613362" lon="9.219900655177126"><ele>276.42857142857144</ele><time>2026-04-25T06:44:27Z</time></trkpt><trkpt lat="45.80395708091292" lon="9.219812412158575"><ele>276.8571428571429</ele><time>2026-04-25T06:44:28Z</time></trkpt><trkpt lat="45.80397793524643" lon="9.219723494255458"><ele>277.2857142857143</ele><time>2026-04-25T06:44:29Z</time></trkpt><trkpt lat="45.80399593002862" lon="9.219630203510317"><ele>277.7142857142857</ele><time>2026-04-25T06:44:30Z</time></trkpt><trkpt lat="45.80401580639523" lon="9.219537968987561"><ele>278.1428571428571</ele><time>2026-04-25T06:44:31Z</time></trkpt><trkpt lat="45.80403506957108" lon="9.219450069871646"><ele>278.57142857142856</ele><time>2026-04-25T06:44:32Z</time></trkpt><trkpt lat="45.804055143722124" lon="9.21936280726108"><ele>279.0</ele><time>2026-04-25T06:44:33Z</time></trkpt><trkpt lat="45.804076465402815" lon="9.219275234836495"><ele>279.0</ele><time>2026-04-25T06:44:34Z</time></trkpt><trkpt lat="45.80409737987095" lon="9.219184478498223"><ele>279.0</ele><time>2026-04-25T06:44:35Z</time></trkpt><trkpt lat="45.80411882805976" lon="9.219096343358826"><ele>279.0</ele><time>2026-04-25T06:44:36Z</time></trkpt><trkpt lat="45.80413874550672" lon="9.219009039436047"><ele>279.0</ele><time>2026-04-25T06:44:37Z</time></trkpt><trkpt lat="45.804180430536434" lon="9.218841408450118"><ele>279.0</ele><time>2026-04-25T06:44:39Z</time></trkpt><trkpt lat="45.80420344913918" lon="9.218756664792808"><ele>279.0</ele><time>2026-04-25T06:44:40Z</time></trkpt><trkpt lat="45.804251384277165" lon="9.21858540774235"><ele>279.0</ele><time>2026-04-25T06:44:42Z</time></trkpt><trkpt lat="45.80429572853518" lon="9.218416404994562"><ele>279.0</ele><time>2026-04-25T06:44:44Z</time></trkpt><trkpt lat="45.80431573127401" lon="9.218328340395335"><ele>279.0</ele><time>2026-04-25T06:44:44.999Z</time></trkpt><trkpt lat="45.80435385788956" lon="9.218164861240835"><ele>279.0</ele><time>2026-04-25T06:44:46.999Z</time></trkpt><trkpt lat="45.804389905788696" lon="9.218020442365633"><ele>279.0</ele><time>2026-04-25T06:44:48.999Z</time></trkpt><trkpt lat="45.80443143976129" lon="9.21788400833214"><ele>279.4</ele><time>2026-04-25T06:44:50.999Z</time></trkpt><trkpt lat="45.80448608917323" lon="9.217760158008677"><ele>279.79999999999995</ele><time>2026-04-25T06:44:52.999Z</time></trkpt><trkpt lat="45.80455060004087" lon="9.217641728736515"><ele>280.20000000000005</ele><time>2026-04-25T06:44:54.999Z</time></trkpt><trkpt lat="45.80457553534109" lon="9.217508598061565"><ele>280.6</ele><time>2026-04-25T06:44:56.999Z</time></trkpt><trkpt lat="45.80452885627846" lon="9.217376393959201"><ele>281.0</ele><time>2026-04-25T06:44:58.999Z</time></trkpt><trkpt lat="45.80443000936013" lon="9.217303374215515"><ele>280.83333333333337</ele><time>2026-04-25T06:45:00.999Z</time></trkpt><trkpt lat="45.80431984266009" lon="9.217274378917958"><ele>280.6666666666667</ele><time>2026-04-25T06:45:02.999Z</time></trkpt><trkpt lat="45.804217669306816" lon="9.217190434424245"><ele>280.5</ele><time>2026-04-25T06:45:04.999Z</time></trkpt><trkpt lat="45.80417090698826" lon="9.217121445376597"><ele>280.3333333333333</ele><time>2026-04-25T06:45:05.999Z</time></trkpt><trkpt lat="45.80412498360579" lon="9.21704617821629"><ele>280.16666666666663</ele><time>2026-04-25T06:45:06.999Z</time></trkpt><trkpt lat="45.80407629561798" lon="9.216969820322587"><ele>280.0</ele><time>2026-04-25T06:45:07.999Z</time></trkpt><trkpt lat="45.80403995206952" lon="9.216872164734445"><ele>280.0</ele><time>2026-04-25T06:45:08.999Z</time></trkpt><trkpt lat="45.80396839488511" lon="9.216810755080314"><ele>280.0</ele><time>2026-04-25T06:45:09.999Z</time></trkpt><trkpt lat="45.80389584508802" lon="9.216766213326968"><ele>280.0</ele><time>2026-04-25T06:45:10.999Z</time></trkpt><trkpt lat="45.80383096487257" lon="9.216697370513595"><ele>280.0</ele><time>2026-04-25T06:45:11.999Z</time></trkpt><trkpt lat="45.80376350760986" lon="9.21662238440547"><ele>280.0</ele><time>2026-04-25T06:45:12.999Z</time></trkpt><trkpt lat="45.803693731321786" lon="9.216555679775247"><ele>280.0</ele><time>2026-04-25T06:45:13.999Z</time></trkpt><trkpt lat="45.8036245803671" lon="9.216487489277243"><ele>280.16666666666663</ele><time>2026-04-25T06:45:14.999Z</time></trkpt><trkpt lat="45.803556840556574" lon="9.216419970370024"><ele>280.3333333333333</ele><time>2026-04-25T06:45:15.999Z</time></trkpt><trkpt lat="45.803494670329535" lon="9.21634007663504"><ele>280.5</ele><time>2026-04-25T06:45:16.999Z</time></trkpt><trkpt lat="45.80342501830728" lon="9.216272446147126"><ele>280.6666666666667</ele><time>2026-04-25T06:45:17.999Z</time></trkpt><trkpt lat="45.80335481830034" lon="9.21620413126034"><ele>280.83333333333337</ele><time>2026-04-25T06:45:18.999Z</time></trkpt><trkpt lat="45.80328155096574" lon="9.21613397974757"><ele>281.0</ele><time>2026-04-25T06:45:19.999Z</time></trkpt><trkpt lat="45.80320831017662" lon="9.216060406813659"><ele>280.1666666666667</ele><time>2026-04-25T06:45:20.999Z</time></trkpt><trkpt lat="45.80313485342381" lon="9.215982157174153"><ele>279.33333333333337</ele><time>2026-04-25T06:45:21.999Z</time></trkpt><trkpt lat="45.80306082870838" lon="9.215909617752759"><ele>278.5</ele><time>2026-04-25T06:45:22.999Z</time></trkpt><trkpt lat="45.802990902365245" lon="9.215835196769946"><ele>277.6666666666667</ele><time>2026-04-25T06:45:23.999Z</time></trkpt><trkpt lat="45.80291542822228" lon="9.215776655504083"><ele>276.8333333333333</ele><time>2026-04-25T06:45:24.999Z</time></trkpt><trkpt lat="45.802844885580036" lon="9.215704839267346"><ele>276.0</ele><time>2026-04-25T06:45:25.999Z</time></trkpt><trkpt lat="45.802773624740325" lon="9.2156240346877"><ele>275.8</ele><time>2026-04-25T06:45:26.999Z</time></trkpt><trkpt lat="45.80270253922172" lon="9.215543932147233"><ele>275.6</ele><time>2026-04-25T06:45:27.999Z</time></trkpt><trkpt lat="45.802629716752705" lon="9.215467901705145"><ele>275.4</ele><time>2026-04-25T06:45:28.999Z</time></trkpt><trkpt lat="45.802553934492494" lon="9.215391556768138"><ele>275.2</ele><time>2026-04-25T06:45:29.999Z</time></trkpt><trkpt lat="45.80247788553228" lon="9.215312830245061"><ele>275.0</ele><time>2026-04-25T06:45:30.999Z</time></trkpt><trkpt lat="45.802399329877495" lon="9.215237979607847"><ele>274.8</ele><time>2026-04-25T06:45:31.999Z</time></trkpt><trkpt lat="45.802323294679844" lon="9.215163224912725"><ele>274.6</ele><time>2026-04-25T06:45:32.999Z</time></trkpt><trkpt lat="45.802248526870365" lon="9.215085435249334"><ele>274.4</ele><time>2026-04-25T06:45:33.999Z</time></trkpt><trkpt lat="45.8021729151198" lon="9.215006672328089"><ele>274.2</ele><time>2026-04-25T06:45:34.999Z</time></trkpt><trkpt lat="45.80209564401571" lon="9.214926914487776"><ele>274.0</ele><time>2026-04-25T06:45:35.999Z</time></trkpt><trkpt lat="45.802018057526745" lon="9.214851926260831"><ele>274.0</ele><time>2026-04-25T06:45:36.999Z</time></trkpt><trkpt lat="45.801938630913" lon="9.214771120535175"><ele>274.0</ele><time>2026-04-25T06:45:37.999Z</time></trkpt><trkpt lat="45.80186124976934" lon="9.214687887477051"><ele>274.0</ele><time>2026-04-25T06:45:38.999Z</time></trkpt><trkpt lat="45.801781855483604" lon="9.21460608505894"><ele>274.0</ele><time>2026-04-25T06:45:39.999Z</time></trkpt><trkpt lat="45.80170214413534" lon="9.214526169082191"><ele>274.0</ele><time>2026-04-25T06:45:40.999Z</time></trkpt><trkpt lat="45.80161991068718" lon="9.214451445444501"><ele>273.4</ele><time>2026-04-25T06:45:41.999Z</time></trkpt><trkpt lat="45.80153869399875" lon="9.214379582129055"><ele>272.79999999999995</ele><time>2026-04-25T06:45:42.999Z</time></trkpt><trkpt lat="45.801451448095136" lon="9.214313905833722"><ele>272.20000000000005</ele><time>2026-04-25T06:45:43.999Z</time></trkpt><trkpt lat="45.801363467697705" lon="9.214248736582922"><ele>271.6</ele><time>2026-04-25T06:45:44.999Z</time></trkpt><trkpt lat="45.801274339118685" lon="9.214192003787222"><ele>271.0</ele><time>2026-04-25T06:45:45.999Z</time></trkpt><trkpt lat="45.80118564290971" lon="9.214139634221285"><ele>271.0</ele><time>2026-04-25T06:45:46.999Z</time></trkpt><trkpt lat="45.801098003772275" lon="9.214085071475138"><ele>271.0</ele><time>2026-04-25T06:45:47.999Z</time></trkpt><trkpt lat="45.80101024428937" lon="9.214034543017931"><ele>271.0</ele><time>2026-04-25T06:45:48.999Z</time></trkpt><trkpt lat="45.800921538426046" lon="9.213983907732667"><ele>271.0</ele><time>2026-04-25T06:45:49.999Z</time></trkpt><trkpt lat="45.80084181114576" lon="9.213897063345355"><ele>271.0</ele><time>2026-04-25T06:45:50.999Z</time></trkpt><trkpt lat="45.80076572724825" lon="9.213814817046224"><ele>270.0</ele><time>2026-04-25T06:45:51.999Z</time></trkpt><trkpt lat="45.80067820769227" lon="9.213751677161149"><ele>269.0</ele><time>2026-04-25T06:45:52.999Z</time></trkpt><trkpt lat="45.80060276453559" lon="9.213670299777197"><ele>268.0</ele><time>2026-04-25T06:45:53.999Z</time></trkpt><trkpt lat="45.80052685061352" lon="9.213591312004763"><ele>267.0</ele><time>2026-04-25T06:45:54.999Z</time></trkpt><trkpt lat="45.80044968352071" lon="9.213514209406673"><ele>266.0</ele><time>2026-04-25T06:45:55.999Z</time></trkpt><trkpt lat="45.80036922230299" lon="9.213435265253366"><ele>266.0</ele><time>2026-04-25T06:45:56.999Z</time></trkpt><trkpt lat="45.80028827732068" lon="9.213355485588913"><ele>266.0</ele><time>2026-04-25T06:45:57.999Z</time></trkpt><trkpt lat="45.8002099440982" lon="9.213272000731026"><ele>266.0</ele><time>2026-04-25T06:45:58.999Z</time></trkpt><trkpt lat="45.800134649213774" lon="9.213187243126562"><ele>266.0</ele><time>2026-04-25T06:45:59.999Z</time></trkpt><trkpt lat="45.80005769729118" lon="9.213106596949418"><ele>266.0</ele><time>2026-04-25T06:46:00.999Z</time></trkpt><trkpt lat="45.799978543457186" lon="9.213026482977627"><ele>266.0</ele><time>2026-04-25T06:46:01.999Z</time></trkpt><trkpt lat="45.7998975217505" lon="9.212943750795253"><ele>266.0</ele><time>2026-04-25T06:46:02.999Z</time></trkpt><trkpt lat="45.79981594442512" lon="9.212861103625551"><ele>266.0</ele><time>2026-04-25T06:46:03.999Z</time></trkpt><trkpt lat="45.79973449827106" lon="9.2127821361264"><ele>266.0</ele><time>2026-04-25T06:46:04.999Z</time></trkpt><trkpt lat="45.799655322236624" lon="9.212702350936521"><ele>266.0</ele><time>2026-04-25T06:46:05.999Z</time></trkpt><trkpt lat="45.799576686904565" lon="9.212622712693546"><ele>266.0</ele><time>2026-04-25T06:46:06.999Z</time></trkpt><trkpt lat="45.799501523206615" lon="9.212541155730856"><ele>266.0</ele><time>2026-04-25T06:46:07.999Z</time></trkpt><trkpt lat="45.79943058077309" lon="9.212458971603878"><ele>266.0</ele><time>2026-04-25T06:46:08.999Z</time></trkpt><trkpt lat="45.79936174202104" lon="9.21237556520697"><ele>266.0</ele><time>2026-04-25T06:46:09.999Z</time></trkpt><trkpt lat="45.79929483869502" lon="9.212289676894406"><ele>266.0</ele><time>2026-04-25T06:46:10.999Z</time></trkpt><trkpt lat="45.79923172766055" lon="9.212204323036138"><ele>266.1666666666667</ele><time>2026-04-25T06:46:11.999Z</time></trkpt><trkpt lat="45.799173061926396" lon="9.212113876524748"><ele>266.33333333333337</ele><time>2026-04-25T06:46:12.999Z</time></trkpt><trkpt lat="45.79911732631022" lon="9.212020390941047"><ele>266.5</ele><time>2026-04-25T06:46:13.999Z</time></trkpt><trkpt lat="45.799065358687045" lon="9.211923215532746"><ele>266.6666666666667</ele><time>2026-04-25T06:46:14.999Z</time></trkpt><trkpt lat="45.79901449173461" lon="9.211826187039039"><ele>266.8333333333333</ele><time>2026-04-25T06:46:15.999Z</time></trkpt><trkpt lat="45.79896447222755" lon="9.21173055003"><ele>267.0</ele><time>2026-04-25T06:46:16.999Z</time></trkpt><trkpt lat="45.798917469423515" lon="9.211639377935004"><ele>267.0</ele><time>2026-04-25T06:46:17.999Z</time></trkpt><trkpt lat="45.798870105186204" lon="9.211546799247838"><ele>267.0</ele><time>2026-04-25T06:46:18.999Z</time></trkpt><trkpt lat="45.79881824357745" lon="9.211457155046448"><ele>267.0</ele><time>2026-04-25T06:46:19.999Z</time></trkpt><trkpt lat="45.798764525422946" lon="9.211372904836331"><ele>267.0</ele><time>2026-04-25T06:46:20.999Z</time></trkpt><trkpt lat="45.79870850399464" lon="9.21128978877912"><ele>267.0</ele><time>2026-04-25T06:46:21.999Z</time></trkpt><trkpt lat="45.7986488325525" lon="9.211205352434463"><ele>267.0</ele><time>2026-04-25T06:46:22.999Z</time></trkpt><trkpt lat="45.7985878941957" lon="9.211123894070463"><ele>267.5</ele><time>2026-04-25T06:46:23.999Z</time></trkpt><trkpt lat="45.79852636993583" lon="9.211045967105845"><ele>268.0</ele><time>2026-04-25T06:46:24.999Z</time></trkpt><trkpt lat="45.79845986213448" lon="9.210973428001113"><ele>268.5</ele><time>2026-04-25T06:46:25.999Z</time></trkpt><trkpt lat="45.798387270272244" lon="9.210905542028502"><ele>269.0</ele><time>2026-04-25T06:46:26.999Z</time></trkpt><trkpt lat="45.79831380229519" lon="9.210836967756048"><ele>269.5</ele><time>2026-04-25T06:46:27.999Z</time></trkpt><trkpt lat="45.79825081127628" lon="9.210746896695774"><ele>270.0</ele><time>2026-04-25T06:46:28.999Z</time></trkpt><trkpt lat="45.79817770385376" lon="9.210680169022224"><ele>271.6666666666667</ele><time>2026-04-25T06:46:29.999Z</time></trkpt><trkpt lat="45.7981013794848" lon="9.210611876485448"><ele>273.3333333333333</ele><time>2026-04-25T06:46:30.999Z</time></trkpt><trkpt lat="45.7980258093336" lon="9.210544258785323"><ele>275.0</ele><time>2026-04-25T06:46:31.999Z</time></trkpt><trkpt lat="45.79794888341697" lon="9.210476741417986"><ele>276.66666666666663</ele><time>2026-04-25T06:46:32.999Z</time></trkpt><trkpt lat="45.7978728695008" lon="9.210410526763223"><ele>278.3333333333333</ele><time>2026-04-25T06:46:33.999Z</time></trkpt><trkpt lat="45.79779839899646" lon="9.21034565653118"><ele>280.0</ele><time>2026-04-25T06:46:34.999Z</time></trkpt><trkpt lat="45.79772259771153" lon="9.210279627114836"><ele>278.2</ele><time>2026-04-25T06:46:35.999Z</time></trkpt><trkpt lat="45.79764700628583" lon="9.210212641258831"><ele>276.4</ele><time>2026-04-25T06:46:36.999Z</time></trkpt><trkpt lat="45.797570157097745" lon="9.210144166374691"><ele>274.6</ele><time>2026-04-25T06:46:37.999Z</time></trkpt><trkpt lat="45.79749269474314" lon="9.210075145123263"><ele>272.8</ele><time>2026-04-25T06:46:38.999Z</time></trkpt><trkpt lat="45.79741604406689" lon="9.21000684708431"><ele>271.0</ele><time>2026-04-25T06:46:39.999Z</time></trkpt><trkpt lat="45.79733980814021" lon="9.209939095793061"><ele>271.0</ele><time>2026-04-25T06:46:40.999Z</time></trkpt><trkpt lat="45.797265690843766" lon="9.209873847932656"><ele>271.0</ele><time>2026-04-25T06:46:41.999Z</time></trkpt><trkpt lat="45.79719094402083" lon="9.209808045878841"><ele>271.0</ele><time>2026-04-25T06:46:42.999Z</time></trkpt><trkpt lat="45.797115752345185" lon="9.209741852196881"><ele>271.0</ele><time>2026-04-25T06:46:43.999Z</time></trkpt><trkpt lat="45.79703973657786" lon="9.20967493305863"><ele>271.0</ele><time>2026-04-25T06:46:44.999Z</time></trkpt><trkpt lat="45.79696481867134" lon="9.209609301219487"><ele>271.0</ele><time>2026-04-25T06:46:45.999Z</time></trkpt><trkpt lat="45.79688833315293" lon="9.20954277378783"><ele>271.3333333333333</ele><time>2026-04-25T06:46:46.999Z</time></trkpt><trkpt lat="45.79681323100571" lon="9.209477449655646"><ele>271.66666666666663</ele><time>2026-04-25T06:46:47.999Z</time></trkpt><trkpt lat="45.796741135433855" lon="9.209414740775312"><ele>272.0</ele><time>2026-04-25T06:46:48.999Z</time></trkpt><trkpt lat="45.796669446566334" lon="9.20935238527187"><ele>272.3333333333333</ele><time>2026-04-25T06:46:49.999Z</time></trkpt><trkpt lat="45.796596618912986" lon="9.209288455920634"><ele>272.6666666666667</ele><time>2026-04-25T06:46:50.999Z</time></trkpt><trkpt lat="45.796525241263886" lon="9.209223809162856"><ele>273.0</ele><time>2026-04-25T06:46:51.999Z</time></trkpt><trkpt lat="45.79645511993569" lon="9.209159980522454"><ele>273.0</ele><time>2026-04-25T06:46:52.999Z</time></trkpt><trkpt lat="45.79638457873386" lon="9.20909466905263"><ele>273.0</ele><time>2026-04-25T06:46:53.999Z</time></trkpt><trkpt lat="45.79631248202388" lon="9.20902791738817"><ele>273.0</ele><time>2026-04-25T06:46:54.999Z</time></trkpt><trkpt lat="45.796241058567865" lon="9.208961789076518"><ele>273.0</ele><time>2026-04-25T06:46:55.999Z</time></trkpt><trkpt lat="45.79616870571847" lon="9.208897268237648"><ele>273.0</ele><time>2026-04-25T06:46:56.999Z</time></trkpt><trkpt lat="45.79609782633423" lon="9.208834305313928"><ele>273.0</ele><time>2026-04-25T06:46:57.999Z</time></trkpt><trkpt lat="45.796028674227166" lon="9.208773708825733"><ele>273.1666666666667</ele><time>2026-04-25T06:46:58.999Z</time></trkpt><trkpt lat="45.795958514426175" lon="9.2087122284321"><ele>273.3333333333333</ele><time>2026-04-25T06:46:59.999Z</time></trkpt><trkpt lat="45.79588795437813" lon="9.208650390883289"><ele>273.5</ele><time>2026-04-25T06:47:00.999Z</time></trkpt><trkpt lat="45.79581804389499" lon="9.208588666137631"><ele>273.66666666666663</ele><time>2026-04-25T06:47:01.999Z</time></trkpt><trkpt lat="45.795749735908856" lon="9.20852835627502"><ele>273.8333333333333</ele><time>2026-04-25T06:47:02.999Z</time></trkpt><trkpt lat="45.795684234251674" lon="9.208469105938953"><ele>274.0</ele><time>2026-04-25T06:47:03.999Z</time></trkpt><trkpt lat="45.79561826172101" lon="9.20840886546983"><ele>274.0</ele><time>2026-04-25T06:47:04.999Z</time></trkpt><trkpt lat="45.79555070238739" lon="9.208347327974167"><ele>274.0</ele><time>2026-04-25T06:47:05.999Z</time></trkpt><trkpt lat="45.795482962063026" lon="9.208286121857034"><ele>274.0</ele><time>2026-04-25T06:47:06.999Z</time></trkpt><trkpt lat="45.79541757156349" lon="9.208227038453225"><ele>274.0</ele><time>2026-04-25T06:47:07.999Z</time></trkpt><trkpt lat="45.79535264532977" lon="9.208169344857868"><ele>274.0</ele><time>2026-04-25T06:47:08.999Z</time></trkpt><trkpt lat="45.79528633643511" lon="9.208110972301009"><ele>274.0</ele><time>2026-04-25T06:47:09.999Z</time></trkpt><trkpt lat="45.795219528902315" lon="9.20805216224359"><ele>274.66666666666663</ele><time>2026-04-25T06:47:10.999Z</time></trkpt><trkpt lat="45.79514912616635" lon="9.207996195084933"><ele>275.3333333333333</ele><time>2026-04-25T06:47:11.999Z</time></trkpt><trkpt lat="45.795079125406986" lon="9.207943430026491"><ele>276.0</ele><time>2026-04-25T06:47:12.999Z</time></trkpt><trkpt lat="45.79501283552474" lon="9.207896963090615"><ele>276.6666666666667</ele><time>2026-04-25T06:47:13.999Z</time></trkpt><trkpt lat="45.79494449893009" lon="9.20785214330203"><ele>277.33333333333337</ele><time>2026-04-25T06:47:14.999Z</time></trkpt><trkpt lat="45.79487405956797" lon="9.207807829330289"><ele>278.0</ele><time>2026-04-25T06:47:15.999Z</time></trkpt><trkpt lat="45.794804338302924" lon="9.207765164086716"><ele>278.0</ele><time>2026-04-25T06:47:16.999Z</time></trkpt><trkpt lat="45.794733434790544" lon="9.207723044013841"><ele>278.0</ele><time>2026-04-25T06:47:17.999Z</time></trkpt><trkpt lat="45.79466079614963" lon="9.207681652794285"><ele>278.0</ele><time>2026-04-25T06:47:18.999Z</time></trkpt><trkpt lat="45.79458769818538" lon="9.207639999773841"><ele>278.0</ele><time>2026-04-25T06:47:19.999Z</time></trkpt><trkpt lat="45.79451868448636" lon="9.20760067406991"><ele>278.0</ele><time>2026-04-25T06:47:20.999Z</time></trkpt><trkpt lat="45.79445291280467" lon="9.20756319580093"><ele>278.0</ele><time>2026-04-25T06:47:21.999Z</time></trkpt><trkpt lat="45.7943861034397" lon="9.207525126180597"><ele>278.57142857142856</ele><time>2026-04-25T06:47:22.999Z</time></trkpt><trkpt lat="45.79431852995881" lon="9.20748625873876"><ele>279.14285714285717</ele><time>2026-04-25T06:47:23.999Z</time></trkpt><trkpt lat="45.79424971710737" lon="9.207446340729794"><ele>279.7142857142857</ele><time>2026-04-25T06:47:24.999Z</time></trkpt><trkpt lat="45.79418057468019" lon="9.207406231472607"><ele>280.2857142857143</ele><time>2026-04-25T06:47:25.999Z</time></trkpt><trkpt lat="45.79411230734187" lon="9.207366629826467"><ele>280.85714285714283</ele><time>2026-04-25T06:47:26.999Z</time></trkpt><trkpt lat="45.794049332995506" lon="9.207330098708104"><ele>281.42857142857144</ele><time>2026-04-25T06:47:27.999Z</time></trkpt><trkpt lat="45.7939837340418" lon="9.207292044963996"><ele>282.0</ele><time>2026-04-25T06:47:28.999Z</time></trkpt><trkpt lat="45.79391943479734" lon="9.207254745265537"><ele>282.0</ele><time>2026-04-25T06:47:29.999Z</time></trkpt><trkpt lat="45.793853966377725" lon="9.207216767278501"><ele>282.0</ele><time>2026-04-25T06:47:30.999Z</time></trkpt><trkpt lat="45.79378678259178" lon="9.207178220604936"><ele>282.0</ele><time>2026-04-25T06:47:31.999Z</time></trkpt><trkpt lat="45.7937205541033" lon="9.207140219140884"><ele>282.0</ele><time>2026-04-25T06:47:32.999Z</time></trkpt><trkpt lat="45.7936556492346" lon="9.207103545841097"><ele>282.0</ele><time>2026-04-25T06:47:33.999Z</time></trkpt><trkpt lat="45.79358945917589" lon="9.20706626736361"><ele>282.0</ele><time>2026-04-25T06:47:34.999Z</time></trkpt><trkpt lat="45.79352246360706" lon="9.207028535239388"><ele>282.0</ele><time>2026-04-25T06:47:35.999Z</time></trkpt><trkpt lat="45.793455284557574" lon="9.206990897238814"><ele>281.0</ele><time>2026-04-25T06:47:36.999Z</time></trkpt><trkpt lat="45.793388789198154" lon="9.206954018511276"><ele>280.0</ele><time>2026-04-25T06:47:37.999Z</time></trkpt><trkpt lat="45.79332171868005" lon="9.206916820750212"><ele>279.0</ele><time>2026-04-25T06:47:38.999Z</time></trkpt><trkpt lat="45.79325382512108" lon="9.206879166550443"><ele>278.0</ele><time>2026-04-25T06:47:39.999Z</time></trkpt><trkpt lat="45.79318634506549" lon="9.206839563198981"><ele>277.0</ele><time>2026-04-25T06:47:40.999Z</time></trkpt><trkpt lat="45.79311831363316" lon="9.206799700667254"><ele>276.0</ele><time>2026-04-25T06:47:41.999Z</time></trkpt><trkpt lat="45.79305045625386" lon="9.20675994074209"><ele>275.0</ele><time>2026-04-25T06:47:42.999Z</time></trkpt><trkpt lat="45.79298424608095" lon="9.206719881371534"><ele>275.0</ele><time>2026-04-25T06:47:43.999Z</time></trkpt><trkpt lat="45.79291519571041" lon="9.206678570886307"><ele>275.0</ele><time>2026-04-25T06:47:44.999Z</time></trkpt><trkpt lat="45.7928482252237" lon="9.206638504720448"><ele>275.0</ele><time>2026-04-25T06:47:45.999Z</time></trkpt><trkpt lat="45.79278299682841" lon="9.206600353332155"><ele>275.0</ele><time>2026-04-25T06:47:46.999Z</time></trkpt><trkpt lat="45.792715030390035" lon="9.206560654596295"><ele>275.0</ele><time>2026-04-25T06:47:47.999Z</time></trkpt><trkpt lat="45.79264691409821" lon="9.206520869361183"><ele>275.0</ele><time>2026-04-25T06:47:48.999Z</time></trkpt><trkpt lat="45.79258082466548" lon="9.20648272408252"><ele>275.0</ele><time>2026-04-25T06:47:49.999Z</time></trkpt><trkpt lat="45.792512130812504" lon="9.20644307548456"><ele>275.5</ele><time>2026-04-25T06:47:50.999Z</time></trkpt><trkpt lat="45.79244134671652" lon="9.206402483216674"><ele>276.0</ele><time>2026-04-25T06:47:51.999Z</time></trkpt><trkpt lat="45.792366999398155" lon="9.206360377596555"><ele>276.5</ele><time>2026-04-25T06:47:52.999Z</time></trkpt><trkpt lat="45.79229242228804" lon="9.20631860512301"><ele>277.0</ele><time>2026-04-25T06:47:53.999Z</time></trkpt><trkpt lat="45.79221941989084" lon="9.206278833711094"><ele>277.5</ele><time>2026-04-25T06:47:54.999Z</time></trkpt><trkpt lat="45.79214510483955" lon="9.206238347189059"><ele>278.0</ele><time>2026-04-25T06:47:55.999Z</time></trkpt><trkpt lat="45.792068022317785" lon="9.20619635296373"><ele>278.0</ele><time>2026-04-25T06:47:56.999Z</time></trkpt><trkpt lat="45.791989093774134" lon="9.20615335302584"><ele>278.0</ele><time>2026-04-25T06:47:57.999Z</time></trkpt><trkpt lat="45.791907763260795" lon="9.206109044508544"><ele>278.0</ele><time>2026-04-25T06:47:58.999Z</time></trkpt><trkpt lat="45.791824361298886" lon="9.20606351794554"><ele>278.0</ele><time>2026-04-25T06:47:59.999Z</time></trkpt><trkpt lat="45.79174076342825" lon="9.206017754551395"><ele>278.0</ele><time>2026-04-25T06:48:00.999Z</time></trkpt><trkpt lat="45.79165573689249" lon="9.205971209081854"><ele>278.0</ele><time>2026-04-25T06:48:01.999Z</time></trkpt><trkpt lat="45.79157188343909" lon="9.205925305772713"><ele>277.4</ele><time>2026-04-25T06:48:02.999Z</time></trkpt><trkpt lat="45.79148954811252" lon="9.205880233525413"><ele>276.8</ele><time>2026-04-25T06:48:03.999Z</time></trkpt><trkpt lat="45.79140431365964" lon="9.205833574252615"><ele>276.2</ele><time>2026-04-25T06:48:04.999Z</time></trkpt><trkpt lat="45.791318415663156" lon="9.205786522357771"><ele>275.6</ele><time>2026-04-25T06:48:05.999Z</time></trkpt><trkpt lat="45.79123401947789" lon="9.205740185373811"><ele>275.0</ele><time>2026-04-25T06:48:06.999Z</time></trkpt><trkpt lat="45.79115153189089" lon="9.205694896307174"><ele>277.1666666666667</ele><time>2026-04-25T06:48:07.999Z</time></trkpt><trkpt lat="45.79107175577555" lon="9.205651095896117"><ele>279.33333333333337</ele><time>2026-04-25T06:48:08.999Z</time></trkpt><trkpt lat="45.790991912111146" lon="9.205607171099349"><ele>281.5</ele><time>2026-04-25T06:48:09.999Z</time></trkpt><trkpt lat="45.790910985579835" lon="9.205562642832719"><ele>283.6666666666667</ele><time>2026-04-25T06:48:10.999Z</time></trkpt><trkpt lat="45.79083078886756" lon="9.205518201119267"><ele>285.8333333333333</ele><time>2026-04-25T06:48:11.999Z</time></trkpt><trkpt lat="45.7907484833508" lon="9.205471446989876"><ele>288.0</ele><time>2026-04-25T06:48:12.999Z</time></trkpt><trkpt lat="45.79066669772476" lon="9.20542472868308"><ele>288.0</ele><time>2026-04-25T06:48:13.999Z</time></trkpt><trkpt lat="45.790584122505756" lon="9.205377255565331"><ele>288.0</ele><time>2026-04-25T06:48:14.999Z</time></trkpt><trkpt lat="45.79050220082914" lon="9.205330066949815"><ele>288.0</ele><time>2026-04-25T06:48:15.999Z</time></trkpt><trkpt lat="45.7904189503115" lon="9.205281644479207"><ele>288.0</ele><time>2026-04-25T06:48:16.999Z</time></trkpt><trkpt lat="45.79033456774341" lon="9.205233033662228"><ele>288.0</ele><time>2026-04-25T06:48:17.999Z</time></trkpt><trkpt lat="45.79025569401724" lon="9.205188394640423"><ele>288.0</ele><time>2026-04-25T06:48:18.999Z</time></trkpt><trkpt lat="45.790171839569055" lon="9.205143347147764"><ele>285.4</ele><time>2026-04-25T06:48:19.999Z</time></trkpt><trkpt lat="45.790089703468794" lon="9.205099934283588"><ele>282.8</ele><time>2026-04-25T06:48:20.999Z</time></trkpt><trkpt lat="45.79000345614698" lon="9.205057703494132"><ele>280.2</ele><time>2026-04-25T06:48:21.999Z</time></trkpt><trkpt lat="45.78991317177968" lon="9.205019070264457"><ele>277.6</ele><time>2026-04-25T06:48:22.999Z</time></trkpt><trkpt lat="45.78982438277483" lon="9.204986238142947"><ele>275.0</ele><time>2026-04-25T06:48:23.999Z</time></trkpt><trkpt lat="45.78973453139705" lon="9.204953283955367"><ele>275.0</ele><time>2026-04-25T06:48:24.999Z</time></trkpt><trkpt lat="45.78964623128227" lon="9.204920898797752"><ele>275.0</ele><time>2026-04-25T06:48:25.999Z</time></trkpt><trkpt lat="45.789558182124054" lon="9.204890147736595"><ele>275.0</ele><time>2026-04-25T06:48:26.999Z</time></trkpt><trkpt lat="45.78946985158723" lon="9.204860441581001"><ele>275.0</ele><time>2026-04-25T06:48:27.999Z</time></trkpt><trkpt lat="45.789383220308615" lon="9.204832475095456"><ele>275.0</ele><time>2026-04-25T06:48:28.999Z</time></trkpt><trkpt lat="45.789296044315115" lon="9.204804707701806"><ele>276.6666666666667</ele><time>2026-04-25T06:48:29.999Z</time></trkpt><trkpt lat="45.78921312476294" lon="9.204778882660886"><ele>278.33333333333337</ele><time>2026-04-25T06:48:30.999Z</time></trkpt><trkpt lat="45.78913069324176" lon="9.204753510013193"><ele>280.0</ele><time>2026-04-25T06:48:31.999Z</time></trkpt><trkpt lat="45.789044264827275" lon="9.204727587346442"><ele>281.6666666666667</ele><time>2026-04-25T06:48:32.999Z</time></trkpt><trkpt lat="45.78896167200007" lon="9.204702060497402"><ele>283.3333333333333</ele><time>2026-04-25T06:48:33.999Z</time></trkpt><trkpt lat="45.78888002407249" lon="9.204676272718908"><ele>285.0</ele><time>2026-04-25T06:48:34.999Z</time></trkpt><trkpt lat="45.78880101561792" lon="9.20465130377429"><ele>285.0</ele><time>2026-04-25T06:48:35.999Z</time></trkpt><trkpt lat="45.78872084653518" lon="9.204625706020881"><ele>285.0</ele><time>2026-04-25T06:48:36.999Z</time></trkpt><trkpt lat="45.7886404751297" lon="9.20460004367624"><ele>285.0</ele><time>2026-04-25T06:48:37.999Z</time></trkpt><trkpt lat="45.788557204118355" lon="9.204573455499135"><ele>285.0</ele><time>2026-04-25T06:48:38.999Z</time></trkpt><trkpt lat="45.78847543877972" lon="9.204546886912327"><ele>285.0</ele><time>2026-04-25T06:48:39.999Z</time></trkpt><trkpt lat="45.788398468568104" lon="9.204521685997733"><ele>285.0</ele><time>2026-04-25T06:48:40.999Z</time></trkpt><trkpt lat="45.7883248164616" lon="9.204497571473441"><ele>284.0</ele><time>2026-04-25T06:48:41.999Z</time></trkpt><trkpt lat="45.78825104937741" lon="9.20447341931865"><ele>283.0</ele><time>2026-04-25T06:48:42.999Z</time></trkpt><trkpt lat="45.78817455506307" lon="9.204448592188015"><ele>282.0</ele><time>2026-04-25T06:48:43.999Z</time></trkpt><trkpt lat="45.78809644299609" lon="9.204423413441305"><ele>281.0</ele><time>2026-04-25T06:48:44.999Z</time></trkpt><trkpt lat="45.788017764330704" lon="9.204395159631408"><ele>280.0</ele><time>2026-04-25T06:48:45.999Z</time></trkpt><trkpt lat="45.787939719531714" lon="9.204367752557395"><ele>279.0</ele><time>2026-04-25T06:48:46.999Z</time></trkpt><trkpt lat="45.78786028142538" lon="9.20434189078391"><ele>279.0</ele><time>2026-04-25T06:48:47.999Z</time></trkpt><trkpt lat="45.78778276525797" lon="9.204314728269384"><ele>279.0</ele><time>2026-04-25T06:48:48.999Z</time></trkpt><trkpt lat="45.787708036648354" lon="9.204285371277365"><ele>279.0</ele><time>2026-04-25T06:48:49.999Z</time></trkpt><trkpt lat="45.78763649797605" lon="9.204253114077972"><ele>279.0</ele><time>2026-04-25T06:48:50.999Z</time></trkpt><trkpt lat="45.7875675026603" lon="9.20421964144045"><ele>279.0</ele><time>2026-04-25T06:48:51.999Z</time></trkpt><trkpt lat="45.78749917997029" lon="9.204180885908062"><ele>279.0</ele><time>2026-04-25T06:48:52.999Z</time></trkpt><trkpt lat="45.787429162309586" lon="9.204134082926261"><ele>279.8333333333333</ele><time>2026-04-25T06:48:53.999Z</time></trkpt><trkpt lat="45.78735639406597" lon="9.204081087551344"><ele>280.6666666666667</ele><time>2026-04-25T06:48:54.999Z</time></trkpt><trkpt lat="45.78728427648644" lon="9.204026842883072"><ele>281.5</ele><time>2026-04-25T06:48:55.999Z</time></trkpt><trkpt lat="45.78720931838849" lon="9.203967883333801"><ele>282.33333333333337</ele><time>2026-04-25T06:48:56.999Z</time></trkpt><trkpt lat="45.78713146807387" lon="9.203905012522437"><ele>283.1666666666667</ele><time>2026-04-25T06:48:57.999Z</time></trkpt><trkpt lat="45.78705239262577" lon="9.20384115211712"><ele>284.0</ele><time>2026-04-25T06:48:58.999Z</time></trkpt><trkpt lat="45.78697425568402" lon="9.20377804985488"><ele>284.0</ele><time>2026-04-25T06:48:59.999Z</time></trkpt><trkpt lat="45.78689774705361" lon="9.203716262516604"><ele>284.0</ele><time>2026-04-25T06:49:00.999Z</time></trkpt><trkpt lat="45.786823406713566" lon="9.203656293077268"><ele>284.0</ele><time>2026-04-25T06:49:01.999Z</time></trkpt><trkpt lat="45.786748684520724" lon="9.203595939728325"><ele>284.0</ele><time>2026-04-25T06:49:02.999Z</time></trkpt><trkpt lat="45.78667370331532" lon="9.20353524819118"><ele>284.0</ele><time>2026-04-25T06:49:03.999Z</time></trkpt><trkpt lat="45.78659757804475" lon="9.203473630670985"><ele>284.0</ele><time>2026-04-25T06:49:04.999Z</time></trkpt><trkpt lat="45.7865215806871" lon="9.203411010284542"><ele>284.83333333333337</ele><time>2026-04-25T06:49:05.999Z</time></trkpt><trkpt lat="45.78644451729194" lon="9.203347460259497"><ele>285.6666666666667</ele><time>2026-04-25T06:49:06.999Z</time></trkpt><trkpt lat="45.78637025229253" lon="9.203286217922788"><ele>286.5</ele><time>2026-04-25T06:49:07.999Z</time></trkpt><trkpt lat="45.786297720004434" lon="9.203226404325738"><ele>287.3333333333333</ele><time>2026-04-25T06:49:08.999Z</time></trkpt><trkpt lat="45.78622557241158" lon="9.20316690828607"><ele>288.16666666666663</ele><time>2026-04-25T06:49:09.999Z</time></trkpt><trkpt lat="45.78615386632034" lon="9.203108864300315"><ele>289.0</ele><time>2026-04-25T06:49:10.999Z</time></trkpt><trkpt lat="45.786078046825644" lon="9.203047584715625"><ele>286.8333333333333</ele><time>2026-04-25T06:49:11.999Z</time></trkpt><trkpt lat="45.78600325880344" lon="9.202987138582087"><ele>284.66666666666663</ele><time>2026-04-25T06:49:12.999Z</time></trkpt><trkpt lat="45.78592939282937" lon="9.202926089879334"><ele>282.5</ele><time>2026-04-25T06:49:13.999Z</time></trkpt><trkpt lat="45.78585871070983" lon="9.202867232949869"><ele>280.3333333333333</ele><time>2026-04-25T06:49:14.999Z</time></trkpt><trkpt lat="45.78578681428026" lon="9.202807364605956"><ele>278.1666666666667</ele><time>2026-04-25T06:49:15.999Z</time></trkpt><trkpt lat="45.78571364561506" lon="9.202748214049413"><ele>276.0</ele><time>2026-04-25T06:49:16.999Z</time></trkpt><trkpt lat="45.7856367988641" lon="9.202690950820507"><ele>276.0</ele><time>2026-04-25T06:49:17.999Z</time></trkpt><trkpt lat="45.785564065657134" lon="9.202637521202517"><ele>276.0</ele><time>2026-04-25T06:49:18.999Z</time></trkpt><trkpt lat="45.7854941265589" lon="9.202581334772079"><ele>276.0</ele><time>2026-04-25T06:49:19.999Z</time></trkpt><trkpt lat="45.78542306300693" lon="9.202521672945936"><ele>276.0</ele><time>2026-04-25T06:49:20.999Z</time></trkpt><trkpt lat="45.78534919181441" lon="9.202459917977341"><ele>276.0</ele><time>2026-04-25T06:49:21.999Z</time></trkpt><trkpt lat="45.785273523711034" lon="9.202401048187825"><ele>276.0</ele><time>2026-04-25T06:49:22.999Z</time></trkpt><trkpt lat="45.785195967371315" lon="9.202340089476024"><ele>275.8333333333333</ele><time>2026-04-25T06:49:23.999Z</time></trkpt><trkpt lat="45.78511821622272" lon="9.202277772183049"><ele>275.6666666666667</ele><time>2026-04-25T06:49:24.999Z</time></trkpt><trkpt lat="45.78504349186323" lon="9.20221538393157"><ele>275.5</ele><time>2026-04-25T06:49:25.999Z</time></trkpt><trkpt lat="45.784969745355134" lon="9.202153641170158"><ele>275.33333333333337</ele><time>2026-04-25T06:49:26.999Z</time></trkpt><trkpt lat="45.784898053935606" lon="9.202093280416873"><ele>275.1666666666667</ele><time>2026-04-25T06:49:27.999Z</time></trkpt><trkpt lat="45.78482667746933" lon="9.202033184870388"><ele>275.0</ele><time>2026-04-25T06:49:28.999Z</time></trkpt><trkpt lat="45.784754820214516" lon="9.201973414529677"><ele>275.0</ele><time>2026-04-25T06:49:29.999Z</time></trkpt><trkpt lat="45.784681623599695" lon="9.201912165478605"><ele>275.0</ele><time>2026-04-25T06:49:30.999Z</time></trkpt><trkpt lat="45.784607321512155" lon="9.20184903708154"><ele>275.0</ele><time>2026-04-25T06:49:31.999Z</time></trkpt><trkpt lat="45.78453184627084" lon="9.201786937920465"><ele>275.0</ele><time>2026-04-25T06:49:32.999Z</time></trkpt><trkpt lat="45.784454643544116" lon="9.201724734594208"><ele>275.0</ele><time>2026-04-25T06:49:33.999Z</time></trkpt><trkpt lat="45.784380946138555" lon="9.201662276770179"><ele>275.0</ele><time>2026-04-25T06:49:34.999Z</time></trkpt><trkpt lat="45.784309159164756" lon="9.201598480207986"><ele>275.83333333333337</ele><time>2026-04-25T06:49:35.999Z</time></trkpt><trkpt lat="45.78423783213151" lon="9.201539075506137"><ele>276.6666666666667</ele><time>2026-04-25T06:49:36.999Z</time></trkpt><trkpt lat="45.784167090458084" lon="9.201480942575204"><ele>277.5</ele><time>2026-04-25T06:49:37.999Z</time></trkpt><trkpt lat="45.78409697911917" lon="9.201423327877665"><ele>278.3333333333333</ele><time>2026-04-25T06:49:38.999Z</time></trkpt><trkpt lat="45.784012503413756" lon="9.20140012234073"><ele>279.16666666666663</ele><time>2026-04-25T06:49:39.999Z</time></trkpt><trkpt lat="45.78394179604508" lon="9.2013382104153"><ele>280.0</ele><time>2026-04-25T06:49:40.999Z</time></trkpt><trkpt lat="45.783876765821425" lon="9.201276818084793"><ele>280.0</ele><time>2026-04-25T06:49:41.999Z</time></trkpt><trkpt lat="45.783804191391475" lon="9.201220938179343"><ele>280.0</ele><time>2026-04-25T06:49:42.999Z</time></trkpt><trkpt lat="45.7837311143486" lon="9.201166442901165"><ele>280.0</ele><time>2026-04-25T06:49:43.999Z</time></trkpt><trkpt lat="45.783660204670085" lon="9.201111067248409"><ele>280.0</ele><time>2026-04-25T06:49:44.999Z</time></trkpt><trkpt lat="45.78359040865286" lon="9.201049753299415"><ele>280.0</ele><time>2026-04-25T06:49:45.999Z</time></trkpt><trkpt lat="45.78352790985757" lon="9.200999354632005"><ele>280.0</ele><time>2026-04-25T06:49:46.999Z</time></trkpt><trkpt lat="45.78346406847924" lon="9.200956332500903"><ele>280.0</ele><time>2026-04-25T06:49:47.999Z</time></trkpt><trkpt lat="45.783406381450284" lon="9.200905060577336"><ele>280.0</ele><time>2026-04-25T06:49:48.999Z</time></trkpt><trkpt lat="45.78334901361393" lon="9.20085159150608"><ele>280.0</ele><time>2026-04-25T06:49:49.999Z</time></trkpt><trkpt lat="45.783288927194775" lon="9.200801298761853"><ele>280.0</ele><time>2026-04-25T06:49:50.999Z</time></trkpt><trkpt lat="45.78323164821168" lon="9.200750959327582"><ele>280.0</ele><time>2026-04-25T06:49:51.999Z</time></trkpt><trkpt lat="45.78317097042027" lon="9.200696068609107"><ele>280.0</ele><time>2026-04-25T06:49:52.999Z</time></trkpt><trkpt lat="45.783126319356484" lon="9.200610149233562"><ele>280.0</ele><time>2026-04-25T06:49:53.999Z</time></trkpt><trkpt lat="45.783069464177494" lon="9.200562119081683"><ele>280.0</ele><time>2026-04-25T06:49:54.999Z</time></trkpt><trkpt lat="45.783013496681605" lon="9.200514314958632"><ele>280.0</ele><time>2026-04-25T06:49:55.999Z</time></trkpt><trkpt lat="45.782955260869805" lon="9.200464573370464"><ele>280.0</ele><time>2026-04-25T06:49:56.999Z</time></trkpt><trkpt lat="45.7828984575745" lon="9.200417580624805"><ele>280.0</ele><time>2026-04-25T06:49:57.999Z</time></trkpt><trkpt lat="45.78284291507175" lon="9.20037265856932"><ele>280.0</ele><time>2026-04-25T06:49:58.999Z</time></trkpt><trkpt lat="45.78273817767114" lon="9.200291259735778"><ele>280.0</ele><time>2026-04-25T06:50:00.999Z</time></trkpt><trkpt lat="45.782628102778396" lon="9.200195608591997"><ele>279.85714285714283</ele><time>2026-04-25T06:50:02.999Z</time></trkpt><trkpt lat="45.78256821819203" lon="9.200144156672387"><ele>279.7142857142857</ele><time>2026-04-25T06:50:03.999Z</time></trkpt><trkpt lat="45.78250723861942" lon="9.200091763951038"><ele>279.57142857142856</ele><time>2026-04-25T06:50:04.999Z</time></trkpt><trkpt lat="45.78244431945378" lon="9.200037704889713"><ele>279.42857142857144</ele><time>2026-04-25T06:50:05.999Z</time></trkpt><trkpt lat="45.78237983064192" lon="9.199985811113626"><ele>279.2857142857143</ele><time>2026-04-25T06:50:06.999Z</time></trkpt><trkpt lat="45.78231373001601" lon="9.199931292822573"><ele>279.1428571428571</ele><time>2026-04-25T06:50:07.999Z</time></trkpt><trkpt lat="45.782250666841556" lon="9.199878618501936"><ele>279.0</ele><time>2026-04-25T06:50:08.999Z</time></trkpt><trkpt lat="45.78218767279636" lon="9.199827689871396"><ele>279.0</ele><time>2026-04-25T06:50:09.999Z</time></trkpt><trkpt lat="45.78212578176956" lon="9.19977971296384"><ele>279.0</ele><time>2026-04-25T06:50:10.999Z</time></trkpt><trkpt lat="45.78206279251459" lon="9.199737340856927"><ele>279.0</ele><time>2026-04-25T06:50:11.999Z</time></trkpt><trkpt lat="45.781989979522066" lon="9.199705597212315"><ele>279.0</ele><time>2026-04-25T06:50:12.999Z</time></trkpt><trkpt lat="45.78191279694619" lon="9.19968218846612"><ele>279.0</ele><time>2026-04-25T06:50:13.999Z</time></trkpt><trkpt lat="45.78182936756471" lon="9.199662119113285"><ele>279.0</ele><time>2026-04-25T06:50:14.999Z</time></trkpt><trkpt lat="45.78174141129645" lon="9.199662730271022"><ele>278.3333333333333</ele><time>2026-04-25T06:50:15.999Z</time></trkpt><trkpt lat="45.781656150558945" lon="9.199670968730945"><ele>277.6666666666667</ele><time>2026-04-25T06:50:16.999Z</time></trkpt><trkpt lat="45.78157124692027" lon="9.199680832263558"><ele>277.0</ele><time>2026-04-25T06:50:17.999Z</time></trkpt><trkpt lat="45.78149111303229" lon="9.199691572638155"><ele>276.33333333333337</ele><time>2026-04-25T06:50:18.999Z</time></trkpt><trkpt lat="45.781409519658474" lon="9.199702508630129"><ele>275.6666666666667</ele><time>2026-04-25T06:50:19.999Z</time></trkpt><trkpt lat="45.781328288710796" lon="9.199714020251212"><ele>275.0</ele><time>2026-04-25T06:50:20.999Z</time></trkpt><trkpt lat="45.78125037836477" lon="9.199725180894434"><ele>275.0</ele><time>2026-04-25T06:50:21.999Z</time></trkpt><trkpt lat="45.78116834212652" lon="9.199736932573366"><ele>275.0</ele><time>2026-04-25T06:50:22.999Z</time></trkpt><trkpt lat="45.78108917689381" lon="9.199748272979395"><ele>275.0</ele><time>2026-04-25T06:50:23.999Z</time></trkpt><trkpt lat="45.78100879268652" lon="9.199757538600425"><ele>275.0</ele><time>2026-04-25T06:50:24.999Z</time></trkpt><trkpt lat="45.78092860180605" lon="9.199764382239016"><ele>275.0</ele><time>2026-04-25T06:50:25.999Z</time></trkpt><trkpt lat="45.780849627705635" lon="9.199770232535055"><ele>275.0</ele><time>2026-04-25T06:50:26.999Z</time></trkpt><trkpt lat="45.78076994869012" lon="9.199754547372944"><ele>274.5</ele><time>2026-04-25T06:50:27.999Z</time></trkpt><trkpt lat="45.78069567931043" lon="9.19973713779266"><ele>274.0</ele><time>2026-04-25T06:50:28.999Z</time></trkpt><trkpt lat="45.78061290882914" lon="9.199729712609859"><ele>273.5</ele><time>2026-04-25T06:50:29.999Z</time></trkpt><trkpt lat="45.78053282333047" lon="9.199729712601966"><ele>273.0</ele><time>2026-04-25T06:50:30.999Z</time></trkpt><trkpt lat="45.78044787106588" lon="9.199765912604907"><ele>272.5</ele><time>2026-04-25T06:50:31.999Z</time></trkpt><trkpt lat="45.78036972136416" lon="9.199765912604967"><ele>272.0</ele><time>2026-04-25T06:50:32.999Z</time></trkpt><trkpt lat="45.7802940081258" lon="9.199746670841588"><ele>271.99999999999994</ele><time>2026-04-25T06:50:33.999Z</time></trkpt><trkpt lat="45.78022656719406" lon="9.199705994081674"><ele>272.0</ele><time>2026-04-25T06:50:34.999Z</time></trkpt><trkpt lat="45.78016828403264" lon="9.199651476808135"><ele>272.0</ele><time>2026-04-25T06:50:35.999Z</time></trkpt><trkpt lat="45.78010702112162" lon="9.19960740571806"><ele>272.0</ele><time>2026-04-25T06:50:36.999Z</time></trkpt><trkpt lat="45.78004090298611" lon="9.199567664945437"><ele>272.0</ele><time>2026-04-25T06:50:37.999Z</time></trkpt><trkpt lat="45.77996364181514" lon="9.199543437322145"><ele>271.99999999999994</ele><time>2026-04-25T06:50:38.999Z</time></trkpt><trkpt lat="45.77988567947936" lon="9.199528858003807"><ele>272.0</ele><time>2026-04-25T06:50:39.999Z</time></trkpt><trkpt lat="45.779803356673575" lon="9.19952192965558"><ele>271.83333333333337</ele><time>2026-04-25T06:50:40.999Z</time></trkpt><trkpt lat="45.779721580078615" lon="9.199528461481906"><ele>271.6666666666667</ele><time>2026-04-25T06:50:41.999Z</time></trkpt><trkpt lat="45.779644093834705" lon="9.199521322041514"><ele>271.5</ele><time>2026-04-25T06:50:43Z</time></trkpt><trkpt lat="45.77956732618924" lon="9.19950963243074"><ele>271.3333333333333</ele><time>2026-04-25T06:50:44Z</time></trkpt><trkpt lat="45.77950462721264" lon="9.199476205872124"><ele>271.16666666666663</ele><time>2026-04-25T06:50:45Z</time></trkpt><trkpt lat="45.77944238260782" lon="9.199447890074405"><ele>271.0</ele><time>2026-04-25T06:50:46Z</time></trkpt><trkpt lat="45.77933591767253" lon="9.199392172862394"><ele>271.0</ele><time>2026-04-25T06:50:48Z</time></trkpt><trkpt lat="45.779236307149866" lon="9.199336378444388"><ele>271.0</ele><time>2026-04-25T06:50:50Z</time></trkpt><trkpt lat="45.77913495871291" lon="9.199275247027671"><ele>271.0</ele><time>2026-04-25T06:50:52Z</time></trkpt><trkpt lat="45.779031036296196" lon="9.199210862846064"><ele>271.0</ele><time>2026-04-25T06:50:54Z</time></trkpt><trkpt lat="45.77892172747384" lon="9.19915618359083"><ele>271.0</ele><time>2026-04-25T06:50:56Z</time></trkpt><trkpt lat="45.77881608366126" lon="9.199129162433051"><ele>271.0</ele><time>2026-04-25T06:50:58Z</time></trkpt><trkpt lat="45.778711921188304" lon="9.199129414894424"><ele>271.0</ele><time>2026-04-25T06:51:00Z</time></trkpt><trkpt lat="45.77861674543251" lon="9.199132656896637"><ele>271.0</ele><time>2026-04-25T06:51:02Z</time></trkpt><trkpt lat="45.77852250660798" lon="9.199187405181233"><ele>271.0</ele><time>2026-04-25T06:51:03.999Z</time></trkpt><trkpt lat="45.77843014443354" lon="9.199209949094042"><ele>271.0</ele><time>2026-04-25T06:51:05.999Z</time></trkpt><trkpt lat="45.77833857194966" lon="9.199243785491207"><ele>271.8333333333333</ele><time>2026-04-25T06:51:07.999Z</time></trkpt><trkpt lat="45.778248006841906" lon="9.199271846046946"><ele>272.66666666666663</ele><time>2026-04-25T06:51:09.999Z</time></trkpt><trkpt lat="45.778153864447425" lon="9.19924389196766"><ele>273.5</ele><time>2026-04-25T06:51:11.999Z</time></trkpt><trkpt lat="45.778072799930804" lon="9.199253082876963"><ele>274.3333333333333</ele><time>2026-04-25T06:51:13.999Z</time></trkpt><trkpt lat="45.777990479912546" lon="9.199249113629763"><ele>275.1666666666667</ele><time>2026-04-25T06:51:15.999Z</time></trkpt><trkpt lat="45.77790603061946" lon="9.199241106507067"><ele>276.0</ele><time>2026-04-25T06:51:17.999Z</time></trkpt><trkpt lat="45.77781707098329" lon="9.199277677051402"><ele>276.0</ele><time>2026-04-25T06:51:19.999Z</time></trkpt><trkpt lat="45.77773163110385" lon="9.199261431064462"><ele>276.0</ele><time>2026-04-25T06:51:21.999Z</time></trkpt><trkpt lat="45.77764379523061" lon="9.199252445565989"><ele>276.0</ele><time>2026-04-25T06:51:23.999Z</time></trkpt><trkpt lat="45.77755763561019" lon="9.199241800056233"><ele>276.0</ele><time>2026-04-25T06:51:25.999Z</time></trkpt><trkpt lat="45.77747008911023" lon="9.199241271926223"><ele>276.0</ele><time>2026-04-25T06:51:27.999Z</time></trkpt><trkpt lat="45.77738144040932" lon="9.199237943229235"><ele>276.0</ele><time>2026-04-25T06:51:29.999Z</time></trkpt><trkpt lat="45.777300582201576" lon="9.199213993498804"><ele>276.8</ele><time>2026-04-25T06:51:31.999Z</time></trkpt><trkpt lat="45.777218948028846" lon="9.199186562935232"><ele>277.6</ele><time>2026-04-25T06:51:33.999Z</time></trkpt><trkpt lat="45.7771257367981" lon="9.19917947686543"><ele>278.4</ele><time>2026-04-25T06:51:35.999Z</time></trkpt><trkpt lat="45.77703144553555" lon="9.19917671358015"><ele>279.2</ele><time>2026-04-25T06:51:37.999Z</time></trkpt><trkpt lat="45.77693688865017" lon="9.19917440516985"><ele>280.0</ele><time>2026-04-25T06:51:39.999Z</time></trkpt><trkpt lat="45.77684570155803" lon="9.199181593613297"><ele>280.6</ele><time>2026-04-25T06:51:41.999Z</time></trkpt><trkpt lat="45.7767566264703" lon="9.199190977309863"><ele>281.2</ele><time>2026-04-25T06:51:43.999Z</time></trkpt><trkpt lat="45.77666405821625" lon="9.199208554846217"><ele>281.8</ele><time>2026-04-25T06:51:45.999Z</time></trkpt><trkpt lat="45.776569210755184" lon="9.199245182078242"><ele>282.4</ele><time>2026-04-25T06:51:47.999Z</time></trkpt><trkpt lat="45.77647389348004" lon="9.199270750459268"><ele>283.0</ele><time>2026-04-25T06:51:49.999Z</time></trkpt><trkpt lat="45.77637981684886" lon="9.199299460359168"><ele>283.0</ele><time>2026-04-25T06:51:51.999Z</time></trkpt><trkpt lat="45.776282576515996" lon="9.199316334925893"><ele>283.0</ele><time>2026-04-25T06:51:53.999Z</time></trkpt><trkpt lat="45.77618721454119" lon="9.199342129919865"><ele>283.0</ele><time>2026-04-25T06:51:55.999Z</time></trkpt><trkpt lat="45.77609238910923" lon="9.199369973535804"><ele>283.0</ele><time>2026-04-25T06:51:57.999Z</time></trkpt><trkpt lat="45.77599845637435" lon="9.199400033981322"><ele>283.0</ele><time>2026-04-25T06:51:59.999Z</time></trkpt><trkpt lat="45.77590303472222" lon="9.199419355494898"><ele>284.66666666666663</ele><time>2026-04-25T06:52:01.999Z</time></trkpt><trkpt lat="45.77581161539685" lon="9.199447140385944"><ele>286.3333333333333</ele><time>2026-04-25T06:52:03.999Z</time></trkpt><trkpt lat="45.77573028730172" lon="9.199473176429143"><ele>288.0</ele><time>2026-04-25T06:52:05.999Z</time></trkpt><trkpt lat="45.77564954846713" lon="9.199492175864512"><ele>289.6666666666667</ele><time>2026-04-25T06:52:07.999Z</time></trkpt><trkpt lat="45.77556621471575" lon="9.19951163317371"><ele>291.33333333333337</ele><time>2026-04-25T06:52:09.999Z</time></trkpt><trkpt lat="45.77548376224522" lon="9.19954271289157"><ele>293.0</ele><time>2026-04-25T06:52:11.999Z</time></trkpt><trkpt lat="45.775401813932795" lon="9.199570877530412"><ele>293.0</ele><time>2026-04-25T06:52:13.999Z</time></trkpt><trkpt lat="45.77532601476135" lon="9.199590783147618"><ele>293.0</ele><time>2026-04-25T06:52:15.999Z</time></trkpt><trkpt lat="45.77525170490424" lon="9.19961988804167"><ele>293.0</ele><time>2026-04-25T06:52:17.999Z</time></trkpt><trkpt lat="45.77518112292897" lon="9.19967475541375"><ele>293.0</ele><time>2026-04-25T06:52:19.999Z</time></trkpt><trkpt lat="45.77511712232699" lon="9.19973761875748"><ele>293.0</ele><time>2026-04-25T06:52:21.999Z</time></trkpt><trkpt lat="45.77505815783203" lon="9.199813648886476"><ele>293.0</ele><time>2026-04-25T06:52:23.999Z</time></trkpt><trkpt lat="45.77500121891693" lon="9.199888987457125"><ele>293.6666666666667</ele><time>2026-04-25T06:52:25.999Z</time></trkpt><trkpt lat="45.77494722707027" lon="9.199962838889748"><ele>294.33333333333337</ele><time>2026-04-25T06:52:27.999Z</time></trkpt><trkpt lat="45.77488621530364" lon="9.200035369373607"><ele>295.0</ele><time>2026-04-25T06:52:29.999Z</time></trkpt><trkpt lat="45.774823570418185" lon="9.200110269589114"><ele>295.6666666666667</ele><time>2026-04-25T06:52:31.999Z</time></trkpt><trkpt lat="45.774762674235234" lon="9.200186608843083"><ele>296.3333333333333</ele><time>2026-04-25T06:52:33.999Z</time></trkpt><trkpt lat="45.77469837374738" lon="9.200253885024278"><ele>297.0</ele><time>2026-04-25T06:52:35.999Z</time></trkpt><trkpt lat="45.774629326315754" lon="9.200315640652677"><ele>297.0</ele><time>2026-04-25T06:52:37.999Z</time></trkpt><trkpt lat="45.7745505081149" lon="9.200353941075772"><ele>297.0</ele><time>2026-04-25T06:52:39.999Z</time></trkpt><trkpt lat="45.774474347765846" lon="9.200359204699131"><ele>297.0</ele><time>2026-04-25T06:52:41.999Z</time></trkpt><trkpt lat="45.77439890772686" lon="9.200336662732742"><ele>297.0</ele><time>2026-04-25T06:52:43.999Z</time></trkpt><trkpt lat="45.77432550243908" lon="9.200295758141237"><ele>297.0</ele><time>2026-04-25T06:52:45.999Z</time></trkpt><trkpt lat="45.77424951410519" lon="9.200254371180408"><ele>297.0</ele><time>2026-04-25T06:52:47.999Z</time></trkpt><trkpt lat="45.77417364218592" lon="9.200210297630854"><ele>297.6</ele><time>2026-04-25T06:52:50Z</time></trkpt><trkpt lat="45.774097978036195" lon="9.200166095279346"><ele>298.2</ele><time>2026-04-25T06:52:52Z</time></trkpt><trkpt lat="45.77400966470281" lon="9.20011339315473"><ele>298.8</ele><time>2026-04-25T06:52:54Z</time></trkpt><trkpt lat="45.773922370040204" lon="9.200040477320618"><ele>299.4</ele><time>2026-04-25T06:52:56Z</time></trkpt><trkpt lat="45.77383263908457" lon="9.19996226313003"><ele>300.0</ele><time>2026-04-25T06:52:58Z</time></trkpt><trkpt lat="45.77374395963099" lon="9.199859014362355"><ele>300.4</ele><time>2026-04-25T06:53:00Z</time></trkpt><trkpt lat="45.77364807570952" lon="9.199780877504505"><ele>300.8</ele><time>2026-04-25T06:53:02Z</time></trkpt><trkpt lat="45.77355466021464" lon="9.19970475208611"><ele>301.2</ele><time>2026-04-25T06:53:04Z</time></trkpt><trkpt lat="45.77346105595532" lon="9.199628472880466"><ele>301.6</ele><time>2026-04-25T06:53:06Z</time></trkpt><trkpt lat="45.77336427703496" lon="9.19954995260063"><ele>302.0</ele><time>2026-04-25T06:53:08Z</time></trkpt><trkpt lat="45.77326658847171" lon="9.199470906925239"><ele>302.4</ele><time>2026-04-25T06:53:10Z</time></trkpt><trkpt lat="45.77317361830392" lon="9.199395679111204"><ele>302.79999999999995</ele><time>2026-04-25T06:53:12Z</time></trkpt><trkpt lat="45.773083707471464" lon="9.199322912441628"><ele>303.2</ele><time>2026-04-25T06:53:14Z</time></trkpt><trkpt lat="45.772996106617256" lon="9.199251732761834"><ele>303.59999999999997</ele><time>2026-04-25T06:53:15.999Z</time></trkpt><trkpt lat="45.77290929246463" lon="9.199181271570447"><ele>304.0</ele><time>2026-04-25T06:53:17.999Z</time></trkpt><trkpt lat="45.77282047890608" lon="9.199109187563359"><ele>304.0</ele><time>2026-04-25T06:53:19.999Z</time></trkpt><trkpt lat="45.77273381349628" lon="9.199039241958793"><ele>304.0</ele><time>2026-04-25T06:53:21.999Z</time></trkpt><trkpt lat="45.77264758202216" lon="9.19897112763481"><ele>304.0</ele><time>2026-04-25T06:53:23.999Z</time></trkpt><trkpt lat="45.77256637533739" lon="9.19890954766223"><ele>304.0</ele><time>2026-04-25T06:53:25.999Z</time></trkpt><trkpt lat="45.77247742334814" lon="9.198889884360103"><ele>304.0</ele><time>2026-04-25T06:53:27.999Z</time></trkpt><trkpt lat="45.77239444852473" lon="9.198846911159528"><ele>305.3333333333333</ele><time>2026-04-25T06:53:29.999Z</time></trkpt><trkpt lat="45.77231168633346" lon="9.198805040163272"><ele>306.66666666666663</ele><time>2026-04-25T06:53:31.999Z</time></trkpt><trkpt lat="45.77222340555398" lon="9.198790786091125"><ele>308.0</ele><time>2026-04-25T06:53:33.999Z</time></trkpt><trkpt lat="45.77213460581366" lon="9.198805260329802"><ele>309.3333333333333</ele><time>2026-04-25T06:53:35.999Z</time></trkpt><trkpt lat="45.772052248805295" lon="9.198822368090061"><ele>310.6666666666667</ele><time>2026-04-25T06:53:37.999Z</time></trkpt><trkpt lat="45.77197397326833" lon="9.198848854986197"><ele>312.0</ele><time>2026-04-25T06:53:39.999Z</time></trkpt><trkpt lat="45.77189517235523" lon="9.198871916589887"><ele>312.0</ele><time>2026-04-25T06:53:41.999Z</time></trkpt><trkpt lat="45.771816735476236" lon="9.198903217796873"><ele>312.0</ele><time>2026-04-25T06:53:43.999Z</time></trkpt><trkpt lat="45.77173379611967" lon="9.198928946097313"><ele>312.0</ele><time>2026-04-25T06:53:45.999Z</time></trkpt><trkpt lat="45.77165293685971" lon="9.19895153886871"><ele>312.0</ele><time>2026-04-25T06:53:47.999Z</time></trkpt><trkpt lat="45.77157486184628" lon="9.198980934879625"><ele>312.0</ele><time>2026-04-25T06:53:49.999Z</time></trkpt><trkpt lat="45.77149715839243" lon="9.19901642829931"><ele>312.0</ele><time>2026-04-25T06:53:51.999Z</time></trkpt><trkpt lat="45.77142037361708" lon="9.199038997184328"><ele>312.0</ele><time>2026-04-25T06:53:53.999Z</time></trkpt><trkpt lat="45.771344701588625" lon="9.19906566027417"><ele>312.0</ele><time>2026-04-25T06:53:55.999Z</time></trkpt><trkpt lat="45.771269961488926" lon="9.199087744273951"><ele>312.0</ele><time>2026-04-25T06:53:57.999Z</time></trkpt><trkpt lat="45.77119416246048" lon="9.199110009660542"><ele>312.0</ele><time>2026-04-25T06:53:59.999Z</time></trkpt><trkpt lat="45.77111837270053" lon="9.19912703149105"><ele>312.0</ele><time>2026-04-25T06:54:01.999Z</time></trkpt><trkpt lat="45.77104169912426" lon="9.199142764462309"><ele>312.0</ele><time>2026-04-25T06:54:03.999Z</time></trkpt><trkpt lat="45.77096909182892" lon="9.199174180948155"><ele>314.0</ele><time>2026-04-25T06:54:05.999Z</time></trkpt><trkpt lat="45.77089356748313" lon="9.199206081290813"><ele>316.0</ele><time>2026-04-25T06:54:07.999Z</time></trkpt><trkpt lat="45.770816057122104" lon="9.199241663676043"><ele>318.0</ele><time>2026-04-25T06:54:09.999Z</time></trkpt><trkpt lat="45.77073634972847" lon="9.19926102502964"><ele>320.0</ele><time>2026-04-25T06:54:11.999Z</time></trkpt><trkpt lat="45.770658790379514" lon="9.199281485614529"><ele>322.0</ele><time>2026-04-25T06:54:13.999Z</time></trkpt><trkpt lat="45.77058156637375" lon="9.199305360504722"><ele>324.0</ele><time>2026-04-25T06:54:15.999Z</time></trkpt><trkpt lat="45.77050543146799" lon="9.19933186840345"><ele>324.0</ele><time>2026-04-25T06:54:17.999Z</time></trkpt><trkpt lat="45.77042948691108" lon="9.199356900185952"><ele>324.0</ele><time>2026-04-25T06:54:19.999Z</time></trkpt><trkpt lat="45.77035358906362" lon="9.199389582637048"><ele>324.0</ele><time>2026-04-25T06:54:21.999Z</time></trkpt><trkpt lat="45.770270584766045" lon="9.199413155000734"><ele>324.0</ele><time>2026-04-25T06:54:23.999Z</time></trkpt><trkpt lat="45.77018853469219" lon="9.199434318765404"><ele>324.0</ele><time>2026-04-25T06:54:25.999Z</time></trkpt><trkpt lat="45.7701042329705" lon="9.199449902676214"><ele>324.0</ele><time>2026-04-25T06:54:27.999Z</time></trkpt><trkpt lat="45.770022057098785" lon="9.199454350497428"><ele>324.3333333333333</ele><time>2026-04-25T06:54:29.999Z</time></trkpt><trkpt lat="45.76994086362983" lon="9.199451220069449"><ele>324.6666666666667</ele><time>2026-04-25T06:54:31.999Z</time></trkpt><trkpt lat="45.76990643286119" lon="9.199344373664982"><ele>325.0</ele><time>2026-04-25T06:54:33.999Z</time></trkpt><trkpt lat="45.769903863975514" lon="9.199197893214983"><ele>325.33333333333337</ele><time>2026-04-25T06:54:35.999Z</time></trkpt><trkpt lat="45.76988627798488" lon="9.199038811956433"><ele>325.6666666666667</ele><time>2026-04-25T06:54:37.999Z</time></trkpt><trkpt lat="45.76989209753385" lon="9.198947754908373"><ele>326.0</ele><time>2026-04-25T06:54:38.999Z</time></trkpt><trkpt lat="45.76986717401021" lon="9.19886106007504"><ele>326.0</ele><time>2026-04-25T06:54:39.999Z</time></trkpt><trkpt lat="45.76987494151291" lon="9.198769040365141"><ele>326.0</ele><time>2026-04-25T06:54:40.999Z</time></trkpt><trkpt lat="45.769851294102594" lon="9.198682014899601"><ele>326.0</ele><time>2026-04-25T06:54:41.999Z</time></trkpt><trkpt lat="45.769844594107624" lon="9.198588432544344"><ele>326.0</ele><time>2026-04-25T06:54:42.999Z</time></trkpt><trkpt lat="45.769840136977486" lon="9.198493423370131"><ele>326.0</ele><time>2026-04-25T06:54:43.999Z</time></trkpt><trkpt lat="45.76982964382413" lon="9.19839795895712"><ele>326.0</ele><time>2026-04-25T06:54:44.999Z</time></trkpt><trkpt lat="45.769816600466164" lon="9.198299582149197"><ele>326.0</ele><time>2026-04-25T06:54:45.999Z</time></trkpt><trkpt lat="45.76980639771687" lon="9.198194583678973"><ele>325.5</ele><time>2026-04-25T06:54:46.999Z</time></trkpt><trkpt lat="45.769802735940736" lon="9.198088478917054"><ele>325.0</ele><time>2026-04-25T06:54:47.999Z</time></trkpt><trkpt lat="45.769789156746924" lon="9.197983188502372"><ele>324.5</ele><time>2026-04-25T06:54:48.999Z</time></trkpt><trkpt lat="45.769776368345234" lon="9.19787721747684"><ele>324.0</ele><time>2026-04-25T06:54:49.999Z</time></trkpt><trkpt lat="45.769766514132975" lon="9.197769422045475"><ele>323.5</ele><time>2026-04-25T06:54:50.999Z</time></trkpt><trkpt lat="45.76975466820508" lon="9.197659559695781"><ele>323.0</ele><time>2026-04-25T06:54:51.999Z</time></trkpt><trkpt lat="45.769743046884706" lon="9.197547994324994"><ele>323.0</ele><time>2026-04-25T06:54:52.999Z</time></trkpt><trkpt lat="45.76973566097273" lon="9.19744067346018"><ele>323.0</ele><time>2026-04-25T06:54:53.999Z</time></trkpt><trkpt lat="45.76972299248941" lon="9.197332656793014"><ele>323.0</ele><time>2026-04-25T06:54:55Z</time></trkpt><trkpt lat="45.76970856710439" lon="9.197225370305954"><ele>323.0</ele><time>2026-04-25T06:54:56Z</time></trkpt><trkpt lat="45.76969384056609" lon="9.197116072140416"><ele>323.0</ele><time>2026-04-25T06:54:57Z</time></trkpt><trkpt lat="45.76968325348453" lon="9.197009349805937"><ele>323.0</ele><time>2026-04-25T06:54:58Z</time></trkpt><trkpt lat="45.76966626987652" lon="9.196909555467117"><ele>322.8571428571429</ele><time>2026-04-25T06:54:59Z</time></trkpt><trkpt lat="45.7696566957356" lon="9.1968070706847"><ele>322.7142857142857</ele><time>2026-04-25T06:55:00Z</time></trkpt><trkpt lat="45.76964581372808" lon="9.196705409911166"><ele>322.57142857142856</ele><time>2026-04-25T06:55:01Z</time></trkpt><trkpt lat="45.76962989261516" lon="9.196607783953137"><ele>322.42857142857144</ele><time>2026-04-25T06:55:02Z</time></trkpt><trkpt lat="45.76960941121953" lon="9.196511093624741"><ele>322.2857142857143</ele><time>2026-04-25T06:55:03Z</time></trkpt><trkpt lat="45.769600662523416" lon="9.196412363555565"><ele>322.14285714285717</ele><time>2026-04-25T06:55:04Z</time></trkpt><trkpt lat="45.7695438557578" lon="9.19633639204285"><ele>322.0</ele><time>2026-04-25T06:55:05Z</time></trkpt><trkpt lat="45.76950983209863" lon="9.196256197458698"><ele>322.40000000000003</ele><time>2026-04-25T06:55:06Z</time></trkpt><trkpt lat="45.76947414109302" lon="9.19618080820218"><ele>322.8</ele><time>2026-04-25T06:55:07Z</time></trkpt><trkpt lat="45.76943854311741" lon="9.196106335470391"><ele>323.2</ele><time>2026-04-25T06:55:08Z</time></trkpt><trkpt lat="45.769391746513286" lon="9.195939950552825"><ele>323.6</ele><time>2026-04-25T06:55:10Z</time></trkpt><trkpt lat="45.769332090887836" lon="9.195790423223949"><ele>324.0</ele><time>2026-04-25T06:55:12Z</time></trkpt><trkpt lat="45.76927354203938" lon="9.19564310902422"><ele>325.0</ele><time>2026-04-25T06:55:14Z</time></trkpt><trkpt lat="45.769212420269724" lon="9.195495686818099"><ele>326.0</ele><time>2026-04-25T06:55:16Z</time></trkpt><trkpt lat="45.769148764059544" lon="9.195357143985138"><ele>327.0</ele><time>2026-04-25T06:55:18Z</time></trkpt><trkpt lat="45.769073764265826" lon="9.195232513486413"><ele>328.0</ele><time>2026-04-25T06:55:20Z</time></trkpt><trkpt lat="45.76899385658842" lon="9.195113875505264"><ele>328.0</ele><time>2026-04-25T06:55:22Z</time></trkpt><trkpt lat="45.7689865096343" lon="9.195005389294428"><ele>328.0</ele><time>2026-04-25T06:55:23Z</time></trkpt><trkpt lat="45.76893489762385" lon="9.194855215013263"><ele>328.0</ele><time>2026-04-25T06:55:25Z</time></trkpt><trkpt lat="45.76887687467177" lon="9.19471050606832"><ele>328.0</ele><time>2026-04-25T06:55:27Z</time></trkpt><trkpt lat="45.768824610021824" lon="9.194559003385798"><ele>328.0</ele><time>2026-04-25T06:55:29Z</time></trkpt><trkpt lat="45.76876667406886" lon="9.19440589399516"><ele>328.0</ele><time>2026-04-25T06:55:31Z</time></trkpt><trkpt lat="45.76870787919331" lon="9.194255062470576"><ele>328.0</ele><time>2026-04-25T06:55:33Z</time></trkpt><trkpt lat="45.76865277604995" lon="9.194101523980084"><ele>328.0</ele><time>2026-04-25T06:55:35Z</time></trkpt><trkpt lat="45.76859693037721" lon="9.193951447272138"><ele>328.0</ele><time>2026-04-25T06:55:37Z</time></trkpt><trkpt lat="45.76854724216683" lon="9.193809808283014"><ele>329.75</ele><time>2026-04-25T06:55:39Z</time></trkpt><trkpt lat="45.76849431149779" lon="9.193670570507962"><ele>331.5</ele><time>2026-04-25T06:55:41Z</time></trkpt><trkpt lat="45.768437115794455" lon="9.193528306306296"><ele>333.25</ele><time>2026-04-25T06:55:43Z</time></trkpt><trkpt lat="45.768377220476445" lon="9.193384415038844"><ele>335.0</ele><time>2026-04-25T06:55:44.999Z</time></trkpt><trkpt lat="45.76831533729521" lon="9.193240841610002"><ele>335.8</ele><time>2026-04-25T06:55:46.999Z</time></trkpt><trkpt lat="45.76825924923183" lon="9.19310200973316"><ele>336.6</ele><time>2026-04-25T06:55:48.999Z</time></trkpt><trkpt lat="45.76820929445053" lon="9.19296350165557"><ele>337.4</ele><time>2026-04-25T06:55:50.999Z</time></trkpt><trkpt lat="45.76815370494091" lon="9.192831700269545"><ele>338.2</ele><time>2026-04-25T06:55:52.999Z</time></trkpt><trkpt lat="45.768102096816015" lon="9.192701005500325"><ele>339.0</ele><time>2026-04-25T06:55:54.999Z</time></trkpt><trkpt lat="45.76805604149976" lon="9.192562991248975"><ele>339.0</ele><time>2026-04-25T06:55:56.999Z</time></trkpt><trkpt lat="45.768002906233114" lon="9.192433303394404"><ele>339.0</ele><time>2026-04-25T06:55:58.999Z</time></trkpt><trkpt lat="45.76795132293882" lon="9.192301301396178"><ele>339.0</ele><time>2026-04-25T06:56:00.999Z</time></trkpt><trkpt lat="45.76790057120499" lon="9.192168677736912"><ele>339.0</ele><time>2026-04-25T06:56:02.999Z</time></trkpt><trkpt lat="45.767848405397864" lon="9.19203553952297"><ele>339.0</ele><time>2026-04-25T06:56:04.999Z</time></trkpt><trkpt lat="45.76779300492234" lon="9.191908928013467"><ele>340.6</ele><time>2026-04-25T06:56:06.999Z</time></trkpt><trkpt lat="45.76773695130151" lon="9.191780939437143"><ele>342.2</ele><time>2026-04-25T06:56:08.999Z</time></trkpt><trkpt lat="45.76768543163714" lon="9.191644825822557"><ele>343.8</ele><time>2026-04-25T06:56:10.999Z</time></trkpt><trkpt lat="45.767647157967644" lon="9.191498954872827"><ele>345.40000000000003</ele><time>2026-04-25T06:56:12.999Z</time></trkpt><trkpt lat="45.76761740398946" lon="9.191351397653762"><ele>347.0</ele><time>2026-04-25T06:56:14.999Z</time></trkpt><trkpt lat="45.767582159015596" lon="9.191207090150062"><ele>347.20000000000005</ele><time>2026-04-25T06:56:16.999Z</time></trkpt><trkpt lat="45.767519850983064" lon="9.191071728076123"><ele>347.4</ele><time>2026-04-25T06:56:18.999Z</time></trkpt><trkpt lat="45.76746213473583" lon="9.190934405660128"><ele>347.6</ele><time>2026-04-25T06:56:20.999Z</time></trkpt><trkpt lat="45.767436397923305" lon="9.190779757669976"><ele>347.79999999999995</ele><time>2026-04-25T06:56:22.999Z</time></trkpt><trkpt lat="45.767423996287384" lon="9.190621856398247"><ele>348.0</ele><time>2026-04-25T06:56:24.999Z</time></trkpt><trkpt lat="45.76740098242965" lon="9.190467993169037"><ele>348.4</ele><time>2026-04-25T06:56:26.999Z</time></trkpt><trkpt lat="45.767387741416925" lon="9.1903114086489"><ele>348.79999999999995</ele><time>2026-04-25T06:56:28.999Z</time></trkpt><trkpt lat="45.767370142269456" lon="9.190156709376815"><ele>349.2</ele><time>2026-04-25T06:56:30.999Z</time></trkpt><trkpt lat="45.76735122979274" lon="9.190006396758108"><ele>349.6</ele><time>2026-04-25T06:56:32.999Z</time></trkpt><trkpt lat="45.767337611665354" lon="9.189850539272726"><ele>350.0</ele><time>2026-04-25T06:56:34.999Z</time></trkpt><trkpt lat="45.76732751339156" lon="9.189692868653946"><ele>350.5</ele><time>2026-04-25T06:56:36.999Z</time></trkpt><trkpt lat="45.767311756549795" lon="9.18953695767547"><ele>351.0</ele><time>2026-04-25T06:56:38.999Z</time></trkpt><trkpt lat="45.76729545232509" lon="9.189376648270999"><ele>351.5</ele><time>2026-04-25T06:56:40.999Z</time></trkpt><trkpt lat="45.76727723207706" lon="9.189214055066927"><ele>352.0</ele><time>2026-04-25T06:56:42.999Z</time></trkpt><trkpt lat="45.76726075080791" lon="9.189047828248404"><ele>352.66666666666663</ele><time>2026-04-25T06:56:44.999Z</time></trkpt><trkpt lat="45.76724253640961" lon="9.188875141426749"><ele>353.3333333333333</ele><time>2026-04-25T06:56:46.999Z</time></trkpt><trkpt lat="45.76722131849307" lon="9.188697732559483"><ele>354.0</ele><time>2026-04-25T06:56:48.999Z</time></trkpt><trkpt lat="45.76721260267418" lon="9.188606369223315"><ele>354.6666666666667</ele><time>2026-04-25T06:56:49.999Z</time></trkpt><trkpt lat="45.76720305876995" lon="9.18851362597266"><ele>355.33333333333337</ele><time>2026-04-25T06:56:50.999Z</time></trkpt><trkpt lat="45.76719293035052" lon="9.188419578018237"><ele>356.0</ele><time>2026-04-25T06:56:51.999Z</time></trkpt><trkpt lat="45.76718454199734" lon="9.188325526746613"><ele>355.99999999999994</ele><time>2026-04-25T06:56:52.999Z</time></trkpt><trkpt lat="45.76718046841226" lon="9.188228196805929"><ele>356.0</ele><time>2026-04-25T06:56:53.999Z</time></trkpt><trkpt lat="45.76717814063992" lon="9.188128820809615"><ele>356.0</ele><time>2026-04-25T06:56:54.999Z</time></trkpt><trkpt lat="45.767177011412514" lon="9.18803027657257"><ele>356.0</ele><time>2026-04-25T06:56:55.999Z</time></trkpt><trkpt lat="45.767179912454814" lon="9.187931697358227"><ele>356.0</ele><time>2026-04-25T06:56:56.999Z</time></trkpt><trkpt lat="45.767187883046894" lon="9.187831710564707"><ele>355.99999999999994</ele><time>2026-04-25T06:56:57.999Z</time></trkpt><trkpt lat="45.76719964998591" lon="9.187733935943692"><ele>356.0</ele><time>2026-04-25T06:56:58.999Z</time></trkpt><trkpt lat="45.7672161065704" lon="9.18764314518967"><ele>356.0</ele><time>2026-04-25T06:56:59.999Z</time></trkpt><trkpt lat="45.76723195590239" lon="9.187554785597614"><ele>356.0</ele><time>2026-04-25T06:57:01Z</time></trkpt><trkpt lat="45.767270246864754" lon="9.187389902332297"><ele>356.0</ele><time>2026-04-25T06:57:03Z</time></trkpt><trkpt lat="45.76729678358885" lon="9.18730473732115"><ele>356.0</ele><time>2026-04-25T06:57:04Z</time></trkpt><trkpt lat="45.767325085785785" lon="9.187221280709013"><ele>356.0</ele><time>2026-04-25T06:57:05Z</time></trkpt><trkpt lat="45.76735317298394" lon="9.18713610043742"><ele>356.0</ele><time>2026-04-25T06:57:06Z</time></trkpt><trkpt lat="45.7673898083733" lon="9.187051709169316"><ele>355.99999999999994</ele><time>2026-04-25T06:57:07Z</time></trkpt><trkpt lat="45.767429454495584" lon="9.18697188470027"><ele>356.0</ele><time>2026-04-25T06:57:08Z</time></trkpt><trkpt lat="45.76747184696312" lon="9.186895270029655"><ele>356.0</ele><time>2026-04-25T06:57:09Z</time></trkpt><trkpt lat="45.76751387451373" lon="9.186818377310775"><ele>356.0</ele><time>2026-04-25T06:57:10Z</time></trkpt><trkpt lat="45.76756060399968" lon="9.186748397249321"><ele>356.0</ele><time>2026-04-25T06:57:11Z</time></trkpt><trkpt lat="45.76760949527063" lon="9.18668205601999"><ele>355.99999999999994</ele><time>2026-04-25T06:57:12Z</time></trkpt><trkpt lat="45.76765689280653" lon="9.186615458308033"><ele>356.0</ele><time>2026-04-25T06:57:13Z</time></trkpt><trkpt lat="45.767702149174546" lon="9.186549968250546"><ele>356.2857142857143</ele><time>2026-04-25T06:57:14Z</time></trkpt><trkpt lat="45.76774803810695" lon="9.186482811597843"><ele>356.57142857142856</ele><time>2026-04-25T06:57:15Z</time></trkpt><trkpt lat="45.76779338462128" lon="9.18641666508467"><ele>356.8571428571429</ele><time>2026-04-25T06:57:16Z</time></trkpt><trkpt lat="45.767842368772165" lon="9.186352449420623"><ele>357.1428571428571</ele><time>2026-04-25T06:57:17Z</time></trkpt><trkpt lat="45.7678901016051" lon="9.186287772067464"><ele>357.42857142857144</ele><time>2026-04-25T06:57:18Z</time></trkpt><trkpt lat="45.76793915477978" lon="9.186221415616288"><ele>357.7142857142857</ele><time>2026-04-25T06:57:19Z</time></trkpt><trkpt lat="45.76798668778368" lon="9.18615402286599"><ele>358.0</ele><time>2026-04-25T06:57:20Z</time></trkpt><trkpt lat="45.76803417379163" lon="9.1860860132614"><ele>358.00000000000006</ele><time>2026-04-25T06:57:21Z</time></trkpt><trkpt lat="45.76808017372736" lon="9.186017398651238"><ele>358.0</ele><time>2026-04-25T06:57:22Z</time></trkpt><trkpt lat="45.76812617670621" lon="9.18594814294283"><ele>358.0</ele><time>2026-04-25T06:57:23Z</time></trkpt><trkpt lat="45.768172355355496" lon="9.18588122125721"><ele>358.0</ele><time>2026-04-25T06:57:24Z</time></trkpt><trkpt lat="45.76821750921194" lon="9.185810633798708"><ele>358.0</ele><time>2026-04-25T06:57:25Z</time></trkpt><trkpt lat="45.76826485660526" lon="9.18574334876473"><ele>358.00000000000006</ele><time>2026-04-25T06:57:26Z</time></trkpt><trkpt lat="45.76831157037062" lon="9.185675513713198"><ele>358.0</ele><time>2026-04-25T06:57:27Z</time></trkpt><trkpt lat="45.768358230687156" lon="9.185605539140742"><ele>358.28571428571433</ele><time>2026-04-25T06:57:28Z</time></trkpt><trkpt lat="45.76840423567634" lon="9.185535896883854"><ele>358.57142857142856</ele><time>2026-04-25T06:57:29Z</time></trkpt><trkpt lat="45.768451993198966" lon="9.185466723879605"><ele>358.8571428571429</ele><time>2026-04-25T06:57:30Z</time></trkpt><trkpt lat="45.76849686351997" lon="9.185390798550543"><ele>359.14285714285717</ele><time>2026-04-25T06:57:31Z</time></trkpt><trkpt lat="45.76854600467024" lon="9.185319120524127"><ele>359.42857142857144</ele><time>2026-04-25T06:57:32Z</time></trkpt><trkpt lat="45.76859737590324" lon="9.185250604264715"><ele>359.7142857142857</ele><time>2026-04-25T06:57:33Z</time></trkpt><trkpt lat="45.76864658390526" lon="9.18518088897194"><ele>360.0</ele><time>2026-04-25T06:57:34Z</time></trkpt><trkpt lat="45.768682975499836" lon="9.18509702225887"><ele>360.0</ele><time>2026-04-25T06:57:35Z</time></trkpt><trkpt lat="45.768722643091856" lon="9.185017278738643"><ele>360.0</ele><time>2026-04-25T06:57:36Z</time></trkpt><trkpt lat="45.76876767719989" lon="9.184948686604315"><ele>360.0</ele><time>2026-04-25T06:57:37Z</time></trkpt><trkpt lat="45.76881189505913" lon="9.184876852352263"><ele>360.0</ele><time>2026-04-25T06:57:38Z</time></trkpt><trkpt lat="45.768850023712425" lon="9.18479890917701"><ele>360.0</ele><time>2026-04-25T06:57:39Z</time></trkpt><trkpt lat="45.76888918411396" lon="9.184718271217731"><ele>360.0</ele><time>2026-04-25T06:57:40Z</time></trkpt><trkpt lat="45.76893304679894" lon="9.184638940705383"><ele>360.0</ele><time>2026-04-25T06:57:41Z</time></trkpt><trkpt lat="45.768976761456436" lon="9.184557318197538"><ele>359.7142857142857</ele><time>2026-04-25T06:57:42Z</time></trkpt><trkpt lat="45.76901839694772" lon="9.18446983370897"><ele>359.42857142857144</ele><time>2026-04-25T06:57:43Z</time></trkpt><trkpt lat="45.76905707606419" lon="9.184379862624317"><ele>359.14285714285717</ele><time>2026-04-25T06:57:44Z</time></trkpt><trkpt lat="45.76909117000188" lon="9.184289309370474"><ele>358.8571428571429</ele><time>2026-04-25T06:57:45Z</time></trkpt><trkpt lat="45.769123556693955" lon="9.184197057785353"><ele>358.57142857142856</ele><time>2026-04-25T06:57:46Z</time></trkpt><trkpt lat="45.769154597592276" lon="9.184107688382134"><ele>358.28571428571433</ele><time>2026-04-25T06:57:47Z</time></trkpt><trkpt lat="45.76918110446574" lon="9.184015151995766"><ele>358.0</ele><time>2026-04-25T06:57:48Z</time></trkpt><trkpt lat="45.769209321758964" lon="9.18392080281655"><ele>357.7142857142857</ele><time>2026-04-25T06:57:49Z</time></trkpt><trkpt lat="45.769238267671376" lon="9.183828204496992"><ele>357.42857142857144</ele><time>2026-04-25T06:57:50Z</time></trkpt><trkpt lat="45.769267160883295" lon="9.183730973149709"><ele>357.1428571428571</ele><time>2026-04-25T06:57:51Z</time></trkpt><trkpt lat="45.769295184065925" lon="9.183631853638337"><ele>356.8571428571429</ele><time>2026-04-25T06:57:52Z</time></trkpt><trkpt lat="45.76932350889176" lon="9.183536144113928"><ele>356.57142857142856</ele><time>2026-04-25T06:57:53Z</time></trkpt><trkpt lat="45.76935480001725" lon="9.183433909000438"><ele>356.2857142857143</ele><time>2026-04-25T06:57:54Z</time></trkpt><trkpt lat="45.769383277087776" lon="9.183330642140648"><ele>356.0</ele><time>2026-04-25T06:57:55Z</time></trkpt><trkpt lat="45.76940876047485" lon="9.183229059551556"><ele>355.99999999999994</ele><time>2026-04-25T06:57:56Z</time></trkpt><trkpt lat="45.76943558929433" lon="9.183133992773849"><ele>356.0</ele><time>2026-04-25T06:57:56.999Z</time></trkpt><trkpt lat="45.769464441723365" lon="9.18304465840566"><ele>356.0</ele><time>2026-04-25T06:57:57.999Z</time></trkpt><trkpt lat="45.76949285237757" lon="9.18295626644302"><ele>356.0</ele><time>2026-04-25T06:57:58.999Z</time></trkpt><trkpt lat="45.769532485384445" lon="9.182878168676462"><ele>356.0</ele><time>2026-04-25T06:57:59.999Z</time></trkpt><trkpt lat="45.7695807245129" lon="9.182814008684915"><ele>355.99999999999994</ele><time>2026-04-25T06:58:00.999Z</time></trkpt><trkpt lat="45.76962550447815" lon="9.182747154901348"><ele>356.0</ele><time>2026-04-25T06:58:01.999Z</time></trkpt><trkpt lat="45.76966330200012" lon="9.18259870347899"><ele>356.0</ele><time>2026-04-25T06:58:03.999Z</time></trkpt><trkpt lat="45.76967771089463" lon="9.182459608864116"><ele>356.0</ele><time>2026-04-25T06:58:05.999Z</time></trkpt><trkpt lat="45.76972168423839" lon="9.182334088555383"><ele>356.0</ele><time>2026-04-25T06:58:07.999Z</time></trkpt><trkpt lat="45.7697997551442" lon="9.18222828332619"><ele>356.0</ele><time>2026-04-25T06:58:09.999Z</time></trkpt><trkpt lat="45.76987926698266" lon="9.182107430464866"><ele>356.0</ele><time>2026-04-25T06:58:11.999Z</time></trkpt><trkpt lat="45.76996425282881" lon="9.181988418633466"><ele>356.0</ele><time>2026-04-25T06:58:13.999Z</time></trkpt><trkpt lat="45.77005423054734" lon="9.181874729206923"><ele>356.0</ele><time>2026-04-25T06:58:15.999Z</time></trkpt><trkpt lat="45.77014792823259" lon="9.181760439717717"><ele>356.0</ele><time>2026-04-25T06:58:17.999Z</time></trkpt><trkpt lat="45.770241777422996" lon="9.181640814920607"><ele>356.0</ele><time>2026-04-25T06:58:19.999Z</time></trkpt><trkpt lat="45.770290419128656" lon="9.181582688965756"><ele>356.0</ele><time>2026-04-25T06:58:20.999Z</time></trkpt><trkpt lat="45.77038694544949" lon="9.18146628589027"><ele>356.1666666666667</ele><time>2026-04-25T06:58:22.999Z</time></trkpt><trkpt lat="45.77043472239069" lon="9.181406648941339"><ele>356.33333333333337</ele><time>2026-04-25T06:58:23.999Z</time></trkpt><trkpt lat="45.770482221153955" lon="9.181344148697589"><ele>356.5</ele><time>2026-04-25T06:58:24.999Z</time></trkpt><trkpt lat="45.7705310017004" lon="9.181283936054886"><ele>356.6666666666667</ele><time>2026-04-25T06:58:25.999Z</time></trkpt><trkpt lat="45.770619653059455" lon="9.18116640613858"><ele>356.8333333333333</ele><time>2026-04-25T06:58:27.999Z</time></trkpt><trkpt lat="45.77070516818029" lon="9.181074448727932"><ele>357.0</ele><time>2026-04-25T06:58:29.999Z</time></trkpt><trkpt lat="45.77078009285279" lon="9.181016804232184"><ele>357.0</ele><time>2026-04-25T06:58:31.999Z</time></trkpt><trkpt lat="45.77088813024494" lon="9.181043807743878"><ele>357.0</ele><time>2026-04-25T07:02:13Z</time></trkpt><trkpt lat="45.77095784993452" lon="9.181091191640835"><ele>357.0</ele><time>2026-04-25T07:02:16Z</time></trkpt><trkpt lat="45.77104183421447" lon="9.181152763189672"><ele>357.0</ele><time>2026-04-25T07:02:19Z</time></trkpt><trkpt lat="45.771116810926564" lon="9.181200388758677"><ele>357.0</ele><time>2026-04-25T07:02:22Z</time></trkpt><trkpt lat="45.7711959843722" lon="9.181222043231301"><ele>357.0</ele><time>2026-04-25T07:02:25Z</time></trkpt><trkpt lat="45.77128170186403" lon="9.181262935352885"><ele>357.42857142857144</ele><time>2026-04-25T07:02:28Z</time></trkpt><trkpt lat="45.771344670700046" lon="9.18130146576316"><ele>357.8571428571429</ele><time>2026-04-25T07:02:29.999Z</time></trkpt><trkpt lat="45.7714127721653" lon="9.18133407776408"><ele>358.2857142857143</ele><time>2026-04-25T07:02:31.999Z</time></trkpt><trkpt lat="45.771483763940005" lon="9.181353770494603"><ele>358.7142857142857</ele><time>2026-04-25T07:02:33.999Z</time></trkpt><trkpt lat="45.7715472827367" lon="9.181385361774476"><ele>359.14285714285717</ele><time>2026-04-25T07:02:35.999Z</time></trkpt><trkpt lat="45.77161593961158" lon="9.181419688088008"><ele>359.57142857142856</ele><time>2026-04-25T07:02:37.999Z</time></trkpt><trkpt lat="45.77168779911437" lon="9.181458543166116"><ele>360.0</ele><time>2026-04-25T07:02:39.999Z</time></trkpt><trkpt lat="45.77175694509843" lon="9.181480533321842"><ele>360.0</ele><time>2026-04-25T07:02:41.999Z</time></trkpt><trkpt lat="45.77182571454256" lon="9.18149955447586"><ele>360.0</ele><time>2026-04-25T07:02:43.999Z</time></trkpt><trkpt lat="45.77190117974092" lon="9.181529970645313"><ele>360.0</ele><time>2026-04-25T07:02:45.999Z</time></trkpt><trkpt lat="45.77197490425866" lon="9.181573187569816"><ele>360.0</ele><time>2026-04-25T07:02:47.999Z</time></trkpt><trkpt lat="45.77205510271543" lon="9.181599017146214"><ele>360.0</ele><time>2026-04-25T07:02:49.999Z</time></trkpt><trkpt lat="45.772123715442135" lon="9.181630659062913"><ele>360.0</ele><time>2026-04-25T07:02:51.999Z</time></trkpt><trkpt lat="45.772193407559406" lon="9.181647834675621"><ele>360.6</ele><time>2026-04-25T07:02:53.999Z</time></trkpt><trkpt lat="45.772272590649216" lon="9.18166477407849"><ele>361.2</ele><time>2026-04-25T07:02:55.999Z</time></trkpt><trkpt lat="45.772359930479105" lon="9.18168061109662"><ele>361.79999999999995</ele><time>2026-04-25T07:02:57.999Z</time></trkpt><trkpt lat="45.77245489902012" lon="9.181672558881761"><ele>362.4</ele><time>2026-04-25T07:02:59.999Z</time></trkpt><trkpt lat="45.772550296313064" lon="9.181653391329666"><ele>363.0</ele><time>2026-04-25T07:03:01.999Z</time></trkpt><trkpt lat="45.77264619709496" lon="9.181622144707905"><ele>364.0</ele><time>2026-04-25T07:03:03.999Z</time></trkpt><trkpt lat="45.77274356976187" lon="9.181592754031962"><ele>365.0</ele><time>2026-04-25T07:03:05.999Z</time></trkpt><trkpt lat="45.7728404825592" lon="9.181566019629877"><ele>366.0</ele><time>2026-04-25T07:03:07.999Z</time></trkpt><trkpt lat="45.77293279187953" lon="9.181522782749825"><ele>367.0</ele><time>2026-04-25T07:03:09.999Z</time></trkpt><trkpt lat="45.77302546432973" lon="9.181481009705836"><ele>368.0</ele><time>2026-04-25T07:03:11.999Z</time></trkpt><trkpt lat="45.77312644472236" lon="9.181457485284282"><ele>368.0</ele><time>2026-04-25T07:03:13.999Z</time></trkpt><trkpt lat="45.773219388872825" lon="9.181414315905332"><ele>368.0</ele><time>2026-04-25T07:03:15.999Z</time></trkpt><trkpt lat="45.77330938505459" lon="9.181380188438228"><ele>368.0</ele><time>2026-04-25T07:03:18Z</time></trkpt><trkpt lat="45.77340429689971" lon="9.181352623970186"><ele>368.0</ele><time>2026-04-25T07:03:20Z</time></trkpt><trkpt lat="45.77350165288558" lon="9.181329774270596"><ele>368.0</ele><time>2026-04-25T07:03:22Z</time></trkpt><trkpt lat="45.7735999172223" lon="9.18132308391792"><ele>369.0</ele><time>2026-04-25T07:03:24Z</time></trkpt><trkpt lat="45.77369997147411" lon="9.18131643495535"><ele>370.0</ele><time>2026-04-25T07:03:26Z</time></trkpt><trkpt lat="45.77380012133808" lon="9.181317547727929"><ele>371.0</ele><time>2026-04-25T07:03:28Z</time></trkpt><trkpt lat="45.77390204329635" lon="9.181311254852393"><ele>372.0</ele><time>2026-04-25T07:03:30Z</time></trkpt><trkpt lat="45.774003623330984" lon="9.181302129492916"><ele>373.0</ele><time>2026-04-25T07:03:32Z</time></trkpt><trkpt lat="45.774103001133334" lon="9.18130416430142"><ele>373.0</ele><time>2026-04-25T07:03:34Z</time></trkpt><trkpt lat="45.77420000106116" lon="9.181305792813323"><ele>373.0</ele><time>2026-04-25T07:03:36Z</time></trkpt><trkpt lat="45.774292822683655" lon="9.181293241194027"><ele>373.0</ele><time>2026-04-25T07:03:38Z</time></trkpt><trkpt lat="45.77438234423244" lon="9.181288911314486"><ele>373.0</ele><time>2026-04-25T07:03:40Z</time></trkpt><trkpt lat="45.7744728813702" lon="9.181294105554057"><ele>373.0</ele><time>2026-04-25T07:03:42Z</time></trkpt><trkpt lat="45.77456199392433" lon="9.18129156553209"><ele>373.7142857142857</ele><time>2026-04-25T07:03:44Z</time></trkpt><trkpt lat="45.77465088664705" lon="9.181296954313654"><ele>374.42857142857144</ele><time>2026-04-25T07:03:46Z</time></trkpt><trkpt lat="45.77473526394713" lon="9.18129508961454"><ele>375.1428571428571</ele><time>2026-04-25T07:03:48Z</time></trkpt><trkpt lat="45.77481460782991" lon="9.181289357358652"><ele>375.8571428571429</ele><time>2026-04-25T07:03:50Z</time></trkpt><trkpt lat="45.77488263087814" lon="9.181292628917141"><ele>376.57142857142856</ele><time>2026-04-25T07:03:52Z</time></trkpt><trkpt lat="45.774934585854" lon="9.18134422129687"><ele>377.2857142857143</ele><time>2026-04-25T07:03:55Z</time></trkpt><trkpt lat="45.77498492647495" lon="9.181285023302724"><ele>378.0</ele><time>2026-04-25T07:05:11.999Z</time></trkpt><trkpt lat="45.77506088406909" lon="9.181290736654159"><ele>378.0</ele><time>2026-04-25T07:05:14.999Z</time></trkpt><trkpt lat="45.775128741386695" lon="9.18128164630687"><ele>378.0</ele><time>2026-04-25T07:05:17.999Z</time></trkpt><trkpt lat="45.77519416577877" lon="9.181278883569998"><ele>378.0</ele><time>2026-04-25T07:05:20.999Z</time></trkpt><trkpt lat="45.775266939321625" lon="9.181278222193644"><ele>378.0</ele><time>2026-04-25T07:05:24Z</time></trkpt><trkpt lat="45.77533909292868" lon="9.18130652449916"><ele>378.0</ele><time>2026-04-25T07:05:27Z</time></trkpt><trkpt lat="45.77535495957671" lon="9.181420381953961"><ele>378.0</ele><time>2026-04-25T07:05:30Z</time></trkpt><trkpt lat="45.77535071846484" lon="9.181514316451409"><ele>378.0</ele><time>2026-04-25T07:05:33Z</time></trkpt><trkpt lat="45.77535618547314" lon="9.181618902343871"><ele>380.0</ele><time>2026-04-25T07:05:37Z</time></trkpt><trkpt lat="45.77536044203764" lon="9.181717656397963"><ele>382.0</ele><time>2026-04-25T07:05:40Z</time></trkpt><trkpt lat="45.77535183953713" lon="9.181817116568025"><ele>384.0</ele><time>2026-04-25T07:05:43Z</time></trkpt><trkpt lat="45.77537595479558" lon="9.181929741525387"><ele>386.0</ele><time>2026-04-25T07:05:46Z</time></trkpt><trkpt lat="45.77545376034185" lon="9.181968438066834"><ele>388.0</ele><time>2026-04-25T07:05:49Z</time></trkpt><trkpt lat="45.775516933290874" lon="9.18195094580872"><ele>390.0</ele><time>2026-04-25T07:05:51Z</time></trkpt><trkpt lat="45.77558173701853" lon="9.181941045109346"><ele>392.0</ele><time>2026-04-25T07:05:54Z</time></trkpt><trkpt lat="45.77567490096462" lon="9.181946228586416"><ele>392.0</ele><time>2026-04-25T07:05:57Z</time></trkpt><trkpt lat="45.775766545215696" lon="9.181953632798281"><ele>392.0</ele><time>2026-04-25T07:05:58Z</time></trkpt><trkpt lat="45.775871176075995" lon="9.182009209377592"><ele>392.0</ele><time>2026-04-25T07:06:00Z</time></trkpt><trkpt lat="45.77598327408435" lon="9.181998085533483"><ele>392.0</ele><time>2026-04-25T07:06:02Z</time></trkpt><trkpt lat="45.77607840172498" lon="9.181951147661172"><ele>392.0</ele><time>2026-04-25T07:06:04Z</time></trkpt><trkpt lat="45.77618000165649" lon="9.181894300093195"><ele>391.0</ele><time>2026-04-25T07:06:06Z</time></trkpt><trkpt lat="45.77627607047954" lon="9.181859862435335"><ele>390.0</ele><time>2026-04-25T07:06:08Z</time></trkpt><trkpt lat="45.77637020245683" lon="9.181828235335262"><ele>389.0</ele><time>2026-04-25T07:06:10Z</time></trkpt><trkpt lat="45.77645298423761" lon="9.18189469670871"><ele>388.0</ele><time>2026-04-25T07:06:12Z</time></trkpt><trkpt lat="45.77652630514567" lon="9.181943796227408"><ele>387.0</ele><time>2026-04-25T07:06:14Z</time></trkpt><trkpt lat="45.77659299162066" lon="9.182016321561722"><ele>387.0</ele><time>2026-04-25T07:06:16Z</time></trkpt><trkpt lat="45.77666778287677" lon="9.182051022168675"><ele>387.0</ele><time>2026-04-25T07:06:18Z</time></trkpt><trkpt lat="45.77673696274444" lon="9.182117637268448"><ele>387.0</ele><time>2026-04-25T07:06:20Z</time></trkpt><trkpt lat="45.77679363553248" lon="9.182159983990513"><ele>387.0</ele><time>2026-04-25T07:06:22Z</time></trkpt><trkpt lat="45.7769287019308" lon="9.181915492151317"><ele>387.0</ele><time>2026-04-25T07:06:27Z</time></trkpt><trkpt lat="45.77695225061152" lon="9.18175927723508"><ele>385.5</ele><time>2026-04-25T07:06:29Z</time></trkpt><trkpt lat="45.77698347066382" lon="9.181625351491078"><ele>384.0</ele><time>2026-04-25T07:06:31Z</time></trkpt><trkpt lat="45.77708031458765" lon="9.181536746765426"><ele>382.5</ele><time>2026-04-25T07:06:33Z</time></trkpt><trkpt lat="45.77713963941671" lon="9.181474319536358"><ele>381.0</ele><time>2026-04-25T07:06:34Z</time></trkpt><trkpt lat="45.77720181894104" lon="9.181422289917457"><ele>379.5</ele><time>2026-04-25T07:06:35Z</time></trkpt><trkpt lat="45.77726312629516" lon="9.181358419606806"><ele>378.0</ele><time>2026-04-25T07:06:36Z</time></trkpt><trkpt lat="45.77732930658696" lon="9.181295925663433"><ele>378.0</ele><time>2026-04-25T07:06:37Z</time></trkpt><trkpt lat="45.77739785073" lon="9.18123387043095"><ele>378.0</ele><time>2026-04-25T07:06:38Z</time></trkpt><trkpt lat="45.77746512247371" lon="9.181180694393094"><ele>378.0</ele><time>2026-04-25T07:06:39Z</time></trkpt><trkpt lat="45.777535508091795" lon="9.18114403114797"><ele>378.0</ele><time>2026-04-25T07:06:40Z</time></trkpt><trkpt lat="45.77760757065769" lon="9.181129365567205"><ele>378.0</ele><time>2026-04-25T07:06:41Z</time></trkpt><trkpt lat="45.77768031577537" lon="9.181137964780078"><ele>378.0</ele><time>2026-04-25T07:06:42Z</time></trkpt><trkpt lat="45.77774709261787" lon="9.181162624551591"><ele>378.0</ele><time>2026-04-25T07:06:43Z</time></trkpt><trkpt lat="45.77780908534374" lon="9.18118760148348"><ele>377.59999999999997</ele><time>2026-04-25T07:06:44Z</time></trkpt><trkpt lat="45.77791618589239" lon="9.181220653280691"><ele>377.2</ele><time>2026-04-25T07:06:46Z</time></trkpt><trkpt lat="45.77800065929749" lon="9.181283698691313"><ele>376.8</ele><time>2026-04-25T07:06:48Z</time></trkpt><trkpt lat="45.77805176450571" lon="9.181411110917638"><ele>376.4</ele><time>2026-04-25T07:06:50Z</time></trkpt><trkpt lat="45.77804984016264" lon="9.181564371502468"><ele>376.0</ele><time>2026-04-25T07:06:52Z</time></trkpt><trkpt lat="45.778042365276036" lon="9.181715350221467"><ele>376.0</ele><time>2026-04-25T07:06:54Z</time></trkpt><trkpt lat="45.77804772199683" lon="9.181874734119956"><ele>376.0</ele><time>2026-04-25T07:06:56Z</time></trkpt><trkpt lat="45.778039262468454" lon="9.182034635386653"><ele>376.0</ele><time>2026-04-25T07:06:58Z</time></trkpt><trkpt lat="45.778032225037755" lon="9.182194104016324"><ele>376.0</ele><time>2026-04-25T07:07:00Z</time></trkpt><trkpt lat="45.77803775310136" lon="9.182356746876625"><ele>376.0</ele><time>2026-04-25T07:07:02Z</time></trkpt><trkpt lat="45.778038044315835" lon="9.18252673571414"><ele>376.5</ele><time>2026-04-25T07:07:03.999Z</time></trkpt><trkpt lat="45.77803982121163" lon="9.182699398276473"><ele>377.0</ele><time>2026-04-25T07:07:05.999Z</time></trkpt><trkpt lat="45.77804036601488" lon="9.182791704239115"><ele>377.5</ele><time>2026-04-25T07:07:06.999Z</time></trkpt><trkpt lat="45.778040914263734" lon="9.182883043739826"><ele>378.0</ele><time>2026-04-25T07:07:07.999Z</time></trkpt><trkpt lat="45.77803645191359" lon="9.183065729592203"><ele>378.5</ele><time>2026-04-25T07:07:09.999Z</time></trkpt><trkpt lat="45.77803708243811" lon="9.183165279477404"><ele>379.0</ele><time>2026-04-25T07:07:10.999Z</time></trkpt><trkpt lat="45.7780359640632" lon="9.183269070426395"><ele>379.00000000000006</ele><time>2026-04-25T07:07:11.999Z</time></trkpt><trkpt lat="45.7780390911128" lon="9.183369268455532"><ele>379.0</ele><time>2026-04-25T07:07:12.999Z</time></trkpt><trkpt lat="45.77803744638349" lon="9.183468952515408"><ele>379.0</ele><time>2026-04-25T07:07:13.999Z</time></trkpt><trkpt lat="45.77803747764572" lon="9.183568714127714"><ele>379.0</ele><time>2026-04-25T07:07:14.999Z</time></trkpt><trkpt lat="45.77803875483754" lon="9.183667673343653"><ele>379.0</ele><time>2026-04-25T07:07:15.999Z</time></trkpt><trkpt lat="45.77803825964287" lon="9.183768223826517"><ele>379.00000000000006</ele><time>2026-04-25T07:07:16.999Z</time></trkpt><trkpt lat="45.7780345778347" lon="9.183867496833791"><ele>379.0</ele><time>2026-04-25T07:07:17.999Z</time></trkpt><trkpt lat="45.778029872540465" lon="9.183968135942857"><ele>378.42857142857144</ele><time>2026-04-25T07:07:18.999Z</time></trkpt><trkpt lat="45.77802951300059" lon="9.184069085207746"><ele>377.8571428571429</ele><time>2026-04-25T07:07:19.999Z</time></trkpt><trkpt lat="45.77802982990407" lon="9.184170882061334"><ele>377.28571428571433</ele><time>2026-04-25T07:07:20.999Z</time></trkpt><trkpt lat="45.77803070207604" lon="9.184273193572784"><ele>376.7142857142857</ele><time>2026-04-25T07:07:21.999Z</time></trkpt><trkpt lat="45.77802896790003" lon="9.184375920051313"><ele>376.1428571428571</ele><time>2026-04-25T07:07:22.999Z</time></trkpt><trkpt lat="45.77803531612994" lon="9.18447936347545"><ele>375.5714285714286</ele><time>2026-04-25T07:07:23.999Z</time></trkpt><trkpt lat="45.778037365147796" lon="9.184582497129869"><ele>375.0</ele><time>2026-04-25T07:07:24.999Z</time></trkpt><trkpt lat="45.77803438402469" lon="9.184684765146375"><ele>375.0</ele><time>2026-04-25T07:07:25.999Z</time></trkpt><trkpt lat="45.77803021567643" lon="9.184787021578893"><ele>375.0</ele><time>2026-04-25T07:07:26.999Z</time></trkpt><trkpt lat="45.77802855177333" lon="9.184886394737436"><ele>375.0</ele><time>2026-04-25T07:07:27.999Z</time></trkpt><trkpt lat="45.77802961806649" lon="9.184988266259843"><ele>375.0</ele><time>2026-04-25T07:07:29Z</time></trkpt><trkpt lat="45.778020395450326" lon="9.185088285616677"><ele>375.0</ele><time>2026-04-25T07:07:30Z</time></trkpt><trkpt lat="45.77800444730972" lon="9.185190459297425"><ele>375.0</ele><time>2026-04-25T07:07:31Z</time></trkpt><trkpt lat="45.777983539226796" lon="9.185289472453466"><ele>375.0</ele><time>2026-04-25T07:07:32Z</time></trkpt><trkpt lat="45.77796605145178" lon="9.185384289004384"><ele>374.6666666666667</ele><time>2026-04-25T07:07:33Z</time></trkpt><trkpt lat="45.77795168899364" lon="9.18547663735207"><ele>374.3333333333333</ele><time>2026-04-25T07:07:34Z</time></trkpt><trkpt lat="45.77793440532749" lon="9.18556492178439"><ele>374.0</ele><time>2026-04-25T07:07:35Z</time></trkpt><trkpt lat="45.77796121322651" lon="9.185719957591086"><ele>373.66666666666663</ele><time>2026-04-25T07:07:37Z</time></trkpt><trkpt lat="45.77800370298637" lon="9.18585190313372"><ele>373.3333333333333</ele><time>2026-04-25T07:07:39Z</time></trkpt><trkpt lat="45.77801720468249" lon="9.185972687665581"><ele>373.0</ele><time>2026-04-25T07:07:41Z</time></trkpt><trkpt lat="45.77801971640009" lon="9.186078309863925"><ele>373.0</ele><time>2026-04-25T07:07:43Z</time></trkpt><trkpt lat="45.77807816992269" lon="9.186037386248708"><ele>373.0</ele><time>2026-04-25T07:09:16.999Z</time></trkpt><trkpt lat="45.77807305312639" lon="9.185933978363476"><ele>373.0</ele><time>2026-04-25T07:09:19.999Z</time></trkpt><trkpt lat="45.77807930795042" lon="9.185796690711811"><ele>373.0</ele><time>2026-04-25T07:09:22.999Z</time></trkpt><trkpt lat="45.77811931750668" lon="9.185705756823479"><ele>373.0</ele><time>2026-04-25T07:09:24.999Z</time></trkpt><trkpt lat="45.77820521405099" lon="9.185670747028484"><ele>373.0</ele><time>2026-04-25T07:09:26.999Z</time></trkpt><trkpt lat="45.77830989839239" lon="9.185711045266755"><ele>372.7142857142857</ele><time>2026-04-25T07:09:28.999Z</time></trkpt><trkpt lat="45.778372614144565" lon="9.185723828016686"><ele>372.42857142857144</ele><time>2026-04-25T07:09:29.999Z</time></trkpt><trkpt lat="45.77843748890359" lon="9.185740568710504"><ele>372.1428571428571</ele><time>2026-04-25T07:09:30.999Z</time></trkpt><trkpt lat="45.778505304169336" lon="9.185771339956938"><ele>371.8571428571429</ele><time>2026-04-25T07:09:31.999Z</time></trkpt><trkpt lat="45.77857649480337" lon="9.185760637618591"><ele>371.57142857142856</ele><time>2026-04-25T07:09:32.999Z</time></trkpt><trkpt lat="45.778640810357416" lon="9.185855553030038"><ele>371.2857142857143</ele><time>2026-04-25T07:09:33.999Z</time></trkpt><trkpt lat="45.77870106869716" lon="9.185911012994868"><ele>371.0</ele><time>2026-04-25T07:09:34.999Z</time></trkpt><trkpt lat="45.77875481705664" lon="9.185979528150364"><ele>371.0</ele><time>2026-04-25T07:09:35.999Z</time></trkpt><trkpt lat="45.77881128961094" lon="9.186043753018776"><ele>371.0</ele><time>2026-04-25T07:09:36.999Z</time></trkpt><trkpt lat="45.778871677923526" lon="9.186104294802815"><ele>371.0</ele><time>2026-04-25T07:09:37.999Z</time></trkpt><trkpt lat="45.77893403828978" lon="9.186168942334682"><ele>371.0</ele><time>2026-04-25T07:09:38.999Z</time></trkpt><trkpt lat="45.778995790927915" lon="9.18623862091759"><ele>371.0</ele><time>2026-04-25T07:09:39.999Z</time></trkpt><trkpt lat="45.77905849481369" lon="9.186312740486965"><ele>371.0</ele><time>2026-04-25T07:09:40.999Z</time></trkpt><trkpt lat="45.77911885614139" lon="9.186386494692535"><ele>371.0</ele><time>2026-04-25T07:09:41.999Z</time></trkpt><trkpt lat="45.779180020190964" lon="9.186453275046897"><ele>371.0</ele><time>2026-04-25T07:09:42.999Z</time></trkpt><trkpt lat="45.77923996038387" lon="9.186515270911476"><ele>371.0</ele><time>2026-04-25T07:09:43.999Z</time></trkpt><trkpt lat="45.77929299028524" lon="9.186582258013832"><ele>371.0</ele><time>2026-04-25T07:09:44.999Z</time></trkpt><trkpt lat="45.7793431992052" lon="9.186651653367935"><ele>371.0</ele><time>2026-04-25T07:09:46Z</time></trkpt><trkpt lat="45.77934879535473" lon="9.186792065594338"><ele>371.0</ele><time>2026-04-25T07:09:47Z</time></trkpt><trkpt lat="45.779397019033766" lon="9.18686152825389"><ele>370.83333333333337</ele><time>2026-04-25T07:09:48Z</time></trkpt><trkpt lat="45.77948938345911" lon="9.186874803064782"><ele>370.6666666666667</ele><time>2026-04-25T07:09:49Z</time></trkpt><trkpt lat="45.77953740644323" lon="9.186953613534323"><ele>370.5</ele><time>2026-04-25T07:09:50Z</time></trkpt><trkpt lat="45.779586750070976" lon="9.18703325900422"><ele>370.3333333333333</ele><time>2026-04-25T07:09:51Z</time></trkpt><trkpt lat="45.77963770948152" lon="9.18711874362315"><ele>370.16666666666663</ele><time>2026-04-25T07:09:52Z</time></trkpt><trkpt lat="45.77968689341896" lon="9.187207273238048"><ele>370.0</ele><time>2026-04-25T07:09:53Z</time></trkpt><trkpt lat="45.77973677198093" lon="9.187293966974877"><ele>369.3333333333333</ele><time>2026-04-25T07:09:54Z</time></trkpt><trkpt lat="45.77978663860005" lon="9.187378864158891"><ele>368.66666666666663</ele><time>2026-04-25T07:09:55Z</time></trkpt><trkpt lat="45.77984418043012" lon="9.187454453734377"><ele>368.0</ele><time>2026-04-25T07:09:56Z</time></trkpt><trkpt lat="45.7799022826228" lon="9.187531153728148"><ele>367.3333333333333</ele><time>2026-04-25T07:09:57Z</time></trkpt><trkpt lat="45.779962837122014" lon="9.187610840185144"><ele>366.6666666666667</ele><time>2026-04-25T07:09:58Z</time></trkpt><trkpt lat="45.78002452529647" lon="9.187687018598023"><ele>366.0</ele><time>2026-04-25T07:09:59Z</time></trkpt><trkpt lat="45.78009190297378" lon="9.18776192220344"><ele>366.0</ele><time>2026-04-25T07:10:00Z</time></trkpt><trkpt lat="45.78015915575871" lon="9.187835870750837"><ele>366.0</ele><time>2026-04-25T07:10:01Z</time></trkpt><trkpt lat="45.78022971090955" lon="9.187905728299382"><ele>366.0</ele><time>2026-04-25T07:10:02Z</time></trkpt><trkpt lat="45.78029981109571" lon="9.18797698286099"><ele>366.0</ele><time>2026-04-25T07:10:03Z</time></trkpt><trkpt lat="45.780370009974845" lon="9.188045379038213"><ele>366.0</ele><time>2026-04-25T07:10:04Z</time></trkpt><trkpt lat="45.78043340611197" lon="9.188113618257782"><ele>366.0</ele><time>2026-04-25T07:10:05Z</time></trkpt><trkpt lat="45.78049975030143" lon="9.188194877724792"><ele>365.6</ele><time>2026-04-25T07:10:06Z</time></trkpt><trkpt lat="45.780571847995844" lon="9.188269202024388"><ele>365.20000000000005</ele><time>2026-04-25T07:10:07Z</time></trkpt><trkpt lat="45.78064426753825" lon="9.188341041826163"><ele>364.79999999999995</ele><time>2026-04-25T07:10:08Z</time></trkpt><trkpt lat="45.78071464304317" lon="9.188425346691535"><ele>364.4</ele><time>2026-04-25T07:10:09Z</time></trkpt><trkpt lat="45.78078482091472" lon="9.188508279631517"><ele>364.0</ele><time>2026-04-25T07:10:10Z</time></trkpt><trkpt lat="45.78085522683675" lon="9.188588886836687"><ele>364.0</ele><time>2026-04-25T07:10:11Z</time></trkpt><trkpt lat="45.780926687628934" lon="9.188667360744466"><ele>364.0</ele><time>2026-04-25T07:10:12Z</time></trkpt><trkpt lat="45.780995064996766" lon="9.188747142934147"><ele>364.0</ele><time>2026-04-25T07:10:13Z</time></trkpt><trkpt lat="45.78105772814271" lon="9.188837377327115"><ele>364.0</ele><time>2026-04-25T07:10:14Z</time></trkpt><trkpt lat="45.781128170775325" lon="9.188913668598882"><ele>364.0</ele><time>2026-04-25T07:10:15Z</time></trkpt><trkpt lat="45.78119403680032" lon="9.188990903612632"><ele>364.0</ele><time>2026-04-25T07:10:16Z</time></trkpt><trkpt lat="45.78125669459804" lon="9.189065669867336"><ele>364.0</ele><time>2026-04-25T07:10:17Z</time></trkpt><trkpt lat="45.78131536111453" lon="9.189138825009787"><ele>364.0</ele><time>2026-04-25T07:10:18Z</time></trkpt><trkpt lat="45.781376692983606" lon="9.189213994173818"><ele>364.0</ele><time>2026-04-25T07:10:19Z</time></trkpt><trkpt lat="45.781436467746765" lon="9.189293961628644"><ele>364.0</ele><time>2026-04-25T07:10:20Z</time></trkpt><trkpt lat="45.781499198091026" lon="9.189368706061037"><ele>364.0</ele><time>2026-04-25T07:10:21Z</time></trkpt><trkpt lat="45.781566184270936" lon="9.189445903666677"><ele>364.0</ele><time>2026-04-25T07:10:22Z</time></trkpt><trkpt lat="45.78163620674404" lon="9.18951879395659"><ele>364.0</ele><time>2026-04-25T07:10:23Z</time></trkpt><trkpt lat="45.78170573892726" lon="9.189586721031077"><ele>364.0</ele><time>2026-04-25T07:10:24Z</time></trkpt><trkpt lat="45.78177849070364" lon="9.18964828883411"><ele>364.0</ele><time>2026-04-25T07:10:25Z</time></trkpt><trkpt lat="45.781848175078956" lon="9.189713776837833"><ele>364.0</ele><time>2026-04-25T07:10:26Z</time></trkpt><trkpt lat="45.7819197455737" lon="9.189782483923782"><ele>364.0</ele><time>2026-04-25T07:10:27Z</time></trkpt><trkpt lat="45.78199478989621" lon="9.189850689069257"><ele>364.0</ele><time>2026-04-25T07:10:28Z</time></trkpt><trkpt lat="45.782071185863124" lon="9.189919511289586"><ele>363.4</ele><time>2026-04-25T07:10:29Z</time></trkpt><trkpt lat="45.7821500148775" lon="9.189988080109744"><ele>362.79999999999995</ele><time>2026-04-25T07:10:30Z</time></trkpt><trkpt lat="45.78222907723606" lon="9.190060574510124"><ele>362.20000000000005</ele><time>2026-04-25T07:10:31Z</time></trkpt><trkpt lat="45.78230941287248" lon="9.190130424135514"><ele>361.6</ele><time>2026-04-25T07:10:32Z</time></trkpt><trkpt lat="45.782389315995644" lon="9.190202748287817"><ele>361.0</ele><time>2026-04-25T07:10:33Z</time></trkpt><trkpt lat="45.782469373584156" lon="9.190272463612677"><ele>361.0</ele><time>2026-04-25T07:10:34Z</time></trkpt><trkpt lat="45.782546911455164" lon="9.190343978071912"><ele>361.0</ele><time>2026-04-25T07:10:35Z</time></trkpt><trkpt lat="45.78262447098565" lon="9.190414687984578"><ele>361.0</ele><time>2026-04-25T07:10:36Z</time></trkpt><trkpt lat="45.782701909405375" lon="9.190484079399862"><ele>361.0</ele><time>2026-04-25T07:10:37Z</time></trkpt><trkpt lat="45.78277960452386" lon="9.190552369004841"><ele>361.0</ele><time>2026-04-25T07:10:38Z</time></trkpt><trkpt lat="45.782856435745686" lon="9.190623206358191"><ele>360.0</ele><time>2026-04-25T07:10:39Z</time></trkpt><trkpt lat="45.78293428785" lon="9.190692789718058"><ele>359.0</ele><time>2026-04-25T07:10:40Z</time></trkpt><trkpt lat="45.78301274092558" lon="9.190764831618726"><ele>358.0</ele><time>2026-04-25T07:10:41Z</time></trkpt><trkpt lat="45.783091105375654" lon="9.1908321007961"><ele>357.0</ele><time>2026-04-25T07:10:42Z</time></trkpt><trkpt lat="45.78316919693878" lon="9.19090060578969"><ele>356.0</ele><time>2026-04-25T07:10:43Z</time></trkpt><trkpt lat="45.78324699908786" lon="9.190967560988147"><ele>356.0</ele><time>2026-04-25T07:10:44Z</time></trkpt><trkpt lat="45.783326195672686" lon="9.191037297140602"><ele>356.0</ele><time>2026-04-25T07:10:45Z</time></trkpt><trkpt lat="45.78339895380106" lon="9.191110022395048"><ele>356.0</ele><time>2026-04-25T07:10:46Z</time></trkpt><trkpt lat="45.783462970337105" lon="9.191183282173824"><ele>356.0</ele><time>2026-04-25T07:10:47Z</time></trkpt><trkpt lat="45.78352270953439" lon="9.191265583603677"><ele>356.0</ele><time>2026-04-25T07:10:47.999Z</time></trkpt><trkpt lat="45.78356495117412" lon="9.191371195641528"><ele>356.0</ele><time>2026-04-25T07:10:48.999Z</time></trkpt><trkpt lat="45.78360354126454" lon="9.191471329708131"><ele>354.5</ele><time>2026-04-25T07:10:49.999Z</time></trkpt><trkpt lat="45.783645278702146" lon="9.191556644574462"><ele>353.0</ele><time>2026-04-25T07:10:50.999Z</time></trkpt><trkpt lat="45.783682848014124" lon="9.191647825402166"><ele>351.5</ele><time>2026-04-25T07:10:51.999Z</time></trkpt><trkpt lat="45.7837695017072" lon="9.191667691530748"><ele>350.0</ele><time>2026-04-25T07:10:52.999Z</time></trkpt><trkpt lat="45.78384941844519" lon="9.19168545971859"><ele>348.5</ele><time>2026-04-25T07:10:53.999Z</time></trkpt><trkpt lat="45.783930607037064" lon="9.191693003989863"><ele>347.0</ele><time>2026-04-25T07:10:54.999Z</time></trkpt><trkpt lat="45.78401515379638" lon="9.191709975089976"><ele>347.0</ele><time>2026-04-25T07:10:55.999Z</time></trkpt><trkpt lat="45.78409600777046" lon="9.191748602258349"><ele>347.0</ele><time>2026-04-25T07:10:56.999Z</time></trkpt><trkpt lat="45.78417157792524" lon="9.191797702893417"><ele>347.0</ele><time>2026-04-25T07:10:57.999Z</time></trkpt><trkpt lat="45.784233298518586" lon="9.191878757168062"><ele>347.0</ele><time>2026-04-25T07:10:58.999Z</time></trkpt><trkpt lat="45.78430867650856" lon="9.191926586351263"><ele>347.0</ele><time>2026-04-25T07:10:59.999Z</time></trkpt><trkpt lat="45.784372875798134" lon="9.191995415177685"><ele>347.0</ele><time>2026-04-25T07:11:00.999Z</time></trkpt><trkpt lat="45.78444218823323" lon="9.192061417825828"><ele>347.33333333333337</ele><time>2026-04-25T07:11:01.999Z</time></trkpt><trkpt lat="45.784513788391656" lon="9.192127597331375"><ele>347.6666666666667</ele><time>2026-04-25T07:11:02.999Z</time></trkpt><trkpt lat="45.78458773038339" lon="9.192192261617151"><ele>348.0</ele><time>2026-04-25T07:11:03.999Z</time></trkpt><trkpt lat="45.78465998082305" lon="9.192258280648081"><ele>348.3333333333333</ele><time>2026-04-25T07:11:04.999Z</time></trkpt><trkpt lat="45.78473425388122" lon="9.192323382018717"><ele>348.66666666666663</ele><time>2026-04-25T07:11:05.999Z</time></trkpt><trkpt lat="45.78480723486955" lon="9.192390809544278"><ele>349.0</ele><time>2026-04-25T07:11:06.999Z</time></trkpt><trkpt lat="45.784880662998056" lon="9.192460880365253"><ele>349.0</ele><time>2026-04-25T07:11:07.999Z</time></trkpt><trkpt lat="45.78495024373818" lon="9.192525888346514"><ele>349.0</ele><time>2026-04-25T07:11:08.999Z</time></trkpt><trkpt lat="45.78501787930216" lon="9.1925888242361"><ele>349.0</ele><time>2026-04-25T07:11:09.999Z</time></trkpt><trkpt lat="45.78508512096357" lon="9.192651532082044"><ele>349.0</ele><time>2026-04-25T07:11:10.999Z</time></trkpt><trkpt lat="45.785153114742506" lon="9.192714201720293"><ele>349.0</ele><time>2026-04-25T07:11:11.999Z</time></trkpt><trkpt lat="45.78521830417218" lon="9.192776234177039"><ele>349.0</ele><time>2026-04-25T07:11:12.999Z</time></trkpt><trkpt lat="45.78528313016914" lon="9.192839403399319"><ele>349.1428571428571</ele><time>2026-04-25T07:11:13.999Z</time></trkpt><trkpt lat="45.78535098139796" lon="9.192900595368299"><ele>349.2857142857143</ele><time>2026-04-25T07:11:14.999Z</time></trkpt><trkpt lat="45.785419590951676" lon="9.192960515147702"><ele>349.42857142857144</ele><time>2026-04-25T07:11:15.999Z</time></trkpt><trkpt lat="45.785484863525326" lon="9.19301907548937"><ele>349.57142857142856</ele><time>2026-04-25T07:11:16.999Z</time></trkpt><trkpt lat="45.785546646329884" lon="9.193074858222724"><ele>349.7142857142857</ele><time>2026-04-25T07:11:17.999Z</time></trkpt><trkpt lat="45.785605991359276" lon="9.193130128167468"><ele>349.85714285714283</ele><time>2026-04-25T07:11:18.999Z</time></trkpt><trkpt lat="45.7856617543517" lon="9.193183762054682"><ele>350.0</ele><time>2026-04-25T07:11:19.999Z</time></trkpt><trkpt lat="45.78571955209067" lon="9.193240466992142"><ele>350.0</ele><time>2026-04-25T07:11:20.999Z</time></trkpt><trkpt lat="45.78577902292832" lon="9.193298825812454"><ele>350.0</ele><time>2026-04-25T07:11:21.999Z</time></trkpt><trkpt lat="45.78584248481159" lon="9.193352140089685"><ele>350.0</ele><time>2026-04-25T07:11:22.999Z</time></trkpt><trkpt lat="45.78590941956744" lon="9.19340884884762"><ele>350.0</ele><time>2026-04-25T07:11:23.999Z</time></trkpt><trkpt lat="45.785976657559665" lon="9.193469808883451"><ele>350.0</ele><time>2026-04-25T07:11:24.999Z</time></trkpt><trkpt lat="45.78604330616918" lon="9.193526643572106"><ele>350.0</ele><time>2026-04-25T07:11:25.999Z</time></trkpt><trkpt lat="45.78610679036424" lon="9.193589428824295"><ele>349.7142857142857</ele><time>2026-04-25T07:11:26.999Z</time></trkpt><trkpt lat="45.78616881761638" lon="9.193647990041214"><ele>349.42857142857144</ele><time>2026-04-25T07:11:27.999Z</time></trkpt><trkpt lat="45.786233311131745" lon="9.193700785338278"><ele>349.1428571428571</ele><time>2026-04-25T07:11:28.999Z</time></trkpt><trkpt lat="45.78629320880544" lon="9.19376089445138"><ele>348.8571428571429</ele><time>2026-04-25T07:11:29.999Z</time></trkpt><trkpt lat="45.786349245152074" lon="9.193825225212056"><ele>348.57142857142856</ele><time>2026-04-25T07:11:30.999Z</time></trkpt><trkpt lat="45.786407436005945" lon="9.193880112839018"><ele>348.2857142857143</ele><time>2026-04-25T07:11:31.999Z</time></trkpt><trkpt lat="45.78646123031826" lon="9.19393053315701"><ele>348.0</ele><time>2026-04-25T07:11:32.999Z</time></trkpt><trkpt lat="45.78654400571963" lon="9.194009749810446"><ele>348.0</ele><time>2026-04-25T07:11:34.999Z</time></trkpt><trkpt lat="45.78660118266" lon="9.194059353674104"><ele>348.0</ele><time>2026-04-25T07:11:36.999Z</time></trkpt><trkpt lat="45.786665045285574" lon="9.194090787761633"><ele>348.0</ele><time>2026-04-25T07:12:10Z</time></trkpt><trkpt lat="45.78673298161229" lon="9.194151357233212"><ele>348.0</ele><time>2026-04-25T07:12:12Z</time></trkpt><trkpt lat="45.786809713157865" lon="9.194218104245149"><ele>348.0</ele><time>2026-04-25T07:12:14Z</time></trkpt><trkpt lat="45.7869042349484" lon="9.194309531013257"><ele>348.0</ele><time>2026-04-25T07:12:16Z</time></trkpt><trkpt lat="45.786958468810276" lon="9.194366062702684"><ele>348.5</ele><time>2026-04-25T07:12:17Z</time></trkpt><trkpt lat="45.78701576607813" lon="9.194426481852403"><ele>349.0</ele><time>2026-04-25T07:12:18Z</time></trkpt><trkpt lat="45.787077947414566" lon="9.194492153546665"><ele>349.5</ele><time>2026-04-25T07:12:19Z</time></trkpt><trkpt lat="45.78714395986352" lon="9.194558440829555"><ele>350.0</ele><time>2026-04-25T07:12:20Z</time></trkpt><trkpt lat="45.78721597136687" lon="9.194626169924955"><ele>350.5</ele><time>2026-04-25T07:12:21Z</time></trkpt><trkpt lat="45.78728620455826" lon="9.1947070059493"><ele>351.0</ele><time>2026-04-25T07:12:22Z</time></trkpt><trkpt lat="45.7873511798218" lon="9.194803001983217"><ele>349.0</ele><time>2026-04-25T07:12:23Z</time></trkpt><trkpt lat="45.787407834596024" lon="9.194910139031796"><ele>347.0</ele><time>2026-04-25T07:12:24Z</time></trkpt><trkpt lat="45.78745819723727" lon="9.195024912568522"><ele>345.0</ele><time>2026-04-25T07:12:25Z</time></trkpt><trkpt lat="45.78749787064221" lon="9.195148377619814"><ele>343.0</ele><time>2026-04-25T07:12:26Z</time></trkpt><trkpt lat="45.78752700358578" lon="9.195278006698732"><ele>341.0</ele><time>2026-04-25T07:12:27Z</time></trkpt><trkpt lat="45.78753789327033" lon="9.195405241193654"><ele>341.0</ele><time>2026-04-25T07:12:28Z</time></trkpt><trkpt lat="45.787536656830866" lon="9.19553018796928"><ele>341.0</ele><time>2026-04-25T07:12:29Z</time></trkpt><trkpt lat="45.78753752789313" lon="9.195649298410089"><ele>341.0</ele><time>2026-04-25T07:12:30Z</time></trkpt><trkpt lat="45.78753859241396" lon="9.195758576379612"><ele>341.0</ele><time>2026-04-25T07:12:31Z</time></trkpt><trkpt lat="45.78753225748487" lon="9.195867391406658"><ele>341.0</ele><time>2026-04-25T07:12:32Z</time></trkpt><trkpt lat="45.78752548888869" lon="9.195976528245792"><ele>341.0</ele><time>2026-04-25T07:12:33Z</time></trkpt><trkpt lat="45.7875207351145" lon="9.196073497449591"><ele>340.1666666666667</ele><time>2026-04-25T07:12:34Z</time></trkpt><trkpt lat="45.787507110246175" lon="9.19621337603291"><ele>339.33333333333337</ele><time>2026-04-25T07:12:36Z</time></trkpt><trkpt lat="45.78750240415539" lon="9.19631367096356"><ele>338.5</ele><time>2026-04-25T07:12:38Z</time></trkpt><trkpt lat="45.78750881650524" lon="9.19640662316237"><ele>337.6666666666667</ele><time>2026-04-25T07:12:46Z</time></trkpt><trkpt lat="45.787566110145356" lon="9.196518710172137"><ele>336.8333333333333</ele><time>2026-04-25T07:12:49Z</time></trkpt><trkpt lat="45.787627099945055" lon="9.196606746468243"><ele>336.0</ele><time>2026-04-25T07:12:51Z</time></trkpt><trkpt lat="45.787712827451024" lon="9.196659473337496"><ele>335.5</ele><time>2026-04-25T07:12:53Z</time></trkpt><trkpt lat="45.78780638026094" lon="9.196724949038956"><ele>335.0</ele><time>2026-04-25T07:12:55Z</time></trkpt><trkpt lat="45.78791766850654" lon="9.196795362348798"><ele>334.5</ele><time>2026-04-25T07:12:57Z</time></trkpt><trkpt lat="45.7879796993072" lon="9.196833423863122"><ele>334.0</ele><time>2026-04-25T07:12:58Z</time></trkpt><trkpt lat="45.78804389396825" lon="9.196880450599519"><ele>333.5</ele><time>2026-04-25T07:12:59Z</time></trkpt><trkpt lat="45.78810785430317" lon="9.1969295006857"><ele>333.0</ele><time>2026-04-25T07:13:00Z</time></trkpt><trkpt lat="45.78817198326039" lon="9.19697257236301"><ele>333.0</ele><time>2026-04-25T07:13:01Z</time></trkpt><trkpt lat="45.78823699549575" lon="9.197011770393182"><ele>333.0</ele><time>2026-04-25T07:13:02Z</time></trkpt><trkpt lat="45.788303507106605" lon="9.197052697754726"><ele>333.0</ele><time>2026-04-25T07:13:03Z</time></trkpt><trkpt lat="45.78837463301476" lon="9.197085651676577"><ele>333.0</ele><time>2026-04-25T07:13:04Z</time></trkpt><trkpt lat="45.78845006289788" lon="9.197116319025621"><ele>333.0</ele><time>2026-04-25T07:13:05Z</time></trkpt><trkpt lat="45.788523880644604" lon="9.19714562427626"><ele>333.0</ele><time>2026-04-25T07:13:06Z</time></trkpt><trkpt lat="45.78859870831267" lon="9.197175573951482"><ele>333.8333333333333</ele><time>2026-04-25T07:13:07Z</time></trkpt><trkpt lat="45.78867578702408" lon="9.197201944309159"><ele>334.6666666666667</ele><time>2026-04-25T07:13:08Z</time></trkpt><trkpt lat="45.78875098134129" lon="9.197227259642728"><ele>335.5</ele><time>2026-04-25T07:13:09Z</time></trkpt><trkpt lat="45.78882403843814" lon="9.197253161822239"><ele>336.33333333333337</ele><time>2026-04-25T07:13:10Z</time></trkpt><trkpt lat="45.78889733837522" lon="9.197280381821836"><ele>337.1666666666667</ele><time>2026-04-25T07:13:11Z</time></trkpt><trkpt lat="45.788971953891235" lon="9.197303282027727"><ele>338.0</ele><time>2026-04-25T07:13:12Z</time></trkpt><trkpt lat="45.78904947940716" lon="9.197326579776433"><ele>338.1666666666667</ele><time>2026-04-25T07:13:13Z</time></trkpt><trkpt lat="45.78912607257629" lon="9.197351019287966"><ele>338.33333333333337</ele><time>2026-04-25T07:13:14Z</time></trkpt><trkpt lat="45.789202488686975" lon="9.197372699744124"><ele>338.5</ele><time>2026-04-25T07:13:15Z</time></trkpt><trkpt lat="45.78928030055415" lon="9.197395677833821"><ele>338.6666666666667</ele><time>2026-04-25T07:13:16Z</time></trkpt><trkpt lat="45.789356294004186" lon="9.197421845702785"><ele>338.8333333333333</ele><time>2026-04-25T07:13:17Z</time></trkpt><trkpt lat="45.78943338615315" lon="9.197450211918893"><ele>339.0</ele><time>2026-04-25T07:13:18Z</time></trkpt><trkpt lat="45.78951114639775" lon="9.197476617996145"><ele>338.7142857142857</ele><time>2026-04-25T07:13:19Z</time></trkpt><trkpt lat="45.78958720843862" lon="9.197492983407935"><ele>338.42857142857144</ele><time>2026-04-25T07:13:20Z</time></trkpt><trkpt lat="45.78966116292756" lon="9.19750499126366"><ele>338.14285714285717</ele><time>2026-04-25T07:13:21Z</time></trkpt><trkpt lat="45.789733999550286" lon="9.197522648073132"><ele>337.8571428571429</ele><time>2026-04-25T07:13:22Z</time></trkpt><trkpt lat="45.78980769881543" lon="9.197540963591196"><ele>337.57142857142856</ele><time>2026-04-25T07:13:23Z</time></trkpt><trkpt lat="45.78988220686618" lon="9.197561080275845"><ele>337.28571428571433</ele><time>2026-04-25T07:13:24Z</time></trkpt><trkpt lat="45.78995306414751" lon="9.197581454989493"><ele>337.0</ele><time>2026-04-25T07:13:25Z</time></trkpt><trkpt lat="45.79002132889855" lon="9.19760265392052"><ele>337.0</ele><time>2026-04-25T07:13:26Z</time></trkpt><trkpt lat="45.79008818246686" lon="9.197620819599635"><ele>337.0</ele><time>2026-04-25T07:13:27Z</time></trkpt><trkpt lat="45.79015471987574" lon="9.197642104035328"><ele>337.0</ele><time>2026-04-25T07:13:28Z</time></trkpt><trkpt lat="45.79021822974602" lon="9.197663896856435"><ele>337.0</ele><time>2026-04-25T07:13:29Z</time></trkpt><trkpt lat="45.790333970380594" lon="9.197721102806149"><ele>337.0</ele><time>2026-04-25T07:13:31Z</time></trkpt><trkpt lat="45.790433705899815" lon="9.197751920776197"><ele>337.0</ele><time>2026-04-25T07:13:33Z</time></trkpt><trkpt lat="45.79051534022332" lon="9.197758258810826"><ele>336.6</ele><time>2026-04-25T07:13:35Z</time></trkpt><trkpt lat="45.790587615349494" lon="9.197779257417439"><ele>336.20000000000005</ele><time>2026-04-25T07:13:37Z</time></trkpt><trkpt lat="45.790670980630786" lon="9.197803837467035"><ele>335.8</ele><time>2026-04-25T07:13:39Z</time></trkpt><trkpt lat="45.790755852726484" lon="9.197847570398551"><ele>335.4</ele><time>2026-04-25T07:13:41Z</time></trkpt><trkpt lat="45.790826456884886" lon="9.197625552934433"><ele>335.0</ele><time>2026-04-25T07:13:44Z</time></trkpt><trkpt lat="45.790817146413346" lon="9.197500183389842"><ele>335.0</ele><time>2026-04-25T07:13:46Z</time></trkpt><trkpt lat="45.79081587018701" lon="9.197394564188457"><ele>335.0</ele><time>2026-04-25T07:13:48Z</time></trkpt><trkpt lat="45.79081757114346" lon="9.197298949258602"><ele>335.0</ele><time>2026-04-25T07:13:50Z</time></trkpt><trkpt lat="45.790823954468635" lon="9.197172890965765"><ele>335.0</ele><time>2026-04-25T07:13:53Z</time></trkpt><trkpt lat="45.79081447193683" lon="9.197065260236643"><ele>335.0</ele><time>2026-04-25T07:13:56Z</time></trkpt><trkpt lat="45.7908272089755" lon="9.196956542132758"><ele>335.0</ele><time>2026-04-25T07:14:11Z</time></trkpt><trkpt lat="45.790837400268046" lon="9.196834273240485"><ele>335.2</ele><time>2026-04-25T07:14:14Z</time></trkpt><trkpt lat="45.79084632288093" lon="9.196696532725774"><ele>335.4</ele><time>2026-04-25T07:14:17Z</time></trkpt><trkpt lat="45.79087284607778" lon="9.196583223064714"><ele>335.6</ele><time>2026-04-25T07:14:19Z</time></trkpt><trkpt lat="45.7909157190066" lon="9.196471239134684"><ele>335.8</ele><time>2026-04-25T07:14:21Z</time></trkpt><trkpt lat="45.7909594371925" lon="9.196358723174672"><ele>336.0</ele><time>2026-04-25T07:14:23Z</time></trkpt><trkpt lat="45.79101160895309" lon="9.19624369183618"><ele>336.4</ele><time>2026-04-25T07:14:25Z</time></trkpt><trkpt lat="45.79105920712222" lon="9.196116099067766"><ele>336.8</ele><time>2026-04-25T07:14:27Z</time></trkpt><trkpt lat="45.79112220604225" lon="9.19599795940605"><ele>337.2</ele><time>2026-04-25T07:14:29Z</time></trkpt><trkpt lat="45.79118144678251" lon="9.195874696064402"><ele>337.59999999999997</ele><time>2026-04-25T07:14:31Z</time></trkpt><trkpt lat="45.791244551156126" lon="9.195754708455173"><ele>338.0</ele><time>2026-04-25T07:14:33Z</time></trkpt><trkpt lat="45.79133129369363" lon="9.195660391783957"><ele>338.59999999999997</ele><time>2026-04-25T07:14:35Z</time></trkpt><trkpt lat="45.791425366054845" lon="9.195577784468991"><ele>339.2</ele><time>2026-04-25T07:14:37Z</time></trkpt><trkpt lat="45.79151975945813" lon="9.195491556342969"><ele>339.8</ele><time>2026-04-25T07:14:39Z</time></trkpt><trkpt lat="45.79161563689778" lon="9.195405588160547"><ele>340.4</ele><time>2026-04-25T07:14:41Z</time></trkpt><trkpt lat="45.79170946384915" lon="9.195316285429046"><ele>341.0</ele><time>2026-04-25T07:14:43Z</time></trkpt><trkpt lat="45.791804353688555" lon="9.195229133934976"><ele>341.4</ele><time>2026-04-25T07:14:45Z</time></trkpt><trkpt lat="45.79190182184804" lon="9.195147209352541"><ele>341.8</ele><time>2026-04-25T07:14:47Z</time></trkpt><trkpt lat="45.79199305025171" lon="9.195058022989375"><ele>342.2</ele><time>2026-04-25T07:14:49Z</time></trkpt><trkpt lat="45.79206927834445" lon="9.194993803944044"><ele>342.59999999999997</ele><time>2026-04-25T07:14:51Z</time></trkpt><trkpt lat="45.792146943711614" lon="9.194922449215852"><ele>343.0</ele><time>2026-04-25T07:14:53Z</time></trkpt><trkpt lat="45.792222830173316" lon="9.194838025311824"><ele>344.3333333333333</ele><time>2026-04-25T07:14:55Z</time></trkpt><trkpt lat="45.79230835022604" lon="9.194781969941237"><ele>345.66666666666663</ele><time>2026-04-25T07:14:57Z</time></trkpt><trkpt lat="45.79238383330967" lon="9.194724130655507"><ele>347.0</ele><time>2026-04-25T07:14:59Z</time></trkpt><trkpt lat="45.792450932403575" lon="9.194657863133914"><ele>348.3333333333333</ele><time>2026-04-25T07:15:01Z</time></trkpt><trkpt lat="45.79252110819055" lon="9.194590794748144"><ele>349.6666666666667</ele><time>2026-04-25T07:15:03Z</time></trkpt><trkpt lat="45.79259305186076" lon="9.194530386708259"><ele>351.0</ele><time>2026-04-25T07:15:05Z</time></trkpt><trkpt lat="45.79266430771577" lon="9.194469647573213"><ele>351.5</ele><time>2026-04-25T07:15:07Z</time></trkpt><trkpt lat="45.79273212258985" lon="9.194406134849238"><ele>352.0</ele><time>2026-04-25T07:15:09Z</time></trkpt><trkpt lat="45.79279741370708" lon="9.194340199686819"><ele>352.5</ele><time>2026-04-25T07:15:11Z</time></trkpt><trkpt lat="45.79285346890814" lon="9.19425791000123"><ele>353.0</ele><time>2026-04-25T07:15:13Z</time></trkpt><trkpt lat="45.79289851659241" lon="9.194154222334477"><ele>353.5</ele><time>2026-04-25T07:15:15Z</time></trkpt><trkpt lat="45.79292937333839" lon="9.194042756189875"><ele>354.0</ele><time>2026-04-25T07:15:17Z</time></trkpt><trkpt lat="45.79295783595399" lon="9.193931772480038"><ele>354.8333333333333</ele><time>2026-04-25T07:15:19Z</time></trkpt><trkpt lat="45.79298723429116" lon="9.19382403005216"><ele>355.6666666666667</ele><time>2026-04-25T07:15:21Z</time></trkpt><trkpt lat="45.79301374429458" lon="9.193715601812485"><ele>356.5</ele><time>2026-04-25T07:15:23Z</time></trkpt><trkpt lat="45.79303777667026" lon="9.193602614689791"><ele>357.33333333333337</ele><time>2026-04-25T07:15:25Z</time></trkpt><trkpt lat="45.793062013762324" lon="9.19349187536432"><ele>358.1666666666667</ele><time>2026-04-25T07:15:27Z</time></trkpt><trkpt lat="45.79309082394471" lon="9.193385486804255"><ele>359.0</ele><time>2026-04-25T07:15:29Z</time></trkpt><trkpt lat="45.793114331403864" lon="9.193276031005903"><ele>359.5</ele><time>2026-04-25T07:15:31Z</time></trkpt><trkpt lat="45.79312979070927" lon="9.193157293195394"><ele>360.0</ele><time>2026-04-25T07:15:33Z</time></trkpt><trkpt lat="45.79314133989072" lon="9.193037845415185"><ele>360.5</ele><time>2026-04-25T07:15:35Z</time></trkpt><trkpt lat="45.79314198879038" lon="9.192933053484913"><ele>361.0</ele><time>2026-04-25T07:15:37Z</time></trkpt><trkpt lat="45.79315700447185" lon="9.192822063509901"><ele>361.5</ele><time>2026-04-25T07:15:39Z</time></trkpt><trkpt lat="45.793221780360724" lon="9.192734618407796"><ele>362.0</ele><time>2026-04-25T07:15:41Z</time></trkpt><trkpt lat="45.79332639459942" lon="9.192703192634559"><ele>362.0</ele><time>2026-04-25T07:15:43Z</time></trkpt><trkpt lat="45.793417802175505" lon="9.192665899049702"><ele>362.0</ele><time>2026-04-25T07:15:45Z</time></trkpt><trkpt lat="45.79351406966184" lon="9.192622005019926"><ele>362.0</ele><time>2026-04-25T07:15:47Z</time></trkpt><trkpt lat="45.79361344994308" lon="9.192577271046837"><ele>362.0</ele><time>2026-04-25T07:15:49Z</time></trkpt><trkpt lat="45.793716314259854" lon="9.192537820638847"><ele>362.0</ele><time>2026-04-25T07:15:51Z</time></trkpt><trkpt lat="45.79382050153241" lon="9.192498350342117"><ele>362.40000000000003</ele><time>2026-04-25T07:15:53.001Z</time></trkpt><trkpt lat="45.793927463853414" lon="9.192457223053939"><ele>362.8</ele><time>2026-04-25T07:15:55.001Z</time></trkpt><trkpt lat="45.79403066389318" lon="9.192402006916964"><ele>363.2</ele><time>2026-04-25T07:15:57.001Z</time></trkpt><trkpt lat="45.79412401163683" lon="9.192368661213177"><ele>363.6</ele><time>2026-04-25T07:15:59.001Z</time></trkpt><trkpt lat="45.79421637540825" lon="9.192334998802192"><ele>364.0</ele><time>2026-04-25T07:16:01.001Z</time></trkpt><trkpt lat="45.79431061011212" lon="9.192293684755628"><ele>365.0</ele><time>2026-04-25T07:16:03.001Z</time></trkpt><trkpt lat="45.794410273008474" lon="9.192270567551127"><ele>366.0</ele><time>2026-04-25T07:16:05.001Z</time></trkpt><trkpt lat="45.79449964807057" lon="9.192213205383162"><ele>367.0</ele><time>2026-04-25T07:16:07.001Z</time></trkpt><trkpt lat="45.79459582426746" lon="9.192188843000158"><ele>368.0</ele><time>2026-04-25T07:16:09Z</time></trkpt><trkpt lat="45.79468138764174" lon="9.192127018267149"><ele>369.0</ele><time>2026-04-25T07:16:11Z</time></trkpt><trkpt lat="45.79477540584429" lon="9.19209290651651"><ele>369.0</ele><time>2026-04-25T07:16:13Z</time></trkpt><trkpt lat="45.79486700831841" lon="9.19205086460455"><ele>369.0</ele><time>2026-04-25T07:16:15Z</time></trkpt><trkpt lat="45.79495654853904" lon="9.192006759097048"><ele>369.0</ele><time>2026-04-25T07:16:17Z</time></trkpt><trkpt lat="45.79503413817132" lon="9.191935896919329"><ele>369.0</ele><time>2026-04-25T07:16:19Z</time></trkpt><trkpt lat="45.79507960038133" lon="9.191817863159981"><ele>369.0</ele><time>2026-04-25T07:16:21Z</time></trkpt><trkpt lat="45.795111290818845" lon="9.191698612821288"><ele>369.0</ele><time>2026-04-25T07:16:23Z</time></trkpt><trkpt lat="45.79515067563911" lon="9.191591268039916"><ele>369.0</ele><time>2026-04-25T07:16:25Z</time></trkpt><trkpt lat="45.79519180985675" lon="9.191485514003382"><ele>369.0</ele><time>2026-04-25T07:16:27Z</time></trkpt><trkpt lat="45.79523391808673" lon="9.191382195326426"><ele>369.0</ele><time>2026-04-25T07:16:29Z</time></trkpt><trkpt lat="45.79529633096753" lon="9.191297627907296"><ele>369.0</ele><time>2026-04-25T07:16:31Z</time></trkpt><trkpt lat="45.79536621261651" lon="9.191232128939125"><ele>369.0</ele><time>2026-04-25T07:16:33Z</time></trkpt><trkpt lat="45.79543969716143" lon="9.191169116404714"><ele>370.0</ele><time>2026-04-25T07:16:35Z</time></trkpt><trkpt lat="45.795514477077134" lon="9.191107195440559"><ele>371.0</ele><time>2026-04-25T07:16:37Z</time></trkpt><trkpt lat="45.795589063752246" lon="9.191047285733207"><ele>372.0</ele><time>2026-04-25T07:16:39Z</time></trkpt><trkpt lat="45.795662244900846" lon="9.190981770639548"><ele>373.0</ele><time>2026-04-25T07:16:41Z</time></trkpt><trkpt lat="45.79572954677421" lon="9.19090264201413"><ele>374.0</ele><time>2026-04-25T07:16:43Z</time></trkpt><trkpt lat="45.79580036498359" lon="9.190811319711536"><ele>375.0</ele><time>2026-04-25T07:16:45Z</time></trkpt><trkpt lat="45.795871887716" lon="9.190794169489239"><ele>375.0</ele><time>2026-04-25T07:16:47Z</time></trkpt><trkpt lat="45.79594744668805" lon="9.190752060284446"><ele>375.0</ele><time>2026-04-25T07:16:49Z</time></trkpt><trkpt lat="45.79602229858689" lon="9.19070311628168"><ele>375.0</ele><time>2026-04-25T07:16:51Z</time></trkpt><trkpt lat="45.79609751329609" lon="9.190643623328704"><ele>375.0</ele><time>2026-04-25T07:16:53Z</time></trkpt><trkpt lat="45.79616982710469" lon="9.19058716830585"><ele>375.0</ele><time>2026-04-25T07:16:55Z</time></trkpt><trkpt lat="45.79624114320429" lon="9.19054080620601"><ele>375.0</ele><time>2026-04-25T07:16:57Z</time></trkpt><trkpt lat="45.79631706078684" lon="9.190518983556544"><ele>377.14285714285717</ele><time>2026-04-25T07:16:59Z</time></trkpt><trkpt lat="45.79638137692038" lon="9.190505098446403"><ele>379.2857142857143</ele><time>2026-04-25T07:17:01Z</time></trkpt><trkpt lat="45.79644537596861" lon="9.190496850682296"><ele>381.42857142857144</ele><time>2026-04-25T07:17:03Z</time></trkpt><trkpt lat="45.79651174502904" lon="9.190485212779976"><ele>383.57142857142856</ele><time>2026-04-25T07:17:05Z</time></trkpt><trkpt lat="45.79657421907203" lon="9.190470207691536"><ele>385.71428571428567</ele><time>2026-04-25T07:17:07Z</time></trkpt><trkpt lat="45.796641057077274" lon="9.190463732016212"><ele>387.85714285714283</ele><time>2026-04-25T07:17:09Z</time></trkpt><trkpt lat="45.79673561950912" lon="9.190450000280922"><ele>390.0</ele><time>2026-04-25T07:17:12Z</time></trkpt><trkpt lat="45.79680306947092" lon="9.19044367667276"><ele>390.7142857142857</ele><time>2026-04-25T07:17:14Z</time></trkpt><trkpt lat="45.796867801206716" lon="9.190429434726612"><ele>391.42857142857144</ele><time>2026-04-25T07:17:16Z</time></trkpt><trkpt lat="45.79693201154901" lon="9.190415853690249"><ele>392.1428571428571</ele><time>2026-04-25T07:17:18Z</time></trkpt><trkpt lat="45.796994516192974" lon="9.190404000825046"><ele>392.8571428571429</ele><time>2026-04-25T07:17:20Z</time></trkpt><trkpt lat="45.79705693050016" lon="9.190381262372117"><ele>393.5714285714286</ele><time>2026-04-25T07:17:22Z</time></trkpt><trkpt lat="45.79713873580821" lon="9.190331033996015"><ele>394.2857142857143</ele><time>2026-04-25T07:17:25Z</time></trkpt><trkpt lat="45.79722855641083" lon="9.190296142110842"><ele>395.0</ele><time>2026-04-25T07:17:28Z</time></trkpt><trkpt lat="45.79731175316089" lon="9.190240544228024"><ele>395.0</ele><time>2026-04-25T07:17:31Z</time></trkpt><trkpt lat="45.797368350832144" lon="9.190197855248426"><ele>395.0</ele><time>2026-04-25T07:17:33Z</time></trkpt><trkpt lat="45.797426677018855" lon="9.19016291270262"><ele>395.0</ele><time>2026-04-25T07:17:35Z</time></trkpt><trkpt lat="45.797488731543176" lon="9.190134901932016"><ele>395.0</ele><time>2026-04-25T07:17:37Z</time></trkpt><trkpt lat="45.797552401200804" lon="9.190117567687912"><ele>395.0</ele><time>2026-04-25T07:17:39Z</time></trkpt><trkpt lat="45.797611728977735" lon="9.190077128353064"><ele>395.0</ele><time>2026-04-25T07:17:41Z</time></trkpt><trkpt lat="45.797663869522786" lon="9.190022596081782"><ele>395.0</ele><time>2026-04-25T07:17:43Z</time></trkpt><trkpt lat="45.79770414349799" lon="9.189951808385624"><ele>395.66666666666663</ele><time>2026-04-25T07:17:45Z</time></trkpt><trkpt lat="45.7977660340033" lon="9.189862593491373"><ele>396.3333333333333</ele><time>2026-04-25T07:17:48Z</time></trkpt><trkpt lat="45.79781855000134" lon="9.189793077636288"><ele>397.0</ele><time>2026-04-25T07:17:51Z</time></trkpt><trkpt lat="45.79788088680655" lon="9.189748646594602"><ele>397.66666666666663</ele><time>2026-04-25T07:17:55Z</time></trkpt><trkpt lat="45.797920600803636" lon="9.189669933861275"><ele>398.3333333333333</ele><time>2026-04-25T07:18:56Z</time></trkpt><trkpt lat="45.79796350118134" lon="9.189564348633183"><ele>399.0</ele><time>2026-04-25T07:18:59Z</time></trkpt><trkpt lat="45.798014119701485" lon="9.18946965126306"><ele>400.0</ele><time>2026-04-25T07:19:02Z</time></trkpt><trkpt lat="45.79804631917169" lon="9.189359735454914"><ele>401.0</ele><time>2026-04-25T07:19:05Z</time></trkpt><trkpt lat="45.798103410388" lon="9.189258693101182"><ele>402.0</ele><time>2026-04-25T07:19:08Z</time></trkpt><trkpt lat="45.79816365004368" lon="9.189159630063768"><ele>403.0</ele><time>2026-04-25T07:19:11Z</time></trkpt><trkpt lat="45.79822702583606" lon="9.189068727731394"><ele>404.0</ele><time>2026-04-25T07:19:14Z</time></trkpt><trkpt lat="45.798302204486376" lon="9.188995768360831"><ele>405.0</ele><time>2026-04-25T07:19:17Z</time></trkpt><trkpt lat="45.79835972260946" lon="9.188955787045002"><ele>405.85714285714283</ele><time>2026-04-25T07:19:19Z</time></trkpt><trkpt lat="45.79842081523398" lon="9.188933856828609"><ele>406.7142857142857</ele><time>2026-04-25T07:19:21Z</time></trkpt><trkpt lat="45.79848503765934" lon="9.188922485529577"><ele>407.57142857142856</ele><time>2026-04-25T07:19:23Z</time></trkpt><trkpt lat="45.798552635183306" lon="9.188921350274583"><ele>408.42857142857144</ele><time>2026-04-25T07:19:25Z</time></trkpt><trkpt lat="45.79863775577091" lon="9.188942370333194"><ele>409.2857142857143</ele><time>2026-04-25T07:19:28Z</time></trkpt><trkpt lat="45.79870124230651" lon="9.188973967445708"><ele>410.1428571428571</ele><time>2026-04-25T07:19:30Z</time></trkpt><trkpt lat="45.79876615841017" lon="9.18900973459272"><ele>411.0</ele><time>2026-04-25T07:19:32Z</time></trkpt><trkpt lat="45.798832699450834" lon="9.189049606371546"><ele>411.0</ele><time>2026-04-25T07:19:34Z</time></trkpt><trkpt lat="45.798902375723365" lon="9.189084572283342"><ele>411.0</ele><time>2026-04-25T07:19:36Z</time></trkpt><trkpt lat="45.798971007567076" lon="9.189122250996624"><ele>411.0</ele><time>2026-04-25T07:19:38Z</time></trkpt><trkpt lat="45.79904659177285" lon="9.189151963783955"><ele>411.0</ele><time>2026-04-25T07:19:40Z</time></trkpt><trkpt lat="45.79912981033639" lon="9.189180057639287"><ele>411.0</ele><time>2026-04-25T07:19:42Z</time></trkpt><trkpt lat="45.79920872271923" lon="9.189212727673764"><ele>411.0</ele><time>2026-04-25T07:19:44Z</time></trkpt><trkpt lat="45.7992917792904" lon="9.18923906160724"><ele>411.5</ele><time>2026-04-25T07:19:46Z</time></trkpt><trkpt lat="45.799375476850464" lon="9.189256016898812"><ele>412.0</ele><time>2026-04-25T07:19:48Z</time></trkpt><trkpt lat="45.79945914974614" lon="9.189250514216592"><ele>412.5</ele><time>2026-04-25T07:19:50Z</time></trkpt><trkpt lat="45.79954291733152" lon="9.18923263194899"><ele>413.0</ele><time>2026-04-25T07:19:52Z</time></trkpt><trkpt lat="45.79962538372672" lon="9.189205025040959"><ele>413.5</ele><time>2026-04-25T07:19:54Z</time></trkpt><trkpt lat="45.79970417999381" lon="9.189172700161555"><ele>414.0</ele><time>2026-04-25T07:19:56Z</time></trkpt><trkpt lat="45.799780517685136" lon="9.189129901314518"><ele>414.0</ele><time>2026-04-25T07:19:58Z</time></trkpt><trkpt lat="45.79985788985575" lon="9.189085747706793"><ele>414.0</ele><time>2026-04-25T07:20:00Z</time></trkpt><trkpt lat="45.799936871791544" lon="9.189048843676852"><ele>414.0</ele><time>2026-04-25T07:20:02Z</time></trkpt><trkpt lat="45.800013288097" lon="9.189008219035358"><ele>414.0</ele><time>2026-04-25T07:20:04.001Z</time></trkpt><trkpt lat="45.80008960717314" lon="9.188965521874977"><ele>414.0</ele><time>2026-04-25T07:20:06.001Z</time></trkpt><trkpt lat="45.80016648012532" lon="9.188930061091805"><ele>414.0</ele><time>2026-04-25T07:20:08.001Z</time></trkpt><trkpt lat="45.80024410360985" lon="9.188890993639609"><ele>415.3333333333333</ele><time>2026-04-25T07:20:10.001Z</time></trkpt><trkpt lat="45.80031996136901" lon="9.188854390508649"><ele>416.66666666666663</ele><time>2026-04-25T07:20:12.001Z</time></trkpt><trkpt lat="45.80040083662227" lon="9.188818870071167"><ele>418.0</ele><time>2026-04-25T07:20:14.001Z</time></trkpt><trkpt lat="45.80048057773238" lon="9.188778825003327"><ele>419.3333333333333</ele><time>2026-04-25T07:20:16.001Z</time></trkpt><trkpt lat="45.800560038878075" lon="9.188738743423945"><ele>420.66666666666663</ele><time>2026-04-25T07:20:18.001Z</time></trkpt><trkpt lat="45.80064757157338" lon="9.188700717108244"><ele>422.0</ele><time>2026-04-25T07:20:20.001Z</time></trkpt><trkpt lat="45.80073119008856" lon="9.188651427390225"><ele>421.99999999999994</ele><time>2026-04-25T07:20:22.001Z</time></trkpt><trkpt lat="45.80081828615131" lon="9.188606035574933"><ele>422.0</ele><time>2026-04-25T07:20:24Z</time></trkpt><trkpt lat="45.80090196236115" lon="9.188562718664196"><ele>422.0</ele><time>2026-04-25T07:20:26Z</time></trkpt><trkpt lat="45.80097840545796" lon="9.188524931165595"><ele>422.0</ele><time>2026-04-25T07:20:28Z</time></trkpt><trkpt lat="45.801063502787926" lon="9.18849048776712"><ele>421.99999999999994</ele><time>2026-04-25T07:20:30Z</time></trkpt><trkpt lat="45.80115075646394" lon="9.188459750316621"><ele>422.0</ele><time>2026-04-25T07:20:32Z</time></trkpt><trkpt lat="45.80123921621796" lon="9.188421893167996"><ele>423.0</ele><time>2026-04-25T07:20:34Z</time></trkpt><trkpt lat="45.801331433513894" lon="9.188405945674955"><ele>424.0</ele><time>2026-04-25T07:20:36Z</time></trkpt><trkpt lat="45.80142443738791" lon="9.188428658914136"><ele>425.00000000000006</ele><time>2026-04-25T07:20:38Z</time></trkpt><trkpt lat="45.801506867244335" lon="9.188504055562696"><ele>426.0</ele><time>2026-04-25T07:20:40Z</time></trkpt><trkpt lat="45.80156064831377" lon="9.188615226298916"><ele>427.0</ele><time>2026-04-25T07:20:42Z</time></trkpt><trkpt lat="45.80158796262447" lon="9.188714057503159"><ele>427.00000000000006</ele><time>2026-04-25T07:20:44Z</time></trkpt><trkpt lat="45.80162962363631" lon="9.188824542387678"><ele>427.0</ele><time>2026-04-25T07:20:47Z</time></trkpt><trkpt lat="45.80168595953104" lon="9.188897763294731"><ele>427.0</ele><time>2026-04-25T07:20:50Z</time></trkpt><trkpt lat="45.80176964660125" lon="9.188861389827"><ele>427.0</ele><time>2026-04-25T07:20:53Z</time></trkpt><trkpt lat="45.80181569143899" lon="9.188752482451797"><ele>427.00000000000006</ele><time>2026-04-25T07:20:55Z</time></trkpt><trkpt lat="45.801860001188196" lon="9.188644441453382"><ele>427.0</ele><time>2026-04-25T07:20:57Z</time></trkpt><trkpt lat="45.801915520706125" lon="9.18853657077943"><ele>427.33333333333337</ele><time>2026-04-25T07:20:59Z</time></trkpt><trkpt lat="45.80196048653125" lon="9.188421384070587"><ele>427.6666666666667</ele><time>2026-04-25T07:21:01Z</time></trkpt><trkpt lat="45.80200860424218" lon="9.188305847101761"><ele>428.0</ele><time>2026-04-25T07:21:03Z</time></trkpt><trkpt lat="45.802055481984006" lon="9.18818596765538"><ele>428.33333333333337</ele><time>2026-04-25T07:21:05Z</time></trkpt><trkpt lat="45.802092405946865" lon="9.188081933314919"><ele>428.6666666666667</ele><time>2026-04-25T07:21:07Z</time></trkpt><trkpt lat="45.80213524415775" lon="9.18800562032205"><ele>429.0</ele><time>2026-04-25T07:21:09Z</time></trkpt><trkpt lat="45.802125230738625" lon="9.187906381630777"><ele>429.3333333333333</ele><time>2026-04-25T07:21:11Z</time></trkpt><trkpt lat="45.80206656029312" lon="9.187808096748185"><ele>429.66666666666663</ele><time>2026-04-25T07:21:13Z</time></trkpt><trkpt lat="45.802000873996995" lon="9.187736551156387"><ele>430.0</ele><time>2026-04-25T07:21:15Z</time></trkpt><trkpt lat="45.80193593764076" lon="9.187655291751545"><ele>430.3333333333333</ele><time>2026-04-25T07:21:17Z</time></trkpt><trkpt lat="45.801885992341354" lon="9.187567213157893"><ele>430.66666666666663</ele><time>2026-04-25T07:21:19Z</time></trkpt><trkpt lat="45.80190320416884" lon="9.187444112325677"><ele>431.0</ele><time>2026-04-25T07:21:21Z</time></trkpt><trkpt lat="45.80197125444005" lon="9.187345093176932"><ele>431.3333333333333</ele><time>2026-04-25T07:21:23Z</time></trkpt><trkpt lat="45.80203934912597" lon="9.187257421317296"><ele>431.66666666666663</ele><time>2026-04-25T07:21:25Z</time></trkpt><trkpt lat="45.80211626238798" lon="9.187183661635743"><ele>432.0</ele><time>2026-04-25T07:21:27Z</time></trkpt><trkpt lat="45.802186569411504" lon="9.187104079084964"><ele>432.33333333333337</ele><time>2026-04-25T07:21:29Z</time></trkpt><trkpt lat="45.802248026623204" lon="9.187029934076747"><ele>432.6666666666667</ele><time>2026-04-25T07:21:31Z</time></trkpt><trkpt lat="45.80231461995379" lon="9.186959495080375"><ele>433.0</ele><time>2026-04-25T07:21:33Z</time></trkpt><trkpt lat="45.802376273824684" lon="9.186880286557827"><ele>433.00000000000006</ele><time>2026-04-25T07:21:35Z</time></trkpt><trkpt lat="45.80244228984715" lon="9.186812589063283"><ele>433.0</ele><time>2026-04-25T07:21:37Z</time></trkpt><trkpt lat="45.802510721577804" lon="9.186743681019369"><ele>433.0</ele><time>2026-04-25T07:21:39Z</time></trkpt><trkpt lat="45.80257572698944" lon="9.186672210240015"><ele>433.0</ele><time>2026-04-25T07:21:41Z</time></trkpt><trkpt lat="45.80263874529431" lon="9.186598797400823"><ele>433.00000000000006</ele><time>2026-04-25T07:21:43Z</time></trkpt><trkpt lat="45.802668778877454" lon="9.186497932870108"><ele>433.0</ele><time>2026-04-25T07:21:45Z</time></trkpt><trkpt lat="45.802638719922925" lon="9.186382015672153"><ele>434.4</ele><time>2026-04-25T07:21:47Z</time></trkpt><trkpt lat="45.80257712844606" lon="9.186283889560565"><ele>435.79999999999995</ele><time>2026-04-25T07:21:49Z</time></trkpt><trkpt lat="45.802532896197995" lon="9.186171351090588"><ele>437.2</ele><time>2026-04-25T07:21:51Z</time></trkpt><trkpt lat="45.80249524196829" lon="9.186046850448182"><ele>438.6</ele><time>2026-04-25T07:21:53Z</time></trkpt><trkpt lat="45.802478243339664" lon="9.185909592253331"><ele>440.0</ele><time>2026-04-25T07:21:55Z</time></trkpt><trkpt lat="45.80244627514123" lon="9.185768617363754"><ele>443.6</ele><time>2026-04-25T07:21:57Z</time></trkpt><trkpt lat="45.80240902238596" lon="9.18563258912852"><ele>447.2</ele><time>2026-04-25T07:21:59Z</time></trkpt><trkpt lat="45.80236720298054" lon="9.185498394434772"><ele>450.79999999999995</ele><time>2026-04-25T07:22:01Z</time></trkpt><trkpt lat="45.802341290485565" lon="9.185369561434948"><ele>454.4</ele><time>2026-04-25T07:22:03Z</time></trkpt><trkpt lat="45.80229602474081" lon="9.185237231698993"><ele>458.0</ele><time>2026-04-25T07:22:05Z</time></trkpt><trkpt lat="45.8022387011864" lon="9.185097370731528"><ele>458.0</ele><time>2026-04-25T07:22:07Z</time></trkpt><trkpt lat="45.802184514737924" lon="9.18495327330403"><ele>457.99999999999994</ele><time>2026-04-25T07:22:08.999Z</time></trkpt><trkpt lat="45.80213684087658" lon="9.184816603407144"><ele>457.99999999999994</ele><time>2026-04-25T07:22:11Z</time></trkpt><trkpt lat="45.80208919010877" lon="9.184674015899958"><ele>458.0</ele><time>2026-04-25T07:22:13Z</time></trkpt><trkpt lat="45.802051088766845" lon="9.184531333598917"><ele>458.0</ele><time>2026-04-25T07:22:15Z</time></trkpt><trkpt lat="45.80200229379644" lon="9.184399222703277"><ele>455.79999999999995</ele><time>2026-04-25T07:22:17Z</time></trkpt><trkpt lat="45.8019401524661" lon="9.184267053615782"><ele>453.59999999999997</ele><time>2026-04-25T07:22:19Z</time></trkpt><trkpt lat="45.80188128876166" lon="9.184143032324062"><ele>451.40000000000003</ele><time>2026-04-25T07:22:20.999Z</time></trkpt><trkpt lat="45.80182323434096" lon="9.184015414088053"><ele>449.20000000000005</ele><time>2026-04-25T07:22:23Z</time></trkpt><trkpt lat="45.80176185936894" lon="9.183889020035659"><ele>447.0</ele><time>2026-04-25T07:22:24.999Z</time></trkpt><trkpt lat="45.80170334191392" lon="9.183764612918841"><ele>447.0</ele><time>2026-04-25T07:22:26.999Z</time></trkpt><trkpt lat="45.80164486611682" lon="9.183648212553539"><ele>447.00000000000006</ele><time>2026-04-25T07:22:28.999Z</time></trkpt><trkpt lat="45.80157596549716" lon="9.18353557841761"><ele>447.00000000000006</ele><time>2026-04-25T07:22:30.999Z</time></trkpt><trkpt lat="45.80153325706871" lon="9.183394231826574"><ele>447.0</ele><time>2026-04-25T07:22:32.999Z</time></trkpt><trkpt lat="45.80146288544369" lon="9.183292347795406"><ele>447.0</ele><time>2026-04-25T07:22:34.999Z</time></trkpt><trkpt lat="45.80140449531767" lon="9.183189406348522"><ele>450.1666666666667</ele><time>2026-04-25T07:22:36.999Z</time></trkpt><trkpt lat="45.80135545602254" lon="9.18309505266629"><ele>453.33333333333337</ele><time>2026-04-25T07:22:38.999Z</time></trkpt><trkpt lat="45.801309914175256" lon="9.182996549447315"><ele>456.5</ele><time>2026-04-25T07:22:40.999Z</time></trkpt><trkpt lat="45.80127746901038" lon="9.182880619180958"><ele>459.6666666666667</ele><time>2026-04-25T07:22:42.999Z</time></trkpt><trkpt lat="45.8012401893433" lon="9.182765728387603"><ele>462.83333333333337</ele><time>2026-04-25T07:22:44.999Z</time></trkpt><trkpt lat="45.80119952157198" lon="9.182655326768044"><ele>466.0</ele><time>2026-04-25T07:22:46.999Z</time></trkpt><trkpt lat="45.801157826752764" lon="9.182541080429074"><ele>466.0</ele><time>2026-04-25T07:22:48.999Z</time></trkpt><trkpt lat="45.801119147561785" lon="9.18242338162427"><ele>466.0</ele><time>2026-04-25T07:22:50.999Z</time></trkpt><trkpt lat="45.80108577731749" lon="9.182301876126164"><ele>466.0</ele><time>2026-04-25T07:22:52.999Z</time></trkpt><trkpt lat="45.801051096376305" lon="9.182194671125856"><ele>466.0</ele><time>2026-04-25T07:22:54.999Z</time></trkpt><trkpt lat="45.80100304723429" lon="9.182085594390351"><ele>466.0</ele><time>2026-04-25T07:22:56.999Z</time></trkpt><trkpt lat="45.80096279302123" lon="9.18195713311771"><ele>464.8</ele><time>2026-04-25T07:22:58.999Z</time></trkpt><trkpt lat="45.80092653036256" lon="9.181823632993604"><ele>463.6</ele><time>2026-04-25T07:23:00.999Z</time></trkpt><trkpt lat="45.80088970470709" lon="9.181687595098435"><ele>462.4</ele><time>2026-04-25T07:23:02.999Z</time></trkpt><trkpt lat="45.800850249842924" lon="9.181547809372423"><ele>461.2</ele><time>2026-04-25T07:23:04.999Z</time></trkpt><trkpt lat="45.800805806643574" lon="9.181411151934915"><ele>460.0</ele><time>2026-04-25T07:23:06.999Z</time></trkpt><trkpt lat="45.80075348207135" lon="9.18128067242815"><ele>460.0</ele><time>2026-04-25T07:23:08.999Z</time></trkpt><trkpt lat="45.80070010530926" lon="9.181150177866686"><ele>460.0</ele><time>2026-04-25T07:23:10.999Z</time></trkpt><trkpt lat="45.800642137817384" lon="9.181022568082009"><ele>460.0</ele><time>2026-04-25T07:23:12.999Z</time></trkpt><trkpt lat="45.80059038445693" lon="9.180889902197363"><ele>460.0</ele><time>2026-04-25T07:23:14.999Z</time></trkpt><trkpt lat="45.800539723631644" lon="9.180761414129396"><ele>460.0</ele><time>2026-04-25T07:23:16.999Z</time></trkpt><trkpt lat="45.80048670915596" lon="9.180636667315508"><ele>464.2</ele><time>2026-04-25T07:23:18.999Z</time></trkpt><trkpt lat="45.80043245825294" lon="9.180511431914118"><ele>468.4</ele><time>2026-04-25T07:23:20.999Z</time></trkpt><trkpt lat="45.80038074092554" lon="9.18038682337268"><ele>472.6</ele><time>2026-04-25T07:23:22.999Z</time></trkpt><trkpt lat="45.80033331454033" lon="9.180260171502564"><ele>476.8</ele><time>2026-04-25T07:23:24.999Z</time></trkpt><trkpt lat="45.80028479785692" lon="9.180137290253446"><ele>481.0</ele><time>2026-04-25T07:23:26.999Z</time></trkpt><trkpt lat="45.80023595142345" lon="9.18001641411818"><ele>481.00000000000006</ele><time>2026-04-25T07:23:28.999Z</time></trkpt><trkpt lat="45.80020049556472" lon="9.179887621527918"><ele>481.0</ele><time>2026-04-25T07:23:30.999Z</time></trkpt><trkpt lat="45.800174089103486" lon="9.179770877300337"><ele>481.0</ele><time>2026-04-25T07:23:32.999Z</time></trkpt><trkpt lat="45.80016292545908" lon="9.179669065007802"><ele>481.0</ele><time>2026-04-25T07:23:34.999Z</time></trkpt><trkpt lat="45.80015393011539" lon="9.179576462177776"><ele>481.00000000000006</ele><time>2026-04-25T07:23:36.999Z</time></trkpt><trkpt lat="45.80014737980428" lon="9.179441985080329"><ele>481.0</ele><time>2026-04-25T07:23:39.999Z</time></trkpt><trkpt lat="45.80016068489584" lon="9.179307977282273"><ele>481.99999999999994</ele><time>2026-04-25T07:23:42.999Z</time></trkpt><trkpt lat="45.80017197496184" lon="9.179177384767508"><ele>483.0</ele><time>2026-04-25T07:23:45.999Z</time></trkpt><trkpt lat="45.80019044627691" lon="9.17904745593121"><ele>483.99999999999994</ele><time>2026-04-25T07:23:48.999Z</time></trkpt><trkpt lat="45.80021733342153" lon="9.17896371148451"><ele>484.99999999999994</ele><time>2026-04-25T07:23:50.999Z</time></trkpt><trkpt lat="45.80024609858423" lon="9.178879772202881"><ele>486.0</ele><time>2026-04-25T07:23:52.999Z</time></trkpt><trkpt lat="45.800282417289864" lon="9.178801716529849"><ele>486.99999999999994</ele><time>2026-04-25T07:23:54.999Z</time></trkpt><trkpt lat="45.80033105815667" lon="9.178742748703257"><ele>487.99999999999994</ele><time>2026-04-25T07:23:56.999Z</time></trkpt><trkpt lat="45.80040548044525" lon="9.178665773167207"><ele>487.99999999999994</ele><time>2026-04-25T07:23:59.999Z</time></trkpt><trkpt lat="45.800466328996464" lon="9.178639386807045"><ele>488.0</ele><time>2026-04-25T07:24:01.999Z</time></trkpt><trkpt lat="45.800555124458526" lon="9.178635428031312"><ele>488.0</ele><time>2026-04-25T07:24:04.999Z</time></trkpt><trkpt lat="45.800645137398064" lon="9.178612309234724"><ele>488.0</ele><time>2026-04-25T07:24:07.999Z</time></trkpt><trkpt lat="45.80070907853106" lon="9.178613463105506"><ele>487.99999999999994</ele><time>2026-04-25T07:24:09.999Z</time></trkpt><trkpt lat="45.80077421648697" lon="9.178623123818985"><ele>488.0</ele><time>2026-04-25T07:24:12.999Z</time></trkpt><trkpt lat="45.800868829019564" lon="9.17865475053287"><ele>487.99999999999994</ele><time>2026-04-25T07:24:14.999Z</time></trkpt><trkpt lat="45.80095260106739" lon="9.178666017081666"><ele>488.0</ele><time>2026-04-25T07:24:18Z</time></trkpt><trkpt lat="45.8010432564885" lon="9.178665439746355"><ele>488.0</ele><time>2026-04-25T07:24:21Z</time></trkpt><trkpt lat="45.801137291114316" lon="9.178662838344048"><ele>488.0</ele><time>2026-04-25T07:24:24Z</time></trkpt><trkpt lat="45.80122770285462" lon="9.17862322812022"><ele>487.99999999999994</ele><time>2026-04-25T07:24:27Z</time></trkpt><trkpt lat="45.80128588374209" lon="9.1785865590283"><ele>488.0</ele><time>2026-04-25T07:24:29Z</time></trkpt><trkpt lat="45.801369088636406" lon="9.17853950658821"><ele>490.3333333333333</ele><time>2026-04-25T07:24:32Z</time></trkpt><trkpt lat="45.8014545998402" lon="9.178508703756341"><ele>492.66666666666663</ele><time>2026-04-25T07:24:35Z</time></trkpt><trkpt lat="45.80153332704263" lon="9.178537544470819"><ele>495.0</ele><time>2026-04-25T07:24:38Z</time></trkpt><trkpt lat="45.80161875071554" lon="9.178558492073208"><ele>497.33333333333337</ele><time>2026-04-25T07:24:41Z</time></trkpt><trkpt lat="45.80169981896604" lon="9.178538005680503"><ele>499.6666666666667</ele><time>2026-04-25T07:24:44Z</time></trkpt><trkpt lat="45.80176782317109" lon="9.178476690678309"><ele>502.0</ele><time>2026-04-25T07:24:46.999Z</time></trkpt><trkpt lat="45.80183974829917" lon="9.178392995750842"><ele>504.00000000000006</ele><time>2026-04-25T07:24:49.999Z</time></trkpt><trkpt lat="45.801885299095865" lon="9.178325320694196"><ele>506.0</ele><time>2026-04-25T07:24:51.999Z</time></trkpt><trkpt lat="45.801952493092685" lon="9.178249515581262"><ele>508.0</ele><time>2026-04-25T07:24:54.999Z</time></trkpt><trkpt lat="45.802035100131434" lon="9.178191948534064"><ele>510.0</ele><time>2026-04-25T07:24:57.999Z</time></trkpt><trkpt lat="45.80212228855254" lon="9.178234293128728"><ele>512.0</ele><time>2026-04-25T07:25:00.999Z</time></trkpt><trkpt lat="45.80213084188228" lon="9.178335973684666"><ele>514.0</ele><time>2026-04-25T07:25:02.999Z</time></trkpt><trkpt lat="45.802062082923634" lon="9.178439548646642"><ele>514.0</ele><time>2026-04-25T07:25:05.999Z</time></trkpt><trkpt lat="45.80199631303847" lon="9.178484268839984"><ele>514.0</ele><time>2026-04-25T07:25:07.999Z</time></trkpt><trkpt lat="45.8019280334394" lon="9.178543174141884"><ele>514.0</ele><time>2026-04-25T07:25:09.999Z</time></trkpt><trkpt lat="45.80185482503968" lon="9.178616498552042"><ele>514.0</ele><time>2026-04-25T07:25:11.999Z</time></trkpt><trkpt lat="45.801787892235374" lon="9.178694079212626"><ele>514.0</ele><time>2026-04-25T07:25:13.999Z</time></trkpt><trkpt lat="45.801722883621984" lon="9.178759471727806"><ele>514.0</ele><time>2026-04-25T07:25:15.999Z</time></trkpt><trkpt lat="45.80166395551362" lon="9.178832699681337"><ele>513.4285714285714</ele><time>2026-04-25T07:25:17.999Z</time></trkpt><trkpt lat="45.80160740005813" lon="9.178905329306618"><ele>512.8571428571429</ele><time>2026-04-25T07:25:19.999Z</time></trkpt><trkpt lat="45.80155115665678" lon="9.178971303280115"><ele>512.2857142857143</ele><time>2026-04-25T07:25:21.999Z</time></trkpt><trkpt lat="45.801497276616786" lon="9.179037431404812"><ele>511.7142857142857</ele><time>2026-04-25T07:25:23.999Z</time></trkpt><trkpt lat="45.8014560977737" lon="9.179116850112006"><ele>511.1428571428572</ele><time>2026-04-25T07:25:25.999Z</time></trkpt><trkpt lat="45.80141381183548" lon="9.179208759741494"><ele>510.5714285714286</ele><time>2026-04-25T07:25:27.999Z</time></trkpt><trkpt lat="45.80140909689011" lon="9.179313371059315"><ele>510.0</ele><time>2026-04-25T07:25:29.999Z</time></trkpt><trkpt lat="45.80141146445674" lon="9.179414744615254"><ele>510.0</ele><time>2026-04-25T07:25:31.999Z</time></trkpt><trkpt lat="45.80142521005138" lon="9.179513423540635"><ele>510.00000000000006</ele><time>2026-04-25T07:25:33.999Z</time></trkpt><trkpt lat="45.801463303879906" lon="9.179603671872137"><ele>510.0</ele><time>2026-04-25T07:25:35.999Z</time></trkpt><trkpt lat="45.801509847907205" lon="9.17968289234097"><ele>510.0</ele><time>2026-04-25T07:25:37.999Z</time></trkpt><trkpt lat="45.80155787040711" lon="9.179742425151607"><ele>510.00000000000006</ele><time>2026-04-25T07:25:39.999Z</time></trkpt><trkpt lat="45.801641068376824" lon="9.17975563399119"><ele>510.0</ele><time>2026-04-25T07:25:41.999Z</time></trkpt><trkpt lat="45.80171217039305" lon="9.179765498980345"><ele>510.0</ele><time>2026-04-25T07:25:43.999Z</time></trkpt><trkpt lat="45.801787998181005" lon="9.179773864003566"><ele>512.1666666666666</ele><time>2026-04-25T07:25:45.999Z</time></trkpt><trkpt lat="45.80186104840432" lon="9.179770592634759"><ele>514.3333333333334</ele><time>2026-04-25T07:25:47.999Z</time></trkpt><trkpt lat="45.801935141078445" lon="9.179740957914687"><ele>516.5</ele><time>2026-04-25T07:25:49.999Z</time></trkpt><trkpt lat="45.80200201797915" lon="9.179727437522015"><ele>518.6666666666667</ele><time>2026-04-25T07:25:51.999Z</time></trkpt><trkpt lat="45.802068613535766" lon="9.17968962855118"><ele>520.8333333333334</ele><time>2026-04-25T07:25:53.999Z</time></trkpt><trkpt lat="45.80216372081606" lon="9.179658692544592"><ele>523.0</ele><time>2026-04-25T07:25:56.999Z</time></trkpt><trkpt lat="45.802231024862806" lon="9.179635362827602"><ele>522.9999999999999</ele><time>2026-04-25T07:25:58.999Z</time></trkpt><trkpt lat="45.80229320118705" lon="9.179610267256251"><ele>523.0</ele><time>2026-04-25T07:26:00.999Z</time></trkpt><trkpt lat="45.802354537604316" lon="9.179588226286986"><ele>523.0</ele><time>2026-04-25T07:26:02.999Z</time></trkpt><trkpt lat="45.80241520745467" lon="9.179557079524432"><ele>523.0</ele><time>2026-04-25T07:26:04.999Z</time></trkpt><trkpt lat="45.80247723400087" lon="9.179529297897023"><ele>523.0</ele><time>2026-04-25T07:26:06.999Z</time></trkpt><trkpt lat="45.802539180571074" lon="9.17951170454274"><ele>522.9999999999999</ele><time>2026-04-25T07:26:08.999Z</time></trkpt><trkpt lat="45.80262761066911" lon="9.179468006374464"><ele>523.0</ele><time>2026-04-25T07:26:11.999Z</time></trkpt><trkpt lat="45.80271711733101" lon="9.179439686416144"><ele>524.6666666666667</ele><time>2026-04-25T07:26:14.999Z</time></trkpt><trkpt lat="45.802802907584294" lon="9.179400793221907"><ele>526.3333333333334</ele><time>2026-04-25T07:26:17.999Z</time></trkpt><trkpt lat="45.802886505012516" lon="9.179353302403767"><ele>528.0</ele><time>2026-04-25T07:26:20.999Z</time></trkpt><trkpt lat="45.80297417457126" lon="9.179314818700812"><ele>529.6666666666666</ele><time>2026-04-25T07:26:24Z</time></trkpt><trkpt lat="45.80303612609218" lon="9.17928424535182"><ele>531.3333333333333</ele><time>2026-04-25T07:26:26Z</time></trkpt><trkpt lat="45.803123522524864" lon="9.179251576280958"><ele>533.0</ele><time>2026-04-25T07:26:29Z</time></trkpt><trkpt lat="45.80318518944398" lon="9.179221266119304"><ele>533.0</ele><time>2026-04-25T07:26:31Z</time></trkpt><trkpt lat="45.80324679755666" lon="9.179187724399036"><ele>533.0</ele><time>2026-04-25T07:26:33Z</time></trkpt><trkpt lat="45.80330924416598" lon="9.179164581144555"><ele>533.0</ele><time>2026-04-25T07:26:35Z</time></trkpt><trkpt lat="45.80337252203732" lon="9.179159637755536"><ele>533.0</ele><time>2026-04-25T07:26:37Z</time></trkpt><trkpt lat="45.803439745513344" lon="9.179168959272433"><ele>533.0</ele><time>2026-04-25T07:26:39Z</time></trkpt><trkpt lat="45.80352588146063" lon="9.179191793402664"><ele>533.0</ele><time>2026-04-25T07:26:42Z</time></trkpt><trkpt lat="45.80360601724844" lon="9.179226960598008"><ele>533.0</ele><time>2026-04-25T07:26:45Z</time></trkpt><trkpt lat="45.80366634542078" lon="9.179257696639148"><ele>535.1428571428571</ele><time>2026-04-25T07:26:46.999Z</time></trkpt><trkpt lat="45.80372786839562" lon="9.179287288893995"><ele>537.2857142857142</ele><time>2026-04-25T07:26:48.999Z</time></trkpt><trkpt lat="45.80379549637871" lon="9.179332654093159"><ele>539.4285714285714</ele><time>2026-04-25T07:26:50.999Z</time></trkpt><trkpt lat="45.80385749206942" lon="9.179377344593819"><ele>541.5714285714286</ele><time>2026-04-25T07:26:52.999Z</time></trkpt><trkpt lat="45.8039225400168" lon="9.179388661040443"><ele>543.7142857142858</ele><time>2026-04-25T07:26:54.999Z</time></trkpt><trkpt lat="45.80398967887922" lon="9.17939033193086"><ele>545.8571428571429</ele><time>2026-04-25T07:26:56.999Z</time></trkpt><trkpt lat="45.80407590523401" lon="9.17938352591396"><ele>548.0</ele><time>2026-04-25T07:26:59.999Z</time></trkpt><trkpt lat="45.80417745086989" lon="9.179346979339478"><ele>548.0000000000001</ele><time>2026-04-25T07:27:02.999Z</time></trkpt><trkpt lat="45.80423982693592" lon="9.179329505548878"><ele>548.0</ele><time>2026-04-25T07:27:04.999Z</time></trkpt><trkpt lat="45.804327390576866" lon="9.179301696832773"><ele>548.0</ele><time>2026-04-25T07:27:07.999Z</time></trkpt><trkpt lat="45.804393053896" lon="9.179289563542657"><ele>548.0</ele><time>2026-04-25T07:27:09.999Z</time></trkpt><trkpt lat="45.804480935870565" lon="9.1792789027149"><ele>548.0</ele><time>2026-04-25T07:27:12.999Z</time></trkpt><trkpt lat="45.80454471942128" lon="9.179270024033086"><ele>548.0000000000001</ele><time>2026-04-25T07:27:14.999Z</time></trkpt><trkpt lat="45.80460380883846" lon="9.179237641599794"><ele>548.0</ele><time>2026-04-25T07:27:16.999Z</time></trkpt><trkpt lat="45.804664223960415" lon="9.179206526387622"><ele>549.2857142857143</ele><time>2026-04-25T07:27:18.999Z</time></trkpt><trkpt lat="45.80472756043939" lon="9.179182477575761"><ele>550.5714285714286</ele><time>2026-04-25T07:27:20.999Z</time></trkpt><trkpt lat="45.80479152846792" lon="9.179164775730314"><ele>551.8571428571429</ele><time>2026-04-25T07:27:22.999Z</time></trkpt><trkpt lat="45.80485597684169" lon="9.179161915058176"><ele>553.1428571428571</ele><time>2026-04-25T07:27:24.999Z</time></trkpt><trkpt lat="45.80492240090463" lon="9.179146484875305"><ele>554.4285714285714</ele><time>2026-04-25T07:27:26.999Z</time></trkpt><trkpt lat="45.80498363982212" lon="9.179122809322367"><ele>555.7142857142858</ele><time>2026-04-25T07:27:28.999Z</time></trkpt><trkpt lat="45.80505334135866" lon="9.179108974819117"><ele>557.0</ele><time>2026-04-25T07:27:30.999Z</time></trkpt><trkpt lat="45.80512273029046" lon="9.179083250125963"><ele>558.8571428571429</ele><time>2026-04-25T07:27:32.999Z</time></trkpt><trkpt lat="45.80518817197479" lon="9.179071122838936"><ele>560.7142857142857</ele><time>2026-04-25T07:27:34.999Z</time></trkpt><trkpt lat="45.80525370255637" lon="9.179047123572285"><ele>562.5714285714286</ele><time>2026-04-25T07:27:36.999Z</time></trkpt><trkpt lat="45.805320321855525" lon="9.179040563318033"><ele>564.4285714285714</ele><time>2026-04-25T07:27:38.999Z</time></trkpt><trkpt lat="45.805386560733986" lon="9.179040942507783"><ele>566.2857142857143</ele><time>2026-04-25T07:27:40.999Z</time></trkpt><trkpt lat="45.805452184523844" lon="9.179046592131524"><ele>568.1428571428571</ele><time>2026-04-25T07:27:42.999Z</time></trkpt><trkpt lat="45.805523958462445" lon="9.179062933444884"><ele>570.0</ele><time>2026-04-25T07:27:44.999Z</time></trkpt><trkpt lat="45.80560126043255" lon="9.179068562738536"><ele>570.0</ele><time>2026-04-25T07:27:46.999Z</time></trkpt><trkpt lat="45.80567133276694" lon="9.179034164287"><ele>570.0</ele><time>2026-04-25T07:27:48.999Z</time></trkpt><trkpt lat="45.80571051488043" lon="9.178947505861805"><ele>570.0</ele><time>2026-04-25T07:27:50.999Z</time></trkpt><trkpt lat="45.80567582994979" lon="9.178844890174458"><ele>570.0</ele><time>2026-04-25T07:27:52.999Z</time></trkpt><trkpt lat="45.805603954192016" lon="9.178806510833487"><ele>570.0</ele><time>2026-04-25T07:27:54.999Z</time></trkpt><trkpt lat="45.80554028499878" lon="9.178809112779394"><ele>570.0</ele><time>2026-04-25T07:27:56.999Z</time></trkpt><trkpt lat="45.80546566927411" lon="9.178813386884404"><ele>570.0</ele><time>2026-04-25T07:27:58.999Z</time></trkpt><trkpt lat="45.805392204455224" lon="9.178830783479183"><ele>570.5</ele><time>2026-04-25T07:28:00.999Z</time></trkpt><trkpt lat="45.80530952999437" lon="9.178821624805867"><ele>571.0</ele><time>2026-04-25T07:28:02.999Z</time></trkpt><trkpt lat="45.80522606354803" lon="9.178806738723953"><ele>571.5</ele><time>2026-04-25T07:28:04.999Z</time></trkpt><trkpt lat="45.80515386338392" lon="9.178767475711537"><ele>572.0</ele><time>2026-04-25T07:28:06.999Z</time></trkpt><trkpt lat="45.80508028076912" lon="9.178727156792005"><ele>572.5</ele><time>2026-04-25T07:28:08.999Z</time></trkpt><trkpt lat="45.80500505962397" lon="9.178694304104857"><ele>573.0</ele><time>2026-04-25T07:28:10.999Z</time></trkpt><trkpt lat="45.80493137885808" lon="9.178661220974215"><ele>573.0</ele><time>2026-04-25T07:28:12.999Z</time></trkpt><trkpt lat="45.8048575505352" lon="9.17863798889934"><ele>573.0</ele><time>2026-04-25T07:28:14.999Z</time></trkpt><trkpt lat="45.80478033380967" lon="9.17861284807999"><ele>573.0</ele><time>2026-04-25T07:28:16.999Z</time></trkpt><trkpt lat="45.80471120270008" lon="9.178567004293697"><ele>573.0</ele><time>2026-04-25T07:28:18.999Z</time></trkpt><trkpt lat="45.80462813475747" lon="9.178545609226305"><ele>573.0</ele><time>2026-04-25T07:28:20.999Z</time></trkpt><trkpt lat="45.80455055945042" lon="9.178553819469043"><ele>573.0</ele><time>2026-04-25T07:28:22.999Z</time></trkpt><trkpt lat="45.80447924021688" lon="9.1785103679104"><ele>573.0</ele><time>2026-04-25T07:28:24.999Z</time></trkpt><trkpt lat="45.80444903245317" lon="9.178390677406496"><ele>573.0</ele><time>2026-04-25T07:28:26.999Z</time></trkpt><trkpt lat="45.8044986602206" lon="9.178274298003618"><ele>573.0</ele><time>2026-04-25T07:28:28.999Z</time></trkpt><trkpt lat="45.80457853840194" lon="9.178247845194445"><ele>573.0</ele><time>2026-04-25T07:28:30.999Z</time></trkpt><trkpt lat="45.804659304054496" lon="9.178298114524592"><ele>573.0</ele><time>2026-04-25T07:28:32.999Z</time></trkpt><trkpt lat="45.80472667473704" lon="9.178345548614242"><ele>573.0</ele><time>2026-04-25T07:28:34.999Z</time></trkpt><trkpt lat="45.80479169191974" lon="9.17838621466284"><ele>573.0</ele><time>2026-04-25T07:28:36.999Z</time></trkpt><trkpt lat="45.80486725337668" lon="9.178400180339558"><ele>573.0</ele><time>2026-04-25T07:28:38.999Z</time></trkpt><trkpt lat="45.804946743858864" lon="9.178397447307374"><ele>573.0</ele><time>2026-04-25T07:28:41Z</time></trkpt><trkpt lat="45.80501815233324" lon="9.178395974155631"><ele>573.0</ele><time>2026-04-25T07:28:43Z</time></trkpt><trkpt lat="45.80508676834975" lon="9.17837970850634"><ele>573.0</ele><time>2026-04-25T07:28:45Z</time></trkpt><trkpt lat="45.80515566499264" lon="9.178362225043314"><ele>573.0</ele><time>2026-04-25T07:28:47Z</time></trkpt><trkpt lat="45.8052409164214" lon="9.178334207284685"><ele>573.3333333333334</ele><time>2026-04-25T07:28:49.999Z</time></trkpt><trkpt lat="45.80533068055907" lon="9.178309402129226"><ele>573.6666666666666</ele><time>2026-04-25T07:28:52.999Z</time></trkpt><trkpt lat="45.8053958644744" lon="9.178277502920848"><ele>574.0</ele><time>2026-04-25T07:28:54.999Z</time></trkpt><trkpt lat="45.80548269565999" lon="9.178260230764703"><ele>574.3333333333333</ele><time>2026-04-25T07:28:57.999Z</time></trkpt><trkpt lat="45.80555682229714" lon="9.178243506133192"><ele>574.6666666666666</ele><time>2026-04-25T07:29:00.999Z</time></trkpt><trkpt lat="45.80566225640566" lon="9.178184856269825"><ele>575.0</ele><time>2026-04-25T07:29:04.999Z</time></trkpt><trkpt lat="45.80573200421621" lon="9.178151186340585"><ele>578.3333333333333</ele><time>2026-04-25T07:29:06.999Z</time></trkpt><trkpt lat="45.80579702532129" lon="9.178110411163829"><ele>581.6666666666666</ele><time>2026-04-25T07:29:08.999Z</time></trkpt><trkpt lat="45.805877788362714" lon="9.178064331692964"><ele>585.0</ele><time>2026-04-25T07:29:11.999Z</time></trkpt><trkpt lat="45.80596573939146" lon="9.178002068328736"><ele>588.3333333333334</ele><time>2026-04-25T07:29:14.999Z</time></trkpt><trkpt lat="45.80602435439347" lon="9.177929710393057"><ele>591.6666666666667</ele><time>2026-04-25T07:29:16.999Z</time></trkpt><trkpt lat="45.80608425413188" lon="9.177866518670317"><ele>595.0</ele><time>2026-04-25T07:29:18.999Z</time></trkpt><trkpt lat="45.806147839018415" lon="9.177835529035818"><ele>596.6666666666667</ele><time>2026-04-25T07:29:20.999Z</time></trkpt><trkpt lat="45.80621447594094" lon="9.17781721215085"><ele>598.3333333333334</ele><time>2026-04-25T07:29:22.999Z</time></trkpt><trkpt lat="45.80628489851137" lon="9.177827986253872"><ele>600.0</ele><time>2026-04-25T07:29:24.999Z</time></trkpt><trkpt lat="45.80637184790153" lon="9.177863910457859"><ele>601.6666666666666</ele><time>2026-04-25T07:29:27.999Z</time></trkpt><trkpt lat="45.80645221024118" lon="9.177917770868776"><ele>603.3333333333333</ele><time>2026-04-25T07:29:30.999Z</time></trkpt><trkpt lat="45.80651473513671" lon="9.17794654939524"><ele>605.0</ele><time>2026-04-25T07:29:32.999Z</time></trkpt><trkpt lat="45.806605891428" lon="9.177997130129096"><ele>605.0</ele><time>2026-04-25T07:29:35.999Z</time></trkpt><trkpt lat="45.80667104098407" lon="9.178010039361434"><ele>605.0</ele><time>2026-04-25T07:29:37.999Z</time></trkpt><trkpt lat="45.806734078776664" lon="9.178044092654332"><ele>605.0</ele><time>2026-04-25T07:29:39.999Z</time></trkpt><trkpt lat="45.806793297773645" lon="9.178087200409802"><ele>605.0</ele><time>2026-04-25T07:29:41.999Z</time></trkpt><trkpt lat="45.80685141347417" lon="9.178129529529688"><ele>605.0</ele><time>2026-04-25T07:29:43.999Z</time></trkpt><trkpt lat="45.806899719331696" lon="9.178187515118214"><ele>605.0</ele><time>2026-04-25T07:29:45.999Z</time></trkpt><trkpt lat="45.80696386589866" lon="9.178235238131956"><ele>605.0</ele><time>2026-04-25T07:29:47.999Z</time></trkpt><trkpt lat="45.807023455525446" lon="9.178291386215966"><ele>606.2857142857142</ele><time>2026-04-25T07:29:49.999Z</time></trkpt><trkpt lat="45.807073229989726" lon="9.178351121908653"><ele>607.5714285714286</ele><time>2026-04-25T07:29:51.999Z</time></trkpt><trkpt lat="45.80711204956169" lon="9.178442853282966"><ele>608.8571428571429</ele><time>2026-04-25T07:29:53.999Z</time></trkpt><trkpt lat="45.807154567789794" lon="9.178516304045415"><ele>610.1428571428571</ele><time>2026-04-25T07:29:55.999Z</time></trkpt><trkpt lat="45.80719675832763" lon="9.178598225149225"><ele>611.4285714285714</ele><time>2026-04-25T07:29:57.999Z</time></trkpt><trkpt lat="45.807237084358135" lon="9.17868103845861"><ele>612.7142857142857</ele><time>2026-04-25T07:29:59.999Z</time></trkpt><trkpt lat="45.8072721942577" lon="9.178774522315459"><ele>614.0</ele><time>2026-04-25T07:30:01.999Z</time></trkpt><trkpt lat="45.8073036372329" lon="9.178864875294664"><ele>613.9999999999999</ele><time>2026-04-25T07:30:03.999Z</time></trkpt><trkpt lat="45.80733734595849" lon="9.17895121001902"><ele>614.0</ele><time>2026-04-25T07:30:05.999Z</time></trkpt><trkpt lat="45.8073660600208" lon="9.179041037535098"><ele>614.0</ele><time>2026-04-25T07:30:07.999Z</time></trkpt><trkpt lat="45.807389393575384" lon="9.179131454063336"><ele>614.0</ele><time>2026-04-25T07:30:09.999Z</time></trkpt><trkpt lat="45.807407899917116" lon="9.179226638433656"><ele>614.0</ele><time>2026-04-25T07:30:11.999Z</time></trkpt><trkpt lat="45.807410230157764" lon="9.179326610189566"><ele>613.9999999999999</ele><time>2026-04-25T07:30:13.999Z</time></trkpt><trkpt lat="45.80739321090313" lon="9.179430048596778"><ele>614.0</ele><time>2026-04-25T07:30:15.999Z</time></trkpt><trkpt lat="45.807368286631714" lon="9.179529122108711"><ele>613.3333333333333</ele><time>2026-04-25T07:30:17.999Z</time></trkpt><trkpt lat="45.80733040800215" lon="9.17963180652942"><ele>612.6666666666666</ele><time>2026-04-25T07:30:19.999Z</time></trkpt><trkpt lat="45.80726757420096" lon="9.1797621872326"><ele>612.0</ele><time>2026-04-25T07:30:22.999Z</time></trkpt><trkpt lat="45.80722372782026" lon="9.179852304421546"><ele>611.3333333333334</ele><time>2026-04-25T07:30:24.999Z</time></trkpt><trkpt lat="45.80716128200312" lon="9.179946947608501"><ele>610.6666666666667</ele><time>2026-04-25T07:30:26.999Z</time></trkpt><trkpt lat="45.80712499595663" lon="9.180022058485845"><ele>610.0</ele><time>2026-04-25T07:30:27.999Z</time></trkpt><trkpt lat="45.80707929175317" lon="9.18011066800146"><ele>611.5</ele><time>2026-04-25T07:30:29.999Z</time></trkpt><trkpt lat="45.807032667294806" lon="9.180213525434295"><ele>613.0</ele><time>2026-04-25T07:30:31.999Z</time></trkpt><trkpt lat="45.80700306103288" lon="9.180328234638711"><ele>614.5</ele><time>2026-04-25T07:30:33.999Z</time></trkpt><trkpt lat="45.806987644723925" lon="9.180451606755957"><ele>616.0</ele><time>2026-04-25T07:30:35.999Z</time></trkpt><trkpt lat="45.807001070421904" lon="9.18057620531122"><ele>617.5</ele><time>2026-04-25T07:30:37.999Z</time></trkpt><trkpt lat="45.80702672634215" lon="9.180690526902211"><ele>619.0</ele><time>2026-04-25T07:30:39.999Z</time></trkpt><trkpt lat="45.80705953647473" lon="9.180804003699528"><ele>619.3333333333334</ele><time>2026-04-25T07:30:41.999Z</time></trkpt><trkpt lat="45.80709054604339" lon="9.180917215516544"><ele>619.6666666666667</ele><time>2026-04-25T07:30:43.999Z</time></trkpt><trkpt lat="45.80711622721377" lon="9.181034424829308"><ele>620.0</ele><time>2026-04-25T07:30:45.999Z</time></trkpt><trkpt lat="45.80715156624283" lon="9.18114238487977"><ele>620.3333333333334</ele><time>2026-04-25T07:30:47.999Z</time></trkpt><trkpt lat="45.80718384962699" lon="9.181241191647196"><ele>620.6666666666666</ele><time>2026-04-25T07:30:49.999Z</time></trkpt><trkpt lat="45.80723469811504" lon="9.1813477862063"><ele>621.0</ele><time>2026-04-25T07:30:51.999Z</time></trkpt><trkpt lat="45.80725183169381" lon="9.181456963624507"><ele>621.3333333333334</ele><time>2026-04-25T07:30:53.999Z</time></trkpt><trkpt lat="45.80727082792325" lon="9.181552799370248"><ele>621.6666666666666</ele><time>2026-04-25T07:30:55.999Z</time></trkpt><trkpt lat="45.807288392034486" lon="9.181644008821245"><ele>622.0</ele><time>2026-04-25T07:30:57.999Z</time></trkpt><trkpt lat="45.80731763439553" lon="9.181773061990432"><ele>622.3333333333333</ele><time>2026-04-25T07:31:00.999Z</time></trkpt><trkpt lat="45.80734349430434" lon="9.181901736174254"><ele>622.6666666666666</ele><time>2026-04-25T07:31:03.999Z</time></trkpt><trkpt lat="45.80736800962251" lon="9.182034986342746"><ele>623.0</ele><time>2026-04-25T07:31:06.999Z</time></trkpt><trkpt lat="45.8073919353646" lon="9.182128827251752"><ele>623.0</ele><time>2026-04-25T07:31:08.999Z</time></trkpt><trkpt lat="45.80743318742245" lon="9.182220712461897"><ele>623.0</ele><time>2026-04-25T07:31:10.999Z</time></trkpt><trkpt lat="45.8074741429624" lon="9.18231489489429"><ele>623.0</ele><time>2026-04-25T07:31:12.999Z</time></trkpt><trkpt lat="45.80752308058803" lon="9.182401928791624"><ele>623.0</ele><time>2026-04-25T07:31:14.999Z</time></trkpt><trkpt lat="45.807578400692215" lon="9.18247858294864"><ele>623.0</ele><time>2026-04-25T07:31:16.999Z</time></trkpt><trkpt lat="45.807637149511905" lon="9.182542784230739"><ele>623.0</ele><time>2026-04-25T07:31:18.999Z</time></trkpt><trkpt lat="45.807700081552966" lon="9.182595180308681"><ele>624.1428571428571</ele><time>2026-04-25T07:31:20.999Z</time></trkpt><trkpt lat="45.807767650151376" lon="9.18263662900805"><ele>625.2857142857142</ele><time>2026-04-25T07:31:22.999Z</time></trkpt><trkpt lat="45.807836559547376" lon="9.18267639417639"><ele>626.4285714285714</ele><time>2026-04-25T07:31:24.999Z</time></trkpt><trkpt lat="45.80789816828422" lon="9.182695480061682"><ele>627.5714285714286</ele><time>2026-04-25T07:31:26.999Z</time></trkpt><trkpt lat="45.80796678738549" lon="9.182718308832278"><ele>628.7142857142857</ele><time>2026-04-25T07:31:28.999Z</time></trkpt><trkpt lat="45.80803012327839" lon="9.182735621081504"><ele>629.8571428571429</ele><time>2026-04-25T07:31:30.999Z</time></trkpt><trkpt lat="45.808093223894794" lon="9.182766960662676"><ele>631.0</ele><time>2026-04-25T07:31:32.999Z</time></trkpt><trkpt lat="45.808160070118895" lon="9.18279388897715"><ele>631.0</ele><time>2026-04-25T07:31:34.999Z</time></trkpt><trkpt lat="45.80822511128191" lon="9.182818550418215"><ele>631.0</ele><time>2026-04-25T07:31:36.999Z</time></trkpt><trkpt lat="45.808288570603516" lon="9.182833233643896"><ele>631.0</ele><time>2026-04-25T07:31:38.999Z</time></trkpt><trkpt lat="45.80835191811515" lon="9.18285885973266"><ele>631.0</ele><time>2026-04-25T07:31:40.999Z</time></trkpt><trkpt lat="45.808426903667566" lon="9.18289197499294"><ele>631.0</ele><time>2026-04-25T07:31:43.999Z</time></trkpt><trkpt lat="45.8084995496681" lon="9.18293447248926"><ele>631.0</ele><time>2026-04-25T07:31:45.999Z</time></trkpt><trkpt lat="45.8085792233152" lon="9.182956802589008"><ele>631.0</ele><time>2026-04-25T07:31:47.999Z</time></trkpt><trkpt lat="45.80864400458814" lon="9.182988866594219"><ele>633.1666666666667</ele><time>2026-04-25T07:31:49.999Z</time></trkpt><trkpt lat="45.80873364533872" lon="9.183029680226543"><ele>635.3333333333334</ele><time>2026-04-25T07:31:52.999Z</time></trkpt><trkpt lat="45.80880838229645" lon="9.183060215831546"><ele>637.5</ele><time>2026-04-25T07:31:54.999Z</time></trkpt><trkpt lat="45.808883886120356" lon="9.183082720930022"><ele>639.6666666666666</ele><time>2026-04-25T07:31:56.999Z</time></trkpt><trkpt lat="45.80895531189922" lon="9.183104215883729"><ele>641.8333333333333</ele><time>2026-04-25T07:31:58.999Z</time></trkpt><trkpt lat="45.80903121538195" lon="9.183111295086729"><ele>644.0</ele><time>2026-04-25T07:32:00.999Z</time></trkpt><trkpt lat="45.80910682145533" lon="9.183116596140803"><ele>644.0</ele><time>2026-04-25T07:32:02.999Z</time></trkpt><trkpt lat="45.809189507514915" lon="9.18311708473587"><ele>644.0</ele><time>2026-04-25T07:32:04.999Z</time></trkpt><trkpt lat="45.80926862682063" lon="9.183107760841935"><ele>644.0</ele><time>2026-04-25T07:32:06.999Z</time></trkpt><trkpt lat="45.8093509613496" lon="9.18310117461697"><ele>644.0</ele><time>2026-04-25T07:32:08.999Z</time></trkpt><trkpt lat="45.80943344903311" lon="9.183109611197294"><ele>644.0</ele><time>2026-04-25T07:32:10.999Z</time></trkpt><trkpt lat="45.80951691681026" lon="9.18312631593491"><ele>644.0</ele><time>2026-04-25T07:32:12.999Z</time></trkpt><trkpt lat="45.80959146194754" lon="9.183163894933877"><ele>645.0</ele><time>2026-04-25T07:32:14.999Z</time></trkpt><trkpt lat="45.80967538671498" lon="9.183210728404038"><ele>646.0</ele><time>2026-04-25T07:32:16.999Z</time></trkpt><trkpt lat="45.8097488603678" lon="9.183261750621698"><ele>647.0</ele><time>2026-04-25T07:32:18.999Z</time></trkpt><trkpt lat="45.8098200546306" lon="9.183315814658846"><ele>648.0</ele><time>2026-04-25T07:32:20.999Z</time></trkpt><trkpt lat="45.80987828107685" lon="9.183382917124293"><ele>649.0</ele><time>2026-04-25T07:32:22.999Z</time></trkpt><trkpt lat="45.809937139189095" lon="9.18346309532429"><ele>650.0</ele><time>2026-04-25T07:32:26.999Z</time></trkpt><trkpt lat="45.809988547185675" lon="9.18353044189783"><ele>650.0</ele><time>2026-04-25T07:32:28.999Z</time></trkpt><trkpt lat="45.81006040831923" lon="9.18363463324655"><ele>650.0</ele><time>2026-04-25T07:32:30.999Z</time></trkpt><trkpt lat="45.81013729715463" lon="9.183710726747314"><ele>650.0</ele><time>2026-04-25T07:32:33.999Z</time></trkpt><trkpt lat="45.81021294042672" lon="9.183779115330744"><ele>650.0</ele><time>2026-04-25T07:32:36.999Z</time></trkpt><trkpt lat="45.810296250695416" lon="9.183844694624163"><ele>650.0</ele><time>2026-04-25T07:32:39.999Z</time></trkpt><trkpt lat="45.81034611888452" lon="9.183906705564745"><ele>650.0</ele><time>2026-04-25T07:32:41.999Z</time></trkpt><trkpt lat="45.8103899484069" lon="9.183992494124233"><ele>652.6666666666666</ele><time>2026-04-25T07:32:43.999Z</time></trkpt><trkpt lat="45.81043554711197" lon="9.184105841020225"><ele>655.3333333333333</ele><time>2026-04-25T07:32:46.999Z</time></trkpt><trkpt lat="45.81048932444546" lon="9.18421217297665"><ele>658.0</ele><time>2026-04-25T07:32:49.999Z</time></trkpt><trkpt lat="45.81054092297137" lon="9.184318005657744"><ele>660.6666666666666</ele><time>2026-04-25T07:32:52.999Z</time></trkpt><trkpt lat="45.81057771761611" lon="9.184394354347454"><ele>663.3333333333334</ele><time>2026-04-25T07:32:54.999Z</time></trkpt><trkpt lat="45.810629668997564" lon="9.184504425895236"><ele>666.0</ele><time>2026-04-25T07:32:58Z</time></trkpt><trkpt lat="45.81066599529078" lon="9.184580856532754"><ele>650.0</ele><time>2026-04-25T07:33:00Z</time></trkpt><trkpt lat="45.81006040831923" lon="9.18363463324655"><ele>650.0</ele><time>2026-04-25T07:32:30.999Z</time></trkpt><trkpt lat="45.81013729715463" lon="9.183710726747314"><ele>650.0</ele><time>2026-04-25T07:32:33.999Z</time></trkpt><trkpt lat="45.81021294042672" lon="9.183779115330744"><ele>650.0</ele><time>2026-04-25T07:32:36.999Z</time></trkpt><trkpt lat="45.810296250695416" lon="9.183844694624163"><ele>650.0</ele><time>2026-04-25T07:32:39.999Z</time></trkpt><trkpt lat="45.81034611888452" lon="9.183906705564745"><ele>650.0</ele><time>2026-04-25T07:32:41.999Z</time></trkpt><trkpt lat="45.8103899484069" lon="9.183992494124233"><ele>650.0</ele><time>2026-04-25T07:32:43.999Z</time></trkpt><trkpt lat="45.81043554711197" lon="9.184105841020225"><ele>652.6666666666666</ele><time>2026-04-25T07:32:46.999Z</time></trkpt><trkpt lat="45.81048932444546" lon="9.18421217297665"><ele>655.3333333333333</ele><time>2026-04-25T07:32:49.999Z</time></trkpt><trkpt lat="45.81054092297137" lon="9.184318005657744"><ele>658.0</ele><time>2026-04-25T07:32:52.999Z</time></trkpt><trkpt lat="45.81057771761611" lon="9.184394354347454"><ele>660.6666666666666</ele><time>2026-04-25T07:32:54.999Z</time></trkpt><trkpt lat="45.810629668997564" lon="9.184504425895236"><ele>663.3333333333334</ele><time>2026-04-25T07:32:58Z</time></trkpt><trkpt lat="45.81066599529078" lon="9.184580856532754"><ele>666.0</ele><time>2026-04-25T07:33:00Z</time></trkpt><trkpt lat="45.81072011318954" lon="9.184686734381255"><ele>666.0</ele><time>2026-04-25T07:33:03Z</time></trkpt><trkpt lat="45.810771495845245" lon="9.184798052283233"><ele>666.0</ele><time>2026-04-25T07:33:06Z</time></trkpt><trkpt lat="45.81082174926584" lon="9.184902780317474"><ele>666.0</ele><time>2026-04-25T07:33:09Z</time></trkpt><trkpt lat="45.81085969088059" lon="9.18501488348544"><ele>666.0</ele><time>2026-04-25T07:33:12Z</time></trkpt><trkpt lat="45.810908066719655" lon="9.185114256287148"><ele>666.0</ele><time>2026-04-25T07:33:15Z</time></trkpt><trkpt lat="45.8109389078482" lon="9.185227669487611"><ele>666.0</ele><time>2026-04-25T07:33:18Z</time></trkpt><trkpt lat="45.81098077818083" lon="9.185335859543645"><ele>670.3333333333334</ele><time>2026-04-25T07:33:21Z</time></trkpt><trkpt lat="45.81100842789412" lon="9.185440647020988"><ele>674.6666666666666</ele><time>2026-04-25T07:33:23.999Z</time></trkpt><trkpt lat="45.81104161105147" lon="9.185547354103248"><ele>679.0</ele><time>2026-04-25T07:33:26.999Z</time></trkpt><trkpt lat="45.81105924163486" lon="9.185652579498415"><ele>683.3333333333333</ele><time>2026-04-25T07:33:29.999Z</time></trkpt><trkpt lat="45.8110932804424" lon="9.185761397236211"><ele>687.6666666666666</ele><time>2026-04-25T07:33:32.999Z</time></trkpt><trkpt lat="45.81111762450692" lon="9.185867452025676"><ele>692.0</ele><time>2026-04-25T07:33:35.999Z</time></trkpt><trkpt lat="45.811142294108095" lon="9.185977658390824"><ele>692.6666666666666</ele><time>2026-04-25T07:33:38.999Z</time></trkpt><trkpt lat="45.811167648792626" lon="9.18608623219684"><ele>693.3333333333333</ele><time>2026-04-25T07:33:41.999Z</time></trkpt><trkpt lat="45.81119162731948" lon="9.18619808711815"><ele>694.0</ele><time>2026-04-25T07:33:44.999Z</time></trkpt><trkpt lat="45.81121065431256" lon="9.186311872584136"><ele>694.6666666666666</ele><time>2026-04-25T07:33:47.999Z</time></trkpt><trkpt lat="45.81122517418668" lon="9.186423398656364"><ele>695.3333333333334</ele><time>2026-04-25T07:33:50.999Z</time></trkpt><trkpt lat="45.81123446483794" lon="9.186538891217412"><ele>696.0</ele><time>2026-04-25T07:33:53.999Z</time></trkpt><trkpt lat="45.81124920009756" lon="9.186654622665689"><ele>696.6666666666666</ele><time>2026-04-25T07:33:56.999Z</time></trkpt><trkpt lat="45.81125765310427" lon="9.186775356446157"><ele>697.3333333333334</ele><time>2026-04-25T07:33:59.999Z</time></trkpt><trkpt lat="45.81126297881105" lon="9.186894368009776"><ele>698.0</ele><time>2026-04-25T07:34:02.999Z</time></trkpt><trkpt lat="45.81125746498892" lon="9.187016959438942"><ele>698.6666666666667</ele><time>2026-04-25T07:34:05.999Z</time></trkpt><trkpt lat="45.811251056435324" lon="9.187143462094678"><ele>699.3333333333334</ele><time>2026-04-25T07:34:08.999Z</time></trkpt><trkpt lat="45.811246162631214" lon="9.187267565992858"><ele>700.0</ele><time>2026-04-25T07:34:11.999Z</time></trkpt><trkpt lat="45.8112749024998" lon="9.187368619475578"><ele>700.0</ele><time>2026-04-25T07:34:14.999Z</time></trkpt><trkpt lat="45.81134320300806" lon="9.187331510693465"><ele>700.0</ele><time>2026-04-25T07:34:17.999Z</time></trkpt><trkpt lat="45.81136350309043" lon="9.1872415716759"><ele>700.0</ele><time>2026-04-25T07:34:19.999Z</time></trkpt><trkpt lat="45.811378415186226" lon="9.187153075905305"><ele>700.0</ele><time>2026-04-25T07:34:21.999Z</time></trkpt><trkpt lat="45.811393489719194" lon="9.187056226258916"><ele>700.0</ele><time>2026-04-25T07:34:23.999Z</time></trkpt><trkpt lat="45.81140812208252" lon="9.186958835025763"><ele>700.0</ele><time>2026-04-25T07:34:25.999Z</time></trkpt><trkpt lat="45.81142487718592" lon="9.186860834594613"><ele>700.0</ele><time>2026-04-25T07:34:27.999Z</time></trkpt><trkpt lat="45.8114456189155" lon="9.186765943819655"><ele>700.0</ele><time>2026-04-25T07:34:29.999Z</time></trkpt><trkpt lat="45.811473059757255" lon="9.186676239931892"><ele>700.0</ele><time>2026-04-25T07:34:31.999Z</time></trkpt><trkpt lat="45.8115064059604" lon="9.186597579422369"><ele>700.0</ele><time>2026-04-25T07:34:33.999Z</time></trkpt><trkpt lat="45.811566328052365" lon="9.186501341838762"><ele>700.0</ele><time>2026-04-25T07:34:36.999Z</time></trkpt><trkpt lat="45.81160938618647" lon="9.186417496014084"><ele>700.0</ele><time>2026-04-25T07:34:39.999Z</time></trkpt><trkpt lat="45.81165107593697" lon="9.186339564311861"><ele>700.0</ele><time>2026-04-25T07:34:41.999Z</time></trkpt><trkpt lat="45.81168058372483" lon="9.186259424753962"><ele>700.0</ele><time>2026-04-25T07:34:43.999Z</time></trkpt><trkpt lat="45.811716741841174" lon="9.186134620922417"><ele>699.4285714285714</ele><time>2026-04-25T07:34:47Z</time></trkpt><trkpt lat="45.81174116156924" lon="9.186050482504792"><ele>698.8571428571429</ele><time>2026-04-25T07:34:49Z</time></trkpt><trkpt lat="45.81176218571438" lon="9.18596362464334"><ele>698.2857142857142</ele><time>2026-04-25T07:34:51Z</time></trkpt><trkpt lat="45.811792119779525" lon="9.18583933659638"><ele>697.7142857142858</ele><time>2026-04-25T07:34:54Z</time></trkpt><trkpt lat="45.81181367484588" lon="9.185753988149477"><ele>697.1428571428571</ele><time>2026-04-25T07:34:56Z</time></trkpt><trkpt lat="45.81184053111399" lon="9.185671100508367"><ele>696.5714285714286</ele><time>2026-04-25T07:34:58Z</time></trkpt><trkpt lat="45.81185855066664" lon="9.185582673089106"><ele>696.0</ele><time>2026-04-25T07:35:00Z</time></trkpt><trkpt lat="45.81188020290481" lon="9.185493248476535"><ele>699.8333333333334</ele><time>2026-04-25T07:35:02Z</time></trkpt><trkpt lat="45.8119030998714" lon="9.185405189044715"><ele>703.6666666666666</ele><time>2026-04-25T07:35:04Z</time></trkpt><trkpt lat="45.811924883807116" lon="9.185316995576473"><ele>707.5</ele><time>2026-04-25T07:35:06Z</time></trkpt><trkpt lat="45.81194542454944" lon="9.185228000110019"><ele>711.3333333333333</ele><time>2026-04-25T07:35:08Z</time></trkpt><trkpt lat="45.81197387945974" lon="9.185096626643661"><ele>715.1666666666666</ele><time>2026-04-25T07:35:11Z</time></trkpt><trkpt lat="45.81200942034488" lon="9.184973682543324"><ele>719.0</ele><time>2026-04-25T07:35:14Z</time></trkpt><trkpt lat="45.81203498072342" lon="9.184887385052178"><ele>717.4285714285713</ele><time>2026-04-25T07:35:16Z</time></trkpt><trkpt lat="45.81205950476036" lon="9.18479894114695"><ele>715.8571428571429</ele><time>2026-04-25T07:35:18Z</time></trkpt><trkpt lat="45.81209128363316" lon="9.184712958429039"><ele>714.2857142857142</ele><time>2026-04-25T07:35:20Z</time></trkpt><trkpt lat="45.81212485168069" lon="9.184631716737197"><ele>712.7142857142857</ele><time>2026-04-25T07:35:22Z</time></trkpt><trkpt lat="45.812162283004774" lon="9.184552467807727"><ele>711.1428571428571</ele><time>2026-04-25T07:35:24Z</time></trkpt><trkpt lat="45.81221678315578" lon="9.184484235059331"><ele>709.5714285714286</ele><time>2026-04-25T07:35:26Z</time></trkpt><trkpt lat="45.81228835183099" lon="9.184460319859241"><ele>708.0</ele><time>2026-04-25T07:35:28Z</time></trkpt><trkpt lat="45.812346051546555" lon="9.184524371900629"><ele>708.0</ele><time>2026-04-25T07:35:30Z</time></trkpt><trkpt lat="45.81235686996102" lon="9.184615218520031"><ele>708.0</ele><time>2026-04-25T07:35:32Z</time></trkpt><trkpt lat="45.81233221815524" lon="9.184705238347721"><ele>708.0</ele><time>2026-04-25T07:35:34Z</time></trkpt><trkpt lat="45.812302896260974" lon="9.184790429679682"><ele>708.0</ele><time>2026-04-25T07:35:36Z</time></trkpt><trkpt lat="45.81227618900254" lon="9.18488292628829"><ele>708.0</ele><time>2026-04-25T07:35:38Z</time></trkpt><trkpt lat="45.812257027940156" lon="9.184975035999763"><ele>708.0</ele><time>2026-04-25T07:35:40Z</time></trkpt><trkpt lat="45.81225088134971" lon="9.185071931636822"><ele>708.0</ele><time>2026-04-25T07:35:42Z</time></trkpt><trkpt lat="45.81224338679977" lon="9.185169978637552"><ele>709.5714285714286</ele><time>2026-04-25T07:35:43.999Z</time></trkpt><trkpt lat="45.81223936958033" lon="9.185264189804496"><ele>711.1428571428571</ele><time>2026-04-25T07:35:45.999Z</time></trkpt><trkpt lat="45.812233210945486" lon="9.18535923453366"><ele>712.7142857142857</ele><time>2026-04-25T07:35:47.999Z</time></trkpt><trkpt lat="45.81222495187019" lon="9.185456810727812"><ele>714.2857142857142</ele><time>2026-04-25T07:35:49.999Z</time></trkpt><trkpt lat="45.812221909015335" lon="9.185554340085005"><ele>715.8571428571429</ele><time>2026-04-25T07:35:51.999Z</time></trkpt><trkpt lat="45.81222255752968" lon="9.185650019027266"><ele>717.4285714285713</ele><time>2026-04-25T07:35:53.999Z</time></trkpt><trkpt lat="45.81221528553895" lon="9.18574165210103"><ele>719.0</ele><time>2026-04-25T07:35:55.999Z</time></trkpt><trkpt lat="45.81220736752913" lon="9.185838215456055"><ele>720.8571428571428</ele><time>2026-04-25T07:35:57.999Z</time></trkpt><trkpt lat="45.81220370094032" lon="9.185933745134088"><ele>722.7142857142857</ele><time>2026-04-25T07:35:59.999Z</time></trkpt><trkpt lat="45.81220506904606" lon="9.186029450499912"><ele>724.5714285714286</ele><time>2026-04-25T07:36:01.999Z</time></trkpt><trkpt lat="45.81220566348502" lon="9.186126215738604"><ele>726.4285714285713</ele><time>2026-04-25T07:36:03.999Z</time></trkpt><trkpt lat="45.81220097993743" lon="9.186218707242723"><ele>728.2857142857143</ele><time>2026-04-25T07:36:05.999Z</time></trkpt><trkpt lat="45.812188794571185" lon="9.186347501104803"><ele>730.1428571428571</ele><time>2026-04-25T07:36:08.999Z</time></trkpt><trkpt lat="45.8121779677998" lon="9.186476891697376"><ele>732.0</ele><time>2026-04-25T07:36:11.999Z</time></trkpt><trkpt lat="45.81217227522969" lon="9.186610160789813"><ele>733.0</ele><time>2026-04-25T07:36:14.999Z</time></trkpt><trkpt lat="45.812161152716406" lon="9.186738472359522"><ele>734.0</ele><time>2026-04-25T07:36:17.999Z</time></trkpt><trkpt lat="45.81214661176454" lon="9.186865121400887"><ele>735.0</ele><time>2026-04-25T07:36:20.999Z</time></trkpt><trkpt lat="45.812141483773814" lon="9.186996835793371"><ele>736.0</ele><time>2026-04-25T07:36:23.999Z</time></trkpt><trkpt lat="45.812144730376964" lon="9.187092314493237"><ele>737.0</ele><time>2026-04-25T07:36:25.999Z</time></trkpt><trkpt lat="45.812151737538905" lon="9.18718544029682"><ele>738.0</ele><time>2026-04-25T07:36:27.999Z</time></trkpt><trkpt lat="45.812161709555674" lon="9.187281285697981"><ele>737.8571428571429</ele><time>2026-04-25T07:36:29.999Z</time></trkpt><trkpt lat="45.812176923598614" lon="9.187375845851196"><ele>737.7142857142857</ele><time>2026-04-25T07:36:31.999Z</time></trkpt><trkpt lat="45.812197410619966" lon="9.187468928069176"><ele>737.5714285714287</ele><time>2026-04-25T07:36:33.999Z</time></trkpt><trkpt lat="45.812221074842476" lon="9.187561563213832"><ele>737.4285714285714</ele><time>2026-04-25T07:36:35.999Z</time></trkpt><trkpt lat="45.81224441022212" lon="9.187655651390923"><ele>737.2857142857143</ele><time>2026-04-25T07:36:37.999Z</time></trkpt><trkpt lat="45.81226181417244" lon="9.18774533439775"><ele>737.1428571428572</ele><time>2026-04-25T07:36:39.999Z</time></trkpt><trkpt lat="45.81227938789373" lon="9.187841956204492"><ele>737.0</ele><time>2026-04-25T07:36:41.999Z</time></trkpt><trkpt lat="45.8123044888629" lon="9.18793777067585"><ele>737.0</ele><time>2026-04-25T07:36:43.999Z</time></trkpt><trkpt lat="45.81234805127166" lon="9.188019170256345"><ele>737.0</ele><time>2026-04-25T07:36:45.999Z</time></trkpt><trkpt lat="45.81240734120762" lon="9.188071380428799"><ele>737.0</ele><time>2026-04-25T07:36:47.999Z</time></trkpt><trkpt lat="45.812478267232294" lon="9.188058584504713"><ele>737.0</ele><time>2026-04-25T07:36:49.999Z</time></trkpt><trkpt lat="45.81251625301553" lon="9.187934720492695"><ele>737.0</ele><time>2026-04-25T07:36:51.999Z</time></trkpt><trkpt lat="45.81249685572635" lon="9.187804611132073"><ele>737.0</ele><time>2026-04-25T07:36:53.999Z</time></trkpt><trkpt lat="45.812471489035836" lon="9.187691038832382"><ele>737.0</ele><time>2026-04-25T07:36:55.999Z</time></trkpt><trkpt lat="45.812447084306285" lon="9.187576973669776"><ele>737.0</ele><time>2026-04-25T07:36:58Z</time></trkpt><trkpt lat="45.81242561385823" lon="9.187462824527978"><ele>737.0</ele><time>2026-04-25T07:37:00Z</time></trkpt><trkpt lat="45.81242593945507" lon="9.187334913640818"><ele>737.0</ele><time>2026-04-25T07:37:02Z</time></trkpt><trkpt lat="45.81244223501201" lon="9.187214416576676"><ele>737.0</ele><time>2026-04-25T07:37:04Z</time></trkpt><trkpt lat="45.81247147333545" lon="9.187098476583879"><ele>737.0</ele><time>2026-04-25T07:37:06Z</time></trkpt><trkpt lat="45.81250389585592" lon="9.186988834993375"><ele>737.1666666666666</ele><time>2026-04-25T07:37:08Z</time></trkpt><trkpt lat="45.8125374485412" lon="9.18689690322786"><ele>737.3333333333333</ele><time>2026-04-25T07:37:10Z</time></trkpt><trkpt lat="45.81258511410667" lon="9.186806773421512"><ele>737.5</ele><time>2026-04-25T07:37:12Z</time></trkpt><trkpt lat="45.81262457794104" lon="9.186698924391713"><ele>737.6666666666666</ele><time>2026-04-25T07:37:14Z</time></trkpt><trkpt lat="45.8126740273972" lon="9.18659706872375"><ele>737.8333333333334</ele><time>2026-04-25T07:37:16Z</time></trkpt><trkpt lat="45.812716040419694" lon="9.186489740221088"><ele>738.0</ele><time>2026-04-25T07:37:18Z</time></trkpt><trkpt lat="45.812763749002556" lon="9.186383900086028"><ele>740.8333333333334</ele><time>2026-04-25T07:37:20Z</time></trkpt><trkpt lat="45.81281170401474" lon="9.186283374991907"><ele>743.6666666666666</ele><time>2026-04-25T07:37:22Z</time></trkpt><trkpt lat="45.81286552152" lon="9.186189151660397"><ele>746.5</ele><time>2026-04-25T07:37:24Z</time></trkpt><trkpt lat="45.81292288340415" lon="9.186096169217139"><ele>749.3333333333333</ele><time>2026-04-25T07:37:26Z</time></trkpt><trkpt lat="45.81296968935548" lon="9.185991799134516"><ele>752.1666666666666</ele><time>2026-04-25T07:37:28Z</time></trkpt><trkpt lat="45.81303436619879" lon="9.185906408331876"><ele>755.0</ele><time>2026-04-25T07:37:30Z</time></trkpt><trkpt lat="45.81308920062485" lon="9.18580744433422"><ele>755.0</ele><time>2026-04-25T07:37:32Z</time></trkpt><trkpt lat="45.8131455540404" lon="9.185714028635717"><ele>755.0</ele><time>2026-04-25T07:37:34Z</time></trkpt><trkpt lat="45.81320559015158" lon="9.185620426477026"><ele>755.0</ele><time>2026-04-25T07:37:36Z</time></trkpt><trkpt lat="45.81327940015784" lon="9.185561671043514"><ele>755.0</ele><time>2026-04-25T07:37:38Z</time></trkpt><trkpt lat="45.8133613649834" lon="9.1855943665013"><ele>755.0</ele><time>2026-04-25T07:37:40Z</time></trkpt><trkpt lat="45.81339484020334" lon="9.185701770240172"><ele>755.0</ele><time>2026-04-25T07:37:42Z</time></trkpt><trkpt lat="45.813376149310066" lon="9.185808920949622"><ele>755.0</ele><time>2026-04-25T07:37:44Z</time></trkpt><trkpt lat="45.813344949363206" lon="9.185898060235582"><ele>755.0</ele><time>2026-04-25T07:37:46Z</time></trkpt><trkpt lat="45.81331631332696" lon="9.185989322071586"><ele>755.0</ele><time>2026-04-25T07:37:48Z</time></trkpt><trkpt lat="45.81329214211946" lon="9.18608749959354"><ele>755.0</ele><time>2026-04-25T07:37:50Z</time></trkpt><trkpt lat="45.813273065610126" lon="9.186187307906401"><ele>755.0</ele><time>2026-04-25T07:37:52Z</time></trkpt><trkpt lat="45.81327702354695" lon="9.186286948088084"><ele>755.0</ele><time>2026-04-25T07:37:54Z</time></trkpt><trkpt lat="45.813296172315" lon="9.1863931204565"><ele>755.0</ele><time>2026-04-25T07:37:56Z</time></trkpt><trkpt lat="45.81332597473689" lon="9.186485402903584"><ele>755.3333333333333</ele><time>2026-04-25T07:37:58Z</time></trkpt><trkpt lat="45.8133676857299" lon="9.186576612849828"><ele>755.6666666666666</ele><time>2026-04-25T07:38:00Z</time></trkpt><trkpt lat="45.81341186818669" lon="9.186663064069641"><ele>756.0</ele><time>2026-04-25T07:38:02Z</time></trkpt><trkpt lat="45.813467983622594" lon="9.1867390285267"><ele>756.3333333333334</ele><time>2026-04-25T07:38:04Z</time></trkpt><trkpt lat="45.81352963055919" lon="9.18680226092228"><ele>756.6666666666667</ele><time>2026-04-25T07:38:06Z</time></trkpt><trkpt lat="45.81359783593367" lon="9.186850758288488"><ele>757.0</ele><time>2026-04-25T07:38:08Z</time></trkpt><trkpt lat="45.813671926167494" lon="9.186870892101803"><ele>758.7142857142858</ele><time>2026-04-25T07:38:10Z</time></trkpt><trkpt lat="45.813750491582645" lon="9.18688219624806"><ele>760.4285714285713</ele><time>2026-04-25T07:38:12Z</time></trkpt><trkpt lat="45.81382479343542" lon="9.186886036403566"><ele>762.1428571428571</ele><time>2026-04-25T07:38:14Z</time></trkpt><trkpt lat="45.813898426562126" lon="9.186870452793052"><ele>763.8571428571429</ele><time>2026-04-25T07:38:16Z</time></trkpt><trkpt lat="45.81396959701239" lon="9.186850640057141"><ele>765.5714285714287</ele><time>2026-04-25T07:38:18Z</time></trkpt><trkpt lat="45.81403794543307" lon="9.186835642593318"><ele>767.2857142857142</ele><time>2026-04-25T07:38:20Z</time></trkpt><trkpt lat="45.814109422819136" lon="9.186811260905548"><ele>769.0</ele><time>2026-04-25T07:38:22Z</time></trkpt><trkpt lat="45.814179337071614" lon="9.186858483851802"><ele>769.0</ele><time>2026-04-25T07:38:23.999Z</time></trkpt><trkpt lat="45.814245032658135" lon="9.186901768494224"><ele>769.0</ele><time>2026-04-25T07:38:25.999Z</time></trkpt><trkpt lat="45.81433692763507" lon="9.18694565607389"><ele>769.0</ele><time>2026-04-25T07:38:28.999Z</time></trkpt><trkpt lat="45.814401350142546" lon="9.186983141647286"><ele>769.0</ele><time>2026-04-25T07:38:30.999Z</time></trkpt><trkpt lat="45.814463685546954" lon="9.18700259711738"><ele>769.0</ele><time>2026-04-25T07:38:32.999Z</time></trkpt><trkpt lat="45.814532743852055" lon="9.187008660656023"><ele>769.0</ele><time>2026-04-25T07:38:34.999Z</time></trkpt><trkpt lat="45.81459833088242" lon="9.187008344474526"><ele>769.0</ele><time>2026-04-25T07:38:36.999Z</time></trkpt><trkpt lat="45.814667393454044" lon="9.186997628747706"><ele>770.2857142857142</ele><time>2026-04-25T07:38:38.999Z</time></trkpt><trkpt lat="45.81473419282938" lon="9.186990940265607"><ele>771.5714285714287</ele><time>2026-04-25T07:38:40.999Z</time></trkpt><trkpt lat="45.814798246540064" lon="9.186970694377411"><ele>772.8571428571429</ele><time>2026-04-25T07:38:42.999Z</time></trkpt><trkpt lat="45.81486175197666" lon="9.186937996481163"><ele>774.1428571428571</ele><time>2026-04-25T07:38:44.999Z</time></trkpt><trkpt lat="45.81492713269606" lon="9.186918223485707"><ele>775.4285714285713</ele><time>2026-04-25T07:38:46.999Z</time></trkpt><trkpt lat="45.814991577529675" lon="9.186894021991641"><ele>776.7142857142858</ele><time>2026-04-25T07:38:48.999Z</time></trkpt><trkpt lat="45.8150784554021" lon="9.186850679192192"><ele>778.0</ele><time>2026-04-25T07:38:51.999Z</time></trkpt><trkpt lat="45.81514508040705" lon="9.186822520140348"><ele>780.0</ele><time>2026-04-25T07:38:53.999Z</time></trkpt><trkpt lat="45.8152127658969" lon="9.186815998941666"><ele>782.0</ele><time>2026-04-25T07:38:55.999Z</time></trkpt><trkpt lat="45.81527974392343" lon="9.186793359164284"><ele>784.0</ele><time>2026-04-25T07:38:58Z</time></trkpt><trkpt lat="45.81534997377403" lon="9.186774474356753"><ele>786.0</ele><time>2026-04-25T07:39:00Z</time></trkpt><trkpt lat="45.81541441945122" lon="9.186742153378036"><ele>788.0</ele><time>2026-04-25T07:39:02Z</time></trkpt><trkpt lat="45.815480112488366" lon="9.186717513307915"><ele>790.0</ele><time>2026-04-25T07:39:04Z</time></trkpt><trkpt lat="45.81554884159329" lon="9.186709104544125"><ele>792.0</ele><time>2026-04-25T07:39:06Z</time></trkpt><trkpt lat="45.815617858798326" lon="9.186725765988719"><ele>792.0</ele><time>2026-04-25T07:39:09Z</time></trkpt><trkpt lat="45.81570437517012" lon="9.186746858168654"><ele>792.0</ele><time>2026-04-25T07:39:12Z</time></trkpt><trkpt lat="45.81580204346538" lon="9.186819250610924"><ele>792.0</ele><time>2026-04-25T07:39:15Z</time></trkpt><trkpt lat="45.815885818355156" lon="9.186877481819053"><ele>792.0</ele><time>2026-04-25T07:39:17Z</time></trkpt><trkpt lat="45.81595032219869" lon="9.186923928693162"><ele>792.0</ele><time>2026-04-25T07:39:20Z</time></trkpt><trkpt lat="45.81601192960154" lon="9.18697339213814"><ele>792.0</ele><time>2026-04-25T07:39:21Z</time></trkpt><trkpt lat="45.81606849279657" lon="9.187021923316466"><ele>794.0</ele><time>2026-04-25T07:39:23Z</time></trkpt><trkpt lat="45.81614806899972" lon="9.187096979829548"><ele>796.0</ele><time>2026-04-25T07:39:25Z</time></trkpt><trkpt lat="45.816204908814306" lon="9.187149138986497"><ele>798.0</ele><time>2026-04-25T07:39:27Z</time></trkpt><trkpt lat="45.81627081474493" lon="9.187208114015691"><ele>800.0</ele><time>2026-04-25T07:39:29Z</time></trkpt><trkpt lat="45.816338332357866" lon="9.187268304696719"><ele>802.0</ele><time>2026-04-25T07:39:31Z</time></trkpt><trkpt lat="45.81640296632167" lon="9.187334431946347"><ele>804.0</ele><time>2026-04-25T07:39:33Z</time></trkpt><trkpt lat="45.81645434152819" lon="9.187405697000896"><ele>804.0</ele><time>2026-04-25T07:39:35Z</time></trkpt><trkpt lat="45.81649795683706" lon="9.18749151466784"><ele>804.0</ele><time>2026-04-25T07:39:37Z</time></trkpt><trkpt lat="45.81653823760696" lon="9.187580822744456"><ele>804.0</ele><time>2026-04-25T07:39:39Z</time></trkpt><trkpt lat="45.81657714618936" lon="9.18767480697107"><ele>804.0</ele><time>2026-04-25T07:39:41Z</time></trkpt><trkpt lat="45.81664462765403" lon="9.187806795834103"><ele>804.0</ele><time>2026-04-25T07:39:44Z</time></trkpt><trkpt lat="45.81671706962427" lon="9.187831285677136"><ele>804.0</ele><time>2026-04-25T07:39:47Z</time></trkpt><trkpt lat="45.81678551364385" lon="9.187833680007133"><ele>804.0</ele><time>2026-04-25T07:39:48Z</time></trkpt><trkpt lat="45.81681942152231" lon="9.187752978370884"><ele>804.0</ele><time>2026-04-25T07:39:50Z</time></trkpt><trkpt lat="45.81683268452497" lon="9.187636789686803"><ele>804.0</ele><time>2026-04-25T07:39:52Z</time></trkpt><trkpt lat="45.81680071662658" lon="9.187510952332005"><ele>804.0</ele><time>2026-04-25T07:39:55Z</time></trkpt><trkpt lat="45.81677182950736" lon="9.187425154832754"><ele>804.0</ele><time>2026-04-25T07:39:57Z</time></trkpt><trkpt lat="45.81674261020491" lon="9.187343143362597"><ele>804.0</ele><time>2026-04-25T07:39:59Z</time></trkpt><trkpt lat="45.81671340991058" lon="9.187261305978913"><ele>804.0</ele><time>2026-04-25T07:40:01Z</time></trkpt><trkpt lat="45.81668481245499" lon="9.187175659028624"><ele>804.2857142857142</ele><time>2026-04-25T07:40:03Z</time></trkpt><trkpt lat="45.81665395672453" lon="9.187090098993885"><ele>804.5714285714287</ele><time>2026-04-25T07:40:05Z</time></trkpt><trkpt lat="45.816621843030255" lon="9.18700676075784"><ele>804.8571428571429</ele><time>2026-04-25T07:40:07Z</time></trkpt><trkpt lat="45.81659510747717" lon="9.186916752996394"><ele>805.1428571428571</ele><time>2026-04-25T07:40:09Z</time></trkpt><trkpt lat="45.81656244046465" lon="9.186833692812215"><ele>805.4285714285713</ele><time>2026-04-25T07:40:11Z</time></trkpt><trkpt lat="45.81653386546617" lon="9.186748006765521"><ele>805.7142857142858</ele><time>2026-04-25T07:40:13Z</time></trkpt><trkpt lat="45.8165191038466" lon="9.186650894001488"><ele>806.0</ele><time>2026-04-25T07:40:15Z</time></trkpt><trkpt lat="45.81654859542512" lon="9.18655188446798"><ele>807.2857142857143</ele><time>2026-04-25T07:40:17Z</time></trkpt><trkpt lat="45.81661396966067" lon="9.186503352655008"><ele>808.5714285714286</ele><time>2026-04-25T07:40:20Z</time></trkpt><trkpt lat="45.81667612886158" lon="9.186484840213096"><ele>809.8571428571429</ele><time>2026-04-25T07:40:21Z</time></trkpt><trkpt lat="45.81673937875899" lon="9.186509623193919"><ele>811.1428571428571</ele><time>2026-04-25T07:40:23Z</time></trkpt><trkpt lat="45.81682719463636" lon="9.186551099072311"><ele>812.4285714285713</ele><time>2026-04-25T07:40:25Z</time></trkpt><trkpt lat="45.8168912208416" lon="9.186590780815692"><ele>813.7142857142857</ele><time>2026-04-25T07:40:27Z</time></trkpt><trkpt lat="45.81696271360162" lon="9.186626437456157"><ele>815.0</ele><time>2026-04-25T07:40:29Z</time></trkpt><trkpt lat="45.817035575642045" lon="9.186648265375059"><ele>815.0000000000001</ele><time>2026-04-25T07:40:31Z</time></trkpt><trkpt lat="45.81711019135295" lon="9.18666768804132"><ele>815.0</ele><time>2026-04-25T07:40:33Z</time></trkpt><trkpt lat="45.817181495960305" lon="9.186682864450162"><ele>815.0</ele><time>2026-04-25T07:40:35Z</time></trkpt><trkpt lat="45.81725689867628" lon="9.186697124789525"><ele>815.0</ele><time>2026-04-25T07:40:37Z</time></trkpt><trkpt lat="45.817334356580275" lon="9.186710998162358"><ele>815.0000000000001</ele><time>2026-04-25T07:40:39Z</time></trkpt><trkpt lat="45.81741598178005" lon="9.186726124734928"><ele>815.0</ele><time>2026-04-25T07:40:41Z</time></trkpt><trkpt lat="45.817499905805285" lon="9.186741256778982"><ele>815.0</ele><time>2026-04-25T07:40:43Z</time></trkpt><trkpt lat="45.817589234191686" lon="9.186753271017748"><ele>815.0</ele><time>2026-04-25T07:40:45Z</time></trkpt><trkpt lat="45.81767934301221" lon="9.18676628316992"><ele>815.0</ele><time>2026-04-25T07:40:47Z</time></trkpt><trkpt lat="45.817772090438304" lon="9.186788921085501"><ele>815.0</ele><time>2026-04-25T07:40:49Z</time></trkpt><trkpt lat="45.81786081491752" lon="9.18680245192459"><ele>815.0</ele><time>2026-04-25T07:40:51Z</time></trkpt><trkpt lat="45.817956014572076" lon="9.1868165330228"><ele>815.4</ele><time>2026-04-25T07:40:53Z</time></trkpt><trkpt lat="45.818051072866105" lon="9.18682683891257"><ele>815.8</ele><time>2026-04-25T07:40:55Z</time></trkpt><trkpt lat="45.8181595760861" lon="9.186845306300508"><ele>816.2</ele><time>2026-04-25T07:40:57.999Z</time></trkpt><trkpt lat="45.81831228362009" lon="9.18686925352808"><ele>816.6</ele><time>2026-04-25T07:41:00.999Z</time></trkpt><trkpt lat="45.81839388247112" lon="9.186873018082338"><ele>817.0</ele><time>2026-04-25T07:41:03Z</time></trkpt><trkpt lat="45.81848064314193" lon="9.186867393952493"><ele>820.1666666666666</ele><time>2026-04-25T07:41:05Z</time></trkpt><trkpt lat="45.818564401316074" lon="9.186856051251185"><ele>823.3333333333333</ele><time>2026-04-25T07:41:07Z</time></trkpt><trkpt lat="45.81864563216316" lon="9.186810139454545"><ele>826.5</ele><time>2026-04-25T07:41:09Z</time></trkpt><trkpt lat="45.81872552246468" lon="9.186766812119648"><ele>829.6666666666667</ele><time>2026-04-25T07:41:11Z</time></trkpt><trkpt lat="45.81880462480196" lon="9.186737175819385"><ele>832.8333333333334</ele><time>2026-04-25T07:41:13Z</time></trkpt><trkpt lat="45.81887678562208" lon="9.186696977822159"><ele>836.0</ele><time>2026-04-25T07:41:15Z</time></trkpt><trkpt lat="45.8189429364655" lon="9.186652767996534"><ele>836.0</ele><time>2026-04-25T07:41:17Z</time></trkpt><trkpt lat="45.819010636933236" lon="9.186606012813488"><ele>836.0</ele><time>2026-04-25T07:41:19Z</time></trkpt><trkpt lat="45.81907512569241" lon="9.186559586748"><ele>836.0</ele><time>2026-04-25T07:41:21Z</time></trkpt><trkpt lat="45.8191366028191" lon="9.18653020078418"><ele>836.0</ele><time>2026-04-25T07:41:23Z</time></trkpt><trkpt lat="45.81919562220442" lon="9.186481961996126"><ele>836.0</ele><time>2026-04-25T07:41:25Z</time></trkpt><trkpt lat="45.81925098945681" lon="9.186428940134599"><ele>836.0</ele><time>2026-04-25T07:41:27Z</time></trkpt><trkpt lat="45.81930289762423" lon="9.186358361243363"><ele>836.0</ele><time>2026-04-25T07:41:29Z</time></trkpt><trkpt lat="45.819354132068796" lon="9.186291634170262"><ele>836.1428571428571</ele><time>2026-04-25T07:41:31Z</time></trkpt><trkpt lat="45.81940660818888" lon="9.186225741112668"><ele>836.2857142857142</ele><time>2026-04-25T07:41:33Z</time></trkpt><trkpt lat="45.819461371644" lon="9.186162961013531"><ele>836.4285714285714</ele><time>2026-04-25T07:41:35Z</time></trkpt><trkpt lat="45.81950997390854" lon="9.186096330873784"><ele>836.5714285714286</ele><time>2026-04-25T07:41:37Z</time></trkpt><trkpt lat="45.81956768998661" lon="9.18603915784205"><ele>836.7142857142858</ele><time>2026-04-25T07:41:39Z</time></trkpt><trkpt lat="45.81962601023988" lon="9.185989133412964"><ele>836.8571428571429</ele><time>2026-04-25T07:41:41Z</time></trkpt><trkpt lat="45.819685675479114" lon="9.185940838367648"><ele>837.0</ele><time>2026-04-25T07:41:43Z</time></trkpt><trkpt lat="45.81974235483223" lon="9.185893636933185"><ele>837.0</ele><time>2026-04-25T07:41:45Z</time></trkpt><trkpt lat="45.81981699414862" lon="9.185816527867498"><ele>837.0</ele><time>2026-04-25T07:41:48Z</time></trkpt><trkpt lat="45.819877718149954" lon="9.185779370553954"><ele>837.0</ele><time>2026-04-25T07:41:50Z</time></trkpt><trkpt lat="45.81994098365838" lon="9.185741786265648"><ele>837.0</ele><time>2026-04-25T07:41:53Z</time></trkpt><trkpt lat="45.82004880531746" lon="9.185695366713212"><ele>837.0</ele><time>2026-04-25T07:41:56Z</time></trkpt><trkpt lat="45.82011801172831" lon="9.185673355461596"><ele>837.0</ele><time>2026-04-25T07:41:58Z</time></trkpt><trkpt lat="45.82021080299737" lon="9.185632854433438"><ele>836.8571428571429</ele><time>2026-04-25T07:42:01Z</time></trkpt><trkpt lat="45.82029459624477" lon="9.185597159950243"><ele>836.7142857142858</ele><time>2026-04-25T07:42:04Z</time></trkpt><trkpt lat="45.82038140336458" lon="9.185558132025072"><ele>836.5714285714286</ele><time>2026-04-25T07:42:07Z</time></trkpt><trkpt lat="45.820444514383404" lon="9.185535701048186"><ele>836.4285714285714</ele><time>2026-04-25T07:42:09Z</time></trkpt><trkpt lat="45.820507986256956" lon="9.185502488422681"><ele>836.2857142857142</ele><time>2026-04-25T07:42:11Z</time></trkpt><trkpt lat="45.82057340753134" lon="9.185481183601986"><ele>836.1428571428571</ele><time>2026-04-25T07:42:13Z</time></trkpt><trkpt lat="45.820642308383746" lon="9.185454470252028"><ele>836.0</ele><time>2026-04-25T07:42:15Z</time></trkpt><trkpt lat="45.82071287721019" lon="9.185430484532162"><ele>836.0000000000001</ele><time>2026-04-25T07:42:17Z</time></trkpt><trkpt lat="45.820784530428156" lon="9.185419442905287"><ele>836.0</ele><time>2026-04-25T07:42:19Z</time></trkpt><trkpt lat="45.82085744817173" lon="9.185403101128898"><ele>836.0</ele><time>2026-04-25T07:42:21Z</time></trkpt><trkpt lat="45.82093358781446" lon="9.185391345606293"><ele>836.0</ele><time>2026-04-25T07:42:23Z</time></trkpt><trkpt lat="45.821009968425955" lon="9.185370868212624"><ele>836.0000000000001</ele><time>2026-04-25T07:42:25Z</time></trkpt><trkpt lat="45.82108637767466" lon="9.185354643726773"><ele>836.0</ele><time>2026-04-25T07:42:27Z</time></trkpt><trkpt lat="45.821168659517404" lon="9.18533038670571"><ele>837.8333333333334</ele><time>2026-04-25T07:42:29Z</time></trkpt><trkpt lat="45.82125034892407" lon="9.185299401470001"><ele>839.6666666666667</ele><time>2026-04-25T07:42:31Z</time></trkpt><trkpt lat="45.821332672077396" lon="9.18526799038644"><ele>841.5</ele><time>2026-04-25T07:42:33Z</time></trkpt><trkpt lat="45.82141331364936" lon="9.185235788254479"><ele>843.3333333333333</ele><time>2026-04-25T07:42:35Z</time></trkpt><trkpt lat="45.821491854517795" lon="9.185192594881213"><ele>845.1666666666666</ele><time>2026-04-25T07:42:37Z</time></trkpt><trkpt lat="45.82157109370317" lon="9.185162948788339"><ele>847.0</ele><time>2026-04-25T07:42:39Z</time></trkpt><trkpt lat="45.821653778388196" lon="9.185130784110646"><ele>846.9999999999999</ele><time>2026-04-25T07:42:41Z</time></trkpt><trkpt lat="45.82173728305129" lon="9.1851115714863"><ele>847.0</ele><time>2026-04-25T07:42:43Z</time></trkpt><trkpt lat="45.82182178623785" lon="9.185087511473947"><ele>847.0</ele><time>2026-04-25T07:42:45Z</time></trkpt><trkpt lat="45.82190515256329" lon="9.185053270958313"><ele>847.0</ele><time>2026-04-25T07:42:47Z</time></trkpt><trkpt lat="45.82198040579651" lon="9.185028561937154"><ele>846.9999999999999</ele><time>2026-04-25T07:42:49Z</time></trkpt><trkpt lat="45.82205227369291" lon="9.185006308570555"><ele>847.0</ele><time>2026-04-25T07:42:51Z</time></trkpt><trkpt lat="45.82212251824373" lon="9.184971669369967"><ele>846.0</ele><time>2026-04-25T07:42:53Z</time></trkpt><trkpt lat="45.82219165574472" lon="9.184947157151793"><ele>845.0</ele><time>2026-04-25T07:42:55Z</time></trkpt><trkpt lat="45.822260690884754" lon="9.184922777587783"><ele>844.0</ele><time>2026-04-25T07:42:57Z</time></trkpt><trkpt lat="45.822329036115065" lon="9.184900210292152"><ele>843.0</ele><time>2026-04-25T07:42:59Z</time></trkpt><trkpt lat="45.8223988073475" lon="9.184882864098332"><ele>842.0</ele><time>2026-04-25T07:43:01Z</time></trkpt><trkpt lat="45.8224662181735" lon="9.18485777658722"><ele>841.0</ele><time>2026-04-25T07:43:03Z</time></trkpt><trkpt lat="45.822533272530215" lon="9.184823471277852"><ele>840.0</ele><time>2026-04-25T07:43:05Z</time></trkpt><trkpt lat="45.822599247240575" lon="9.184778681321754"><ele>844.7142857142857</ele><time>2026-04-25T07:43:07Z</time></trkpt><trkpt lat="45.822660516955" lon="9.184723905844505"><ele>849.4285714285714</ele><time>2026-04-25T07:43:09Z</time></trkpt><trkpt lat="45.8227222317324" lon="9.184668469586724"><ele>854.1428571428571</ele><time>2026-04-25T07:43:11Z</time></trkpt><trkpt lat="45.82278025394973" lon="9.184599920078115"><ele>858.8571428571429</ele><time>2026-04-25T07:43:13Z</time></trkpt><trkpt lat="45.82283628841262" lon="9.184525700227182"><ele>863.5714285714286</ele><time>2026-04-25T07:43:15Z</time></trkpt><trkpt lat="45.822889132471445" lon="9.184449837083994"><ele>868.2857142857142</ele><time>2026-04-25T07:43:17Z</time></trkpt><trkpt lat="45.822946500653266" lon="9.184381653019278"><ele>873.0</ele><time>2026-04-25T07:43:19Z</time></trkpt><trkpt lat="45.82300464990606" lon="9.184314438486316"><ele>872.9999999999999</ele><time>2026-04-25T07:43:21Z</time></trkpt><trkpt lat="45.82306488001403" lon="9.18426882118489"><ele>873.0</ele><time>2026-04-25T07:43:23Z</time></trkpt><trkpt lat="45.823124981366014" lon="9.184229885997599"><ele>873.0</ele><time>2026-04-25T07:43:25Z</time></trkpt><trkpt lat="45.823189745992266" lon="9.184207418692322"><ele>873.0</ele><time>2026-04-25T07:43:27Z</time></trkpt><trkpt lat="45.823253787307195" lon="9.184177775454055"><ele>873.0</ele><time>2026-04-25T07:43:29Z</time></trkpt><trkpt lat="45.82331826833976" lon="9.184159736228866"><ele>872.9999999999999</ele><time>2026-04-25T07:43:31Z</time></trkpt><trkpt lat="45.8233839683493" lon="9.184132961855893"><ele>873.0</ele><time>2026-04-25T07:43:33Z</time></trkpt><trkpt lat="45.82344911428331" lon="9.18410962675143"><ele>872.4285714285713</ele><time>2026-04-25T07:43:35Z</time></trkpt><trkpt lat="45.82351825884647" lon="9.184096383120318"><ele>871.8571428571429</ele><time>2026-04-25T07:43:37Z</time></trkpt><trkpt lat="45.8235861370383" lon="9.184072975971274"><ele>871.2857142857142</ele><time>2026-04-25T07:43:39Z</time></trkpt><trkpt lat="45.82365381218577" lon="9.184055649618287"><ele>870.7142857142857</ele><time>2026-04-25T07:43:41Z</time></trkpt><trkpt lat="45.82372198858846" lon="9.18403829522901"><ele>870.1428571428571</ele><time>2026-04-25T07:43:43Z</time></trkpt><trkpt lat="45.82378722002451" lon="9.18401162038086"><ele>869.5714285714286</ele><time>2026-04-25T07:43:45Z</time></trkpt><trkpt lat="45.82385353569127" lon="9.183984807981487"><ele>869.0</ele><time>2026-04-25T07:43:47Z</time></trkpt><trkpt lat="45.8239203598337" lon="9.183958620738405"><ele>869.0</ele><time>2026-04-25T07:43:49Z</time></trkpt><trkpt lat="45.823986571142676" lon="9.183916224479788"><ele>869.0</ele><time>2026-04-25T07:43:51Z</time></trkpt><trkpt lat="45.82404917511085" lon="9.183871726183494"><ele>869.0</ele><time>2026-04-25T07:43:53Z</time></trkpt><trkpt lat="45.82411204815425" lon="9.18382732091986"><ele>869.0</ele><time>2026-04-25T07:43:55Z</time></trkpt><trkpt lat="45.82417907347592" lon="9.183792048640797"><ele>869.0</ele><time>2026-04-25T07:43:57Z</time></trkpt><trkpt lat="45.82424789301471" lon="9.183762675548563"><ele>869.0</ele><time>2026-04-25T07:43:59Z</time></trkpt><trkpt lat="45.82431839749978" lon="9.18376419656795"><ele>869.0</ele><time>2026-04-25T07:44:01Z</time></trkpt><trkpt lat="45.824375512637324" lon="9.183817249808692"><ele>870.0</ele><time>2026-04-25T07:44:03Z</time></trkpt><trkpt lat="45.8244119566708" lon="9.183893176146658"><ele>871.0</ele><time>2026-04-25T07:44:05Z</time></trkpt><trkpt lat="45.82443618464923" lon="9.183986771924907"><ele>872.0</ele><time>2026-04-25T07:44:07Z</time></trkpt><trkpt lat="45.824442452863266" lon="9.184088557883651"><ele>873.0</ele><time>2026-04-25T07:44:09Z</time></trkpt><trkpt lat="45.824437178050935" lon="9.184195662779315"><ele>874.0</ele><time>2026-04-25T07:44:11Z</time></trkpt><trkpt lat="45.82442165799279" lon="9.18430111273679"><ele>875.0</ele><time>2026-04-25T07:44:13Z</time></trkpt><trkpt lat="45.82440706193724" lon="9.184415285450418"><ele>876.0</ele><time>2026-04-25T07:44:15Z</time></trkpt><trkpt lat="45.82438572995849" lon="9.184528249369354"><ele>877.5</ele><time>2026-04-25T07:44:17Z</time></trkpt><trkpt lat="45.824367512966454" lon="9.184653712687458"><ele>879.0</ele><time>2026-04-25T07:44:19Z</time></trkpt><trkpt lat="45.82434645830917" lon="9.184776973938433"><ele>880.5</ele><time>2026-04-25T07:44:21Z</time></trkpt><trkpt lat="45.82432203709217" lon="9.184899969214843"><ele>882.0</ele><time>2026-04-25T07:44:23Z</time></trkpt><trkpt lat="45.82431131844973" lon="9.18501999716327"><ele>883.5</ele><time>2026-04-25T07:44:25Z</time></trkpt><trkpt lat="45.824291243137374" lon="9.185134573551199"><ele>885.0</ele><time>2026-04-25T07:44:27Z</time></trkpt><trkpt lat="45.82429229752319" lon="9.185259721220916"><ele>886.0</ele><time>2026-04-25T07:44:29Z</time></trkpt><trkpt lat="45.82432029965012" lon="9.185382395102176"><ele>887.0</ele><time>2026-04-25T07:44:31Z</time></trkpt><trkpt lat="45.824354549984605" lon="9.185507255673855"><ele>888.0</ele><time>2026-04-25T07:44:33Z</time></trkpt><trkpt lat="45.824382582439966" lon="9.185630697169083"><ele>889.0</ele><time>2026-04-25T07:44:35Z</time></trkpt><trkpt lat="45.824408826354066" lon="9.185735020227359"><ele>890.0</ele><time>2026-04-25T07:44:37Z</time></trkpt><trkpt lat="45.82444611922972" lon="9.18582688535291"><ele>891.0</ele><time>2026-04-25T07:44:39Z</time></trkpt><trkpt lat="45.82447134852783" lon="9.1859214977954"><ele>892.3333333333334</ele><time>2026-04-25T07:44:41Z</time></trkpt><trkpt lat="45.82449638235057" lon="9.186015193469439"><ele>893.6666666666667</ele><time>2026-04-25T07:44:43Z</time></trkpt><trkpt lat="45.824531147555206" lon="9.18610332357382"><ele>895.0</ele><time>2026-04-25T07:44:45Z</time></trkpt><trkpt lat="45.82456545051982" lon="9.18620036351921"><ele>896.3333333333334</ele><time>2026-04-25T07:44:47Z</time></trkpt><trkpt lat="45.82459393282202" lon="9.186310858318961"><ele>897.6666666666667</ele><time>2026-04-25T07:44:49Z</time></trkpt><trkpt lat="45.82461100441361" lon="9.186431822552619"><ele>899.0</ele><time>2026-04-25T07:44:51Z</time></trkpt><trkpt lat="45.82459083155904" lon="9.186545237280653"><ele>899.5000000000001</ele><time>2026-04-25T07:44:53Z</time></trkpt><trkpt lat="45.8245557601512" lon="9.18663647356137"><ele>900.0</ele><time>2026-04-25T07:44:55Z</time></trkpt><trkpt lat="45.82452648699019" lon="9.186730286887466"><ele>900.5</ele><time>2026-04-25T07:44:57Z</time></trkpt><trkpt lat="45.82448464954105" lon="9.186846309379767"><ele>901.0</ele><time>2026-04-25T07:45:00Z</time></trkpt><trkpt lat="45.82446154901524" lon="9.186955810170494"><ele>901.5000000000001</ele><time>2026-04-25T07:45:03Z</time></trkpt><trkpt lat="45.824460395973155" lon="9.187063536652028"><ele>902.0</ele><time>2026-04-25T07:45:06Z</time></trkpt><trkpt lat="45.82446114237034" lon="9.187171418088134"><ele>902.0</ele><time>2026-04-25T07:45:09Z</time></trkpt><trkpt lat="45.824466130562186" lon="9.18730571824977"><ele>902.0</ele><time>2026-04-25T07:45:12Z</time></trkpt><trkpt lat="45.82448059715175" lon="9.187411466368866"><ele>902.0</ele><time>2026-04-25T07:45:14Z</time></trkpt><trkpt lat="45.82450484568745" lon="9.18754078141322"><ele>902.0</ele><time>2026-04-25T07:45:16Z</time></trkpt><trkpt lat="45.82457453445196" lon="9.18771529018359"><ele>902.0</ele><time>2026-04-25T07:45:19Z</time></trkpt><trkpt lat="45.824630515704435" lon="9.187832071259267"><ele>902.8</ele><time>2026-04-25T07:45:21Z</time></trkpt><trkpt lat="45.82467578340116" lon="9.187957820378099"><ele>903.6</ele><time>2026-04-25T07:45:23Z</time></trkpt><trkpt lat="45.82472459008832" lon="9.188084448677067"><ele>904.3999999999999</ele><time>2026-04-25T07:45:25Z</time></trkpt><trkpt lat="45.82478517002796" lon="9.188198495199083"><ele>905.1999999999999</ele><time>2026-04-25T07:45:27Z</time></trkpt><trkpt lat="45.82484418946438" lon="9.188310668544874"><ele>906.0</ele><time>2026-04-25T07:45:29Z</time></trkpt><trkpt lat="45.82489626696814" lon="9.188446317228525"><ele>906.0</ele><time>2026-04-25T07:45:31Z</time></trkpt><trkpt lat="45.82494571409222" lon="9.188587576232234"><ele>905.9999999999999</ele><time>2026-04-25T07:45:33Z</time></trkpt><trkpt lat="45.82499735948722" lon="9.188722138152555"><ele>905.9999999999999</ele><time>2026-04-25T07:45:35Z</time></trkpt><trkpt lat="45.82505128167918" lon="9.188865815993049"><ele>906.0</ele><time>2026-04-25T07:45:37Z</time></trkpt><trkpt lat="45.82508444972755" lon="9.189004108161221"><ele>906.0</ele><time>2026-04-25T07:45:39Z</time></trkpt><trkpt lat="45.825122759073935" lon="9.1891501049351"><ele>905.8</ele><time>2026-04-25T07:45:41Z</time></trkpt><trkpt lat="45.82516267683445" lon="9.189282966145976"><ele>905.5999999999999</ele><time>2026-04-25T07:45:43Z</time></trkpt><trkpt lat="45.82521972096029" lon="9.189410065381594"><ele>905.4</ele><time>2026-04-25T07:45:45Z</time></trkpt><trkpt lat="45.825321852066146" lon="9.189479938945125"><ele>905.2</ele><time>2026-04-25T07:45:47Z</time></trkpt><trkpt lat="45.82543614870629" lon="9.189503516298323"><ele>905.0</ele><time>2026-04-25T07:45:49Z</time></trkpt><trkpt lat="45.825545731509614" lon="9.189523343226172"><ele>905.0</ele><time>2026-04-25T07:45:51Z</time></trkpt><trkpt lat="45.82562067879928" lon="9.189563269168168"><ele>904.9999999999999</ele><time>2026-04-25T07:45:53Z</time></trkpt><trkpt lat="45.82569103258104" lon="9.189614251872564"><ele>905.0</ele><time>2026-04-25T07:45:56Z</time></trkpt><trkpt lat="45.82565780297234" lon="9.189529045134433"><ele>905.0</ele><time>2026-04-25T07:51:50Z</time></trkpt><trkpt lat="45.825697825734" lon="9.189612952492539"><ele>904.9999999999999</ele><time>2026-04-25T07:52:22Z</time></trkpt><trkpt lat="45.82565268723056" lon="9.189686787727387"><ele>905.0</ele><time>2026-04-25T07:52:31Z</time></trkpt><trkpt lat="45.825587679223496" lon="9.189699510407397"><ele>905.0</ele><time>2026-04-25T07:52:35Z</time></trkpt><trkpt lat="45.82559327961792" lon="9.189817829346032"><ele>905.0</ele><time>2026-04-25T07:52:39Z</time></trkpt><trkpt lat="45.825594149235634" lon="9.189917196398188"><ele>905.0</ele><time>2026-04-25T07:52:42Z</time></trkpt><trkpt lat="45.82553672796896" lon="9.189989749504502"><ele>905.0</ele><time>2026-04-25T07:52:45Z</time></trkpt><trkpt lat="45.82551928192605" lon="9.190125476048026"><ele>905.0</ele><time>2026-04-25T07:52:48Z</time></trkpt><trkpt lat="45.82566668022072" lon="9.189933481667461"><ele>905.0</ele><time>2026-04-25T07:52:49Z</time></trkpt><trkpt lat="45.8256868900474" lon="9.189823486628047"><ele>905.0</ele><time>2026-04-25T07:52:51Z</time></trkpt><trkpt lat="45.825671811723126" lon="9.189679512455811"><ele>905.0</ele><time>2026-04-25T07:52:53Z</time></trkpt><trkpt lat="45.82561183375259" lon="9.189750441066316"><ele>905.0</ele><time>2026-04-25T07:52:54Z</time></trkpt><trkpt lat="45.825645391353895" lon="9.189849713507384"><ele>905.0</ele><time>2026-04-25T07:52:55Z</time></trkpt><trkpt lat="45.82568337052302" lon="9.189941842800796"><ele>905.0</ele><time>2026-04-25T07:52:56Z</time></trkpt><trkpt lat="45.825728221492064" lon="9.190100293154552"><ele>903.6</ele><time>2026-04-25T07:52:58Z</time></trkpt><trkpt lat="45.82574799649731" lon="9.190205063753814"><ele>902.2</ele><time>2026-04-25T07:53:00Z</time></trkpt><trkpt lat="45.8257520312618" lon="9.19031755136722"><ele>900.8</ele><time>2026-04-25T07:53:02Z</time></trkpt><trkpt lat="45.82567163237561" lon="9.19028866479242"><ele>899.4</ele><time>2026-04-25T07:53:12Z</time></trkpt><trkpt lat="45.82564450338408" lon="9.190182220856085"><ele>898.0</ele><time>2026-04-25T07:53:13Z</time></trkpt><trkpt lat="45.82558083802502" lon="9.189979327011665"><ele>898.0</ele><time>2026-04-25T07:53:14Z</time></trkpt><trkpt lat="45.82562504605306" lon="9.190129085846245"><ele>898.0</ele><time>2026-04-25T07:53:50.09Z</time></trkpt><trkpt lat="45.825663379090805" lon="9.189882199478273"><ele>898.0</ele><time>2026-04-25T07:55:30Z</time></trkpt><trkpt lat="45.825656724780764" lon="9.189613187611315"><ele>899.1666666666666</ele><time>2026-04-25T07:55:32Z</time></trkpt><trkpt lat="45.82571213021322" lon="9.18965998474278"><ele>900.3333333333333</ele><time>2026-04-25T08:01:00Z</time></trkpt><trkpt lat="45.82566132707471" lon="9.189577730131845"><ele>901.5</ele><time>2026-04-25T08:03:10Z</time></trkpt><trkpt lat="45.82566667421689" lon="9.189471299558043"><ele>902.6666666666667</ele><time>2026-04-25T08:04:58Z</time></trkpt><trkpt lat="45.82571965025408" lon="9.18959430370578"><ele>903.8333333333334</ele><time>2026-04-25T08:06:25Z</time></trkpt><trkpt lat="45.82571504648368" lon="9.189715087779868"><ele>905.0</ele><time>2026-04-25T08:06:27Z</time></trkpt><trkpt lat="45.825757771711615" lon="9.18978721490053"><ele>905.0000000000001</ele><time>2026-04-25T08:06:31Z</time></trkpt><trkpt lat="45.825818228116646" lon="9.189699808958668"><ele>905.0</ele><time>2026-04-25T08:06:35Z</time></trkpt><trkpt lat="45.825733396028156" lon="9.189679892065774"><ele>905.0</ele><time>2026-04-25T08:06:38Z</time></trkpt><trkpt lat="45.8256193047944" lon="9.189700776204283"><ele>905.0</ele><time>2026-04-25T08:06:40Z</time></trkpt><trkpt lat="45.825679599590146" lon="9.189649145555837"><ele>905.0000000000001</ele><time>2026-04-25T08:06:42Z</time></trkpt><trkpt lat="45.82575263501579" lon="9.18967442322402"><ele>905.0</ele><time>2026-04-25T08:06:44Z</time></trkpt><trkpt lat="45.825678918652244" lon="9.189665952813032"><ele>905.0</ele><time>2026-04-25T08:07:02Z</time></trkpt><trkpt lat="45.8256917631811" lon="9.189754651019918"><ele>905.0</ele><time>2026-04-25T08:07:09Z</time></trkpt><trkpt lat="45.82575798554735" lon="9.189811748646754"><ele>905.0</ele><time>2026-04-25T08:07:12Z</time></trkpt><trkpt lat="45.82562698877016" lon="9.18961230701942"><ele>905.0</ele><time>2026-04-25T08:07:17Z</time></trkpt><trkpt lat="45.82567547629685" lon="9.189430357775594"><ele>905.0000000000001</ele><time>2026-04-25T08:07:18Z</time></trkpt><trkpt lat="45.825719064982664" lon="9.189522360757813"><ele>905.0</ele><time>2026-04-25T08:07:19Z</time></trkpt><trkpt lat="45.82569238373182" lon="9.189615803719212"><ele>905.0</ele><time>2026-04-25T08:07:21Z</time></trkpt><trkpt lat="45.82560840528012" lon="9.189573214276953"><ele>905.0</ele><time>2026-04-25T08:13:45Z</time></trkpt><trkpt lat="45.82552422561499" lon="9.189530357950003"><ele>905.0000000000001</ele><time>2026-04-25T08:13:48Z</time></trkpt><trkpt lat="45.825443167075576" lon="9.189517141315806"><ele>905.0</ele><time>2026-04-25T08:13:50Z</time></trkpt><trkpt lat="45.82535479159432" lon="9.189498295944157"><ele>905.0000000000001</ele><time>2026-04-25T08:13:52Z</time></trkpt><trkpt lat="45.8252716395853" lon="9.189469579565777"><ele>905.0</ele><time>2026-04-25T08:13:54Z</time></trkpt><trkpt lat="45.825202076173696" lon="9.189398130189666"><ele>905.0</ele><time>2026-04-25T08:13:56Z</time></trkpt><trkpt lat="45.82515161560717" lon="9.18931571506643"><ele>905.0</ele><time>2026-04-25T08:13:58Z</time></trkpt><trkpt lat="45.8251231457052" lon="9.189198901055766"><ele>905.0000000000001</ele><time>2026-04-25T08:14:00Z</time></trkpt><trkpt lat="45.82508908343258" lon="9.189058458601195"><ele>905.0</ele><time>2026-04-25T08:14:02Z</time></trkpt><trkpt lat="45.82505814777586" lon="9.188969773747973"><ele>905.25</ele><time>2026-04-25T08:14:04Z</time></trkpt><trkpt lat="45.82501597014076" lon="9.188756332330955"><ele>905.5</ele><time>2026-04-25T08:14:05.999Z</time></trkpt><trkpt lat="45.824967732900454" lon="9.188634631297925"><ele>905.75</ele><time>2026-04-25T08:14:07.999Z</time></trkpt><trkpt lat="45.82491854526816" lon="9.188496571752516"><ele>906.0</ele><time>2026-04-25T08:14:09.999Z</time></trkpt><trkpt lat="45.8248655870119" lon="9.188351746633208"><ele>906.0</ele><time>2026-04-25T08:14:11.999Z</time></trkpt><trkpt lat="45.82480014692922" lon="9.188213312979972"><ele>905.9999999999999</ele><time>2026-04-25T08:14:13.999Z</time></trkpt><trkpt lat="45.8247420067941" lon="9.1880856453183"><ele>905.9999999999999</ele><time>2026-04-25T08:14:15.999Z</time></trkpt><trkpt lat="45.824701052381506" lon="9.187980804201015"><ele>906.0</ele><time>2026-04-25T08:14:17.999Z</time></trkpt><trkpt lat="45.82465538863398" lon="9.187878936920642"><ele>906.0</ele><time>2026-04-25T08:14:20.999Z</time></trkpt><trkpt lat="45.824592072511514" lon="9.18779302193362"><ele>906.1666666666666</ele><time>2026-04-25T08:14:24.999Z</time></trkpt><trkpt lat="45.8245661023208" lon="9.187710336336826"><ele>906.3333333333333</ele><time>2026-04-25T08:14:26.999Z</time></trkpt><trkpt lat="45.824527667187205" lon="9.187593555324156"><ele>906.5</ele><time>2026-04-25T08:14:28.999Z</time></trkpt><trkpt lat="45.82447581305385" lon="9.187483630664834"><ele>906.6666666666666</ele><time>2026-04-25T08:14:31Z</time></trkpt><trkpt lat="45.82445219931282" lon="9.187350079069212"><ele>906.8333333333333</ele><time>2026-04-25T08:14:33Z</time></trkpt><trkpt lat="45.82444378774242" lon="9.18721627129247"><ele>907.0</ele><time>2026-04-25T08:14:35Z</time></trkpt><trkpt lat="45.824453249138195" lon="9.187071224549639"><ele>906.1666666666666</ele><time>2026-04-25T08:14:37Z</time></trkpt><trkpt lat="45.824472522431975" lon="9.186900650574298"><ele>905.3333333333333</ele><time>2026-04-25T08:14:39Z</time></trkpt><trkpt lat="45.82449965337383" lon="9.186807064973197"><ele>904.5</ele><time>2026-04-25T08:14:40Z</time></trkpt><trkpt lat="45.82452870054524" lon="9.186715653926676"><ele>903.6666666666667</ele><time>2026-04-25T08:14:41Z</time></trkpt><trkpt lat="45.824560088272214" lon="9.186622945747606"><ele>902.8333333333334</ele><time>2026-04-25T08:14:42Z</time></trkpt><trkpt lat="45.82458752213889" lon="9.186539538722624"><ele>902.0</ele><time>2026-04-25T08:14:43Z</time></trkpt><trkpt lat="45.8246051636946" lon="9.186448166533532"><ele>901.5000000000001</ele><time>2026-04-25T08:14:44Z</time></trkpt><trkpt lat="45.82460733004739" lon="9.186354545817546"><ele>901.0</ele><time>2026-04-25T08:14:45Z</time></trkpt><trkpt lat="45.82459167276363" lon="9.186259961728613"><ele>900.5</ele><time>2026-04-25T08:14:46Z</time></trkpt><trkpt lat="45.824563229959026" lon="9.18617705619324"><ele>900.0</ele><time>2026-04-25T08:14:47Z</time></trkpt><trkpt lat="45.824507288690306" lon="9.186028142297864"><ele>899.5000000000001</ele><time>2026-04-25T08:14:49Z</time></trkpt><trkpt lat="45.824452006758335" lon="9.185878210370237"><ele>899.0</ele><time>2026-04-25T08:14:51Z</time></trkpt><trkpt lat="45.824407389985765" lon="9.185748817434993"><ele>898.0000000000001</ele><time>2026-04-25T08:14:53Z</time></trkpt><trkpt lat="45.824367575217494" lon="9.18563137533042"><ele>897.0</ele><time>2026-04-25T08:14:55Z</time></trkpt><trkpt lat="45.82434153324375" lon="9.185539712556947"><ele>896.0</ele><time>2026-04-25T08:14:57Z</time></trkpt><trkpt lat="45.824317353497754" lon="9.185455127997463"><ele>895.0</ele><time>2026-04-25T08:14:59Z</time></trkpt><trkpt lat="45.82430145351203" lon="9.185365038963177"><ele>894.0000000000001</ele><time>2026-04-25T08:15:01Z</time></trkpt><trkpt lat="45.824301622445276" lon="9.185239030891333"><ele>893.0</ele><time>2026-04-25T08:15:03Z</time></trkpt><trkpt lat="45.824308916108876" lon="9.18505270204267"><ele>892.6666666666667</ele><time>2026-04-25T08:15:05Z</time></trkpt><trkpt lat="45.82431923038506" lon="9.184948386778206"><ele>892.3333333333334</ele><time>2026-04-25T08:15:06Z</time></trkpt><trkpt lat="45.82433892832772" lon="9.184836014529363"><ele>892.0</ele><time>2026-04-25T08:15:07Z</time></trkpt><trkpt lat="45.82436160714074" lon="9.184719169630586"><ele>891.6666666666667</ele><time>2026-04-25T08:15:08Z</time></trkpt><trkpt lat="45.8243801213773" lon="9.184599651046891"><ele>891.3333333333334</ele><time>2026-04-25T08:15:09Z</time></trkpt><trkpt lat="45.82440262035458" lon="9.184495076940568"><ele>891.0</ele><time>2026-04-25T08:15:10Z</time></trkpt><trkpt lat="45.82442107054197" lon="9.184393070420995"><ele>890.0</ele><time>2026-04-25T08:15:11Z</time></trkpt><trkpt lat="45.82443411112483" lon="9.184298130755353"><ele>889.0</ele><time>2026-04-25T08:15:12Z</time></trkpt><trkpt lat="45.82444722207634" lon="9.184202580733063"><ele>888.0</ele><time>2026-04-25T08:15:13Z</time></trkpt><trkpt lat="45.824464305117736" lon="9.184058631511014"><ele>887.0</ele><time>2026-04-25T08:15:15Z</time></trkpt><trkpt lat="45.824439086422046" lon="9.183933734641238"><ele>886.0</ele><time>2026-04-25T08:15:17Z</time></trkpt><trkpt lat="45.824384984556374" lon="9.183809383950141"><ele>885.0</ele><time>2026-04-25T08:15:19Z</time></trkpt><trkpt lat="45.82430388487097" lon="9.183737084754933"><ele>882.3333333333334</ele><time>2026-04-25T08:15:21Z</time></trkpt><trkpt lat="45.82419980957779" lon="9.183753502304635"><ele>879.6666666666667</ele><time>2026-04-25T08:15:23Z</time></trkpt><trkpt lat="45.824135024287145" lon="9.183799723490345"><ele>877.0</ele><time>2026-04-25T08:15:24Z</time></trkpt><trkpt lat="45.824065487108584" lon="9.183850905659192"><ele>874.3333333333334</ele><time>2026-04-25T08:15:25Z</time></trkpt><trkpt lat="45.823991760353806" lon="9.183907112443286"><ele>871.6666666666667</ele><time>2026-04-25T08:15:26Z</time></trkpt><trkpt lat="45.823913796443705" lon="9.183958449457617"><ele>869.0</ele><time>2026-04-25T08:15:27Z</time></trkpt><trkpt lat="45.823827773974386" lon="9.184000815244667"><ele>869.8000000000001</ele><time>2026-04-25T08:15:28Z</time></trkpt><trkpt lat="45.82373255693256" lon="9.184035468287348"><ele>870.6000000000001</ele><time>2026-04-25T08:15:29Z</time></trkpt><trkpt lat="45.8236375284321" lon="9.184067547782515"><ele>871.4</ele><time>2026-04-25T08:15:30Z</time></trkpt><trkpt lat="45.82353912346844" lon="9.184097650822261"><ele>872.2</ele><time>2026-04-25T08:15:31Z</time></trkpt><trkpt lat="45.823443483286496" lon="9.184128083788714"><ele>873.0</ele><time>2026-04-25T08:15:32Z</time></trkpt><trkpt lat="45.82335558686663" lon="9.184157810513954"><ele>873.0</ele><time>2026-04-25T08:15:33Z</time></trkpt><trkpt lat="45.823269140951126" lon="9.184185286365738"><ele>873.0</ele><time>2026-04-25T08:15:34Z</time></trkpt><trkpt lat="45.82318757041997" lon="9.184208255611003"><ele>873.0</ele><time>2026-04-25T08:15:35Z</time></trkpt><trkpt lat="45.82310763106694" lon="9.184232603171603"><ele>873.0</ele><time>2026-04-25T08:15:36Z</time></trkpt><trkpt lat="45.82303251103278" lon="9.184274921837055"><ele>873.0</ele><time>2026-04-25T08:15:37Z</time></trkpt><trkpt lat="45.822955258563724" lon="9.18433976917024"><ele>873.0</ele><time>2026-04-25T08:15:38Z</time></trkpt><trkpt lat="45.82287723491636" lon="9.184432658241258"><ele>873.0</ele><time>2026-04-25T08:15:39Z</time></trkpt><trkpt lat="45.822801874066855" lon="9.184537333375214"><ele>873.0</ele><time>2026-04-25T08:15:40Z</time></trkpt><trkpt lat="45.8227341031685" lon="9.184628494544121"><ele>873.0</ele><time>2026-04-25T08:15:40.999Z</time></trkpt><trkpt lat="45.82266932437359" lon="9.18470544022509"><ele>873.0</ele><time>2026-04-25T08:15:41.999Z</time></trkpt><trkpt lat="45.82260703743423" lon="9.184768449121723"><ele>873.0</ele><time>2026-04-25T08:15:42.999Z</time></trkpt><trkpt lat="45.8225387994559" lon="9.184822178701106"><ele>873.0</ele><time>2026-04-25T08:15:43.999Z</time></trkpt><trkpt lat="45.82245996222682" lon="9.184871404893922"><ele>871.2</ele><time>2026-04-25T08:15:44.999Z</time></trkpt><trkpt lat="45.82236788666447" lon="9.184907227405224"><ele>869.4</ele><time>2026-04-25T08:15:45.999Z</time></trkpt><trkpt lat="45.82226647210072" lon="9.184937636055242"><ele>867.6000000000001</ele><time>2026-04-25T08:15:46.999Z</time></trkpt><trkpt lat="45.82216207847784" lon="9.18497041200126"><ele>865.8000000000001</ele><time>2026-04-25T08:15:47.999Z</time></trkpt><trkpt lat="45.82205520862422" lon="9.185006339863328"><ele>864.0</ele><time>2026-04-25T08:15:48.999Z</time></trkpt><trkpt lat="45.82194875523678" lon="9.18504007336934"><ele>864.0</ele><time>2026-04-25T08:15:49.999Z</time></trkpt><trkpt lat="45.821841266363045" lon="9.185074573333544"><ele>864.0</ele><time>2026-04-25T08:15:50.999Z</time></trkpt><trkpt lat="45.82173214219986" lon="9.185126420232098"><ele>864.0</ele><time>2026-04-25T08:15:51.999Z</time></trkpt><trkpt lat="45.82161560693488" lon="9.185174717158848"><ele>864.0</ele><time>2026-04-25T08:15:52.999Z</time></trkpt><trkpt lat="45.82149883106979" lon="9.185208543133896"><ele>860.6</ele><time>2026-04-25T08:15:53.999Z</time></trkpt><trkpt lat="45.82137723678887" lon="9.18525863170695"><ele>857.2</ele><time>2026-04-25T08:15:54.999Z</time></trkpt><trkpt lat="45.82127126069199" lon="9.185291498290635"><ele>853.8000000000001</ele><time>2026-04-25T08:15:55.999Z</time></trkpt><trkpt lat="45.821172460852814" lon="9.185326526786989"><ele>850.4000000000001</ele><time>2026-04-25T08:15:56.999Z</time></trkpt><trkpt lat="45.82107760339591" lon="9.185362390097524"><ele>847.0</ele><time>2026-04-25T08:15:57.999Z</time></trkpt><trkpt lat="45.82098612379759" lon="9.185385826245582"><ele>844.8</ele><time>2026-04-25T08:15:58.999Z</time></trkpt><trkpt lat="45.82089707501551" lon="9.185400846668175"><ele>842.6</ele><time>2026-04-25T08:15:59.999Z</time></trkpt><trkpt lat="45.820806605752054" lon="9.18541114832303"><ele>840.4</ele><time>2026-04-25T08:16:00.999Z</time></trkpt><trkpt lat="45.82071051397429" lon="9.18542472584431"><ele>838.1999999999999</ele><time>2026-04-25T08:16:01.999Z</time></trkpt><trkpt lat="45.82061365073038" lon="9.185456035333933"><ele>836.0</ele><time>2026-04-25T08:16:02.999Z</time></trkpt><trkpt lat="45.82051922986706" lon="9.185495037508682"><ele>836.0000000000001</ele><time>2026-04-25T08:16:03.999Z</time></trkpt><trkpt lat="45.820432941936026" lon="9.185538761295925"><ele>836.0</ele><time>2026-04-25T08:16:04.999Z</time></trkpt><trkpt lat="45.82034747928428" lon="9.185575621917344"><ele>836.0</ele><time>2026-04-25T08:16:05.999Z</time></trkpt><trkpt lat="45.820267077704905" lon="9.18560917196387"><ele>836.0</ele><time>2026-04-25T08:16:06.999Z</time></trkpt><trkpt lat="45.820185258971655" lon="9.185641544297749"><ele>836.0000000000001</ele><time>2026-04-25T08:16:07.999Z</time></trkpt><trkpt lat="45.82010241483764" lon="9.185676466259732"><ele>836.0</ele><time>2026-04-25T08:16:08.999Z</time></trkpt><trkpt lat="45.82001450030924" lon="9.185713308567264"><ele>836.1999999999999</ele><time>2026-04-25T08:16:09.999Z</time></trkpt><trkpt lat="45.819926088762436" lon="9.185742979429955"><ele>836.4</ele><time>2026-04-25T08:16:10.999Z</time></trkpt><trkpt lat="45.81985012768151" lon="9.185784110136304"><ele>836.6</ele><time>2026-04-25T08:16:11.999Z</time></trkpt><trkpt lat="45.819771316863644" lon="9.185833471037288"><ele>836.8</ele><time>2026-04-25T08:16:12.999Z</time></trkpt><trkpt lat="45.819687838365994" lon="9.185901651301618"><ele>837.0</ele><time>2026-04-25T08:16:13.999Z</time></trkpt><trkpt lat="45.81960658395704" lon="9.18598536557062"><ele>837.0</ele><time>2026-04-25T08:16:14.999Z</time></trkpt><trkpt lat="45.819528587435386" lon="9.186085566425811"><ele>837.0</ele><time>2026-04-25T08:16:15.999Z</time></trkpt><trkpt lat="45.81945397960808" lon="9.186176202541516"><ele>837.0</ele><time>2026-04-25T08:16:16.999Z</time></trkpt><trkpt lat="45.819380722152175" lon="9.186263780029462"><ele>837.0</ele><time>2026-04-25T08:16:17.999Z</time></trkpt><trkpt lat="45.819306987378816" lon="9.186349562624356"><ele>837.0</ele><time>2026-04-25T08:16:18.999Z</time></trkpt><trkpt lat="45.81923575831003" lon="9.186431298425061"><ele>836.8</ele><time>2026-04-25T08:16:19.999Z</time></trkpt><trkpt lat="45.81916735105838" lon="9.186512041155211"><ele>836.6</ele><time>2026-04-25T08:16:20.999Z</time></trkpt><trkpt lat="45.819083788195975" lon="9.186581639564336"><ele>836.4</ele><time>2026-04-25T08:16:21.999Z</time></trkpt><trkpt lat="45.818986056188564" lon="9.186639630534264"><ele>836.1999999999999</ele><time>2026-04-25T08:16:22.999Z</time></trkpt><trkpt lat="45.818882080511905" lon="9.186700233592674"><ele>836.0</ele><time>2026-04-25T08:16:23.999Z</time></trkpt><trkpt lat="45.81878379315353" lon="9.186762349061134"><ele>836.0000000000001</ele><time>2026-04-25T08:16:24.999Z</time></trkpt><trkpt lat="45.81869171414721" lon="9.186804535825217"><ele>836.0</ele><time>2026-04-25T08:16:25.999Z</time></trkpt><trkpt lat="45.818603510231036" lon="9.186845861328043"><ele>836.0</ele><time>2026-04-25T08:16:26.999Z</time></trkpt><trkpt lat="45.81851826152495" lon="9.186872626660213"><ele>836.0</ele><time>2026-04-25T08:16:27.999Z</time></trkpt><trkpt lat="45.818434681129716" lon="9.186893180598254"><ele>836.0000000000001</ele><time>2026-04-25T08:16:28.999Z</time></trkpt><trkpt lat="45.818349056640564" lon="9.186892901639107"><ele>836.0</ele><time>2026-04-25T08:16:29.999Z</time></trkpt><trkpt lat="45.818256850391535" lon="9.186880432648147"><ele>832.1999999999999</ele><time>2026-04-25T08:16:30.999Z</time></trkpt><trkpt lat="45.81815723195635" lon="9.186857749966938"><ele>828.4</ele><time>2026-04-25T08:16:31.999Z</time></trkpt><trkpt lat="45.81805294694411" lon="9.186845809614644"><ele>824.6</ele><time>2026-04-25T08:16:32.999Z</time></trkpt><trkpt lat="45.81794827630924" lon="9.186823929666275"><ele>820.8</ele><time>2026-04-25T08:16:33.999Z</time></trkpt><trkpt lat="45.817840867867645" lon="9.186803454586848"><ele>817.0</ele><time>2026-04-25T08:16:34.999Z</time></trkpt><trkpt lat="45.817730658709785" lon="9.186783586833673"><ele>816.6</ele><time>2026-04-25T08:16:35.999Z</time></trkpt><trkpt lat="45.81761819518002" lon="9.186760689765544"><ele>816.2</ele><time>2026-04-25T08:16:37Z</time></trkpt><trkpt lat="45.81750344577058" lon="9.186740186015138"><ele>815.8</ele><time>2026-04-25T08:16:38Z</time></trkpt><trkpt lat="45.81739577993013" lon="9.186720296673787"><ele>815.4</ele><time>2026-04-25T08:16:39Z</time></trkpt><trkpt lat="45.81729647029478" lon="9.186699912913982"><ele>815.0</ele><time>2026-04-25T08:16:40Z</time></trkpt><trkpt lat="45.81720955658528" lon="9.186682699256837"><ele>815.0000000000001</ele><time>2026-04-25T08:16:41Z</time></trkpt><trkpt lat="45.8171324013931" lon="9.186668246657112"><ele>815.0</ele><time>2026-04-25T08:16:42Z</time></trkpt><trkpt lat="45.81705448188055" lon="9.186653516372632"><ele>815.0</ele><time>2026-04-25T08:16:43Z</time></trkpt><trkpt lat="45.81696691263675" lon="9.186628999440686"><ele>815.0</ele><time>2026-04-25T08:16:44Z</time></trkpt><trkpt lat="45.8168770440742" lon="9.186589831945135"><ele>815.0000000000001</ele><time>2026-04-25T08:16:45Z</time></trkpt><trkpt lat="45.816789979083744" lon="9.186541793344173"><ele>815.0</ele><time>2026-04-25T08:16:46Z</time></trkpt><trkpt lat="45.81671191106159" lon="9.186496018964512"><ele>813.7142857142857</ele><time>2026-04-25T08:16:47Z</time></trkpt><trkpt lat="45.81663813243346" lon="9.186470485144675"><ele>812.4285714285713</ele><time>2026-04-25T08:16:48Z</time></trkpt><trkpt lat="45.81657350799741" lon="9.186477804649824"><ele>811.1428571428571</ele><time>2026-04-25T08:16:49Z</time></trkpt><trkpt lat="45.81652019786565" lon="9.186529570377855"><ele>809.8571428571429</ele><time>2026-04-25T08:16:50Z</time></trkpt><trkpt lat="45.81648918900611" lon="9.18661848523763"><ele>808.5714285714286</ele><time>2026-04-25T08:16:51Z</time></trkpt><trkpt lat="45.81649137256085" lon="9.186725105476466"><ele>807.2857142857143</ele><time>2026-04-25T08:16:52Z</time></trkpt><trkpt lat="45.81651899296933" lon="9.186836174018945"><ele>806.0</ele><time>2026-04-25T08:16:53Z</time></trkpt><trkpt lat="45.816562523871475" lon="9.186942371930092"><ele>806.0</ele><time>2026-04-25T08:16:54Z</time></trkpt><trkpt lat="45.8166121606944" lon="9.187050218942824"><ele>806.0</ele><time>2026-04-25T08:16:55Z</time></trkpt><trkpt lat="45.81665876928121" lon="9.187172598874648"><ele>806.0</ele><time>2026-04-25T08:16:56Z</time></trkpt><trkpt lat="45.816701981472896" lon="9.187302544460726"><ele>806.0</ele><time>2026-04-25T08:16:57Z</time></trkpt><trkpt lat="45.81674587265342" lon="9.187422744519916"><ele>806.0</ele><time>2026-04-25T08:16:58Z</time></trkpt><trkpt lat="45.816785446334904" lon="9.187524238222723"><ele>805.5999999999999</ele><time>2026-04-25T08:16:59Z</time></trkpt><trkpt lat="45.81681915272295" lon="9.187614750200385"><ele>805.2</ele><time>2026-04-25T08:17:00Z</time></trkpt><trkpt lat="45.81684024380755" lon="9.187772310587945"><ele>804.8</ele><time>2026-04-25T08:17:02Z</time></trkpt><trkpt lat="45.816755783436584" lon="9.18787301055129"><ele>804.4000000000001</ele><time>2026-04-25T08:17:04Z</time></trkpt><trkpt lat="45.81664302034432" lon="9.187817084112273"><ele>804.0</ele><time>2026-04-25T08:17:06Z</time></trkpt><trkpt lat="45.816602646087276" lon="9.187732111427774"><ele>804.0</ele><time>2026-04-25T08:17:07Z</time></trkpt><trkpt lat="45.81657917734779" lon="9.187635329849394"><ele>804.0</ele><time>2026-04-25T08:17:08Z</time></trkpt><trkpt lat="45.816550470545984" lon="9.187542527288425"><ele>804.0</ele><time>2026-04-25T08:17:09Z</time></trkpt><trkpt lat="45.816508097291596" lon="9.187451900644195"><ele>804.0</ele><time>2026-04-25T08:17:10Z</time></trkpt><trkpt lat="45.81645456169076" lon="9.187363232413725"><ele>804.0</ele><time>2026-04-25T08:17:11Z</time></trkpt><trkpt lat="45.81638836576773" lon="9.187278116942574"><ele>804.0</ele><time>2026-04-25T08:17:12Z</time></trkpt><trkpt lat="45.816304847364" lon="9.18721063782035"><ele>804.4000000000001</ele><time>2026-04-25T08:17:13Z</time></trkpt><trkpt lat="45.81621780753893" lon="9.187142427801978"><ele>804.8</ele><time>2026-04-25T08:17:14Z</time></trkpt><trkpt lat="45.816136004277126" lon="9.187062162810115"><ele>805.2</ele><time>2026-04-25T08:17:15Z</time></trkpt><trkpt lat="45.81605291173877" lon="9.186983763783248"><ele>805.5999999999999</ele><time>2026-04-25T08:17:16Z</time></trkpt><trkpt lat="45.815971711729794" lon="9.18690736768334"><ele>806.0</ele><time>2026-04-25T08:17:17Z</time></trkpt><trkpt lat="45.81588869013829" lon="9.18684214506515"><ele>804.0</ele><time>2026-04-25T08:17:18Z</time></trkpt><trkpt lat="45.815811688004" lon="9.186785161941296"><ele>802.0</ele><time>2026-04-25T08:17:19Z</time></trkpt><trkpt lat="45.81574793428831" lon="9.18673761522796"><ele>800.0</ele><time>2026-04-25T08:17:20Z</time></trkpt><trkpt lat="45.815679073342395" lon="9.186709093054782"><ele>798.0</ele><time>2026-04-25T08:17:21Z</time></trkpt><trkpt lat="45.815611116085385" lon="9.186697155609453"><ele>796.0</ele><time>2026-04-25T08:17:22Z</time></trkpt><trkpt lat="45.81553469900324" lon="9.186695427541174"><ele>794.0</ele><time>2026-04-25T08:17:23Z</time></trkpt><trkpt lat="45.815473118063096" lon="9.186741229438962"><ele>792.0</ele><time>2026-04-25T08:17:24Z</time></trkpt><trkpt lat="45.8153729828458" lon="9.186757363929619"><ele>792.0</ele><time>2026-04-25T08:17:25Z</time></trkpt><trkpt lat="45.81527320292047" lon="9.186807601792047"><ele>792.0</ele><time>2026-04-25T08:17:26Z</time></trkpt><trkpt lat="45.81516678673535" lon="9.186849359150903"><ele>792.0</ele><time>2026-04-25T08:17:27Z</time></trkpt><trkpt lat="45.81506248414418" lon="9.186887396838111"><ele>792.0</ele><time>2026-04-25T08:17:28Z</time></trkpt><trkpt lat="45.81496270369661" lon="9.18692565597692"><ele>792.0</ele><time>2026-04-25T08:17:29Z</time></trkpt><trkpt lat="45.8148733730414" lon="9.186960785919574"><ele>789.6666666666666</ele><time>2026-04-25T08:17:30Z</time></trkpt><trkpt lat="45.81479529333489" lon="9.186988742805603"><ele>787.3333333333333</ele><time>2026-04-25T08:17:31Z</time></trkpt><trkpt lat="45.81472217810057" lon="9.187020031053907"><ele>785.0</ele><time>2026-04-25T08:17:32Z</time></trkpt><trkpt lat="45.81464821127447" lon="9.187036361649845"><ele>782.6666666666666</ele><time>2026-04-25T08:17:33Z</time></trkpt><trkpt lat="45.81456468373899" lon="9.187045418747058"><ele>780.3333333333333</ele><time>2026-04-25T08:17:34Z</time></trkpt><trkpt lat="45.81447364125569" lon="9.187034027576289"><ele>778.0</ele><time>2026-04-25T08:17:35Z</time></trkpt><trkpt lat="45.81438540075541" lon="9.18699386614439"><ele>776.2</ele><time>2026-04-25T08:17:36Z</time></trkpt><trkpt lat="45.814294299968516" lon="9.186931522059847"><ele>774.4</ele><time>2026-04-25T08:17:37Z</time></trkpt><trkpt lat="45.814187140073486" lon="9.186929647129176"><ele>772.6</ele><time>2026-04-25T08:17:38Z</time></trkpt><trkpt lat="45.814127502888965" lon="9.186837535307008"><ele>770.8000000000001</ele><time>2026-04-25T08:17:39Z</time></trkpt><trkpt lat="45.81405658164427" lon="9.186822566736252"><ele>769.0</ele><time>2026-04-25T08:17:40Z</time></trkpt><trkpt lat="45.81396914466819" lon="9.186831992142437"><ele>769.0</ele><time>2026-04-25T08:17:41Z</time></trkpt><trkpt lat="45.813887931556685" lon="9.186846195053628"><ele>769.0</ele><time>2026-04-25T08:17:42Z</time></trkpt><trkpt lat="45.81381810435234" lon="9.186874322312224"><ele>769.0</ele><time>2026-04-25T08:17:43Z</time></trkpt><trkpt lat="45.81374405208838" lon="9.186887327550211"><ele>769.0</ele><time>2026-04-25T08:17:44Z</time></trkpt><trkpt lat="45.813670577624016" lon="9.18687788068876"><ele>769.0</ele><time>2026-04-25T08:17:45Z</time></trkpt><trkpt lat="45.81360526013428" lon="9.186848399588921"><ele>769.0</ele><time>2026-04-25T08:17:46Z</time></trkpt><trkpt lat="45.81354460602423" lon="9.186809226162184"><ele>769.0</ele><time>2026-04-25T08:17:47Z</time></trkpt><trkpt lat="45.813438366631715" lon="9.1866978823851"><ele>766.9999999999999</ele><time>2026-04-25T08:17:49Z</time></trkpt><trkpt lat="45.8133897274238" lon="9.186614735883657"><ele>765.0</ele><time>2026-04-25T08:17:50Z</time></trkpt><trkpt lat="45.81335056682543" lon="9.18651806354794"><ele>763.0</ele><time>2026-04-25T08:17:51Z</time></trkpt><trkpt lat="45.813326556629455" lon="9.186415417180125"><ele>761.0</ele><time>2026-04-25T08:17:52Z</time></trkpt><trkpt lat="45.81330603792945" lon="9.186308828685979"><ele>759.0</ele><time>2026-04-25T08:17:53Z</time></trkpt><trkpt lat="45.81330045443199" lon="9.186216038590592"><ele>757.0</ele><time>2026-04-25T08:17:54Z</time></trkpt><trkpt lat="45.81333128372752" lon="9.186051190554084"><ele>756.6666666666667</ele><time>2026-04-25T08:17:56Z</time></trkpt><trkpt lat="45.81335361148465" lon="9.185962776611138"><ele>756.3333333333334</ele><time>2026-04-25T08:17:57Z</time></trkpt><trkpt lat="45.813383028601976" lon="9.185866524353909"><ele>756.0</ele><time>2026-04-25T08:17:58Z</time></trkpt><trkpt lat="45.8134154432628" lon="9.18578410200697"><ele>755.6666666666666</ele><time>2026-04-25T08:17:58.999Z</time></trkpt><trkpt lat="45.8134044106909" lon="9.185615773070515"><ele>755.3333333333333</ele><time>2026-04-25T08:18:00.999Z</time></trkpt><trkpt lat="45.81329628270243" lon="9.185527200153844"><ele>755.0</ele><time>2026-04-25T08:18:02.999Z</time></trkpt><trkpt lat="45.81322946625319" lon="9.185550206076387"><ele>755.0</ele><time>2026-04-25T08:18:03.999Z</time></trkpt><trkpt lat="45.81316997046322" lon="9.185607760037477"><ele>755.0</ele><time>2026-04-25T08:18:04.999Z</time></trkpt><trkpt lat="45.81312485665155" lon="9.18568167362603"><ele>755.0</ele><time>2026-04-25T08:18:05.999Z</time></trkpt><trkpt lat="45.81308383075839" lon="9.185767838326777"><ele>755.0</ele><time>2026-04-25T08:18:06.999Z</time></trkpt><trkpt lat="45.81303931315747" lon="9.185860525968646"><ele>755.0</ele><time>2026-04-25T08:18:07.999Z</time></trkpt><trkpt lat="45.81298437589652" lon="9.185952542139388"><ele>755.0</ele><time>2026-04-25T08:18:08.999Z</time></trkpt><trkpt lat="45.81292853797494" lon="9.186052490545368"><ele>755.0</ele><time>2026-04-25T08:18:09.999Z</time></trkpt><trkpt lat="45.812872285061104" lon="9.186159617726942"><ele>755.0</ele><time>2026-04-25T08:18:10.999Z</time></trkpt><trkpt lat="45.81281437605024" lon="9.186267658639421"><ele>755.0</ele><time>2026-04-25T08:18:11.999Z</time></trkpt><trkpt lat="45.81274812459788" lon="9.186377813947294"><ele>755.0</ele><time>2026-04-25T08:18:12.999Z</time></trkpt><trkpt lat="45.812687785648826" lon="9.186495211052213"><ele>755.0</ele><time>2026-04-25T08:18:13.999Z</time></trkpt><trkpt lat="45.8126304926151" lon="9.186626045927222"><ele>751.6</ele><time>2026-04-25T08:18:14.999Z</time></trkpt><trkpt lat="45.81257845092227" lon="9.18676081959749"><ele>748.2</ele><time>2026-04-25T08:18:15.999Z</time></trkpt><trkpt lat="45.81252831160686" lon="9.18689232374093"><ele>744.8</ele><time>2026-04-25T08:18:16.999Z</time></trkpt><trkpt lat="45.81248518682486" lon="9.18701558055453"><ele>741.4</ele><time>2026-04-25T08:18:17.999Z</time></trkpt><trkpt lat="45.81244522261279" lon="9.18713109941609"><ele>738.0</ele><time>2026-04-25T08:18:18.999Z</time></trkpt><trkpt lat="45.81241277919667" lon="9.187234188606224"><ele>738.0</ele><time>2026-04-25T08:18:19.999Z</time></trkpt><trkpt lat="45.81239753346828" lon="9.187343624493241"><ele>738.0</ele><time>2026-04-25T08:18:20.999Z</time></trkpt><trkpt lat="45.81239524493299" lon="9.187450823466829"><ele>738.0</ele><time>2026-04-25T08:18:21.999Z</time></trkpt><trkpt lat="45.81239908874199" lon="9.187542789303986"><ele>738.0</ele><time>2026-04-25T08:18:22.999Z</time></trkpt><trkpt lat="45.8124127483943" lon="9.187631134149845"><ele>738.0</ele><time>2026-04-25T08:18:23.999Z</time></trkpt><trkpt lat="45.812450178267476" lon="9.187719076214137"><ele>738.0</ele><time>2026-04-25T08:18:24.999Z</time></trkpt><trkpt lat="45.8124945010337" lon="9.187803102565343"><ele>738.0</ele><time>2026-04-25T08:18:25.999Z</time></trkpt><trkpt lat="45.81252621387012" lon="9.187951870490624"><ele>737.8333333333334</ele><time>2026-04-25T08:18:27.999Z</time></trkpt><trkpt lat="45.81246261053464" lon="9.188071436689343"><ele>737.6666666666666</ele><time>2026-04-25T08:18:29.999Z</time></trkpt><trkpt lat="45.81234810189737" lon="9.188058310142607"><ele>737.5</ele><time>2026-04-25T08:18:31.999Z</time></trkpt><trkpt lat="45.812305929854844" lon="9.187984462092912"><ele>737.3333333333333</ele><time>2026-04-25T08:18:32.999Z</time></trkpt><trkpt lat="45.812283209855636" lon="9.187888483423542"><ele>737.1666666666666</ele><time>2026-04-25T08:18:33.999Z</time></trkpt><trkpt lat="45.812268697138364" lon="9.187786790158121"><ele>737.0</ele><time>2026-04-25T08:18:34.999Z</time></trkpt><trkpt lat="45.81225100842402" lon="9.187679239595747"><ele>737.0</ele><time>2026-04-25T08:18:35.999Z</time></trkpt><trkpt lat="45.81222964944764" lon="9.187565124909412"><ele>737.0</ele><time>2026-04-25T08:18:36.999Z</time></trkpt><trkpt lat="45.81220268114636" lon="9.187445891764252"><ele>737.0</ele><time>2026-04-25T08:18:37.999Z</time></trkpt><trkpt lat="45.812181357989886" lon="9.187316098803588"><ele>737.0</ele><time>2026-04-25T08:18:38.999Z</time></trkpt><trkpt lat="45.81216132303745" lon="9.187183213771416"><ele>737.0</ele><time>2026-04-25T08:18:39.999Z</time></trkpt><trkpt lat="45.81215434526017" lon="9.187048137215"><ele>737.2</ele><time>2026-04-25T08:18:40.999Z</time></trkpt><trkpt lat="45.81215518804494" lon="9.186908228234342"><ele>737.4000000000001</ele><time>2026-04-25T08:18:41.999Z</time></trkpt><trkpt lat="45.81217238815915" lon="9.186764640997133"><ele>737.5999999999999</ele><time>2026-04-25T08:18:43Z</time></trkpt><trkpt lat="45.81219069713585" lon="9.186623757635541"><ele>737.8</ele><time>2026-04-25T08:18:44Z</time></trkpt><trkpt lat="45.812203452413705" lon="9.186489041624846"><ele>738.0</ele><time>2026-04-25T08:18:45Z</time></trkpt><trkpt lat="45.8122100913461" lon="9.186349828425596"><ele>736.8</ele><time>2026-04-25T08:18:46Z</time></trkpt><trkpt lat="45.81221745894767" lon="9.186205602609565"><ele>735.5999999999999</ele><time>2026-04-25T08:18:47Z</time></trkpt><trkpt lat="45.81222403379741" lon="9.186056440025414"><ele>734.4000000000001</ele><time>2026-04-25T08:18:48Z</time></trkpt><trkpt lat="45.812228910012536" lon="9.185911937638789"><ele>733.2</ele><time>2026-04-25T08:18:49Z</time></trkpt><trkpt lat="45.812232311840255" lon="9.185776450268898"><ele>732.0</ele><time>2026-04-25T08:18:50Z</time></trkpt><trkpt lat="45.812238820408254" lon="9.185639573898229"><ele>729.8333333333334</ele><time>2026-04-25T08:18:51Z</time></trkpt><trkpt lat="45.81223967589839" lon="9.185500641999122"><ele>727.6666666666666</ele><time>2026-04-25T08:18:52Z</time></trkpt><trkpt lat="45.812245793258555" lon="9.18536611973206"><ele>725.5</ele><time>2026-04-25T08:18:53Z</time></trkpt><trkpt lat="45.812251663294845" lon="9.185240067556471"><ele>723.3333333333333</ele><time>2026-04-25T08:18:54Z</time></trkpt><trkpt lat="45.81226035891885" lon="9.18512102485529"><ele>721.1666666666666</ele><time>2026-04-25T08:18:55Z</time></trkpt><trkpt lat="45.81226797176753" lon="9.185010724665544"><ele>719.0</ele><time>2026-04-25T08:18:56Z</time></trkpt><trkpt lat="45.81227904313319" lon="9.184902501439737"><ele>717.1666666666666</ele><time>2026-04-25T08:18:57Z</time></trkpt><trkpt lat="45.812298655896385" lon="9.18480571997409"><ele>715.3333333333333</ele><time>2026-04-25T08:18:58Z</time></trkpt><trkpt lat="45.81233466187302" lon="9.18471602946693"><ele>713.5</ele><time>2026-04-25T08:18:59Z</time></trkpt><trkpt lat="45.81237403239064" lon="9.184643997707107"><ele>711.6666666666666</ele><time>2026-04-25T08:19:00Z</time></trkpt><trkpt lat="45.81237142501944" lon="9.184489604761946"><ele>709.8333333333334</ele><time>2026-04-25T08:19:02Z</time></trkpt><trkpt lat="45.81228383203936" lon="9.184404191253893"><ele>708.0</ele><time>2026-04-25T08:19:04Z</time></trkpt><trkpt lat="45.81216871595614" lon="9.184474140354258"><ele>708.0</ele><time>2026-04-25T08:19:06Z</time></trkpt><trkpt lat="45.81212735517862" lon="9.184554729367703"><ele>708.0</ele><time>2026-04-25T08:19:07Z</time></trkpt><trkpt lat="45.812092057430284" lon="9.184646203101561"><ele>708.0</ele><time>2026-04-25T08:19:08Z</time></trkpt><trkpt lat="45.81205353297157" lon="9.184736971787862"><ele>708.0</ele><time>2026-04-25T08:19:09Z</time></trkpt><trkpt lat="45.81202104201671" lon="9.18483365281761"><ele>708.0</ele><time>2026-04-25T08:19:10Z</time></trkpt><trkpt lat="45.81199323647409" lon="9.1849272856864"><ele>708.0</ele><time>2026-04-25T08:19:11Z</time></trkpt><trkpt lat="45.811967587455435" lon="9.18503268908385"><ele>708.0</ele><time>2026-04-25T08:19:12Z</time></trkpt><trkpt lat="45.811943236632274" lon="9.185149273011207"><ele>710.2</ele><time>2026-04-25T08:19:13Z</time></trkpt><trkpt lat="45.81191561050112" lon="9.185268473188387"><ele>712.4</ele><time>2026-04-25T08:19:14Z</time></trkpt><trkpt lat="45.81188054790028" lon="9.185384596676313"><ele>714.6</ele><time>2026-04-25T08:19:15Z</time></trkpt><trkpt lat="45.811850483621804" lon="9.18550844785171"><ele>716.8000000000001</ele><time>2026-04-25T08:19:16Z</time></trkpt><trkpt lat="45.81181971266046" lon="9.1856378485928"><ele>719.0</ele><time>2026-04-25T08:19:17Z</time></trkpt><trkpt lat="45.811785067572615" lon="9.18577595101415"><ele>714.4000000000001</ele><time>2026-04-25T08:19:18Z</time></trkpt><trkpt lat="45.8117443052254" lon="9.18592199499752"><ele>709.8</ele><time>2026-04-25T08:19:19Z</time></trkpt><trkpt lat="45.81170451589125" lon="9.186066867704191"><ele>705.2</ele><time>2026-04-25T08:19:20Z</time></trkpt><trkpt lat="45.811674355900614" lon="9.186192185450942"><ele>700.5999999999999</ele><time>2026-04-25T08:19:21Z</time></trkpt><trkpt lat="45.81164399739761" lon="9.186293511650383"><ele>696.0</ele><time>2026-04-25T08:19:22Z</time></trkpt><trkpt lat="45.81160831453543" lon="9.186381330099112"><ele>696.0</ele><time>2026-04-25T08:19:23Z</time></trkpt><trkpt lat="45.81156453966416" lon="9.186467440262808"><ele>696.0</ele><time>2026-04-25T08:19:24Z</time></trkpt><trkpt lat="45.81151587218712" lon="9.18655388499868"><ele>696.0</ele><time>2026-04-25T08:19:25Z</time></trkpt><trkpt lat="45.81146379928991" lon="9.186654102508589"><ele>696.0</ele><time>2026-04-25T08:19:26Z</time></trkpt><trkpt lat="45.81142210995415" lon="9.186769952594965"><ele>696.0</ele><time>2026-04-25T08:19:27Z</time></trkpt><trkpt lat="45.811392974551254" lon="9.186895644210018"><ele>696.0</ele><time>2026-04-25T08:19:28Z</time></trkpt><trkpt lat="45.81137409223489" lon="9.187018424551585"><ele>696.6666666666666</ele><time>2026-04-25T08:19:29Z</time></trkpt><trkpt lat="45.81136520536431" lon="9.187132897099985"><ele>697.3333333333334</ele><time>2026-04-25T08:19:30Z</time></trkpt><trkpt lat="45.8113655634352" lon="9.187229758183223"><ele>698.0</ele><time>2026-04-25T08:19:31Z</time></trkpt><trkpt lat="45.81136010463621" lon="9.187368087619031"><ele>698.6666666666667</ele><time>2026-04-25T08:19:33Z</time></trkpt><trkpt lat="45.81128773084833" lon="9.18741096726812"><ele>699.3333333333334</ele><time>2026-04-25T08:19:35Z</time></trkpt><trkpt lat="45.81123143187729" lon="9.187297298975734"><ele>700.0</ele><time>2026-04-25T08:19:37Z</time></trkpt><trkpt lat="45.811261209325515" lon="9.187119554642388"><ele>700.0</ele><time>2026-04-25T08:19:39Z</time></trkpt><trkpt lat="45.811274859639994" lon="9.187021457446193"><ele>700.0</ele><time>2026-04-25T08:19:40Z</time></trkpt><trkpt lat="45.81127905092599" lon="9.186914702603028"><ele>700.0</ele><time>2026-04-25T08:19:41Z</time></trkpt><trkpt lat="45.81127285666223" lon="9.186795103393981"><ele>700.0</ele><time>2026-04-25T08:19:42Z</time></trkpt><trkpt lat="45.81126005225434" lon="9.186662379603582"><ele>700.0</ele><time>2026-04-25T08:19:43Z</time></trkpt><trkpt lat="45.81124487482899" lon="9.186519125946425"><ele>700.0</ele><time>2026-04-25T08:19:44Z</time></trkpt><trkpt lat="45.81122803924498" lon="9.186369714691475"><ele>699.3333333333334</ele><time>2026-04-25T08:19:45Z</time></trkpt><trkpt lat="45.81120544105606" lon="9.186226567604962"><ele>698.6666666666667</ele><time>2026-04-25T08:19:46Z</time></trkpt><trkpt lat="45.81118145281839" lon="9.18610551158925"><ele>698.0</ele><time>2026-04-25T08:19:47Z</time></trkpt><trkpt lat="45.81115516218312" lon="9.185997147864247"><ele>697.3333333333334</ele><time>2026-04-25T08:19:48Z</time></trkpt><trkpt lat="45.811131335394684" lon="9.185903162188565"><ele>696.6666666666666</ele><time>2026-04-25T08:19:49Z</time></trkpt><trkpt lat="45.81110527423618" lon="9.185807686751373"><ele>696.0</ele><time>2026-04-25T08:19:50Z</time></trkpt><trkpt lat="45.811079014934755" lon="9.18570870616668"><ele>695.1999999999999</ele><time>2026-04-25T08:19:51Z</time></trkpt><trkpt lat="45.81104784836184" lon="9.185596820745962"><ele>694.4</ele><time>2026-04-25T08:19:52Z</time></trkpt><trkpt lat="45.81102257956836" lon="9.185482855494465"><ele>693.6</ele><time>2026-04-25T08:19:53Z</time></trkpt><trkpt lat="45.81098733241522" lon="9.185358455937987"><ele>692.8</ele><time>2026-04-25T08:19:54Z</time></trkpt><trkpt lat="45.81095310991681" lon="9.185237354820151"><ele>692.0</ele><time>2026-04-25T08:19:55Z</time></trkpt><trkpt lat="45.81090880487772" lon="9.18511005810505"><ele>686.8</ele><time>2026-04-25T08:19:56Z</time></trkpt><trkpt lat="45.81085368223829" lon="9.184976799077864"><ele>681.6</ele><time>2026-04-25T08:19:57Z</time></trkpt><trkpt lat="45.81079534331625" lon="9.184840594833979"><ele>676.4</ele><time>2026-04-25T08:19:58Z</time></trkpt><trkpt lat="45.81073721504837" lon="9.184709779181915"><ele>671.1999999999999</ele><time>2026-04-25T08:19:59Z</time></trkpt><trkpt lat="45.81067927108042" lon="9.184591575657384"><ele>666.0</ele><time>2026-04-25T08:20:00Z</time></trkpt><trkpt lat="45.81062349068117" lon="9.18447444206836"><ele>666.0</ele><time>2026-04-25T08:20:01Z</time></trkpt><trkpt lat="45.810570356637236" lon="9.184362998492693"><ele>666.0</ele><time>2026-04-25T08:20:02Z</time></trkpt><trkpt lat="45.810523904900876" lon="9.184252639052195"><ele>666.0</ele><time>2026-04-25T08:20:03Z</time></trkpt><trkpt lat="45.810477907498644" lon="9.184156187017901"><ele>666.0</ele><time>2026-04-25T08:20:04Z</time></trkpt><trkpt lat="45.8103941199918" lon="9.184014810151265"><ele>666.0</ele><time>2026-04-25T08:20:06Z</time></trkpt><trkpt lat="45.81036134055644" lon="9.183898585039584"><ele>665.6666666666666</ele><time>2026-04-25T08:20:07Z</time></trkpt><trkpt lat="45.81030792301299" lon="9.183828169925995"><ele>665.3333333333334</ele><time>2026-04-25T08:20:07.999Z</time></trkpt><trkpt lat="45.81023661995889" lon="9.183768475777653"><ele>665.0</ele><time>2026-04-25T08:20:08.999Z</time></trkpt><trkpt lat="45.81016081630509" lon="9.183716447549353"><ele>664.6666666666667</ele><time>2026-04-25T08:20:09.999Z</time></trkpt><trkpt lat="45.81008973532179" lon="9.183645460524701"><ele>664.3333333333334</ele><time>2026-04-25T08:20:10.999Z</time></trkpt><trkpt lat="45.810027928643976" lon="9.18354738313033"><ele>664.0</ele><time>2026-04-25T08:20:11.999Z</time></trkpt><trkpt lat="45.80996268247617" lon="9.183446369389214"><ele>661.2</ele><time>2026-04-25T08:20:12.999Z</time></trkpt><trkpt lat="45.809892604594694" lon="9.1833423526813"><ele>658.4000000000001</ele><time>2026-04-25T08:20:13.999Z</time></trkpt><trkpt lat="45.809825318169125" lon="9.183259492448688"><ele>655.6</ele><time>2026-04-25T08:20:14.999Z</time></trkpt><trkpt lat="45.80974979829645" lon="9.183188109393967"><ele>652.8</ele><time>2026-04-25T08:20:15.999Z</time></trkpt><trkpt lat="45.80966193387345" lon="9.183133463095375"><ele>650.0</ele><time>2026-04-25T08:20:16.999Z</time></trkpt><trkpt lat="45.80957236256542" lon="9.183093799521648"><ele>649.0</ele><time>2026-04-25T08:20:17.999Z</time></trkpt><trkpt lat="45.809480810481254" lon="9.183073162263286"><ele>648.0</ele><time>2026-04-25T08:20:18.999Z</time></trkpt><trkpt lat="45.80939394503139" lon="9.183067922178116"><ele>647.0</ele><time>2026-04-25T08:20:19.999Z</time></trkpt><trkpt lat="45.80931199250027" lon="9.18303474516271"><ele>646.0</ele><time>2026-04-25T08:20:20.999Z</time></trkpt><trkpt lat="45.80923679085657" lon="9.183046293626152"><ele>645.0</ele><time>2026-04-25T08:20:21.999Z</time></trkpt><trkpt lat="45.80915939342247" lon="9.18305563333401"><ele>644.0</ele><time>2026-04-25T08:20:22.999Z</time></trkpt><trkpt lat="45.80908774659232" lon="9.18305961831438"><ele>644.0</ele><time>2026-04-25T08:20:23.999Z</time></trkpt><trkpt lat="45.80901691395861" lon="9.183052547165822"><ele>644.0</ele><time>2026-04-25T08:20:24.999Z</time></trkpt><trkpt lat="45.808937411978945" lon="9.183034184376528"><ele>644.0</ele><time>2026-04-25T08:20:25.999Z</time></trkpt><trkpt lat="45.808855915402695" lon="9.183005040181804"><ele>644.0</ele><time>2026-04-25T08:20:26.999Z</time></trkpt><trkpt lat="45.808769493639694" lon="9.182966804568117"><ele>644.0</ele><time>2026-04-25T08:20:27.999Z</time></trkpt><trkpt lat="45.808678824896475" lon="9.182927052771964"><ele>644.0</ele><time>2026-04-25T08:20:28.999Z</time></trkpt><trkpt lat="45.808587485030635" lon="9.18289045587849"><ele>644.0</ele><time>2026-04-25T08:20:29.999Z</time></trkpt><trkpt lat="45.808494134024755" lon="9.182854155874445"><ele>644.0</ele><time>2026-04-25T08:20:30.999Z</time></trkpt><trkpt lat="45.808401863222755" lon="9.182818269289381"><ele>644.0</ele><time>2026-04-25T08:20:31.999Z</time></trkpt><trkpt lat="45.8083065176633" lon="9.182780915031909"><ele>644.0</ele><time>2026-04-25T08:20:32.999Z</time></trkpt><trkpt lat="45.808212878712716" lon="9.18274366618902"><ele>644.0</ele><time>2026-04-25T08:20:33.999Z</time></trkpt><trkpt lat="45.80812102142594" lon="9.182706043502272"><ele>641.4000000000001</ele><time>2026-04-25T08:20:34.999Z</time></trkpt><trkpt lat="45.80802784214611" lon="9.1826679915626"><ele>638.8000000000001</ele><time>2026-04-25T08:20:35.999Z</time></trkpt><trkpt lat="45.80792866433855" lon="9.182625921697399"><ele>636.2</ele><time>2026-04-25T08:20:36.999Z</time></trkpt><trkpt lat="45.80783553667948" lon="9.182607133757456"><ele>633.6</ele><time>2026-04-25T08:20:37.999Z</time></trkpt><trkpt lat="45.80769823286707" lon="9.182556216699073"><ele>631.0</ele><time>2026-04-25T08:20:39.999Z</time></trkpt><trkpt lat="45.80762515190223" lon="9.182501283214968"><ele>629.6666666666667</ele><time>2026-04-25T08:20:40.999Z</time></trkpt><trkpt lat="45.80756105513993" lon="9.18244403072461"><ele>628.3333333333334</ele><time>2026-04-25T08:20:41.999Z</time></trkpt><trkpt lat="45.80750397701282" lon="9.18237709890875"><ele>627.0</ele><time>2026-04-25T08:20:42.999Z</time></trkpt><trkpt lat="45.80747647695309" lon="9.182282447023013"><ele>625.6666666666666</ele><time>2026-04-25T08:20:43.999Z</time></trkpt><trkpt lat="45.80744544215356" lon="9.18218907209488"><ele>624.3333333333333</ele><time>2026-04-25T08:20:44.999Z</time></trkpt><trkpt lat="45.807414895289625" lon="9.182072570209687"><ele>623.0</ele><time>2026-04-25T08:20:45.999Z</time></trkpt><trkpt lat="45.807383474955586" lon="9.181960278270779"><ele>623.0</ele><time>2026-04-25T08:20:46.999Z</time></trkpt><trkpt lat="45.80735537544612" lon="9.181836967076093"><ele>623.0</ele><time>2026-04-25T08:20:48Z</time></trkpt><trkpt lat="45.807328341712456" lon="9.181694924436124"><ele>623.0</ele><time>2026-04-25T08:20:49Z</time></trkpt><trkpt lat="45.80730185058347" lon="9.181549866397873"><ele>623.0</ele><time>2026-04-25T08:20:50Z</time></trkpt><trkpt lat="45.80727039407914" lon="9.18141034603883"><ele>623.0</ele><time>2026-04-25T08:20:51Z</time></trkpt><trkpt lat="45.807215919772254" lon="9.181277622471825"><ele>622.6</ele><time>2026-04-25T08:20:52Z</time></trkpt><trkpt lat="45.8071814305845" lon="9.181148662900831"><ele>622.1999999999999</ele><time>2026-04-25T08:20:53Z</time></trkpt><trkpt lat="45.80713793804657" lon="9.18102569413434"><ele>621.8</ele><time>2026-04-25T08:20:54Z</time></trkpt><trkpt lat="45.80709456879961" lon="9.18090397897394"><ele>621.4</ele><time>2026-04-25T08:20:55Z</time></trkpt><trkpt lat="45.80707620761169" lon="9.180777569574866"><ele>621.0</ele><time>2026-04-25T08:20:56Z</time></trkpt><trkpt lat="45.807047261001884" lon="9.18067050354186"><ele>620.6666666666666</ele><time>2026-04-25T08:20:57Z</time></trkpt><trkpt lat="45.80702724034965" lon="9.180571745845613"><ele>620.3333333333334</ele><time>2026-04-25T08:20:58Z</time></trkpt><trkpt lat="45.80701629528138" lon="9.180471990834326"><ele>620.0</ele><time>2026-04-25T08:20:59Z</time></trkpt><trkpt lat="45.80702111357247" lon="9.180376111091713"><ele>619.6666666666667</ele><time>2026-04-25T08:21:00Z</time></trkpt><trkpt lat="45.80703802073401" lon="9.180276826485166"><ele>619.3333333333334</ele><time>2026-04-25T08:21:01Z</time></trkpt><trkpt lat="45.80705992002773" lon="9.180167802238335"><ele>619.0</ele><time>2026-04-25T08:21:02Z</time></trkpt><trkpt lat="45.807121437230684" lon="9.180066899902119"><ele>619.0</ele><time>2026-04-25T08:21:03Z</time></trkpt><trkpt lat="45.80717565642761" lon="9.179963611457918"><ele>619.0</ele><time>2026-04-25T08:21:04Z</time></trkpt><trkpt lat="45.807234013935584" lon="9.179857962902418"><ele>619.0</ele><time>2026-04-25T08:21:05Z</time></trkpt><trkpt lat="45.80729245588526" lon="9.179749860181438"><ele>619.0</ele><time>2026-04-25T08:21:06Z</time></trkpt><trkpt lat="45.80734126451956" lon="9.17964050768019"><ele>619.0</ele><time>2026-04-25T08:21:07Z</time></trkpt><trkpt lat="45.807382304618116" lon="9.179531730910313"><ele>618.1666666666667</ele><time>2026-04-25T08:21:08Z</time></trkpt><trkpt lat="45.80741363094588" lon="9.179422119183176"><ele>617.3333333333334</ele><time>2026-04-25T08:21:09Z</time></trkpt><trkpt lat="45.80743044873519" lon="9.179311534806374"><ele>616.5</ele><time>2026-04-25T08:21:10Z</time></trkpt><trkpt lat="45.807425018459334" lon="9.179199484706942"><ele>615.6666666666666</ele><time>2026-04-25T08:21:11Z</time></trkpt><trkpt lat="45.8074241060707" lon="9.179073673121593"><ele>614.8333333333333</ele><time>2026-04-25T08:21:12Z</time></trkpt><trkpt lat="45.80738531331157" lon="9.17893740580644"><ele>614.0</ele><time>2026-04-25T08:21:13Z</time></trkpt><trkpt lat="45.80733616944715" lon="9.178805751395283"><ele>614.0</ele><time>2026-04-25T08:21:14Z</time></trkpt><trkpt lat="45.8072809199937" lon="9.178676018700504"><ele>614.0</ele><time>2026-04-25T08:21:15Z</time></trkpt><trkpt lat="45.80722616722008" lon="9.178560978577043"><ele>614.0</ele><time>2026-04-25T08:21:16Z</time></trkpt><trkpt lat="45.80716748974148" lon="9.178447222347659"><ele>614.0</ele><time>2026-04-25T08:21:17Z</time></trkpt><trkpt lat="45.80709930800808" lon="9.178352581722018"><ele>614.0</ele><time>2026-04-25T08:21:18Z</time></trkpt><trkpt lat="45.80703947948438" lon="9.178252380737081"><ele>615.0</ele><time>2026-04-25T08:21:19Z</time></trkpt><trkpt lat="45.806976249795134" lon="9.178148859337593"><ele>616.0</ele><time>2026-04-25T08:21:20Z</time></trkpt><trkpt lat="45.806889948633156" lon="9.178069737106316"><ele>617.0</ele><time>2026-04-25T08:21:21Z</time></trkpt><trkpt lat="45.80680020408669" lon="9.178007782965498"><ele>618.0</ele><time>2026-04-25T08:21:22Z</time></trkpt><trkpt lat="45.806707149687085" lon="9.177976056706848"><ele>619.0</ele><time>2026-04-25T08:21:23Z</time></trkpt><trkpt lat="45.80661994349417" lon="9.177925307891392"><ele>616.6666666666667</ele><time>2026-04-25T08:21:24Z</time></trkpt><trkpt lat="45.80653634641324" lon="9.177880161383209"><ele>614.3333333333334</ele><time>2026-04-25T08:21:25Z</time></trkpt><trkpt lat="45.80645089097114" lon="9.17782868371295"><ele>612.0</ele><time>2026-04-25T08:21:26Z</time></trkpt><trkpt lat="45.80637509640373" lon="9.177781959671945"><ele>609.6666666666666</ele><time>2026-04-25T08:21:27Z</time></trkpt><trkpt lat="45.8063051884623" lon="9.177752619269322"><ele>607.3333333333333</ele><time>2026-04-25T08:21:28Z</time></trkpt><trkpt lat="45.80623265977128" lon="9.17775192873683"><ele>605.0</ele><time>2026-04-25T08:21:29Z</time></trkpt><trkpt lat="45.806143071619076" lon="9.177750202194154"><ele>605.0</ele><time>2026-04-25T08:21:30Z</time></trkpt><trkpt lat="45.80606293429107" lon="9.177835177457881"><ele>605.0</ele><time>2026-04-25T08:21:31Z</time></trkpt><trkpt lat="45.805998098474944" lon="9.177933285262409"><ele>605.0</ele><time>2026-04-25T08:21:32Z</time></trkpt><trkpt lat="45.80590959291904" lon="9.177971679147516"><ele>605.0</ele><time>2026-04-25T08:21:33Z</time></trkpt><trkpt lat="45.80583118549633" lon="9.178024927165755"><ele>605.0</ele><time>2026-04-25T08:21:34Z</time></trkpt><trkpt lat="45.805759994131826" lon="9.178063566335613"><ele>605.0</ele><time>2026-04-25T08:21:35Z</time></trkpt><trkpt lat="45.80568402427503" lon="9.178100230428043"><ele>603.3333333333333</ele><time>2026-04-25T08:21:36Z</time></trkpt><trkpt lat="45.80560284991617" lon="9.178136160937346"><ele>601.6666666666666</ele><time>2026-04-25T08:21:37Z</time></trkpt><trkpt lat="45.805516108493315" lon="9.178171933503593"><ele>600.0</ele><time>2026-04-25T08:21:38Z</time></trkpt><trkpt lat="45.80543374744822" lon="9.178203733098023"><ele>598.3333333333334</ele><time>2026-04-25T08:21:39Z</time></trkpt><trkpt lat="45.80535166729786" lon="9.178233792303217"><ele>596.6666666666667</ele><time>2026-04-25T08:21:40Z</time></trkpt><trkpt lat="45.80526031391357" lon="9.178262224051961"><ele>595.0</ele><time>2026-04-25T08:21:41Z</time></trkpt><trkpt lat="45.805171423576695" lon="9.178288330057178"><ele>591.3333333333334</ele><time>2026-04-25T08:21:42Z</time></trkpt><trkpt lat="45.80508209361014" lon="9.17831001277413"><ele>587.6666666666667</ele><time>2026-04-25T08:21:43Z</time></trkpt><trkpt lat="45.804999011151025" lon="9.178322597718472"><ele>584.0</ele><time>2026-04-25T08:21:44Z</time></trkpt><trkpt lat="45.80491550816991" lon="9.178320301399728"><ele>580.3333333333334</ele><time>2026-04-25T08:21:45Z</time></trkpt><trkpt lat="45.80484818361735" lon="9.178291051129415"><ele>576.6666666666666</ele><time>2026-04-25T08:21:46Z</time></trkpt><trkpt lat="45.804782124473164" lon="9.178258245418204"><ele>573.0</ele><time>2026-04-25T08:21:47Z</time></trkpt><trkpt lat="45.80471454053697" lon="9.178230438811964"><ele>573.0</ele><time>2026-04-25T08:21:48Z</time></trkpt><trkpt lat="45.80459786849837" lon="9.178202037577154"><ele>573.0</ele><time>2026-04-25T08:21:50Z</time></trkpt><trkpt lat="45.804479792385" lon="9.178214550081561"><ele>573.0</ele><time>2026-04-25T08:21:52Z</time></trkpt><trkpt lat="45.804430109901304" lon="9.178275491326453"><ele>573.0</ele><time>2026-04-25T08:21:53Z</time></trkpt><trkpt lat="45.804435844826834" lon="9.178409558015916"><ele>573.0</ele><time>2026-04-25T08:21:54Z</time></trkpt><trkpt lat="45.80447682276971" lon="9.178542461644039"><ele>573.0</ele><time>2026-04-25T08:21:56Z</time></trkpt><trkpt lat="45.8045805003587" lon="9.178576892458526"><ele>573.0</ele><time>2026-04-25T08:21:58Z</time></trkpt><trkpt lat="45.804698066105736" lon="9.178599126953317"><ele>573.0</ele><time>2026-04-25T08:22:00Z</time></trkpt><trkpt lat="45.804827193859936" lon="9.178630822837377"><ele>573.0</ele><time>2026-04-25T08:22:02Z</time></trkpt><trkpt lat="45.80490064624139" lon="9.178642578346063"><ele>573.0</ele><time>2026-04-25T08:22:03Z</time></trkpt><trkpt lat="45.80497278863407" lon="9.178677230822773"><ele>573.0</ele><time>2026-04-25T08:22:04Z</time></trkpt><trkpt lat="45.80505228416155" lon="9.178708750911959"><ele>573.0</ele><time>2026-04-25T08:22:05Z</time></trkpt><trkpt lat="45.805136018439306" lon="9.178752114317355"><ele>573.0</ele><time>2026-04-25T08:22:06Z</time></trkpt><trkpt lat="45.805227137862786" lon="9.178789377394247"><ele>573.0</ele><time>2026-04-25T08:22:07Z</time></trkpt><trkpt lat="45.80531571598731" lon="9.17882163705859"><ele>573.0</ele><time>2026-04-25T08:22:08Z</time></trkpt><trkpt lat="45.80540080266019" lon="9.178828452135948"><ele>573.0</ele><time>2026-04-25T08:22:09Z</time></trkpt><trkpt lat="45.805473709532315" lon="9.178824284252286"><ele>573.4</ele><time>2026-04-25T08:22:10Z</time></trkpt><trkpt lat="45.8055380463869" lon="9.178809277786256"><ele>573.8</ele><time>2026-04-25T08:22:10.999Z</time></trkpt><trkpt lat="45.805643608729234" lon="9.178783409323096"><ele>574.2</ele><time>2026-04-25T08:22:12.999Z</time></trkpt><trkpt lat="45.80570220588909" lon="9.178905864835365"><ele>574.6</ele><time>2026-04-25T08:22:14.999Z</time></trkpt><trkpt lat="45.80565495890539" lon="9.17903969325633"><ele>575.0</ele><time>2026-04-25T08:22:16.999Z</time></trkpt><trkpt lat="45.80553314566984" lon="9.179050089448927"><ele>575.0</ele><time>2026-04-25T08:22:18.999Z</time></trkpt><trkpt lat="45.80540716208944" lon="9.17901661842997"><ele>575.0</ele><time>2026-04-25T08:22:20.999Z</time></trkpt><trkpt lat="45.80533725939924" lon="9.179019818025516"><ele>575.0</ele><time>2026-04-25T08:22:21.999Z</time></trkpt><trkpt lat="45.80525779399454" lon="9.179023904484575"><ele>575.0</ele><time>2026-04-25T08:22:22.999Z</time></trkpt><trkpt lat="45.80517210070804" lon="9.179045918834241"><ele>575.0</ele><time>2026-04-25T08:22:23.999Z</time></trkpt><trkpt lat="45.80507858308757" lon="9.179073898334076"><ele>571.4</ele><time>2026-04-25T08:22:24.999Z</time></trkpt><trkpt lat="45.804984450631366" lon="9.179083848552258"><ele>567.8</ele><time>2026-04-25T08:22:25.999Z</time></trkpt><trkpt lat="45.804891463276974" lon="9.179111822403575"><ele>564.2</ele><time>2026-04-25T08:22:26.999Z</time></trkpt><trkpt lat="45.804802933229276" lon="9.179137444884592"><ele>560.6</ele><time>2026-04-25T08:22:27.999Z</time></trkpt><trkpt lat="45.80471470906773" lon="9.179162978804275"><ele>557.0</ele><time>2026-04-25T08:22:28.999Z</time></trkpt><trkpt lat="45.804620443724154" lon="9.179190401439842"><ele>557.0</ele><time>2026-04-25T08:22:29.999Z</time></trkpt><trkpt lat="45.80453041924736" lon="9.179216747500407"><ele>557.0</ele><time>2026-04-25T08:22:30.999Z</time></trkpt><trkpt lat="45.804441045437166" lon="9.179242114689842"><ele>557.0</ele><time>2026-04-25T08:22:31.999Z</time></trkpt><trkpt lat="45.80434895316696" lon="9.179268253411987"><ele>557.0</ele><time>2026-04-25T08:22:32.999Z</time></trkpt><trkpt lat="45.80426444730577" lon="9.179292170517893"><ele>557.0</ele><time>2026-04-25T08:22:33.999Z</time></trkpt><trkpt lat="45.80417320663607" lon="9.179317755990363"><ele>555.5</ele><time>2026-04-25T08:22:34.999Z</time></trkpt><trkpt lat="45.80407745193643" lon="9.179344607417622"><ele>554.0</ele><time>2026-04-25T08:22:35.999Z</time></trkpt><trkpt lat="45.80399047045583" lon="9.179356343500327"><ele>552.5</ele><time>2026-04-25T08:22:36.999Z</time></trkpt><trkpt lat="45.80390888170794" lon="9.179352843118135"><ele>551.0</ele><time>2026-04-25T08:22:37.999Z</time></trkpt><trkpt lat="45.80383267199411" lon="9.179307183989811"><ele>549.5</ele><time>2026-04-25T08:22:38.999Z</time></trkpt><trkpt lat="45.80375184368705" lon="9.179253539615752"><ele>548.0</ele><time>2026-04-25T08:22:39.999Z</time></trkpt><trkpt lat="45.80366769286033" lon="9.179198957472039"><ele>548.0</ele><time>2026-04-25T08:22:40.999Z</time></trkpt><trkpt lat="45.803588595899775" lon="9.179153162549213"><ele>548.0</ele><time>2026-04-25T08:22:41.999Z</time></trkpt><trkpt lat="45.8035137931082" lon="9.179120220329391"><ele>548.0</ele><time>2026-04-25T08:22:42.999Z</time></trkpt><trkpt lat="45.803424049167084" lon="9.179104148300567"><ele>548.0</ele><time>2026-04-25T08:22:43.999Z</time></trkpt><trkpt lat="45.80331996810477" lon="9.179122954285106"><ele>548.0</ele><time>2026-04-25T08:22:44.999Z</time></trkpt><trkpt lat="45.80321262029604" lon="9.179159606813574"><ele>545.0</ele><time>2026-04-25T08:22:45.999Z</time></trkpt><trkpt lat="45.803123605389814" lon="9.17919907295606"><ele>542.0</ele><time>2026-04-25T08:22:46.999Z</time></trkpt><trkpt lat="45.80304618603206" lon="9.179237248936122"><ele>539.0</ele><time>2026-04-25T08:22:47.999Z</time></trkpt><trkpt lat="45.8029653548484" lon="9.179277648426384"><ele>536.0</ele><time>2026-04-25T08:22:48.999Z</time></trkpt><trkpt lat="45.802882147992975" lon="9.179316753263109"><ele>533.0</ele><time>2026-04-25T08:22:49.999Z</time></trkpt><trkpt lat="45.80278324737596" lon="9.179358209153495"><ele>533.0</ele><time>2026-04-25T08:22:50.999Z</time></trkpt><trkpt lat="45.8026795131189" lon="9.179400904616957"><ele>533.0</ele><time>2026-04-25T08:22:51.999Z</time></trkpt><trkpt lat="45.80257424747029" lon="9.179445137285088"><ele>533.0</ele><time>2026-04-25T08:22:52.999Z</time></trkpt><trkpt lat="45.80248156177656" lon="9.179483166440043"><ele>533.0</ele><time>2026-04-25T08:22:54Z</time></trkpt><trkpt lat="45.8023909116659" lon="9.179519911194387"><ele>533.0</ele><time>2026-04-25T08:22:55Z</time></trkpt><trkpt lat="45.80230949015584" lon="9.179551579449468"><ele>531.3333333333333</ele><time>2026-04-25T08:22:56Z</time></trkpt><trkpt lat="45.80223195259762" lon="9.179582488793885"><ele>529.6666666666666</ele><time>2026-04-25T08:22:57Z</time></trkpt><trkpt lat="45.80215779145098" lon="9.179612536902171"><ele>528.0</ele><time>2026-04-25T08:22:58Z</time></trkpt><trkpt lat="45.802075979225364" lon="9.179645900630248"><ele>526.3333333333334</ele><time>2026-04-25T08:22:59Z</time></trkpt><trkpt lat="45.80199561428527" lon="9.179680295584657"><ele>524.6666666666667</ele><time>2026-04-25T08:23:00Z</time></trkpt><trkpt lat="45.801919444029885" lon="9.179706474602625"><ele>523.0</ele><time>2026-04-25T08:23:01Z</time></trkpt><trkpt lat="45.80184385466693" lon="9.17971914885221"><ele>520.8333333333334</ele><time>2026-04-25T08:23:02Z</time></trkpt><trkpt lat="45.801769961708764" lon="9.179721124098295"><ele>518.6666666666667</ele><time>2026-04-25T08:23:03Z</time></trkpt><trkpt lat="45.801693575958915" lon="9.179715090399924"><ele>516.5</ele><time>2026-04-25T08:23:04Z</time></trkpt><trkpt lat="45.80162936706415" lon="9.179702067535763"><ele>514.3333333333334</ele><time>2026-04-25T08:23:05Z</time></trkpt><trkpt lat="45.801530666613665" lon="9.179667983479705"><ele>512.1666666666666</ele><time>2026-04-25T08:23:07Z</time></trkpt><trkpt lat="45.801456900957014" lon="9.179564274678773"><ele>510.0</ele><time>2026-04-25T08:23:09Z</time></trkpt><trkpt lat="45.8014278509677" lon="9.179409747125918"><ele>510.0</ele><time>2026-04-25T08:23:11Z</time></trkpt><trkpt lat="45.801430026231124" lon="9.179299575185542"><ele>510.0</ele><time>2026-04-25T08:23:13Z</time></trkpt><trkpt lat="45.80144782258868" lon="9.179211944417974"><ele>510.0</ele><time>2026-04-25T08:23:14Z</time></trkpt><trkpt lat="45.801514826100295" lon="9.179134200015817"><ele>510.0</ele><time>2026-04-25T08:23:15Z</time></trkpt><trkpt lat="45.80161749113635" lon="9.178996092236355"><ele>510.0</ele><time>2026-04-25T08:23:17Z</time></trkpt><trkpt lat="45.80167964522033" lon="9.1788903861459"><ele>510.8</ele><time>2026-04-25T08:23:18Z</time></trkpt><trkpt lat="45.80174996207534" lon="9.178778249443734"><ele>511.6</ele><time>2026-04-25T08:23:19Z</time></trkpt><trkpt lat="45.80182008872451" lon="9.178694346231419"><ele>512.4</ele><time>2026-04-25T08:23:20Z</time></trkpt><trkpt lat="45.80190026469648" lon="9.17863301759751"><ele>513.2</ele><time>2026-04-25T08:23:21Z</time></trkpt><trkpt lat="45.80196805660434" lon="9.178584559389254"><ele>514.0</ele><time>2026-04-25T08:23:22Z</time></trkpt><trkpt lat="45.802044062991364" lon="9.178512587089196"><ele>514.0</ele><time>2026-04-25T08:23:23Z</time></trkpt><trkpt lat="45.80211072613913" lon="9.178444421050711"><ele>514.0</ele><time>2026-04-25T08:23:24Z</time></trkpt><trkpt lat="45.80218804249006" lon="9.178376376262765"><ele>514.0</ele><time>2026-04-25T08:23:26Z</time></trkpt><trkpt lat="45.8022110469287" lon="9.178284121546625"><ele>514.0</ele><time>2026-04-25T08:23:27Z</time></trkpt><trkpt lat="45.80218868457359" lon="9.178178026912011"><ele>514.0</ele><time>2026-04-25T08:23:28Z</time></trkpt><trkpt lat="45.80211537163393" lon="9.17811292235812"><ele>514.0</ele><time>2026-04-25T08:23:29Z</time></trkpt><trkpt lat="45.80204899791564" lon="9.178109181007871"><ele>514.0</ele><time>2026-04-25T08:23:30Z</time></trkpt><trkpt lat="45.80198282239031" lon="9.178182054457338"><ele>514.0</ele><time>2026-04-25T08:23:31Z</time></trkpt><trkpt lat="45.80193142068732" lon="9.178252213756819"><ele>514.0</ele><time>2026-04-25T08:23:32Z</time></trkpt><trkpt lat="45.80186931749885" lon="9.17833666869406"><ele>514.0</ele><time>2026-04-25T08:23:33Z</time></trkpt><trkpt lat="45.801804951041156" lon="9.17841510609113"><ele>514.0</ele><time>2026-04-25T08:23:34Z</time></trkpt><trkpt lat="45.80175664878885" lon="9.178484098250276"><ele>514.0</ele><time>2026-04-25T08:23:35Z</time></trkpt><trkpt lat="45.801696939280205" lon="9.17853664392828"><ele>512.0</ele><time>2026-04-25T08:23:36Z</time></trkpt><trkpt lat="45.801585500493125" lon="9.178579080895188"><ele>510.0</ele><time>2026-04-25T08:23:38Z</time></trkpt><trkpt lat="45.801523636503404" lon="9.178502031154775"><ele>508.0</ele><time>2026-04-25T08:23:39Z</time></trkpt><trkpt lat="45.80145682246622" lon="9.178510897364484"><ele>506.0</ele><time>2026-04-25T08:23:40Z</time></trkpt><trkpt lat="45.80137908656054" lon="9.178516280792827"><ele>504.00000000000006</ele><time>2026-04-25T08:23:41Z</time></trkpt><trkpt lat="45.801303649592946" lon="9.178563535023088"><ele>502.0</ele><time>2026-04-25T08:23:42Z</time></trkpt><trkpt lat="45.801226970474275" lon="9.178617875043399"><ele>502.00000000000006</ele><time>2026-04-25T08:23:43Z</time></trkpt><trkpt lat="45.80116262168789" lon="9.17865785015266"><ele>502.0</ele><time>2026-04-25T08:23:44Z</time></trkpt><trkpt lat="45.80108481521498" lon="9.178655546032001"><ele>502.0</ele><time>2026-04-25T08:23:45Z</time></trkpt><trkpt lat="45.800991356885696" lon="9.178656366619254"><ele>502.0</ele><time>2026-04-25T08:23:46Z</time></trkpt><trkpt lat="45.80090013423513" lon="9.178656548941477"><ele>502.00000000000006</ele><time>2026-04-25T08:23:47Z</time></trkpt><trkpt lat="45.800825255226265" lon="9.178619559569478"><ele>502.0</ele><time>2026-04-25T08:23:48Z</time></trkpt><trkpt lat="45.800759019889526" lon="9.178588204736293"><ele>499.20000000000005</ele><time>2026-04-25T08:23:49Z</time></trkpt><trkpt lat="45.80069250834819" lon="9.178569748623794"><ele>496.40000000000003</ele><time>2026-04-25T08:23:50Z</time></trkpt><trkpt lat="45.80057403427356" lon="9.178610807067173"><ele>493.59999999999997</ele><time>2026-04-25T08:23:52Z</time></trkpt><trkpt lat="45.80048803931482" lon="9.178621624364327"><ele>490.79999999999995</ele><time>2026-04-25T08:23:54Z</time></trkpt><trkpt lat="45.80039049819421" lon="9.178615873128974"><ele>488.0</ele><time>2026-04-25T08:23:56Z</time></trkpt><trkpt lat="45.800313110573" lon="9.178747586632362"><ele>487.99999999999994</ele><time>2026-04-25T08:23:58Z</time></trkpt><trkpt lat="45.800257779297986" lon="9.178809476760653"><ele>488.0</ele><time>2026-04-25T08:23:59Z</time></trkpt><trkpt lat="45.80021273022531" lon="9.178891352359178"><ele>487.99999999999994</ele><time>2026-04-25T08:24:00Z</time></trkpt><trkpt lat="45.8001750718789" lon="9.178973241582575"><ele>487.99999999999994</ele><time>2026-04-25T08:24:01Z</time></trkpt><trkpt lat="45.80015528481419" lon="9.179081756745367"><ele>488.0</ele><time>2026-04-25T08:24:02Z</time></trkpt><trkpt lat="45.800137652598586" lon="9.17919045875665"><ele>487.99999999999994</ele><time>2026-04-25T08:24:03Z</time></trkpt><trkpt lat="45.8001279939796" lon="9.1793049559593"><ele>487.99999999999994</ele><time>2026-04-25T08:24:04Z</time></trkpt><trkpt lat="45.800136514950175" lon="9.179419555100761"><ele>486.8333333333333</ele><time>2026-04-25T08:24:05Z</time></trkpt><trkpt lat="45.80011881961118" lon="9.17953100645571"><ele>485.66666666666663</ele><time>2026-04-25T08:24:06Z</time></trkpt><trkpt lat="45.800140620273" lon="9.179638549830203"><ele>484.5</ele><time>2026-04-25T08:24:07Z</time></trkpt><trkpt lat="45.80015372722103" lon="9.179752034377236"><ele>483.33333333333337</ele><time>2026-04-25T08:24:08Z</time></trkpt><trkpt lat="45.8001638246518" lon="9.179882870160657"><ele>482.1666666666667</ele><time>2026-04-25T08:24:09Z</time></trkpt><trkpt lat="45.80021228286587" lon="9.180004504542401"><ele>481.0</ele><time>2026-04-25T08:24:10Z</time></trkpt><trkpt lat="45.800251553675295" lon="9.180127098473356"><ele>481.0</ele><time>2026-04-25T08:24:11Z</time></trkpt><trkpt lat="45.8002989242752" lon="9.180238925603483"><ele>481.0</ele><time>2026-04-25T08:24:12Z</time></trkpt><trkpt lat="45.80033730544142" lon="9.180358608734352"><ele>481.0</ele><time>2026-04-25T08:24:13Z</time></trkpt><trkpt lat="45.80038572678794" lon="9.18047328404827"><ele>481.0</ele><time>2026-04-25T08:24:14Z</time></trkpt><trkpt lat="45.800434610112006" lon="9.180589052856618"><ele>481.0</ele><time>2026-04-25T08:24:15Z</time></trkpt><trkpt lat="45.8004830882791" lon="9.180707154527356"><ele>477.50000000000006</ele><time>2026-04-25T08:24:16Z</time></trkpt><trkpt lat="45.800528811658005" lon="9.180818451374341"><ele>474.0</ele><time>2026-04-25T08:24:17Z</time></trkpt><trkpt lat="45.80057178999232" lon="9.180922196554716"><ele>470.5</ele><time>2026-04-25T08:24:18Z</time></trkpt><trkpt lat="45.80061252809668" lon="9.181019390613267"><ele>467.0</ele><time>2026-04-25T08:24:19Z</time></trkpt><trkpt lat="45.800653415172164" lon="9.18111771944947"><ele>463.50000000000006</ele><time>2026-04-25T08:24:20Z</time></trkpt><trkpt lat="45.80069478702575" lon="9.181218043890304"><ele>460.0</ele><time>2026-04-25T08:24:21Z</time></trkpt><trkpt lat="45.80073684409149" lon="9.181323432021488"><ele>460.00000000000006</ele><time>2026-04-25T08:24:22Z</time></trkpt><trkpt lat="45.80077598100046" lon="9.181429591032801"><ele>460.0</ele><time>2026-04-25T08:24:23Z</time></trkpt><trkpt lat="45.80081397238955" lon="9.181538677755407"><ele>460.0</ele><time>2026-04-25T08:24:24Z</time></trkpt><trkpt lat="45.80084696547151" lon="9.181648823393678"><ele>460.0</ele><time>2026-04-25T08:24:25Z</time></trkpt><trkpt lat="45.80087985386768" lon="9.181759362813303"><ele>460.00000000000006</ele><time>2026-04-25T08:24:26Z</time></trkpt><trkpt lat="45.80091232419557" lon="9.181864716855582"><ele>460.0</ele><time>2026-04-25T08:24:27Z</time></trkpt><trkpt lat="45.80094246341781" lon="9.181956919602147"><ele>461.00000000000006</ele><time>2026-04-25T08:24:28Z</time></trkpt><trkpt lat="45.80098433238219" lon="9.18203027145196"><ele>462.0</ele><time>2026-04-25T08:24:29Z</time></trkpt><trkpt lat="45.8010216826992" lon="9.182199905415231"><ele>463.0</ele><time>2026-04-25T08:24:31Z</time></trkpt><trkpt lat="45.801048155985974" lon="9.182282827927644"><ele>464.0</ele><time>2026-04-25T08:24:32Z</time></trkpt><trkpt lat="45.80107473338956" lon="9.182367031548658"><ele>465.00000000000006</ele><time>2026-04-25T08:24:33Z</time></trkpt><trkpt lat="45.801101500562154" lon="9.182453329571084"><ele>466.0</ele><time>2026-04-25T08:24:34Z</time></trkpt><trkpt lat="45.80112961324821" lon="9.182543965834798"><ele>466.00000000000006</ele><time>2026-04-25T08:24:34.999Z</time></trkpt><trkpt lat="45.801158847996746" lon="9.182639593290084"><ele>466.0</ele><time>2026-04-25T08:24:35.999Z</time></trkpt><trkpt lat="45.80118970762177" lon="9.18274064544701"><ele>466.0</ele><time>2026-04-25T08:24:36.999Z</time></trkpt><trkpt lat="45.801219858253056" lon="9.182839148821357"><ele>466.0</ele><time>2026-04-25T08:24:37.999Z</time></trkpt><trkpt lat="45.80125742904906" lon="9.18296051016416"><ele>466.00000000000006</ele><time>2026-04-25T08:24:39.999Z</time></trkpt><trkpt lat="45.801302640023565" lon="9.183095534507084"><ele>466.0</ele><time>2026-04-25T08:24:42.999Z</time></trkpt><trkpt lat="45.80135494129851" lon="9.183225368158011"><ele>462.83333333333337</ele><time>2026-04-25T08:24:44.999Z</time></trkpt><trkpt lat="45.801435173842975" lon="9.183354545739753"><ele>459.6666666666667</ele><time>2026-04-25T08:24:46.999Z</time></trkpt><trkpt lat="45.8014772677013" lon="9.183427211800891"><ele>456.5</ele><time>2026-04-25T08:24:47.999Z</time></trkpt><trkpt lat="45.80152228550474" lon="9.183505766298547"><ele>453.33333333333337</ele><time>2026-04-25T08:24:48.999Z</time></trkpt><trkpt lat="45.80156782755734" lon="9.183586369144082"><ele>450.1666666666667</ele><time>2026-04-25T08:24:49.999Z</time></trkpt><trkpt lat="45.80161301883668" lon="9.183670240620955"><ele>447.0</ele><time>2026-04-25T08:24:50.999Z</time></trkpt><trkpt lat="45.80165712428678" lon="9.183752631718262"><ele>447.0</ele><time>2026-04-25T08:24:51.999Z</time></trkpt><trkpt lat="45.80170087777706" lon="9.183834841978214"><ele>447.0</ele><time>2026-04-25T08:24:52.999Z</time></trkpt><trkpt lat="45.801746745970036" lon="9.183921025360384"><ele>447.0</ele><time>2026-04-25T08:24:53.999Z</time></trkpt><trkpt lat="45.801790852863206" lon="9.184008037461389"><ele>447.0</ele><time>2026-04-25T08:24:54.999Z</time></trkpt><trkpt lat="45.80183364405936" lon="9.184099798946525"><ele>447.0</ele><time>2026-04-25T08:24:55.999Z</time></trkpt><trkpt lat="45.80187725809612" lon="9.184196723349432"><ele>447.0</ele><time>2026-04-25T08:24:56.999Z</time></trkpt><trkpt lat="45.80192076274272" lon="9.184294746086152"><ele>448.8333333333333</ele><time>2026-04-25T08:24:57.999Z</time></trkpt><trkpt lat="45.80196260825163" lon="9.184395535574932"><ele>450.66666666666663</ele><time>2026-04-25T08:24:58.999Z</time></trkpt><trkpt lat="45.802002691448486" lon="9.18450089854165"><ele>452.5</ele><time>2026-04-25T08:25:00Z</time></trkpt><trkpt lat="45.802039658912804" lon="9.18460443096334"><ele>454.3333333333333</ele><time>2026-04-25T08:25:01Z</time></trkpt><trkpt lat="45.80207445162886" lon="9.18470476268892"><ele>456.16666666666663</ele><time>2026-04-25T08:25:02Z</time></trkpt><trkpt lat="45.802107070787514" lon="9.184798826738842"><ele>458.0</ele><time>2026-04-25T08:25:03Z</time></trkpt><trkpt lat="45.80213778351795" lon="9.18488552117157"><ele>458.0</ele><time>2026-04-25T08:25:04Z</time></trkpt><trkpt lat="45.80218973188188" lon="9.185028410900799"><ele>457.99999999999994</ele><time>2026-04-25T08:25:06Z</time></trkpt><trkpt lat="45.802232652225804" lon="9.185156275127577"><ele>457.99999999999994</ele><time>2026-04-25T08:25:08Z</time></trkpt><trkpt lat="45.80227009393504" lon="9.185241861947093"><ele>458.0</ele><time>2026-04-25T08:25:10Z</time></trkpt><trkpt lat="45.80220081278243" lon="9.185323095361392"><ele>458.0</ele><time>2026-04-25T08:25:12Z</time></trkpt><trkpt lat="45.802092901618394" lon="9.185301377491266"><ele>457.99999999999994</ele><time>2026-04-25T08:25:14Z</time></trkpt><trkpt lat="45.802038794099694" lon="9.185231672585996"><ele>458.0</ele><time>2026-04-25T08:25:15Z</time></trkpt><trkpt lat="45.801991529296934" lon="9.185139406670428"><ele>458.0</ele><time>2026-04-25T08:25:16Z</time></trkpt><trkpt lat="45.8019362247077" lon="9.1850507067887"><ele>458.0</ele><time>2026-04-25T08:25:17Z</time></trkpt><trkpt lat="45.8018740984354" lon="9.184980945870628"><ele>457.99999999999994</ele><time>2026-04-25T08:25:18Z</time></trkpt><trkpt lat="45.80181393611054" lon="9.184907617025"><ele>458.0</ele><time>2026-04-25T08:25:19Z</time></trkpt><trkpt lat="45.801760353170565" lon="9.184820742119067"><ele>454.3333333333333</ele><time>2026-04-25T08:25:20Z</time></trkpt><trkpt lat="45.80171007014991" lon="9.184723512174413"><ele>450.66666666666663</ele><time>2026-04-25T08:25:21Z</time></trkpt><trkpt lat="45.80166358511039" lon="9.184621260610216"><ele>447.0</ele><time>2026-04-25T08:25:22Z</time></trkpt><trkpt lat="45.801619360405965" lon="9.184514303802825"><ele>443.33333333333337</ele><time>2026-04-25T08:25:23Z</time></trkpt><trkpt lat="45.801574138778406" lon="9.184407139830274"><ele>439.6666666666667</ele><time>2026-04-25T08:25:24Z</time></trkpt><trkpt lat="45.801527386531426" lon="9.184302510052783"><ele>436.0</ele><time>2026-04-25T08:25:25Z</time></trkpt><trkpt lat="45.80147221745456" lon="9.184197053920746"><ele>436.00000000000006</ele><time>2026-04-25T08:25:26Z</time></trkpt><trkpt lat="45.80141512192243" lon="9.184094901415108"><ele>436.0</ele><time>2026-04-25T08:25:27Z</time></trkpt><trkpt lat="45.80135252883838" lon="9.184003336096328"><ele>436.0</ele><time>2026-04-25T08:25:28Z</time></trkpt><trkpt lat="45.80128850783965" lon="9.183917126186332"><ele>436.0</ele><time>2026-04-25T08:25:29Z</time></trkpt><trkpt lat="45.80122796005082" lon="9.183837315474221"><ele>436.00000000000006</ele><time>2026-04-25T08:25:30Z</time></trkpt><trkpt lat="45.80117249962466" lon="9.183760648545684"><ele>436.0</ele><time>2026-04-25T08:25:31Z</time></trkpt><trkpt lat="45.801123186266224" lon="9.1836848128111"><ele>438.20000000000005</ele><time>2026-04-25T08:25:32Z</time></trkpt><trkpt lat="45.801077363979566" lon="9.183613369649013"><ele>440.40000000000003</ele><time>2026-04-25T08:25:33Z</time></trkpt><trkpt lat="45.8010324062996" lon="9.183547178140321"><ele>442.6</ele><time>2026-04-25T08:25:34Z</time></trkpt><trkpt lat="45.800946177680466" lon="9.183430317864872"><ele>444.8</ele><time>2026-04-25T08:25:36Z</time></trkpt><trkpt lat="45.80089363197068" lon="9.18332254393726"><ele>447.0</ele><time>2026-04-25T08:25:38Z</time></trkpt><trkpt lat="45.80075202781523" lon="9.183437144500001"><ele>443.0</ele><time>2026-04-25T08:25:40Z</time></trkpt><trkpt lat="45.80070916163062" lon="9.183514365448245"><ele>439.0</ele><time>2026-04-25T08:25:41Z</time></trkpt><trkpt lat="45.80066453177714" lon="9.18359028947321"><ele>435.0</ele><time>2026-04-25T08:25:42Z</time></trkpt><trkpt lat="45.800602971633516" lon="9.183647883299463"><ele>431.0</ele><time>2026-04-25T08:25:43Z</time></trkpt><trkpt lat="45.80055700145376" lon="9.183737981875405"><ele>427.0</ele><time>2026-04-25T08:25:44Z</time></trkpt><trkpt lat="45.80049351897434" lon="9.183808969910057"><ele>423.0</ele><time>2026-04-25T08:25:45Z</time></trkpt><trkpt lat="45.800434049689855" lon="9.183888714689576"><ele>423.0</ele><time>2026-04-25T08:25:46Z</time></trkpt><trkpt lat="45.80038227017089" lon="9.183959999331428"><ele>423.0</ele><time>2026-04-25T08:25:47Z</time></trkpt><trkpt lat="45.80030313144971" lon="9.184081046682751"><ele>423.0</ele><time>2026-04-25T08:25:49Z</time></trkpt><trkpt lat="45.80024413659413" lon="9.184168454359662"><ele>423.0</ele><time>2026-04-25T08:25:51Z</time></trkpt><trkpt lat="45.80019289994958" lon="9.184228405667742"><ele>423.0</ele><time>2026-04-25T08:25:54Z</time></trkpt><trkpt lat="45.800184025336776" lon="9.184339509031341"><ele>423.0</ele><time>2026-04-25T08:27:29Z</time></trkpt><trkpt lat="45.800239697226004" lon="9.184426802066156"><ele>422.8333333333333</ele><time>2026-04-25T08:27:34Z</time></trkpt><trkpt lat="45.800295772445644" lon="9.184482341837155"><ele>422.66666666666663</ele><time>2026-04-25T08:27:37Z</time></trkpt><trkpt lat="45.80036314775781" lon="9.184548034123532"><ele>422.5</ele><time>2026-04-25T08:27:40Z</time></trkpt><trkpt lat="45.80041892908782" lon="9.184613695036395"><ele>422.3333333333333</ele><time>2026-04-25T08:27:42Z</time></trkpt><trkpt lat="45.80047221870966" lon="9.184696009246851"><ele>422.16666666666663</ele><time>2026-04-25T08:27:44Z</time></trkpt><trkpt lat="45.80053143203352" lon="9.18477842137358"><ele>422.0</ele><time>2026-04-25T08:27:46Z</time></trkpt><trkpt lat="45.80056642421893" lon="9.184872206079959"><ele>422.0</ele><time>2026-04-25T08:27:48Z</time></trkpt><trkpt lat="45.800564364906805" lon="9.184976089446273"><ele>422.0</ele><time>2026-04-25T08:27:50Z</time></trkpt><trkpt lat="45.800521303560245" lon="9.185071810344285"><ele>422.0</ele><time>2026-04-25T08:27:52Z</time></trkpt><trkpt lat="45.80043596334927" lon="9.18511638167823"><ele>422.0</ele><time>2026-04-25T08:27:54Z</time></trkpt><trkpt lat="45.80033143779162" lon="9.185111469643084"><ele>422.0</ele><time>2026-04-25T08:27:56Z</time></trkpt><trkpt lat="45.80022661658889" lon="9.18512287895306"><ele>422.25</ele><time>2026-04-25T08:27:58Z</time></trkpt><trkpt lat="45.80011762459843" lon="9.185126108199862"><ele>422.5</ele><time>2026-04-25T08:28:00Z</time></trkpt><trkpt lat="45.7999983753893" lon="9.185137425785694"><ele>422.75</ele><time>2026-04-25T08:28:02Z</time></trkpt><trkpt lat="45.799876048768745" lon="9.185153967280648"><ele>423.0</ele><time>2026-04-25T08:28:04Z</time></trkpt><trkpt lat="45.79975907506147" lon="9.185158499519693"><ele>423.0</ele><time>2026-04-25T08:28:06Z</time></trkpt><trkpt lat="45.79963792493286" lon="9.18517495960652"><ele>423.0</ele><time>2026-04-25T08:28:08Z</time></trkpt><trkpt lat="45.79957278893761" lon="9.185182388555821"><ele>423.0</ele><time>2026-04-25T08:28:09Z</time></trkpt><trkpt lat="45.79950869159965" lon="9.185185979729203"><ele>423.0</ele><time>2026-04-25T08:28:10Z</time></trkpt><trkpt lat="45.7994422810762" lon="9.185191179926559"><ele>423.0</ele><time>2026-04-25T08:28:11Z</time></trkpt><trkpt lat="45.79937891917697" lon="9.185198891942878"><ele>423.0</ele><time>2026-04-25T08:28:12Z</time></trkpt><trkpt lat="45.799254357335954" lon="9.185212533400868"><ele>422.75</ele><time>2026-04-25T08:28:14Z</time></trkpt><trkpt lat="45.7991364695171" lon="9.18522624944785"><ele>422.5</ele><time>2026-04-25T08:28:16Z</time></trkpt><trkpt lat="45.79901830320061" lon="9.185231899445311"><ele>422.25</ele><time>2026-04-25T08:28:18Z</time></trkpt><trkpt lat="45.79890477735462" lon="9.18523638523215"><ele>422.0</ele><time>2026-04-25T08:28:20Z</time></trkpt><trkpt lat="45.79878456180125" lon="9.1852511402655"><ele>422.0</ele><time>2026-04-25T08:28:22Z</time></trkpt><trkpt lat="45.79866691359772" lon="9.185263677573984"><ele>422.0</ele><time>2026-04-25T08:28:24Z</time></trkpt><trkpt lat="45.798551824813224" lon="9.185265637037165"><ele>422.0</ele><time>2026-04-25T08:28:26Z</time></trkpt><trkpt lat="45.798443075053186" lon="9.185240389346701"><ele>422.0</ele><time>2026-04-25T08:28:28Z</time></trkpt><trkpt lat="45.79834453882076" lon="9.185177002595987"><ele>422.0</ele><time>2026-04-25T08:28:30Z</time></trkpt><trkpt lat="45.79825647132253" lon="9.185127828641795"><ele>422.0</ele><time>2026-04-25T08:28:32Z</time></trkpt><trkpt lat="45.798178962626004" lon="9.185213094252"><ele>422.0</ele><time>2026-04-25T08:28:34Z</time></trkpt><trkpt lat="45.79814157590271" lon="9.18533105936882"><ele>422.0</ele><time>2026-04-25T08:28:36Z</time></trkpt><trkpt lat="45.79808711362972" lon="9.185449185170418"><ele>422.0</ele><time>2026-04-25T08:28:38Z</time></trkpt><trkpt lat="45.79798745332126" lon="9.185564470492556"><ele>422.0</ele><time>2026-04-25T08:28:40Z</time></trkpt><trkpt lat="45.79792746036628" lon="9.185616362093464"><ele>422.0</ele><time>2026-04-25T08:28:41Z</time></trkpt><trkpt lat="45.79787419821292" lon="9.185671723306758"><ele>422.0</ele><time>2026-04-25T08:28:42Z</time></trkpt><trkpt lat="45.79781930795311" lon="9.185740712535415"><ele>422.0</ele><time>2026-04-25T08:28:43Z</time></trkpt><trkpt lat="45.79776308010873" lon="9.185811793787055"><ele>422.0</ele><time>2026-04-25T08:28:44Z</time></trkpt><trkpt lat="45.79770558043942" lon="9.185884136949714"><ele>422.0</ele><time>2026-04-25T08:28:45Z</time></trkpt><trkpt lat="45.79764081751381" lon="9.185957494532527"><ele>422.0</ele><time>2026-04-25T08:28:46Z</time></trkpt><trkpt lat="45.79757839960466" lon="9.186032266114493"><ele>421.3333333333333</ele><time>2026-04-25T08:28:47Z</time></trkpt><trkpt lat="45.797515672988986" lon="9.186107794812102"><ele>420.66666666666663</ele><time>2026-04-25T08:28:48Z</time></trkpt><trkpt lat="45.79744850403768" lon="9.186177367580376"><ele>420.0</ele><time>2026-04-25T08:28:49Z</time></trkpt><trkpt lat="45.797382016112586" lon="9.186249894211878"><ele>419.33333333333337</ele><time>2026-04-25T08:28:50Z</time></trkpt><trkpt lat="45.79731363219388" lon="9.186327974171526"><ele>418.6666666666667</ele><time>2026-04-25T08:28:51Z</time></trkpt><trkpt lat="45.7972439915977" lon="9.186412998522103"><ele>418.0</ele><time>2026-04-25T08:28:52Z</time></trkpt><trkpt lat="45.79717233400946" lon="9.186498947739217"><ele>418.4</ele><time>2026-04-25T08:28:53Z</time></trkpt><trkpt lat="45.79709610719877" lon="9.186584374282475"><ele>418.79999999999995</ele><time>2026-04-25T08:28:54Z</time></trkpt><trkpt lat="45.79701728872946" lon="9.186671489682572"><ele>419.2</ele><time>2026-04-25T08:28:55Z</time></trkpt><trkpt lat="45.79694074287582" lon="9.186764064033815"><ele>419.6</ele><time>2026-04-25T08:28:56Z</time></trkpt><trkpt lat="45.79686207492153" lon="9.186856250574573"><ele>420.0</ele><time>2026-04-25T08:28:57Z</time></trkpt><trkpt lat="45.79678178908776" lon="9.186946307151079"><ele>419.1666666666667</ele><time>2026-04-25T08:28:58Z</time></trkpt><trkpt lat="45.796706153183585" lon="9.187033185458315"><ele>418.33333333333337</ele><time>2026-04-25T08:28:59Z</time></trkpt><trkpt lat="45.796630565830675" lon="9.187113645916952"><ele>417.5</ele><time>2026-04-25T08:29:00Z</time></trkpt><trkpt lat="45.79656969269713" lon="9.187187510635017"><ele>416.6666666666667</ele><time>2026-04-25T08:29:01Z</time></trkpt><trkpt lat="45.796516162675246" lon="9.187278565936785"><ele>415.83333333333337</ele><time>2026-04-25T08:29:02Z</time></trkpt><trkpt lat="45.79646083307924" lon="9.18738438837611"><ele>415.0</ele><time>2026-04-25T08:29:03Z</time></trkpt><trkpt lat="45.79643306476036" lon="9.187491268107511"><ele>414.0</ele><time>2026-04-25T08:29:04Z</time></trkpt><trkpt lat="45.79642738865899" lon="9.187603921385781"><ele>413.0</ele><time>2026-04-25T08:29:05Z</time></trkpt><trkpt lat="45.79645187242839" lon="9.187729650654951"><ele>412.0</ele><time>2026-04-25T08:29:05.999Z</time></trkpt><trkpt lat="45.79649487415376" lon="9.187848562599585"><ele>411.0</ele><time>2026-04-25T08:29:06.999Z</time></trkpt><trkpt lat="45.79655654801963" lon="9.187952830844997"><ele>410.0</ele><time>2026-04-25T08:29:07.999Z</time></trkpt><trkpt lat="45.79663089471522" lon="9.188049449187556"><ele>410.0</ele><time>2026-04-25T08:29:08.999Z</time></trkpt><trkpt lat="45.79670747274893" lon="9.188143310907574"><ele>410.0</ele><time>2026-04-25T08:29:09.999Z</time></trkpt><trkpt lat="45.79678080472404" lon="9.188234608634069"><ele>410.0</ele><time>2026-04-25T08:29:10.999Z</time></trkpt><trkpt lat="45.79685375807709" lon="9.188334544951122"><ele>410.0</ele><time>2026-04-25T08:29:12Z</time></trkpt><trkpt lat="45.796927384247255" lon="9.188436797057072"><ele>410.0</ele><time>2026-04-25T08:29:13Z</time></trkpt><trkpt lat="45.79700493437764" lon="9.188533861583071"><ele>409.49999999999994</ele><time>2026-04-25T08:29:14Z</time></trkpt><trkpt lat="45.79707526204181" lon="9.188625981468068"><ele>409.0</ele><time>2026-04-25T08:29:15Z</time></trkpt><trkpt lat="45.797143925331966" lon="9.188714880284822"><ele>408.5</ele><time>2026-04-25T08:29:16Z</time></trkpt><trkpt lat="45.79720581353982" lon="9.188785259490782"><ele>408.0</ele><time>2026-04-25T08:29:17Z</time></trkpt><trkpt lat="45.79726585488621" lon="9.188852268987082"><ele>407.49999999999994</ele><time>2026-04-25T08:29:18Z</time></trkpt><trkpt lat="45.79730696738371" lon="9.188921244394995"><ele>407.0</ele><time>2026-04-25T08:29:19Z</time></trkpt><trkpt lat="45.797352036199996" lon="9.188988094086183"><ele>406.6</ele><time>2026-04-25T08:29:20Z</time></trkpt><trkpt lat="45.797434633772134" lon="9.189101225487654"><ele>406.20000000000005</ele><time>2026-04-25T08:29:22Z</time></trkpt><trkpt lat="45.797517124574576" lon="9.189221970026633"><ele>405.8</ele><time>2026-04-25T08:29:24Z</time></trkpt><trkpt lat="45.797583300106865" lon="9.189313624519844"><ele>405.4</ele><time>2026-04-25T08:29:26Z</time></trkpt><trkpt lat="45.797629819366534" lon="9.189384502998982"><ele>405.0</ele><time>2026-04-25T08:29:28Z</time></trkpt><trkpt lat="45.79769512903998" lon="9.189436877725525"><ele>405.0</ele><time>2026-04-25T08:29:30Z</time></trkpt><trkpt lat="45.79775751608483" lon="9.189541486333109"><ele>405.0</ele><time>2026-04-25T08:29:32Z</time></trkpt><trkpt lat="45.797816892225256" lon="9.189624411808454"><ele>405.0</ele><time>2026-04-25T08:29:34Z</time></trkpt><trkpt lat="45.797844520493285" lon="9.189732074293893"><ele>405.0</ele><time>2026-04-25T08:29:37Z</time></trkpt><trkpt lat="45.797773370308214" lon="9.189815522501489"><ele>405.0</ele><time>2026-04-25T08:29:38Z</time></trkpt><trkpt lat="45.79772999843412" lon="9.189899403609045"><ele>405.0</ele><time>2026-04-25T08:29:39Z</time></trkpt><trkpt lat="45.79768098578507" lon="9.189966472229477"><ele>403.57142857142856</ele><time>2026-04-25T08:29:40Z</time></trkpt><trkpt lat="45.79763397319534" lon="9.190032036312717"><ele>402.1428571428571</ele><time>2026-04-25T08:29:41Z</time></trkpt><trkpt lat="45.79758250337677" lon="9.19008826338953"><ele>400.71428571428567</ele><time>2026-04-25T08:29:42Z</time></trkpt><trkpt lat="45.797520755868696" lon="9.190130475478462"><ele>399.2857142857143</ele><time>2026-04-25T08:29:43Z</time></trkpt><trkpt lat="45.79744949694103" lon="9.190163098345256"><ele>397.8571428571429</ele><time>2026-04-25T08:29:44Z</time></trkpt><trkpt lat="45.797380704296934" lon="9.190195189249888"><ele>396.4285714285714</ele><time>2026-04-25T08:29:45Z</time></trkpt><trkpt lat="45.79731344020058" lon="9.190226975866493"><ele>395.0</ele><time>2026-04-25T08:29:46Z</time></trkpt><trkpt lat="45.79725025322808" lon="9.190268410218353"><ele>394.99999999999994</ele><time>2026-04-25T08:29:47Z</time></trkpt><trkpt lat="45.79718325006627" lon="9.190306717574972"><ele>395.0</ele><time>2026-04-25T08:29:48Z</time></trkpt><trkpt lat="45.79711733714809" lon="9.190344093534591"><ele>395.0</ele><time>2026-04-25T08:29:49Z</time></trkpt><trkpt lat="45.797048690808886" lon="9.190378915303981"><ele>395.0</ele><time>2026-04-25T08:29:50Z</time></trkpt><trkpt lat="45.796975021090695" lon="9.190410217560506"><ele>394.99999999999994</ele><time>2026-04-25T08:29:51Z</time></trkpt><trkpt lat="45.79690063495552" lon="9.19039731280599"><ele>395.0</ele><time>2026-04-25T08:29:52Z</time></trkpt><trkpt lat="45.79680616729001" lon="9.190430565249002"><ele>394.16666666666663</ele><time>2026-04-25T08:29:53Z</time></trkpt><trkpt lat="45.79671280717695" lon="9.190419865964639"><ele>393.3333333333333</ele><time>2026-04-25T08:29:54Z</time></trkpt><trkpt lat="45.79662074718442" lon="9.190455552720378"><ele>392.5</ele><time>2026-04-25T08:29:55Z</time></trkpt><trkpt lat="45.796526913372475" lon="9.19045008294441"><ele>391.66666666666663</ele><time>2026-04-25T08:29:56Z</time></trkpt><trkpt lat="45.796450536342014" lon="9.19043877477744"><ele>390.8333333333333</ele><time>2026-04-25T08:29:57Z</time></trkpt><trkpt lat="45.79637603417535" lon="9.190481291143008"><ele>390.0</ele><time>2026-04-25T08:29:58Z</time></trkpt><trkpt lat="45.79624170558932" lon="9.190502312365847"><ele>390.0</ele><time>2026-04-25T08:30:00Z</time></trkpt><trkpt lat="45.796150671536154" lon="9.190550804733137"><ele>390.0</ele><time>2026-04-25T08:30:01Z</time></trkpt><trkpt lat="45.796064313296405" lon="9.19060958436475"><ele>390.0</ele><time>2026-04-25T08:30:02Z</time></trkpt><trkpt lat="45.795992501474636" lon="9.190677072725302"><ele>390.0</ele><time>2026-04-25T08:30:03Z</time></trkpt><trkpt lat="45.79591598873957" lon="9.190736454452587"><ele>390.0</ele><time>2026-04-25T08:30:04Z</time></trkpt><trkpt lat="45.79583385322853" lon="9.190800199877591"><ele>387.0</ele><time>2026-04-25T08:30:05Z</time></trkpt><trkpt lat="45.7957550809168" lon="9.190861335105039"><ele>384.0</ele><time>2026-04-25T08:30:06Z</time></trkpt><trkpt lat="45.79567633332009" lon="9.190923270600926"><ele>381.0</ele><time>2026-04-25T08:30:07Z</time></trkpt><trkpt lat="45.795593964646635" lon="9.190990380103955"><ele>378.0</ele><time>2026-04-25T08:30:08Z</time></trkpt><trkpt lat="45.79549507224538" lon="9.191071630176424"><ele>375.0</ele><time>2026-04-25T08:30:09Z</time></trkpt><trkpt lat="45.795380637090645" lon="9.191186720625865"><ele>375.0</ele><time>2026-04-25T08:30:11Z</time></trkpt><trkpt lat="45.79530567307611" lon="9.191239396775133"><ele>375.0</ele><time>2026-04-25T08:30:12Z</time></trkpt><trkpt lat="45.79524462014335" lon="9.191299169558823"><ele>375.0</ele><time>2026-04-25T08:30:13Z</time></trkpt><trkpt lat="45.79519491464984" lon="9.191371751377057"><ele>375.0</ele><time>2026-04-25T08:30:14Z</time></trkpt><trkpt lat="45.795156502251544" lon="9.191468279420068"><ele>375.0</ele><time>2026-04-25T08:30:15Z</time></trkpt><trkpt lat="45.795137166777316" lon="9.191573959509189"><ele>375.0</ele><time>2026-04-25T08:30:16Z</time></trkpt><trkpt lat="45.79510872911278" lon="9.191656692957269"><ele>375.0</ele><time>2026-04-25T08:30:17Z</time></trkpt><trkpt lat="45.795038581988514" lon="9.191814913333683"><ele>374.0</ele><time>2026-04-25T08:30:19Z</time></trkpt><trkpt lat="45.795000038764556" lon="9.19190746188108"><ele>373.0</ele><time>2026-04-25T08:30:20Z</time></trkpt><trkpt lat="45.7949412994258" lon="9.191985760697866"><ele>372.0</ele><time>2026-04-25T08:30:21Z</time></trkpt><trkpt lat="45.794859577298126" lon="9.19202003783633"><ele>371.0</ele><time>2026-04-25T08:30:22Z</time></trkpt><trkpt lat="45.79477789853217" lon="9.19205596597021"><ele>370.0</ele><time>2026-04-25T08:30:23Z</time></trkpt><trkpt lat="45.79469240975537" lon="9.192095097796766"><ele>369.0</ele><time>2026-04-25T08:30:24Z</time></trkpt><trkpt lat="45.794607451164225" lon="9.192133644116206"><ele>369.0</ele><time>2026-04-25T08:30:25Z</time></trkpt><trkpt lat="45.794525600387125" lon="9.192195458604225"><ele>369.0</ele><time>2026-04-25T08:30:26Z</time></trkpt><trkpt lat="45.79443767857053" lon="9.192229885029965"><ele>369.0</ele><time>2026-04-25T08:30:27Z</time></trkpt><trkpt lat="45.79434042968505" lon="9.192268751209724"><ele>369.0</ele><time>2026-04-25T08:30:28Z</time></trkpt><trkpt lat="45.79424237926886" lon="9.192288413795481"><ele>369.0</ele><time>2026-04-25T08:30:29Z</time></trkpt><trkpt lat="45.79415176094663" lon="9.192324488539695"><ele>366.79999999999995</ele><time>2026-04-25T08:30:30Z</time></trkpt><trkpt lat="45.79405523627923" lon="9.192362913951095"><ele>364.59999999999997</ele><time>2026-04-25T08:30:31Z</time></trkpt><trkpt lat="45.79396058940056" lon="9.192401808652814"><ele>362.4</ele><time>2026-04-25T08:30:32Z</time></trkpt><trkpt lat="45.793868201547745" lon="9.192439464534495"><ele>360.2</ele><time>2026-04-25T08:30:33Z</time></trkpt><trkpt lat="45.79377805555823" lon="9.19247631459979"><ele>358.0</ele><time>2026-04-25T08:30:34Z</time></trkpt><trkpt lat="45.79368783881751" lon="9.192513631107634"><ele>358.0</ele><time>2026-04-25T08:30:35Z</time></trkpt><trkpt lat="45.79359682551524" lon="9.192551277139783"><ele>358.0</ele><time>2026-04-25T08:30:36Z</time></trkpt><trkpt lat="45.79350712649548" lon="9.192586613737236"><ele>358.0</ele><time>2026-04-25T08:30:37Z</time></trkpt><trkpt lat="45.79342205568123" lon="9.192619789962267"><ele>358.0</ele><time>2026-04-25T08:30:38Z</time></trkpt><trkpt lat="45.793329151691346" lon="9.192656020968828"><ele>358.0</ele><time>2026-04-25T08:30:39Z</time></trkpt><trkpt lat="45.79326174289166" lon="9.192682818895818"><ele>358.0</ele><time>2026-04-25T08:30:40Z</time></trkpt><trkpt lat="45.79319496129951" lon="9.192717135608563"><ele>358.2</ele><time>2026-04-25T08:30:41Z</time></trkpt><trkpt lat="45.793118535695136" lon="9.192825120896119"><ele>358.4</ele><time>2026-04-25T08:30:43Z</time></trkpt><trkpt lat="45.7931013214506" lon="9.19302692754276"><ele>358.59999999999997</ele><time>2026-04-25T08:30:45Z</time></trkpt><trkpt lat="45.79310597844028" lon="9.193136093407526"><ele>358.79999999999995</ele><time>2026-04-25T08:30:46Z</time></trkpt><trkpt lat="45.793099053888085" lon="9.193248652648734"><ele>359.0</ele><time>2026-04-25T08:30:47Z</time></trkpt><trkpt lat="45.79307777873633" lon="9.193362222082007"><ele>359.0</ele><time>2026-04-25T08:30:48Z</time></trkpt><trkpt lat="45.79305103116371" lon="9.193481336708482"><ele>359.0</ele><time>2026-04-25T08:30:49Z</time></trkpt><trkpt lat="45.793022016889765" lon="9.19359896969667"><ele>359.0</ele><time>2026-04-25T08:30:50Z</time></trkpt><trkpt lat="45.79299183451392" lon="9.193721420463504"><ele>359.0</ele><time>2026-04-25T08:30:51Z</time></trkpt><trkpt lat="45.79296473508843" lon="9.19384278260753"><ele>359.0</ele><time>2026-04-25T08:30:52Z</time></trkpt><trkpt lat="45.79292171579229" lon="9.193950606569677"><ele>359.0</ele><time>2026-04-25T08:30:53Z</time></trkpt><trkpt lat="45.79290744701069" lon="9.194074690758097"><ele>358.1666666666667</ele><time>2026-04-25T08:30:54Z</time></trkpt><trkpt lat="45.79286032022832" lon="9.19417417612079"><ele>357.33333333333337</ele><time>2026-04-25T08:30:55Z</time></trkpt><trkpt lat="45.79282084508098" lon="9.1942663064612"><ele>356.5</ele><time>2026-04-25T08:30:56Z</time></trkpt><trkpt lat="45.79278210047564" lon="9.194363706756405"><ele>355.6666666666667</ele><time>2026-04-25T08:30:57Z</time></trkpt><trkpt lat="45.79269484311955" lon="9.19440174452997"><ele>354.8333333333333</ele><time>2026-04-25T08:30:58Z</time></trkpt><trkpt lat="45.79261655949332" lon="9.194475927608035"><ele>354.0</ele><time>2026-04-25T08:30:59Z</time></trkpt><trkpt lat="45.79252863323503" lon="9.194545055350106"><ele>353.4</ele><time>2026-04-25T08:31:00Z</time></trkpt><trkpt lat="45.79243623384623" lon="9.19462204119418"><ele>352.79999999999995</ele><time>2026-04-25T08:31:01Z</time></trkpt><trkpt lat="45.79234126799432" lon="9.19470215941605"><ele>352.20000000000005</ele><time>2026-04-25T08:31:02Z</time></trkpt><trkpt lat="45.79224609018991" lon="9.194785042071496"><ele>351.6</ele><time>2026-04-25T08:31:03Z</time></trkpt><trkpt lat="45.792154707602045" lon="9.194865479011785"><ele>351.0</ele><time>2026-04-25T08:31:04Z</time></trkpt><trkpt lat="45.79206444103049" lon="9.194945903144434"><ele>349.4</ele><time>2026-04-25T08:31:05Z</time></trkpt><trkpt lat="45.79197389669044" lon="9.19502632069628"><ele>347.8</ele><time>2026-04-25T08:31:06Z</time></trkpt><trkpt lat="45.79188174925592" lon="9.195107911215443"><ele>346.2</ele><time>2026-04-25T08:31:07Z</time></trkpt><trkpt lat="45.7917914019048" lon="9.195187909999284"><ele>344.59999999999997</ele><time>2026-04-25T08:31:08Z</time></trkpt><trkpt lat="45.791710540060734" lon="9.195288829723369"><ele>343.0</ele><time>2026-04-25T08:31:09Z</time></trkpt><trkpt lat="45.791619470867865" lon="9.195367155080035"><ele>342.59999999999997</ele><time>2026-04-25T08:31:10Z</time></trkpt><trkpt lat="45.79152921488121" lon="9.195446556412511"><ele>342.2</ele><time>2026-04-25T08:31:11Z</time></trkpt><trkpt lat="45.79144026209377" lon="9.195525648664537"><ele>341.8</ele><time>2026-04-25T08:31:12Z</time></trkpt><trkpt lat="45.791353278433604" lon="9.19560403079823"><ele>341.4</ele><time>2026-04-25T08:31:13Z</time></trkpt><trkpt lat="45.791262889923445" lon="9.195664290995854"><ele>341.0</ele><time>2026-04-25T08:31:14Z</time></trkpt><trkpt lat="45.79119053045492" lon="9.195767572824606"><ele>340.4</ele><time>2026-04-25T08:31:15Z</time></trkpt><trkpt lat="45.791138887684525" lon="9.195894132397807"><ele>339.8</ele><time>2026-04-25T08:31:16Z</time></trkpt><trkpt lat="45.79107794895971" lon="9.196008662439972"><ele>339.2</ele><time>2026-04-25T08:31:17Z</time></trkpt><trkpt lat="45.79101751962269" lon="9.196125421696875"><ele>338.59999999999997</ele><time>2026-04-25T08:31:18Z</time></trkpt><trkpt lat="45.790960119187446" lon="9.196244972180365"><ele>338.0</ele><time>2026-04-25T08:31:19Z</time></trkpt><trkpt lat="45.79090424536668" lon="9.196366037772798"><ele>337.79999999999995</ele><time>2026-04-25T08:31:20Z</time></trkpt><trkpt lat="45.79085356172554" lon="9.19648830074584"><ele>337.6</ele><time>2026-04-25T08:31:21Z</time></trkpt><trkpt lat="45.79081259233481" lon="9.19661113281617"><ele>337.4</ele><time>2026-04-25T08:31:22Z</time></trkpt><trkpt lat="45.790788868923705" lon="9.19673672193658"><ele>337.20000000000005</ele><time>2026-04-25T08:31:23Z</time></trkpt><trkpt lat="45.790782468886114" lon="9.196868400433907"><ele>337.0</ele><time>2026-04-25T08:31:24Z</time></trkpt><trkpt lat="45.7907851516611" lon="9.196998415461882"><ele>336.8333333333333</ele><time>2026-04-25T08:31:25Z</time></trkpt><trkpt lat="45.79078605034593" lon="9.197122854595401"><ele>336.66666666666663</ele><time>2026-04-25T08:31:26Z</time></trkpt><trkpt lat="45.790789362894834" lon="9.197237948946212"><ele>336.5</ele><time>2026-04-25T08:31:27Z</time></trkpt><trkpt lat="45.79079177177874" lon="9.19734054061781"><ele>336.3333333333333</ele><time>2026-04-25T08:31:28Z</time></trkpt><trkpt lat="45.790791573122235" lon="9.197494971424716"><ele>336.1666666666667</ele><time>2026-04-25T08:31:30Z</time></trkpt><trkpt lat="45.790791464597476" lon="9.197596112980937"><ele>336.0</ele><time>2026-04-25T08:31:32Z</time></trkpt><trkpt lat="45.790806481843994" lon="9.197691561874441"><ele>335.8</ele><time>2026-04-25T08:32:01Z</time></trkpt><trkpt lat="45.79075033295324" lon="9.197771112298222"><ele>335.6</ele><time>2026-04-25T08:32:04Z</time></trkpt><trkpt lat="45.79065937626336" lon="9.1977815370545"><ele>335.4</ele><time>2026-04-25T08:32:08Z</time></trkpt><trkpt lat="45.790566478514364" lon="9.197758398488737"><ele>335.2</ele><time>2026-04-25T08:32:10Z</time></trkpt><trkpt lat="45.79048596625502" lon="9.197711171164446"><ele>335.0</ele><time>2026-04-25T08:32:12Z</time></trkpt><trkpt lat="45.79038828911035" lon="9.197686937179581"><ele>335.0</ele><time>2026-04-25T08:32:14Z</time></trkpt><trkpt lat="45.790315710373534" lon="9.197684319632893"><ele>335.0</ele><time>2026-04-25T08:32:15Z</time></trkpt><trkpt lat="45.790244344417665" lon="9.197659733547262"><ele>335.0</ele><time>2026-04-25T08:32:16Z</time></trkpt><trkpt lat="45.790166045927094" lon="9.197626784370724"><ele>335.0</ele><time>2026-04-25T08:32:17Z</time></trkpt><trkpt lat="45.79008392271028" lon="9.197597778554407"><ele>335.0</ele><time>2026-04-25T08:32:18Z</time></trkpt><trkpt lat="45.790000499917504" lon="9.19757640170658"><ele>335.0</ele><time>2026-04-25T08:32:19Z</time></trkpt><trkpt lat="45.78991930411758" lon="9.19755027663492"><ele>335.33333333333337</ele><time>2026-04-25T08:32:20Z</time></trkpt><trkpt lat="45.78984191090763" lon="9.197525559979239"><ele>335.6666666666667</ele><time>2026-04-25T08:32:21Z</time></trkpt><trkpt lat="45.789763638753705" lon="9.197502207600554"><ele>336.0</ele><time>2026-04-25T08:32:22Z</time></trkpt><trkpt lat="45.78968139994281" lon="9.19747039961918"><ele>336.3333333333333</ele><time>2026-04-25T08:32:23Z</time></trkpt><trkpt lat="45.78960084912237" lon="9.197440427057545"><ele>336.66666666666663</ele><time>2026-04-25T08:32:24Z</time></trkpt><trkpt lat="45.78951302571602" lon="9.19741756216508"><ele>337.0</ele><time>2026-04-25T08:32:25Z</time></trkpt><trkpt lat="45.78943018249056" lon="9.197388907569273"><ele>337.0</ele><time>2026-04-25T08:32:26Z</time></trkpt><trkpt lat="45.789342639465346" lon="9.19736040637313"><ele>337.0</ele><time>2026-04-25T08:32:27Z</time></trkpt><trkpt lat="45.78926117362018" lon="9.197328966120264"><ele>337.0</ele><time>2026-04-25T08:32:28Z</time></trkpt><trkpt lat="45.78917953104952" lon="9.197305309891414"><ele>337.0</ele><time>2026-04-25T08:32:29Z</time></trkpt><trkpt lat="45.78909622235459" lon="9.197281474034938"><ele>337.0</ele><time>2026-04-25T08:32:30Z</time></trkpt><trkpt lat="45.78901113802219" lon="9.197251601766697"><ele>337.0</ele><time>2026-04-25T08:32:31Z</time></trkpt><trkpt lat="45.78891987729613" lon="9.197232150549032"><ele>337.16666666666663</ele><time>2026-04-25T08:32:32Z</time></trkpt><trkpt lat="45.788836050453035" lon="9.197209364844815"><ele>337.3333333333333</ele><time>2026-04-25T08:32:33Z</time></trkpt><trkpt lat="45.788747809878195" lon="9.197175790783087"><ele>337.5</ele><time>2026-04-25T08:32:34Z</time></trkpt><trkpt lat="45.78866726488777" lon="9.197144667830946"><ele>337.6666666666667</ele><time>2026-04-25T08:32:35Z</time></trkpt><trkpt lat="45.78858210763363" lon="9.197118759397549"><ele>337.83333333333337</ele><time>2026-04-25T08:32:36Z</time></trkpt><trkpt lat="45.78849890497883" lon="9.197092939505971"><ele>338.0</ele><time>2026-04-25T08:32:37Z</time></trkpt><trkpt lat="45.788426360739116" lon="9.197071444985303"><ele>337.1666666666667</ele><time>2026-04-25T08:32:38Z</time></trkpt><trkpt lat="45.78833851455757" lon="9.197026529272431"><ele>336.33333333333337</ele><time>2026-04-25T08:32:39Z</time></trkpt><trkpt lat="45.78825388054029" lon="9.196988287948125"><ele>335.5</ele><time>2026-04-25T08:32:40Z</time></trkpt><trkpt lat="45.788176499843296" lon="9.19693109817966"><ele>334.6666666666667</ele><time>2026-04-25T08:32:41Z</time></trkpt><trkpt lat="45.788106033792324" lon="9.196874652037167"><ele>333.8333333333333</ele><time>2026-04-25T08:32:42Z</time></trkpt><trkpt lat="45.78803977330803" lon="9.196816817876082"><ele>333.0</ele><time>2026-04-25T08:32:43Z</time></trkpt><trkpt lat="45.78797369495007" lon="9.196766302085095"><ele>333.0</ele><time>2026-04-25T08:32:44Z</time></trkpt><trkpt lat="45.78790934696145" lon="9.19671568941241"><ele>333.0</ele><time>2026-04-25T08:32:45Z</time></trkpt><trkpt lat="45.787846867355746" lon="9.196667835250883"><ele>333.0</ele><time>2026-04-25T08:32:46Z</time></trkpt><trkpt lat="45.78778654083152" lon="9.19662732732889"><ele>333.0</ele><time>2026-04-25T08:32:47Z</time></trkpt><trkpt lat="45.787721082013846" lon="9.196582378286093"><ele>333.0</ele><time>2026-04-25T08:32:48Z</time></trkpt><trkpt lat="45.78765161528515" lon="9.19653161471811"><ele>333.0</ele><time>2026-04-25T08:32:49Z</time></trkpt><trkpt lat="45.78758962046231" lon="9.196478928361874"><ele>333.0</ele><time>2026-04-25T08:32:50Z</time></trkpt><trkpt lat="45.78753150817724" lon="9.196428580872833"><ele>333.42857142857144</ele><time>2026-04-25T08:32:51Z</time></trkpt><trkpt lat="45.78747126033475" lon="9.196385229732236"><ele>333.85714285714283</ele><time>2026-04-25T08:32:52Z</time></trkpt><trkpt lat="45.78740663130513" lon="9.196342222326507"><ele>334.2857142857143</ele><time>2026-04-25T08:32:53Z</time></trkpt><trkpt lat="45.78733856485706" lon="9.196300593689683"><ele>334.7142857142857</ele><time>2026-04-25T08:32:54Z</time></trkpt><trkpt lat="45.78726994106028" lon="9.196265183870473"><ele>335.1428571428571</ele><time>2026-04-25T08:32:55Z</time></trkpt><trkpt lat="45.787197773836205" lon="9.196232445920357"><ele>335.57142857142856</ele><time>2026-04-25T08:32:56Z</time></trkpt><trkpt lat="45.787120959341735" lon="9.196208797865522"><ele>336.0</ele><time>2026-04-25T08:32:57Z</time></trkpt><trkpt lat="45.787040040516814" lon="9.19618622481987"><ele>336.0</ele><time>2026-04-25T08:32:58Z</time></trkpt><trkpt lat="45.78695695173173" lon="9.196165607198338"><ele>336.0</ele><time>2026-04-25T08:32:59Z</time></trkpt><trkpt lat="45.78687336460206" lon="9.196147488141658"><ele>336.0</ele><time>2026-04-25T08:33:00Z</time></trkpt><trkpt lat="45.786787350608364" lon="9.196134225171404"><ele>336.0</ele><time>2026-04-25T08:33:01Z</time></trkpt><trkpt lat="45.7867019264266" lon="9.196123092860143"><ele>336.0</ele><time>2026-04-25T08:33:02Z</time></trkpt><trkpt lat="45.78661609833051" lon="9.196113487628018"><ele>336.0</ele><time>2026-04-25T08:33:03Z</time></trkpt><trkpt lat="45.786528329032386" lon="9.196097865069351"><ele>335.6666666666667</ele><time>2026-04-25T08:33:04Z</time></trkpt><trkpt lat="45.7864403214856" lon="9.196081239603256"><ele>335.3333333333333</ele><time>2026-04-25T08:33:05Z</time></trkpt><trkpt lat="45.78635374380512" lon="9.1960649905319"><ele>335.0</ele><time>2026-04-25T08:33:06Z</time></trkpt><trkpt lat="45.78626945908641" lon="9.196049731027962"><ele>334.66666666666663</ele><time>2026-04-25T08:33:07Z</time></trkpt><trkpt lat="45.78618261263722" lon="9.196035216462807"><ele>334.3333333333333</ele><time>2026-04-25T08:33:08Z</time></trkpt><trkpt lat="45.78609640116445" lon="9.196019047007455"><ele>334.0</ele><time>2026-04-25T08:33:09Z</time></trkpt><trkpt lat="45.78600785999668" lon="9.196005861163703"><ele>333.0</ele><time>2026-04-25T08:33:10Z</time></trkpt><trkpt lat="45.78591790698602" lon="9.195988245197977"><ele>332.0</ele><time>2026-04-25T08:33:11Z</time></trkpt><trkpt lat="45.7858260437103" lon="9.195970617936696"><ele>331.0</ele><time>2026-04-25T08:33:12Z</time></trkpt><trkpt lat="45.785733389878914" lon="9.19595340154759"><ele>330.0</ele><time>2026-04-25T08:33:13Z</time></trkpt><trkpt lat="45.785640883649066" lon="9.19593266782531"><ele>329.0</ele><time>2026-04-25T08:33:14Z</time></trkpt><trkpt lat="45.78554766630121" lon="9.19590410864601"><ele>329.0</ele><time>2026-04-25T08:33:15Z</time></trkpt><trkpt lat="45.78545237495583" lon="9.195870559903273"><ele>329.0</ele><time>2026-04-25T08:33:16Z</time></trkpt><trkpt lat="45.785358736152816" lon="9.195829583698103"><ele>329.0</ele><time>2026-04-25T08:33:17Z</time></trkpt><trkpt lat="45.78526756678621" lon="9.195785852330793"><ele>329.0</ele><time>2026-04-25T08:33:18Z</time></trkpt><trkpt lat="45.78517298404831" lon="9.19573792456464"><ele>329.0</ele><time>2026-04-25T08:33:19Z</time></trkpt><trkpt lat="45.78507896984608" lon="9.195685726846316"><ele>330.0</ele><time>2026-04-25T08:33:20Z</time></trkpt><trkpt lat="45.78498368444771" lon="9.195640737955737"><ele>331.0</ele><time>2026-04-25T08:33:21Z</time></trkpt><trkpt lat="45.78488826906985" lon="9.195591325650156"><ele>332.0</ele><time>2026-04-25T08:33:22Z</time></trkpt><trkpt lat="45.784794052893844" lon="9.195540032321938"><ele>333.0</ele><time>2026-04-25T08:33:23.001Z</time></trkpt><trkpt lat="45.784700662698086" lon="9.19549442223789"><ele>334.0</ele><time>2026-04-25T08:33:24.001Z</time></trkpt><trkpt lat="45.78460778549641" lon="9.195450410478351"><ele>334.0</ele><time>2026-04-25T08:33:25.001Z</time></trkpt><trkpt lat="45.78451737436805" lon="9.195405160861455"><ele>334.0</ele><time>2026-04-25T08:33:26.001Z</time></trkpt><trkpt lat="45.78442967639995" lon="9.195357133050925"><ele>334.0</ele><time>2026-04-25T08:33:27.001Z</time></trkpt><trkpt lat="45.78434251546426" lon="9.195310662836311"><ele>334.0</ele><time>2026-04-25T08:33:28.001Z</time></trkpt><trkpt lat="45.78425331789573" lon="9.195264161193622"><ele>334.0</ele><time>2026-04-25T08:33:29.001Z</time></trkpt><trkpt lat="45.784162264391526" lon="9.195218753878468"><ele>333.79999999999995</ele><time>2026-04-25T08:33:30.001Z</time></trkpt><trkpt lat="45.78407147405644" lon="9.195170873064951"><ele>333.59999999999997</ele><time>2026-04-25T08:33:31.001Z</time></trkpt><trkpt lat="45.78397864100899" lon="9.195123398311711"><ele>333.4</ele><time>2026-04-25T08:33:32.001Z</time></trkpt><trkpt lat="45.78388503198523" lon="9.195078303260527"><ele>333.2</ele><time>2026-04-25T08:33:33.001Z</time></trkpt><trkpt lat="45.78379180747972" lon="9.195032563294333"><ele>333.0</ele><time>2026-04-25T08:33:34.001Z</time></trkpt><trkpt lat="45.78369869681108" lon="9.194987294126246"><ele>333.0</ele><time>2026-04-25T08:33:35.001Z</time></trkpt><trkpt lat="45.78360717329075" lon="9.194940883896512"><ele>333.0</ele><time>2026-04-25T08:33:36.001Z</time></trkpt><trkpt lat="45.783521037490424" lon="9.194895113540358"><ele>333.0</ele><time>2026-04-25T08:33:37.001Z</time></trkpt><trkpt lat="45.783433871096186" lon="9.194849591836"><ele>333.0</ele><time>2026-04-25T08:33:38.001Z</time></trkpt><trkpt lat="45.78334775471177" lon="9.194804624801417"><ele>333.0</ele><time>2026-04-25T08:33:39.001Z</time></trkpt><trkpt lat="45.78326307098717" lon="9.194760851318778"><ele>333.2</ele><time>2026-04-25T08:33:40.001Z</time></trkpt><trkpt lat="45.78317490307702" lon="9.19471581207171"><ele>333.4</ele><time>2026-04-25T08:33:41.001Z</time></trkpt><trkpt lat="45.78308916504799" lon="9.194664727429839"><ele>333.59999999999997</ele><time>2026-04-25T08:33:42.001Z</time></trkpt><trkpt lat="45.78300658522583" lon="9.194607290330008"><ele>333.79999999999995</ele><time>2026-04-25T08:33:43.001Z</time></trkpt><trkpt lat="45.78292647558939" lon="9.194546006256738"><ele>334.0</ele><time>2026-04-25T08:33:44.001Z</time></trkpt><trkpt lat="45.78284752163687" lon="9.194479705885055"><ele>334.0</ele><time>2026-04-25T08:33:45.001Z</time></trkpt><trkpt lat="45.78277023018387" lon="9.194417837158776"><ele>334.0</ele><time>2026-04-25T08:33:46.001Z</time></trkpt><trkpt lat="45.78269500356101" lon="9.194353308469914"><ele>334.0</ele><time>2026-04-25T08:33:47.001Z</time></trkpt><trkpt lat="45.78262081248848" lon="9.194285103242791"><ele>334.0</ele><time>2026-04-25T08:33:48.001Z</time></trkpt><trkpt lat="45.782545871510656" lon="9.19421626608501"><ele>334.0</ele><time>2026-04-25T08:33:49Z</time></trkpt><trkpt lat="45.78247146529384" lon="9.194147992427855"><ele>334.0</ele><time>2026-04-25T08:33:50Z</time></trkpt><trkpt lat="45.78239851668601" lon="9.19408278426704"><ele>333.66666666666663</ele><time>2026-04-25T08:33:51Z</time></trkpt><trkpt lat="45.782323037278495" lon="9.194021226273748"><ele>333.3333333333333</ele><time>2026-04-25T08:33:52Z</time></trkpt><trkpt lat="45.78224960003988" lon="9.193954829335945"><ele>333.0</ele><time>2026-04-25T08:33:53Z</time></trkpt><trkpt lat="45.78217644792324" lon="9.193889458959058"><ele>332.6666666666667</ele><time>2026-04-25T08:33:54Z</time></trkpt><trkpt lat="45.78210437588857" lon="9.19382799057383"><ele>332.33333333333337</ele><time>2026-04-25T08:33:55Z</time></trkpt><trkpt lat="45.782028480501054" lon="9.193768260009174"><ele>332.0</ele><time>2026-04-25T08:33:56Z</time></trkpt><trkpt lat="45.781952659861346" lon="9.193708635472674"><ele>332.33333333333337</ele><time>2026-04-25T08:33:57Z</time></trkpt><trkpt lat="45.781876674820985" lon="9.193652533304594"><ele>332.6666666666667</ele><time>2026-04-25T08:33:58Z</time></trkpt><trkpt lat="45.781798300301276" lon="9.193600187126979"><ele>333.0</ele><time>2026-04-25T08:33:59Z</time></trkpt><trkpt lat="45.78171950976212" lon="9.19355114964982"><ele>333.3333333333333</ele><time>2026-04-25T08:34:00Z</time></trkpt><trkpt lat="45.78164052467186" lon="9.193506083790444"><ele>333.66666666666663</ele><time>2026-04-25T08:34:01Z</time></trkpt><trkpt lat="45.7815603767586" lon="9.193463568507982"><ele>334.0</ele><time>2026-04-25T08:34:02Z</time></trkpt><trkpt lat="45.78147816221654" lon="9.193418804869872"><ele>334.0</ele><time>2026-04-25T08:34:03Z</time></trkpt><trkpt lat="45.7813942663121" lon="9.19337265873789"><ele>334.0</ele><time>2026-04-25T08:34:04Z</time></trkpt><trkpt lat="45.78130832003035" lon="9.193322750289417"><ele>334.0</ele><time>2026-04-25T08:34:05Z</time></trkpt><trkpt lat="45.7812257993562" lon="9.193276232041383"><ele>334.0</ele><time>2026-04-25T08:34:06Z</time></trkpt><trkpt lat="45.781144102335816" lon="9.19323366231974"><ele>334.0</ele><time>2026-04-25T08:34:07Z</time></trkpt><trkpt lat="45.78106173243351" lon="9.193190892526388"><ele>334.0</ele><time>2026-04-25T08:34:08Z</time></trkpt><trkpt lat="45.78097917813594" lon="9.193145490210405"><ele>334.8333333333333</ele><time>2026-04-25T08:34:09Z</time></trkpt><trkpt lat="45.78089339958191" lon="9.193098467273876"><ele>335.66666666666663</ele><time>2026-04-25T08:34:10Z</time></trkpt><trkpt lat="45.780809973858496" lon="9.193054634312336"><ele>336.5</ele><time>2026-04-25T08:34:11Z</time></trkpt><trkpt lat="45.780726362577376" lon="9.19301366802997"><ele>337.3333333333333</ele><time>2026-04-25T08:34:12Z</time></trkpt><trkpt lat="45.78064089318774" lon="9.19297577969601"><ele>338.1666666666667</ele><time>2026-04-25T08:34:13Z</time></trkpt><trkpt lat="45.78055487206918" lon="9.192944996662423"><ele>339.0</ele><time>2026-04-25T08:34:14Z</time></trkpt><trkpt lat="45.7804686302895" lon="9.192914166241508"><ele>339.0</ele><time>2026-04-25T08:34:15Z</time></trkpt><trkpt lat="45.780380187452906" lon="9.192890140532745"><ele>339.0</ele><time>2026-04-25T08:34:16Z</time></trkpt><trkpt lat="45.78029412264222" lon="9.19287353468037"><ele>339.0</ele><time>2026-04-25T08:34:17Z</time></trkpt><trkpt lat="45.78020445414524" lon="9.192859585921314"><ele>339.0</ele><time>2026-04-25T08:34:18Z</time></trkpt><trkpt lat="45.7801167021114" lon="9.192851906240664"><ele>339.0</ele><time>2026-04-25T08:34:19Z</time></trkpt><trkpt lat="45.7800289629886" lon="9.19284517573892"><ele>339.0</ele><time>2026-04-25T08:34:20Z</time></trkpt><trkpt lat="45.77994297873608" lon="9.192852604892996"><ele>337.4</ele><time>2026-04-25T08:34:21Z</time></trkpt><trkpt lat="45.7798543049475" lon="9.192859318160979"><ele>335.79999999999995</ele><time>2026-04-25T08:34:22Z</time></trkpt><trkpt lat="45.77976446768179" lon="9.192874045263817"><ele>334.20000000000005</ele><time>2026-04-25T08:34:23Z</time></trkpt><trkpt lat="45.77967442934767" lon="9.19289204131401"><ele>332.6</ele><time>2026-04-25T08:34:24Z</time></trkpt><trkpt lat="45.77958692008123" lon="9.192913829833675"><ele>331.0</ele><time>2026-04-25T08:34:25Z</time></trkpt><trkpt lat="45.7794974317579" lon="9.192938232100028"><ele>331.0</ele><time>2026-04-25T08:34:26Z</time></trkpt><trkpt lat="45.779408018780416" lon="9.192969276701461"><ele>331.0</ele><time>2026-04-25T08:34:27Z</time></trkpt><trkpt lat="45.779321477882526" lon="9.19301686298686"><ele>331.0</ele><time>2026-04-25T08:34:28Z</time></trkpt><trkpt lat="45.77923259956037" lon="9.193052823567559"><ele>331.0</ele><time>2026-04-25T08:34:29Z</time></trkpt><trkpt lat="45.77914716899255" lon="9.19309578849033"><ele>331.0</ele><time>2026-04-25T08:34:30Z</time></trkpt><trkpt lat="45.77905966189585" lon="9.193134248661309"><ele>330.8</ele><time>2026-04-25T08:34:31Z</time></trkpt><trkpt lat="45.7789716970483" lon="9.193174475014668"><ele>330.6</ele><time>2026-04-25T08:34:32Z</time></trkpt><trkpt lat="45.77888239129138" lon="9.193217566589793"><ele>330.4</ele><time>2026-04-25T08:34:33Z</time></trkpt><trkpt lat="45.77879523941871" lon="9.193257389710297"><ele>330.2</ele><time>2026-04-25T08:34:34Z</time></trkpt><trkpt lat="45.77870932051718" lon="9.19329848985023"><ele>330.0</ele><time>2026-04-25T08:34:35Z</time></trkpt><trkpt lat="45.7786215795338" lon="9.193336598364615"><ele>330.0</ele><time>2026-04-25T08:34:36Z</time></trkpt><trkpt lat="45.77852882571578" lon="9.193373909342322"><ele>330.0</ele><time>2026-04-25T08:34:37Z</time></trkpt><trkpt lat="45.77843732497561" lon="9.193404097928429"><ele>330.0</ele><time>2026-04-25T08:34:38Z</time></trkpt><trkpt lat="45.77834390525275" lon="9.193432205278555"><ele>330.0</ele><time>2026-04-25T08:34:39Z</time></trkpt><trkpt lat="45.77825313785962" lon="9.193455361286391"><ele>330.0</ele><time>2026-04-25T08:34:40Z</time></trkpt><trkpt lat="45.77815930172287" lon="9.193476083361709"><ele>329.6</ele><time>2026-04-25T08:34:41Z</time></trkpt><trkpt lat="45.778066503293324" lon="9.193495526621124"><ele>329.2</ele><time>2026-04-25T08:34:42Z</time></trkpt><trkpt lat="45.77797677461502" lon="9.193518339441344"><ele>328.79999999999995</ele><time>2026-04-25T08:34:43Z</time></trkpt><trkpt lat="45.77788853900774" lon="9.193544026186549"><ele>328.4</ele><time>2026-04-25T08:34:44Z</time></trkpt><trkpt lat="45.77779863508771" lon="9.193567558462416"><ele>328.0</ele><time>2026-04-25T08:34:45Z</time></trkpt><trkpt lat="45.777706028486236" lon="9.193592796076807"><ele>328.4</ele><time>2026-04-25T08:34:46Z</time></trkpt><trkpt lat="45.77761431203071" lon="9.193616432557704"><ele>328.79999999999995</ele><time>2026-04-25T08:34:47Z</time></trkpt><trkpt lat="45.77752481766718" lon="9.193642189136861"><ele>329.2</ele><time>2026-04-25T08:34:48Z</time></trkpt><trkpt lat="45.777437413040595" lon="9.193666168416826"><ele>329.6</ele><time>2026-04-25T08:34:49Z</time></trkpt><trkpt lat="45.7773468169365" lon="9.193688525782395"><ele>330.0</ele><time>2026-04-25T08:34:50Z</time></trkpt><trkpt lat="45.777256081736375" lon="9.193708702976844"><ele>330.0</ele><time>2026-04-25T08:34:51Z</time></trkpt><trkpt lat="45.77716562278618" lon="9.193731257622941"><ele>330.0</ele><time>2026-04-25T08:34:52Z</time></trkpt><trkpt lat="45.777077512103915" lon="9.193753965401422"><ele>330.0</ele><time>2026-04-25T08:34:53Z</time></trkpt><trkpt lat="45.776989667057165" lon="9.193778444779547"><ele>330.0</ele><time>2026-04-25T08:34:54Z</time></trkpt><trkpt lat="45.77690005059977" lon="9.193800988520728"><ele>330.0</ele><time>2026-04-25T08:34:55Z</time></trkpt><trkpt lat="45.77681003068345" lon="9.19382264705375"><ele>330.0</ele><time>2026-04-25T08:34:56Z</time></trkpt><trkpt lat="45.776720468742134" lon="9.19384539521529"><ele>330.0</ele><time>2026-04-25T08:34:57Z</time></trkpt><trkpt lat="45.776634301906626" lon="9.193869133003671"><ele>330.0</ele><time>2026-04-25T08:34:58Z</time></trkpt><trkpt lat="45.77654803022119" lon="9.193891392279438"><ele>330.0</ele><time>2026-04-25T08:34:59Z</time></trkpt><trkpt lat="45.776458276021735" lon="9.193908440519337"><ele>330.0</ele><time>2026-04-25T08:35:00Z</time></trkpt><trkpt lat="45.77636701233769" lon="9.193926112110598"><ele>330.0</ele><time>2026-04-25T08:35:01Z</time></trkpt><trkpt lat="45.776275018167404" lon="9.19394032766192"><ele>330.0</ele><time>2026-04-25T08:35:02Z</time></trkpt><trkpt lat="45.776181903346306" lon="9.193948273867743"><ele>330.0</ele><time>2026-04-25T08:35:03Z</time></trkpt><trkpt lat="45.77609248970565" lon="9.193942742458336"><ele>330.0</ele><time>2026-04-25T08:35:04Z</time></trkpt><trkpt lat="45.77600784160493" lon="9.193933621095171"><ele>330.0</ele><time>2026-04-25T08:35:05Z</time></trkpt><trkpt lat="45.775924841454646" lon="9.193924743305828"><ele>330.0</ele><time>2026-04-25T08:35:06Z</time></trkpt><trkpt lat="45.77584504767253" lon="9.193914053132781"><ele>330.0</ele><time>2026-04-25T08:35:07Z</time></trkpt><trkpt lat="45.77576935638281" lon="9.193905325427892"><ele>329.8333333333333</ele><time>2026-04-25T08:35:08Z</time></trkpt><trkpt lat="45.775697460143085" lon="9.193892635054311"><ele>329.6666666666667</ele><time>2026-04-25T08:35:09Z</time></trkpt><trkpt lat="45.77562583028425" lon="9.193880595688327"><ele>329.5</ele><time>2026-04-25T08:35:10Z</time></trkpt><trkpt lat="45.77555498670413" lon="9.193875929261909"><ele>329.33333333333337</ele><time>2026-04-25T08:35:11Z</time></trkpt><trkpt lat="45.77548666244247" lon="9.193871076953368"><ele>329.1666666666667</ele><time>2026-04-25T08:35:12Z</time></trkpt><trkpt lat="45.77536789068658" lon="9.193861748035891"><ele>329.0</ele><time>2026-04-25T08:35:14Z</time></trkpt><trkpt lat="45.77526870931159" lon="9.193848237314109"><ele>329.0</ele><time>2026-04-25T08:35:16Z</time></trkpt><trkpt lat="45.77519065467608" lon="9.193829986667303"><ele>329.0</ele><time>2026-04-25T08:35:18Z</time></trkpt><trkpt lat="45.775116333430404" lon="9.193816932230476"><ele>329.0</ele><time>2026-04-25T08:35:20Z</time></trkpt><trkpt lat="45.77504928050073" lon="9.19379908377295"><ele>329.0</ele><time>2026-04-25T08:35:23Z</time></trkpt><trkpt lat="45.77497146102469" lon="9.193799185184297"><ele>329.0</ele><time>2026-04-25T08:35:26Z</time></trkpt><trkpt lat="45.774897382655986" lon="9.193788060690494"><ele>329.0</ele><time>2026-04-25T08:35:28Z</time></trkpt><trkpt lat="45.774813332007135" lon="9.193779140214376"><ele>329.0</ele><time>2026-04-25T08:35:30.001Z</time></trkpt><trkpt lat="45.77471503700886" lon="9.19377837871112"><ele>329.0</ele><time>2026-04-25T08:35:32.001Z</time></trkpt><trkpt lat="45.77460282680385" lon="9.19376435014398"><ele>329.0</ele><time>2026-04-25T08:35:34.001Z</time></trkpt><trkpt lat="45.77453969842644" lon="9.19376015443619"><ele>329.0</ele><time>2026-04-25T08:35:35.001Z</time></trkpt><trkpt lat="45.7744707595669" lon="9.193751472150469"><ele>329.0</ele><time>2026-04-25T08:35:36.001Z</time></trkpt><trkpt lat="45.77439747190951" lon="9.193741762581864"><ele>329.0</ele><time>2026-04-25T08:35:37.001Z</time></trkpt><trkpt lat="45.774321024013915" lon="9.19373462150504"><ele>329.0</ele><time>2026-04-25T08:35:38.001Z</time></trkpt><trkpt lat="45.774245497000145" lon="9.193725872128647"><ele>329.0</ele><time>2026-04-25T08:35:39.001Z</time></trkpt><trkpt lat="45.77417185195897" lon="9.193714974158388"><ele>329.0</ele><time>2026-04-25T08:35:40.001Z</time></trkpt><trkpt lat="45.77409942747402" lon="9.193708531640084"><ele>329.0</ele><time>2026-04-25T08:35:41.001Z</time></trkpt><trkpt lat="45.77401973572439" lon="9.193697405123366"><ele>329.0</ele><time>2026-04-25T08:35:42.001Z</time></trkpt><trkpt lat="45.773938630065615" lon="9.193683994268545"><ele>329.0</ele><time>2026-04-25T08:35:43.001Z</time></trkpt><trkpt lat="45.7738548877908" lon="9.193677890487114"><ele>329.0</ele><time>2026-04-25T08:35:44.001Z</time></trkpt><trkpt lat="45.773770386791846" lon="9.193669279427802"><ele>329.0</ele><time>2026-04-25T08:35:45.001Z</time></trkpt><trkpt lat="45.77368729899786" lon="9.193659865350329"><ele>329.0</ele><time>2026-04-25T08:35:46.001Z</time></trkpt><trkpt lat="45.77359620289793" lon="9.19365182286534"><ele>329.0</ele><time>2026-04-25T08:35:47.001Z</time></trkpt><trkpt lat="45.77350594154801" lon="9.193643508644207"><ele>329.0</ele><time>2026-04-25T08:35:48.001Z</time></trkpt><trkpt lat="45.77341445532557" lon="9.193635883764667"><ele>329.0</ele><time>2026-04-25T08:35:49.001Z</time></trkpt><trkpt lat="45.773327859477746" lon="9.193628560137565"><ele>328.2</ele><time>2026-04-25T08:35:50.001Z</time></trkpt><trkpt lat="45.773242128553946" lon="9.19362836101536"><ele>327.4</ele><time>2026-04-25T08:35:51.001Z</time></trkpt><trkpt lat="45.773154353632236" lon="9.193636439056885"><ele>326.6</ele><time>2026-04-25T08:35:52.001Z</time></trkpt><trkpt lat="45.77306437868247" lon="9.193661359920325"><ele>325.8</ele><time>2026-04-25T08:35:53.001Z</time></trkpt><trkpt lat="45.77297474956306" lon="9.193698449556267"><ele>325.0</ele><time>2026-04-25T08:35:54.001Z</time></trkpt><trkpt lat="45.77288544905295" lon="9.193745555617609"><ele>325.0</ele><time>2026-04-25T08:35:55.001Z</time></trkpt><trkpt lat="45.77279795311237" lon="9.193804683091438"><ele>325.0</ele><time>2026-04-25T08:35:56.001Z</time></trkpt><trkpt lat="45.7727148136902" lon="9.193879290241773"><ele>325.0</ele><time>2026-04-25T08:35:57.001Z</time></trkpt><trkpt lat="45.772637109867986" lon="9.193957429464755"><ele>325.0</ele><time>2026-04-25T08:35:58Z</time></trkpt><trkpt lat="45.772565099716566" lon="9.194039907992588"><ele>325.0</ele><time>2026-04-25T08:35:59Z</time></trkpt><trkpt lat="45.77249647964617" lon="9.194126309423321"><ele>325.0</ele><time>2026-04-25T08:36:00Z</time></trkpt><trkpt lat="45.77242896479479" lon="9.194211700771266"><ele>325.0</ele><time>2026-04-25T08:36:01Z</time></trkpt><trkpt lat="45.772360355919815" lon="9.194301263688292"><ele>325.0</ele><time>2026-04-25T08:36:02Z</time></trkpt><trkpt lat="45.77228874269399" lon="9.19439165558845"><ele>325.0</ele><time>2026-04-25T08:36:03Z</time></trkpt><trkpt lat="45.77221859050535" lon="9.194482325730368"><ele>325.0</ele><time>2026-04-25T08:36:04Z</time></trkpt><trkpt lat="45.77215006238547" lon="9.194573649311543"><ele>325.0</ele><time>2026-04-25T08:36:05Z</time></trkpt><trkpt lat="45.772080677927725" lon="9.194662802450702"><ele>325.0</ele><time>2026-04-25T08:36:06Z</time></trkpt><trkpt lat="45.77201460460393" lon="9.194750554807667"><ele>325.0</ele><time>2026-04-25T08:36:07Z</time></trkpt><trkpt lat="45.77194918846133" lon="9.194836847893217"><ele>325.0</ele><time>2026-04-25T08:36:08Z</time></trkpt><trkpt lat="45.77188474664837" lon="9.194922708786752"><ele>325.0</ele><time>2026-04-25T08:36:09Z</time></trkpt><trkpt lat="45.771816793757445" lon="9.195008057205843"><ele>325.4</ele><time>2026-04-25T08:36:10Z</time></trkpt><trkpt lat="45.77174660728986" lon="9.195093758997873"><ele>325.8</ele><time>2026-04-25T08:36:11Z</time></trkpt><trkpt lat="45.77167729120731" lon="9.195183279059913"><ele>326.20000000000005</ele><time>2026-04-25T08:36:12Z</time></trkpt><trkpt lat="45.771606711771994" lon="9.19527404492627"><ele>326.6</ele><time>2026-04-25T08:36:13Z</time></trkpt><trkpt lat="45.77153699607231" lon="9.195364334857949"><ele>327.0</ele><time>2026-04-25T08:36:14Z</time></trkpt><trkpt lat="45.771467478602624" lon="9.19545141509521"><ele>327.0</ele><time>2026-04-25T08:36:15Z</time></trkpt><trkpt lat="45.771400054699924" lon="9.195537770673981"><ele>327.0</ele><time>2026-04-25T08:36:16Z</time></trkpt><trkpt lat="45.771335353319394" lon="9.195623781193305"><ele>327.0</ele><time>2026-04-25T08:36:17Z</time></trkpt><trkpt lat="45.77126488276224" lon="9.195710192488818"><ele>327.0</ele><time>2026-04-25T08:36:18Z</time></trkpt><trkpt lat="45.77119466872481" lon="9.195799100727859"><ele>327.0</ele><time>2026-04-25T08:36:19Z</time></trkpt><trkpt lat="45.7711249770783" lon="9.19589068375744"><ele>327.3333333333333</ele><time>2026-04-25T08:36:20Z</time></trkpt><trkpt lat="45.771057646201825" lon="9.19597808716547"><ele>327.6666666666667</ele><time>2026-04-25T08:36:21Z</time></trkpt><trkpt lat="45.7709903089144" lon="9.196063524808885"><ele>328.0</ele><time>2026-04-25T08:36:22Z</time></trkpt><trkpt lat="45.770925487544346" lon="9.196145603938527"><ele>328.33333333333337</ele><time>2026-04-25T08:36:23Z</time></trkpt><trkpt lat="45.770860656467526" lon="9.1962317804886"><ele>328.6666666666667</ele><time>2026-04-25T08:36:24Z</time></trkpt><trkpt lat="45.770795311776006" lon="9.196322555007777"><ele>329.0</ele><time>2026-04-25T08:36:25Z</time></trkpt><trkpt lat="45.77072869280963" lon="9.196410540336283"><ele>328.1666666666667</ele><time>2026-04-25T08:36:26Z</time></trkpt><trkpt lat="45.77066301356052" lon="9.19649378054598"><ele>327.33333333333337</ele><time>2026-04-25T08:36:27Z</time></trkpt><trkpt lat="45.77059932017709" lon="9.196576645541453"><ele>326.5</ele><time>2026-04-25T08:36:28Z</time></trkpt><trkpt lat="45.77053912988881" lon="9.196657816666995"><ele>325.6666666666667</ele><time>2026-04-25T08:36:29Z</time></trkpt><trkpt lat="45.770480923737814" lon="9.196735165511434"><ele>324.8333333333333</ele><time>2026-04-25T08:36:30Z</time></trkpt><trkpt lat="45.77042136855256" lon="9.196811672156805"><ele>324.0</ele><time>2026-04-25T08:36:31Z</time></trkpt><trkpt lat="45.77036258587608" lon="9.196887402796191"><ele>324.0</ele><time>2026-04-25T08:36:32Z</time></trkpt><trkpt lat="45.77030511435204" lon="9.196961354971767"><ele>324.0</ele><time>2026-04-25T08:36:33Z</time></trkpt><trkpt lat="45.77024915277142" lon="9.197032125366475"><ele>324.0</ele><time>2026-04-25T08:36:34Z</time></trkpt><trkpt lat="45.77019559199818" lon="9.197102803519213"><ele>324.0</ele><time>2026-04-25T08:36:35Z</time></trkpt><trkpt lat="45.770151129916" lon="9.197168101641951"><ele>324.0</ele><time>2026-04-25T08:36:36Z</time></trkpt><trkpt lat="45.770072694682405" lon="9.19726975572987"><ele>324.0</ele><time>2026-04-25T08:36:38Z</time></trkpt><trkpt lat="45.77000948912535" lon="9.19733134937327"><ele>323.8571428571429</ele><time>2026-04-25T08:36:40Z</time></trkpt><trkpt lat="45.769951815318045" lon="9.1973919945052"><ele>323.7142857142857</ele><time>2026-04-25T08:36:42Z</time></trkpt><trkpt lat="45.76990389872563" lon="9.197453418511422"><ele>323.57142857142856</ele><time>2026-04-25T08:36:44Z</time></trkpt><trkpt lat="45.7698571708285" lon="9.197514226069057"><ele>323.42857142857144</ele><time>2026-04-25T08:36:47Z</time></trkpt><trkpt lat="45.769799054663444" lon="9.197558463603388"><ele>323.2857142857143</ele><time>2026-04-25T08:37:13Z</time></trkpt><trkpt lat="45.76973856083218" lon="9.197614870332202"><ele>323.14285714285717</ele><time>2026-04-25T08:37:15Z</time></trkpt><trkpt lat="45.76965647804153" lon="9.197686897229374"><ele>323.0</ele><time>2026-04-25T08:37:17Z</time></trkpt><trkpt lat="45.76954419692284" lon="9.197761441595441"><ele>323.0</ele><time>2026-04-25T08:37:19Z</time></trkpt><trkpt lat="45.76947256151001" lon="9.197795578851832"><ele>323.0</ele><time>2026-04-25T08:37:20Z</time></trkpt><trkpt lat="45.76941705495892" lon="9.197845568136202"><ele>323.0</ele><time>2026-04-25T08:37:21Z</time></trkpt><trkpt lat="45.76935248309248" lon="9.197900108799956"><ele>323.0</ele><time>2026-04-25T08:37:22Z</time></trkpt><trkpt lat="45.76928184838402" lon="9.19795418859473"><ele>323.0</ele><time>2026-04-25T08:37:23Z</time></trkpt><trkpt lat="45.76920552793671" lon="9.19801358270448"><ele>323.0</ele><time>2026-04-25T08:37:24Z</time></trkpt><trkpt lat="45.769128940405935" lon="9.198079003950154"><ele>323.0</ele><time>2026-04-25T08:37:25Z</time></trkpt><trkpt lat="45.769049618890456" lon="9.198137371432198"><ele>323.0</ele><time>2026-04-25T08:37:26Z</time></trkpt><trkpt lat="45.76896921118925" lon="9.198195336580854"><ele>323.0</ele><time>2026-04-25T08:37:27Z</time></trkpt><trkpt lat="45.768889505684065" lon="9.19825593411603"><ele>323.0</ele><time>2026-04-25T08:37:28Z</time></trkpt><trkpt lat="45.76881021607561" lon="9.198317536658797"><ele>323.0</ele><time>2026-04-25T08:37:29Z</time></trkpt><trkpt lat="45.76872831879853" lon="9.198378438371726"><ele>323.2</ele><time>2026-04-25T08:37:30Z</time></trkpt><trkpt lat="45.76864648828852" lon="9.198438687111606"><ele>323.4</ele><time>2026-04-25T08:37:31Z</time></trkpt><trkpt lat="45.768566988773394" lon="9.19850280478557"><ele>323.59999999999997</ele><time>2026-04-25T08:37:32Z</time></trkpt><trkpt lat="45.7684897055344" lon="9.198575082136221"><ele>323.79999999999995</ele><time>2026-04-25T08:37:33Z</time></trkpt><trkpt lat="45.7684139617942" lon="9.198649728695726"><ele>324.0</ele><time>2026-04-25T08:37:34Z</time></trkpt><trkpt lat="45.768338959918665" lon="9.198720941903446"><ele>322.8333333333333</ele><time>2026-04-25T08:37:35.001Z</time></trkpt><trkpt lat="45.76826894355937" lon="9.198792907341952"><ele>321.6666666666667</ele><time>2026-04-25T08:37:36.001Z</time></trkpt><trkpt lat="45.768210014909" lon="9.198854411687217"><ele>320.5</ele><time>2026-04-25T08:37:37.001Z</time></trkpt><trkpt lat="45.76815550642607" lon="9.198906889932587"><ele>319.33333333333337</ele><time>2026-04-25T08:37:38.001Z</time></trkpt><trkpt lat="45.76807368758965" lon="9.19898791144143"><ele>318.1666666666667</ele><time>2026-04-25T08:37:40.001Z</time></trkpt><trkpt lat="45.767995908119936" lon="9.19902538393352"><ele>317.0</ele><time>2026-04-25T08:37:42.001Z</time></trkpt><trkpt lat="45.76791562677098" lon="9.19896124451998"><ele>317.0</ele><time>2026-04-25T08:37:44.001Z</time></trkpt><trkpt lat="45.76785505258575" lon="9.198880222476573"><ele>317.0</ele><time>2026-04-25T08:37:46.001Z</time></trkpt><trkpt lat="45.76777832474717" lon="9.198800601249953"><ele>317.0</ele><time>2026-04-25T08:37:48.001Z</time></trkpt><trkpt lat="45.76772125124434" lon="9.198850953799656"><ele>317.0</ele><time>2026-04-25T08:37:49.001Z</time></trkpt><trkpt lat="45.76762606046877" lon="9.19897809328118"><ele>317.0</ele><time>2026-04-25T08:37:51.001Z</time></trkpt><trkpt lat="45.76757791331854" lon="9.199057570553459"><ele>317.0</ele><time>2026-04-25T08:37:52.001Z</time></trkpt><trkpt lat="45.76752870504161" lon="9.199137335323835"><ele>316.83333333333337</ele><time>2026-04-25T08:37:53.001Z</time></trkpt><trkpt lat="45.76747762879664" lon="9.199216131538108"><ele>316.6666666666667</ele><time>2026-04-25T08:37:54.001Z</time></trkpt><trkpt lat="45.76741867135327" lon="9.199291076330072"><ele>316.5</ele><time>2026-04-25T08:37:55.001Z</time></trkpt><trkpt lat="45.767348044834314" lon="9.199354726043996"><ele>316.3333333333333</ele><time>2026-04-25T08:37:56.001Z</time></trkpt><trkpt lat="45.76727480943997" lon="9.19941044417731"><ele>316.16666666666663</ele><time>2026-04-25T08:37:57.001Z</time></trkpt><trkpt lat="45.76720242997425" lon="9.199460200542136"><ele>316.0</ele><time>2026-04-25T08:37:58.001Z</time></trkpt><trkpt lat="45.76712963557637" lon="9.199511200422448"><ele>316.0</ele><time>2026-04-25T08:37:59.001Z</time></trkpt><trkpt lat="45.767053606158115" lon="9.199560794838694"><ele>316.0</ele><time>2026-04-25T08:38:00.001Z</time></trkpt><trkpt lat="45.76697669768629" lon="9.199614526197873"><ele>316.0</ele><time>2026-04-25T08:38:01.001Z</time></trkpt><trkpt lat="45.766899542543825" lon="9.199668468028111"><ele>316.0</ele><time>2026-04-25T08:38:02.001Z</time></trkpt><trkpt lat="45.76682598041546" lon="9.1997236317903"><ele>316.0</ele><time>2026-04-25T08:38:03.001Z</time></trkpt><trkpt lat="45.766754797497406" lon="9.199774938882816"><ele>316.0</ele><time>2026-04-25T08:38:04.001Z</time></trkpt><trkpt lat="45.76668366718258" lon="9.199826767187092"><ele>315.66666666666663</ele><time>2026-04-25T08:38:05.001Z</time></trkpt><trkpt lat="45.76661039817546" lon="9.199874008682292"><ele>315.3333333333333</ele><time>2026-04-25T08:38:06.001Z</time></trkpt><trkpt lat="45.76653822425032" lon="9.199918579250863"><ele>315.0</ele><time>2026-04-25T08:38:07.001Z</time></trkpt><trkpt lat="45.76646535577709" lon="9.199957406330896"><ele>314.6666666666667</ele><time>2026-04-25T08:38:08.001Z</time></trkpt><trkpt lat="45.76639057871719" lon="9.1999923626608"><ele>314.33333333333337</ele><time>2026-04-25T08:38:09.001Z</time></trkpt><trkpt lat="45.766313333754795" lon="9.200020585835485"><ele>314.0</ele><time>2026-04-25T08:38:10Z</time></trkpt><trkpt lat="45.766237751754645" lon="9.200045439908495"><ele>313.99999999999994</ele><time>2026-04-25T08:38:11Z</time></trkpt><trkpt lat="45.76616132382611" lon="9.200065926954625"><ele>314.0</ele><time>2026-04-25T08:38:12Z</time></trkpt><trkpt lat="45.766089193501195" lon="9.200079349350165"><ele>314.0</ele><time>2026-04-25T08:38:13Z</time></trkpt><trkpt lat="45.766016298683375" lon="9.200090846219263"><ele>314.0</ele><time>2026-04-25T08:38:14Z</time></trkpt><trkpt lat="45.76594158085598" lon="9.200101509876479"><ele>314.0</ele><time>2026-04-25T08:38:15Z</time></trkpt><trkpt lat="45.765867420524174" lon="9.200116006499007"><ele>313.99999999999994</ele><time>2026-04-25T08:38:16Z</time></trkpt><trkpt lat="45.76579348593226" lon="9.200135802673781"><ele>314.0</ele><time>2026-04-25T08:38:17Z</time></trkpt><trkpt lat="45.76571934778781" lon="9.200150728260871"><ele>314.71428571428567</ele><time>2026-04-25T08:38:18Z</time></trkpt><trkpt lat="45.76564482633633" lon="9.200164493441703"><ele>315.42857142857144</ele><time>2026-04-25T08:38:19Z</time></trkpt><trkpt lat="45.76557022385335" lon="9.200176993061513"><ele>316.1428571428571</ele><time>2026-04-25T08:38:20Z</time></trkpt><trkpt lat="45.765496632497076" lon="9.200189102806897"><ele>316.85714285714283</ele><time>2026-04-25T08:38:21Z</time></trkpt><trkpt lat="45.76542180700035" lon="9.200203086921737"><ele>317.57142857142856</ele><time>2026-04-25T08:38:22Z</time></trkpt><trkpt lat="45.76534786941704" lon="9.200217651894041"><ele>318.2857142857143</ele><time>2026-04-25T08:38:23Z</time></trkpt><trkpt lat="45.76527537929078" lon="9.20023207026613"><ele>319.0</ele><time>2026-04-25T08:38:24Z</time></trkpt><trkpt lat="45.765201159739085" lon="9.20024547453325"><ele>319.42857142857144</ele><time>2026-04-25T08:38:25Z</time></trkpt><trkpt lat="45.76512930166928" lon="9.200259370960573"><ele>319.85714285714283</ele><time>2026-04-25T08:38:26Z</time></trkpt><trkpt lat="45.765059930918994" lon="9.200269477625179"><ele>320.2857142857143</ele><time>2026-04-25T08:38:27Z</time></trkpt><trkpt lat="45.764994700526756" lon="9.200284352415615"><ele>320.7142857142857</ele><time>2026-04-25T08:38:28Z</time></trkpt><trkpt lat="45.76492646081332" lon="9.200304890707672"><ele>321.1428571428571</ele><time>2026-04-25T08:38:29Z</time></trkpt><trkpt lat="45.764851335186236" lon="9.200336031485497"><ele>321.57142857142856</ele><time>2026-04-25T08:38:30Z</time></trkpt><trkpt lat="45.76477914127234" lon="9.200378286486217"><ele>322.0</ele><time>2026-04-25T08:38:31Z</time></trkpt><trkpt lat="45.76471103987859" lon="9.200434775282043"><ele>322.0</ele><time>2026-04-25T08:38:32Z</time></trkpt><trkpt lat="45.764649773934224" lon="9.200500320342268"><ele>322.0</ele><time>2026-04-25T08:38:33Z</time></trkpt><trkpt lat="45.76459477418559" lon="9.200582273897952"><ele>322.0</ele><time>2026-04-25T08:38:34Z</time></trkpt><trkpt lat="45.764545112682086" lon="9.200675793770515"><ele>322.0</ele><time>2026-04-25T08:38:35Z</time></trkpt><trkpt lat="45.76450063349169" lon="9.200778273103968"><ele>322.0</ele><time>2026-04-25T08:38:36Z</time></trkpt><trkpt lat="45.7644643258965" lon="9.200897306096053"><ele>322.0</ele><time>2026-04-25T08:38:37Z</time></trkpt><trkpt lat="45.76443123038242" lon="9.201026137433578"><ele>322.20000000000005</ele><time>2026-04-25T08:38:38Z</time></trkpt><trkpt lat="45.76440366738156" lon="9.20115916649419"><ele>322.4</ele><time>2026-04-25T08:38:39Z</time></trkpt><trkpt lat="45.76437430755058" lon="9.201292878866758"><ele>322.6</ele><time>2026-04-25T08:38:40Z</time></trkpt><trkpt lat="45.76434220180053" lon="9.201427800967027"><ele>322.79999999999995</ele><time>2026-04-25T08:38:41Z</time></trkpt><trkpt lat="45.764307349425415" lon="9.201561123690524"><ele>323.0</ele><time>2026-04-25T08:38:42Z</time></trkpt><trkpt lat="45.76427156490761" lon="9.201695311647685"><ele>322.4</ele><time>2026-04-25T08:38:43Z</time></trkpt><trkpt lat="45.76423548439634" lon="9.201828154922927"><ele>321.79999999999995</ele><time>2026-04-25T08:38:44Z</time></trkpt><trkpt lat="45.76419999599835" lon="9.201960593798484"><ele>321.2</ele><time>2026-04-25T08:38:45Z</time></trkpt><trkpt lat="45.76416444914156" lon="9.202093957249579"><ele>320.6</ele><time>2026-04-25T08:38:46Z</time></trkpt><trkpt lat="45.76411891787293" lon="9.202221178073973"><ele>320.0</ele><time>2026-04-25T08:38:47Z</time></trkpt><trkpt lat="45.76406728166476" lon="9.202343383616308"><ele>319.2</ele><time>2026-04-25T08:38:48Z</time></trkpt><trkpt lat="45.76400362633742" lon="9.202456860368555"><ele>318.4</ele><time>2026-04-25T08:38:49Z</time></trkpt><trkpt lat="45.76392998684404" lon="9.202556158642338"><ele>317.6</ele><time>2026-04-25T08:38:50Z</time></trkpt><trkpt lat="45.763850007127026" lon="9.2026379482261"><ele>316.8</ele><time>2026-04-25T08:38:51Z</time></trkpt><trkpt lat="45.76376586046789" lon="9.202705113577437"><ele>316.0</ele><time>2026-04-25T08:38:52Z</time></trkpt><trkpt lat="45.76367756965911" lon="9.202762407420488"><ele>316.0</ele><time>2026-04-25T08:38:53Z</time></trkpt><trkpt lat="45.763583168624095" lon="9.202811604515794"><ele>316.0</ele><time>2026-04-25T08:38:53.999Z</time></trkpt><trkpt lat="45.76348683824648" lon="9.202844973567707"><ele>316.0</ele><time>2026-04-25T08:38:54.999Z</time></trkpt><trkpt lat="45.76339224482821" lon="9.202862443053757"><ele>316.0</ele><time>2026-04-25T08:38:55.999Z</time></trkpt><trkpt lat="45.763296038454236" lon="9.202866654143696"><ele>316.0</ele><time>2026-04-25T08:38:56.999Z</time></trkpt><trkpt lat="45.763199060850624" lon="9.202854509753557"><ele>315.40000000000003</ele><time>2026-04-25T08:38:57.999Z</time></trkpt><trkpt lat="45.76310238401174" lon="9.202837705301866"><ele>314.8</ele><time>2026-04-25T08:38:58.999Z</time></trkpt><trkpt lat="45.7630044344727" lon="9.202816163273878"><ele>314.20000000000005</ele><time>2026-04-25T08:38:59.999Z</time></trkpt><trkpt lat="45.762908664111244" lon="9.202788674150217"><ele>313.6</ele><time>2026-04-25T08:39:00.999Z</time></trkpt><trkpt lat="45.76281903832841" lon="9.202748608696654"><ele>313.0</ele><time>2026-04-25T08:39:01.999Z</time></trkpt><trkpt lat="45.76273990676469" lon="9.202679287147197"><ele>312.8</ele><time>2026-04-25T08:39:02.999Z</time></trkpt><trkpt lat="45.762660879849456" lon="9.20263671047678"><ele>312.6</ele><time>2026-04-25T08:39:03.999Z</time></trkpt><trkpt lat="45.76262553326711" lon="9.202481681892891"><ele>312.4</ele><time>2026-04-25T08:39:04.999Z</time></trkpt><trkpt lat="45.76257145748183" lon="9.202383180894934"><ele>312.2</ele><time>2026-04-25T08:39:05.999Z</time></trkpt><trkpt lat="45.76251700209393" lon="9.20228376159922"><ele>312.0</ele><time>2026-04-25T08:39:06.999Z</time></trkpt><trkpt lat="45.76245384574164" lon="9.202199695344206"><ele>313.0</ele><time>2026-04-25T08:39:07.999Z</time></trkpt><trkpt lat="45.76240218942083" lon="9.202102645438757"><ele>314.0</ele><time>2026-04-25T08:39:08.999Z</time></trkpt><trkpt lat="45.76234931993227" lon="9.202007899242826"><ele>315.0</ele><time>2026-04-25T08:39:09.999Z</time></trkpt><trkpt lat="45.76229831579257" lon="9.201918378473504"><ele>316.0</ele><time>2026-04-25T08:39:10.999Z</time></trkpt><trkpt lat="45.762264572213574" lon="9.201817941175653"><ele>317.0</ele><time>2026-04-25T08:39:11.999Z</time></trkpt><trkpt lat="45.76222512019114" lon="9.201741426671404"><ele>318.0</ele><time>2026-04-25T08:39:12.999Z</time></trkpt><trkpt lat="45.762145052726375" lon="9.201608360439169"><ele>319.8</ele><time>2026-04-25T08:39:14.999Z</time></trkpt><trkpt lat="45.76208881612135" lon="9.201470001551844"><ele>321.6</ele><time>2026-04-25T08:39:16.999Z</time></trkpt><trkpt lat="45.76204909925674" lon="9.201316046504937"><ele>323.40000000000003</ele><time>2026-04-25T08:39:18.999Z</time></trkpt><trkpt lat="45.761995176477626" lon="9.201177530507394"><ele>325.20000000000005</ele><time>2026-04-25T08:39:20.999Z</time></trkpt><trkpt lat="45.76195597413164" lon="9.201026554523969"><ele>327.0</ele><time>2026-04-25T08:39:22.999Z</time></trkpt><trkpt lat="45.76191936542858" lon="9.200869936431758"><ele>327.0</ele><time>2026-04-25T08:39:24.999Z</time></trkpt><trkpt lat="45.76188651195353" lon="9.200709195046882"><ele>327.0</ele><time>2026-04-25T08:39:26.999Z</time></trkpt><trkpt lat="45.761853899086134" lon="9.200550499003782"><ele>327.0</ele><time>2026-04-25T08:39:28.999Z</time></trkpt><trkpt lat="45.76182172085971" lon="9.200392554056117"><ele>327.0</ele><time>2026-04-25T08:39:30.999Z</time></trkpt><trkpt lat="45.76177394525022" lon="9.20025361379043"><ele>327.25</ele><time>2026-04-25T08:39:32.999Z</time></trkpt><trkpt lat="45.76171946022751" lon="9.200113751167262"><ele>327.5</ele><time>2026-04-25T08:39:34.999Z</time></trkpt><trkpt lat="45.761665840322706" lon="9.199984099408375"><ele>327.75</ele><time>2026-04-25T08:39:36.999Z</time></trkpt><trkpt lat="45.76160542055843" lon="9.199843668852099"><ele>328.0</ele><time>2026-04-25T08:39:38.999Z</time></trkpt><trkpt lat="45.7615441000954" lon="9.199697998256624"><ele>329.16666666666663</ele><time>2026-04-25T08:39:41Z</time></trkpt><trkpt lat="45.76148724524083" lon="9.199562935428506"><ele>330.3333333333333</ele><time>2026-04-25T08:39:43Z</time></trkpt><trkpt lat="45.76142783354568" lon="9.199417406821478"><ele>331.5</ele><time>2026-04-25T08:39:45Z</time></trkpt><trkpt lat="45.7613953835811" lon="9.199334969044031"><ele>332.6666666666667</ele><time>2026-04-25T08:39:46Z</time></trkpt><trkpt lat="45.7613608179215" lon="9.199250399214195"><ele>333.83333333333337</ele><time>2026-04-25T08:39:47Z</time></trkpt><trkpt lat="45.76132174997974" lon="9.19916714189841"><ele>335.0</ele><time>2026-04-25T08:39:48Z</time></trkpt><trkpt lat="45.761268745510115" lon="9.199104355365117"><ele>335.2</ele><time>2026-04-25T08:39:49Z</time></trkpt><trkpt lat="45.76119214177889" lon="9.198970643673178"><ele>335.4</ele><time>2026-04-25T08:39:51Z</time></trkpt><trkpt lat="45.76109762386992" lon="9.198850994584431"><ele>335.6</ele><time>2026-04-25T08:39:53Z</time></trkpt><trkpt lat="45.7610439329811" lon="9.198799045398117"><ele>335.8</ele><time>2026-04-25T08:39:54Z</time></trkpt><trkpt lat="45.7609857214607" lon="9.198760260812882"><ele>336.0</ele><time>2026-04-25T08:39:55Z</time></trkpt><trkpt lat="45.76087269791048" lon="9.19871104589885"><ele>335.1666666666667</ele><time>2026-04-25T08:39:57Z</time></trkpt><trkpt lat="45.76077414605729" lon="9.198678356394858"><ele>334.3333333333333</ele><time>2026-04-25T08:39:59Z</time></trkpt><trkpt lat="45.76069258063529" lon="9.198641798744072"><ele>333.5</ele><time>2026-04-25T08:40:01Z</time></trkpt><trkpt lat="45.760629550867506" lon="9.198601533931821"><ele>332.66666666666663</ele><time>2026-04-25T08:40:04Z</time></trkpt><trkpt lat="45.7605593368733" lon="9.198632088253312"><ele>331.8333333333333</ele><time>2026-04-25T08:42:39.999Z</time></trkpt><trkpt lat="45.760468503253634" lon="9.198581183380522"><ele>331.0</ele><time>2026-04-25T08:42:42.999Z</time></trkpt><trkpt lat="45.76038597361378" lon="9.198547581199273"><ele>331.0</ele><time>2026-04-25T08:42:44.999Z</time></trkpt><trkpt lat="45.76028298465248" lon="9.198511608760308"><ele>331.0</ele><time>2026-04-25T08:42:46.999Z</time></trkpt><trkpt lat="45.760175806327865" lon="9.19843945484752"><ele>331.0</ele><time>2026-04-25T08:42:48.999Z</time></trkpt><trkpt lat="45.76006924717252" lon="9.19839852921433"><ele>331.0</ele><time>2026-04-25T08:42:50.999Z</time></trkpt><trkpt lat="45.75995223726603" lon="9.19835433026453"><ele>330.8</ele><time>2026-04-25T08:42:52.999Z</time></trkpt><trkpt lat="45.75983880332396" lon="9.198333311094096"><ele>330.6</ele><time>2026-04-25T08:42:54.999Z</time></trkpt><trkpt lat="45.759723592128815" lon="9.198269551865932"><ele>330.4</ele><time>2026-04-25T08:42:56.999Z</time></trkpt><trkpt lat="45.759600890021254" lon="9.198225258323152"><ele>330.2</ele><time>2026-04-25T08:42:58.999Z</time></trkpt><trkpt lat="45.759538082734615" lon="9.198201483699213"><ele>330.0</ele><time>2026-04-25T08:42:59.999Z</time></trkpt><trkpt lat="45.759471003218444" lon="9.198198280325617"><ele>330.00000000000006</ele><time>2026-04-25T08:43:00.999Z</time></trkpt><trkpt lat="45.75940597193756" lon="9.198176845484104"><ele>330.0</ele><time>2026-04-25T08:43:01.999Z</time></trkpt><trkpt lat="45.759343814332254" lon="9.198155645240275"><ele>330.0</ele><time>2026-04-25T08:43:02.999Z</time></trkpt><trkpt lat="45.759285451207646" lon="9.198114365499658"><ele>330.0</ele><time>2026-04-25T08:43:03.999Z</time></trkpt><trkpt lat="45.75922263847483" lon="9.198092885767144"><ele>330.0</ele><time>2026-04-25T08:43:04.999Z</time></trkpt><trkpt lat="45.75915930953153" lon="9.198071229508182"><ele>330.00000000000006</ele><time>2026-04-25T08:43:05.999Z</time></trkpt><trkpt lat="45.75909683647898" lon="9.19804986593082"><ele>330.0</ele><time>2026-04-25T08:43:06.999Z</time></trkpt><trkpt lat="45.75903272054399" lon="9.198028707545317"><ele>332.3333333333333</ele><time>2026-04-25T08:43:07.999Z</time></trkpt><trkpt lat="45.758969284694324" lon="9.19800782992158"><ele>334.6666666666667</ele><time>2026-04-25T08:43:08.999Z</time></trkpt><trkpt lat="45.7589081020898" lon="9.197982770987453"><ele>337.0</ele><time>2026-04-25T08:43:09.999Z</time></trkpt><trkpt lat="45.75880145349875" lon="9.197924115798964"><ele>339.33333333333337</ele><time>2026-04-25T08:43:11.999Z</time></trkpt><trkpt lat="45.758705099254264" lon="9.197823289474362"><ele>341.6666666666667</ele><time>2026-04-25T08:43:13.999Z</time></trkpt><trkpt lat="45.75865643513924" lon="9.19776507507986"><ele>344.0</ele><time>2026-04-25T08:43:14.999Z</time></trkpt><trkpt lat="45.75856581675024" lon="9.19765481455521"><ele>343.0</ele><time>2026-04-25T08:43:16.999Z</time></trkpt><trkpt lat="45.758515863796966" lon="9.197598317329616"><ele>342.0</ele><time>2026-04-25T08:43:17.999Z</time></trkpt><trkpt lat="45.75841991772003" lon="9.19749107316121"><ele>341.0</ele><time>2026-04-25T08:43:19.999Z</time></trkpt><trkpt lat="45.75832474728" lon="9.197383058084737"><ele>340.0</ele><time>2026-04-25T08:43:21.999Z</time></trkpt><trkpt lat="45.75827454694308" lon="9.197325747285207"><ele>339.0</ele><time>2026-04-25T08:43:22.999Z</time></trkpt><trkpt lat="45.75822538739685" lon="9.19726689203472"><ele>338.0</ele><time>2026-04-25T08:43:23.999Z</time></trkpt><trkpt lat="45.758176192806836" lon="9.1972072818184"><ele>341.1666666666667</ele><time>2026-04-25T08:43:24.999Z</time></trkpt><trkpt lat="45.75812671500332" lon="9.197147328313758"><ele>344.33333333333337</ele><time>2026-04-25T08:43:25.999Z</time></trkpt><trkpt lat="45.75807591612448" lon="9.197089757603893"><ele>347.5</ele><time>2026-04-25T08:43:26.999Z</time></trkpt><trkpt lat="45.75802510843557" lon="9.19703450301139"><ele>350.6666666666667</ele><time>2026-04-25T08:43:27.999Z</time></trkpt><trkpt lat="45.7579272996462" lon="9.196943637034837"><ele>353.8333333333333</ele><time>2026-04-25T08:43:29.999Z</time></trkpt><trkpt lat="45.757803206820824" lon="9.19691050414675"><ele>357.0</ele><time>2026-04-25T08:43:31.999Z</time></trkpt><trkpt lat="45.757735524724325" lon="9.196899632878091"><ele>355.1666666666667</ele><time>2026-04-25T08:43:32.999Z</time></trkpt><trkpt lat="45.757664829886345" lon="9.196867775725673"><ele>353.3333333333333</ele><time>2026-04-25T08:43:33.999Z</time></trkpt><trkpt lat="45.757593857566896" lon="9.196885163327666"><ele>351.5</ele><time>2026-04-25T08:43:34.999Z</time></trkpt><trkpt lat="45.75751913437503" lon="9.196881857726368"><ele>349.66666666666663</ele><time>2026-04-25T08:43:35.999Z</time></trkpt><trkpt lat="45.757441418865085" lon="9.196889945022864"><ele>347.8333333333333</ele><time>2026-04-25T08:43:36.999Z</time></trkpt><trkpt lat="45.75736150016957" lon="9.196891363710506"><ele>346.0</ele><time>2026-04-25T08:43:37.999Z</time></trkpt><trkpt lat="45.75727946570373" lon="9.196887419779085"><ele>346.0</ele><time>2026-04-25T08:43:38.999Z</time></trkpt><trkpt lat="45.75720291864682" lon="9.196910371311466"><ele>346.0</ele><time>2026-04-25T08:43:39.999Z</time></trkpt><trkpt lat="45.757117474078406" lon="9.196900034933655"><ele>346.0</ele><time>2026-04-25T08:43:40.999Z</time></trkpt><trkpt lat="45.757044052282986" lon="9.196929688046671"><ele>346.0</ele><time>2026-04-25T08:43:41.999Z</time></trkpt><trkpt lat="45.7569721736784" lon="9.196945096309685"><ele>346.0</ele><time>2026-04-25T08:43:42.999Z</time></trkpt><trkpt lat="45.756902526840925" lon="9.196977368612815"><ele>346.0</ele><time>2026-04-25T08:43:43.999Z</time></trkpt><trkpt lat="45.7568288124866" lon="9.19701860751686"><ele>345.57142857142856</ele><time>2026-04-25T08:43:44.999Z</time></trkpt><trkpt lat="45.75675282183056" lon="9.197055310748356"><ele>345.14285714285717</ele><time>2026-04-25T08:43:45.999Z</time></trkpt><trkpt lat="45.75667734254772" lon="9.197084512163665"><ele>344.7142857142857</ele><time>2026-04-25T08:43:46.999Z</time></trkpt><trkpt lat="45.75660258004829" lon="9.197114024927902"><ele>344.2857142857143</ele><time>2026-04-25T08:43:47.999Z</time></trkpt><trkpt lat="45.756532798810106" lon="9.197141991883292"><ele>343.8571428571429</ele><time>2026-04-25T08:43:48.999Z</time></trkpt><trkpt lat="45.756467053352594" lon="9.197158336532945"><ele>343.42857142857144</ele><time>2026-04-25T08:43:49.999Z</time></trkpt><trkpt lat="45.75640563447719" lon="9.19718303098837"><ele>343.0</ele><time>2026-04-25T08:43:50.999Z</time></trkpt><trkpt lat="45.7562891838449" lon="9.197215896200465"><ele>343.0</ele><time>2026-04-25T08:43:53Z</time></trkpt><trkpt lat="45.75617792276599" lon="9.197169588537943"><ele>343.0</ele><time>2026-04-25T08:43:55Z</time></trkpt><trkpt lat="45.75606859197706" lon="9.197090612108484"><ele>343.0</ele><time>2026-04-25T08:43:57Z</time></trkpt><trkpt lat="45.75600547729168" lon="9.197058928401322"><ele>343.0</ele><time>2026-04-25T08:43:58Z</time></trkpt><trkpt lat="45.7559364416506" lon="9.19705176457421"><ele>343.0</ele><time>2026-04-25T08:43:59Z</time></trkpt><trkpt lat="45.755869818397706" lon="9.197025434742889"><ele>343.0</ele><time>2026-04-25T08:44:00Z</time></trkpt><trkpt lat="45.755797909355906" lon="9.19700282791668"><ele>341.66666666666663</ele><time>2026-04-25T08:44:01Z</time></trkpt><trkpt lat="45.755718853354594" lon="9.196983766487229"><ele>340.3333333333333</ele><time>2026-04-25T08:44:02Z</time></trkpt><trkpt lat="45.75563383422471" lon="9.196955299190574"><ele>339.0</ele><time>2026-04-25T08:44:03Z</time></trkpt><trkpt lat="45.755547190116985" lon="9.196930057129828"><ele>337.6666666666667</ele><time>2026-04-25T08:44:04Z</time></trkpt><trkpt lat="45.7554591574053" lon="9.196910187981448"><ele>336.33333333333337</ele><time>2026-04-25T08:44:05Z</time></trkpt><trkpt lat="45.755371022563395" lon="9.19688988719826"><ele>335.0</ele><time>2026-04-25T08:44:06Z</time></trkpt><trkpt lat="45.755278414081985" lon="9.196865072796498"><ele>333.8</ele><time>2026-04-25T08:44:07Z</time></trkpt><trkpt lat="45.755184909517666" lon="9.196839154242475"><ele>332.6</ele><time>2026-04-25T08:44:08Z</time></trkpt><trkpt lat="45.75509002339195" lon="9.196811325924015"><ele>331.4</ele><time>2026-04-25T08:44:09Z</time></trkpt><trkpt lat="45.754994777871325" lon="9.196783013964508"><ele>330.2</ele><time>2026-04-25T08:44:10Z</time></trkpt><trkpt lat="45.75489809546209" lon="9.19675586063495"><ele>329.0</ele><time>2026-04-25T08:44:11Z</time></trkpt><trkpt lat="45.754801962556876" lon="9.1967282837795"><ele>329.0</ele><time>2026-04-25T08:44:12Z</time></trkpt><trkpt lat="45.7547074451143" lon="9.196700089281961"><ele>329.0</ele><time>2026-04-25T08:44:13Z</time></trkpt><trkpt lat="45.75461162264954" lon="9.196671476786575"><ele>329.0</ele><time>2026-04-25T08:44:14Z</time></trkpt><trkpt lat="45.75451538230551" lon="9.19664247549221"><ele>329.0</ele><time>2026-04-25T08:44:15Z</time></trkpt><trkpt lat="45.754417518676355" lon="9.196616264047714"><ele>329.0</ele><time>2026-04-25T08:44:16Z</time></trkpt><trkpt lat="45.75431546527272" lon="9.196591444623923"><ele>329.4</ele><time>2026-04-25T08:44:17Z</time></trkpt><trkpt lat="45.75421467666121" lon="9.196568980294298"><ele>329.79999999999995</ele><time>2026-04-25T08:44:18Z</time></trkpt><trkpt lat="45.7541153175534" lon="9.196518973727231"><ele>330.20000000000005</ele><time>2026-04-25T08:44:19Z</time></trkpt><trkpt lat="45.754010780900835" lon="9.196511419168994"><ele>330.6</ele><time>2026-04-25T08:44:20Z</time></trkpt><trkpt lat="45.75391066726512" lon="9.196460879174879"><ele>331.0</ele><time>2026-04-25T08:44:21Z</time></trkpt><trkpt lat="45.753810013333634" lon="9.19643233758064"><ele>329.8</ele><time>2026-04-25T08:44:22Z</time></trkpt><trkpt lat="45.753709544574335" lon="9.196403848490547"><ele>328.6</ele><time>2026-04-25T08:44:23Z</time></trkpt><trkpt lat="45.753603140640614" lon="9.19639784380103"><ele>327.4</ele><time>2026-04-25T08:44:24Z</time></trkpt><trkpt lat="45.75350231052078" lon="9.196344491522433"><ele>326.2</ele><time>2026-04-25T08:44:25Z</time></trkpt><trkpt lat="45.75339660266349" lon="9.196336097826268"><ele>325.0</ele><time>2026-04-25T08:44:26Z</time></trkpt><trkpt lat="45.75329451953229" lon="9.196303960354928"><ele>324.8</ele><time>2026-04-25T08:44:26.999Z</time></trkpt><trkpt lat="45.75319602271063" lon="9.196276091305498"><ele>324.6</ele><time>2026-04-25T08:44:27.999Z</time></trkpt><trkpt lat="45.75309509056078" lon="9.196248415936891"><ele>324.4</ele><time>2026-04-25T08:44:28.999Z</time></trkpt><trkpt lat="45.75299155337443" lon="9.196217938003715"><ele>324.2</ele><time>2026-04-25T08:44:29.999Z</time></trkpt><trkpt lat="45.752890110684085" lon="9.196189280766843"><ele>324.0</ele><time>2026-04-25T08:44:30.999Z</time></trkpt><trkpt lat="45.75278957477606" lon="9.196161036785508"><ele>324.0</ele><time>2026-04-25T08:44:31.999Z</time></trkpt><trkpt lat="45.7526927546525" lon="9.196134296504788"><ele>324.0</ele><time>2026-04-25T08:44:32.999Z</time></trkpt><trkpt lat="45.75259474651174" lon="9.196109878796795"><ele>324.0</ele><time>2026-04-25T08:44:33.999Z</time></trkpt><trkpt lat="45.752500921160376" lon="9.196079146414322"><ele>324.0</ele><time>2026-04-25T08:44:34.999Z</time></trkpt><trkpt lat="45.75240451943594" lon="9.196055289960377"><ele>324.0</ele><time>2026-04-25T08:44:35.999Z</time></trkpt><trkpt lat="45.752314471172234" lon="9.196032475758463"><ele>324.0</ele><time>2026-04-25T08:44:36.999Z</time></trkpt><trkpt lat="45.75223065096201" lon="9.19600553634143"><ele>324.0</ele><time>2026-04-25T08:44:37.999Z</time></trkpt><trkpt lat="45.75214871348699" lon="9.195968256034686"><ele>324.0</ele><time>2026-04-25T08:44:38.999Z</time></trkpt><trkpt lat="45.752067836038364" lon="9.195924627933003"><ele>324.0</ele><time>2026-04-25T08:44:39.999Z</time></trkpt><trkpt lat="45.75198521486622" lon="9.195872925424352"><ele>324.0</ele><time>2026-04-25T08:44:40.999Z</time></trkpt><trkpt lat="45.75190012797003" lon="9.195839005806553"><ele>324.0</ele><time>2026-04-25T08:44:41.999Z</time></trkpt><trkpt lat="45.75180649431539" lon="9.195845885678338"><ele>323.79999999999995</ele><time>2026-04-25T08:44:42.999Z</time></trkpt><trkpt lat="45.75171039264289" lon="9.1958513929464"><ele>323.59999999999997</ele><time>2026-04-25T08:44:43.999Z</time></trkpt><trkpt lat="45.751616661190965" lon="9.195809497621022"><ele>323.4</ele><time>2026-04-25T08:44:44.999Z</time></trkpt><trkpt lat="45.75151849918601" lon="9.195798588545586"><ele>323.2</ele><time>2026-04-25T08:44:45.999Z</time></trkpt><trkpt lat="45.75142614500777" lon="9.195766342148234"><ele>323.0</ele><time>2026-04-25T08:44:46.999Z</time></trkpt><trkpt lat="45.75133405709269" lon="9.195733347103584"><ele>323.0</ele><time>2026-04-25T08:44:47.999Z</time></trkpt><trkpt lat="45.75123751684453" lon="9.195707961327775"><ele>323.0</ele><time>2026-04-25T08:44:48.999Z</time></trkpt><trkpt lat="45.75114420708591" lon="9.195681826716033"><ele>323.0</ele><time>2026-04-25T08:44:49.999Z</time></trkpt><trkpt lat="45.75105258971207" lon="9.19565747872419"><ele>323.0</ele><time>2026-04-25T08:44:50.999Z</time></trkpt><trkpt lat="45.75096344891304" lon="9.195632758404718"><ele>323.0</ele><time>2026-04-25T08:44:51.999Z</time></trkpt><trkpt lat="45.750872891173564" lon="9.195607044624548"><ele>323.1666666666667</ele><time>2026-04-25T08:44:52.999Z</time></trkpt><trkpt lat="45.75078355282004" lon="9.195582963464203"><ele>323.33333333333337</ele><time>2026-04-25T08:44:53.999Z</time></trkpt><trkpt lat="45.75069444336209" lon="9.195560125774794"><ele>323.5</ele><time>2026-04-25T08:44:54.999Z</time></trkpt><trkpt lat="45.75060660545993" lon="9.195538381118675"><ele>323.6666666666667</ele><time>2026-04-25T08:44:55.999Z</time></trkpt><trkpt lat="45.75051947089858" lon="9.195514225009745"><ele>323.8333333333333</ele><time>2026-04-25T08:44:56.999Z</time></trkpt><trkpt lat="45.75043701178264" lon="9.195490650275877"><ele>324.0</ele><time>2026-04-25T08:44:57.999Z</time></trkpt><trkpt lat="45.750356102263304" lon="9.195462051062831"><ele>324.0</ele><time>2026-04-25T08:44:58.999Z</time></trkpt><trkpt lat="45.75027638495586" lon="9.195437666085308"><ele>324.0</ele><time>2026-04-25T08:44:59.999Z</time></trkpt><trkpt lat="45.75019642425563" lon="9.19541591590584"><ele>324.0</ele><time>2026-04-25T08:45:00.999Z</time></trkpt><trkpt lat="45.7501163718312" lon="9.195393509368397"><ele>324.0</ele><time>2026-04-25T08:45:01.999Z</time></trkpt><trkpt lat="45.75003765166735" lon="9.195372342925575"><ele>324.0</ele><time>2026-04-25T08:45:02.999Z</time></trkpt><trkpt lat="45.74996089254932" lon="9.195357339409462"><ele>324.0</ele><time>2026-04-25T08:45:03.999Z</time></trkpt><trkpt lat="45.749887072673985" lon="9.195338494126872"><ele>324.5</ele><time>2026-04-25T08:45:04.999Z</time></trkpt><trkpt lat="45.749813897684454" lon="9.195319261329253"><ele>325.0</ele><time>2026-04-25T08:45:05.999Z</time></trkpt><trkpt lat="45.749740697541355" lon="9.19530155752563"><ele>325.5</ele><time>2026-04-25T08:45:06.999Z</time></trkpt><trkpt lat="45.749670062730964" lon="9.195257967531738"><ele>326.0</ele><time>2026-04-25T08:45:07.999Z</time></trkpt><trkpt lat="45.749594705502105" lon="9.195259856223855"><ele>326.5</ele><time>2026-04-25T08:45:08.999Z</time></trkpt><trkpt lat="45.74952170154659" lon="9.195239669339776"><ele>327.0</ele><time>2026-04-25T08:45:09.999Z</time></trkpt><trkpt lat="45.74944626573211" lon="9.195226206609837"><ele>327.57142857142856</ele><time>2026-04-25T08:45:10.999Z</time></trkpt><trkpt lat="45.749369959556724" lon="9.195220159305617"><ele>328.14285714285717</ele><time>2026-04-25T08:45:11.999Z</time></trkpt><trkpt lat="45.74930039177532" lon="9.195217819239337"><ele>328.7142857142857</ele><time>2026-04-25T08:45:12.999Z</time></trkpt><trkpt lat="45.74923094424105" lon="9.195221817435398"><ele>329.2857142857143</ele><time>2026-04-25T08:45:13.999Z</time></trkpt><trkpt lat="45.749163191502056" lon="9.19522634549654"><ele>329.85714285714283</ele><time>2026-04-25T08:45:14.999Z</time></trkpt><trkpt lat="45.749089903931335" lon="9.195236187402559"><ele>330.42857142857144</ele><time>2026-04-25T08:45:15.999Z</time></trkpt><trkpt lat="45.74901778492697" lon="9.19525072615538"><ele>331.0</ele><time>2026-04-25T08:45:16.999Z</time></trkpt><trkpt lat="45.74894313347632" lon="9.195258740572907"><ele>331.0</ele><time>2026-04-25T08:45:17.999Z</time></trkpt><trkpt lat="45.74887028715392" lon="9.195266413501539"><ele>331.0</ele><time>2026-04-25T08:45:18.999Z</time></trkpt><trkpt lat="45.748798006745744" lon="9.195273661062174"><ele>331.0</ele><time>2026-04-25T08:45:19.999Z</time></trkpt><trkpt lat="45.748723531071676" lon="9.195283296955843"><ele>331.0</ele><time>2026-04-25T08:45:20.999Z</time></trkpt><trkpt lat="45.74864930422742" lon="9.195289760133385"><ele>331.0</ele><time>2026-04-25T08:45:21.999Z</time></trkpt><trkpt lat="45.74857478315752" lon="9.195295322675536"><ele>331.0</ele><time>2026-04-25T08:45:22.999Z</time></trkpt><trkpt lat="45.74849665461531" lon="9.195307522152504"><ele>331.0</ele><time>2026-04-25T08:45:23.999Z</time></trkpt><trkpt lat="45.74841617480593" lon="9.195317559618738"><ele>331.16666666666663</ele><time>2026-04-25T08:45:24.999Z</time></trkpt><trkpt lat="45.74833297122149" lon="9.195329943175947"><ele>331.3333333333333</ele><time>2026-04-25T08:45:25.999Z</time></trkpt><trkpt lat="45.74824948948488" lon="9.19533939244262"><ele>331.5</ele><time>2026-04-25T08:45:26.999Z</time></trkpt><trkpt lat="45.74816520230212" lon="9.195351805819831"><ele>331.6666666666667</ele><time>2026-04-25T08:45:27.999Z</time></trkpt><trkpt lat="45.7480832330333" lon="9.195362303236717"><ele>331.83333333333337</ele><time>2026-04-25T08:45:28.999Z</time></trkpt><trkpt lat="45.74800215485182" lon="9.195370438040218"><ele>332.0</ele><time>2026-04-25T08:45:29.999Z</time></trkpt><trkpt lat="45.74791866570653" lon="9.195379465860194"><ele>332.0</ele><time>2026-04-25T08:45:30.999Z</time></trkpt><trkpt lat="45.747831169615594" lon="9.195390793095497"><ele>332.0</ele><time>2026-04-25T08:45:31.999Z</time></trkpt><trkpt lat="45.74774324911819" lon="9.195400440225493"><ele>332.0</ele><time>2026-04-25T08:45:32.999Z</time></trkpt><trkpt lat="45.74765729244079" lon="9.195409983458713"><ele>332.0</ele><time>2026-04-25T08:45:33.999Z</time></trkpt><trkpt lat="45.74756944510747" lon="9.195422969036317"><ele>332.0</ele><time>2026-04-25T08:45:34.999Z</time></trkpt><trkpt lat="45.747480729135056" lon="9.195435177456764"><ele>332.0</ele><time>2026-04-25T08:45:35.999Z</time></trkpt><trkpt lat="45.74739192727584" lon="9.19544633377401"><ele>331.6</ele><time>2026-04-25T08:45:36.999Z</time></trkpt><trkpt lat="45.74730196025486" lon="9.19545915366253"><ele>331.20000000000005</ele><time>2026-04-25T08:45:37.999Z</time></trkpt><trkpt lat="45.747209666566356" lon="9.195466729685343"><ele>330.8</ele><time>2026-04-25T08:45:38.999Z</time></trkpt><trkpt lat="45.7471197595695" lon="9.195478388140392"><ele>330.4</ele><time>2026-04-25T08:45:39.999Z</time></trkpt><trkpt lat="45.74702879453651" lon="9.195490899049474"><ele>330.0</ele><time>2026-04-25T08:45:40.999Z</time></trkpt><trkpt lat="45.746939299714704" lon="9.195508586729728"><ele>329.6</ele><time>2026-04-25T08:45:41.999Z</time></trkpt><trkpt lat="45.74684615622674" lon="9.195523431447253"><ele>329.2</ele><time>2026-04-25T08:45:42.999Z</time></trkpt><trkpt lat="45.746754205523324" lon="9.195531436629775"><ele>328.79999999999995</ele><time>2026-04-25T08:45:43.999Z</time></trkpt><trkpt lat="45.74666296883391" lon="9.195542378397073"><ele>328.4</ele><time>2026-04-25T08:45:44.999Z</time></trkpt><trkpt lat="45.746568497267006" lon="9.195555287926991"><ele>328.0</ele><time>2026-04-25T08:45:45.999Z</time></trkpt><trkpt lat="45.74647531934939" lon="9.19557195133294"><ele>328.0</ele><time>2026-04-25T08:45:46.999Z</time></trkpt><trkpt lat="45.74638276240384" lon="9.195588412658081"><ele>328.0</ele><time>2026-04-25T08:45:47.999Z</time></trkpt><trkpt lat="45.74628975659421" lon="9.195605711053933"><ele>328.0</ele><time>2026-04-25T08:45:48.999Z</time></trkpt><trkpt lat="45.74620072605385" lon="9.195619391455283"><ele>328.0</ele><time>2026-04-25T08:45:49.999Z</time></trkpt><trkpt lat="45.74610868308504" lon="9.195613146799129"><ele>328.0</ele><time>2026-04-25T08:45:50.999Z</time></trkpt><trkpt lat="45.746015805833075" lon="9.195631072278088"><ele>328.2</ele><time>2026-04-25T08:45:51.999Z</time></trkpt><trkpt lat="45.74592754957862" lon="9.19564932871202"><ele>328.4</ele><time>2026-04-25T08:45:52.999Z</time></trkpt><trkpt lat="45.74583625691114" lon="9.195668213310249"><ele>328.59999999999997</ele><time>2026-04-25T08:45:53.999Z</time></trkpt><trkpt lat="45.74574755697879" lon="9.19568765444253"><ele>328.79999999999995</ele><time>2026-04-25T08:45:54.999Z</time></trkpt><trkpt lat="45.74565390331122" lon="9.195706634500704"><ele>329.0</ele><time>2026-04-25T08:45:55.999Z</time></trkpt><trkpt lat="45.74555856894121" lon="9.195725701383948"><ele>329.0</ele><time>2026-04-25T08:45:56.999Z</time></trkpt><trkpt lat="45.745459471255636" lon="9.195743797563091"><ele>329.0</ele><time>2026-04-25T08:45:58Z</time></trkpt><trkpt lat="45.7453569102841" lon="9.195762681848917"><ele>329.0</ele><time>2026-04-25T08:45:59Z</time></trkpt><trkpt lat="45.74525554137738" lon="9.195799583116122"><ele>329.0</ele><time>2026-04-25T08:46:00Z</time></trkpt><trkpt lat="45.74515385527121" lon="9.195815494247698"><ele>329.0</ele><time>2026-04-25T08:46:01Z</time></trkpt><trkpt lat="45.74505319717723" lon="9.195833234774977"><ele>327.6666666666667</ele><time>2026-04-25T08:46:02Z</time></trkpt><trkpt lat="45.74495333519036" lon="9.195851820617227"><ele>326.33333333333337</ele><time>2026-04-25T08:46:03Z</time></trkpt><trkpt lat="45.74485901623927" lon="9.195865209814022"><ele>325.0</ele><time>2026-04-25T08:46:04Z</time></trkpt><trkpt lat="45.744776137114215" lon="9.195878210133873"><ele>323.6666666666667</ele><time>2026-04-25T08:46:05Z</time></trkpt><trkpt lat="45.7446956905418" lon="9.195898692027125"><ele>322.3333333333333</ele><time>2026-04-25T08:46:06Z</time></trkpt><trkpt lat="45.744628828417326" lon="9.195946253299004"><ele>321.0</ele><time>2026-04-25T08:46:07Z</time></trkpt><trkpt lat="45.74457691179534" lon="9.196012983779346"><ele>321.0</ele><time>2026-04-25T08:46:08Z</time></trkpt><trkpt lat="45.74456228132013" lon="9.196114425517827"><ele>321.0</ele><time>2026-04-25T08:46:09Z</time></trkpt><trkpt lat="45.74459113427862" lon="9.196218327351668"><ele>321.0</ele><time>2026-04-25T08:46:10Z</time></trkpt><trkpt lat="45.74465124051905" lon="9.196303857598835"><ele>321.0</ele><time>2026-04-25T08:46:11Z</time></trkpt><trkpt lat="45.74471721658743" lon="9.196377488609572"><ele>321.0</ele><time>2026-04-25T08:46:12Z</time></trkpt><trkpt lat="45.744784228917304" lon="9.19646357102873"><ele>321.0</ele><time>2026-04-25T08:46:13Z</time></trkpt><trkpt lat="45.74485080927685" lon="9.196556723233142"><ele>320.40000000000003</ele><time>2026-04-25T08:46:14Z</time></trkpt><trkpt lat="45.744921277790475" lon="9.196646778529761"><ele>319.8</ele><time>2026-04-25T08:46:15Z</time></trkpt><trkpt lat="45.74499368994386" lon="9.196736150386585"><ele>319.20000000000005</ele><time>2026-04-25T08:46:16Z</time></trkpt><trkpt lat="45.74506705484157" lon="9.1968248730578"><ele>318.6</ele><time>2026-04-25T08:46:17Z</time></trkpt><trkpt lat="45.74513716886409" lon="9.196917540873107"><ele>318.0</ele><time>2026-04-25T08:46:18Z</time></trkpt><trkpt lat="45.74520127767378" lon="9.197001298505928"><ele>318.0</ele><time>2026-04-25T08:46:19Z</time></trkpt><trkpt lat="45.74525359869329" lon="9.197073714230473"><ele>318.0</ele><time>2026-04-25T08:46:20Z</time></trkpt><trkpt lat="45.74529495346522" lon="9.197145632154772"><ele>318.0</ele><time>2026-04-25T08:46:21Z</time></trkpt><trkpt lat="45.74529578115156" lon="9.197300842881818"><ele>318.0</ele><time>2026-04-25T08:46:23Z</time></trkpt><trkpt lat="45.74523886231639" lon="9.197363650495811"><ele>318.0</ele><time>2026-04-25T08:46:24Z</time></trkpt><trkpt lat="45.74516430944515" lon="9.197374513123272"><ele>318.0</ele><time>2026-04-25T08:46:25Z</time></trkpt><trkpt lat="45.745086791281885" lon="9.19733386332989"><ele>318.0</ele><time>2026-04-25T08:46:26Z</time></trkpt><trkpt lat="45.74499501438823" lon="9.197335723389836"><ele>318.0</ele><time>2026-04-25T08:46:27Z</time></trkpt><trkpt lat="45.74489616970832" lon="9.1973091572045"><ele>318.0</ele><time>2026-04-25T08:46:28Z</time></trkpt><trkpt lat="45.744796250614804" lon="9.197287688682913"><ele>318.0</ele><time>2026-04-25T08:46:29Z</time></trkpt><trkpt lat="45.74469111566613" lon="9.19726864019944"><ele>318.0</ele><time>2026-04-25T08:46:30Z</time></trkpt><trkpt lat="45.74458164526062" lon="9.197255789501272"><ele>318.0</ele><time>2026-04-25T08:46:31Z</time></trkpt><trkpt lat="45.744469687992236" lon="9.197235806086605"><ele>318.0</ele><time>2026-04-25T08:46:31.999Z</time></trkpt><trkpt lat="45.744355631557106" lon="9.197213437693762"><ele>318.0</ele><time>2026-04-25T08:46:32.999Z</time></trkpt><trkpt lat="45.744241166269724" lon="9.197192998339904"><ele>318.0</ele><time>2026-04-25T08:46:33.999Z</time></trkpt><trkpt lat="45.744126445676514" lon="9.197173548936108"><ele>314.75</ele><time>2026-04-25T08:46:34.999Z</time></trkpt><trkpt lat="45.74400914504261" lon="9.197153444403726"><ele>311.5</ele><time>2026-04-25T08:46:35.999Z</time></trkpt><trkpt lat="45.74389646516286" lon="9.197138808604457"><ele>308.25</ele><time>2026-04-25T08:46:36.999Z</time></trkpt><trkpt lat="45.74378471415022" lon="9.197135419740107"><ele>305.0</ele><time>2026-04-25T08:46:37.999Z</time></trkpt><trkpt lat="45.74367472197704" lon="9.197126849826985"><ele>305.0</ele><time>2026-04-25T08:46:38.999Z</time></trkpt><trkpt lat="45.743563549739626" lon="9.19711292786142"><ele>305.0</ele><time>2026-04-25T08:46:39.999Z</time></trkpt><trkpt lat="45.743449463479024" lon="9.19710764430954"><ele>305.0</ele><time>2026-04-25T08:46:40.999Z</time></trkpt><trkpt lat="45.743339420275696" lon="9.197095622135553"><ele>305.0</ele><time>2026-04-25T08:46:41.999Z</time></trkpt><trkpt lat="45.743226920351724" lon="9.197087586322725"><ele>305.0</ele><time>2026-04-25T08:46:42.999Z</time></trkpt><trkpt lat="45.743114850234335" lon="9.197082144217509"><ele>304.75</ele><time>2026-04-25T08:46:43.999Z</time></trkpt><trkpt lat="45.743002452267014" lon="9.19707463744277"><ele>304.5</ele><time>2026-04-25T08:46:44.999Z</time></trkpt><trkpt lat="45.74288857791764" lon="9.197067223090636"><ele>304.25</ele><time>2026-04-25T08:46:45.999Z</time></trkpt><trkpt lat="45.74277310904378" lon="9.197056947033794"><ele>304.0</ele><time>2026-04-25T08:46:46.999Z</time></trkpt><trkpt lat="45.74265768934332" lon="9.197043400168708"><ele>303.5</ele><time>2026-04-25T08:46:47.999Z</time></trkpt><trkpt lat="45.74254140643656" lon="9.197033509531433"><ele>303.0</ele><time>2026-04-25T08:46:48.999Z</time></trkpt><trkpt lat="45.742424929190804" lon="9.197025025230685"><ele>302.5</ele><time>2026-04-25T08:46:49.999Z</time></trkpt><trkpt lat="45.742306362473286" lon="9.197013793676396"><ele>302.0</ele><time>2026-04-25T08:46:50.999Z</time></trkpt><trkpt lat="45.74218794900251" lon="9.197011896716552"><ele>302.0</ele><time>2026-04-25T08:46:51.999Z</time></trkpt><trkpt lat="45.742069436459175" lon="9.197013362734298"><ele>302.0</ele><time>2026-04-25T08:46:52.999Z</time></trkpt><trkpt lat="45.74195011606503" lon="9.197016988916728"><ele>302.0</ele><time>2026-04-25T08:46:53.999Z</time></trkpt><trkpt lat="45.74183690484131" lon="9.197038498896069"><ele>302.0</ele><time>2026-04-25T08:46:54.999Z</time></trkpt><trkpt lat="45.7417274159284" lon="9.197066267981748"><ele>301.4</ele><time>2026-04-25T08:46:55.999Z</time></trkpt><trkpt lat="45.74162005419879" lon="9.197093617188145"><ele>300.79999999999995</ele><time>2026-04-25T08:46:56.999Z</time></trkpt><trkpt lat="45.74151313194371" lon="9.197123616789137"><ele>300.2</ele><time>2026-04-25T08:46:57.999Z</time></trkpt><trkpt lat="45.741405209528445" lon="9.19716062809983"><ele>299.59999999999997</ele><time>2026-04-25T08:46:58.999Z</time></trkpt><trkpt lat="45.741295370181454" lon="9.197203192993673"><ele>299.0</ele><time>2026-04-25T08:46:59.999Z</time></trkpt><trkpt lat="45.74118741518668" lon="9.197247761587938"><ele>299.0</ele><time>2026-04-25T08:47:00.999Z</time></trkpt><trkpt lat="45.741082195337384" lon="9.197295682293888"><ele>299.0</ele><time>2026-04-25T08:47:01.999Z</time></trkpt><trkpt lat="45.74097837016662" lon="9.197339624676838"><ele>299.0</ele><time>2026-04-25T08:47:02.999Z</time></trkpt><trkpt lat="45.74087682234542" lon="9.197383049296791"><ele>299.0</ele><time>2026-04-25T08:47:03.999Z</time></trkpt><trkpt lat="45.7407766960389" lon="9.197430038946434"><ele>299.0</ele><time>2026-04-25T08:47:04.999Z</time></trkpt><trkpt lat="45.740677693174014" lon="9.197476538546418"><ele>299.0</ele><time>2026-04-25T08:47:05.999Z</time></trkpt><trkpt lat="45.740580201989516" lon="9.197524747045597"><ele>299.0</ele><time>2026-04-25T08:47:06.999Z</time></trkpt><trkpt lat="45.740480893762744" lon="9.197570448657698"><ele>299.0</ele><time>2026-04-25T08:47:07.999Z</time></trkpt><trkpt lat="45.74037721152357" lon="9.197614822848156"><ele>299.0</ele><time>2026-04-25T08:47:08.999Z</time></trkpt><trkpt lat="45.74027418453445" lon="9.197659710264368"><ele>299.0</ele><time>2026-04-25T08:47:09.999Z</time></trkpt><trkpt lat="45.74016805546719" lon="9.197695897121175"><ele>299.0</ele><time>2026-04-25T08:47:10.999Z</time></trkpt><trkpt lat="45.74006248982109" lon="9.197726607973744"><ele>299.0</ele><time>2026-04-25T08:47:11.999Z</time></trkpt><trkpt lat="45.7399595699946" lon="9.197758772057147"><ele>299.0</ele><time>2026-04-25T08:47:12.999Z</time></trkpt><trkpt lat="45.7398574335067" lon="9.197787624617826"><ele>299.0</ele><time>2026-04-25T08:47:13.999Z</time></trkpt><trkpt lat="45.739753298397666" lon="9.197809811080461"><ele>299.0</ele><time>2026-04-25T08:47:14.999Z</time></trkpt><trkpt lat="45.73964907570955" lon="9.197821265459755"><ele>299.0</ele><time>2026-04-25T08:47:15.999Z</time></trkpt><trkpt lat="45.73954644635957" lon="9.19782942411401"><ele>299.0</ele><time>2026-04-25T08:47:16.999Z</time></trkpt><trkpt lat="45.73944446096403" lon="9.19783598329953"><ele>299.0</ele><time>2026-04-25T08:47:17.999Z</time></trkpt><trkpt lat="45.739345910117066" lon="9.197843495739285"><ele>299.0</ele><time>2026-04-25T08:47:18.999Z</time></trkpt><trkpt lat="45.739247241807554" lon="9.197851234437932"><ele>299.0</ele><time>2026-04-25T08:47:19.999Z</time></trkpt><trkpt lat="45.73914956077566" lon="9.197863287372629"><ele>298.59999999999997</ele><time>2026-04-25T08:47:20.999Z</time></trkpt><trkpt lat="45.73905337178197" lon="9.197879497432837"><ele>298.2</ele><time>2026-04-25T08:47:21.999Z</time></trkpt><trkpt lat="45.73896190796431" lon="9.197891328894196"><ele>297.79999999999995</ele><time>2026-04-25T08:47:22.999Z</time></trkpt><trkpt lat="45.73886641059674" lon="9.197894185017624"><ele>297.4</ele><time>2026-04-25T08:47:23.999Z</time></trkpt><trkpt lat="45.73877198980405" lon="9.197895598220132"><ele>297.0</ele><time>2026-04-25T08:47:24.999Z</time></trkpt><trkpt lat="45.73867943521941" lon="9.19790047815526"><ele>297.0</ele><time>2026-04-25T08:47:25.999Z</time></trkpt><trkpt lat="45.73858721440302" lon="9.197908852826252"><ele>297.0</ele><time>2026-04-25T08:47:26.999Z</time></trkpt><trkpt lat="45.73849384180524" lon="9.197918519186036"><ele>297.0</ele><time>2026-04-25T08:47:27.999Z</time></trkpt><trkpt lat="45.73840011462598" lon="9.197928504376252"><ele>297.0</ele><time>2026-04-25T08:47:28.999Z</time></trkpt><trkpt lat="45.73830782024764" lon="9.19794027441647"><ele>297.0</ele><time>2026-04-25T08:47:29.999Z</time></trkpt><trkpt lat="45.7382148543423" lon="9.197952623410789"><ele>296.6</ele><time>2026-04-25T08:47:30.999Z</time></trkpt><trkpt lat="45.73812429851021" lon="9.197964840350291"><ele>296.2</ele><time>2026-04-25T08:47:31.999Z</time></trkpt><trkpt lat="45.7380347767193" lon="9.197978342844644"><ele>295.8</ele><time>2026-04-25T08:47:32.999Z</time></trkpt><trkpt lat="45.73794395964746" lon="9.197995022316986"><ele>295.4</ele><time>2026-04-25T08:47:33.999Z</time></trkpt><trkpt lat="45.73785155692211" lon="9.198012482350409"><ele>295.0</ele><time>2026-04-25T08:47:34.999Z</time></trkpt><trkpt lat="45.737760066536566" lon="9.19803095752833"><ele>294.6</ele><time>2026-04-25T08:47:35.999Z</time></trkpt><trkpt lat="45.737668409073926" lon="9.198052099108176"><ele>294.2</ele><time>2026-04-25T08:47:36.999Z</time></trkpt><trkpt lat="45.73757610149441" lon="9.19806973812188"><ele>293.8</ele><time>2026-04-25T08:47:37.999Z</time></trkpt><trkpt lat="45.737485118785216" lon="9.198083778774535"><ele>293.4</ele><time>2026-04-25T08:47:38.999Z</time></trkpt><trkpt lat="45.737396025986925" lon="9.198097605165675"><ele>293.0</ele><time>2026-04-25T08:47:39.999Z</time></trkpt><trkpt lat="45.73730911350707" lon="9.198111548592014"><ele>293.0</ele><time>2026-04-25T08:47:40.999Z</time></trkpt><trkpt lat="45.737221235824386" lon="9.198124705597127"><ele>293.0</ele><time>2026-04-25T08:47:41.999Z</time></trkpt><trkpt lat="45.7371342249574" lon="9.198135897123336"><ele>293.0</ele><time>2026-04-25T08:47:42.999Z</time></trkpt><trkpt lat="45.737054208866155" lon="9.198148874664408"><ele>293.0</ele><time>2026-04-25T08:47:43.999Z</time></trkpt><trkpt lat="45.73697553086605" lon="9.198158081481894"><ele>293.0</ele><time>2026-04-25T08:47:44.999Z</time></trkpt><trkpt lat="45.73689967419476" lon="9.19816781669594"><ele>293.0</ele><time>2026-04-25T08:47:45.999Z</time></trkpt><trkpt lat="45.73682498106738" lon="9.198173793256773"><ele>293.0</ele><time>2026-04-25T08:47:46.999Z</time></trkpt><trkpt lat="45.736750805309775" lon="9.198177339072055"><ele>293.0</ele><time>2026-04-25T08:47:47.999Z</time></trkpt><trkpt lat="45.73667594437758" lon="9.19816554300044"><ele>293.0</ele><time>2026-04-25T08:47:48.999Z</time></trkpt><trkpt lat="45.73659498974343" lon="9.198157391736236"><ele>293.0</ele><time>2026-04-25T08:47:49.999Z</time></trkpt><trkpt lat="45.7365171207541" lon="9.198162212585014"><ele>293.0</ele><time>2026-04-25T08:47:50.999Z</time></trkpt><trkpt lat="45.73643775775487" lon="9.198182822342849"><ele>293.0</ele><time>2026-04-25T08:47:51.999Z</time></trkpt><trkpt lat="45.73635655251386" lon="9.198215428575406"><ele>293.5</ele><time>2026-04-25T08:47:52.999Z</time></trkpt><trkpt lat="45.736276509876866" lon="9.198254279147896"><ele>294.0</ele><time>2026-04-25T08:47:53.999Z</time></trkpt><trkpt lat="45.73619674946011" lon="9.198289759240524"><ele>294.5</ele><time>2026-04-25T08:47:54.999Z</time></trkpt><trkpt lat="45.73611387856749" lon="9.198312623511736"><ele>295.0</ele><time>2026-04-25T08:47:55.999Z</time></trkpt><trkpt lat="45.7360255666497" lon="9.198323143464409"><ele>295.5</ele><time>2026-04-25T08:47:56.999Z</time></trkpt><trkpt lat="45.73593701995004" lon="9.19834009308292"><ele>296.0</ele><time>2026-04-25T08:47:57.999Z</time></trkpt><trkpt lat="45.735847825984095" lon="9.198359421430078"><ele>296.0</ele><time>2026-04-25T08:47:58.999Z</time></trkpt><trkpt lat="45.73575669693847" lon="9.198375341360721"><ele>296.0</ele><time>2026-04-25T08:47:59.999Z</time></trkpt><trkpt lat="45.735667689088544" lon="9.198389426988888"><ele>296.0</ele><time>2026-04-25T08:48:00.999Z</time></trkpt><trkpt lat="45.735577664777665" lon="9.198405041727842"><ele>296.0</ele><time>2026-04-25T08:48:01.999Z</time></trkpt><trkpt lat="45.735486117275464" lon="9.198421444223028"><ele>296.0</ele><time>2026-04-25T08:48:02.999Z</time></trkpt><trkpt lat="45.735393546097356" lon="9.198438727238631"><ele>296.0</ele><time>2026-04-25T08:48:04Z</time></trkpt><trkpt lat="45.73530177121698" lon="9.198455866429438"><ele>296.0</ele><time>2026-04-25T08:48:05Z</time></trkpt><trkpt lat="45.73520920819668" lon="9.198473366478277"><ele>296.0</ele><time>2026-04-25T08:48:06Z</time></trkpt><trkpt lat="45.73511945729027" lon="9.19849021543333"><ele>296.0</ele><time>2026-04-25T08:48:07Z</time></trkpt><trkpt lat="45.735029994138955" lon="9.198503176128076"><ele>296.0</ele><time>2026-04-25T08:48:08Z</time></trkpt><trkpt lat="45.73494311685042" lon="9.198519730336166"><ele>296.2</ele><time>2026-04-25T08:48:09Z</time></trkpt><trkpt lat="45.73485377843703" lon="9.198534885896297"><ele>296.40000000000003</ele><time>2026-04-25T08:48:10Z</time></trkpt><trkpt lat="45.73476265147092" lon="9.198549239422968"><ele>296.6</ele><time>2026-04-25T08:48:11Z</time></trkpt><trkpt lat="45.734671227708944" lon="9.198563217008173"><ele>296.8</ele><time>2026-04-25T08:48:12Z</time></trkpt><trkpt lat="45.73457869720578" lon="9.19857820483547"><ele>297.0</ele><time>2026-04-25T08:48:13Z</time></trkpt><trkpt lat="45.734488391114944" lon="9.198594657822818"><ele>297.0</ele><time>2026-04-25T08:48:14Z</time></trkpt><trkpt lat="45.73439887984482" lon="9.198608268175505"><ele>297.0</ele><time>2026-04-25T08:48:15Z</time></trkpt><trkpt lat="45.7343091537227" lon="9.198620263524855"><ele>297.0</ele><time>2026-04-25T08:48:16Z</time></trkpt><trkpt lat="45.73421793185064" lon="9.198635841187238"><ele>297.0</ele><time>2026-04-25T08:48:17Z</time></trkpt><trkpt lat="45.73412847563342" lon="9.198655285457173"><ele>297.0</ele><time>2026-04-25T08:48:18Z</time></trkpt><trkpt lat="45.734038653480155" lon="9.198672275868807"><ele>297.0</ele><time>2026-04-25T08:48:19Z</time></trkpt><trkpt lat="45.73394884569478" lon="9.198686285331526"><ele>297.0</ele><time>2026-04-25T08:48:20Z</time></trkpt><trkpt lat="45.73386029642054" lon="9.198702397703345"><ele>297.0</ele><time>2026-04-25T08:48:21Z</time></trkpt><trkpt lat="45.73377008539217" lon="9.1987256274676"><ele>297.0</ele><time>2026-04-25T08:48:22Z</time></trkpt><trkpt lat="45.73367475391345" lon="9.19874896659754"><ele>297.0</ele><time>2026-04-25T08:48:23Z</time></trkpt><trkpt lat="45.73357575107228" lon="9.1987710857874"><ele>296.8</ele><time>2026-04-25T08:48:24Z</time></trkpt><trkpt lat="45.73347759357938" lon="9.198794176594003"><ele>296.6</ele><time>2026-04-25T08:48:25Z</time></trkpt><trkpt lat="45.73337486524437" lon="9.198820072954854"><ele>296.40000000000003</ele><time>2026-04-25T08:48:26Z</time></trkpt><trkpt lat="45.73327227587684" lon="9.198845277412735"><ele>296.2</ele><time>2026-04-25T08:48:27Z</time></trkpt><trkpt lat="45.733171443755836" lon="9.198862489529057"><ele>296.0</ele><time>2026-04-25T08:48:28Z</time></trkpt><trkpt lat="45.733071030703165" lon="9.198883457496635"><ele>296.0</ele><time>2026-04-25T08:48:29Z</time></trkpt><trkpt lat="45.73297063879061" lon="9.198909183062574"><ele>296.0</ele><time>2026-04-25T08:48:30Z</time></trkpt><trkpt lat="45.73286955690478" lon="9.198936887303631"><ele>296.0</ele><time>2026-04-25T08:48:31Z</time></trkpt><trkpt lat="45.73276547234371" lon="9.19896121704903"><ele>296.0</ele><time>2026-04-25T08:48:32Z</time></trkpt><trkpt lat="45.73266004985394" lon="9.198985315385407"><ele>296.0</ele><time>2026-04-25T08:48:33Z</time></trkpt><trkpt lat="45.73255176472322" lon="9.199007275345116"><ele>295.40000000000003</ele><time>2026-04-25T08:48:34Z</time></trkpt><trkpt lat="45.73244217687409" lon="9.199033854855708"><ele>294.8</ele><time>2026-04-25T08:48:35Z</time></trkpt><trkpt lat="45.73233116981018" lon="9.199060563665778"><ele>294.20000000000005</ele><time>2026-04-25T08:48:36Z</time></trkpt><trkpt lat="45.73222305012725" lon="9.199088711585986"><ele>293.6</ele><time>2026-04-25T08:48:37Z</time></trkpt><trkpt lat="45.732115340213376" lon="9.199114370556991"><ele>293.0</ele><time>2026-04-25T08:48:38Z</time></trkpt><trkpt lat="45.732008880829476" lon="9.199140658494434"><ele>293.0</ele><time>2026-04-25T08:48:39Z</time></trkpt><trkpt lat="45.73190335558073" lon="9.19916439592817"><ele>293.0</ele><time>2026-04-25T08:48:40Z</time></trkpt><trkpt lat="45.731798860639756" lon="9.199183929956309"><ele>293.0</ele><time>2026-04-25T08:48:40.999Z</time></trkpt><trkpt lat="45.73169497676548" lon="9.199206436690917"><ele>293.0</ele><time>2026-04-25T08:48:41.999Z</time></trkpt><trkpt lat="45.73158807545854" lon="9.19922300609983"><ele>293.0</ele><time>2026-04-25T08:48:42.999Z</time></trkpt><trkpt lat="45.7314796758103" lon="9.199236740448994"><ele>292.2</ele><time>2026-04-25T08:48:43.999Z</time></trkpt><trkpt lat="45.731371699900755" lon="9.199255653699414"><ele>291.4</ele><time>2026-04-25T08:48:44.999Z</time></trkpt><trkpt lat="45.731263952746474" lon="9.19927333618096"><ele>290.59999999999997</ele><time>2026-04-25T08:48:45.999Z</time></trkpt><trkpt lat="45.73116014746611" lon="9.199285274775516"><ele>289.8</ele><time>2026-04-25T08:48:46.999Z</time></trkpt><trkpt lat="45.73105996283122" lon="9.199291600351355"><ele>289.0</ele><time>2026-04-25T08:48:47.999Z</time></trkpt><trkpt lat="45.73096175806971" lon="9.19930285029355"><ele>289.0</ele><time>2026-04-25T08:48:48.999Z</time></trkpt><trkpt lat="45.73086147723163" lon="9.199316603614491"><ele>289.0</ele><time>2026-04-25T08:48:49.999Z</time></trkpt><trkpt lat="45.730765255260174" lon="9.199321849763919"><ele>289.0</ele><time>2026-04-25T08:48:50.999Z</time></trkpt><trkpt lat="45.73066625472932" lon="9.199331726125822"><ele>289.0</ele><time>2026-04-25T08:48:51.999Z</time></trkpt><trkpt lat="45.73056816093496" lon="9.199344047451794"><ele>289.0</ele><time>2026-04-25T08:48:52.999Z</time></trkpt><trkpt lat="45.73047270643419" lon="9.199353900825143"><ele>289.0</ele><time>2026-04-25T08:48:53.999Z</time></trkpt><trkpt lat="45.73037452477364" lon="9.19936689477712"><ele>289.0</ele><time>2026-04-25T08:48:54.999Z</time></trkpt><trkpt lat="45.730275314354465" lon="9.199377293161616"><ele>289.0</ele><time>2026-04-25T08:48:55.999Z</time></trkpt><trkpt lat="45.73017430928201" lon="9.19938868095437"><ele>289.0</ele><time>2026-04-25T08:48:56.999Z</time></trkpt><trkpt lat="45.73007433717569" lon="9.199396759267344"><ele>289.0</ele><time>2026-04-25T08:48:57.999Z</time></trkpt><trkpt lat="45.72997490363523" lon="9.19940698237698"><ele>288.4</ele><time>2026-04-25T08:48:58.999Z</time></trkpt><trkpt lat="45.72987918920833" lon="9.199418591180676"><ele>287.79999999999995</ele><time>2026-04-25T08:48:59.999Z</time></trkpt><trkpt lat="45.72978287693966" lon="9.199432041283691"><ele>287.20000000000005</ele><time>2026-04-25T08:49:00.999Z</time></trkpt><trkpt lat="45.72968396716273" lon="9.199444117616121"><ele>286.6</ele><time>2026-04-25T08:49:01.999Z</time></trkpt><trkpt lat="45.7295900424701" lon="9.199460719287524"><ele>286.0</ele><time>2026-04-25T08:49:02.999Z</time></trkpt><trkpt lat="45.72949651728733" lon="9.199485278393471"><ele>286.0</ele><time>2026-04-25T08:49:03.999Z</time></trkpt><trkpt lat="45.72940535178769" lon="9.199524381659607"><ele>286.0</ele><time>2026-04-25T08:49:04.999Z</time></trkpt><trkpt lat="45.72932028148418" lon="9.199573075348544"><ele>286.0</ele><time>2026-04-25T08:49:05.999Z</time></trkpt><trkpt lat="45.729236804672006" lon="9.199631612302193"><ele>286.0</ele><time>2026-04-25T08:49:06.999Z</time></trkpt><trkpt lat="45.72915553011201" lon="9.199694216646103"><ele>286.0</ele><time>2026-04-25T08:49:07.999Z</time></trkpt><trkpt lat="45.729080695299714" lon="9.199762982828084"><ele>286.5</ele><time>2026-04-25T08:49:08.999Z</time></trkpt><trkpt lat="45.72901199976673" lon="9.199839743889244"><ele>287.0</ele><time>2026-04-25T08:49:09.999Z</time></trkpt><trkpt lat="45.728945726781156" lon="9.199922826967487"><ele>287.5</ele><time>2026-04-25T08:49:10.999Z</time></trkpt><trkpt lat="45.72888509871701" lon="9.200016374584491"><ele>288.0</ele><time>2026-04-25T08:49:11.999Z</time></trkpt><trkpt lat="45.728833517009754" lon="9.200122706923544"><ele>288.5</ele><time>2026-04-25T08:49:12.999Z</time></trkpt><trkpt lat="45.728784947810425" lon="9.200231231017742"><ele>289.0</ele><time>2026-04-25T08:49:13.999Z</time></trkpt><trkpt lat="45.728739798736896" lon="9.200335442345306"><ele>289.0</ele><time>2026-04-25T08:49:14.999Z</time></trkpt><trkpt lat="45.728692642258515" lon="9.20043636245524"><ele>289.0</ele><time>2026-04-25T08:49:15.999Z</time></trkpt><trkpt lat="45.72865132095428" lon="9.200543673490287"><ele>289.0</ele><time>2026-04-25T08:49:16.999Z</time></trkpt><trkpt lat="45.72861244834936" lon="9.200652689336625"><ele>289.0</ele><time>2026-04-25T08:49:17.999Z</time></trkpt><trkpt lat="45.72857565532639" lon="9.200761112881302"><ele>289.0</ele><time>2026-04-25T08:49:18.999Z</time></trkpt><trkpt lat="45.7285381977449" lon="9.200862313792882"><ele>289.0</ele><time>2026-04-25T08:49:19.999Z</time></trkpt><trkpt lat="45.72849902685948" lon="9.200953619035927"><ele>290.14285714285717</ele><time>2026-04-25T08:49:20.999Z</time></trkpt><trkpt lat="45.72845510328557" lon="9.20104109562691"><ele>291.2857142857143</ele><time>2026-04-25T08:49:21.999Z</time></trkpt><trkpt lat="45.72841562256689" lon="9.201131606066495"><ele>292.42857142857144</ele><time>2026-04-25T08:49:22.999Z</time></trkpt><trkpt lat="45.72838077719742" lon="9.201218370318156"><ele>293.57142857142856</ele><time>2026-04-25T08:49:23.999Z</time></trkpt><trkpt lat="45.72834411371544" lon="9.20130477082811"><ele>294.7142857142857</ele><time>2026-04-25T08:49:24.999Z</time></trkpt><trkpt lat="45.728307840194006" lon="9.201391313103937"><ele>295.8571428571429</ele><time>2026-04-25T08:49:25.999Z</time></trkpt><trkpt lat="45.728267821702296" lon="9.20147255415817"><ele>297.0</ele><time>2026-04-25T08:49:26.999Z</time></trkpt><trkpt lat="45.72822420098787" lon="9.2015456454813"><ele>297.0</ele><time>2026-04-25T08:49:27.999Z</time></trkpt><trkpt lat="45.72817629117777" lon="9.201618815352075"><ele>297.0</ele><time>2026-04-25T08:49:28.999Z</time></trkpt><trkpt lat="45.72812608747436" lon="9.201683855746703"><ele>297.0</ele><time>2026-04-25T08:49:29.999Z</time></trkpt><trkpt lat="45.72807456254393" lon="9.20174974715185"><ele>297.0</ele><time>2026-04-25T08:49:30.999Z</time></trkpt><trkpt lat="45.728025775605126" lon="9.201816957835906"><ele>297.0</ele><time>2026-04-25T08:49:31.999Z</time></trkpt><trkpt lat="45.72798038316062" lon="9.201883509123528"><ele>297.0</ele><time>2026-04-25T08:49:32.999Z</time></trkpt><trkpt lat="45.72792998096676" lon="9.201942397825295"><ele>297.0</ele><time>2026-04-25T08:49:33.999Z</time></trkpt><trkpt lat="45.7278799873627" lon="9.201999442236488"><ele>297.0</ele><time>2026-04-25T08:49:34.999Z</time></trkpt><trkpt lat="45.72779278165514" lon="9.202117342843769"><ele>297.0</ele><time>2026-04-25T08:49:36.999Z</time></trkpt><trkpt lat="45.72769971906894" lon="9.20222495710274"><ele>297.0</ele><time>2026-04-25T08:49:38.999Z</time></trkpt><trkpt lat="45.72762540652641" lon="9.202341921423859"><ele>297.0</ele><time>2026-04-25T08:49:40.999Z</time></trkpt><trkpt lat="45.727538851300665" lon="9.202449431663922"><ele>297.6666666666667</ele><time>2026-04-25T08:49:42.999Z</time></trkpt><trkpt lat="45.727452521798234" lon="9.202563897822209"><ele>298.3333333333333</ele><time>2026-04-25T08:49:44.999Z</time></trkpt><trkpt lat="45.727358291384064" lon="9.202683142383318"><ele>299.0</ele><time>2026-04-25T08:49:46.999Z</time></trkpt><trkpt lat="45.72730890198543" lon="9.202745119057685"><ele>299.66666666666663</ele><time>2026-04-25T08:49:47.999Z</time></trkpt><trkpt lat="45.727260788304626" lon="9.20281293693745"><ele>300.3333333333333</ele><time>2026-04-25T08:49:48.999Z</time></trkpt><trkpt lat="45.727210912828234" lon="9.2028758435973"><ele>301.0</ele><time>2026-04-25T08:49:49.999Z</time></trkpt><trkpt lat="45.72711806637344" lon="9.202991851164649"><ele>301.0</ele><time>2026-04-25T08:49:51.999Z</time></trkpt><trkpt lat="45.72706330293468" lon="9.203048732087726"><ele>301.0</ele><time>2026-04-25T08:49:52.999Z</time></trkpt><trkpt lat="45.727005987581315" lon="9.203103551898744"><ele>301.0</ele><time>2026-04-25T08:49:53.999Z</time></trkpt><trkpt lat="45.72695593890549" lon="9.20317112673495"><ele>301.0</ele><time>2026-04-25T08:49:54.999Z</time></trkpt><trkpt lat="45.72680071182825" lon="9.203191841004173"><ele>301.0</ele><time>2026-04-25T08:49:56.999Z</time></trkpt><trkpt lat="45.726729075705414" lon="9.203203814049257"><ele>301.0</ele><time>2026-04-25T08:49:57.999Z</time></trkpt><trkpt lat="45.72665385653749" lon="9.203204555484541"><ele>301.0</ele><time>2026-04-25T08:49:58.999Z</time></trkpt><trkpt lat="45.72657798390739" lon="9.203212689003188"><ele>301.0</ele><time>2026-04-25T08:49:59.999Z</time></trkpt><trkpt lat="45.72650048283612" lon="9.203228990287299"><ele>301.0</ele><time>2026-04-25T08:50:00.999Z</time></trkpt><trkpt lat="45.72642674507086" lon="9.203244115073723"><ele>301.0</ele><time>2026-04-25T08:50:01.999Z</time></trkpt><trkpt lat="45.72635173688485" lon="9.203258103096381"><ele>301.0</ele><time>2026-04-25T08:50:02.999Z</time></trkpt><trkpt lat="45.726275960832396" lon="9.203267522001992"><ele>301.0</ele><time>2026-04-25T08:50:03.999Z</time></trkpt><trkpt lat="45.72619815930407" lon="9.20327938391338"><ele>301.0</ele><time>2026-04-25T08:50:04.999Z</time></trkpt><trkpt lat="45.72611912922037" lon="9.203294945931802"><ele>301.0</ele><time>2026-04-25T08:50:05.999Z</time></trkpt><trkpt lat="45.726042512322465" lon="9.203309024309613"><ele>301.0</ele><time>2026-04-25T08:50:06.999Z</time></trkpt><trkpt lat="45.72596360351052" lon="9.203319135756786"><ele>301.0</ele><time>2026-04-25T08:50:07.999Z</time></trkpt><trkpt lat="45.72588301337221" lon="9.20333098522578"><ele>301.0</ele><time>2026-04-25T08:50:08.999Z</time></trkpt><trkpt lat="45.72580149456257" lon="9.203345220455965"><ele>301.0</ele><time>2026-04-25T08:50:10Z</time></trkpt><trkpt lat="45.725724094745196" lon="9.203355593533534"><ele>300.8333333333333</ele><time>2026-04-25T08:50:11Z</time></trkpt><trkpt lat="45.725644148730524" lon="9.203363729516663"><ele>300.66666666666663</ele><time>2026-04-25T08:50:12Z</time></trkpt><trkpt lat="45.72556280221379" lon="9.203369354640936"><ele>300.5</ele><time>2026-04-25T08:50:13Z</time></trkpt><trkpt lat="45.7254800659029" lon="9.203380460741187"><ele>300.3333333333333</ele><time>2026-04-25T08:50:14Z</time></trkpt><trkpt lat="45.72539454548822" lon="9.20339536298817"><ele>300.1666666666667</ele><time>2026-04-25T08:50:15Z</time></trkpt><trkpt lat="45.725310145471624" lon="9.203412900879686"><ele>300.0</ele><time>2026-04-25T08:50:16Z</time></trkpt><trkpt lat="45.72522568278795" lon="9.203428687325165"><ele>299.6666666666667</ele><time>2026-04-25T08:50:17Z</time></trkpt><trkpt lat="45.72514643093886" lon="9.203440539632995"><ele>299.3333333333333</ele><time>2026-04-25T08:50:18Z</time></trkpt><trkpt lat="45.72506273672556" lon="9.203451558033867"><ele>299.0</ele><time>2026-04-25T08:50:19Z</time></trkpt><trkpt lat="45.724979651176795" lon="9.203461652004084"><ele>298.66666666666663</ele><time>2026-04-25T08:50:20Z</time></trkpt><trkpt lat="45.72489268184741" lon="9.203480205275202"><ele>298.3333333333333</ele><time>2026-04-25T08:50:21Z</time></trkpt><trkpt lat="45.72480594064787" lon="9.20349503355489"><ele>298.0</ele><time>2026-04-25T08:50:22Z</time></trkpt><trkpt lat="45.72472055507563" lon="9.20351140027795"><ele>298.0</ele><time>2026-04-25T08:50:23Z</time></trkpt><trkpt lat="45.72463458569998" lon="9.203525185268909"><ele>298.0</ele><time>2026-04-25T08:50:24Z</time></trkpt><trkpt lat="45.724547549650964" lon="9.203540412395478"><ele>298.0</ele><time>2026-04-25T08:50:25Z</time></trkpt><trkpt lat="45.72445790672956" lon="9.203555058245621"><ele>298.0</ele><time>2026-04-25T08:50:26Z</time></trkpt><trkpt lat="45.72436820571061" lon="9.203569092356487"><ele>298.0</ele><time>2026-04-25T08:50:27Z</time></trkpt><trkpt lat="45.724276566939224" lon="9.203585512552433"><ele>298.0</ele><time>2026-04-25T08:50:28Z</time></trkpt><trkpt lat="45.724186411467954" lon="9.203605593362536"><ele>297.8</ele><time>2026-04-25T08:50:29Z</time></trkpt><trkpt lat="45.724096456341414" lon="9.203619230607725"><ele>297.6</ele><time>2026-04-25T08:50:30Z</time></trkpt><trkpt lat="45.7240089985541" lon="9.203627469864363"><ele>297.4</ele><time>2026-04-25T08:50:31Z</time></trkpt><trkpt lat="45.723918683439045" lon="9.20364149443459"><ele>297.2</ele><time>2026-04-25T08:50:32Z</time></trkpt><trkpt lat="45.72382755602646" lon="9.203657542458307"><ele>297.0</ele><time>2026-04-25T08:50:33Z</time></trkpt><trkpt lat="45.72373537747995" lon="9.203672220021327"><ele>297.0</ele><time>2026-04-25T08:50:34Z</time></trkpt><trkpt lat="45.72364247567123" lon="9.203686949157872"><ele>297.0</ele><time>2026-04-25T08:50:35Z</time></trkpt><trkpt lat="45.72355305215717" lon="9.203702684180184"><ele>297.0</ele><time>2026-04-25T08:50:36Z</time></trkpt><trkpt lat="45.72346573450023" lon="9.20371866824489"><ele>297.0</ele><time>2026-04-25T08:50:37Z</time></trkpt><trkpt lat="45.723376704841414" lon="9.203731851406335"><ele>297.0</ele><time>2026-04-25T08:50:38Z</time></trkpt><trkpt lat="45.723285343404484" lon="9.20374293729554"><ele>297.0</ele><time>2026-04-25T08:50:39Z</time></trkpt><trkpt lat="45.72319279475974" lon="9.20375594022092"><ele>297.0</ele><time>2026-04-25T08:50:40Z</time></trkpt><trkpt lat="45.72309942810589" lon="9.203775817523058"><ele>297.0</ele><time>2026-04-25T08:50:41Z</time></trkpt><trkpt lat="45.723005525173214" lon="9.203789295529567"><ele>297.0</ele><time>2026-04-25T08:50:42Z</time></trkpt><trkpt lat="45.722909623323126" lon="9.203805784033076"><ele>297.0</ele><time>2026-04-25T08:50:43Z</time></trkpt><trkpt lat="45.72281656352454" lon="9.20382360691765"><ele>296.8333333333333</ele><time>2026-04-25T08:50:44Z</time></trkpt><trkpt lat="45.72272622040963" lon="9.203842205216668"><ele>296.6666666666667</ele><time>2026-04-25T08:50:45Z</time></trkpt><trkpt lat="45.722638649071335" lon="9.203856596497513"><ele>296.5</ele><time>2026-04-25T08:50:46Z</time></trkpt><trkpt lat="45.722552203214136" lon="9.203864410563384"><ele>296.33333333333337</ele><time>2026-04-25T08:50:47Z</time></trkpt><trkpt lat="45.722462532423094" lon="9.203873583321174"><ele>296.1666666666667</ele><time>2026-04-25T08:50:48Z</time></trkpt><trkpt lat="45.722371807096344" lon="9.203884786743101"><ele>296.0</ele><time>2026-04-25T08:50:49Z</time></trkpt><trkpt lat="45.722279990025186" lon="9.20389709711607"><ele>296.0</ele><time>2026-04-25T08:50:50Z</time></trkpt><trkpt lat="45.72218751658106" lon="9.203909655579801"><ele>296.0</ele><time>2026-04-25T08:50:51Z</time></trkpt><trkpt lat="45.72209487185047" lon="9.203924836538487"><ele>296.0</ele><time>2026-04-25T08:50:52Z</time></trkpt><trkpt lat="45.7220001943932" lon="9.203934610763625"><ele>296.0</ele><time>2026-04-25T08:50:52.999Z</time></trkpt><trkpt lat="45.721905904300336" lon="9.203948232596266"><ele>296.0</ele><time>2026-04-25T08:50:53.999Z</time></trkpt><trkpt lat="45.72181191162442" lon="9.203962914352243"><ele>296.0</ele><time>2026-04-25T08:50:54.999Z</time></trkpt><trkpt lat="45.72171516480509" lon="9.203976796348035"><ele>296.0</ele><time>2026-04-25T08:50:55.999Z</time></trkpt><trkpt lat="45.7216195259684" lon="9.203995539066277"><ele>296.0</ele><time>2026-04-25T08:50:56.999Z</time></trkpt><trkpt lat="45.72152499993884" lon="9.204007921680198"><ele>296.0</ele><time>2026-04-25T08:50:57.999Z</time></trkpt><trkpt lat="45.72142758051045" lon="9.204015738611444"><ele>296.0</ele><time>2026-04-25T08:50:58.999Z</time></trkpt><trkpt lat="45.72133063091025" lon="9.204025027360416"><ele>296.0</ele><time>2026-04-25T08:50:59.999Z</time></trkpt><trkpt lat="45.72123633816457" lon="9.204035497223911"><ele>296.0</ele><time>2026-04-25T08:51:00.999Z</time></trkpt><trkpt lat="45.721143499017906" lon="9.204045546763965"><ele>296.0</ele><time>2026-04-25T08:51:01.999Z</time></trkpt><trkpt lat="45.72105203604341" lon="9.204049112425501"><ele>296.0</ele><time>2026-04-25T08:51:02.999Z</time></trkpt><trkpt lat="45.72095775905396" lon="9.204054648951745"><ele>296.0</ele><time>2026-04-25T08:51:03.999Z</time></trkpt><trkpt lat="45.72086281869678" lon="9.204066188685712"><ele>295.6</ele><time>2026-04-25T08:51:04.999Z</time></trkpt><trkpt lat="45.72076478374421" lon="9.20408106685381"><ele>295.20000000000005</ele><time>2026-04-25T08:51:05.999Z</time></trkpt><trkpt lat="45.72066897706295" lon="9.204091041327784"><ele>294.79999999999995</ele><time>2026-04-25T08:51:06.999Z</time></trkpt><trkpt lat="45.720573378902365" lon="9.204096260334092"><ele>294.4</ele><time>2026-04-25T08:51:07.999Z</time></trkpt><trkpt lat="45.72047766510391" lon="9.204106477095738"><ele>294.0</ele><time>2026-04-25T08:51:08.999Z</time></trkpt><trkpt lat="45.720385199426154" lon="9.204115462186913"><ele>294.0</ele><time>2026-04-25T08:51:09.999Z</time></trkpt><trkpt lat="45.720291115307695" lon="9.204125014533851"><ele>294.0</ele><time>2026-04-25T08:51:10.999Z</time></trkpt><trkpt lat="45.72018625641985" lon="9.204152455164895"><ele>294.0</ele><time>2026-04-25T08:51:11.999Z</time></trkpt><trkpt lat="45.720090527895216" lon="9.204155820413112"><ele>294.0</ele><time>2026-04-25T08:51:12.999Z</time></trkpt><trkpt lat="45.7199925309638" lon="9.204164161505256"><ele>294.0</ele><time>2026-04-25T08:51:13.999Z</time></trkpt><trkpt lat="45.719892908963686" lon="9.204173608392832"><ele>293.59999999999997</ele><time>2026-04-25T08:51:14.999Z</time></trkpt><trkpt lat="45.71979405085931" lon="9.204187980286935"><ele>293.2</ele><time>2026-04-25T08:51:15.999Z</time></trkpt><trkpt lat="45.71969946021286" lon="9.204190814942372"><ele>292.79999999999995</ele><time>2026-04-25T08:51:16.999Z</time></trkpt><trkpt lat="45.71960762617927" lon="9.204192028723751"><ele>292.4</ele><time>2026-04-25T08:51:17.999Z</time></trkpt><trkpt lat="45.719513486348404" lon="9.204202056703224"><ele>292.0</ele><time>2026-04-25T08:51:18.999Z</time></trkpt><trkpt lat="45.719418614569186" lon="9.204213427709057"><ele>291.8</ele><time>2026-04-25T08:51:19.999Z</time></trkpt><trkpt lat="45.7193241108871" lon="9.204229226763559"><ele>291.6</ele><time>2026-04-25T08:51:20.999Z</time></trkpt><trkpt lat="45.719228688887696" lon="9.20424094660385"><ele>291.40000000000003</ele><time>2026-04-25T08:51:21.999Z</time></trkpt><trkpt lat="45.71913349464363" lon="9.204246047548063"><ele>291.2</ele><time>2026-04-25T08:51:22.999Z</time></trkpt><trkpt lat="45.7190365307917" lon="9.204251347749336"><ele>291.0</ele><time>2026-04-25T08:51:23.999Z</time></trkpt><trkpt lat="45.7189417352434" lon="9.204252269651203"><ele>291.0</ele><time>2026-04-25T08:51:24.999Z</time></trkpt><trkpt lat="45.71884438826525" lon="9.204251658884242"><ele>291.0</ele><time>2026-04-25T08:51:25.999Z</time></trkpt><trkpt lat="45.718747555485415" lon="9.204245150696664"><ele>291.0</ele><time>2026-04-25T08:51:26.999Z</time></trkpt><trkpt lat="45.71865466848212" lon="9.204236413271646"><ele>291.0</ele><time>2026-04-25T08:51:27.999Z</time></trkpt><trkpt lat="45.71856370905246" lon="9.204227952726944"><ele>291.0</ele><time>2026-04-25T08:51:28.999Z</time></trkpt><trkpt lat="45.71847205103392" lon="9.20421971645157"><ele>290.8</ele><time>2026-04-25T08:51:29.999Z</time></trkpt><trkpt lat="45.71837595347653" lon="9.204213291797133"><ele>290.6</ele><time>2026-04-25T08:51:30.999Z</time></trkpt><trkpt lat="45.718280500401946" lon="9.204205837339229"><ele>290.4</ele><time>2026-04-25T08:51:31.999Z</time></trkpt><trkpt lat="45.718184581663884" lon="9.204194819187315"><ele>290.2</ele><time>2026-04-25T08:51:32.999Z</time></trkpt><trkpt lat="45.71809103059703" lon="9.204183219667662"><ele>290.0</ele><time>2026-04-25T08:51:33.999Z</time></trkpt><trkpt lat="45.71799890517558" lon="9.204167331084205"><ele>290.0</ele><time>2026-04-25T08:51:34.999Z</time></trkpt><trkpt lat="45.717907997416326" lon="9.204155761615715"><ele>290.0</ele><time>2026-04-25T08:51:35.999Z</time></trkpt><trkpt lat="45.71781386349502" lon="9.204144336376116"><ele>290.0</ele><time>2026-04-25T08:51:36.999Z</time></trkpt><trkpt lat="45.717716651761386" lon="9.204133414908245"><ele>290.0</ele><time>2026-04-25T08:51:37.999Z</time></trkpt><trkpt lat="45.71761844240148" lon="9.204119893010953"><ele>290.0</ele><time>2026-04-25T08:51:38.999Z</time></trkpt><trkpt lat="45.71752389479895" lon="9.204108469043735"><ele>289.6</ele><time>2026-04-25T08:51:39.999Z</time></trkpt><trkpt lat="45.71742895924378" lon="9.204100832151838"><ele>289.2</ele><time>2026-04-25T08:51:40.999Z</time></trkpt><trkpt lat="45.71733724503358" lon="9.204091362425524"><ele>288.8</ele><time>2026-04-25T08:51:41.999Z</time></trkpt><trkpt lat="45.717246699341" lon="9.20408820441993"><ele>288.4</ele><time>2026-04-25T08:51:42.999Z</time></trkpt><trkpt lat="45.71715700621281" lon="9.204103822097801"><ele>288.0</ele><time>2026-04-25T08:51:43.999Z</time></trkpt><trkpt lat="45.71706974740451" lon="9.204134202146012"><ele>288.0</ele><time>2026-04-25T08:51:44.999Z</time></trkpt><trkpt lat="45.716984160894576" lon="9.204183198570554"><ele>288.0</ele><time>2026-04-25T08:51:45.999Z</time></trkpt><trkpt lat="45.71690483295333" lon="9.204244830408607"><ele>288.0</ele><time>2026-04-25T08:51:46.999Z</time></trkpt><trkpt lat="45.71682953138881" lon="9.204308677812302"><ele>288.0</ele><time>2026-04-25T08:51:47.999Z</time></trkpt><trkpt lat="45.71675514246889" lon="9.204362075648964"><ele>288.0</ele><time>2026-04-25T08:51:48.999Z</time></trkpt><trkpt lat="45.716683347928196" lon="9.204424887994598"><ele>288.0</ele><time>2026-04-25T08:51:49.999Z</time></trkpt><trkpt lat="45.71661131222235" lon="9.204482449605646"><ele>287.8333333333333</ele><time>2026-04-25T08:51:50.999Z</time></trkpt><trkpt lat="45.71653789218795" lon="9.204543592320999"><ele>287.6666666666667</ele><time>2026-04-25T08:51:51.999Z</time></trkpt><trkpt lat="45.71646598647357" lon="9.20460336537639"><ele>287.5</ele><time>2026-04-25T08:51:52.999Z</time></trkpt><trkpt lat="45.71639425164024" lon="9.204668325639954"><ele>287.33333333333337</ele><time>2026-04-25T08:51:53.999Z</time></trkpt><trkpt lat="45.71632380845904" lon="9.204730278228133"><ele>287.1666666666667</ele><time>2026-04-25T08:51:54.999Z</time></trkpt><trkpt lat="45.71625335071672" lon="9.204789767621497"><ele>287.0</ele><time>2026-04-25T08:51:55.999Z</time></trkpt><trkpt lat="45.71618976111261" lon="9.204843515870717"><ele>287.0</ele><time>2026-04-25T08:51:56.999Z</time></trkpt><trkpt lat="45.71613430308082" lon="9.204894998047521"><ele>287.0</ele><time>2026-04-25T08:51:57.999Z</time></trkpt><trkpt lat="45.71603063922238" lon="9.204952777660477"><ele>287.0</ele><time>2026-04-25T08:51:59.999Z</time></trkpt><trkpt lat="45.715936866630564" lon="9.204916184107558"><ele>287.0</ele><time>2026-04-25T08:52:01.999Z</time></trkpt><trkpt lat="45.715857852753636" lon="9.204830978550506"><ele>287.0</ele><time>2026-04-25T08:52:03.999Z</time></trkpt><trkpt lat="45.71576851770598" lon="9.20476667857178"><ele>286.83333333333337</ele><time>2026-04-25T08:52:05.999Z</time></trkpt><trkpt lat="45.71567714970871" lon="9.204704288668243"><ele>286.6666666666667</ele><time>2026-04-25T08:52:07.999Z</time></trkpt><trkpt lat="45.715591286509785" lon="9.204638734812152"><ele>286.5</ele><time>2026-04-25T08:52:09.999Z</time></trkpt><trkpt lat="45.71553037369293" lon="9.20456701149893"><ele>286.3333333333333</ele><time>2026-04-25T08:52:11.999Z</time></trkpt><trkpt lat="45.71546854485104" lon="9.204479839044382"><ele>286.16666666666663</ele><time>2026-04-25T08:52:15Z</time></trkpt><trkpt lat="45.715416522174955" lon="9.204409434944768"><ele>286.0</ele><time>2026-04-25T08:52:24Z</time></trkpt><trkpt lat="45.71535639892412" lon="9.204374991219582"><ele>286.0</ele><time>2026-04-25T08:52:26Z</time></trkpt><trkpt lat="45.71532705250068" lon="9.204268574962718"><ele>286.0</ele><time>2026-04-25T08:52:28Z</time></trkpt><trkpt lat="45.71524350851432" lon="9.20419028652341"><ele>286.0</ele><time>2026-04-25T08:52:30Z</time></trkpt><trkpt lat="45.715130232872475" lon="9.204181601807809"><ele>286.0</ele><time>2026-04-25T08:52:32Z</time></trkpt><trkpt lat="45.71502537354958" lon="9.204125536593368"><ele>286.0</ele><time>2026-04-25T08:52:34Z</time></trkpt><trkpt lat="45.714921563700514" lon="9.204056316514848"><ele>285.8</ele><time>2026-04-25T08:52:36Z</time></trkpt><trkpt lat="45.71481177954791" lon="9.203967373723414"><ele>285.6</ele><time>2026-04-25T08:52:38Z</time></trkpt><trkpt lat="45.71475647433499" lon="9.203918359242822"><ele>285.4</ele><time>2026-04-25T08:52:39Z</time></trkpt><trkpt lat="45.71465108960388" lon="9.203833269850305"><ele>285.2</ele><time>2026-04-25T08:52:41Z</time></trkpt><trkpt lat="45.71454739169589" lon="9.203747112131731"><ele>285.0</ele><time>2026-04-25T08:52:43Z</time></trkpt><trkpt lat="45.71449030870453" lon="9.20370574241131"><ele>285.0</ele><time>2026-04-25T08:52:44Z</time></trkpt><trkpt lat="45.7144304487779" lon="9.203665147754384"><ele>285.0</ele><time>2026-04-25T08:52:45Z</time></trkpt><trkpt lat="45.714377524427626" lon="9.203597440833954"><ele>285.0</ele><time>2026-04-25T08:52:46Z</time></trkpt><trkpt lat="45.71431459819696" lon="9.203544965442362"><ele>285.0</ele><time>2026-04-25T08:52:47Z</time></trkpt><trkpt lat="45.71425202532135" lon="9.20349088199645"><ele>285.0</ele><time>2026-04-25T08:52:48Z</time></trkpt><trkpt lat="45.71419110148636" lon="9.203438871578445"><ele>285.0</ele><time>2026-04-25T08:52:49Z</time></trkpt><trkpt lat="45.7141321924233" lon="9.20338858027554"><ele>285.0</ele><time>2026-04-25T08:52:50Z</time></trkpt><trkpt lat="45.71407184197703" lon="9.20333805989411"><ele>284.85714285714283</ele><time>2026-04-25T08:52:51Z</time></trkpt><trkpt lat="45.71400698696591" lon="9.20329684030506"><ele>284.7142857142857</ele><time>2026-04-25T08:52:52Z</time></trkpt><trkpt lat="45.713942834901886" lon="9.203240852198672"><ele>284.57142857142856</ele><time>2026-04-25T08:52:53Z</time></trkpt><trkpt lat="45.7138750589692" lon="9.203194408734968"><ele>284.42857142857144</ele><time>2026-04-25T08:52:54Z</time></trkpt><trkpt lat="45.71381252758728" lon="9.20314198238864"><ele>284.2857142857143</ele><time>2026-04-25T08:52:55Z</time></trkpt><trkpt lat="45.713748068336464" lon="9.203092567493849"><ele>284.1428571428571</ele><time>2026-04-25T08:52:56Z</time></trkpt><trkpt lat="45.71369207078115" lon="9.203028308514686"><ele>284.0</ele><time>2026-04-25T08:52:57Z</time></trkpt><trkpt lat="45.713630645521704" lon="9.202977517203818"><ele>283.83333333333337</ele><time>2026-04-25T08:52:58Z</time></trkpt><trkpt lat="45.71356468104889" lon="9.202922972435466"><ele>283.6666666666667</ele><time>2026-04-25T08:52:59Z</time></trkpt><trkpt lat="45.71349625068529" lon="9.202866388722835"><ele>283.5</ele><time>2026-04-25T08:53:00Z</time></trkpt><trkpt lat="45.71341968931421" lon="9.202829517140499"><ele>283.3333333333333</ele><time>2026-04-25T08:53:01Z</time></trkpt><trkpt lat="45.71335637028036" lon="9.202750920903812"><ele>283.16666666666663</ele><time>2026-04-25T08:53:02Z</time></trkpt><trkpt lat="45.71327532284839" lon="9.20271020468072"><ele>283.0</ele><time>2026-04-25T08:53:03Z</time></trkpt><trkpt lat="45.71320727647075" lon="9.202627940087716"><ele>283.0</ele><time>2026-04-25T08:53:04Z</time></trkpt><trkpt lat="45.713129782399015" lon="9.20256401243148"><ele>283.0</ele><time>2026-04-25T08:53:05Z</time></trkpt><trkpt lat="45.713052199027686" lon="9.202500011153948"><ele>283.0</ele><time>2026-04-25T08:53:06Z</time></trkpt><trkpt lat="45.71297585337774" lon="9.202437031282333"><ele>283.0</ele><time>2026-04-25T08:53:07Z</time></trkpt><trkpt lat="45.71290171802554" lon="9.202375877163446"><ele>283.0</ele><time>2026-04-25T08:53:07.999Z</time></trkpt><trkpt lat="45.712828694584" lon="9.202314899375963"><ele>283.0</ele><time>2026-04-25T08:53:08.999Z</time></trkpt><trkpt lat="45.71275900764882" lon="9.202257647325013"><ele>283.5</ele><time>2026-04-25T08:53:09.999Z</time></trkpt><trkpt lat="45.71269009111937" lon="9.202201029220056"><ele>284.0</ele><time>2026-04-25T08:53:10.999Z</time></trkpt><trkpt lat="45.7126180468594" lon="9.202141654431646"><ele>284.5</ele><time>2026-04-25T08:53:11.999Z</time></trkpt><trkpt lat="45.71253287021077" lon="9.20210616341102"><ele>285.0</ele><time>2026-04-25T08:53:12.999Z</time></trkpt><trkpt lat="45.712457274813545" lon="9.202043858552036"><ele>285.5</ele><time>2026-04-25T08:53:13.999Z</time></trkpt><trkpt lat="45.71237915095102" lon="9.201978999391843"><ele>286.0</ele><time>2026-04-25T08:53:14.999Z</time></trkpt><trkpt lat="45.712303525979685" lon="9.201909143146231"><ele>286.0</ele><time>2026-04-25T08:53:15.999Z</time></trkpt><trkpt lat="45.712225620773616" lon="9.201836821130357"><ele>286.0</ele><time>2026-04-25T08:53:16.999Z</time></trkpt><trkpt lat="45.71214525345892" lon="9.201766072659881"><ele>286.0</ele><time>2026-04-25T08:53:17.999Z</time></trkpt><trkpt lat="45.71207454524138" lon="9.201671453668453"><ele>286.0</ele><time>2026-04-25T08:53:18.999Z</time></trkpt><trkpt lat="45.712004961008" lon="9.201588198556932"><ele>286.0</ele><time>2026-04-25T08:53:19.999Z</time></trkpt><trkpt lat="45.71193991182977" lon="9.201500349747635"><ele>285.2</ele><time>2026-04-25T08:53:20.999Z</time></trkpt><trkpt lat="45.71187837101487" lon="9.201404485832743"><ele>284.40000000000003</ele><time>2026-04-25T08:53:21.999Z</time></trkpt><trkpt lat="45.711817175909225" lon="9.201299349843406"><ele>283.6</ele><time>2026-04-25T08:53:22.999Z</time></trkpt><trkpt lat="45.711759340977316" lon="9.201189181296256"><ele>282.8</ele><time>2026-04-25T08:53:23.999Z</time></trkpt><trkpt lat="45.71170575704517" lon="9.201075699458512"><ele>282.0</ele><time>2026-04-25T08:53:24.999Z</time></trkpt><trkpt lat="45.71165514201843" lon="9.20095685920281"><ele>282.0</ele><time>2026-04-25T08:53:25.999Z</time></trkpt><trkpt lat="45.71160766737888" lon="9.200836610359074"><ele>282.0</ele><time>2026-04-25T08:53:26.999Z</time></trkpt><trkpt lat="45.71156032302737" lon="9.200716275728464"><ele>282.0</ele><time>2026-04-25T08:53:27.999Z</time></trkpt><trkpt lat="45.71151380895641" lon="9.200598059153625"><ele>282.0</ele><time>2026-04-25T08:53:28.999Z</time></trkpt><trkpt lat="45.71146755413902" lon="9.20048050159236"><ele>282.0</ele><time>2026-04-25T08:53:29.999Z</time></trkpt><trkpt lat="45.71142089800277" lon="9.200361924149096"><ele>281.8</ele><time>2026-04-25T08:53:30.999Z</time></trkpt><trkpt lat="45.71137300465857" lon="9.200240202324467"><ele>281.6</ele><time>2026-04-25T08:53:31.999Z</time></trkpt><trkpt lat="45.71132485085188" lon="9.200117818459306"><ele>281.40000000000003</ele><time>2026-04-25T08:53:32.999Z</time></trkpt><trkpt lat="45.711277492055785" lon="9.199997703365865"><ele>281.2</ele><time>2026-04-25T08:53:33.999Z</time></trkpt><trkpt lat="45.711231502399464" lon="9.199881487100196"><ele>281.0</ele><time>2026-04-25T08:53:34.999Z</time></trkpt><trkpt lat="45.71118452666621" lon="9.19976534707237"><ele>281.0</ele><time>2026-04-25T08:53:35.999Z</time></trkpt><trkpt lat="45.71113879793005" lon="9.199653235291313"><ele>281.0</ele><time>2026-04-25T08:53:36.999Z</time></trkpt><trkpt lat="45.71109240581675" lon="9.199540663335837"><ele>281.0</ele><time>2026-04-25T08:53:37.999Z</time></trkpt><trkpt lat="45.71104741958455" lon="9.199428813420745"><ele>281.0</ele><time>2026-04-25T08:53:38.999Z</time></trkpt><trkpt lat="45.71100350252506" lon="9.19931731206509"><ele>281.0</ele><time>2026-04-25T08:53:39.999Z</time></trkpt><trkpt lat="45.71096137952129" lon="9.199210344020585"><ele>281.0</ele><time>2026-04-25T08:53:40.999Z</time></trkpt><trkpt lat="45.71091880540041" lon="9.199102211205961"><ele>280.33333333333337</ele><time>2026-04-25T08:53:41.999Z</time></trkpt><trkpt lat="45.710876877047106" lon="9.198995718468412"><ele>279.6666666666667</ele><time>2026-04-25T08:53:42.999Z</time></trkpt><trkpt lat="45.71083361388317" lon="9.198885835463845"><ele>279.0</ele><time>2026-04-25T08:53:43.999Z</time></trkpt><trkpt lat="45.71079440886135" lon="9.198785974628994"><ele>278.3333333333333</ele><time>2026-04-25T08:53:44.999Z</time></trkpt><trkpt lat="45.710755555776714" lon="9.198686554878936"><ele>277.66666666666663</ele><time>2026-04-25T08:53:45.999Z</time></trkpt><trkpt lat="45.71071719613902" lon="9.198588395380932"><ele>277.0</ele><time>2026-04-25T08:53:46.999Z</time></trkpt><trkpt lat="45.71067831126593" lon="9.198486621262255"><ele>277.0</ele><time>2026-04-25T08:53:47.999Z</time></trkpt><trkpt lat="45.710641003035484" lon="9.19838565445384"><ele>277.0</ele><time>2026-04-25T08:53:48.999Z</time></trkpt><trkpt lat="45.710604178480224" lon="9.198283381847284"><ele>277.0</ele><time>2026-04-25T08:53:49.999Z</time></trkpt><trkpt lat="45.71056660117758" lon="9.198175870176708"><ele>277.0</ele><time>2026-04-25T08:53:50.999Z</time></trkpt><trkpt lat="45.71053310257576" lon="9.198067493484901"><ele>277.0</ele><time>2026-04-25T08:53:51.999Z</time></trkpt><trkpt lat="45.710498889489266" lon="9.197955677788741"><ele>277.0</ele><time>2026-04-25T08:53:52.999Z</time></trkpt><trkpt lat="45.71047004047698" lon="9.197846993179898"><ele>277.0</ele><time>2026-04-25T08:53:53.999Z</time></trkpt><trkpt lat="45.71044336985014" lon="9.197738328548706"><ele>277.0</ele><time>2026-04-25T08:53:54.999Z</time></trkpt><trkpt lat="45.710420184720874" lon="9.19762854152489"><ele>277.0</ele><time>2026-04-25T08:53:55.999Z</time></trkpt><trkpt lat="45.71040212802803" lon="9.197523877627937"><ele>277.0</ele><time>2026-04-25T08:53:56.999Z</time></trkpt><trkpt lat="45.7103852543662" lon="9.197414260416373"><ele>277.0</ele><time>2026-04-25T08:53:57.999Z</time></trkpt><trkpt lat="45.71036838020491" lon="9.197300704947668"><ele>277.0</ele><time>2026-04-25T08:53:58.999Z</time></trkpt><trkpt lat="45.71035460064468" lon="9.197180045754546"><ele>277.0</ele><time>2026-04-25T08:53:59.999Z</time></trkpt><trkpt lat="45.71034172064711" lon="9.197058192543537"><ele>277.0</ele><time>2026-04-25T08:54:00.999Z</time></trkpt><trkpt lat="45.710329046006656" lon="9.196936532890263"><ele>277.0</ele><time>2026-04-25T08:54:01.999Z</time></trkpt><trkpt lat="45.7103170621507" lon="9.196816924285812"><ele>277.0</ele><time>2026-04-25T08:54:02.999Z</time></trkpt><trkpt lat="45.7103057742224" lon="9.196699202125203"><ele>277.0</ele><time>2026-04-25T08:54:03.999Z</time></trkpt><trkpt lat="45.710294559409014" lon="9.196582242446494"><ele>277.0</ele><time>2026-04-25T08:54:04.999Z</time></trkpt><trkpt lat="45.71028372834772" lon="9.196467654315741"><ele>276.66666666666663</ele><time>2026-04-25T08:54:05.999Z</time></trkpt><trkpt lat="45.710273159390574" lon="9.196355235583374"><ele>276.3333333333333</ele><time>2026-04-25T08:54:06.999Z</time></trkpt><trkpt lat="45.71026235826898" lon="9.196247397111692"><ele>276.0</ele><time>2026-04-25T08:54:07.999Z</time></trkpt><trkpt lat="45.710251518307224" lon="9.19614030909943"><ele>275.6666666666667</ele><time>2026-04-25T08:54:08.999Z</time></trkpt><trkpt lat="45.71024014999692" lon="9.196032336074948"><ele>275.33333333333337</ele><time>2026-04-25T08:54:09.999Z</time></trkpt><trkpt lat="45.71022535218446" lon="9.195918750626497"><ele>275.0</ele><time>2026-04-25T08:54:10.999Z</time></trkpt><trkpt lat="45.71020415957687" lon="9.195799449098876"><ele>275.0</ele><time>2026-04-25T08:54:11.999Z</time></trkpt><trkpt lat="45.71017679049499" lon="9.195682078285724"><ele>275.0</ele><time>2026-04-25T08:54:12.999Z</time></trkpt><trkpt lat="45.71014696271529" lon="9.195577338100327"><ele>275.0</ele><time>2026-04-25T08:54:13.999Z</time></trkpt><trkpt lat="45.71010184578978" lon="9.195482903279329"><ele>275.0</ele><time>2026-04-25T08:54:14.999Z</time></trkpt><trkpt lat="45.71004895879126" lon="9.195416772184636"><ele>275.0</ele><time>2026-04-25T08:54:15.999Z</time></trkpt><trkpt lat="45.71002489685369" lon="9.195328657116821"><ele>275.0</ele><time>2026-04-25T08:54:16.999Z</time></trkpt><trkpt lat="45.70995919539665" lon="9.195197802606902"><ele>274.6666666666667</ele><time>2026-04-25T08:54:18.999Z</time></trkpt><trkpt lat="45.70991254069787" lon="9.19510407057127"><ele>274.33333333333337</ele><time>2026-04-25T08:54:21Z</time></trkpt><trkpt lat="45.709872586279744" lon="9.19501454547699"><ele>274.0</ele><time>2026-04-25T08:54:25Z</time></trkpt><trkpt lat="45.70992316786611" lon="9.194950459103385"><ele>273.6666666666667</ele><time>2026-04-25T08:54:28Z</time></trkpt><trkpt lat="45.70999205125954" lon="9.19488979460911"><ele>273.3333333333333</ele><time>2026-04-25T08:54:30Z</time></trkpt><trkpt lat="45.71005840486876" lon="9.194820587510453"><ele>273.0</ele><time>2026-04-25T08:54:32Z</time></trkpt><trkpt lat="45.71013608998265" lon="9.194789312282126"><ele>272.8</ele><time>2026-04-25T08:54:34Z</time></trkpt><trkpt lat="45.710225429413406" lon="9.194711174454705"><ele>272.6</ele><time>2026-04-25T08:54:36Z</time></trkpt><trkpt lat="45.71031680997874" lon="9.19462748964308"><ele>272.4</ele><time>2026-04-25T08:54:38Z</time></trkpt><trkpt lat="45.710414270995436" lon="9.194578849392187"><ele>272.2</ele><time>2026-04-25T08:54:40Z</time></trkpt><trkpt lat="45.710501723693355" lon="9.194490832756546"><ele>272.0</ele><time>2026-04-25T08:54:42Z</time></trkpt><trkpt lat="45.710606676594736" lon="9.194410513197496"><ele>272.0</ele><time>2026-04-25T08:54:44Z</time></trkpt><trkpt lat="45.71071255821911" lon="9.194334183439908"><ele>272.0</ele><time>2026-04-25T08:54:46Z</time></trkpt><trkpt lat="45.71082477699816" lon="9.194282556048693"><ele>272.0</ele><time>2026-04-25T08:54:48Z</time></trkpt><trkpt lat="45.71091734988367" lon="9.19419489689223"><ele>272.0</ele><time>2026-04-25T08:54:50Z</time></trkpt><trkpt lat="45.71101634613158" lon="9.194153361173557"><ele>272.2</ele><time>2026-04-25T08:54:52Z</time></trkpt><trkpt lat="45.711103114424" lon="9.194098635797658"><ele>272.4</ele><time>2026-04-25T08:54:54Z</time></trkpt><trkpt lat="45.71119134655844" lon="9.194043830331037"><ele>272.6</ele><time>2026-04-25T08:54:56Z</time></trkpt><trkpt lat="45.71128416940255" lon="9.193963085474543"><ele>272.8</ele><time>2026-04-25T08:54:58Z</time></trkpt><trkpt lat="45.71136862234837" lon="9.193908262778855"><ele>273.0</ele><time>2026-04-25T08:55:00Z</time></trkpt><trkpt lat="45.711448531856256" lon="9.19385642621794"><ele>272.6</ele><time>2026-04-25T08:55:02Z</time></trkpt><trkpt lat="45.711520162855216" lon="9.193776083824002"><ele>272.20000000000005</ele><time>2026-04-25T08:55:05Z</time></trkpt><trkpt lat="45.711561656638395" lon="9.193684926968052"><ele>271.8</ele><time>2026-04-25T08:55:07Z</time></trkpt><trkpt lat="45.71154779160963" lon="9.193550779029183"><ele>271.40000000000003</ele><time>2026-04-25T08:55:09Z</time></trkpt><trkpt lat="45.711478344761524" lon="9.193417066600956"><ele>271.0</ele><time>2026-04-25T08:55:11Z</time></trkpt><trkpt lat="45.71139942107196" lon="9.193286610696742"><ele>271.0</ele><time>2026-04-25T08:55:13Z</time></trkpt><trkpt lat="45.711378512833576" lon="9.193198308129196"><ele>271.0</ele><time>2026-04-25T08:55:14Z</time></trkpt><trkpt lat="45.71134468560148" lon="9.193111036784611"><ele>271.0</ele><time>2026-04-25T08:55:15Z</time></trkpt><trkpt lat="45.71131092050569" lon="9.19302776570508"><ele>271.0</ele><time>2026-04-25T08:55:16Z</time></trkpt><trkpt lat="45.711275749531126" lon="9.192941027258138"><ele>271.0</ele><time>2026-04-25T08:55:17Z</time></trkpt><trkpt lat="45.71124228707808" lon="9.192852078435655"><ele>271.0</ele><time>2026-04-25T08:55:18Z</time></trkpt><trkpt lat="45.71120761926521" lon="9.192757743476852"><ele>271.0</ele><time>2026-04-25T08:55:19Z</time></trkpt><trkpt lat="45.71117443644496" lon="9.192664644556682"><ele>271.0</ele><time>2026-04-25T08:55:19.999Z</time></trkpt><trkpt lat="45.71114183216642" lon="9.192571454076036"><ele>271.0</ele><time>2026-04-25T08:55:20.999Z</time></trkpt><trkpt lat="45.71110902797483" lon="9.192474978901947"><ele>271.0</ele><time>2026-04-25T08:55:21.999Z</time></trkpt><trkpt lat="45.711075452387234" lon="9.192376235437965"><ele>271.0</ele><time>2026-04-25T08:55:22.999Z</time></trkpt><trkpt lat="45.71104142783759" lon="9.192276171047268"><ele>271.0</ele><time>2026-04-25T08:55:23.999Z</time></trkpt><trkpt lat="45.7110067692755" lon="9.192174159493382"><ele>271.0</ele><time>2026-04-25T08:55:24.999Z</time></trkpt><trkpt lat="45.71097184826062" lon="9.192071339511772"><ele>270.57142857142856</ele><time>2026-04-25T08:55:25.999Z</time></trkpt><trkpt lat="45.71093608391696" lon="9.191973146316663"><ele>270.14285714285717</ele><time>2026-04-25T08:55:26.999Z</time></trkpt><trkpt lat="45.71089876628846" lon="9.191879614091476"><ele>269.7142857142857</ele><time>2026-04-25T08:55:27.999Z</time></trkpt><trkpt lat="45.71085921486796" lon="9.191790697053817"><ele>269.2857142857143</ele><time>2026-04-25T08:55:28.999Z</time></trkpt><trkpt lat="45.71081122295132" lon="9.191709006300336"><ele>268.85714285714283</ele><time>2026-04-25T08:55:29.999Z</time></trkpt><trkpt lat="45.7107493877812" lon="9.191648575336986"><ele>268.42857142857144</ele><time>2026-04-25T08:55:30.999Z</time></trkpt><trkpt lat="45.710695094311006" lon="9.191580729675138"><ele>268.0</ele><time>2026-04-25T08:55:31.999Z</time></trkpt><trkpt lat="45.71064596955505" lon="9.191515775234315"><ele>268.0</ele><time>2026-04-25T08:55:32.999Z</time></trkpt><trkpt lat="45.7106109993893" lon="9.191435671774606"><ele>268.0</ele><time>2026-04-25T08:55:33.999Z</time></trkpt><trkpt lat="45.71052459273056" lon="9.191347269464057"><ele>268.0</ele><time>2026-04-25T08:55:35.999Z</time></trkpt><trkpt lat="45.71048279592182" lon="9.191264638797795"><ele>268.0</ele><time>2026-04-25T08:55:37.999Z</time></trkpt><trkpt lat="45.710439857223875" lon="9.191178677275419"><ele>268.0</ele><time>2026-04-25T08:55:40.999Z</time></trkpt><trkpt lat="45.71037528263893" lon="9.191145218390531"><ele>268.0</ele><time>2026-04-25T08:56:06.999Z</time></trkpt><trkpt lat="45.710302762368876" lon="9.191195803224309"><ele>268.0</ele><time>2026-04-25T08:56:09.999Z</time></trkpt><trkpt lat="45.710268082010735" lon="9.19128507691597"><ele>268.0</ele><time>2026-04-25T08:56:11.999Z</time></trkpt><trkpt lat="45.71023544465674" lon="9.191384685247607"><ele>268.0</ele><time>2026-04-25T08:56:13.999Z</time></trkpt><trkpt lat="45.71018426809043" lon="9.191493652989967"><ele>268.0</ele><time>2026-04-25T08:56:15.999Z</time></trkpt><trkpt lat="45.7101108669797" lon="9.191612575282694"><ele>268.0</ele><time>2026-04-25T08:56:17.999Z</time></trkpt><trkpt lat="45.710071497117454" lon="9.191685054805182"><ele>268.0</ele><time>2026-04-25T08:56:18.999Z</time></trkpt><trkpt lat="45.710031137668075" lon="9.191760763263066"><ele>268.0</ele><time>2026-04-25T08:56:19.999Z</time></trkpt><trkpt lat="45.709987394470666" lon="9.191845718002044"><ele>268.0</ele><time>2026-04-25T08:56:20.999Z</time></trkpt><trkpt lat="45.709941419388706" lon="9.191934876479191"><ele>268.0</ele><time>2026-04-25T08:56:21.999Z</time></trkpt><trkpt lat="45.70989164588734" lon="9.192015797812322"><ele>268.0</ele><time>2026-04-25T08:56:22.999Z</time></trkpt><trkpt lat="45.70984051010321" lon="9.192089831779018"><ele>268.0</ele><time>2026-04-25T08:56:23.999Z</time></trkpt><trkpt lat="45.70979301401555" lon="9.192167443726817"><ele>268.0</ele><time>2026-04-25T08:56:24.999Z</time></trkpt><trkpt lat="45.709745373443106" lon="9.192252972592076"><ele>268.0</ele><time>2026-04-25T08:56:25.999Z</time></trkpt><trkpt lat="45.70970220191924" lon="9.192336540738369"><ele>268.0</ele><time>2026-04-25T08:56:27Z</time></trkpt><trkpt lat="45.70966085583076" lon="9.192415594015166"><ele>268.0</ele><time>2026-04-25T08:56:28Z</time></trkpt><trkpt lat="45.709624910172614" lon="9.192496098090631"><ele>268.0</ele><time>2026-04-25T08:56:29Z</time></trkpt><trkpt lat="45.70959191416589" lon="9.19257334268194"><ele>268.0</ele><time>2026-04-25T08:56:30Z</time></trkpt><trkpt lat="45.70952851276283" lon="9.19272391407768"><ele>268.0</ele><time>2026-04-25T08:56:32Z</time></trkpt><trkpt lat="45.7094996164856" lon="9.19280518850616"><ele>268.0</ele><time>2026-04-25T08:56:33Z</time></trkpt><trkpt lat="45.7094752603258" lon="9.192891507148625"><ele>268.0</ele><time>2026-04-25T08:56:34Z</time></trkpt><trkpt lat="45.709434063754856" lon="9.193049222858875"><ele>268.0</ele><time>2026-04-25T08:56:36Z</time></trkpt><trkpt lat="45.709379085857506" lon="9.193191423471628"><ele>268.0</ele><time>2026-04-25T08:56:38Z</time></trkpt><trkpt lat="45.709314699735636" lon="9.193299501860086"><ele>268.0</ele><time>2026-04-25T08:56:40Z</time></trkpt><trkpt lat="45.70924668595304" lon="9.19338809533718"><ele>268.0</ele><time>2026-04-25T08:56:42Z</time></trkpt><trkpt lat="45.709157558377456" lon="9.193369793518617"><ele>268.2</ele><time>2026-04-25T08:56:44Z</time></trkpt><trkpt lat="45.70916537015548" lon="9.193250167929067"><ele>268.4</ele><time>2026-04-25T08:56:45Z</time></trkpt><trkpt lat="45.70908997385102" lon="9.193121804754604"><ele>268.59999999999997</ele><time>2026-04-25T08:56:47Z</time></trkpt><trkpt lat="45.7090367515083" lon="9.192973977139216"><ele>268.8</ele><time>2026-04-25T08:56:49Z</time></trkpt><trkpt lat="45.7089508904426" lon="9.192845859886928"><ele>269.0</ele><time>2026-04-25T08:56:51Z</time></trkpt><trkpt lat="45.70887955250276" lon="9.192693391328346"><ele>269.0</ele><time>2026-04-25T08:56:53Z</time></trkpt><trkpt lat="45.708830162703244" lon="9.192617675634033"><ele>269.0</ele><time>2026-04-25T08:56:54Z</time></trkpt><trkpt lat="45.70877896145142" lon="9.192541355237235"><ele>269.0</ele><time>2026-04-25T08:56:55Z</time></trkpt><trkpt lat="45.70872696714463" lon="9.192463679904249"><ele>269.0</ele><time>2026-04-25T08:56:56Z</time></trkpt><trkpt lat="45.708675524349474" lon="9.192386496813315"><ele>269.0</ele><time>2026-04-25T08:56:57Z</time></trkpt><trkpt lat="45.708622127338124" lon="9.192306381675513"><ele>269.0</ele><time>2026-04-25T08:56:58Z</time></trkpt><trkpt lat="45.708564343231636" lon="9.192221057397969"><ele>269.0</ele><time>2026-04-25T08:56:59Z</time></trkpt><trkpt lat="45.70850647890481" lon="9.192136030867625"><ele>269.0</ele><time>2026-04-25T08:57:00Z</time></trkpt><trkpt lat="45.70843580487689" lon="9.192065413610695"><ele>269.0</ele><time>2026-04-25T08:57:01Z</time></trkpt><trkpt lat="45.70837607047085" lon="9.191975811554636"><ele>269.0</ele><time>2026-04-25T08:57:02Z</time></trkpt><trkpt lat="45.70831469115066" lon="9.191885818285426"><ele>269.0</ele><time>2026-04-25T08:57:03Z</time></trkpt><trkpt lat="45.70824884386102" lon="9.191801338364105"><ele>269.0</ele><time>2026-04-25T08:57:04Z</time></trkpt><trkpt lat="45.70819806858674" lon="9.191700653870603"><ele>269.0</ele><time>2026-04-25T08:57:05Z</time></trkpt><trkpt lat="45.7081350247548" lon="9.191616720307536"><ele>269.0</ele><time>2026-04-25T08:57:06Z</time></trkpt><trkpt lat="45.70805950192709" lon="9.191547805866012"><ele>269.0</ele><time>2026-04-25T08:57:07Z</time></trkpt><trkpt lat="45.70799340651051" lon="9.191461463743318"><ele>269.0</ele><time>2026-04-25T08:57:08Z</time></trkpt><trkpt lat="45.70792222143184" lon="9.191387492528913"><ele>269.0</ele><time>2026-04-25T08:57:09Z</time></trkpt><trkpt lat="45.70785645658322" lon="9.191309852354136"><ele>269.0</ele><time>2026-04-25T08:57:10Z</time></trkpt><trkpt lat="45.70779162807644" lon="9.191235115095632"><ele>269.0</ele><time>2026-04-25T08:57:11Z</time></trkpt><trkpt lat="45.707726223248414" lon="9.19116459427522"><ele>269.0</ele><time>2026-04-25T08:57:12Z</time></trkpt><trkpt lat="45.70765697424386" lon="9.191100953590576"><ele>269.0</ele><time>2026-04-25T08:57:13Z</time></trkpt><trkpt lat="45.70758640578915" lon="9.191037402196692"><ele>269.0</ele><time>2026-04-25T08:57:14Z</time></trkpt><trkpt lat="45.70751890276433" lon="9.190969468678393"><ele>269.0</ele><time>2026-04-25T08:57:15Z</time></trkpt><trkpt lat="45.7074535221716" lon="9.190909965046501"><ele>269.0</ele><time>2026-04-25T08:57:16Z</time></trkpt><trkpt lat="45.70739062443071" lon="9.190844481215937"><ele>269.0</ele><time>2026-04-25T08:57:17Z</time></trkpt><trkpt lat="45.7073230991307" lon="9.190776889857492"><ele>269.0</ele><time>2026-04-25T08:57:18Z</time></trkpt><trkpt lat="45.70725476775997" lon="9.190709447022735"><ele>269.0</ele><time>2026-04-25T08:57:19Z</time></trkpt><trkpt lat="45.70718287987352" lon="9.19063986598802"><ele>269.0</ele><time>2026-04-25T08:57:20Z</time></trkpt><trkpt lat="45.707107683612264" lon="9.190574371531085"><ele>269.0</ele><time>2026-04-25T08:57:21Z</time></trkpt><trkpt lat="45.7070358716748" lon="9.190505412625289"><ele>269.0</ele><time>2026-04-25T08:57:22Z</time></trkpt><trkpt lat="45.70696553798422" lon="9.190434504073394"><ele>268.6666666666667</ele><time>2026-04-25T08:57:23Z</time></trkpt><trkpt lat="45.70689191619146" lon="9.190364965071701"><ele>268.33333333333337</ele><time>2026-04-25T08:57:24Z</time></trkpt><trkpt lat="45.70681891927077" lon="9.190297667369688"><ele>268.0</ele><time>2026-04-25T08:57:25Z</time></trkpt><trkpt lat="45.70675001925703" lon="9.190228699192508"><ele>267.6666666666667</ele><time>2026-04-25T08:57:26Z</time></trkpt><trkpt lat="45.70668022609795" lon="9.19015902871196"><ele>267.3333333333333</ele><time>2026-04-25T08:57:27Z</time></trkpt><trkpt lat="45.706609112419585" lon="9.190085814082721"><ele>267.0</ele><time>2026-04-25T08:57:28Z</time></trkpt><trkpt lat="45.706537732965465" lon="9.190016206374947"><ele>267.0</ele><time>2026-04-25T08:57:29Z</time></trkpt><trkpt lat="45.70647542607719" lon="9.189928095662223"><ele>267.0</ele><time>2026-04-25T08:57:30Z</time></trkpt><trkpt lat="45.70639392745999" lon="9.189874874594086"><ele>267.0</ele><time>2026-04-25T08:57:31Z</time></trkpt><trkpt lat="45.70632653591052" lon="9.18978447621916"><ele>267.0</ele><time>2026-04-25T08:57:32Z</time></trkpt><trkpt lat="45.706242762509135" lon="9.18972894769581"><ele>267.0</ele><time>2026-04-25T08:57:33Z</time></trkpt><trkpt lat="45.70616760468931" lon="9.189653998313338"><ele>266.4</ele><time>2026-04-25T08:57:34Z</time></trkpt><trkpt lat="45.70609049480842" lon="9.189583486279188"><ele>265.79999999999995</ele><time>2026-04-25T08:57:35Z</time></trkpt><trkpt lat="45.706025183630786" lon="9.189493602762283"><ele>265.2</ele><time>2026-04-25T08:57:36Z</time></trkpt><trkpt lat="45.70595208580076" lon="9.189422974638688"><ele>264.59999999999997</ele><time>2026-04-25T08:57:37Z</time></trkpt><trkpt lat="45.7058775116655" lon="9.189350920169927"><ele>264.0</ele><time>2026-04-25T08:57:37.999Z</time></trkpt><trkpt lat="45.70580211939226" lon="9.18927807517712"><ele>264.0</ele><time>2026-04-25T08:57:38.999Z</time></trkpt><trkpt lat="45.70572560043189" lon="9.189204143033063"><ele>264.0</ele><time>2026-04-25T08:57:39.999Z</time></trkpt><trkpt lat="45.705649747416835" lon="9.189129751068924"><ele>264.0</ele><time>2026-04-25T08:57:40.999Z</time></trkpt><trkpt lat="45.70557257095054" lon="9.1890544288172"><ele>264.0</ele><time>2026-04-25T08:57:41.999Z</time></trkpt><trkpt lat="45.70549534108467" lon="9.18897905443237"><ele>264.0</ele><time>2026-04-25T08:57:42.999Z</time></trkpt><trkpt lat="45.70542062797413" lon="9.188906136373003"><ele>263.6666666666667</ele><time>2026-04-25T08:57:43.999Z</time></trkpt><trkpt lat="45.70534646294335" lon="9.188833753121425"><ele>263.3333333333333</ele><time>2026-04-25T08:57:44.999Z</time></trkpt><trkpt lat="45.70527508349818" lon="9.188763646874197"><ele>263.0</ele><time>2026-04-25T08:57:45.999Z</time></trkpt><trkpt lat="45.705196833266925" lon="9.18870758234478"><ele>262.66666666666663</ele><time>2026-04-25T08:57:46.999Z</time></trkpt><trkpt lat="45.70512499402238" lon="9.188637980818699"><ele>262.3333333333333</ele><time>2026-04-25T08:57:47.999Z</time></trkpt><trkpt lat="45.7050555084106" lon="9.18857041458935"><ele>262.0</ele><time>2026-04-25T08:57:48.999Z</time></trkpt><trkpt lat="45.70498678462047" lon="9.188506737904357"><ele>262.0</ele><time>2026-04-25T08:57:49.999Z</time></trkpt><trkpt lat="45.70493425730483" lon="9.188427752997278"><ele>262.0</ele><time>2026-04-25T08:57:50.999Z</time></trkpt><trkpt lat="45.70487451350361" lon="9.188368873760096"><ele>262.0</ele><time>2026-04-25T08:57:51.999Z</time></trkpt><trkpt lat="45.704806679613235" lon="9.1883291945326"><ele>262.0</ele><time>2026-04-25T08:57:52.999Z</time></trkpt><trkpt lat="45.7047469945713" lon="9.188270453543595"><ele>262.0</ele><time>2026-04-25T08:57:53.999Z</time></trkpt><trkpt lat="45.70469260212241" lon="9.188207941166418"><ele>262.0</ele><time>2026-04-25T08:57:54.999Z</time></trkpt><trkpt lat="45.70463242136487" lon="9.188150693831087"><ele>262.0</ele><time>2026-04-25T08:57:55.999Z</time></trkpt><trkpt lat="45.70456851472862" lon="9.188093082473776"><ele>262.0</ele><time>2026-04-25T08:57:56.999Z</time></trkpt><trkpt lat="45.704503182132065" lon="9.188033401772786"><ele>262.0</ele><time>2026-04-25T08:57:57.999Z</time></trkpt><trkpt lat="45.70444506148119" lon="9.187949953401848"><ele>262.0</ele><time>2026-04-25T08:57:58.999Z</time></trkpt><trkpt lat="45.70436938726974" lon="9.187903362238082"><ele>262.0</ele><time>2026-04-25T08:57:59.999Z</time></trkpt><trkpt lat="45.70431373601114" lon="9.187821271024164"><ele>262.0</ele><time>2026-04-25T08:58:00.999Z</time></trkpt><trkpt lat="45.70423731172027" lon="9.187774290172571"><ele>262.0</ele><time>2026-04-25T08:58:01.999Z</time></trkpt><trkpt lat="45.704170196326544" lon="9.18770715601348"><ele>262.0</ele><time>2026-04-25T08:58:02.999Z</time></trkpt><trkpt lat="45.70411001801769" lon="9.187623311808368"><ele>262.0</ele><time>2026-04-25T08:58:03.999Z</time></trkpt><trkpt lat="45.70403298083367" lon="9.187570476390569"><ele>262.0</ele><time>2026-04-25T08:58:04.999Z</time></trkpt><trkpt lat="45.70396227845133" lon="9.187500989488235"><ele>262.0</ele><time>2026-04-25T08:58:05.999Z</time></trkpt><trkpt lat="45.70388827292179" lon="9.187436389356204"><ele>262.0</ele><time>2026-04-25T08:58:06.999Z</time></trkpt><trkpt lat="45.70382893016113" lon="9.187349873610229"><ele>262.0</ele><time>2026-04-25T08:58:07.999Z</time></trkpt><trkpt lat="45.703761767646846" lon="9.187284477227575"><ele>262.0</ele><time>2026-04-25T08:58:08.999Z</time></trkpt><trkpt lat="45.703693660511085" lon="9.187218159226493"><ele>262.0</ele><time>2026-04-25T08:58:09.999Z</time></trkpt><trkpt lat="45.703627740830385" lon="9.187154432710475"><ele>262.0</ele><time>2026-04-25T08:58:10.999Z</time></trkpt><trkpt lat="45.703559667777995" lon="9.18708847279914"><ele>262.0</ele><time>2026-04-25T08:58:11.999Z</time></trkpt><trkpt lat="45.70348931506912" lon="9.187020303909929"><ele>262.0</ele><time>2026-04-25T08:58:12.999Z</time></trkpt><trkpt lat="45.70341748562799" lon="9.186950704143706"><ele>262.0</ele><time>2026-04-25T08:58:13.999Z</time></trkpt><trkpt lat="45.70334496960454" lon="9.186880442104835"><ele>262.16666666666663</ele><time>2026-04-25T08:58:14.999Z</time></trkpt><trkpt lat="45.70327272302299" lon="9.186810143028964"><ele>262.3333333333333</ele><time>2026-04-25T08:58:15.999Z</time></trkpt><trkpt lat="45.703192934574986" lon="9.186757424654086"><ele>262.5</ele><time>2026-04-25T08:58:16.999Z</time></trkpt><trkpt lat="45.70311907863021" lon="9.186685103698865"><ele>262.6666666666667</ele><time>2026-04-25T08:58:17.999Z</time></trkpt><trkpt lat="45.70304262689575" lon="9.1866131097862"><ele>262.83333333333337</ele><time>2026-04-25T08:58:18.999Z</time></trkpt><trkpt lat="45.70296745916888" lon="9.186539526465806"><ele>263.0</ele><time>2026-04-25T08:58:19.999Z</time></trkpt><trkpt lat="45.702894529905265" lon="9.186466452179374"><ele>263.0</ele><time>2026-04-25T08:58:20.999Z</time></trkpt><trkpt lat="45.70281809494551" lon="9.186395967295498"><ele>263.0</ele><time>2026-04-25T08:58:21.999Z</time></trkpt><trkpt lat="45.70275199891467" lon="9.186304150003176"><ele>263.0</ele><time>2026-04-25T08:58:22.999Z</time></trkpt><trkpt lat="45.70267567726703" lon="9.186229987489119"><ele>263.0</ele><time>2026-04-25T08:58:23.999Z</time></trkpt><trkpt lat="45.70259929216242" lon="9.18615576329877"><ele>263.0</ele><time>2026-04-25T08:58:24.999Z</time></trkpt><trkpt lat="45.7025231454922" lon="9.186081770795537"><ele>262.8</ele><time>2026-04-25T08:58:25.999Z</time></trkpt><trkpt lat="45.702444068975666" lon="9.18600493133576"><ele>262.6</ele><time>2026-04-25T08:58:26.999Z</time></trkpt><trkpt lat="45.70236697722021" lon="9.185930020485511"><ele>262.4</ele><time>2026-04-25T08:58:27.999Z</time></trkpt><trkpt lat="45.70228676490163" lon="9.185851547844031"><ele>262.2</ele><time>2026-04-25T08:58:28.999Z</time></trkpt><trkpt lat="45.70220950282274" lon="9.185775949116314"><ele>262.0</ele><time>2026-04-25T08:58:29.999Z</time></trkpt><trkpt lat="45.70213384869753" lon="9.185701965616127"><ele>261.8333333333333</ele><time>2026-04-25T08:58:30.999Z</time></trkpt><trkpt lat="45.70204851234603" lon="9.185653112213597"><ele>261.66666666666663</ele><time>2026-04-25T08:58:32Z</time></trkpt><trkpt lat="45.70197618263216" lon="9.185582598793783"><ele>261.5</ele><time>2026-04-25T08:58:33Z</time></trkpt><trkpt lat="45.70190458916386" lon="9.185516711293436"><ele>261.3333333333333</ele><time>2026-04-25T08:58:34Z</time></trkpt><trkpt lat="45.70183053368497" lon="9.185451276860473"><ele>261.1666666666667</ele><time>2026-04-25T08:58:35Z</time></trkpt><trkpt lat="45.70175901815399" lon="9.185377796686305"><ele>261.0</ele><time>2026-04-25T08:58:36Z</time></trkpt><trkpt lat="45.701684383127635" lon="9.185305072390891"><ele>261.0</ele><time>2026-04-25T08:58:37Z</time></trkpt><trkpt lat="45.701610009626556" lon="9.185232533028211"><ele>261.0</ele><time>2026-04-25T08:58:38Z</time></trkpt><trkpt lat="45.70153335281633" lon="9.185158316728986"><ele>261.0</ele><time>2026-04-25T08:58:39Z</time></trkpt><trkpt lat="45.701454556039394" lon="9.185082540981341"><ele>261.0</ele><time>2026-04-25T08:58:40Z</time></trkpt><trkpt lat="45.70137599218731" lon="9.185010140475097"><ele>261.0</ele><time>2026-04-25T08:58:41Z</time></trkpt><trkpt lat="45.70129789221502" lon="9.184937159271641"><ele>261.0</ele><time>2026-04-25T08:58:42Z</time></trkpt><trkpt lat="45.70122367583285" lon="9.184865031227556"><ele>261.0</ele><time>2026-04-25T08:58:43Z</time></trkpt><trkpt lat="45.70116894132576" lon="9.184761455287493"><ele>261.0</ele><time>2026-04-25T08:58:44Z</time></trkpt><trkpt lat="45.70109383777511" lon="9.184688436948012"><ele>261.0</ele><time>2026-04-25T08:58:45Z</time></trkpt><trkpt lat="45.70101678421836" lon="9.184613344523157"><ele>261.0</ele><time>2026-04-25T08:58:46Z</time></trkpt><trkpt lat="45.70094035933085" lon="9.18453839292612"><ele>260.6666666666667</ele><time>2026-04-25T08:58:47Z</time></trkpt><trkpt lat="45.70086586907098" lon="9.184462929758032"><ele>260.3333333333333</ele><time>2026-04-25T08:58:48Z</time></trkpt><trkpt lat="45.70079229508444" lon="9.184388394835237"><ele>260.0</ele><time>2026-04-25T08:58:49Z</time></trkpt><trkpt lat="45.700721554756896" lon="9.184314926091563"><ele>259.66666666666663</ele><time>2026-04-25T08:58:50Z</time></trkpt><trkpt lat="45.700653430826634" lon="9.184241954459067"><ele>259.3333333333333</ele><time>2026-04-25T08:58:51Z</time></trkpt><trkpt lat="45.700585729561126" lon="9.184169334709388"><ele>259.0</ele><time>2026-04-25T08:58:52Z</time></trkpt><trkpt lat="45.70051936559302" lon="9.184087431630918"><ele>259.0</ele><time>2026-04-25T08:58:53Z</time></trkpt><trkpt lat="45.70044957996065" lon="9.184003381419394"><ele>259.0</ele><time>2026-04-25T08:58:54Z</time></trkpt><trkpt lat="45.70037984070805" lon="9.1839183712108"><ele>259.0</ele><time>2026-04-25T08:58:55Z</time></trkpt><trkpt lat="45.70030971617978" lon="9.183831092895902"><ele>259.0</ele><time>2026-04-25T08:58:56Z</time></trkpt><trkpt lat="45.70023951837811" lon="9.18374385055362"><ele>259.0</ele><time>2026-04-25T08:58:57Z</time></trkpt><trkpt lat="45.70016603259983" lon="9.183654946366882"><ele>258.8</ele><time>2026-04-25T08:58:58Z</time></trkpt><trkpt lat="45.700092335269666" lon="9.18356578606808"><ele>258.59999999999997</ele><time>2026-04-25T08:58:59Z</time></trkpt><trkpt lat="45.70002047705939" lon="9.18347759077179"><ele>258.4</ele><time>2026-04-25T08:59:00Z</time></trkpt><trkpt lat="45.69995003512341" lon="9.183391062330237"><ele>258.2</ele><time>2026-04-25T08:59:01Z</time></trkpt><trkpt lat="45.69988115436312" lon="9.183306451618831"><ele>258.0</ele><time>2026-04-25T08:59:02Z</time></trkpt><trkpt lat="45.69981307034313" lon="9.183222819559598"><ele>257.8</ele><time>2026-04-25T08:59:03Z</time></trkpt><trkpt lat="45.69974532464135" lon="9.183139603046481"><ele>257.6</ele><time>2026-04-25T08:59:04Z</time></trkpt><trkpt lat="45.69967849346186" lon="9.183057509847146"><ele>257.4</ele><time>2026-04-25T08:59:05Z</time></trkpt><trkpt lat="45.699611157855095" lon="9.182974721226268"><ele>257.2</ele><time>2026-04-25T08:59:06Z</time></trkpt><trkpt lat="45.69952293147305" lon="9.18291546154726"><ele>257.0</ele><time>2026-04-25T08:59:07Z</time></trkpt><trkpt lat="45.69945051006951" lon="9.18282969833718"><ele>257.0</ele><time>2026-04-25T08:59:08Z</time></trkpt><trkpt lat="45.69937601283671" lon="9.182741884382434"><ele>257.0</ele><time>2026-04-25T08:59:09Z</time></trkpt><trkpt lat="45.69930152187652" lon="9.18265269309089"><ele>257.0</ele><time>2026-04-25T08:59:10Z</time></trkpt><trkpt lat="45.699229048409435" lon="9.182559521470951"><ele>257.0</ele><time>2026-04-25T08:59:11Z</time></trkpt><trkpt lat="45.69915573334969" lon="9.182466467615209"><ele>257.0</ele><time>2026-04-25T08:59:12Z</time></trkpt><trkpt lat="45.69908376155701" lon="9.182378897209965"><ele>256.8</ele><time>2026-04-25T08:59:13Z</time></trkpt><trkpt lat="45.699013700173964" lon="9.182292798766127"><ele>256.6</ele><time>2026-04-25T08:59:14Z</time></trkpt><trkpt lat="45.69894396794146" lon="9.182211140280575"><ele>256.40000000000003</ele><time>2026-04-25T08:59:15Z</time></trkpt><trkpt lat="45.6988820585566" lon="9.18213198350173"><ele>256.2</ele><time>2026-04-25T08:59:16Z</time></trkpt><trkpt lat="45.69882774321154" lon="9.182061887066713"><ele>256.0</ele><time>2026-04-25T08:59:17Z</time></trkpt><trkpt lat="45.69873273873902" lon="9.181955464927693"><ele>255.99999999999997</ele><time>2026-04-25T08:59:19Z</time></trkpt><trkpt lat="45.69867376361434" lon="9.181891350889158"><ele>256.0</ele><time>2026-04-25T08:59:21Z</time></trkpt><trkpt lat="45.69861641911194" lon="9.18179763314014"><ele>256.0</ele><time>2026-04-25T08:59:24Z</time></trkpt><trkpt lat="45.69864684208714" lon="9.181700390613608"><ele>256.0</ele><time>2026-04-25T08:59:26Z</time></trkpt><trkpt lat="45.698720267127854" lon="9.181608843777633"><ele>255.99999999999997</ele><time>2026-04-25T08:59:28Z</time></trkpt><trkpt lat="45.698793099824755" lon="9.18149269728363"><ele>256.0</ele><time>2026-04-25T08:59:30Z</time></trkpt><trkpt lat="45.69887467396471" lon="9.181366708393961"><ele>255.99999999999997</ele><time>2026-04-25T08:59:32Z</time></trkpt><trkpt lat="45.698956636732895" lon="9.181228707400754"><ele>256.0</ele><time>2026-04-25T08:59:34Z</time></trkpt><trkpt lat="45.699004944159626" lon="9.181168090407894"><ele>256.0</ele><time>2026-04-25T08:59:35Z</time></trkpt><trkpt lat="45.699055389021545" lon="9.181111146920998"><ele>256.0</ele><time>2026-04-25T08:59:36Z</time></trkpt><trkpt lat="45.69910524147395" lon="9.181051091633025"><ele>255.99999999999997</ele><time>2026-04-25T08:59:37Z</time></trkpt><trkpt lat="45.69915489314869" lon="9.180985047232957"><ele>256.0</ele><time>2026-04-25T08:59:38Z</time></trkpt><trkpt lat="45.699207300948665" lon="9.180913100969752"><ele>256.0</ele><time>2026-04-25T08:59:39Z</time></trkpt><trkpt lat="45.69926184052404" lon="9.180842446304753"><ele>255.99999999999997</ele><time>2026-04-25T08:59:40Z</time></trkpt><trkpt lat="45.6993110638685" lon="9.180768350139827"><ele>256.0</ele><time>2026-04-25T08:59:41Z</time></trkpt><trkpt lat="45.69935918957005" lon="9.180702512749699"><ele>256.0</ele><time>2026-04-25T08:59:42Z</time></trkpt><trkpt lat="45.699435146550734" lon="9.180614428734211"><ele>255.99999999999997</ele><time>2026-04-25T08:59:44Z</time></trkpt><trkpt lat="45.69948715683481" lon="9.180548275418072"><ele>256.0</ele><time>2026-04-25T08:59:45.999Z</time></trkpt><trkpt lat="45.69953041191538" lon="9.180470371556073"><ele>256.0</ele><time>2026-04-25T08:59:47.999Z</time></trkpt><trkpt lat="45.69957847401234" lon="9.180367738456201"><ele>256.0</ele><time>2026-04-25T08:59:49.999Z</time></trkpt><trkpt lat="45.69964893074754" lon="9.18025344241873"><ele>256.0</ele><time>2026-04-25T08:59:51.999Z</time></trkpt><trkpt lat="45.69974310533129" lon="9.180129111570126"><ele>256.0</ele><time>2026-04-25T08:59:53.999Z</time></trkpt><trkpt lat="45.699827306543526" lon="9.180004063154875"><ele>256.0</ele><time>2026-04-25T08:59:55.999Z</time></trkpt><trkpt lat="45.69992001888372" lon="9.179883670750973"><ele>256.0</ele><time>2026-04-25T08:59:57.999Z</time></trkpt><trkpt lat="45.6999663518017" lon="9.179819478041889"><ele>256.0</ele><time>2026-04-25T08:59:58.999Z</time></trkpt><trkpt lat="45.70005660745915" lon="9.179708972589447"><ele>256.0</ele><time>2026-04-25T09:00:00.999Z</time></trkpt><trkpt lat="45.70013877712478" lon="9.179598309834175"><ele>256.0</ele><time>2026-04-25T09:00:02.999Z</time></trkpt><trkpt lat="45.700225071646756" lon="9.179501363708688"><ele>256.0</ele><time>2026-04-25T09:00:04.999Z</time></trkpt><trkpt lat="45.70029473108757" lon="9.179384904465222"><ele>256.25</ele><time>2026-04-25T09:00:06.999Z</time></trkpt><trkpt lat="45.7003724774529" lon="9.1792618626544"><ele>256.5</ele><time>2026-04-25T09:00:08.999Z</time></trkpt><trkpt lat="45.700443047984564" lon="9.179134365878332"><ele>256.75</ele><time>2026-04-25T09:00:10.999Z</time></trkpt><trkpt lat="45.700504061081865" lon="9.178998023465718"><ele>257.0</ele><time>2026-04-25T09:00:12.999Z</time></trkpt><trkpt lat="45.70055318008173" lon="9.17885370044682"><ele>257.0</ele><time>2026-04-25T09:00:14.999Z</time></trkpt><trkpt lat="45.700561137867076" lon="9.17868703885253"><ele>257.0</ele><time>2026-04-25T09:00:16.999Z</time></trkpt><trkpt lat="45.700554526618156" lon="9.178518070682255"><ele>257.0</ele><time>2026-04-25T09:00:18.999Z</time></trkpt><trkpt lat="45.700510657870915" lon="9.178363133676868"><ele>257.0</ele><time>2026-04-25T09:00:20.999Z</time></trkpt><trkpt lat="45.70047214577868" lon="9.178219591117537"><ele>257.1666666666667</ele><time>2026-04-25T09:00:22.999Z</time></trkpt><trkpt lat="45.70038909234509" lon="9.178115950743981"><ele>257.33333333333337</ele><time>2026-04-25T09:00:24.999Z</time></trkpt><trkpt lat="45.70033725743883" lon="9.178064032600846"><ele>257.5</ele><time>2026-04-25T09:00:25.999Z</time></trkpt><trkpt lat="45.70027960096971" lon="9.178016506983324"><ele>257.6666666666667</ele><time>2026-04-25T09:00:26.999Z</time></trkpt><trkpt lat="45.70021815742691" lon="9.1779664922449"><ele>257.8333333333333</ele><time>2026-04-25T09:00:27.999Z</time></trkpt><trkpt lat="45.700160060215566" lon="9.177909826541033"><ele>258.0</ele><time>2026-04-25T09:00:28.999Z</time></trkpt><trkpt lat="45.70010058943081" lon="9.177849734451756"><ele>257.99999999999994</ele><time>2026-04-25T09:00:29.999Z</time></trkpt><trkpt lat="45.700036456241904" lon="9.177796538160296"><ele>258.0</ele><time>2026-04-25T09:00:30.999Z</time></trkpt><trkpt lat="45.699985903971545" lon="9.1777286072394"><ele>258.0</ele><time>2026-04-25T09:00:31.999Z</time></trkpt><trkpt lat="45.69992574179989" lon="9.177683777462132"><ele>258.0</ele><time>2026-04-25T09:00:32.999Z</time></trkpt><trkpt lat="45.69986540751314" lon="9.177644481947752"><ele>258.0</ele><time>2026-04-25T09:00:33.999Z</time></trkpt><trkpt lat="45.69980605974635" lon="9.177605398392902"><ele>257.99999999999994</ele><time>2026-04-25T09:00:34.999Z</time></trkpt><trkpt lat="45.699742380601634" lon="9.177583860166125"><ele>258.0</ele><time>2026-04-25T09:00:35.999Z</time></trkpt><trkpt lat="45.69967767124138" lon="9.177554427152396"><ele>257.99999999999994</ele><time>2026-04-25T09:00:37Z</time></trkpt><trkpt lat="45.69960547001164" lon="9.177530982088626"><ele>258.0</ele><time>2026-04-25T09:00:38Z</time></trkpt><trkpt lat="45.6995363388538" lon="9.177501249086284"><ele>258.0</ele><time>2026-04-25T09:00:39Z</time></trkpt><trkpt lat="45.69946472987995" lon="9.177472979580939"><ele>258.0</ele><time>2026-04-25T09:00:40Z</time></trkpt><trkpt lat="45.699394765549286" lon="9.177434920432983"><ele>258.0</ele><time>2026-04-25T09:00:41Z</time></trkpt><trkpt lat="45.69932545724997" lon="9.17740253741634"><ele>257.99999999999994</ele><time>2026-04-25T09:00:42Z</time></trkpt><trkpt lat="45.69926128778662" lon="9.177374619274936"><ele>258.0</ele><time>2026-04-25T09:00:43Z</time></trkpt><trkpt lat="45.69919745055578" lon="9.177337989858252"><ele>257.4</ele><time>2026-04-25T09:00:44Z</time></trkpt><trkpt lat="45.69907621434491" lon="9.177285568157192"><ele>256.8</ele><time>2026-04-25T09:00:46Z</time></trkpt><trkpt lat="45.69900971625436" lon="9.177274557938173"><ele>256.2</ele><time>2026-04-25T09:00:47Z</time></trkpt><trkpt lat="45.69888822497752" lon="9.17725343387913"><ele>255.6</ele><time>2026-04-25T09:00:49Z</time></trkpt><trkpt lat="45.698773387415315" lon="9.177216569677544"><ele>255.0</ele><time>2026-04-25T09:00:51Z</time></trkpt><trkpt lat="45.69866393345584" lon="9.177168973658366"><ele>255.83333333333334</ele><time>2026-04-25T09:00:53Z</time></trkpt><trkpt lat="45.698561550760985" lon="9.177125447147782"><ele>256.6666666666667</ele><time>2026-04-25T09:00:55Z</time></trkpt><trkpt lat="45.6984692053902" lon="9.177101940525722"><ele>257.5</ele><time>2026-04-25T09:00:57Z</time></trkpt><trkpt lat="45.69840413026678" lon="9.177094736266838"><ele>258.33333333333337</ele><time>2026-04-25T09:00:59Z</time></trkpt><trkpt lat="45.69834068022617" lon="9.177049406638474"><ele>259.1666666666667</ele><time>2026-04-25T09:01:02Z</time></trkpt><trkpt lat="45.698379887665496" lon="9.176977878193373"><ele>260.0</ele><time>2026-04-25T09:01:04Z</time></trkpt><trkpt lat="45.69841633164545" lon="9.176874181022502"><ele>260.0</ele><time>2026-04-25T09:01:06Z</time></trkpt><trkpt lat="45.698464736037884" lon="9.1767605278234"><ele>260.0</ele><time>2026-04-25T09:01:08Z</time></trkpt><trkpt lat="45.69851729916119" lon="9.176633743227983"><ele>260.0</ele><time>2026-04-25T09:01:10Z</time></trkpt><trkpt lat="45.69855366880759" lon="9.176537591454796"><ele>260.0</ele><time>2026-04-25T09:01:12Z</time></trkpt><trkpt lat="45.69858389473035" lon="9.176439294411475"><ele>260.0</ele><time>2026-04-25T09:01:16Z</time></trkpt><trkpt lat="45.69864427352282" lon="9.176348752136262"><ele>260.0</ele><time>2026-04-25T09:01:35Z</time></trkpt><trkpt lat="45.698556146988096" lon="9.176344834362823"><ele>259.0</ele><time>2026-04-25T09:01:38Z</time></trkpt><trkpt lat="45.69848931704402" lon="9.17629507100342"><ele>258.0</ele><time>2026-04-25T09:01:40Z</time></trkpt><trkpt lat="45.69841415451626" lon="9.176189804184341"><ele>257.0</ele><time>2026-04-25T09:01:42Z</time></trkpt><trkpt lat="45.69833808522313" lon="9.17605968101408"><ele>256.0</ele><time>2026-04-25T09:01:44Z</time></trkpt><trkpt lat="45.698243951834904" lon="9.175936801079647"><ele>255.0</ele><time>2026-04-25T09:01:46Z</time></trkpt><trkpt lat="45.69818264418646" lon="9.175888119415239"><ele>255.0</ele><time>2026-04-25T09:01:47Z</time></trkpt><trkpt lat="45.69814384857236" lon="9.175803876866357"><ele>255.00000000000003</ele><time>2026-04-25T09:01:48Z</time></trkpt><trkpt lat="45.69808005008213" lon="9.175764540465575"><ele>255.0</ele><time>2026-04-25T09:01:49Z</time></trkpt><trkpt lat="45.698033074211295" lon="9.175697423414487"><ele>255.0</ele><time>2026-04-25T09:01:50Z</time></trkpt><trkpt lat="45.697979803757164" lon="9.17562935008986"><ele>255.00000000000003</ele><time>2026-04-25T09:01:50.999Z</time></trkpt><trkpt lat="45.69792736975007" lon="9.175552544124692"><ele>255.0</ele><time>2026-04-25T09:01:51.999Z</time></trkpt><trkpt lat="45.697875526168275" lon="9.175475504646364"><ele>255.0</ele><time>2026-04-25T09:01:52.999Z</time></trkpt><trkpt lat="45.6978265265744" lon="9.17540150640979"><ele>255.0</ele><time>2026-04-25T09:01:53.999Z</time></trkpt><trkpt lat="45.69777434457787" lon="9.175335518561292"><ele>255.00000000000003</ele><time>2026-04-25T09:01:54.999Z</time></trkpt><trkpt lat="45.69772041353225" lon="9.175268856634093"><ele>255.0</ele><time>2026-04-25T09:01:55.999Z</time></trkpt><trkpt lat="45.6976658808926" lon="9.175207095030155"><ele>255.0</ele><time>2026-04-25T09:01:56.999Z</time></trkpt><trkpt lat="45.6976115355292" lon="9.175142300521504"><ele>255.00000000000003</ele><time>2026-04-25T09:01:57.999Z</time></trkpt><trkpt lat="45.69755744337326" lon="9.175063310101425"><ele>255.0</ele><time>2026-04-25T09:01:58.999Z</time></trkpt><trkpt lat="45.697503036743804" lon="9.174987364962286"><ele>255.0</ele><time>2026-04-25T09:01:59.999Z</time></trkpt><trkpt lat="45.697445928470366" lon="9.174916357795926"><ele>254.83333333333334</ele><time>2026-04-25T09:02:00.999Z</time></trkpt><trkpt lat="45.697392796635924" lon="9.174850155942535"><ele>254.66666666666669</ele><time>2026-04-25T09:02:01.999Z</time></trkpt><trkpt lat="45.69735178261467" lon="9.174764334668694"><ele>254.5</ele><time>2026-04-25T09:02:02.999Z</time></trkpt><trkpt lat="45.697291773327954" lon="9.174687197104173"><ele>254.33333333333334</ele><time>2026-04-25T09:02:03.999Z</time></trkpt><trkpt lat="45.69723690071274" lon="9.174617449357553"><ele>254.16666666666669</ele><time>2026-04-25T09:02:04.999Z</time></trkpt><trkpt lat="45.69717822267262" lon="9.17454578331476"><ele>254.0</ele><time>2026-04-25T09:02:05.999Z</time></trkpt><trkpt lat="45.6971179890715" lon="9.174479912251366"><ele>254.0</ele><time>2026-04-25T09:02:06.999Z</time></trkpt><trkpt lat="45.697058102154124" lon="9.174415199490875"><ele>254.0</ele><time>2026-04-25T09:02:07.999Z</time></trkpt><trkpt lat="45.69700653338477" lon="9.174360409105086"><ele>254.0</ele><time>2026-04-25T09:02:08.999Z</time></trkpt><trkpt lat="45.69695282343828" lon="9.174303697787028"><ele>254.0</ele><time>2026-04-25T09:02:09.999Z</time></trkpt><trkpt lat="45.69690036009219" lon="9.174249425315544"><ele>254.0</ele><time>2026-04-25T09:02:10.999Z</time></trkpt><trkpt lat="45.696839218578475" lon="9.174205367471378"><ele>254.0</ele><time>2026-04-25T09:02:11.999Z</time></trkpt><trkpt lat="45.696791765981615" lon="9.174122341530227"><ele>254.0</ele><time>2026-04-25T09:02:12.999Z</time></trkpt><trkpt lat="45.69674444393806" lon="9.174048303067217"><ele>253.83333333333334</ele><time>2026-04-25T09:02:13.999Z</time></trkpt><trkpt lat="45.69667025921345" lon="9.174022194402239"><ele>253.66666666666669</ele><time>2026-04-25T09:02:14.999Z</time></trkpt><trkpt lat="45.69659312339733" lon="9.174014341210237"><ele>253.5</ele><time>2026-04-25T09:02:15.999Z</time></trkpt><trkpt lat="45.69651241445474" lon="9.173997876566656"><ele>253.33333333333331</ele><time>2026-04-25T09:02:16.999Z</time></trkpt><trkpt lat="45.69643375559097" lon="9.173974720159991"><ele>253.16666666666666</ele><time>2026-04-25T09:02:17.999Z</time></trkpt><trkpt lat="45.69635801079348" lon="9.173954306832504"><ele>253.0</ele><time>2026-04-25T09:02:18.999Z</time></trkpt><trkpt lat="45.69628005334637" lon="9.173938925966919"><ele>252.66666666666666</ele><time>2026-04-25T09:02:19.999Z</time></trkpt><trkpt lat="45.69620467084402" lon="9.173925371468627"><ele>252.33333333333331</ele><time>2026-04-25T09:02:20.999Z</time></trkpt><trkpt lat="45.69613296193908" lon="9.173906113040593"><ele>252.0</ele><time>2026-04-25T09:02:21.999Z</time></trkpt><trkpt lat="45.69606582412553" lon="9.173885033045227"><ele>251.66666666666669</ele><time>2026-04-25T09:02:22.999Z</time></trkpt><trkpt lat="45.69600437558008" lon="9.173862378290544"><ele>251.33333333333334</ele><time>2026-04-25T09:02:23.999Z</time></trkpt><trkpt lat="45.69590103465065" lon="9.173815692099474"><ele>251.0</ele><time>2026-04-25T09:02:25.999Z</time></trkpt><trkpt lat="45.69581475829853" lon="9.173772981087899"><ele>251.00000000000003</ele><time>2026-04-25T09:02:27.999Z</time></trkpt><trkpt lat="45.69573772971252" lon="9.173751116292134"><ele>251.0</ele><time>2026-04-25T09:02:29.999Z</time></trkpt><trkpt lat="45.695661081203255" lon="9.173728671652727"><ele>251.0</ele><time>2026-04-25T09:02:32.999Z</time></trkpt><trkpt lat="45.69559929762484" lon="9.173706790142194"><ele>251.0</ele><time>2026-04-25T09:02:34.999Z</time></trkpt><trkpt lat="45.69552078018556" lon="9.173684984347732"><ele>251.00000000000003</ele><time>2026-04-25T09:02:36.999Z</time></trkpt><trkpt lat="45.69543353112126" lon="9.173655169229546"><ele>251.0</ele><time>2026-04-25T09:02:38.999Z</time></trkpt><trkpt lat="45.695348791041525" lon="9.17362968972595"><ele>251.0</ele><time>2026-04-25T09:02:40.999Z</time></trkpt><trkpt lat="45.69526368313248" lon="9.173598897776143"><ele>251.00000000000003</ele><time>2026-04-25T09:02:43Z</time></trkpt><trkpt lat="45.695180570585435" lon="9.173570603554957"><ele>251.00000000000003</ele><time>2026-04-25T09:02:45Z</time></trkpt><trkpt lat="45.69510488015888" lon="9.173533866533907"><ele>251.0</ele><time>2026-04-25T09:02:47Z</time></trkpt><trkpt lat="45.69504004191453" lon="9.17343596239331"><ele>251.0</ele><time>2026-04-25T09:02:49Z</time></trkpt><trkpt lat="45.69501132136461" lon="9.173258715458505"><ele>250.66666666666669</ele><time>2026-04-25T09:02:51Z</time></trkpt><trkpt lat="45.69500711647898" lon="9.173151743673236"><ele>250.33333333333334</ele><time>2026-04-25T09:02:52Z</time></trkpt><trkpt lat="45.69502109443535" lon="9.173037013658211"><ele>250.0</ele><time>2026-04-25T09:02:53Z</time></trkpt><trkpt lat="45.69503800546345" lon="9.172923561012134"><ele>249.66666666666669</ele><time>2026-04-25T09:02:54Z</time></trkpt><trkpt lat="45.69504767789085" lon="9.172814747337652"><ele>249.33333333333334</ele><time>2026-04-25T09:02:55Z</time></trkpt><trkpt lat="45.695048820662116" lon="9.172707909471363"><ele>249.0</ele><time>2026-04-25T09:02:56Z</time></trkpt><trkpt lat="45.69504367884003" lon="9.172603099725942"><ele>249.0</ele><time>2026-04-25T09:02:57Z</time></trkpt><trkpt lat="45.695070402344285" lon="9.17249581874223"><ele>248.99999999999997</ele><time>2026-04-25T09:02:58Z</time></trkpt><trkpt lat="45.69506086027015" lon="9.1723933209063"><ele>249.0</ele><time>2026-04-25T09:02:59Z</time></trkpt><trkpt lat="45.695050878823416" lon="9.172290944074463"><ele>249.0</ele><time>2026-04-25T09:03:00Z</time></trkpt><trkpt lat="45.695041532754416" lon="9.172195079902616"><ele>248.99999999999997</ele><time>2026-04-25T09:03:01Z</time></trkpt><trkpt lat="45.69503193256157" lon="9.172096608207648"><ele>249.0</ele><time>2026-04-25T09:03:02Z</time></trkpt><trkpt lat="45.69502944217478" lon="9.171994362014647"><ele>249.0</ele><time>2026-04-25T09:03:03Z</time></trkpt><trkpt lat="45.6950235320478" lon="9.171886386878699"><ele>249.0</ele><time>2026-04-25T09:03:04Z</time></trkpt><trkpt lat="45.695019330157024" lon="9.17178441133165"><ele>248.99999999999997</ele><time>2026-04-25T09:03:05Z</time></trkpt><trkpt lat="45.69501685320606" lon="9.17168196033538"><ele>249.0</ele><time>2026-04-25T09:03:06Z</time></trkpt><trkpt lat="45.69501574420881" lon="9.171583633003124"><ele>249.0</ele><time>2026-04-25T09:03:07Z</time></trkpt><trkpt lat="45.69501574420914" lon="9.171480425931428"><ele>248.99999999999997</ele><time>2026-04-25T09:03:08Z</time></trkpt><trkpt lat="45.69501574420909" lon="9.171379219660267"><ele>249.0</ele><time>2026-04-25T09:03:09Z</time></trkpt><trkpt lat="45.6950232621833" lon="9.171277623815584"><ele>249.0</ele><time>2026-04-25T09:03:10Z</time></trkpt><trkpt lat="45.69502756423418" lon="9.171178213398338"><ele>249.16666666666666</ele><time>2026-04-25T09:03:11Z</time></trkpt><trkpt lat="45.69503171976121" lon="9.171082189677673"><ele>249.33333333333331</ele><time>2026-04-25T09:03:12Z</time></trkpt><trkpt lat="45.6950390917413" lon="9.170991010230567"><ele>249.5</ele><time>2026-04-25T09:03:13Z</time></trkpt><trkpt lat="45.695045381745686" lon="9.170895401998171"><ele>249.66666666666666</ele><time>2026-04-25T09:03:14Z</time></trkpt><trkpt lat="45.69505160615657" lon="9.170800787288243"><ele>249.83333333333331</ele><time>2026-04-25T09:03:15Z</time></trkpt><trkpt lat="45.695057610482706" lon="9.17070951636009"><ele>250.0</ele><time>2026-04-25T09:03:16Z</time></trkpt><trkpt lat="45.695047656754014" lon="9.170527948104993"><ele>251.0</ele><time>2026-04-25T09:03:18Z</time></trkpt><trkpt lat="45.695063278559545" lon="9.170379270666592"><ele>252.0</ele><time>2026-04-25T09:03:20Z</time></trkpt><trkpt lat="45.69511830229169" lon="9.17023724810037"><ele>253.0</ele><time>2026-04-25T09:03:22Z</time></trkpt><trkpt lat="45.695132055903834" lon="9.170076912668288"><ele>254.0</ele><time>2026-04-25T09:03:24Z</time></trkpt><trkpt lat="45.69512651830809" lon="9.169921014941625"><ele>255.0</ele><time>2026-04-25T09:03:26Z</time></trkpt><trkpt lat="45.695108463771916" lon="9.169780224526296"><ele>256.8</ele><time>2026-04-25T09:03:28Z</time></trkpt><trkpt lat="45.69508951404225" lon="9.169650004058084"><ele>258.6</ele><time>2026-04-25T09:03:30Z</time></trkpt><trkpt lat="45.69506755358116" lon="9.16951641847969"><ele>260.4</ele><time>2026-04-25T09:03:32Z</time></trkpt><trkpt lat="45.69504459982487" lon="9.169384019700878"><ele>262.2</ele><time>2026-04-25T09:03:34Z</time></trkpt><trkpt lat="45.695027357573224" lon="9.169253450359408"><ele>264.0</ele><time>2026-04-25T09:03:36Z</time></trkpt><trkpt lat="45.69501809174465" lon="9.16912395477757"><ele>265.1666666666667</ele><time>2026-04-25T09:03:38Z</time></trkpt><trkpt lat="45.695010894658616" lon="9.168999418542123"><ele>266.3333333333333</ele><time>2026-04-25T09:03:40Z</time></trkpt><trkpt lat="45.69500444221317" lon="9.168889606181502"><ele>267.5</ele><time>2026-04-25T09:03:42Z</time></trkpt><trkpt lat="45.69499956718133" lon="9.168773051325491"><ele>268.66666666666663</ele><time>2026-04-25T09:03:44Z</time></trkpt><trkpt lat="45.69499484864825" lon="9.168652306842072"><ele>269.8333333333333</ele><time>2026-04-25T09:03:46Z</time></trkpt><trkpt lat="45.69498687768642" lon="9.168537566851363"><ele>271.0</ele><time>2026-04-25T09:03:48Z</time></trkpt><trkpt lat="45.69493565273327" lon="9.168433909995962"><ele>271.0</ele><time>2026-04-25T09:03:50Z</time></trkpt><trkpt lat="45.69488649797066" lon="9.168343704691694"><ele>271.0</ele><time>2026-04-25T09:03:52Z</time></trkpt><trkpt lat="45.694816804792964" lon="9.168290606029442"><ele>271.0</ele><time>2026-04-25T09:03:54Z</time></trkpt><trkpt lat="45.694740272345875" lon="9.168238873565796"><ele>271.0</ele><time>2026-04-25T09:03:56Z</time></trkpt><trkpt lat="45.69465466496862" lon="9.168212139779243"><ele>271.0</ele><time>2026-04-25T09:03:58Z</time></trkpt><trkpt lat="45.694578040753086" lon="9.1681672312893"><ele>271.0</ele><time>2026-04-25T09:04:00Z</time></trkpt><trkpt lat="45.694484892217" lon="9.168140769002235"><ele>270.8</ele><time>2026-04-25T09:04:02Z</time></trkpt><trkpt lat="45.69440613558057" lon="9.168089955575995"><ele>270.6</ele><time>2026-04-25T09:04:04Z</time></trkpt><trkpt lat="45.694346915599624" lon="9.167988524176499"><ele>270.4</ele><time>2026-04-25T09:04:06Z</time></trkpt><trkpt lat="45.69434204755306" lon="9.167840750410882"><ele>270.2</ele><time>2026-04-25T09:04:07.999Z</time></trkpt><trkpt lat="45.69436429511253" lon="9.167692860903179"><ele>270.0</ele><time>2026-04-25T09:04:09.999Z</time></trkpt><trkpt lat="45.69439706258998" lon="9.16754020588569"><ele>270.2</ele><time>2026-04-25T09:04:11.999Z</time></trkpt><trkpt lat="45.69443398455448" lon="9.167381554500063"><ele>270.4</ele><time>2026-04-25T09:04:13.999Z</time></trkpt><trkpt lat="45.694471265455206" lon="9.167211885909682"><ele>270.6</ele><time>2026-04-25T09:04:15.999Z</time></trkpt><trkpt lat="45.69448012696204" lon="9.167120998300831"><ele>270.8</ele><time>2026-04-25T09:04:16.999Z</time></trkpt><trkpt lat="45.694518497137956" lon="9.166961538460761"><ele>271.0</ele><time>2026-04-25T09:04:18.999Z</time></trkpt><trkpt lat="45.69453241314676" lon="9.166783251454156"><ele>271.0</ele><time>2026-04-25T09:04:20.999Z</time></trkpt><trkpt lat="45.69453144415136" lon="9.166689357271611"><ele>271.0</ele><time>2026-04-25T09:04:21.999Z</time></trkpt><trkpt lat="45.69452230955831" lon="9.16659277637162"><ele>271.0</ele><time>2026-04-25T09:04:22.999Z</time></trkpt><trkpt lat="45.69451463855146" lon="9.166497490429897"><ele>271.0</ele><time>2026-04-25T09:04:23.999Z</time></trkpt><trkpt lat="45.694512289330106" lon="9.166403878774119"><ele>271.0</ele><time>2026-04-25T09:04:24.999Z</time></trkpt><trkpt lat="45.69451820746647" lon="9.166311061749392"><ele>271.0</ele><time>2026-04-25T09:04:25.999Z</time></trkpt><trkpt lat="45.69453120169859" lon="9.16621907159163"><ele>271.0</ele><time>2026-04-25T09:04:26.999Z</time></trkpt><trkpt lat="45.69455253958269" lon="9.166128888523923"><ele>270.7142857142857</ele><time>2026-04-25T09:04:27.999Z</time></trkpt><trkpt lat="45.69457989540077" lon="9.166040873863102"><ele>270.42857142857144</ele><time>2026-04-25T09:04:28.999Z</time></trkpt><trkpt lat="45.69460875626255" lon="9.165951815501664"><ele>270.14285714285717</ele><time>2026-04-25T09:04:29.999Z</time></trkpt><trkpt lat="45.69462389373001" lon="9.165848854109626"><ele>269.8571428571429</ele><time>2026-04-25T09:04:30.999Z</time></trkpt><trkpt lat="45.69465350882867" lon="9.165754541580327"><ele>269.5714285714286</ele><time>2026-04-25T09:04:31.999Z</time></trkpt><trkpt lat="45.694684829596696" lon="9.165658663998302"><ele>269.2857142857143</ele><time>2026-04-25T09:04:32.999Z</time></trkpt><trkpt lat="45.694710151190904" lon="9.165563648002198"><ele>269.0</ele><time>2026-04-25T09:04:33.999Z</time></trkpt><trkpt lat="45.694727393867545" lon="9.165459126153351"><ele>268.5</ele><time>2026-04-25T09:04:34.999Z</time></trkpt><trkpt lat="45.69475353964083" lon="9.165358210656846"><ele>268.0</ele><time>2026-04-25T09:04:35.999Z</time></trkpt><trkpt lat="45.694745729385296" lon="9.165249459938824"><ele>267.5</ele><time>2026-04-25T09:04:36.999Z</time></trkpt><trkpt lat="45.69476251393887" lon="9.165141878822178"><ele>267.0</ele><time>2026-04-25T09:04:37.999Z</time></trkpt><trkpt lat="45.69476293582661" lon="9.16502902220735"><ele>266.5</ele><time>2026-04-25T09:04:38.999Z</time></trkpt><trkpt lat="45.694761047582325" lon="9.164908092196432"><ele>266.0</ele><time>2026-04-25T09:04:39.999Z</time></trkpt><trkpt lat="45.69475893203759" lon="9.164790341839945"><ele>265.33333333333337</ele><time>2026-04-25T09:04:40.999Z</time></trkpt><trkpt lat="45.69475707547221" lon="9.164667426714313"><ele>264.6666666666667</ele><time>2026-04-25T09:04:41.999Z</time></trkpt><trkpt lat="45.6947563592258" lon="9.164543553659948"><ele>264.0</ele><time>2026-04-25T09:04:42.999Z</time></trkpt><trkpt lat="45.69475564561721" lon="9.16442013682047"><ele>263.3333333333333</ele><time>2026-04-25T09:04:43.999Z</time></trkpt><trkpt lat="45.69475534416928" lon="9.164300726118926"><ele>262.66666666666663</ele><time>2026-04-25T09:04:44.999Z</time></trkpt><trkpt lat="45.69475629276507" lon="9.164183949330445"><ele>262.0</ele><time>2026-04-25T09:04:45.999Z</time></trkpt><trkpt lat="45.69475745511239" lon="9.164068129777826"><ele>262.5</ele><time>2026-04-25T09:04:46.999Z</time></trkpt><trkpt lat="45.694758144170514" lon="9.163954950145994"><ele>263.0</ele><time>2026-04-25T09:04:47.999Z</time></trkpt><trkpt lat="45.69475908880211" lon="9.163837611082807"><ele>263.5</ele><time>2026-04-25T09:04:49Z</time></trkpt><trkpt lat="45.69476437852625" lon="9.163722063992171"><ele>264.0</ele><time>2026-04-25T09:04:50Z</time></trkpt><trkpt lat="45.69478404016028" lon="9.163612971728472"><ele>264.5</ele><time>2026-04-25T09:04:51Z</time></trkpt><trkpt lat="45.694799208927385" lon="9.16350622824852"><ele>265.0</ele><time>2026-04-25T09:04:52Z</time></trkpt><trkpt lat="45.694870151677925" lon="9.163451558903693"><ele>264.99999999999994</ele><time>2026-04-25T09:04:53Z</time></trkpt><trkpt lat="45.694918923723804" lon="9.163373854724881"><ele>265.0</ele><time>2026-04-25T09:04:54Z</time></trkpt><trkpt lat="45.69496913107842" lon="9.163304128020123"><ele>265.0</ele><time>2026-04-25T09:04:55Z</time></trkpt><trkpt lat="45.69501840353766" lon="9.163233233424426"><ele>265.0</ele><time>2026-04-25T09:04:56Z</time></trkpt><trkpt lat="45.69506066046673" lon="9.163157696327271"><ele>265.0</ele><time>2026-04-25T09:04:57Z</time></trkpt><trkpt lat="45.69510115827306" lon="9.163081970569912"><ele>264.99999999999994</ele><time>2026-04-25T09:04:58Z</time></trkpt><trkpt lat="45.695129059499514" lon="9.16298924731514"><ele>265.0</ele><time>2026-04-25T09:04:59Z</time></trkpt><trkpt lat="45.69516222556757" lon="9.16290520426887"><ele>265.4285714285714</ele><time>2026-04-25T09:05:00Z</time></trkpt><trkpt lat="45.695197306490144" lon="9.162824516083065"><ele>265.85714285714283</ele><time>2026-04-25T09:05:01Z</time></trkpt><trkpt lat="45.6952314659925" lon="9.162743342558207"><ele>266.2857142857143</ele><time>2026-04-25T09:05:02Z</time></trkpt><trkpt lat="45.69526640568169" lon="9.162659195961153"><ele>266.71428571428567</ele><time>2026-04-25T09:05:03Z</time></trkpt><trkpt lat="45.695300874499246" lon="9.162574740485075"><ele>267.1428571428571</ele><time>2026-04-25T09:05:04Z</time></trkpt><trkpt lat="45.69533427032673" lon="9.162490187460746"><ele>267.57142857142856</ele><time>2026-04-25T09:05:05Z</time></trkpt><trkpt lat="45.695364591718324" lon="9.162401238249366"><ele>268.0</ele><time>2026-04-25T09:05:06Z</time></trkpt><trkpt lat="45.69539336403643" lon="9.162310446724707"><ele>268.14285714285717</ele><time>2026-04-25T09:05:07Z</time></trkpt><trkpt lat="45.695419161943306" lon="9.162218603949974"><ele>268.2857142857143</ele><time>2026-04-25T09:05:08Z</time></trkpt><trkpt lat="45.695446489743766" lon="9.162121617111302"><ele>268.42857142857144</ele><time>2026-04-25T09:05:09Z</time></trkpt><trkpt lat="45.695474786978785" lon="9.162024401237106"><ele>268.57142857142856</ele><time>2026-04-25T09:05:10Z</time></trkpt><trkpt lat="45.69550059064505" lon="9.161935752255115"><ele>268.7142857142857</ele><time>2026-04-25T09:05:11Z</time></trkpt><trkpt lat="45.69552791314138" lon="9.161841885002632"><ele>268.8571428571429</ele><time>2026-04-25T09:05:12Z</time></trkpt><trkpt lat="45.69555492378938" lon="9.161749088833663"><ele>269.0</ele><time>2026-04-25T09:05:13Z</time></trkpt><trkpt lat="45.6955814670527" lon="9.161645919547505"><ele>269.0</ele><time>2026-04-25T09:05:14Z</time></trkpt><trkpt lat="45.695608552019884" lon="9.161540219041276"><ele>269.0</ele><time>2026-04-25T09:05:15Z</time></trkpt><trkpt lat="45.69563469662984" lon="9.16143681615139"><ele>269.0</ele><time>2026-04-25T09:05:16Z</time></trkpt><trkpt lat="45.695651269904104" lon="9.161320249347364"><ele>269.0</ele><time>2026-04-25T09:05:17Z</time></trkpt><trkpt lat="45.695668397321946" lon="9.161204924723743"><ele>269.0</ele><time>2026-04-25T09:05:18Z</time></trkpt><trkpt lat="45.69567967417188" lon="9.161089414095507"><ele>269.0</ele><time>2026-04-25T09:05:19Z</time></trkpt><trkpt lat="45.695657828987876" lon="9.160985798129804"><ele>269.6666666666667</ele><time>2026-04-25T09:05:20Z</time></trkpt><trkpt lat="45.69564713906837" lon="9.160889885379232"><ele>270.33333333333337</ele><time>2026-04-25T09:05:21Z</time></trkpt><trkpt lat="45.69563152557079" lon="9.160797692753818"><ele>271.0</ele><time>2026-04-25T09:05:22Z</time></trkpt><trkpt lat="45.69561592122245" lon="9.160708240576264"><ele>271.6666666666667</ele><time>2026-04-25T09:05:23Z</time></trkpt><trkpt lat="45.69558403834707" lon="9.160544780589776"><ele>272.3333333333333</ele><time>2026-04-25T09:05:25Z</time></trkpt><trkpt lat="45.695570776103466" lon="9.16039366873035"><ele>273.0</ele><time>2026-04-25T09:05:27Z</time></trkpt><trkpt lat="45.695542583097165" lon="9.16025353031122"><ele>274.0</ele><time>2026-04-25T09:05:29Z</time></trkpt><trkpt lat="45.695514376227905" lon="9.16011306834319"><ele>275.0</ele><time>2026-04-25T09:05:31Z</time></trkpt><trkpt lat="45.69548624720974" lon="9.159977388602961"><ele>276.0</ele><time>2026-04-25T09:05:33Z</time></trkpt><trkpt lat="45.6954462374445" lon="9.159851114129957"><ele>277.0</ele><time>2026-04-25T09:05:35Z</time></trkpt><trkpt lat="45.69541824746919" lon="9.159714331030921"><ele>278.0</ele><time>2026-04-25T09:05:37Z</time></trkpt><trkpt lat="45.69538762471241" lon="9.159580421837262"><ele>278.4</ele><time>2026-04-25T09:05:39Z</time></trkpt><trkpt lat="45.69537578438147" lon="9.159438209160836"><ele>278.8</ele><time>2026-04-25T09:05:41Z</time></trkpt><trkpt lat="45.69534877856356" lon="9.15930221869592"><ele>279.2</ele><time>2026-04-25T09:05:43Z</time></trkpt><trkpt lat="45.6953172511881" lon="9.159158342028103"><ele>279.6</ele><time>2026-04-25T09:05:45Z</time></trkpt><trkpt lat="45.695286470931194" lon="9.159020509059173"><ele>280.0</ele><time>2026-04-25T09:05:47Z</time></trkpt><trkpt lat="45.695240644422505" lon="9.158884153621766"><ele>280.0</ele><time>2026-04-25T09:05:49Z</time></trkpt><trkpt lat="45.69514935248174" lon="9.158783498350264"><ele>280.0</ele><time>2026-04-25T09:05:51Z</time></trkpt><trkpt lat="45.69507432360038" lon="9.158676799076595"><ele>280.0</ele><time>2026-04-25T09:05:53Z</time></trkpt><trkpt lat="45.694980458465764" lon="9.158624441789007"><ele>280.0</ele><time>2026-04-25T09:05:55Z</time></trkpt><trkpt lat="45.69488782736348" lon="9.15853181717041"><ele>280.0</ele><time>2026-04-25T09:05:57Z</time></trkpt><trkpt lat="45.69478412829297" lon="9.158429209582739"><ele>280.0</ele><time>2026-04-25T09:05:59Z</time></trkpt><trkpt lat="45.69472796347642" lon="9.158374456470842"><ele>280.0</ele><time>2026-04-25T09:06:00Z</time></trkpt><trkpt lat="45.69467212864822" lon="9.158322325389033"><ele>280.0</ele><time>2026-04-25T09:06:01Z</time></trkpt><trkpt lat="45.694617066949974" lon="9.15827110957399"><ele>280.0</ele><time>2026-04-25T09:06:02Z</time></trkpt><trkpt lat="45.694564060990054" lon="9.158217433308556"><ele>280.0</ele><time>2026-04-25T09:06:03Z</time></trkpt><trkpt lat="45.69450622788243" lon="9.15816149385759"><ele>280.0</ele><time>2026-04-25T09:06:04Z</time></trkpt><trkpt lat="45.69445293603538" lon="9.158096264311128"><ele>280.0</ele><time>2026-04-25T09:06:05Z</time></trkpt><trkpt lat="45.69440295411594" lon="9.158013214306433"><ele>279.8333333333333</ele><time>2026-04-25T09:06:06Z</time></trkpt><trkpt lat="45.69435472306141" lon="9.157928516180409"><ele>279.66666666666663</ele><time>2026-04-25T09:06:07Z</time></trkpt><trkpt lat="45.69430429352307" lon="9.157844415478163"><ele>279.5</ele><time>2026-04-25T09:06:08Z</time></trkpt><trkpt lat="45.694255740230155" lon="9.157760594868108"><ele>279.3333333333333</ele><time>2026-04-25T09:06:09Z</time></trkpt><trkpt lat="45.69421756586598" lon="9.1576662466142"><ele>279.1666666666667</ele><time>2026-04-25T09:06:10Z</time></trkpt><trkpt lat="45.6941713563626" lon="9.157585548337334"><ele>279.0</ele><time>2026-04-25T09:06:11Z</time></trkpt><trkpt lat="45.69411504894079" lon="9.157516538700417"><ele>279.0</ele><time>2026-04-25T09:06:12Z</time></trkpt><trkpt lat="45.694069780779216" lon="9.157439433985541"><ele>279.0</ele><time>2026-04-25T09:06:13Z</time></trkpt><trkpt lat="45.69402050091584" lon="9.157358423858366"><ele>279.0</ele><time>2026-04-25T09:06:13.999Z</time></trkpt><trkpt lat="45.69397103809705" lon="9.157270267522462"><ele>279.0</ele><time>2026-04-25T09:06:14.999Z</time></trkpt><trkpt lat="45.69391961116412" lon="9.157183834586295"><ele>279.0</ele><time>2026-04-25T09:06:15.999Z</time></trkpt><trkpt lat="45.69386283866068" lon="9.157102293542675"><ele>279.0</ele><time>2026-04-25T09:06:16.999Z</time></trkpt><trkpt lat="45.69380162322602" lon="9.157020482463983"><ele>278.8</ele><time>2026-04-25T09:06:17.999Z</time></trkpt><trkpt lat="45.69373548800675" lon="9.156937842366386"><ele>278.59999999999997</ele><time>2026-04-25T09:06:18.999Z</time></trkpt><trkpt lat="45.693666747684716" lon="9.156854472701779"><ele>278.4</ele><time>2026-04-25T09:06:19.999Z</time></trkpt><trkpt lat="45.693597462721655" lon="9.15676925465249"><ele>278.2</ele><time>2026-04-25T09:06:20.999Z</time></trkpt><trkpt lat="45.69352718577004" lon="9.156688707184143"><ele>278.0</ele><time>2026-04-25T09:06:21.999Z</time></trkpt><trkpt lat="45.693453746214466" lon="9.156605743504187"><ele>277.2</ele><time>2026-04-25T09:06:22.999Z</time></trkpt><trkpt lat="45.69337577686523" lon="9.1565379308961"><ele>276.4</ele><time>2026-04-25T09:06:23.999Z</time></trkpt><trkpt lat="45.693288676425965" lon="9.156483910212852"><ele>275.59999999999997</ele><time>2026-04-25T09:06:24.999Z</time></trkpt><trkpt lat="45.69320141257484" lon="9.156445184564692"><ele>274.8</ele><time>2026-04-25T09:06:25.999Z</time></trkpt><trkpt lat="45.69311308436466" lon="9.156419434309745"><ele>274.0</ele><time>2026-04-25T09:06:26.999Z</time></trkpt><trkpt lat="45.6930264257361" lon="9.156405261865846"><ele>274.0</ele><time>2026-04-25T09:06:27.999Z</time></trkpt><trkpt lat="45.69294294788364" lon="9.156386061676342"><ele>274.0</ele><time>2026-04-25T09:06:28.999Z</time></trkpt><trkpt lat="45.69286190998573" lon="9.156373407916531"><ele>274.0</ele><time>2026-04-25T09:06:29.999Z</time></trkpt><trkpt lat="45.69277949672454" lon="9.156361689074146"><ele>274.0</ele><time>2026-04-25T09:06:30.999Z</time></trkpt><trkpt lat="45.692699094069795" lon="9.156344426584203"><ele>274.0</ele><time>2026-04-25T09:06:31.999Z</time></trkpt><trkpt lat="45.692615888572675" lon="9.15634014273209"><ele>274.0</ele><time>2026-04-25T09:06:32.999Z</time></trkpt><trkpt lat="45.69253264705358" lon="9.156357434055389"><ele>274.3333333333333</ele><time>2026-04-25T09:06:33.999Z</time></trkpt><trkpt lat="45.692453188666335" lon="9.156395003560702"><ele>274.66666666666663</ele><time>2026-04-25T09:06:34.999Z</time></trkpt><trkpt lat="45.692379578987804" lon="9.156449823402898"><ele>275.0</ele><time>2026-04-25T09:06:35.999Z</time></trkpt><trkpt lat="45.69230809045968" lon="9.156512330552687"><ele>275.3333333333333</ele><time>2026-04-25T09:06:36.999Z</time></trkpt><trkpt lat="45.69224009426943" lon="9.156567447983077"><ele>275.6666666666667</ele><time>2026-04-25T09:06:37.999Z</time></trkpt><trkpt lat="45.69218031384528" lon="9.15661250388548"><ele>276.0</ele><time>2026-04-25T09:06:38.999Z</time></trkpt><trkpt lat="45.69208970158442" lon="9.156669702322347"><ele>276.0</ele><time>2026-04-25T09:06:40.999Z</time></trkpt><trkpt lat="45.691981008323026" lon="9.156656003944633"><ele>276.0</ele><time>2026-04-25T09:06:41.999Z</time></trkpt><trkpt lat="45.69189687099543" lon="9.15666943719773"><ele>276.0</ele><time>2026-04-25T09:06:42.999Z</time></trkpt><trkpt lat="45.691803595890015" lon="9.156613986401721"><ele>276.0</ele><time>2026-04-25T09:06:43.999Z</time></trkpt><trkpt lat="45.6917373713638" lon="9.156540392539686"><ele>276.0</ele><time>2026-04-25T09:06:44.999Z</time></trkpt><trkpt lat="45.69165872160526" lon="9.156495740560928"><ele>275.8333333333333</ele><time>2026-04-25T09:06:45.999Z</time></trkpt><trkpt lat="45.69159514520137" lon="9.15644053948327"><ele>275.6666666666667</ele><time>2026-04-25T09:06:46.999Z</time></trkpt><trkpt lat="45.69153207341068" lon="9.15638282160658"><ele>275.5</ele><time>2026-04-25T09:06:47.999Z</time></trkpt><trkpt lat="45.691459352336274" lon="9.156312160170605"><ele>275.33333333333337</ele><time>2026-04-25T09:06:48.999Z</time></trkpt><trkpt lat="45.69138847718574" lon="9.156255346517755"><ele>275.1666666666667</ele><time>2026-04-25T09:06:49.999Z</time></trkpt><trkpt lat="45.69131756760583" lon="9.156194413759971"><ele>275.0</ele><time>2026-04-25T09:06:50.999Z</time></trkpt><trkpt lat="45.6912402773643" lon="9.156144527070012"><ele>275.0</ele><time>2026-04-25T09:06:51.999Z</time></trkpt><trkpt lat="45.69116614355173" lon="9.156095618316398"><ele>275.0</ele><time>2026-04-25T09:06:52.999Z</time></trkpt><trkpt lat="45.6910963093898" lon="9.156019374506903"><ele>275.0</ele><time>2026-04-25T09:06:53.999Z</time></trkpt><trkpt lat="45.69102668283356" lon="9.155962251486581"><ele>275.0</ele><time>2026-04-25T09:06:55Z</time></trkpt><trkpt lat="45.69095593299618" lon="9.155903737430219"><ele>275.0</ele><time>2026-04-25T09:06:56Z</time></trkpt><trkpt lat="45.69088406072076" lon="9.155866522630348"><ele>275.0</ele><time>2026-04-25T09:06:57Z</time></trkpt><trkpt lat="45.690818262855906" lon="9.155807683022301"><ele>275.0</ele><time>2026-04-25T09:06:58Z</time></trkpt><trkpt lat="45.690754947177844" lon="9.155744896382997"><ele>275.0</ele><time>2026-04-25T09:06:59Z</time></trkpt><trkpt lat="45.690692491136005" lon="9.155678132990726"><ele>275.0</ele><time>2026-04-25T09:07:00Z</time></trkpt><trkpt lat="45.69065049143966" lon="9.155584575529803"><ele>275.0</ele><time>2026-04-25T09:07:01Z</time></trkpt><trkpt lat="45.69059087481606" lon="9.155514609873052"><ele>275.0</ele><time>2026-04-25T09:07:02Z</time></trkpt><trkpt lat="45.690544225717254" lon="9.155428493755375"><ele>275.0</ele><time>2026-04-25T09:07:03Z</time></trkpt><trkpt lat="45.690495273318234" lon="9.1553431822661"><ele>274.83333333333337</ele><time>2026-04-25T09:07:04Z</time></trkpt><trkpt lat="45.69044213511608" lon="9.155250034448365"><ele>274.6666666666667</ele><time>2026-04-25T09:07:05Z</time></trkpt><trkpt lat="45.69038777669168" lon="9.155155109282818"><ele>274.5</ele><time>2026-04-25T09:07:06Z</time></trkpt><trkpt lat="45.69033298186809" lon="9.155058961230527"><ele>274.3333333333333</ele><time>2026-04-25T09:07:07Z</time></trkpt><trkpt lat="45.690276928348545" lon="9.154964294121337"><ele>274.16666666666663</ele><time>2026-04-25T09:07:08Z</time></trkpt><trkpt lat="45.69022141178008" lon="9.154865527584008"><ele>274.0</ele><time>2026-04-25T09:07:09Z</time></trkpt><trkpt lat="45.690165498471536" lon="9.15476976484905"><ele>274.0</ele><time>2026-04-25T09:07:10Z</time></trkpt><trkpt lat="45.69010867453781" lon="9.154673292336799"><ele>274.0</ele><time>2026-04-25T09:07:11Z</time></trkpt><trkpt lat="45.6900530562755" lon="9.154578637898632"><ele>274.0</ele><time>2026-04-25T09:07:12Z</time></trkpt><trkpt lat="45.68999924380859" lon="9.154485707684232"><ele>274.0</ele><time>2026-04-25T09:07:13Z</time></trkpt><trkpt lat="45.68994705111235" lon="9.154391778733636"><ele>274.0</ele><time>2026-04-25T09:07:14Z</time></trkpt><trkpt lat="45.68989346082147" lon="9.154301542210689"><ele>274.0</ele><time>2026-04-25T09:07:15Z</time></trkpt><trkpt lat="45.689838707340776" lon="9.154212448696056"><ele>274.0</ele><time>2026-04-25T09:07:16Z</time></trkpt><trkpt lat="45.68978751391434" lon="9.154126099212753"><ele>274.0</ele><time>2026-04-25T09:07:17Z</time></trkpt><trkpt lat="45.68973726220954" lon="9.154038185680863"><ele>274.0</ele><time>2026-04-25T09:07:18Z</time></trkpt><trkpt lat="45.68968866059025" lon="9.153952764631391"><ele>274.0</ele><time>2026-04-25T09:07:19Z</time></trkpt><trkpt lat="45.68963656885111" lon="9.153866691208938"><ele>274.0</ele><time>2026-04-25T09:07:20Z</time></trkpt><trkpt lat="45.68958146563484" lon="9.153775624272635"><ele>274.0</ele><time>2026-04-25T09:07:21Z</time></trkpt><trkpt lat="45.68952753444859" lon="9.153686678983812"><ele>274.0</ele><time>2026-04-25T09:07:22Z</time></trkpt><trkpt lat="45.68947570070276" lon="9.153594666040014"><ele>274.0</ele><time>2026-04-25T09:07:23Z</time></trkpt><trkpt lat="45.689422424679684" lon="9.153506287123541"><ele>274.0</ele><time>2026-04-25T09:07:24Z</time></trkpt><trkpt lat="45.68936724317751" lon="9.15342276108248"><ele>274.0</ele><time>2026-04-25T09:07:25Z</time></trkpt><trkpt lat="45.68932530197574" lon="9.153318806112026"><ele>274.0</ele><time>2026-04-25T09:07:26Z</time></trkpt><trkpt lat="45.68926920394805" lon="9.153225293530197"><ele>274.0</ele><time>2026-04-25T09:07:27Z</time></trkpt><trkpt lat="45.68919954500956" lon="9.153142653604654"><ele>274.0</ele><time>2026-04-25T09:07:28Z</time></trkpt><trkpt lat="45.68914201755768" lon="9.153042662961829"><ele>274.0</ele><time>2026-04-25T09:07:29Z</time></trkpt><trkpt lat="45.68908500177826" lon="9.152945057897128"><ele>274.0</ele><time>2026-04-25T09:07:30Z</time></trkpt><trkpt lat="45.68902735328124" lon="9.15284989078217"><ele>274.0</ele><time>2026-04-25T09:07:31Z</time></trkpt><trkpt lat="45.68896945764762" lon="9.152754853129064"><ele>274.0</ele><time>2026-04-25T09:07:32Z</time></trkpt><trkpt lat="45.68890977517558" lon="9.152660419577082"><ele>274.0</ele><time>2026-04-25T09:07:33Z</time></trkpt><trkpt lat="45.68885201938329" lon="9.152564179746774"><ele>274.0</ele><time>2026-04-25T09:07:34Z</time></trkpt><trkpt lat="45.68879343047934" lon="9.152464802614677"><ele>274.0</ele><time>2026-04-25T09:07:35Z</time></trkpt><trkpt lat="45.68873186896651" lon="9.152360031965111"><ele>274.0</ele><time>2026-04-25T09:07:36Z</time></trkpt><trkpt lat="45.68868074875538" lon="9.152236342299952"><ele>274.0</ele><time>2026-04-25T09:07:37Z</time></trkpt><trkpt lat="45.6886022910194" lon="9.152141259939928"><ele>274.0</ele><time>2026-04-25T09:07:38Z</time></trkpt><trkpt lat="45.688533726293265" lon="9.152031253698421"><ele>274.4</ele><time>2026-04-25T09:07:39Z</time></trkpt><trkpt lat="45.68846035445547" lon="9.151929675890726"><ele>274.79999999999995</ele><time>2026-04-25T09:07:40Z</time></trkpt><trkpt lat="45.688384914299405" lon="9.151831348067665"><ele>275.20000000000005</ele><time>2026-04-25T09:07:41Z</time></trkpt><trkpt lat="45.68830869722644" lon="9.151740418898463"><ele>275.6</ele><time>2026-04-25T09:07:42Z</time></trkpt><trkpt lat="45.68823661259668" lon="9.151653160017199"><ele>276.0</ele><time>2026-04-25T09:07:43Z</time></trkpt><trkpt lat="45.68816684810457" lon="9.15157115430621"><ele>275.5</ele><time>2026-04-25T09:07:44Z</time></trkpt><trkpt lat="45.68810249019649" lon="9.151495720865427"><ele>275.0</ele><time>2026-04-25T09:07:45Z</time></trkpt><trkpt lat="45.68803946256931" lon="9.151411066731477"><ele>274.5</ele><time>2026-04-25T09:07:46Z</time></trkpt><trkpt lat="45.687975594549556" lon="9.151334782849156"><ele>274.0</ele><time>2026-04-25T09:07:47Z</time></trkpt><trkpt lat="45.68791171958185" lon="9.151256834772292"><ele>273.5</ele><time>2026-04-25T09:07:48Z</time></trkpt><trkpt lat="45.6878489622181" lon="9.151184317163526"><ele>273.0</ele><time>2026-04-25T09:07:49Z</time></trkpt><trkpt lat="45.68778506020207" lon="9.151117178674708"><ele>273.1666666666667</ele><time>2026-04-25T09:07:50Z</time></trkpt><trkpt lat="45.68771428447084" lon="9.151052293696416"><ele>273.3333333333333</ele><time>2026-04-25T09:07:51Z</time></trkpt><trkpt lat="45.68764573139749" lon="9.150991325699028"><ele>273.5</ele><time>2026-04-25T09:07:52Z</time></trkpt><trkpt lat="45.687578903254206" lon="9.150929319517443"><ele>273.66666666666663</ele><time>2026-04-25T09:07:53Z</time></trkpt><trkpt lat="45.68750799959907" lon="9.15086700687418"><ele>273.8333333333333</ele><time>2026-04-25T09:07:54Z</time></trkpt><trkpt lat="45.687433838911424" lon="9.15080688214384"><ele>274.0</ele><time>2026-04-25T09:07:55Z</time></trkpt><trkpt lat="45.68736046303946" lon="9.150746686437"><ele>274.0</ele><time>2026-04-25T09:07:56Z</time></trkpt><trkpt lat="45.687290780309844" lon="9.150685346232923"><ele>274.0</ele><time>2026-04-25T09:07:57Z</time></trkpt><trkpt lat="45.68721879945398" lon="9.150631504711665"><ele>274.0</ele><time>2026-04-25T09:07:58Z</time></trkpt><trkpt lat="45.68714345707285" lon="9.150573798468079"><ele>274.0</ele><time>2026-04-25T09:07:59Z</time></trkpt><trkpt lat="45.687067000124685" lon="9.15050784343414"><ele>274.0</ele><time>2026-04-25T09:08:00Z</time></trkpt><trkpt lat="45.686986689543104" lon="9.150444288655219"><ele>274.0</ele><time>2026-04-25T09:08:01Z</time></trkpt><trkpt lat="45.68690278220701" lon="9.150378350148797"><ele>273.59999999999997</ele><time>2026-04-25T09:08:02Z</time></trkpt><trkpt lat="45.68682206651236" lon="9.150312602998476"><ele>273.2</ele><time>2026-04-25T09:08:03Z</time></trkpt><trkpt lat="45.686744543908894" lon="9.150245478629854"><ele>272.79999999999995</ele><time>2026-04-25T09:08:04Z</time></trkpt><trkpt lat="45.68666840037888" lon="9.150177992250198"><ele>272.4</ele><time>2026-04-25T09:08:05Z</time></trkpt><trkpt lat="45.68659208805822" lon="9.150105214418865"><ele>272.0</ele><time>2026-04-25T09:08:06Z</time></trkpt><trkpt lat="45.68651624894127" lon="9.150027024837676"><ele>272.0</ele><time>2026-04-25T09:08:07Z</time></trkpt><trkpt lat="45.68644312130816" lon="9.149948656939179"><ele>272.0</ele><time>2026-04-25T09:08:08Z</time></trkpt><trkpt lat="45.686376102284875" lon="9.149865893870572"><ele>272.0</ele><time>2026-04-25T09:08:09Z</time></trkpt><trkpt lat="45.68631360449194" lon="9.149781173760395"><ele>272.0</ele><time>2026-04-25T09:08:10Z</time></trkpt><trkpt lat="45.68625404908475" lon="9.149696810653133"><ele>272.0</ele><time>2026-04-25T09:08:11Z</time></trkpt><trkpt lat="45.686195539418904" lon="9.149614073031948"><ele>272.0</ele><time>2026-04-25T09:08:12Z</time></trkpt><trkpt lat="45.68613540414066" lon="9.149535627054602"><ele>271.83333333333337</ele><time>2026-04-25T09:08:13Z</time></trkpt><trkpt lat="45.68607487364674" lon="9.149454165809065"><ele>271.6666666666667</ele><time>2026-04-25T09:08:14Z</time></trkpt><trkpt lat="45.68601365854898" lon="9.149367558127354"><ele>271.5</ele><time>2026-04-25T09:08:15Z</time></trkpt><trkpt lat="45.68595398590188" lon="9.149282261078719"><ele>271.3333333333333</ele><time>2026-04-25T09:08:16Z</time></trkpt><trkpt lat="45.68589579471764" lon="9.149192343311977"><ele>271.16666666666663</ele><time>2026-04-25T09:08:17Z</time></trkpt><trkpt lat="45.68584292816695" lon="9.149098206369194"><ele>271.0</ele><time>2026-04-25T09:08:18Z</time></trkpt><trkpt lat="45.685796083558365" lon="9.14899445846994"><ele>271.0</ele><time>2026-04-25T09:08:19Z</time></trkpt><trkpt lat="45.685768204855535" lon="9.148872164897222"><ele>271.0</ele><time>2026-04-25T09:08:20Z</time></trkpt><trkpt lat="45.68572864003382" lon="9.148760320992896"><ele>271.0</ele><time>2026-04-25T09:08:21Z</time></trkpt><trkpt lat="45.68567968396323" lon="9.14866058988679"><ele>271.0</ele><time>2026-04-25T09:08:21.999Z</time></trkpt><trkpt lat="45.685644877360254" lon="9.14854771727514"><ele>271.0</ele><time>2026-04-25T09:08:22.999Z</time></trkpt><trkpt lat="45.68560924487434" lon="9.14843757969718"><ele>271.0</ele><time>2026-04-25T09:08:23.999Z</time></trkpt><trkpt lat="45.685572551717044" lon="9.148326262905712"><ele>271.0</ele><time>2026-04-25T09:08:24.999Z</time></trkpt><trkpt lat="45.68553537902371" lon="9.148218388715797"><ele>271.0</ele><time>2026-04-25T09:08:25.999Z</time></trkpt><trkpt lat="45.68549717350553" lon="9.148107229546977"><ele>271.0</ele><time>2026-04-25T09:08:26.999Z</time></trkpt><trkpt lat="45.685475115146204" lon="9.147989642603115"><ele>271.0</ele><time>2026-04-25T09:08:27.999Z</time></trkpt><trkpt lat="45.68542486026347" lon="9.147892546799168"><ele>271.0</ele><time>2026-04-25T09:08:28.999Z</time></trkpt><trkpt lat="45.68539092873909" lon="9.147781694965019"><ele>271.0</ele><time>2026-04-25T09:08:29.999Z</time></trkpt><trkpt lat="45.68535561082072" lon="9.147670669195488"><ele>271.8333333333333</ele><time>2026-04-25T09:08:30.999Z</time></trkpt><trkpt lat="45.68531975484172" lon="9.147560725029393"><ele>272.66666666666663</ele><time>2026-04-25T09:08:31.999Z</time></trkpt><trkpt lat="45.685284618001155" lon="9.147452865319371"><ele>273.5</ele><time>2026-04-25T09:08:32.999Z</time></trkpt><trkpt lat="45.68524759334875" lon="9.147343339319812"><ele>274.3333333333333</ele><time>2026-04-25T09:08:33.999Z</time></trkpt><trkpt lat="45.68522525023496" lon="9.147224104111581"><ele>275.1666666666667</ele><time>2026-04-25T09:08:34.999Z</time></trkpt><trkpt lat="45.6851905952017" lon="9.147117244770888"><ele>276.0</ele><time>2026-04-25T09:08:35.999Z</time></trkpt><trkpt lat="45.685157726012385" lon="9.1470168183822"><ele>276.0</ele><time>2026-04-25T09:08:36.999Z</time></trkpt><trkpt lat="45.685109036998874" lon="9.146923791227785"><ele>276.0</ele><time>2026-04-25T09:08:37.999Z</time></trkpt><trkpt lat="45.68508963667558" lon="9.14680868208597"><ele>276.0</ele><time>2026-04-25T09:08:38.999Z</time></trkpt><trkpt lat="45.68503780464687" lon="9.146702989888619"><ele>276.0</ele><time>2026-04-25T09:08:39.999Z</time></trkpt><trkpt lat="45.68501618342461" lon="9.146575309124652"><ele>276.0</ele><time>2026-04-25T09:08:40.999Z</time></trkpt><trkpt lat="45.684980590760794" lon="9.146456096758211"><ele>276.0</ele><time>2026-04-25T09:08:41.999Z</time></trkpt><trkpt lat="45.684947140507916" lon="9.146340835222802"><ele>276.0</ele><time>2026-04-25T09:08:42.999Z</time></trkpt><trkpt lat="45.68491541800538" lon="9.146227354537958"><ele>276.0</ele><time>2026-04-25T09:08:43.999Z</time></trkpt><trkpt lat="45.68488375025427" lon="9.146114068501522"><ele>276.0</ele><time>2026-04-25T09:08:44.999Z</time></trkpt><trkpt lat="45.68485229682833" lon="9.145996257008369"><ele>276.0</ele><time>2026-04-25T09:08:45.999Z</time></trkpt><trkpt lat="45.68480663411811" lon="9.145888327395534"><ele>276.0</ele><time>2026-04-25T09:08:46.999Z</time></trkpt><trkpt lat="45.68477879917839" lon="9.145771359514097"><ele>276.0</ele><time>2026-04-25T09:08:47.999Z</time></trkpt><trkpt lat="45.684751331984536" lon="9.145653402032101"><ele>276.1666666666667</ele><time>2026-04-25T09:08:48.999Z</time></trkpt><trkpt lat="45.684720273653696" lon="9.145532826357684"><ele>276.3333333333333</ele><time>2026-04-25T09:08:49.999Z</time></trkpt><trkpt lat="45.684686880918406" lon="9.145410902149012"><ele>276.5</ele><time>2026-04-25T09:08:50.999Z</time></trkpt><trkpt lat="45.68467117015903" lon="9.145280938007419"><ele>276.66666666666663</ele><time>2026-04-25T09:08:51.999Z</time></trkpt><trkpt lat="45.68464087227416" lon="9.145163048997734"><ele>276.8333333333333</ele><time>2026-04-25T09:08:52.999Z</time></trkpt><trkpt lat="45.684611301784834" lon="9.145047990132767"><ele>277.0</ele><time>2026-04-25T09:08:53.999Z</time></trkpt><trkpt lat="45.68458049130403" lon="9.14492810650924"><ele>277.0</ele><time>2026-04-25T09:08:54.999Z</time></trkpt><trkpt lat="45.68453562827325" lon="9.14481898598507"><ele>277.0</ele><time>2026-04-25T09:08:55.999Z</time></trkpt><trkpt lat="45.68451938772347" lon="9.144690352452818"><ele>277.0</ele><time>2026-04-25T09:08:56.999Z</time></trkpt><trkpt lat="45.68448816993654" lon="9.144571760151356"><ele>277.0</ele><time>2026-04-25T09:08:57.999Z</time></trkpt><trkpt lat="45.68445730565823" lon="9.144454613094934"><ele>277.0</ele><time>2026-04-25T09:08:58.999Z</time></trkpt><trkpt lat="45.684425378099014" lon="9.144336952763831"><ele>277.0</ele><time>2026-04-25T09:08:59.999Z</time></trkpt><trkpt lat="45.684392739708954" lon="9.144217604558799"><ele>276.2</ele><time>2026-04-25T09:09:01Z</time></trkpt><trkpt lat="45.68434370899371" lon="9.144100952425868"><ele>275.4</ele><time>2026-04-25T09:09:02Z</time></trkpt><trkpt lat="45.68431126766018" lon="9.143975769889547"><ele>274.6</ele><time>2026-04-25T09:09:03Z</time></trkpt><trkpt lat="45.684276720676145" lon="9.143851307484848"><ele>273.8</ele><time>2026-04-25T09:09:04Z</time></trkpt><trkpt lat="45.68425977509842" lon="9.143719696415083"><ele>273.0</ele><time>2026-04-25T09:09:05Z</time></trkpt><trkpt lat="45.684227805307195" lon="9.14359663977879"><ele>273.0</ele><time>2026-04-25T09:09:06Z</time></trkpt><trkpt lat="45.684196166634365" lon="9.143474857656052"><ele>273.0</ele><time>2026-04-25T09:09:07Z</time></trkpt><trkpt lat="45.68415055114228" lon="9.143359985069425"><ele>273.0</ele><time>2026-04-25T09:09:08Z</time></trkpt><trkpt lat="45.68411945236383" lon="9.143231097150686"><ele>273.0</ele><time>2026-04-25T09:09:09Z</time></trkpt><trkpt lat="45.684087032501694" lon="9.14310408252349"><ele>273.0</ele><time>2026-04-25T09:09:10Z</time></trkpt><trkpt lat="45.68405411030665" lon="9.142978548384274"><ele>273.0</ele><time>2026-04-25T09:09:11Z</time></trkpt><trkpt lat="45.684022501569075" lon="9.142853986669575"><ele>273.0</ele><time>2026-04-25T09:09:12Z</time></trkpt><trkpt lat="45.68399234796783" lon="9.142734418638614"><ele>273.0</ele><time>2026-04-25T09:09:13Z</time></trkpt><trkpt lat="45.683963766806535" lon="9.142615275410893"><ele>273.0</ele><time>2026-04-25T09:09:14Z</time></trkpt><trkpt lat="45.683939991084316" lon="9.142496914882452"><ele>273.0</ele><time>2026-04-25T09:09:15Z</time></trkpt><trkpt lat="45.68391772301601" lon="9.142381978185947"><ele>273.0</ele><time>2026-04-25T09:09:16Z</time></trkpt><trkpt lat="45.683898814022534" lon="9.142269806664089"><ele>273.3333333333333</ele><time>2026-04-25T09:09:17Z</time></trkpt><trkpt lat="45.68388669393769" lon="9.142160662222626"><ele>273.6666666666667</ele><time>2026-04-25T09:09:18Z</time></trkpt><trkpt lat="45.68389223493883" lon="9.142048482045686"><ele>274.0</ele><time>2026-04-25T09:09:19Z</time></trkpt><trkpt lat="45.683865399117714" lon="9.14194063783272"><ele>274.33333333333337</ele><time>2026-04-25T09:09:20Z</time></trkpt><trkpt lat="45.68385508306339" lon="9.141826382019305"><ele>274.6666666666667</ele><time>2026-04-25T09:09:21Z</time></trkpt><trkpt lat="45.683840581912044" lon="9.14171141043896"><ele>275.0</ele><time>2026-04-25T09:09:22Z</time></trkpt><trkpt lat="45.68382017688751" lon="9.141598628367419"><ele>274.83333333333337</ele><time>2026-04-25T09:09:23Z</time></trkpt><trkpt lat="45.68380000642568" lon="9.141481490322837"><ele>274.6666666666667</ele><time>2026-04-25T09:09:24Z</time></trkpt><trkpt lat="45.68377869807598" lon="9.141362718409685"><ele>274.5</ele><time>2026-04-25T09:09:25Z</time></trkpt><trkpt lat="45.68375757795151" lon="9.141240307053383"><ele>274.3333333333333</ele><time>2026-04-25T09:09:26Z</time></trkpt><trkpt lat="45.68373541330871" lon="9.141120999689898"><ele>274.16666666666663</ele><time>2026-04-25T09:09:27Z</time></trkpt><trkpt lat="45.6837290873293" lon="9.140995297540023"><ele>274.0</ele><time>2026-04-25T09:09:28Z</time></trkpt><trkpt lat="45.68369248718524" lon="9.140885835875524"><ele>274.0</ele><time>2026-04-25T09:09:29Z</time></trkpt><trkpt lat="45.68368832087205" lon="9.14076230882913"><ele>274.0</ele><time>2026-04-25T09:09:30Z</time></trkpt><trkpt lat="45.68365302994852" lon="9.14064609965048"><ele>274.0</ele><time>2026-04-25T09:09:31Z</time></trkpt><trkpt lat="45.683631575128125" lon="9.140519088727904"><ele>274.0</ele><time>2026-04-25T09:09:32Z</time></trkpt><trkpt lat="45.68362684969914" lon="9.140384991876969"><ele>274.0</ele><time>2026-04-25T09:09:33Z</time></trkpt><trkpt lat="45.68360705068215" lon="9.140253677111348"><ele>274.59999999999997</ele><time>2026-04-25T09:09:34Z</time></trkpt><trkpt lat="45.68358720591143" lon="9.140120097289103"><ele>275.2</ele><time>2026-04-25T09:09:35Z</time></trkpt><trkpt lat="45.68356778944293" lon="9.139982112577016"><ele>275.79999999999995</ele><time>2026-04-25T09:09:36Z</time></trkpt><trkpt lat="45.68354854519797" lon="9.139842665154308"><ele>276.4</ele><time>2026-04-25T09:09:37Z</time></trkpt><trkpt lat="45.68352919780563" lon="9.13969874468897"><ele>277.0</ele><time>2026-04-25T09:09:38Z</time></trkpt><trkpt lat="45.683509790134195" lon="9.139554376318763"><ele>277.0</ele><time>2026-04-25T09:09:39Z</time></trkpt><trkpt lat="45.68348838996227" lon="9.139409266772754"><ele>277.0</ele><time>2026-04-25T09:09:40Z</time></trkpt><trkpt lat="45.68346682456846" lon="9.139263449187103"><ele>277.0</ele><time>2026-04-25T09:09:41Z</time></trkpt><trkpt lat="45.68344326451348" lon="9.139116343048535"><ele>277.0</ele><time>2026-04-25T09:09:42Z</time></trkpt><trkpt lat="45.683416507504184" lon="9.138971263428582"><ele>277.0</ele><time>2026-04-25T09:09:43Z</time></trkpt><trkpt lat="45.683378036202875" lon="9.138826366274056"><ele>275.8</ele><time>2026-04-25T09:09:44Z</time></trkpt><trkpt lat="45.683365848231055" lon="9.138677273621878"><ele>274.6</ele><time>2026-04-25T09:09:45Z</time></trkpt><trkpt lat="45.6833579380103" lon="9.13852976284399"><ele>273.40000000000003</ele><time>2026-04-25T09:09:46Z</time></trkpt><trkpt lat="45.68335604847342" lon="9.138384777355252"><ele>272.2</ele><time>2026-04-25T09:09:47Z</time></trkpt><trkpt lat="45.68336771866173" lon="9.138236524482318"><ele>271.0</ele><time>2026-04-25T09:09:48Z</time></trkpt><trkpt lat="45.6833454462468" lon="9.138084670581922"><ele>269.6</ele><time>2026-04-25T09:09:49Z</time></trkpt><trkpt lat="45.68329055184721" lon="9.137950434516862"><ele>268.20000000000005</ele><time>2026-04-25T09:09:50Z</time></trkpt><trkpt lat="45.68320631424404" lon="9.137848757972801"><ele>266.79999999999995</ele><time>2026-04-25T09:09:51Z</time></trkpt><trkpt lat="45.683134321548295" lon="9.137733317751284"><ele>265.4</ele><time>2026-04-25T09:09:52Z</time></trkpt><trkpt lat="45.68305933838071" lon="9.137618393787584"><ele>264.0</ele><time>2026-04-25T09:09:53Z</time></trkpt><trkpt lat="45.68297957294251" lon="9.137509402354674"><ele>264.0</ele><time>2026-04-25T09:09:54Z</time></trkpt><trkpt lat="45.68290052067407" lon="9.13739359712459"><ele>264.0</ele><time>2026-04-25T09:09:55Z</time></trkpt><trkpt lat="45.68282169331153" lon="9.137281913468764"><ele>264.0</ele><time>2026-04-25T09:09:56Z</time></trkpt><trkpt lat="45.68274289879925" lon="9.137173226077039"><ele>264.0</ele><time>2026-04-25T09:09:57Z</time></trkpt><trkpt lat="45.682678519341174" lon="9.137046549630991"><ele>264.0</ele><time>2026-04-25T09:09:58Z</time></trkpt><trkpt lat="45.68260577343975" lon="9.136933694359632"><ele>262.0</ele><time>2026-04-25T09:09:59Z</time></trkpt><trkpt lat="45.6825416886163" lon="9.1368150930525"><ele>260.0</ele><time>2026-04-25T09:10:00Z</time></trkpt><trkpt lat="45.682493488155636" lon="9.13668420997867"><ele>258.0</ele><time>2026-04-25T09:10:01Z</time></trkpt><trkpt lat="45.682469070786546" lon="9.136542434557123"><ele>256.0</ele><time>2026-04-25T09:10:02Z</time></trkpt><trkpt lat="45.68244901947991" lon="9.136390393483698"><ele>254.0</ele><time>2026-04-25T09:10:03Z</time></trkpt><trkpt lat="45.68243224525279" lon="9.13623372422366"><ele>254.0</ele><time>2026-04-25T09:10:04Z</time></trkpt><trkpt lat="45.682416331271504" lon="9.136075919779463"><ele>253.99999999999997</ele><time>2026-04-25T09:10:05Z</time></trkpt><trkpt lat="45.68240102442161" lon="9.135924135512088"><ele>253.99999999999997</ele><time>2026-04-25T09:10:06Z</time></trkpt><trkpt lat="45.68238511785442" lon="9.135775303636771"><ele>254.0</ele><time>2026-04-25T09:10:07Z</time></trkpt><trkpt lat="45.682364593571656" lon="9.13562842589577"><ele>254.0</ele><time>2026-04-25T09:10:08Z</time></trkpt><trkpt lat="45.68234030006106" lon="9.13549229780937"><ele>254.0</ele><time>2026-04-25T09:10:09Z</time></trkpt><trkpt lat="45.682287631357084" lon="9.13536288997593"><ele>253.99999999999997</ele><time>2026-04-25T09:10:10Z</time></trkpt><trkpt lat="45.6822115038927" lon="9.135271803871671"><ele>253.99999999999997</ele><time>2026-04-25T09:10:11Z</time></trkpt><trkpt lat="45.68213875663772" lon="9.135184617274382"><ele>254.0</ele><time>2026-04-25T09:10:12Z</time></trkpt><trkpt lat="45.68205921609428" lon="9.135109549543422"><ele>254.0</ele><time>2026-04-25T09:10:13Z</time></trkpt><trkpt lat="45.68197644298175" lon="9.13503293983721"><ele>253.6</ele><time>2026-04-25T09:10:14Z</time></trkpt><trkpt lat="45.68191342733386" lon="9.134929088583496"><ele>253.2</ele><time>2026-04-25T09:10:15Z</time></trkpt><trkpt lat="45.68184872884986" lon="9.134834295603936"><ele>252.79999999999998</ele><time>2026-04-25T09:10:16Z</time></trkpt><trkpt lat="45.68180048624082" lon="9.134727027937684"><ele>252.39999999999998</ele><time>2026-04-25T09:10:17Z</time></trkpt><trkpt lat="45.681761084346746" lon="9.134611781629683"><ele>252.0</ele><time>2026-04-25T09:10:18Z</time></trkpt><trkpt lat="45.68172732379228" lon="9.134487948791426"><ele>252.0</ele><time>2026-04-25T09:10:19Z</time></trkpt><trkpt lat="45.68169955205316" lon="9.134363403882453"><ele>252.0</ele><time>2026-04-25T09:10:20Z</time></trkpt><trkpt lat="45.68168234816444" lon="9.13424363892144"><ele>252.0</ele><time>2026-04-25T09:10:21Z</time></trkpt><trkpt lat="45.68166525530409" lon="9.13412146603501"><ele>252.0</ele><time>2026-04-25T09:10:22Z</time></trkpt><trkpt lat="45.681650014867905" lon="9.133993973973492"><ele>252.0</ele><time>2026-04-25T09:10:23Z</time></trkpt><trkpt lat="45.681635262883624" lon="9.13386486626296"><ele>252.0</ele><time>2026-04-25T09:10:24Z</time></trkpt><trkpt lat="45.68162113916937" lon="9.133732212190042"><ele>252.0</ele><time>2026-04-25T09:10:25Z</time></trkpt><trkpt lat="45.68160701938111" lon="9.13360388902357"><ele>252.0</ele><time>2026-04-25T09:10:26Z</time></trkpt><trkpt lat="45.68159194248467" lon="9.133477157310965"><ele>252.0</ele><time>2026-04-25T09:10:27Z</time></trkpt><trkpt lat="45.68157704496023" lon="9.133353574347638"><ele>252.0</ele><time>2026-04-25T09:10:28Z</time></trkpt><trkpt lat="45.6815543936315" lon="9.133227034328886"><ele>252.0</ele><time>2026-04-25T09:10:29Z</time></trkpt><trkpt lat="45.681525201548205" lon="9.133110266939191"><ele>252.0</ele><time>2026-04-25T09:10:30Z</time></trkpt><trkpt lat="45.681450050524184" lon="9.133025649251097"><ele>252.0</ele><time>2026-04-25T09:10:31Z</time></trkpt><trkpt lat="45.68138014443064" lon="9.132958158139338"><ele>252.0</ele><time>2026-04-25T09:10:32Z</time></trkpt><trkpt lat="45.6812971947532" lon="9.132916527354924"><ele>252.0</ele><time>2026-04-25T09:10:33Z</time></trkpt><trkpt lat="45.681207871046915" lon="9.132889364726445"><ele>252.0</ele><time>2026-04-25T09:10:34Z</time></trkpt><trkpt lat="45.68112020319108" lon="9.132859956916185"><ele>252.0</ele><time>2026-04-25T09:10:35Z</time></trkpt><trkpt lat="45.68104326174235" lon="9.132805905619634"><ele>252.0</ele><time>2026-04-25T09:10:36Z</time></trkpt><trkpt lat="45.68098122439518" lon="9.132721130237947"><ele>252.0</ele><time>2026-04-25T09:10:37Z</time></trkpt><trkpt lat="45.68096872372523" lon="9.132590430992947"><ele>252.0</ele><time>2026-04-25T09:10:38Z</time></trkpt><trkpt lat="45.68095057899729" lon="9.132473947264854"><ele>252.0</ele><time>2026-04-25T09:10:39Z</time></trkpt><trkpt lat="45.680932083237494" lon="9.132363541528598"><ele>252.0</ele><time>2026-04-25T09:10:40Z</time></trkpt><trkpt lat="45.68091632960508" lon="9.132256628719079"><ele>252.0</ele><time>2026-04-25T09:10:41Z</time></trkpt><trkpt lat="45.68090239414718" lon="9.132159374897661"><ele>252.0</ele><time>2026-04-25T09:10:42Z</time></trkpt><trkpt lat="45.680889770519265" lon="9.132069906186043"><ele>252.0</ele><time>2026-04-25T09:10:43Z</time></trkpt><trkpt lat="45.680877243883344" lon="9.131981125482568"><ele>252.0</ele><time>2026-04-25T09:10:43.999Z</time></trkpt><trkpt lat="45.680853018589254" lon="9.131809431486982"><ele>252.0</ele><time>2026-04-25T09:10:45.999Z</time></trkpt><trkpt lat="45.68082991749603" lon="9.131652788170767"><ele>252.0</ele><time>2026-04-25T09:10:47.999Z</time></trkpt><trkpt lat="45.68080820364864" lon="9.131515500733359"><ele>252.0</ele><time>2026-04-25T09:10:49.999Z</time></trkpt><trkpt lat="45.680766082713724" lon="9.131431388612475"><ele>251.2</ele><time>2026-04-25T09:10:51.999Z</time></trkpt><trkpt lat="45.6807399788039" lon="9.13134726801905"><ele>250.39999999999998</ele><time>2026-04-25T09:11:03.999Z</time></trkpt><trkpt lat="45.68066340832444" lon="9.13131714041056"><ele>249.60000000000002</ele><time>2026-04-25T09:11:07Z</time></trkpt><trkpt lat="45.68057825908729" lon="9.13135842138711"><ele>248.8</ele><time>2026-04-25T09:11:09Z</time></trkpt><trkpt lat="45.68047746085906" lon="9.131396568118927"><ele>248.0</ele><time>2026-04-25T09:11:11Z</time></trkpt><trkpt lat="45.68035868942834" lon="9.131436861094508"><ele>248.0</ele><time>2026-04-25T09:11:13Z</time></trkpt><trkpt lat="45.68029402040478" lon="9.131463293872995"><ele>248.00000000000003</ele><time>2026-04-25T09:11:14Z</time></trkpt><trkpt lat="45.680225782038534" lon="9.131493986057423"><ele>248.0</ele><time>2026-04-25T09:11:15Z</time></trkpt><trkpt lat="45.680156275531" lon="9.131523004825272"><ele>248.0</ele><time>2026-04-25T09:11:16Z</time></trkpt><trkpt lat="45.68008823948852" lon="9.131547258649505"><ele>248.00000000000003</ele><time>2026-04-25T09:11:17Z</time></trkpt><trkpt lat="45.68002080512345" lon="9.131573202366376"><ele>248.0</ele><time>2026-04-25T09:11:18Z</time></trkpt><trkpt lat="45.67995440901314" lon="9.131606909108903"><ele>248.0</ele><time>2026-04-25T09:11:19Z</time></trkpt><trkpt lat="45.67988984795374" lon="9.131637484489746"><ele>248.00000000000003</ele><time>2026-04-25T09:11:20Z</time></trkpt><trkpt lat="45.67982756045321" lon="9.131660721123616"><ele>248.0</ele><time>2026-04-25T09:11:21Z</time></trkpt><trkpt lat="45.679734810373" lon="9.131682763473025"><ele>248.0</ele><time>2026-04-25T09:11:23Z</time></trkpt><trkpt lat="45.67968006730662" lon="9.13158677856542"><ele>248.0</ele><time>2026-04-25T09:11:25Z</time></trkpt><trkpt lat="45.67969049314506" lon="9.131488454985307"><ele>248.00000000000003</ele><time>2026-04-25T09:11:26Z</time></trkpt><trkpt lat="45.679763103359306" lon="9.13141900448922"><ele>248.0</ele><time>2026-04-25T09:11:27Z</time></trkpt><trkpt lat="45.67981765344382" lon="9.131322555283006"><ele>248.0</ele><time>2026-04-25T09:11:28Z</time></trkpt><trkpt lat="45.67987310483441" lon="9.131219569770549"><ele>248.0</ele><time>2026-04-25T09:11:29Z</time></trkpt><trkpt lat="45.67991405184676" lon="9.13111173390592"><ele>248.0</ele><time>2026-04-25T09:11:30Z</time></trkpt><trkpt lat="45.67993287740272" lon="9.130988378754033"><ele>248.0</ele><time>2026-04-25T09:11:31Z</time></trkpt><trkpt lat="45.679899601023585" lon="9.130849244459133"><ele>248.0</ele><time>2026-04-25T09:11:32Z</time></trkpt><trkpt lat="45.67988752914121" lon="9.130703594193678"><ele>247.00000000000003</ele><time>2026-04-25T09:11:33Z</time></trkpt><trkpt lat="45.67986971847401" lon="9.13057260810477"><ele>246.0</ele><time>2026-04-25T09:11:34Z</time></trkpt><trkpt lat="45.67986894385845" lon="9.130455522041716"><ele>245.0</ele><time>2026-04-25T09:11:35Z</time></trkpt><trkpt lat="45.67988830967331" lon="9.130346024321733"><ele>244.0</ele><time>2026-04-25T09:11:36Z</time></trkpt><trkpt lat="45.679937271059764" lon="9.130247472449948"><ele>243.00000000000003</ele><time>2026-04-25T09:11:37Z</time></trkpt><trkpt lat="45.6800095558237" lon="9.130164310019536"><ele>242.0</ele><time>2026-04-25T09:11:38Z</time></trkpt><trkpt lat="45.68009014412172" lon="9.130089625947125"><ele>242.00000000000003</ele><time>2026-04-25T09:11:39Z</time></trkpt><trkpt lat="45.680153862763284" lon="9.13000770776867"><ele>242.0</ele><time>2026-04-25T09:11:40Z</time></trkpt><trkpt lat="45.68020658831906" lon="9.129922151874291"><ele>242.0</ele><time>2026-04-25T09:11:41Z</time></trkpt><trkpt lat="45.6802323561498" lon="9.129808616411765"><ele>242.0</ele><time>2026-04-25T09:11:42Z</time></trkpt><trkpt lat="45.680226785723846" lon="9.129682424868058"><ele>242.00000000000003</ele><time>2026-04-25T09:11:43Z</time></trkpt><trkpt lat="45.68019117201005" lon="9.129557749714994"><ele>242.0</ele><time>2026-04-25T09:11:44Z</time></trkpt><trkpt lat="45.68013918945935" lon="9.129441368403134"><ele>239.8</ele><time>2026-04-25T09:11:45Z</time></trkpt><trkpt lat="45.68008363583347" lon="9.129327234363096"><ele>237.6</ele><time>2026-04-25T09:11:46Z</time></trkpt><trkpt lat="45.680021514950994" lon="9.129219930956506"><ele>235.40000000000003</ele><time>2026-04-25T09:11:47Z</time></trkpt><trkpt lat="45.67996683885688" lon="9.129105022513603"><ele>233.20000000000002</ele><time>2026-04-25T09:11:48Z</time></trkpt><trkpt lat="45.6799142016469" lon="9.128986660369096"><ele>231.0</ele><time>2026-04-25T09:11:49Z</time></trkpt><trkpt lat="45.679858019591684" lon="9.128871300515797"><ele>230.33333333333334</ele><time>2026-04-25T09:11:50Z</time></trkpt><trkpt lat="45.679802529738645" lon="9.128757666864624"><ele>229.66666666666669</ele><time>2026-04-25T09:11:51Z</time></trkpt><trkpt lat="45.679753455997286" lon="9.128664210151193"><ele>229.0</ele><time>2026-04-25T09:11:52Z</time></trkpt><trkpt lat="45.67970131692164" lon="9.128596300867494"><ele>228.33333333333334</ele><time>2026-04-25T09:11:53Z</time></trkpt><trkpt lat="45.679631043923344" lon="9.128575170340724"><ele>227.66666666666669</ele><time>2026-04-25T09:11:54Z</time></trkpt><trkpt lat="45.67955179659236" lon="9.128598609428668"><ele>227.0</ele><time>2026-04-25T09:11:55Z</time></trkpt><trkpt lat="45.6794818132788" lon="9.128658103331409"><ele>227.0</ele><time>2026-04-25T09:11:56Z</time></trkpt><trkpt lat="45.67943008511216" lon="9.12873733444501"><ele>227.00000000000003</ele><time>2026-04-25T09:11:57Z</time></trkpt><trkpt lat="45.679386141786885" lon="9.128821662194655"><ele>227.0</ele><time>2026-04-25T09:11:58Z</time></trkpt><trkpt lat="45.679337869378955" lon="9.12889595997577"><ele>227.0</ele><time>2026-04-25T09:11:59Z</time></trkpt><trkpt lat="45.6792807767484" lon="9.12896692088859"><ele>227.00000000000003</ele><time>2026-04-25T09:12:00Z</time></trkpt><trkpt lat="45.6792204518858" lon="9.1290336731378"><ele>227.0</ele><time>2026-04-25T09:12:01Z</time></trkpt><trkpt lat="45.67916389178168" lon="9.12910809458931"><ele>227.0</ele><time>2026-04-25T09:12:02Z</time></trkpt><trkpt lat="45.67910435101464" lon="9.129175266959443"><ele>227.00000000000003</ele><time>2026-04-25T09:12:03Z</time></trkpt><trkpt lat="45.679034364925" lon="9.129216276943874"><ele>227.0</ele><time>2026-04-25T09:12:04Z</time></trkpt><trkpt lat="45.67895759729405" lon="9.129228245030962"><ele>227.0</ele><time>2026-04-25T09:12:05Z</time></trkpt><trkpt lat="45.67888244437034" lon="9.12921021248262"><ele>227.0</ele><time>2026-04-25T09:12:06Z</time></trkpt><trkpt lat="45.67882534024145" lon="9.129153090720921"><ele>227.00000000000003</ele><time>2026-04-25T09:12:07Z</time></trkpt><trkpt lat="45.67879269687561" lon="9.129075938446224"><ele>227.0</ele><time>2026-04-25T09:12:08Z</time></trkpt><trkpt lat="45.678737572194116" lon="9.128940453058137"><ele>227.0</ele><time>2026-04-25T09:12:10Z</time></trkpt><trkpt lat="45.67879673831211" lon="9.128742072746077"><ele>227.0</ele><time>2026-04-25T09:12:12Z</time></trkpt><trkpt lat="45.678805963925086" lon="9.128572121204282"><ele>227.0</ele><time>2026-04-25T09:12:14Z</time></trkpt><trkpt lat="45.67879582656239" lon="9.128401088555322"><ele>227.0</ele><time>2026-04-25T09:12:16Z</time></trkpt><trkpt lat="45.678775878665306" lon="9.128234263074216"><ele>226.83333333333334</ele><time>2026-04-25T09:12:18Z</time></trkpt><trkpt lat="45.67875139224062" lon="9.128059507946151"><ele>226.66666666666669</ele><time>2026-04-25T09:12:20Z</time></trkpt><trkpt lat="45.678739702205554" lon="9.127968816519328"><ele>226.5</ele><time>2026-04-25T09:12:21Z</time></trkpt><trkpt lat="45.67873065134782" lon="9.12787706140441"><ele>226.33333333333331</ele><time>2026-04-25T09:12:22Z</time></trkpt><trkpt lat="45.67871972479602" lon="9.127783180508285"><ele>226.16666666666666</ele><time>2026-04-25T09:12:23Z</time></trkpt><trkpt lat="45.678708700567135" lon="9.127686258547117"><ele>226.0</ele><time>2026-04-25T09:12:24Z</time></trkpt><trkpt lat="45.67869705707151" lon="9.127593318925745"><ele>226.0</ele><time>2026-04-25T09:12:25Z</time></trkpt><trkpt lat="45.678684128778045" lon="9.127501089015565"><ele>226.0</ele><time>2026-04-25T09:12:26Z</time></trkpt><trkpt lat="45.67867105938467" lon="9.127400076021205"><ele>226.0</ele><time>2026-04-25T09:12:27Z</time></trkpt><trkpt lat="45.678658485930825" lon="9.12729427991944"><ele>226.0</ele><time>2026-04-25T09:12:28Z</time></trkpt><trkpt lat="45.67864678061065" lon="9.127185731901694"><ele>226.0</ele><time>2026-04-25T09:12:29Z</time></trkpt><trkpt lat="45.67863720798594" lon="9.127076709812163"><ele>226.0</ele><time>2026-04-25T09:12:30Z</time></trkpt><trkpt lat="45.67862405859206" lon="9.126965589015105"><ele>226.0</ele><time>2026-04-25T09:12:31Z</time></trkpt><trkpt lat="45.67860976353825" lon="9.126850121099482"><ele>225.99999999999997</ele><time>2026-04-25T09:12:32Z</time></trkpt><trkpt lat="45.67859650562509" lon="9.126731155300119"><ele>226.0</ele><time>2026-04-25T09:12:33Z</time></trkpt><trkpt lat="45.678582627350345" lon="9.126609791449436"><ele>226.0</ele><time>2026-04-25T09:12:34Z</time></trkpt><trkpt lat="45.67856740441959" lon="9.126485202207785"><ele>226.0</ele><time>2026-04-25T09:12:35Z</time></trkpt><trkpt lat="45.67855115619663" lon="9.126360492536083"><ele>225.99999999999997</ele><time>2026-04-25T09:12:36Z</time></trkpt><trkpt lat="45.678534511942836" lon="9.126233127557622"><ele>226.0</ele><time>2026-04-25T09:12:37Z</time></trkpt><trkpt lat="45.678520203827446" lon="9.126103541621738"><ele>225.99999999999997</ele><time>2026-04-25T09:12:38Z</time></trkpt><trkpt lat="45.67850771999838" lon="9.125974106713535"><ele>226.0</ele><time>2026-04-25T09:12:39Z</time></trkpt><trkpt lat="45.67849348325475" lon="9.125846390825705"><ele>226.0</ele><time>2026-04-25T09:12:40Z</time></trkpt><trkpt lat="45.67847769523334" lon="9.125723304432821"><ele>226.0</ele><time>2026-04-25T09:12:41Z</time></trkpt><trkpt lat="45.67846315864529" lon="9.125606804419402"><ele>225.99999999999997</ele><time>2026-04-25T09:12:42Z</time></trkpt><trkpt lat="45.67845163195009" lon="9.125495919180738"><ele>226.0</ele><time>2026-04-25T09:12:43Z</time></trkpt><trkpt lat="45.678444212000706" lon="9.12538988046377"><ele>226.42857142857144</ele><time>2026-04-25T09:12:44Z</time></trkpt><trkpt lat="45.678444941864214" lon="9.12528766062104"><ele>226.85714285714283</ele><time>2026-04-25T09:12:45Z</time></trkpt><trkpt lat="45.67846271584381" lon="9.125185771309527"><ele>227.28571428571428</ele><time>2026-04-25T09:12:46Z</time></trkpt><trkpt lat="45.678492339009175" lon="9.125086929481894"><ele>227.71428571428572</ele><time>2026-04-25T09:12:47Z</time></trkpt><trkpt lat="45.67853959925142" lon="9.124997664477911"><ele>228.14285714285717</ele><time>2026-04-25T09:12:48Z</time></trkpt><trkpt lat="45.67859118683038" lon="9.124915589616725"><ele>228.57142857142856</ele><time>2026-04-25T09:12:49Z</time></trkpt><trkpt lat="45.67864717877725" lon="9.124847289849132"><ele>229.0</ele><time>2026-04-25T09:12:50Z</time></trkpt><trkpt lat="45.67870409214645" lon="9.124794574111748"><ele>231.0</ele><time>2026-04-25T09:12:51Z</time></trkpt><trkpt lat="45.67879502283758" lon="9.124705951631014"><ele>232.99999999999997</ele><time>2026-04-25T09:12:53Z</time></trkpt><trkpt lat="45.67887726952888" lon="9.124606737500569"><ele>234.99999999999997</ele><time>2026-04-25T09:12:55Z</time></trkpt><trkpt lat="45.67895901447358" lon="9.124495551389996"><ele>237.0</ele><time>2026-04-25T09:12:57Z</time></trkpt><trkpt lat="45.67897066599192" lon="9.124390424630683"><ele>239.0</ele><time>2026-04-25T09:12:58Z</time></trkpt><trkpt lat="45.678964684922505" lon="9.124291024790613"><ele>239.0</ele><time>2026-04-25T09:12:59Z</time></trkpt><trkpt lat="45.678938392473064" lon="9.124134423828025"><ele>238.99999999999997</ele><time>2026-04-25T09:13:01Z</time></trkpt><trkpt lat="45.67891244494988" lon="9.123993178136269"><ele>238.99999999999997</ele><time>2026-04-25T09:13:03Z</time></trkpt><trkpt lat="45.678887441488804" lon="9.123853518574338"><ele>239.0</ele><time>2026-04-25T09:13:04.999Z</time></trkpt><trkpt lat="45.67886418283675" lon="9.123720825983247"><ele>239.0</ele><time>2026-04-25T09:13:06.999Z</time></trkpt><trkpt lat="45.678841611887265" lon="9.123592119741522"><ele>240.2</ele><time>2026-04-25T09:13:08.999Z</time></trkpt><trkpt lat="45.67878509240921" lon="9.123473197017098"><ele>241.39999999999998</ele><time>2026-04-25T09:13:10.999Z</time></trkpt><trkpt lat="45.678767292875435" lon="9.123339960380209"><ele>242.6</ele><time>2026-04-25T09:13:13Z</time></trkpt><trkpt lat="45.678740315568085" lon="9.123213103353539"><ele>243.8</ele><time>2026-04-25T09:13:15Z</time></trkpt><trkpt lat="45.67871982660827" lon="9.123090418743255"><ele>245.0</ele><time>2026-04-25T09:13:17Z</time></trkpt><trkpt lat="45.678698408307284" lon="9.122969777299197"><ele>245.83333333333334</ele><time>2026-04-25T09:13:19Z</time></trkpt><trkpt lat="45.6786813606043" lon="9.122853637009039"><ele>246.66666666666669</ele><time>2026-04-25T09:13:21Z</time></trkpt><trkpt lat="45.678660497897646" lon="9.122734697164736"><ele>247.5</ele><time>2026-04-25T09:13:23Z</time></trkpt><trkpt lat="45.67863927545705" lon="9.122617295358776"><ele>248.33333333333331</ele><time>2026-04-25T09:13:25Z</time></trkpt><trkpt lat="45.67860520907159" lon="9.122495907172429"><ele>249.16666666666666</ele><time>2026-04-25T09:13:27Z</time></trkpt><trkpt lat="45.67858710403932" lon="9.122367796089515"><ele>250.0</ele><time>2026-04-25T09:13:29Z</time></trkpt><trkpt lat="45.67857865259379" lon="9.122243638996439"><ele>249.99999999999997</ele><time>2026-04-25T09:13:31Z</time></trkpt><trkpt lat="45.67856635771477" lon="9.122120660231557"><ele>250.0</ele><time>2026-04-25T09:13:33Z</time></trkpt><trkpt lat="45.678548045866336" lon="9.122001401266543"><ele>250.0</ele><time>2026-04-25T09:13:35Z</time></trkpt><trkpt lat="45.678499950007634" lon="9.121917786301024"><ele>250.0</ele><time>2026-04-25T09:13:37Z</time></trkpt><trkpt lat="45.678424796166226" lon="9.121861441283553"><ele>249.99999999999997</ele><time>2026-04-25T09:13:39Z</time></trkpt><trkpt lat="45.67832824964904" lon="9.121817892296649"><ele>250.0</ele><time>2026-04-25T09:13:41Z</time></trkpt><trkpt lat="45.6782391883107" lon="9.12175253146246"><ele>249.99999999999997</ele><time>2026-04-25T09:13:43Z</time></trkpt><trkpt lat="45.67817584664392" lon="9.121667920993206"><ele>250.0</ele><time>2026-04-25T09:13:45Z</time></trkpt><trkpt lat="45.678164242978376" lon="9.121576439006933"><ele>250.0</ele><time>2026-04-25T09:13:46Z</time></trkpt><trkpt lat="45.678130753214184" lon="9.1214419673689"><ele>250.0</ele><time>2026-04-25T09:13:48Z</time></trkpt><trkpt lat="45.67808418496643" lon="9.121311060342316"><ele>249.99999999999997</ele><time>2026-04-25T09:13:50Z</time></trkpt><trkpt lat="45.678047171849045" lon="9.121187312651202"><ele>250.0</ele><time>2026-04-25T09:13:52Z</time></trkpt><trkpt lat="45.67801434524364" lon="9.121067637758603"><ele>250.0</ele><time>2026-04-25T09:13:54Z</time></trkpt><trkpt lat="45.67798560323409" lon="9.120958183911604"><ele>250.0</ele><time>2026-04-25T09:13:56Z</time></trkpt><trkpt lat="45.67795222897258" lon="9.120844886931692"><ele>250.0</ele><time>2026-04-25T09:13:58Z</time></trkpt><trkpt lat="45.67794461288355" lon="9.120702464083976"><ele>250.0</ele><time>2026-04-25T09:14:00Z</time></trkpt><trkpt lat="45.67791118386495" lon="9.120563415351283"><ele>250.0</ele><time>2026-04-25T09:14:02Z</time></trkpt><trkpt lat="45.67786695580147" lon="9.120421681154713"><ele>250.0</ele><time>2026-04-25T09:14:04Z</time></trkpt><trkpt lat="45.677830277435426" lon="9.120273491906687"><ele>250.0</ele><time>2026-04-25T09:14:06Z</time></trkpt><trkpt lat="45.67779955705564" lon="9.120140209853083"><ele>250.0</ele><time>2026-04-25T09:14:08Z</time></trkpt><trkpt lat="45.6777659232713" lon="9.120020031745414"><ele>250.0</ele><time>2026-04-25T09:14:10Z</time></trkpt><trkpt lat="45.6777368934392" lon="9.119908695382916"><ele>250.0</ele><time>2026-04-25T09:14:12Z</time></trkpt><trkpt lat="45.67771127845116" lon="9.119805145631256"><ele>250.33333333333331</ele><time>2026-04-25T09:14:14Z</time></trkpt><trkpt lat="45.67769183708966" lon="9.119707179776668"><ele>250.66666666666666</ele><time>2026-04-25T09:14:16Z</time></trkpt><trkpt lat="45.67766812745499" lon="9.119614809199767"><ele>251.0</ele><time>2026-04-25T09:14:18Z</time></trkpt><trkpt lat="45.67764247781571" lon="9.119513382361779"><ele>251.33333333333331</ele><time>2026-04-25T09:14:20Z</time></trkpt><trkpt lat="45.67761681918322" lon="9.11941301828679"><ele>251.66666666666666</ele><time>2026-04-25T09:14:22Z</time></trkpt><trkpt lat="45.6776016375352" lon="9.119304965081941"><ele>252.0</ele><time>2026-04-25T09:14:24Z</time></trkpt><trkpt lat="45.67757595604762" lon="9.119182692304122"><ele>251.8</ele><time>2026-04-25T09:14:26Z</time></trkpt><trkpt lat="45.67753495890994" lon="9.11904180699104"><ele>251.6</ele><time>2026-04-25T09:14:28Z</time></trkpt><trkpt lat="45.677496337625776" lon="9.118886732346905"><ele>251.40000000000003</ele><time>2026-04-25T09:14:30Z</time></trkpt><trkpt lat="45.67745475943219" lon="9.118716513275931"><ele>251.20000000000002</ele><time>2026-04-25T09:14:32Z</time></trkpt><trkpt lat="45.6774321180532" lon="9.118623671382226"><ele>251.0</ele><time>2026-04-25T09:14:33Z</time></trkpt><trkpt lat="45.67742555365522" lon="9.118522506324673"><ele>250.99999999999997</ele><time>2026-04-25T09:14:34Z</time></trkpt><trkpt lat="45.677390225189754" lon="9.118439580168328"><ele>251.0</ele><time>2026-04-25T09:14:35Z</time></trkpt><trkpt lat="45.67737182069332" lon="9.118352224796526"><ele>250.99999999999997</ele><time>2026-04-25T09:14:36Z</time></trkpt><trkpt lat="45.67735172030454" lon="9.118265466602207"><ele>250.99999999999997</ele><time>2026-04-25T09:14:37Z</time></trkpt><trkpt lat="45.67733465031516" lon="9.118173352416703"><ele>251.0</ele><time>2026-04-25T09:14:38Z</time></trkpt><trkpt lat="45.677311834830434" lon="9.118078631567775"><ele>250.99999999999997</ele><time>2026-04-25T09:14:39Z</time></trkpt><trkpt lat="45.67728917621889" lon="9.11798823662771"><ele>250.99999999999997</ele><time>2026-04-25T09:14:40Z</time></trkpt><trkpt lat="45.677268611486596" lon="9.117895718913209"><ele>251.00000000000003</ele><time>2026-04-25T09:14:41Z</time></trkpt><trkpt lat="45.67724577776377" lon="9.117808056757886"><ele>251.0</ele><time>2026-04-25T09:14:42Z</time></trkpt><trkpt lat="45.677214258111" lon="9.117679225146043"><ele>251.0</ele><time>2026-04-25T09:14:44Z</time></trkpt><trkpt lat="45.6771947228353" lon="9.117575472920889"><ele>251.0</ele><time>2026-04-25T09:14:48Z</time></trkpt><trkpt lat="45.67716352768823" lon="9.117471804451704"><ele>251.00000000000003</ele><time>2026-04-25T09:14:52Z</time></trkpt><trkpt lat="45.67713252318447" lon="9.117357481360116"><ele>251.0</ele><time>2026-04-25T09:14:54Z</time></trkpt><trkpt lat="45.677098301736706" lon="9.117218624847625"><ele>251.00000000000003</ele><time>2026-04-25T09:14:56Z</time></trkpt><trkpt lat="45.677060419375074" lon="9.117074677993424"><ele>251.0</ele><time>2026-04-25T09:14:58Z</time></trkpt><trkpt lat="45.677029470324975" lon="9.116936492943896"><ele>251.0</ele><time>2026-04-25T09:15:00Z</time></trkpt><trkpt lat="45.6770199932359" lon="9.116823228268474"><ele>251.0</ele><time>2026-04-25T09:15:02Z</time></trkpt><trkpt lat="45.67699831621118" lon="9.116723091276675"><ele>251.00000000000003</ele><time>2026-04-25T09:15:04Z</time></trkpt><trkpt lat="45.67696134102508" lon="9.116621708017895"><ele>251.0</ele><time>2026-04-25T09:15:06Z</time></trkpt><trkpt lat="45.67693801002056" lon="9.116530041019717"><ele>250.83333333333334</ele><time>2026-04-25T09:15:08Z</time></trkpt><trkpt lat="45.67693006498071" lon="9.11642841909738"><ele>250.66666666666669</ele><time>2026-04-25T09:15:10Z</time></trkpt><trkpt lat="45.67690771040261" lon="9.116333627639987"><ele>250.5</ele><time>2026-04-25T09:15:12Z</time></trkpt><trkpt lat="45.67688440409777" lon="9.11623480052619"><ele>250.33333333333331</ele><time>2026-04-25T09:15:14Z</time></trkpt><trkpt lat="45.676850735574924" lon="9.116127026182243"><ele>250.16666666666666</ele><time>2026-04-25T09:15:16.999Z</time></trkpt><trkpt lat="45.67679051166608" lon="9.116042114316826"><ele>250.0</ele><time>2026-04-25T09:16:52Z</time></trkpt><trkpt lat="45.67675312812231" lon="9.115957746017932"><ele>249.99999999999997</ele><time>2026-04-25T09:16:54Z</time></trkpt><trkpt lat="45.67667915625471" lon="9.115904598447989"><ele>250.0</ele><time>2026-04-25T09:16:56Z</time></trkpt><trkpt lat="45.676574151160075" lon="9.115942023217595"><ele>250.0</ele><time>2026-04-25T09:16:58Z</time></trkpt><trkpt lat="45.67651314439267" lon="9.115974351353339"><ele>250.0</ele><time>2026-04-25T09:16:59Z</time></trkpt><trkpt lat="45.676453932575775" lon="9.116008930803421"><ele>249.99999999999997</ele><time>2026-04-25T09:17:00Z</time></trkpt><trkpt lat="45.676351187162474" lon="9.116094818613094"><ele>250.0</ele><time>2026-04-25T09:17:02Z</time></trkpt><trkpt lat="45.676235658750564" lon="9.116170360196348"><ele>250.0</ele><time>2026-04-25T09:17:04Z</time></trkpt><trkpt lat="45.67617455234566" lon="9.11621369520299"><ele>250.0</ele><time>2026-04-25T09:17:05Z</time></trkpt><trkpt lat="45.6761145454075" lon="9.116255391529009"><ele>250.0</ele><time>2026-04-25T09:17:06Z</time></trkpt><trkpt lat="45.67605683024442" lon="9.116300112404515"><ele>250.0</ele><time>2026-04-25T09:17:07Z</time></trkpt><trkpt lat="45.6759985417575" lon="9.116338365253116"><ele>250.0</ele><time>2026-04-25T09:17:08Z</time></trkpt><trkpt lat="45.675936646577625" lon="9.116378282931178"><ele>250.0</ele><time>2026-04-25T09:17:09Z</time></trkpt><trkpt lat="45.675879787594546" lon="9.116419051959076"><ele>250.0</ele><time>2026-04-25T09:17:10Z</time></trkpt><trkpt lat="45.675824669711695" lon="9.116465776455676"><ele>250.0</ele><time>2026-04-25T09:17:11Z</time></trkpt><trkpt lat="45.675765635125984" lon="9.116508962113619"><ele>250.0</ele><time>2026-04-25T09:17:12Z</time></trkpt><trkpt lat="45.6756979968192" lon="9.116549859856311"><ele>250.0</ele><time>2026-04-25T09:17:13Z</time></trkpt><trkpt lat="45.67563411142918" lon="9.116597460513178"><ele>250.0</ele><time>2026-04-25T09:17:14Z</time></trkpt><trkpt lat="45.675568648060484" lon="9.1166481763481"><ele>250.0</ele><time>2026-04-25T09:17:15Z</time></trkpt><trkpt lat="45.675498408885574" lon="9.116699362443985"><ele>250.0</ele><time>2026-04-25T09:17:16Z</time></trkpt><trkpt lat="45.675428421359356" lon="9.116745310820823"><ele>250.0</ele><time>2026-04-25T09:17:17Z</time></trkpt><trkpt lat="45.675355423760685" lon="9.116795461369536"><ele>249.99999999999997</ele><time>2026-04-25T09:17:18Z</time></trkpt><trkpt lat="45.67528616196185" lon="9.116849888375016"><ele>250.0</ele><time>2026-04-25T09:17:19Z</time></trkpt><trkpt lat="45.67521244653694" lon="9.116896601605415"><ele>250.0</ele><time>2026-04-25T09:17:20Z</time></trkpt><trkpt lat="45.675143064551506" lon="9.116945044995038"><ele>250.0</ele><time>2026-04-25T09:17:21Z</time></trkpt><trkpt lat="45.67506786563722" lon="9.117002128224092"><ele>249.99999999999997</ele><time>2026-04-25T09:17:22Z</time></trkpt><trkpt lat="45.67499090261772" lon="9.117053338928669"><ele>250.0</ele><time>2026-04-25T09:17:23Z</time></trkpt><trkpt lat="45.67491613946822" lon="9.117106968390601"><ele>249.66666666666666</ele><time>2026-04-25T09:17:24Z</time></trkpt><trkpt lat="45.67484690941391" lon="9.117159099118526"><ele>249.33333333333331</ele><time>2026-04-25T09:17:25.001Z</time></trkpt><trkpt lat="45.67477406294768" lon="9.11720802387109"><ele>249.0</ele><time>2026-04-25T09:17:26.001Z</time></trkpt><trkpt lat="45.67470260803266" lon="9.117251778039462"><ele>248.66666666666669</ele><time>2026-04-25T09:17:27Z</time></trkpt><trkpt lat="45.674625910728295" lon="9.11731286491875"><ele>248.33333333333334</ele><time>2026-04-25T09:17:28Z</time></trkpt><trkpt lat="45.67455986759021" lon="9.117364174816451"><ele>248.0</ele><time>2026-04-25T09:17:29.001Z</time></trkpt><trkpt lat="45.67448009446836" lon="9.11741831196659"><ele>247.50000000000003</ele><time>2026-04-25T09:17:30Z</time></trkpt><trkpt lat="45.67440334378464" lon="9.11747224531869"><ele>247.0</ele><time>2026-04-25T09:17:31Z</time></trkpt><trkpt lat="45.67432733052531" lon="9.117531896344088"><ele>246.5</ele><time>2026-04-25T09:17:32Z</time></trkpt><trkpt lat="45.6742490244667" lon="9.117585966046219"><ele>246.0</ele><time>2026-04-25T09:17:33Z</time></trkpt><trkpt lat="45.674170484072874" lon="9.117640564758913"><ele>245.50000000000003</ele><time>2026-04-25T09:17:34Z</time></trkpt><trkpt lat="45.67408926393892" lon="9.117694901061487"><ele>245.0</ele><time>2026-04-25T09:17:35Z</time></trkpt><trkpt lat="45.674011636640095" lon="9.11775017856461"><ele>245.00000000000003</ele><time>2026-04-25T09:17:36Z</time></trkpt><trkpt lat="45.67393578663454" lon="9.117802402821296"><ele>245.0</ele><time>2026-04-25T09:17:37Z</time></trkpt><trkpt lat="45.67386044535659" lon="9.117850354037184"><ele>245.0</ele><time>2026-04-25T09:17:38Z</time></trkpt><trkpt lat="45.67378857063324" lon="9.117901996766829"><ele>245.0</ele><time>2026-04-25T09:17:39Z</time></trkpt><trkpt lat="45.67371431795537" lon="9.117957755794745"><ele>245.00000000000003</ele><time>2026-04-25T09:17:40Z</time></trkpt><trkpt lat="45.67363940272157" lon="9.118008169095617"><ele>245.0</ele><time>2026-04-25T09:17:41Z</time></trkpt><trkpt lat="45.67356277327295" lon="9.118064804600406"><ele>244.83333333333334</ele><time>2026-04-25T09:17:42Z</time></trkpt><trkpt lat="45.673490334495334" lon="9.118125170461845"><ele>244.66666666666669</ele><time>2026-04-25T09:17:43Z</time></trkpt><trkpt lat="45.67342104257822" lon="9.118188628487514"><ele>244.5</ele><time>2026-04-25T09:17:44Z</time></trkpt><trkpt lat="45.67335373558283" lon="9.118251457750828"><ele>244.33333333333331</ele><time>2026-04-25T09:17:45Z</time></trkpt><trkpt lat="45.67328707185135" lon="9.118309820017505"><ele>244.16666666666666</ele><time>2026-04-25T09:17:46Z</time></trkpt><trkpt lat="45.67321992314864" lon="9.1183723048042"><ele>244.0</ele><time>2026-04-25T09:17:47Z</time></trkpt><trkpt lat="45.67315121894054" lon="9.118423037774566"><ele>243.99999999999997</ele><time>2026-04-25T09:17:48Z</time></trkpt><trkpt lat="45.67307771126605" lon="9.118456505904687"><ele>244.0</ele><time>2026-04-25T09:17:49Z</time></trkpt><trkpt lat="45.67299966026877" lon="9.118469528303086"><ele>244.0</ele><time>2026-04-25T09:17:50Z</time></trkpt><trkpt lat="45.67291729727571" lon="9.1184695881952"><ele>244.0</ele><time>2026-04-25T09:17:51Z</time></trkpt><trkpt lat="45.672833265826064" lon="9.118476097626214"><ele>243.99999999999997</ele><time>2026-04-25T09:17:52Z</time></trkpt><trkpt lat="45.67275742273337" lon="9.118518035277164"><ele>244.0</ele><time>2026-04-25T09:17:53Z</time></trkpt><trkpt lat="45.67269392306013" lon="9.118587650162596"><ele>244.16666666666666</ele><time>2026-04-25T09:17:54Z</time></trkpt><trkpt lat="45.67266077984753" lon="9.118689350933701"><ele>244.33333333333331</ele><time>2026-04-25T09:17:55Z</time></trkpt><trkpt lat="45.672584806773315" lon="9.118743867174814"><ele>244.5</ele><time>2026-04-25T09:17:56Z</time></trkpt><trkpt lat="45.67252084169092" lon="9.118807341153877"><ele>244.66666666666669</ele><time>2026-04-25T09:17:57Z</time></trkpt><trkpt lat="45.672452904925606" lon="9.118869407459966"><ele>244.83333333333334</ele><time>2026-04-25T09:17:58Z</time></trkpt><trkpt lat="45.672385604597494" lon="9.118922729009636"><ele>245.0</ele><time>2026-04-25T09:17:59Z</time></trkpt><trkpt lat="45.67231733504741" lon="9.118973976983296"><ele>245.00000000000003</ele><time>2026-04-25T09:18:00Z</time></trkpt><trkpt lat="45.67224728673273" lon="9.119025167642961"><ele>245.0</ele><time>2026-04-25T09:18:01Z</time></trkpt><trkpt lat="45.67217408834799" lon="9.119083731131736"><ele>245.0</ele><time>2026-04-25T09:18:02Z</time></trkpt><trkpt lat="45.67209767269013" lon="9.119137399492429"><ele>245.0</ele><time>2026-04-25T09:18:03Z</time></trkpt><trkpt lat="45.67202069465641" lon="9.119194991992334"><ele>245.00000000000003</ele><time>2026-04-25T09:18:04Z</time></trkpt><trkpt lat="45.671945519613686" lon="9.119255644966277"><ele>245.0</ele><time>2026-04-25T09:18:05Z</time></trkpt><trkpt lat="45.67186864003549" lon="9.119315486299408"><ele>244.8</ele><time>2026-04-25T09:18:06Z</time></trkpt><trkpt lat="45.6717883054211" lon="9.119373579604718"><ele>244.6</ele><time>2026-04-25T09:18:07Z</time></trkpt><trkpt lat="45.671705593102764" lon="9.119432923030978"><ele>244.39999999999998</ele><time>2026-04-25T09:18:08Z</time></trkpt><trkpt lat="45.67162217515556" lon="9.119496026689772"><ele>244.2</ele><time>2026-04-25T09:18:09Z</time></trkpt><trkpt lat="45.671541326101796" lon="9.119556803988802"><ele>244.0</ele><time>2026-04-25T09:18:10Z</time></trkpt><trkpt lat="45.67146261474101" lon="9.119615302948832"><ele>244.0</ele><time>2026-04-25T09:18:11Z</time></trkpt><trkpt lat="45.67138493408724" lon="9.119674093534279"><ele>243.99999999999997</ele><time>2026-04-25T09:18:12Z</time></trkpt><trkpt lat="45.67130812304387" lon="9.119732120470749"><ele>243.99999999999997</ele><time>2026-04-25T09:18:13Z</time></trkpt><trkpt lat="45.671228377251744" lon="9.119789648275592"><ele>244.0</ele><time>2026-04-25T09:18:14Z</time></trkpt><trkpt lat="45.67114845003508" lon="9.119852435977426"><ele>244.0</ele><time>2026-04-25T09:18:15Z</time></trkpt><trkpt lat="45.67106489870322" lon="9.119917122487985"><ele>243.79999999999998</ele><time>2026-04-25T09:18:16Z</time></trkpt><trkpt lat="45.6709781011019" lon="9.119977580236196"><ele>243.59999999999997</ele><time>2026-04-25T09:18:17Z</time></trkpt><trkpt lat="45.670893331866935" lon="9.120039877598641"><ele>243.4</ele><time>2026-04-25T09:18:18Z</time></trkpt><trkpt lat="45.67080779833231" lon="9.1200973785595"><ele>243.2</ele><time>2026-04-25T09:18:19Z</time></trkpt><trkpt lat="45.67072466158207" lon="9.120152234840736"><ele>243.0</ele><time>2026-04-25T09:18:20Z</time></trkpt><trkpt lat="45.67063808467158" lon="9.120205171488124"><ele>243.0</ele><time>2026-04-25T09:18:21Z</time></trkpt><trkpt lat="45.670550916507736" lon="9.120263198922297"><ele>243.0</ele><time>2026-04-25T09:18:22Z</time></trkpt><trkpt lat="45.67046489685855" lon="9.120319071899603"><ele>243.0</ele><time>2026-04-25T09:18:23Z</time></trkpt><trkpt lat="45.67037963491312" lon="9.120375443790946"><ele>243.0</ele><time>2026-04-25T09:18:24Z</time></trkpt><trkpt lat="45.67029175605882" lon="9.120430520536331"><ele>243.0</ele><time>2026-04-25T09:18:25Z</time></trkpt><trkpt lat="45.67020498750264" lon="9.120477203855684"><ele>243.0</ele><time>2026-04-25T09:18:26Z</time></trkpt><trkpt lat="45.6701192625494" lon="9.12052606610214"><ele>243.0</ele><time>2026-04-25T09:18:27Z</time></trkpt><trkpt lat="45.670036060278974" lon="9.12057502348609"><ele>243.0</ele><time>2026-04-25T09:18:28Z</time></trkpt><trkpt lat="45.66995267487677" lon="9.120627046478607"><ele>243.0</ele><time>2026-04-25T09:18:29Z</time></trkpt><trkpt lat="45.66986973973726" lon="9.120681959061736"><ele>243.0</ele><time>2026-04-25T09:18:30Z</time></trkpt><trkpt lat="45.66978904713784" lon="9.120736996999874"><ele>243.0</ele><time>2026-04-25T09:18:31Z</time></trkpt><trkpt lat="45.669706973710966" lon="9.12078401440976"><ele>243.0</ele><time>2026-04-25T09:18:32Z</time></trkpt><trkpt lat="45.669623450380236" lon="9.12083396559061"><ele>243.0</ele><time>2026-04-25T09:18:33Z</time></trkpt><trkpt lat="45.669538985989774" lon="9.120882561798236"><ele>243.0</ele><time>2026-04-25T09:18:34Z</time></trkpt><trkpt lat="45.669454540845926" lon="9.120934235659897"><ele>243.0</ele><time>2026-04-25T09:18:35Z</time></trkpt><trkpt lat="45.66937276382824" lon="9.120984299781433"><ele>242.57142857142856</ele><time>2026-04-25T09:18:36Z</time></trkpt><trkpt lat="45.66929424196145" lon="9.121031364664137"><ele>242.14285714285717</ele><time>2026-04-25T09:18:37Z</time></trkpt><trkpt lat="45.669222490806966" lon="9.121071691546572"><ele>241.71428571428572</ele><time>2026-04-25T09:18:38Z</time></trkpt><trkpt lat="45.669153696211744" lon="9.121110178256629"><ele>241.28571428571428</ele><time>2026-04-25T09:18:39Z</time></trkpt><trkpt lat="45.66909007451808" lon="9.121148273743655"><ele>240.85714285714283</ele><time>2026-04-25T09:18:40Z</time></trkpt><trkpt lat="45.66902425426991" lon="9.121185192881184"><ele>240.42857142857144</ele><time>2026-04-25T09:18:41Z</time></trkpt><trkpt lat="45.66896150646146" lon="9.12122189698182"><ele>240.0</ele><time>2026-04-25T09:18:42Z</time></trkpt><trkpt lat="45.66889880089778" lon="9.12125676631206"><ele>240.0</ele><time>2026-04-25T09:18:43Z</time></trkpt><trkpt lat="45.6688359917533" lon="9.12129061651223"><ele>240.0</ele><time>2026-04-25T09:18:44Z</time></trkpt><trkpt lat="45.66877244653855" lon="9.121327850352337"><ele>240.0</ele><time>2026-04-25T09:18:45Z</time></trkpt><trkpt lat="45.66870462954656" lon="9.12136937799858"><ele>240.0</ele><time>2026-04-25T09:18:46Z</time></trkpt><trkpt lat="45.66863647368242" lon="9.121414031379642"><ele>240.0</ele><time>2026-04-25T09:18:47Z</time></trkpt><trkpt lat="45.668563463482904" lon="9.121455899261795"><ele>240.0</ele><time>2026-04-25T09:18:48Z</time></trkpt><trkpt lat="45.66848921170197" lon="9.121495239873356"><ele>240.0</ele><time>2026-04-25T09:18:49Z</time></trkpt><trkpt lat="45.668414640977794" lon="9.121534222041545"><ele>239.83333333333334</ele><time>2026-04-25T09:18:50Z</time></trkpt><trkpt lat="45.668337324437026" lon="9.121576971919906"><ele>239.66666666666669</ele><time>2026-04-25T09:18:51Z</time></trkpt><trkpt lat="45.668260056310594" lon="9.121622118427974"><ele>239.5</ele><time>2026-04-25T09:18:52Z</time></trkpt><trkpt lat="45.66818309637654" lon="9.121660190650072"><ele>239.33333333333334</ele><time>2026-04-25T09:18:53Z</time></trkpt><trkpt lat="45.66810746636537" lon="9.121694984689942"><ele>239.16666666666669</ele><time>2026-04-25T09:18:54Z</time></trkpt><trkpt lat="45.66803056121341" lon="9.121726331986597"><ele>239.0</ele><time>2026-04-25T09:18:55Z</time></trkpt><trkpt lat="45.667951709776155" lon="9.121761702599489"><ele>239.00000000000003</ele><time>2026-04-25T09:18:56Z</time></trkpt><trkpt lat="45.66787174696401" lon="9.121799674784329"><ele>239.0</ele><time>2026-04-25T09:18:57Z</time></trkpt><trkpt lat="45.66779022431153" lon="9.121839560463872"><ele>239.0</ele><time>2026-04-25T09:18:58Z</time></trkpt><trkpt lat="45.66770762736369" lon="9.121881075198603"><ele>239.0</ele><time>2026-04-25T09:18:59Z</time></trkpt><trkpt lat="45.66762330143873" lon="9.12192284411795"><ele>239.00000000000003</ele><time>2026-04-25T09:19:00Z</time></trkpt><trkpt lat="45.66754000857127" lon="9.121965284478406"><ele>239.0</ele><time>2026-04-25T09:19:01Z</time></trkpt><trkpt lat="45.66745808885844" lon="9.122009070937358"><ele>239.39999999999998</ele><time>2026-04-25T09:19:02Z</time></trkpt><trkpt lat="45.66737464449826" lon="9.12204559101579"><ele>239.79999999999998</ele><time>2026-04-25T09:19:03Z</time></trkpt><trkpt lat="45.66728599823071" lon="9.122084624595589"><ele>240.20000000000002</ele><time>2026-04-25T09:19:04Z</time></trkpt><trkpt lat="45.66719753335577" lon="9.122127364209973"><ele>240.60000000000002</ele><time>2026-04-25T09:19:05Z</time></trkpt><trkpt lat="45.6671110909388" lon="9.122174469455103"><ele>241.0</ele><time>2026-04-25T09:19:06Z</time></trkpt><trkpt lat="45.66702168152624" lon="9.122223849592709"><ele>241.0</ele><time>2026-04-25T09:19:07Z</time></trkpt><trkpt lat="45.66693260675675" lon="9.12227278220077"><ele>241.00000000000003</ele><time>2026-04-25T09:19:08Z</time></trkpt><trkpt lat="45.6668418421316" lon="9.122319708371547"><ele>241.00000000000003</ele><time>2026-04-25T09:19:09Z</time></trkpt><trkpt lat="45.66675087795878" lon="9.122361032810186"><ele>241.0</ele><time>2026-04-25T09:19:10Z</time></trkpt><trkpt lat="45.6666610357594" lon="9.122402539757834"><ele>241.0</ele><time>2026-04-25T09:19:11Z</time></trkpt><trkpt lat="45.666573412547386" lon="9.122441931888389"><ele>241.0</ele><time>2026-04-25T09:19:12Z</time></trkpt><trkpt lat="45.66648719942867" lon="9.122481420170276"><ele>241.00000000000003</ele><time>2026-04-25T09:19:13Z</time></trkpt><trkpt lat="45.666403206104825" lon="9.122513207630929"><ele>241.00000000000003</ele><time>2026-04-25T09:19:14Z</time></trkpt><trkpt lat="45.66631444381092" lon="9.122555681386016"><ele>241.0</ele><time>2026-04-25T09:19:15Z</time></trkpt><trkpt lat="45.66622259305468" lon="9.122595836113797"><ele>241.0</ele><time>2026-04-25T09:19:16Z</time></trkpt><trkpt lat="45.6661304954163" lon="9.122645965082176"><ele>239.8</ele><time>2026-04-25T09:19:17Z</time></trkpt><trkpt lat="45.66603883070032" lon="9.122695166468082"><ele>238.60000000000002</ele><time>2026-04-25T09:19:18Z</time></trkpt><trkpt lat="45.66594266307438" lon="9.122739017781972"><ele>237.4</ele><time>2026-04-25T09:19:19Z</time></trkpt><trkpt lat="45.66584654375104" lon="9.122787396913159"><ele>236.2</ele><time>2026-04-25T09:19:20Z</time></trkpt><trkpt lat="45.66575546494158" lon="9.12283268533437"><ele>235.0</ele><time>2026-04-25T09:19:21Z</time></trkpt><trkpt lat="45.6656651637753" lon="9.122876802193218"><ele>235.0</ele><time>2026-04-25T09:19:22Z</time></trkpt><trkpt lat="45.665573256884166" lon="9.122918432630563"><ele>235.0</ele><time>2026-04-25T09:19:23Z</time></trkpt><trkpt lat="45.66548234903162" lon="9.122965037850017"><ele>235.0</ele><time>2026-04-25T09:19:24Z</time></trkpt><trkpt lat="45.665394484398455" lon="9.123013097306185"><ele>235.0</ele><time>2026-04-25T09:19:25Z</time></trkpt><trkpt lat="45.66530890907143" lon="9.123062859723646"><ele>235.0</ele><time>2026-04-25T09:19:26Z</time></trkpt><trkpt lat="45.66522603049097" lon="9.123110367055833"><ele>234.99999999999997</ele><time>2026-04-25T09:19:27Z</time></trkpt><trkpt lat="45.66514311113826" lon="9.123156592342248"><ele>235.0</ele><time>2026-04-25T09:19:28Z</time></trkpt><trkpt lat="45.66506108163009" lon="9.123201939387439"><ele>235.0</ele><time>2026-04-25T09:19:29Z</time></trkpt><trkpt lat="45.664981922767076" lon="9.123250838383813"><ele>235.0</ele><time>2026-04-25T09:19:30Z</time></trkpt><trkpt lat="45.664902870189344" lon="9.12329379196818"><ele>234.99999999999997</ele><time>2026-04-25T09:19:31Z</time></trkpt><trkpt lat="45.66482178463238" lon="9.123338389373844"><ele>235.0</ele><time>2026-04-25T09:19:32Z</time></trkpt><trkpt lat="45.66474154135464" lon="9.123385262100633"><ele>234.99999999999997</ele><time>2026-04-25T09:19:33Z</time></trkpt><trkpt lat="45.664664306061844" lon="9.12343340197795"><ele>235.0</ele><time>2026-04-25T09:19:34Z</time></trkpt><trkpt lat="45.66458603546373" lon="9.12348056367269"><ele>235.0</ele><time>2026-04-25T09:19:35Z</time></trkpt><trkpt lat="45.664508040971974" lon="9.12353261207852"><ele>235.0</ele><time>2026-04-25T09:19:36Z</time></trkpt><trkpt lat="45.66443334742327" lon="9.123587460668332"><ele>234.99999999999997</ele><time>2026-04-25T09:19:37Z</time></trkpt><trkpt lat="45.66435773006243" lon="9.123642253012727"><ele>235.0</ele><time>2026-04-25T09:19:38Z</time></trkpt><trkpt lat="45.6642776701347" lon="9.123700883661646"><ele>235.2</ele><time>2026-04-25T09:19:39Z</time></trkpt><trkpt lat="45.66419560658738" lon="9.123754597199584"><ele>235.4</ele><time>2026-04-25T09:19:40Z</time></trkpt><trkpt lat="45.6641150115071" lon="9.123806216046308"><ele>235.60000000000002</ele><time>2026-04-25T09:19:41Z</time></trkpt><trkpt lat="45.664034238119136" lon="9.123860004630917"><ele>235.8</ele><time>2026-04-25T09:19:42Z</time></trkpt><trkpt lat="45.66395135347484" lon="9.123919718453871"><ele>236.0</ele><time>2026-04-25T09:19:43Z</time></trkpt><trkpt lat="45.66387026081971" lon="9.12397881087425"><ele>236.0</ele><time>2026-04-25T09:19:44Z</time></trkpt><trkpt lat="45.66378708768034" lon="9.124034002486246"><ele>236.00000000000003</ele><time>2026-04-25T09:19:45Z</time></trkpt><trkpt lat="45.66370147531123" lon="9.124092079438219"><ele>236.00000000000003</ele><time>2026-04-25T09:19:46Z</time></trkpt><trkpt lat="45.66361316476475" lon="9.124152485886546"><ele>236.0</ele><time>2026-04-25T09:19:47Z</time></trkpt><trkpt lat="45.66352536887434" lon="9.124210703846124"><ele>236.0</ele><time>2026-04-25T09:19:48Z</time></trkpt><trkpt lat="45.663438558197505" lon="9.124268140435301"><ele>236.0</ele><time>2026-04-25T09:19:49Z</time></trkpt><trkpt lat="45.66335425705439" lon="9.124322601045879"><ele>236.00000000000003</ele><time>2026-04-25T09:19:50Z</time></trkpt><trkpt lat="45.663267691030164" lon="9.12437726723997"><ele>236.00000000000003</ele><time>2026-04-25T09:19:51Z</time></trkpt><trkpt lat="45.66318186427067" lon="9.124429356166631"><ele>236.0</ele><time>2026-04-25T09:19:52Z</time></trkpt><trkpt lat="45.663095393298875" lon="9.124481710472207"><ele>236.0</ele><time>2026-04-25T09:19:53Z</time></trkpt><trkpt lat="45.66300769039416" lon="9.12454547403672"><ele>236.0</ele><time>2026-04-25T09:19:54Z</time></trkpt><trkpt lat="45.66291950045869" lon="9.124614054082715"><ele>236.00000000000003</ele><time>2026-04-25T09:19:55Z</time></trkpt><trkpt lat="45.662831889016815" lon="9.12466479616279"><ele>236.00000000000003</ele><time>2026-04-25T09:19:56Z</time></trkpt><trkpt lat="45.662744539599025" lon="9.124718327344077"><ele>236.0</ele><time>2026-04-25T09:19:57Z</time></trkpt><trkpt lat="45.662655065976175" lon="9.124773804447127"><ele>236.0</ele><time>2026-04-25T09:19:58Z</time></trkpt><trkpt lat="45.66256704185559" lon="9.124837417044986"><ele>236.0</ele><time>2026-04-25T09:19:59Z</time></trkpt><trkpt lat="45.66247659794134" lon="9.124898184749538"><ele>236.00000000000003</ele><time>2026-04-25T09:20:00Z</time></trkpt><trkpt lat="45.66238839822445" lon="9.12496246702213"><ele>236.00000000000003</ele><time>2026-04-25T09:20:01Z</time></trkpt><trkpt lat="45.6622962033817" lon="9.125020834813446"><ele>236.0</ele><time>2026-04-25T09:20:02Z</time></trkpt><trkpt lat="45.662208015518495" lon="9.125076951687998"><ele>236.0</ele><time>2026-04-25T09:20:03Z</time></trkpt><trkpt lat="45.6621206447236" lon="9.125135262130224"><ele>236.0</ele><time>2026-04-25T09:20:04Z</time></trkpt><trkpt lat="45.66203337123389" lon="9.125195551068257"><ele>236.00000000000003</ele><time>2026-04-25T09:20:05Z</time></trkpt><trkpt lat="45.66194343807489" lon="9.125250654256465"><ele>236.00000000000003</ele><time>2026-04-25T09:20:06Z</time></trkpt><trkpt lat="45.66185332489587" lon="9.125308381154419"><ele>236.0</ele><time>2026-04-25T09:20:07Z</time></trkpt><trkpt lat="45.66176288307394" lon="9.125366861759291"><ele>236.0</ele><time>2026-04-25T09:20:08Z</time></trkpt><trkpt lat="45.66167375980013" lon="9.125427779789199"><ele>235.8</ele><time>2026-04-25T09:20:09Z</time></trkpt><trkpt lat="45.661581011484174" lon="9.125489511270885"><ele>235.60000000000002</ele><time>2026-04-25T09:20:10Z</time></trkpt><trkpt lat="45.661488222037974" lon="9.125550117302383"><ele>235.4</ele><time>2026-04-25T09:20:11Z</time></trkpt><trkpt lat="45.66139488256419" lon="9.1256095262885"><ele>235.2</ele><time>2026-04-25T09:20:12Z</time></trkpt><trkpt lat="45.661303198251936" lon="9.12567189364652"><ele>235.0</ele><time>2026-04-25T09:20:13Z</time></trkpt><trkpt lat="45.66121374009535" lon="9.125731427905887"><ele>235.0</ele><time>2026-04-25T09:20:14Z</time></trkpt><trkpt lat="45.661124112917335" lon="9.125789438585953"><ele>235.0</ele><time>2026-04-25T09:20:15Z</time></trkpt><trkpt lat="45.66103603907764" lon="9.125845634782841"><ele>235.0</ele><time>2026-04-25T09:20:16Z</time></trkpt><trkpt lat="45.66094862592925" lon="9.125903190293052"><ele>235.0</ele><time>2026-04-25T09:20:17Z</time></trkpt><trkpt lat="45.66086234776717" lon="9.125957845528772"><ele>235.0</ele><time>2026-04-25T09:20:18Z</time></trkpt><trkpt lat="45.66077803083231" lon="9.126014981860871"><ele>234.2</ele><time>2026-04-25T09:20:19Z</time></trkpt><trkpt lat="45.66069443408269" lon="9.126073339730251"><ele>233.4</ele><time>2026-04-25T09:20:20Z</time></trkpt><trkpt lat="45.660608033233494" lon="9.126132493999332"><ele>232.60000000000002</ele><time>2026-04-25T09:20:21Z</time></trkpt><trkpt lat="45.66052256483273" lon="9.126194753513708"><ele>231.8</ele><time>2026-04-25T09:20:22Z</time></trkpt><trkpt lat="45.660435726308165" lon="9.126261050098483"><ele>231.0</ele><time>2026-04-25T09:20:23Z</time></trkpt><trkpt lat="45.66034505295236" lon="9.126312628123125"><ele>231.4</ele><time>2026-04-25T09:20:24Z</time></trkpt><trkpt lat="45.66025288366461" lon="9.126366552400818"><ele>231.8</ele><time>2026-04-25T09:20:25Z</time></trkpt><trkpt lat="45.660165230187395" lon="9.126422432547255"><ele>232.20000000000002</ele><time>2026-04-25T09:20:26Z</time></trkpt><trkpt lat="45.6600807739835" lon="9.126481568868273"><ele>232.60000000000002</ele><time>2026-04-25T09:20:27Z</time></trkpt><trkpt lat="45.65999727021921" lon="9.126538911546648"><ele>233.0</ele><time>2026-04-25T09:20:27.999Z</time></trkpt><trkpt lat="45.65991593455742" lon="9.126593878123003"><ele>233.16666666666669</ele><time>2026-04-25T09:20:28.999Z</time></trkpt><trkpt lat="45.65983699870576" lon="9.126651064528895"><ele>233.33333333333334</ele><time>2026-04-25T09:20:29.999Z</time></trkpt><trkpt lat="45.65975561789024" lon="9.126707730313708"><ele>233.5</ele><time>2026-04-25T09:20:30.999Z</time></trkpt><trkpt lat="45.65967542646952" lon="9.126761287520177"><ele>233.66666666666669</ele><time>2026-04-25T09:20:31.999Z</time></trkpt><trkpt lat="45.65960658502766" lon="9.126817550231062"><ele>233.83333333333334</ele><time>2026-04-25T09:20:32.999Z</time></trkpt><trkpt lat="45.6595388968581" lon="9.126866622166768"><ele>234.0</ele><time>2026-04-25T09:20:33.999Z</time></trkpt><trkpt lat="45.65947280268701" lon="9.126911364454275"><ele>234.0</ele><time>2026-04-25T09:20:34.999Z</time></trkpt><trkpt lat="45.65940901808247" lon="9.126958711789866"><ele>234.00000000000003</ele><time>2026-04-25T09:20:35.999Z</time></trkpt><trkpt lat="45.65933725085343" lon="9.126981879871584"><ele>234.0</ele><time>2026-04-25T09:20:36.999Z</time></trkpt><trkpt lat="45.65927210717982" lon="9.127024567292288"><ele>234.0</ele><time>2026-04-25T09:20:37.999Z</time></trkpt><trkpt lat="45.659207023532886" lon="9.127067215460178"><ele>234.00000000000003</ele><time>2026-04-25T09:20:38.999Z</time></trkpt><trkpt lat="45.65914309900631" lon="9.127109104560043"><ele>234.0</ele><time>2026-04-25T09:20:39.999Z</time></trkpt><trkpt lat="45.65907919389067" lon="9.127161222186745"><ele>234.0</ele><time>2026-04-25T09:20:40.999Z</time></trkpt><trkpt lat="45.659010482357075" lon="9.12720117069513"><ele>234.0</ele><time>2026-04-25T09:20:41.999Z</time></trkpt><trkpt lat="45.658945169498395" lon="9.127245194565504"><ele>234.0</ele><time>2026-04-25T09:20:42.999Z</time></trkpt><trkpt lat="45.658880485443504" lon="9.127290544354958"><ele>234.0</ele><time>2026-04-25T09:20:43.999Z</time></trkpt><trkpt lat="45.65881901147747" lon="9.12732955695979"><ele>234.0</ele><time>2026-04-25T09:20:44.999Z</time></trkpt><trkpt lat="45.6587176298461" lon="9.12739208042261"><ele>234.0</ele><time>2026-04-25T09:20:46.999Z</time></trkpt><trkpt lat="45.65864369777495" lon="9.127450838340025"><ele>234.0</ele><time>2026-04-25T09:20:48.999Z</time></trkpt><trkpt lat="45.65857848199144" lon="9.12747608360166"><ele>233.83333333333334</ele><time>2026-04-25T09:20:50.999Z</time></trkpt><trkpt lat="45.65850878427464" lon="9.127521637313652"><ele>233.66666666666669</ele><time>2026-04-25T09:20:53.999Z</time></trkpt><trkpt lat="45.65848147473512" lon="9.127605623798043"><ele>233.5</ele><time>2026-04-25T09:21:27.999Z</time></trkpt><trkpt lat="45.65840254501212" lon="9.127649967447432"><ele>233.33333333333334</ele><time>2026-04-25T09:21:30.999Z</time></trkpt><trkpt lat="45.658316310320735" lon="9.12770222902638"><ele>233.16666666666669</ele><time>2026-04-25T09:21:32.999Z</time></trkpt><trkpt lat="45.658206820739814" lon="9.127779418614674"><ele>233.0</ele><time>2026-04-25T09:21:34.999Z</time></trkpt><trkpt lat="45.65812615821747" lon="9.127773023504211"><ele>233.00000000000003</ele><time>2026-04-25T09:21:36Z</time></trkpt><trkpt lat="45.65805628995414" lon="9.1278180964854"><ele>233.0</ele><time>2026-04-25T09:21:37Z</time></trkpt><trkpt lat="45.65798343739005" lon="9.127863754345839"><ele>233.0</ele><time>2026-04-25T09:21:38Z</time></trkpt><trkpt lat="45.65791410817726" lon="9.1279072040541"><ele>233.0</ele><time>2026-04-25T09:21:39Z</time></trkpt><trkpt lat="45.65784380614291" lon="9.12795126346461"><ele>233.00000000000003</ele><time>2026-04-25T09:21:40Z</time></trkpt><trkpt lat="45.65777181141679" lon="9.127996383675377"><ele>233.0</ele><time>2026-04-25T09:21:41Z</time></trkpt><trkpt lat="45.65769680650138" lon="9.128043390539037"><ele>232.83333333333334</ele><time>2026-04-25T09:21:42Z</time></trkpt><trkpt lat="45.657622251388744" lon="9.128093547719475"><ele>232.66666666666669</ele><time>2026-04-25T09:21:43Z</time></trkpt><trkpt lat="45.65755311244034" lon="9.128139828130234"><ele>232.5</ele><time>2026-04-25T09:21:44Z</time></trkpt><trkpt lat="45.657479389994606" lon="9.128189620212476"><ele>232.33333333333331</ele><time>2026-04-25T09:21:45Z</time></trkpt><trkpt lat="45.657402711448924" lon="9.128241710503026"><ele>232.16666666666666</ele><time>2026-04-25T09:21:46Z</time></trkpt><trkpt lat="45.65732492002788" lon="9.12829355843417"><ele>232.0</ele><time>2026-04-25T09:21:47Z</time></trkpt><trkpt lat="45.65724670547627" lon="9.128344600797899"><ele>231.83333333333331</ele><time>2026-04-25T09:21:48Z</time></trkpt><trkpt lat="45.65717144057522" lon="9.128393718228335"><ele>231.66666666666666</ele><time>2026-04-25T09:21:49Z</time></trkpt><trkpt lat="45.65709868634317" lon="9.128441197233514"><ele>231.5</ele><time>2026-04-25T09:21:50Z</time></trkpt><trkpt lat="45.657020842853214" lon="9.12849170356192"><ele>231.33333333333331</ele><time>2026-04-25T09:21:51Z</time></trkpt><trkpt lat="45.656941317773196" lon="9.128542853820408"><ele>231.16666666666666</ele><time>2026-04-25T09:21:52Z</time></trkpt><trkpt lat="45.656860013389874" lon="9.128595148521255"><ele>231.0</ele><time>2026-04-25T09:21:52.999Z</time></trkpt><trkpt lat="45.65678110300508" lon="9.128645161678492"><ele>231.0</ele><time>2026-04-25T09:21:53.999Z</time></trkpt><trkpt lat="45.65669924561477" lon="9.128696280286857"><ele>231.00000000000003</ele><time>2026-04-25T09:21:54.999Z</time></trkpt><trkpt lat="45.65661750634232" lon="9.128747325124928"><ele>231.00000000000003</ele><time>2026-04-25T09:21:55.999Z</time></trkpt><trkpt lat="45.65653263419652" lon="9.128800762806547"><ele>231.0</ele><time>2026-04-25T09:21:56.999Z</time></trkpt><trkpt lat="45.65645025628993" lon="9.12885385561434"><ele>231.0</ele><time>2026-04-25T09:21:57.999Z</time></trkpt><trkpt lat="45.65636949193817" lon="9.128905908787907"><ele>231.0</ele><time>2026-04-25T09:21:58.999Z</time></trkpt><trkpt lat="45.65628387959371" lon="9.1289613261586"><ele>231.00000000000003</ele><time>2026-04-25T09:21:59.999Z</time></trkpt><trkpt lat="45.65620072100641" lon="9.129015427737704"><ele>231.00000000000003</ele><time>2026-04-25T09:22:00.999Z</time></trkpt><trkpt lat="45.65611977403458" lon="9.12906835460706"><ele>231.0</ele><time>2026-04-25T09:22:01.999Z</time></trkpt><trkpt lat="45.656037308562894" lon="9.129122274336732"><ele>231.0</ele><time>2026-04-25T09:22:02.999Z</time></trkpt><trkpt lat="45.65595283531587" lon="9.129177506854974"><ele>231.0</ele><time>2026-04-25T09:22:03.999Z</time></trkpt><trkpt lat="45.65586760759326" lon="9.129233232664285"><ele>231.00000000000003</ele><time>2026-04-25T09:22:04.999Z</time></trkpt><trkpt lat="45.65578208286118" lon="9.129289256414554"><ele>231.00000000000003</ele><time>2026-04-25T09:22:05.999Z</time></trkpt><trkpt lat="45.65569408614689" lon="9.129347315696554"><ele>231.0</ele><time>2026-04-25T09:22:06.999Z</time></trkpt><trkpt lat="45.65560989629659" lon="9.129402863262847"><ele>231.0</ele><time>2026-04-25T09:22:07.999Z</time></trkpt><trkpt lat="45.65552314080025" lon="9.129460103068743"><ele>231.0</ele><time>2026-04-25T09:22:08.999Z</time></trkpt><trkpt lat="45.65543628770846" lon="9.129520273801315"><ele>231.0</ele><time>2026-04-25T09:22:09.999Z</time></trkpt><trkpt lat="45.65535420950695" lon="9.129576164880573"><ele>231.0</ele><time>2026-04-25T09:22:10.999Z</time></trkpt><trkpt lat="45.6552730036323" lon="9.129630269696243"><ele>231.0</ele><time>2026-04-25T09:22:11.999Z</time></trkpt><trkpt lat="45.65519448394987" lon="9.12968107047848"><ele>231.0</ele><time>2026-04-25T09:22:12.999Z</time></trkpt><trkpt lat="45.65511932379548" lon="9.12972944266686"><ele>231.0</ele><time>2026-04-25T09:22:13.999Z</time></trkpt><trkpt lat="45.65503916312791" lon="9.129780399713676"><ele>230.83333333333334</ele><time>2026-04-25T09:22:14.999Z</time></trkpt><trkpt lat="45.654967974166986" lon="9.129825965261178"><ele>230.66666666666669</ele><time>2026-04-25T09:22:15.999Z</time></trkpt><trkpt lat="45.654897906571094" lon="9.129870163513925"><ele>230.5</ele><time>2026-04-25T09:22:16.999Z</time></trkpt><trkpt lat="45.65484629439119" lon="9.129969416329418"><ele>230.33333333333334</ele><time>2026-04-25T09:22:17.999Z</time></trkpt><trkpt lat="45.654779458747576" lon="9.130016526930493"><ele>230.16666666666669</ele><time>2026-04-25T09:22:18.999Z</time></trkpt><trkpt lat="45.65471137380505" lon="9.1300558454569"><ele>230.0</ele><time>2026-04-25T09:22:19.999Z</time></trkpt><trkpt lat="45.65464403690409" lon="9.130093822935056"><ele>229.83333333333334</ele><time>2026-04-25T09:22:20.999Z</time></trkpt><trkpt lat="45.65457616604538" lon="9.130133990226339"><ele>229.66666666666669</ele><time>2026-04-25T09:22:21.999Z</time></trkpt><trkpt lat="45.65449183844349" lon="9.130127011359118"><ele>229.5</ele><time>2026-04-25T09:22:22.999Z</time></trkpt><trkpt lat="45.654423451367784" lon="9.130170692242624"><ele>229.33333333333331</ele><time>2026-04-25T09:22:23.999Z</time></trkpt><trkpt lat="45.65435162796656" lon="9.130214625499804"><ele>229.16666666666666</ele><time>2026-04-25T09:22:24.999Z</time></trkpt><trkpt lat="45.65427520565744" lon="9.130259744555817"><ele>229.0</ele><time>2026-04-25T09:22:25.999Z</time></trkpt><trkpt lat="45.65420149890814" lon="9.130303261203046"><ele>228.83333333333331</ele><time>2026-04-25T09:22:26.999Z</time></trkpt><trkpt lat="45.65413460923545" lon="9.13034282453386"><ele>228.66666666666666</ele><time>2026-04-25T09:22:27.999Z</time></trkpt><trkpt lat="45.65406737973684" lon="9.130385460166066"><ele>228.5</ele><time>2026-04-25T09:22:28.999Z</time></trkpt><trkpt lat="45.65399159434033" lon="9.130434494294448"><ele>228.33333333333331</ele><time>2026-04-25T09:22:29.999Z</time></trkpt><trkpt lat="45.65391533637669" lon="9.130485081635905"><ele>228.16666666666666</ele><time>2026-04-25T09:22:30.999Z</time></trkpt><trkpt lat="45.653837173620346" lon="9.130536932577986"><ele>228.0</ele><time>2026-04-25T09:22:31.999Z</time></trkpt><trkpt lat="45.65375830114413" lon="9.130590643263945"><ele>228.0</ele><time>2026-04-25T09:22:32.999Z</time></trkpt><trkpt lat="45.65367932435024" lon="9.130644512633216"><ele>228.0</ele><time>2026-04-25T09:22:33.999Z</time></trkpt><trkpt lat="45.65360126803452" lon="9.130697754139495"><ele>228.0</ele><time>2026-04-25T09:22:34.999Z</time></trkpt><trkpt lat="45.65352057051844" lon="9.1307527976321"><ele>228.0</ele><time>2026-04-25T09:22:35.999Z</time></trkpt><trkpt lat="45.65343587594382" lon="9.13081004018408"><ele>228.0</ele><time>2026-04-25T09:22:36.999Z</time></trkpt><trkpt lat="45.653351139019804" lon="9.130867445327022"><ele>227.8</ele><time>2026-04-25T09:22:37.999Z</time></trkpt><trkpt lat="45.65326982394083" lon="9.130922532321623"><ele>227.60000000000002</ele><time>2026-04-25T09:22:38.999Z</time></trkpt><trkpt lat="45.65318891273699" lon="9.130975676277867"><ele>227.39999999999998</ele><time>2026-04-25T09:22:39.999Z</time></trkpt><trkpt lat="45.653106091736966" lon="9.131029386002906"><ele>227.2</ele><time>2026-04-25T09:22:40.999Z</time></trkpt><trkpt lat="45.653021452512725" lon="9.131084274825998"><ele>227.0</ele><time>2026-04-25T09:22:41.999Z</time></trkpt><trkpt lat="45.65293758312029" lon="9.131138423043591"><ele>227.0</ele><time>2026-04-25T09:22:42.999Z</time></trkpt><trkpt lat="45.65285478743284" lon="9.131191704674496"><ele>227.0</ele><time>2026-04-25T09:22:43.999Z</time></trkpt><trkpt lat="45.65277475343401" lon="9.13124320908085"><ele>227.0</ele><time>2026-04-25T09:22:44.999Z</time></trkpt><trkpt lat="45.65269428035074" lon="9.131294996038898"><ele>227.0</ele><time>2026-04-25T09:22:45.999Z</time></trkpt><trkpt lat="45.652618115208924" lon="9.131371758760409"><ele>227.0</ele><time>2026-04-25T09:22:46.999Z</time></trkpt><trkpt lat="45.65253582388727" lon="9.131424272217812"><ele>227.00000000000003</ele><time>2026-04-25T09:22:47.999Z</time></trkpt><trkpt lat="45.65245463037936" lon="9.131473546868747"><ele>227.0</ele><time>2026-04-25T09:22:48.999Z</time></trkpt><trkpt lat="45.65237574375862" lon="9.13152219041065"><ele>227.0</ele><time>2026-04-25T09:22:49.999Z</time></trkpt><trkpt lat="45.65229827727773" lon="9.131571695317444"><ele>227.0</ele><time>2026-04-25T09:22:50.999Z</time></trkpt><trkpt lat="45.6522228733471" lon="9.131621309461865"><ele>227.00000000000003</ele><time>2026-04-25T09:22:51.999Z</time></trkpt><trkpt lat="45.652148774247195" lon="9.131662310745638"><ele>227.0</ele><time>2026-04-25T09:22:52.999Z</time></trkpt><trkpt lat="45.652077543226234" lon="9.131695734565765"><ele>227.0</ele><time>2026-04-25T09:22:53.999Z</time></trkpt><trkpt lat="45.652009595291545" lon="9.131732499251132"><ele>227.00000000000003</ele><time>2026-04-25T09:22:54.999Z</time></trkpt><trkpt lat="45.6519412509349" lon="9.131767877164247"><ele>227.0</ele><time>2026-04-25T09:22:55.999Z</time></trkpt><trkpt lat="45.651871052937864" lon="9.13177824561929"><ele>227.0</ele><time>2026-04-25T09:22:56.999Z</time></trkpt><trkpt lat="45.65179508796711" lon="9.131770885707617"><ele>227.00000000000003</ele><time>2026-04-25T09:22:57.999Z</time></trkpt><trkpt lat="45.65172063896226" lon="9.13178100981769"><ele>227.0</ele><time>2026-04-25T09:22:58.999Z</time></trkpt><trkpt lat="45.65165879958961" lon="9.131840977785682"><ele>227.0</ele><time>2026-04-25T09:22:59.999Z</time></trkpt><trkpt lat="45.65160491655209" lon="9.131930096871004"><ele>226.6</ele><time>2026-04-25T09:23:00.999Z</time></trkpt><trkpt lat="45.65155044225839" lon="9.132030399342318"><ele>226.2</ele><time>2026-04-25T09:23:01.999Z</time></trkpt><trkpt lat="45.65147069188047" lon="9.132077396927794"><ele>225.8</ele><time>2026-04-25T09:23:02.999Z</time></trkpt><trkpt lat="45.65138839086557" lon="9.132137371351504"><ele>225.4</ele><time>2026-04-25T09:23:03.999Z</time></trkpt><trkpt lat="45.651306125134255" lon="9.132192732787965"><ele>225.0</ele><time>2026-04-25T09:23:04.999Z</time></trkpt><trkpt lat="45.65122978496819" lon="9.13226539096066"><ele>225.0</ele><time>2026-04-25T09:23:05.999Z</time></trkpt><trkpt lat="45.6511425743448" lon="9.132308167480245"><ele>225.0</ele><time>2026-04-25T09:23:06.999Z</time></trkpt><trkpt lat="45.65105380249092" lon="9.13235811289247"><ele>225.0</ele><time>2026-04-25T09:23:07.999Z</time></trkpt><trkpt lat="45.65096535123464" lon="9.132417174140857"><ele>225.0</ele><time>2026-04-25T09:23:08.999Z</time></trkpt><trkpt lat="45.650877536338534" lon="9.13247894891288"><ele>225.0</ele><time>2026-04-25T09:23:09.999Z</time></trkpt><trkpt lat="45.6507878920736" lon="9.132541799384997"><ele>224.6</ele><time>2026-04-25T09:23:10.999Z</time></trkpt><trkpt lat="45.65069597618875" lon="9.13260002919887"><ele>224.2</ele><time>2026-04-25T09:23:11.999Z</time></trkpt><trkpt lat="45.65060448605856" lon="9.132657820866372"><ele>223.8</ele><time>2026-04-25T09:23:12.999Z</time></trkpt><trkpt lat="45.650510589512564" lon="9.132716226925044"><ele>223.4</ele><time>2026-04-25T09:23:13.999Z</time></trkpt><trkpt lat="45.65041921503195" lon="9.132772801232804"><ele>223.0</ele><time>2026-04-25T09:23:14.999Z</time></trkpt><trkpt lat="45.65033004294473" lon="9.132829011690067"><ele>222.8</ele><time>2026-04-25T09:23:15.999Z</time></trkpt><trkpt lat="45.65023983262886" lon="9.132883233559038"><ele>222.60000000000002</ele><time>2026-04-25T09:23:16.999Z</time></trkpt><trkpt lat="45.65015110553274" lon="9.132938525088168"><ele>222.39999999999998</ele><time>2026-04-25T09:23:17.999Z</time></trkpt><trkpt lat="45.65006074424537" lon="9.13299125287354"><ele>222.2</ele><time>2026-04-25T09:23:18.999Z</time></trkpt><trkpt lat="45.64997118008155" lon="9.133060522531286"><ele>222.0</ele><time>2026-04-25T09:23:19.999Z</time></trkpt><trkpt lat="45.64987815362646" lon="9.13312676364316"><ele>222.0</ele><time>2026-04-25T09:23:20.999Z</time></trkpt><trkpt lat="45.64978211662909" lon="9.1331857601057"><ele>222.0</ele><time>2026-04-25T09:23:21.999Z</time></trkpt><trkpt lat="45.6496836306857" lon="9.133244208886605"><ele>222.0</ele><time>2026-04-25T09:23:22.999Z</time></trkpt><trkpt lat="45.649586873095636" lon="9.133303262408289"><ele>222.0</ele><time>2026-04-25T09:23:23.999Z</time></trkpt><trkpt lat="45.64949520784227" lon="9.133362320605885"><ele>222.0</ele><time>2026-04-25T09:23:24.999Z</time></trkpt><trkpt lat="45.6494043537719" lon="9.133423532651912"><ele>222.2</ele><time>2026-04-25T09:23:25.999Z</time></trkpt><trkpt lat="45.649312465109325" lon="9.13348028495187"><ele>222.39999999999998</ele><time>2026-04-25T09:23:26.999Z</time></trkpt><trkpt lat="45.649215667221895" lon="9.1335387686235"><ele>222.60000000000002</ele><time>2026-04-25T09:23:27.999Z</time></trkpt><trkpt lat="45.649118154752614" lon="9.133598531065202"><ele>222.8</ele><time>2026-04-25T09:23:28.999Z</time></trkpt><trkpt lat="45.64902009593286" lon="9.133662744891717"><ele>223.0</ele><time>2026-04-25T09:23:29.999Z</time></trkpt><trkpt lat="45.648925744579124" lon="9.133730700135388"><ele>223.0</ele><time>2026-04-25T09:23:30.999Z</time></trkpt><trkpt lat="45.64883191485001" lon="9.133793722344583"><ele>223.0</ele><time>2026-04-25T09:23:31.999Z</time></trkpt><trkpt lat="45.64874038692887" lon="9.13384911591298"><ele>223.0</ele><time>2026-04-25T09:23:32.999Z</time></trkpt><trkpt lat="45.64864512573772" lon="9.133903490645737"><ele>223.0</ele><time>2026-04-25T09:23:33.999Z</time></trkpt><trkpt lat="45.648552639760375" lon="9.133964849538751"><ele>223.0</ele><time>2026-04-25T09:23:34.999Z</time></trkpt><trkpt lat="45.648452607239655" lon="9.134026143955957"><ele>223.8</ele><time>2026-04-25T09:23:35.999Z</time></trkpt><trkpt lat="45.64835303839419" lon="9.134089696101018"><ele>224.60000000000002</ele><time>2026-04-25T09:23:36.999Z</time></trkpt><trkpt lat="45.64825331287354" lon="9.13415961681899"><ele>225.39999999999998</ele><time>2026-04-25T09:23:37.999Z</time></trkpt><trkpt lat="45.648156788279714" lon="9.134224607981004"><ele>226.2</ele><time>2026-04-25T09:23:38.999Z</time></trkpt><trkpt lat="45.64806226652436" lon="9.134290282577808"><ele>227.0</ele><time>2026-04-25T09:23:39.999Z</time></trkpt><trkpt lat="45.64797554231037" lon="9.134364240741288"><ele>227.0</ele><time>2026-04-25T09:23:40.999Z</time></trkpt><trkpt lat="45.64787858558323" lon="9.134419349401469"><ele>227.0</ele><time>2026-04-25T09:23:42Z</time></trkpt><trkpt lat="45.647779131395566" lon="9.13447972081409"><ele>227.0</ele><time>2026-04-25T09:23:43Z</time></trkpt><trkpt lat="45.64768299957199" lon="9.13453793886008"><ele>227.0</ele><time>2026-04-25T09:23:44Z</time></trkpt><trkpt lat="45.6475892037551" lon="9.134603073172743"><ele>227.0</ele><time>2026-04-25T09:23:45Z</time></trkpt><trkpt lat="45.6474971279534" lon="9.134668156121286"><ele>226.39999999999998</ele><time>2026-04-25T09:23:46Z</time></trkpt><trkpt lat="45.647403689810275" lon="9.134739442764813"><ele>225.79999999999998</ele><time>2026-04-25T09:23:47Z</time></trkpt><trkpt lat="45.64731036960879" lon="9.13480785496954"><ele>225.2</ele><time>2026-04-25T09:23:48Z</time></trkpt><trkpt lat="45.64721260539621" lon="9.134869992711854"><ele>224.6</ele><time>2026-04-25T09:23:49Z</time></trkpt><trkpt lat="45.647116517208026" lon="9.134928508214884"><ele>224.0</ele><time>2026-04-25T09:23:50Z</time></trkpt><trkpt lat="45.647025959522296" lon="9.134994356735534"><ele>223.6</ele><time>2026-04-25T09:23:51Z</time></trkpt><trkpt lat="45.64693714116761" lon="9.135060328259613"><ele>223.2</ele><time>2026-04-25T09:23:52Z</time></trkpt><trkpt lat="45.64684490842295" lon="9.13512361047754"><ele>222.79999999999998</ele><time>2026-04-25T09:23:53Z</time></trkpt><trkpt lat="45.64674994911669" lon="9.135185023486782"><ele>222.39999999999998</ele><time>2026-04-25T09:23:54Z</time></trkpt><trkpt lat="45.64665343445334" lon="9.135249779274629"><ele>222.0</ele><time>2026-04-25T09:23:55Z</time></trkpt><trkpt lat="45.64655566280841" lon="9.135322590227696"><ele>222.0</ele><time>2026-04-25T09:23:56Z</time></trkpt><trkpt lat="45.64646301096525" lon="9.135396303871321"><ele>222.0</ele><time>2026-04-25T09:23:57Z</time></trkpt><trkpt lat="45.646367712732555" lon="9.135468332540068"><ele>222.0</ele><time>2026-04-25T09:23:58Z</time></trkpt><trkpt lat="45.64627042682959" lon="9.135529960373814"><ele>222.0</ele><time>2026-04-25T09:23:59Z</time></trkpt><trkpt lat="45.6461748692506" lon="9.135596184096405"><ele>222.0</ele><time>2026-04-25T09:24:00Z</time></trkpt><trkpt lat="45.64608000618172" lon="9.135663492584365"><ele>221.2</ele><time>2026-04-25T09:24:01Z</time></trkpt><trkpt lat="45.645980801748586" lon="9.135718231074149"><ele>220.39999999999998</ele><time>2026-04-25T09:24:02Z</time></trkpt><trkpt lat="45.64587437200997" lon="9.135730183656095"><ele>219.60000000000002</ele><time>2026-04-25T09:24:03Z</time></trkpt><trkpt lat="45.645769213987414" lon="9.13576590466208"><ele>218.8</ele><time>2026-04-25T09:24:04Z</time></trkpt><trkpt lat="45.645659906821706" lon="9.135748569544747"><ele>218.0</ele><time>2026-04-25T09:24:05Z</time></trkpt><trkpt lat="45.64555247592792" lon="9.135736654193776"><ele>218.0</ele><time>2026-04-25T09:24:06Z</time></trkpt><trkpt lat="45.64544896522734" lon="9.13572372637393"><ele>218.0</ele><time>2026-04-25T09:24:07Z</time></trkpt><trkpt lat="45.64534629213388" lon="9.135710508060697"><ele>218.0</ele><time>2026-04-25T09:24:08Z</time></trkpt><trkpt lat="45.64524684575481" lon="9.135697705186498"><ele>218.0</ele><time>2026-04-25T09:24:09Z</time></trkpt><trkpt lat="45.64515171366081" lon="9.135685458071363"><ele>218.0</ele><time>2026-04-25T09:24:10Z</time></trkpt><trkpt lat="45.64506215107529" lon="9.135673822844748"><ele>218.83333333333334</ele><time>2026-04-25T09:24:11Z</time></trkpt><trkpt lat="45.64497208862747" lon="9.135663191373835"><ele>219.66666666666669</ele><time>2026-04-25T09:24:12Z</time></trkpt><trkpt lat="45.64488577910737" lon="9.135653286371346"><ele>220.5</ele><time>2026-04-25T09:24:12.999Z</time></trkpt><trkpt lat="45.64480508489875" lon="9.13564402572419"><ele>221.33333333333331</ele><time>2026-04-25T09:24:13.999Z</time></trkpt><trkpt lat="45.64472466844682" lon="9.135635933682266"><ele>222.16666666666666</ele><time>2026-04-25T09:24:14.999Z</time></trkpt><trkpt lat="45.64464221782091" lon="9.135632169230918"><ele>223.0</ele><time>2026-04-25T09:24:15.999Z</time></trkpt><trkpt lat="45.64456181437832" lon="9.135635912244073"><ele>222.99999999999997</ele><time>2026-04-25T09:24:16.999Z</time></trkpt><trkpt lat="45.644480348111955" lon="9.135647770844855"><ele>223.0</ele><time>2026-04-25T09:24:17.999Z</time></trkpt><trkpt lat="45.6443988708591" lon="9.135665778746711"><ele>223.0</ele><time>2026-04-25T09:24:18.999Z</time></trkpt><trkpt lat="45.64431761560434" lon="9.135695344565383"><ele>223.0</ele><time>2026-04-25T09:24:19.999Z</time></trkpt><trkpt lat="45.6442413264907" lon="9.135727523826063"><ele>222.99999999999997</ele><time>2026-04-25T09:24:20.999Z</time></trkpt><trkpt lat="45.644170447750916" lon="9.135759397978441"><ele>223.0</ele><time>2026-04-25T09:24:21.999Z</time></trkpt><trkpt lat="45.64410394278748" lon="9.135792600243875"><ele>222.66666666666666</ele><time>2026-04-25T09:24:22.999Z</time></trkpt><trkpt lat="45.64399800392426" lon="9.135845219491582"><ele>222.33333333333331</ele><time>2026-04-25T09:24:24.999Z</time></trkpt><trkpt lat="45.64391851411193" lon="9.13588597887266"><ele>222.0</ele><time>2026-04-25T09:24:26.999Z</time></trkpt><trkpt lat="45.64383460626901" lon="9.13593145719427"><ele>221.66666666666669</ele><time>2026-04-25T09:24:29.999Z</time></trkpt><trkpt lat="45.64376144454174" lon="9.135969078414895"><ele>221.33333333333334</ele><time>2026-04-25T09:24:32.999Z</time></trkpt><trkpt lat="45.643695546802405" lon="9.136022392845408"><ele>221.0</ele><time>2026-04-25T09:24:34.999Z</time></trkpt><trkpt lat="45.64360849737531" lon="9.136048728822326"><ele>221.00000000000003</ele><time>2026-04-25T09:24:36.999Z</time></trkpt><trkpt lat="45.64352840692108" lon="9.136116242557005"><ele>221.0</ele><time>2026-04-25T09:24:38.999Z</time></trkpt><trkpt lat="45.643465643533375" lon="9.136142128769636"><ele>221.0</ele><time>2026-04-25T09:24:40.999Z</time></trkpt><trkpt lat="45.64340811433786" lon="9.13618063625518"><ele>221.0</ele><time>2026-04-25T09:24:52.999Z</time></trkpt><trkpt lat="45.64332249136767" lon="9.136197884993713"><ele>221.00000000000003</ele><time>2026-04-25T09:24:55.999Z</time></trkpt><trkpt lat="45.643254654999765" lon="9.13624993341281"><ele>221.0</ele><time>2026-04-25T09:24:57.999Z</time></trkpt><trkpt lat="45.64316178274286" lon="9.136261377939494"><ele>221.0</ele><time>2026-04-25T09:24:59.999Z</time></trkpt><trkpt lat="45.64305505430371" lon="9.136296645226759"><ele>221.00000000000003</ele><time>2026-04-25T09:25:01.999Z</time></trkpt><trkpt lat="45.642929542459896" lon="9.136335255707829"><ele>221.00000000000003</ele><time>2026-04-25T09:25:03.999Z</time></trkpt><trkpt lat="45.64286092767541" lon="9.13635425359511"><ele>221.0</ele><time>2026-04-25T09:25:04.999Z</time></trkpt><trkpt lat="45.64278799097788" lon="9.136373840311707"><ele>221.0</ele><time>2026-04-25T09:25:05.999Z</time></trkpt><trkpt lat="45.64271158150027" lon="9.13639435955856"><ele>222.50000000000003</ele><time>2026-04-25T09:25:06.999Z</time></trkpt><trkpt lat="45.642637259422806" lon="9.136414318292964"><ele>224.0</ele><time>2026-04-25T09:25:07.999Z</time></trkpt><trkpt lat="45.64256589657962" lon="9.136433482314194"><ele>225.5</ele><time>2026-04-25T09:25:08.999Z</time></trkpt><trkpt lat="45.64248812347601" lon="9.136454865399543"><ele>227.0</ele><time>2026-04-25T09:25:09.999Z</time></trkpt><trkpt lat="45.642412708622665" lon="9.13647580433706"><ele>228.50000000000003</ele><time>2026-04-25T09:25:10.999Z</time></trkpt><trkpt lat="45.64233077836662" lon="9.136498552284829"><ele>230.0</ele><time>2026-04-25T09:25:11.999Z</time></trkpt><trkpt lat="45.64224784035584" lon="9.136521580010642"><ele>230.00000000000003</ele><time>2026-04-25T09:25:12.999Z</time></trkpt><trkpt lat="45.642167692599216" lon="9.13654383304457"><ele>230.0</ele><time>2026-04-25T09:25:13.999Z</time></trkpt><trkpt lat="45.64208210803972" lon="9.136567595581226"><ele>230.0</ele><time>2026-04-25T09:25:14.999Z</time></trkpt><trkpt lat="45.64199743509303" lon="9.136590497430463"><ele>230.0</ele><time>2026-04-25T09:25:15.999Z</time></trkpt><trkpt lat="45.641908797550734" lon="9.136614304205006"><ele>230.00000000000003</ele><time>2026-04-25T09:25:16.999Z</time></trkpt><trkpt lat="45.64182152146729" lon="9.136637745312006"><ele>230.0</ele><time>2026-04-25T09:25:17.999Z</time></trkpt><trkpt lat="45.641732672615355" lon="9.136661608835498"><ele>228.0</ele><time>2026-04-25T09:25:18.999Z</time></trkpt><trkpt lat="45.641640470669515" lon="9.136687967646216"><ele>226.0</ele><time>2026-04-25T09:25:19.999Z</time></trkpt><trkpt lat="45.64155102310419" lon="9.136718771994813"><ele>224.0</ele><time>2026-04-25T09:25:20.999Z</time></trkpt><trkpt lat="45.641464344968014" lon="9.13675910762112"><ele>222.0</ele><time>2026-04-25T09:25:21.999Z</time></trkpt><trkpt lat="45.64138104181701" lon="9.13681075685115"><ele>220.0</ele><time>2026-04-25T09:25:22.999Z</time></trkpt><trkpt lat="45.64130766046443" lon="9.136888677055428"><ele>220.0</ele><time>2026-04-25T09:25:23.999Z</time></trkpt><trkpt lat="45.6412264200694" lon="9.136947048422329"><ele>220.0</ele><time>2026-04-25T09:25:24.999Z</time></trkpt><trkpt lat="45.64113493209415" lon="9.136986030380527"><ele>220.0</ele><time>2026-04-25T09:25:25.999Z</time></trkpt><trkpt lat="45.64104872179395" lon="9.137047231440548"><ele>220.0</ele><time>2026-04-25T09:25:26.999Z</time></trkpt><trkpt lat="45.6409650759742" lon="9.137106612238815"><ele>220.0</ele><time>2026-04-25T09:25:27.999Z</time></trkpt><trkpt lat="45.64087920438041" lon="9.137167572929506"><ele>218.6</ele><time>2026-04-25T09:25:28.999Z</time></trkpt><trkpt lat="45.640793462819424" lon="9.137228441467364"><ele>217.2</ele><time>2026-04-25T09:25:29.999Z</time></trkpt><trkpt lat="45.640708734723404" lon="9.137288590577592"><ele>215.8</ele><time>2026-04-25T09:25:30.999Z</time></trkpt><trkpt lat="45.640622252889116" lon="9.137350161555737"><ele>214.4</ele><time>2026-04-25T09:25:31.999Z</time></trkpt><trkpt lat="45.64053725626393" lon="9.137410897937885"><ele>213.0</ele><time>2026-04-25T09:25:32.999Z</time></trkpt><trkpt lat="45.640450644938696" lon="9.137469201570058"><ele>213.0</ele><time>2026-04-25T09:25:33.999Z</time></trkpt><trkpt lat="45.640361387545326" lon="9.13751877910551"><ele>213.0</ele><time>2026-04-25T09:25:34.999Z</time></trkpt><trkpt lat="45.640270908784316" lon="9.13755397070705"><ele>213.0</ele><time>2026-04-25T09:25:35.999Z</time></trkpt><trkpt lat="45.640175881988476" lon="9.137588255776603"><ele>213.0</ele><time>2026-04-25T09:25:36.999Z</time></trkpt><trkpt lat="45.64008067182391" lon="9.137617023039123"><ele>213.0</ele><time>2026-04-25T09:25:37.999Z</time></trkpt><trkpt lat="45.63998735749667" lon="9.137645492987177"><ele>214.60000000000002</ele><time>2026-04-25T09:25:38.999Z</time></trkpt><trkpt lat="45.639892966511034" lon="9.137674012284826"><ele>216.20000000000002</ele><time>2026-04-25T09:25:39.999Z</time></trkpt><trkpt lat="45.63979852376309" lon="9.137702545319884"><ele>217.8</ele><time>2026-04-25T09:25:40.999Z</time></trkpt><trkpt lat="45.63970446226855" lon="9.137730964007947"><ele>219.4</ele><time>2026-04-25T09:25:41.999Z</time></trkpt><trkpt lat="45.6396094048386" lon="9.137759683572634"><ele>221.0</ele><time>2026-04-25T09:25:42.999Z</time></trkpt><trkpt lat="45.6395157810716" lon="9.137787970068041"><ele>221.4</ele><time>2026-04-25T09:25:43.999Z</time></trkpt><trkpt lat="45.63942307968716" lon="9.137815977853922"><ele>221.8</ele><time>2026-04-25T09:25:44.999Z</time></trkpt><trkpt lat="45.63932840109943" lon="9.137844385778836"><ele>222.20000000000002</ele><time>2026-04-25T09:25:45.999Z</time></trkpt><trkpt lat="45.63923315659019" lon="9.137872954042852"><ele>222.60000000000002</ele><time>2026-04-25T09:25:46.999Z</time></trkpt><trkpt lat="45.63913656909412" lon="9.137901925091931"><ele>223.0</ele><time>2026-04-25T09:25:48Z</time></trkpt><trkpt lat="45.63904014552561" lon="9.137931026267127"><ele>223.0</ele><time>2026-04-25T09:25:49Z</time></trkpt><trkpt lat="45.638944932030796" lon="9.13795845015718"><ele>223.0</ele><time>2026-04-25T09:25:50Z</time></trkpt><trkpt lat="45.63884782592531" lon="9.137985826585789"><ele>223.0</ele><time>2026-04-25T09:25:51Z</time></trkpt><trkpt lat="45.63875086909292" lon="9.138013707553853"><ele>223.0</ele><time>2026-04-25T09:25:52Z</time></trkpt><trkpt lat="45.63865559749724" lon="9.138041248670115"><ele>223.0</ele><time>2026-04-25T09:25:53Z</time></trkpt><trkpt lat="45.63855954261394" lon="9.138069016281326"><ele>223.0</ele><time>2026-04-25T09:25:54Z</time></trkpt><trkpt lat="45.63846491212266" lon="9.138095891518187"><ele>223.0</ele><time>2026-04-25T09:25:55Z</time></trkpt><trkpt lat="45.63836850171989" lon="9.138120560546094"><ele>223.0</ele><time>2026-04-25T09:25:56Z</time></trkpt><trkpt lat="45.63827245837997" lon="9.138135810620888"><ele>223.0</ele><time>2026-04-25T09:25:57Z</time></trkpt><trkpt lat="45.638174462233394" lon="9.138147827999246"><ele>223.0</ele><time>2026-04-25T09:25:58Z</time></trkpt><trkpt lat="45.63807726244103" lon="9.138152072732291"><ele>223.0</ele><time>2026-04-25T09:25:59Z</time></trkpt><trkpt lat="45.63798010657882" lon="9.138151826843346"><ele>223.0</ele><time>2026-04-25T09:26:00Z</time></trkpt><trkpt lat="45.63788320978492" lon="9.13815031736337"><ele>223.0</ele><time>2026-04-25T09:26:01Z</time></trkpt><trkpt lat="45.63778499723453" lon="9.13814819537299"><ele>223.0</ele><time>2026-04-25T09:26:02Z</time></trkpt><trkpt lat="45.63768798442035" lon="9.138145383592585"><ele>223.0</ele><time>2026-04-25T09:26:03Z</time></trkpt><trkpt lat="45.63758798178815" lon="9.13814248515901"><ele>223.2</ele><time>2026-04-25T09:26:04Z</time></trkpt><trkpt lat="45.63749254640559" lon="9.138139719103227"><ele>223.4</ele><time>2026-04-25T09:26:05Z</time></trkpt><trkpt lat="45.63739577706036" lon="9.138136914382747"><ele>223.59999999999997</ele><time>2026-04-25T09:26:06Z</time></trkpt><trkpt lat="45.637299358277154" lon="9.138134119822464"><ele>223.79999999999998</ele><time>2026-04-25T09:26:07Z</time></trkpt><trkpt lat="45.63720598132001" lon="9.138131413419904"><ele>224.0</ele><time>2026-04-25T09:26:08Z</time></trkpt><trkpt lat="45.637110926780025" lon="9.138128658403517"><ele>224.0</ele><time>2026-04-25T09:26:09Z</time></trkpt><trkpt lat="45.63701598960879" lon="9.138126023365942"><ele>223.99999999999997</ele><time>2026-04-25T09:26:10Z</time></trkpt><trkpt lat="45.636922712097466" lon="9.138123472067171"><ele>223.99999999999997</ele><time>2026-04-25T09:26:11Z</time></trkpt><trkpt lat="45.63682815620016" lon="9.138120885800666"><ele>224.0</ele><time>2026-04-25T09:26:12Z</time></trkpt><trkpt lat="45.6367358366501" lon="9.138118360705638"><ele>224.0</ele><time>2026-04-25T09:26:13Z</time></trkpt><trkpt lat="45.636644455837974" lon="9.138115861284463"><ele>222.79999999999998</ele><time>2026-04-25T09:26:14Z</time></trkpt><trkpt lat="45.63655305076514" lon="9.138113361203988"><ele>221.59999999999997</ele><time>2026-04-25T09:26:15Z</time></trkpt><trkpt lat="45.63646211858686" lon="9.138110548423438"><ele>220.4</ele><time>2026-04-25T09:26:16Z</time></trkpt><trkpt lat="45.636370463846255" lon="9.138131575204614"><ele>219.2</ele><time>2026-04-25T09:26:17Z</time></trkpt><trkpt lat="45.63627759849371" lon="9.138131725472832"><ele>218.0</ele><time>2026-04-25T09:26:18Z</time></trkpt><trkpt lat="45.63618305835954" lon="9.138113342742988"><ele>216.83333333333334</ele><time>2026-04-25T09:26:19Z</time></trkpt><trkpt lat="45.6360929178594" lon="9.138145012425538"><ele>215.66666666666669</ele><time>2026-04-25T09:26:20Z</time></trkpt><trkpt lat="45.636003839570606" lon="9.138157107647638"><ele>214.5</ele><time>2026-04-25T09:26:20.999Z</time></trkpt><trkpt lat="45.63592179636418" lon="9.13817810655618"><ele>213.33333333333331</ele><time>2026-04-25T09:26:21.999Z</time></trkpt><trkpt lat="45.63584160356081" lon="9.138200399493844"><ele>212.16666666666666</ele><time>2026-04-25T09:26:22.999Z</time></trkpt><trkpt lat="45.635762220972126" lon="9.138205151979587"><ele>211.0</ele><time>2026-04-25T09:26:23.999Z</time></trkpt><trkpt lat="45.6356858938863" lon="9.138193266590251"><ele>210.99999999999997</ele><time>2026-04-25T09:26:24.999Z</time></trkpt><trkpt lat="45.635611104562095" lon="9.138167398461638"><ele>211.0</ele><time>2026-04-25T09:26:25.999Z</time></trkpt><trkpt lat="45.63553775484064" lon="9.13814171730165"><ele>211.0</ele><time>2026-04-25T09:26:26.999Z</time></trkpt><trkpt lat="45.63545928537686" lon="9.138132473553835"><ele>211.0</ele><time>2026-04-25T09:26:27.999Z</time></trkpt><trkpt lat="45.635377383557596" lon="9.138137355821835"><ele>210.99999999999997</ele><time>2026-04-25T09:26:28.999Z</time></trkpt><trkpt lat="45.63529460769378" lon="9.138150700077748"><ele>211.0</ele><time>2026-04-25T09:26:29.999Z</time></trkpt><trkpt lat="45.63521016009064" lon="9.13816600624587"><ele>209.99999999999997</ele><time>2026-04-25T09:26:30.999Z</time></trkpt><trkpt lat="45.63512739926737" lon="9.138176201195344"><ele>209.0</ele><time>2026-04-25T09:26:31.999Z</time></trkpt><trkpt lat="45.635049151197734" lon="9.13817716261827"><ele>208.0</ele><time>2026-04-25T09:26:32.999Z</time></trkpt><trkpt lat="45.634970423394684" lon="9.138183108848452"><ele>207.0</ele><time>2026-04-25T09:26:33.999Z</time></trkpt><trkpt lat="45.63489369321195" lon="9.138193531414563"><ele>205.99999999999997</ele><time>2026-04-25T09:26:34.999Z</time></trkpt><trkpt lat="45.634814695272375" lon="9.13820600364917"><ele>205.0</ele><time>2026-04-25T09:26:35.999Z</time></trkpt><trkpt lat="45.63473164038416" lon="9.138221752562425"><ele>205.0</ele><time>2026-04-25T09:26:36.999Z</time></trkpt><trkpt lat="45.63464851788996" lon="9.138236987666376"><ele>205.0</ele><time>2026-04-25T09:26:37.999Z</time></trkpt><trkpt lat="45.634562878893384" lon="9.138236878914173"><ele>205.0</ele><time>2026-04-25T09:26:38.999Z</time></trkpt><trkpt lat="45.63448545519621" lon="9.138218413886111"><ele>205.0</ele><time>2026-04-25T09:26:39.999Z</time></trkpt><trkpt lat="45.63441936044803" lon="9.138208758641275"><ele>205.0</ele><time>2026-04-25T09:26:40.999Z</time></trkpt><trkpt lat="45.63434466174281" lon="9.138038499008402"><ele>204.99999999999997</ele><time>2026-04-25T09:26:41.999Z</time></trkpt><trkpt lat="45.63427512964128" lon="9.138043899885131"><ele>205.0</ele><time>2026-04-25T09:26:42.999Z</time></trkpt><trkpt lat="45.634208611881256" lon="9.13822103253976"><ele>205.0</ele><time>2026-04-25T09:26:43.999Z</time></trkpt><trkpt lat="45.6341310600226" lon="9.138233012352934"><ele>205.0</ele><time>2026-04-25T09:26:44.999Z</time></trkpt><trkpt lat="45.63405306120239" lon="9.13824854519363"><ele>204.99999999999997</ele><time>2026-04-25T09:26:45.999Z</time></trkpt><trkpt lat="45.63397703506653" lon="9.13826619802482"><ele>205.0</ele><time>2026-04-25T09:26:46.999Z</time></trkpt><trkpt lat="45.63390012072712" lon="9.138275390903829"><ele>204.99999999999997</ele><time>2026-04-25T09:26:47.999Z</time></trkpt><trkpt lat="45.6338206699956" lon="9.138278241907146"><ele>205.0</ele><time>2026-04-25T09:26:48.999Z</time></trkpt><trkpt lat="45.63373829157991" lon="9.138280861120682"><ele>205.0</ele><time>2026-04-25T09:26:49.999Z</time></trkpt><trkpt lat="45.6336556013379" lon="9.13828900375169"><ele>205.0</ele><time>2026-04-25T09:26:50.999Z</time></trkpt><trkpt lat="45.63357298370339" lon="9.138296428874101"><ele>204.99999999999997</ele><time>2026-04-25T09:26:51.999Z</time></trkpt><trkpt lat="45.63349160353823" lon="9.138311702443882"><ele>205.0</ele><time>2026-04-25T09:26:52.999Z</time></trkpt><trkpt lat="45.6334097574765" lon="9.138317954114788"><ele>205.16666666666666</ele><time>2026-04-25T09:26:53.999Z</time></trkpt><trkpt lat="45.63332612095216" lon="9.13832477864833"><ele>205.33333333333331</ele><time>2026-04-25T09:26:54.999Z</time></trkpt><trkpt lat="45.633241043820085" lon="9.138333646322117"><ele>205.5</ele><time>2026-04-25T09:26:55.999Z</time></trkpt><trkpt lat="45.63315591388914" lon="9.138343692297104"><ele>205.66666666666669</ele><time>2026-04-25T09:26:56.999Z</time></trkpt><trkpt lat="45.63306901877255" lon="9.138351129525127"><ele>205.83333333333334</ele><time>2026-04-25T09:26:57.999Z</time></trkpt><trkpt lat="45.6329825688123" lon="9.138355928307918"><ele>206.0</ele><time>2026-04-25T09:26:58.999Z</time></trkpt><trkpt lat="45.63289409404347" lon="9.13836459848092"><ele>206.00000000000003</ele><time>2026-04-25T09:26:59.999Z</time></trkpt><trkpt lat="45.632806839132144" lon="9.138374664870925"><ele>206.0</ele><time>2026-04-25T09:27:00.999Z</time></trkpt><trkpt lat="45.63271837492988" lon="9.138385374416735"><ele>206.0</ele><time>2026-04-25T09:27:01.999Z</time></trkpt><trkpt lat="45.63262794600105" lon="9.138392674060634"><ele>206.0</ele><time>2026-04-25T09:27:02.999Z</time></trkpt><trkpt lat="45.632538471179494" lon="9.138402042385678"><ele>206.00000000000003</ele><time>2026-04-25T09:27:03.999Z</time></trkpt><trkpt lat="45.632450041191" lon="9.138408372442303"><ele>206.0</ele><time>2026-04-25T09:27:04.999Z</time></trkpt><trkpt lat="45.63235896461676" lon="9.138419186555439"><ele>206.00000000000003</ele><time>2026-04-25T09:27:05.999Z</time></trkpt><trkpt lat="45.63227047200124" lon="9.138428248809756"><ele>206.0</ele><time>2026-04-25T09:27:06.999Z</time></trkpt><trkpt lat="45.6321815415175" lon="9.138441578018089"><ele>206.0</ele><time>2026-04-25T09:27:07.999Z</time></trkpt><trkpt lat="45.63209345520281" lon="9.138452830873526"><ele>206.0</ele><time>2026-04-25T09:27:08.999Z</time></trkpt><trkpt lat="45.63200433547179" lon="9.138461062599534"><ele>206.00000000000003</ele><time>2026-04-25T09:27:09.999Z</time></trkpt><trkpt lat="45.631917226844294" lon="9.138468795274187"><ele>206.0</ele><time>2026-04-25T09:27:10.999Z</time></trkpt><trkpt lat="45.631827768966076" lon="9.138477461425923"><ele>206.00000000000003</ele><time>2026-04-25T09:27:11.999Z</time></trkpt><trkpt lat="45.631737143126664" lon="9.138486195843504"><ele>206.0</ele><time>2026-04-25T09:27:12.999Z</time></trkpt><trkpt lat="45.63164914182212" lon="9.13849540700075"><ele>206.0</ele><time>2026-04-25T09:27:13.999Z</time></trkpt><trkpt lat="45.63156640141873" lon="9.13850416998664"><ele>206.0</ele><time>2026-04-25T09:27:14.999Z</time></trkpt><trkpt lat="45.63148444655644" lon="9.138512322312812"><ele>206.00000000000003</ele><time>2026-04-25T09:27:15.999Z</time></trkpt><trkpt lat="45.63140262650516" lon="9.138524301237553"><ele>206.0</ele><time>2026-04-25T09:27:16.999Z</time></trkpt><trkpt lat="45.63132008071504" lon="9.13853431101919"><ele>206.00000000000003</ele><time>2026-04-25T09:27:17.999Z</time></trkpt><trkpt lat="45.63123596071827" lon="9.138543877526935"><ele>206.0</ele><time>2026-04-25T09:27:18.999Z</time></trkpt><trkpt lat="45.631148085869185" lon="9.138553593583248"><ele>206.0</ele><time>2026-04-25T09:27:19.999Z</time></trkpt><trkpt lat="45.63106112418998" lon="9.138565308777261"><ele>206.0</ele><time>2026-04-25T09:27:20.999Z</time></trkpt><trkpt lat="45.630976198329186" lon="9.138577536243272"><ele>206.00000000000003</ele><time>2026-04-25T09:27:21.999Z</time></trkpt><trkpt lat="45.63089532909386" lon="9.138586940120383"><ele>206.0</ele><time>2026-04-25T09:27:22.999Z</time></trkpt><trkpt lat="45.630815614630855" lon="9.138592681954973"><ele>206.14285714285714</ele><time>2026-04-25T09:27:23.999Z</time></trkpt><trkpt lat="45.630738759076316" lon="9.13859625918471"><ele>206.28571428571428</ele><time>2026-04-25T09:27:24.999Z</time></trkpt><trkpt lat="45.63066887738772" lon="9.138597736790304"><ele>206.42857142857144</ele><time>2026-04-25T09:27:25.999Z</time></trkpt><trkpt lat="45.6305987620459" lon="9.13859964229786"><ele>206.57142857142856</ele><time>2026-04-25T09:27:26.999Z</time></trkpt><trkpt lat="45.63053280954171" lon="9.138599842054465"><ele>206.71428571428572</ele><time>2026-04-25T09:27:27.999Z</time></trkpt><trkpt lat="45.63046931321523" lon="9.138586620358675"><ele>206.85714285714286</ele><time>2026-04-25T09:27:28.999Z</time></trkpt><trkpt lat="45.630407403582254" lon="9.138559585831896"><ele>207.0</ele><time>2026-04-25T09:27:29.999Z</time></trkpt><trkpt lat="45.63034300017033" lon="9.13853842256707"><ele>206.5</ele><time>2026-04-25T09:27:30.999Z</time></trkpt><trkpt lat="45.63027303561021" lon="9.13855111558455"><ele>206.0</ele><time>2026-04-25T09:27:31.999Z</time></trkpt><trkpt lat="45.6301994469339" lon="9.138595579456128"><ele>205.5</ele><time>2026-04-25T09:27:32.999Z</time></trkpt><trkpt lat="45.63012220921249" lon="9.138639733510919"><ele>205.0</ele><time>2026-04-25T09:27:33.999Z</time></trkpt><trkpt lat="45.630046524685355" lon="9.138674783621532"><ele>204.5</ele><time>2026-04-25T09:27:34.999Z</time></trkpt><trkpt lat="45.629963795470786" lon="9.138684473728157"><ele>204.0</ele><time>2026-04-25T09:27:35.999Z</time></trkpt><trkpt lat="45.62987996846984" lon="9.138682978720928"><ele>204.0</ele><time>2026-04-25T09:27:36.999Z</time></trkpt><trkpt lat="45.62979546550315" lon="9.138679973732652"><ele>204.0</ele><time>2026-04-25T09:27:37.999Z</time></trkpt><trkpt lat="45.629711581459404" lon="9.138685419286276"><ele>204.0</ele><time>2026-04-25T09:27:38.999Z</time></trkpt><trkpt lat="45.629625295137195" lon="9.138693520486024"><ele>204.0</ele><time>2026-04-25T09:27:39.999Z</time></trkpt><trkpt lat="45.62953835909086" lon="9.13869203329186"><ele>204.0</ele><time>2026-04-25T09:27:40.999Z</time></trkpt><trkpt lat="45.62944963869521" lon="9.138686058220468"><ele>204.0</ele><time>2026-04-25T09:27:41.999Z</time></trkpt><trkpt lat="45.62936318815197" lon="9.138667588482159"><ele>204.0</ele><time>2026-04-25T09:27:42.999Z</time></trkpt><trkpt lat="45.629276717858424" lon="9.138648092088205"><ele>204.0</ele><time>2026-04-25T09:27:43.999Z</time></trkpt><trkpt lat="45.62919121305891" lon="9.138624474692435"><ele>204.0</ele><time>2026-04-25T09:27:44.999Z</time></trkpt><trkpt lat="45.62910755706621" lon="9.138596644707729"><ele>204.0</ele><time>2026-04-25T09:27:45.999Z</time></trkpt><trkpt lat="45.629024970573184" lon="9.138554937777002"><ele>204.0</ele><time>2026-04-25T09:27:46.999Z</time></trkpt><trkpt lat="45.628944690258805" lon="9.138503006902637"><ele>204.0</ele><time>2026-04-25T09:27:47.999Z</time></trkpt><trkpt lat="45.62886313991787" lon="9.138441277150052"><ele>204.0</ele><time>2026-04-25T09:27:48.999Z</time></trkpt><trkpt lat="45.62878453196923" lon="9.138374588134546"><ele>204.0</ele><time>2026-04-25T09:27:49.999Z</time></trkpt><trkpt lat="45.628706011180334" lon="9.138309225463413"><ele>204.0</ele><time>2026-04-25T09:27:50.999Z</time></trkpt><trkpt lat="45.628629056355116" lon="9.138240508949298"><ele>204.0</ele><time>2026-04-25T09:27:51.999Z</time></trkpt><trkpt lat="45.62855472347494" lon="9.138168581405266"><ele>204.0</ele><time>2026-04-25T09:27:52.999Z</time></trkpt><trkpt lat="45.62847934433526" lon="9.138097111428175"><ele>204.2</ele><time>2026-04-25T09:27:54Z</time></trkpt><trkpt lat="45.62840482686282" lon="9.138021567766806"><ele>204.39999999999998</ele><time>2026-04-25T09:27:55Z</time></trkpt><trkpt lat="45.62832837347338" lon="9.13795023411417"><ele>204.6</ele><time>2026-04-25T09:27:56Z</time></trkpt><trkpt lat="45.62825025757024" lon="9.137883975043932"><ele>204.8</ele><time>2026-04-25T09:27:57Z</time></trkpt><trkpt lat="45.628172244298085" lon="9.137815707499865"><ele>205.0</ele><time>2026-04-25T09:27:58Z</time></trkpt><trkpt lat="45.62809569134489" lon="9.137744289015352"><ele>205.0</ele><time>2026-04-25T09:27:59Z</time></trkpt><trkpt lat="45.628019372902145" lon="9.137677406496243"><ele>205.0</ele><time>2026-04-25T09:28:00Z</time></trkpt><trkpt lat="45.62794223103919" lon="9.137608743023602"><ele>205.0</ele><time>2026-04-25T09:28:01Z</time></trkpt><trkpt lat="45.627866524277856" lon="9.137536152025605"><ele>205.0</ele><time>2026-04-25T09:28:02Z</time></trkpt><trkpt lat="45.62778877368308" lon="9.13746790286782"><ele>205.0</ele><time>2026-04-25T09:28:03Z</time></trkpt><trkpt lat="45.627708598777346" lon="9.137399845185772"><ele>204.49999999999997</ele><time>2026-04-25T09:28:04Z</time></trkpt><trkpt lat="45.6276320810603" lon="9.137333057036475"><ele>204.0</ele><time>2026-04-25T09:28:05Z</time></trkpt><trkpt lat="45.62755605192527" lon="9.137258826372868"><ele>203.5</ele><time>2026-04-25T09:28:06Z</time></trkpt><trkpt lat="45.62747550487945" lon="9.137193030434004"><ele>203.0</ele><time>2026-04-25T09:28:07Z</time></trkpt><trkpt lat="45.627396801169205" lon="9.137134620735923"><ele>202.49999999999997</ele><time>2026-04-25T09:28:08Z</time></trkpt><trkpt lat="45.6273209096996" lon="9.137076438974907"><ele>202.0</ele><time>2026-04-25T09:28:09Z</time></trkpt><trkpt lat="45.62724344984148" lon="9.137020116941683"><ele>201.99999999999997</ele><time>2026-04-25T09:28:10Z</time></trkpt><trkpt lat="45.62716367751215" lon="9.136968586640908"><ele>202.0</ele><time>2026-04-25T09:28:11Z</time></trkpt><trkpt lat="45.62708860307908" lon="9.136930056643303"><ele>202.0</ele><time>2026-04-25T09:28:12Z</time></trkpt><trkpt lat="45.627011747072565" lon="9.136895156805517"><ele>202.0</ele><time>2026-04-25T09:28:13Z</time></trkpt><trkpt lat="45.6269368323063" lon="9.13686314964471"><ele>201.99999999999997</ele><time>2026-04-25T09:28:14Z</time></trkpt><trkpt lat="45.62686528578256" lon="9.136832920922444"><ele>202.0</ele><time>2026-04-25T09:28:15Z</time></trkpt><trkpt lat="45.62679407554635" lon="9.136804917139536"><ele>201.8</ele><time>2026-04-25T09:28:16Z</time></trkpt><trkpt lat="45.626725205845574" lon="9.136784170351408"><ele>201.6</ele><time>2026-04-25T09:28:17Z</time></trkpt><trkpt lat="45.62661741304905" lon="9.136741206281394"><ele>201.4</ele><time>2026-04-25T09:28:19Z</time></trkpt><trkpt lat="45.62652419299051" lon="9.1367049860802"><ele>201.20000000000002</ele><time>2026-04-25T09:28:21Z</time></trkpt><trkpt lat="45.62641625705136" lon="9.136672548612381"><ele>201.0</ele><time>2026-04-25T09:28:23Z</time></trkpt><trkpt lat="45.626300999941236" lon="9.136642875389722"><ele>201.0</ele><time>2026-04-25T09:28:25Z</time></trkpt><trkpt lat="45.62623469096475" lon="9.136630580542048"><ele>201.0</ele><time>2026-04-25T09:28:26Z</time></trkpt><trkpt lat="45.6261654866752" lon="9.136617834406186"><ele>201.0</ele><time>2026-04-25T09:28:27Z</time></trkpt><trkpt lat="45.62609281495738" lon="9.136601445593223"><ele>201.0</ele><time>2026-04-25T09:28:28Z</time></trkpt><trkpt lat="45.626020355203" lon="9.136586574012744"><ele>201.0</ele><time>2026-04-25T09:28:29Z</time></trkpt><trkpt lat="45.6259491374131" lon="9.13657191052817"><ele>201.0</ele><time>2026-04-25T09:28:30Z</time></trkpt><trkpt lat="45.62588101987641" lon="9.136556791444926"><ele>201.0</ele><time>2026-04-25T09:28:31Z</time></trkpt><trkpt lat="45.625815111240776" lon="9.136541638621514"><ele>200.85714285714286</ele><time>2026-04-25T09:28:32Z</time></trkpt><trkpt lat="45.62574807261187" lon="9.136528999704453"><ele>200.71428571428572</ele><time>2026-04-25T09:28:33Z</time></trkpt><trkpt lat="45.62568227318556" lon="9.136516585884694"><ele>200.57142857142858</ele><time>2026-04-25T09:28:34Z</time></trkpt><trkpt lat="45.62561166140897" lon="9.13650897430001"><ele>200.42857142857144</ele><time>2026-04-25T09:28:35Z</time></trkpt><trkpt lat="45.62553730367249" lon="9.136496733052962"><ele>200.28571428571428</ele><time>2026-04-25T09:28:36Z</time></trkpt><trkpt lat="45.625461573530956" lon="9.13647375069012"><ele>200.14285714285717</ele><time>2026-04-25T09:28:37Z</time></trkpt><trkpt lat="45.62538544224838" lon="9.136448464124502"><ele>200.0</ele><time>2026-04-25T09:28:38Z</time></trkpt><trkpt lat="45.62530701894542" lon="9.136422538530296"><ele>200.00000000000003</ele><time>2026-04-25T09:28:39Z</time></trkpt><trkpt lat="45.625227627790835" lon="9.13639303946157"><ele>200.0</ele><time>2026-04-25T09:28:39.999Z</time></trkpt><trkpt lat="45.62514709771817" lon="9.136371410399537"><ele>200.0</ele><time>2026-04-25T09:28:40.999Z</time></trkpt><trkpt lat="45.62506991133912" lon="9.136357727040252"><ele>200.0</ele><time>2026-04-25T09:28:41.999Z</time></trkpt><trkpt lat="45.62499142760072" lon="9.136340717193837"><ele>200.00000000000003</ele><time>2026-04-25T09:28:42.999Z</time></trkpt><trkpt lat="45.62491200754642" lon="9.136318434680238"><ele>200.0</ele><time>2026-04-25T09:28:43.999Z</time></trkpt><trkpt lat="45.62482968571294" lon="9.136296838912024"><ele>200.00000000000003</ele><time>2026-04-25T09:28:44.999Z</time></trkpt><trkpt lat="45.624746025068774" lon="9.13627341218619"><ele>200.0</ele><time>2026-04-25T09:28:45.999Z</time></trkpt><trkpt lat="45.624663953193775" lon="9.136240079572095"><ele>200.0</ele><time>2026-04-25T09:28:46.999Z</time></trkpt><trkpt lat="45.624582906925134" lon="9.136209075406452"><ele>200.0</ele><time>2026-04-25T09:28:47.999Z</time></trkpt><trkpt lat="45.62450214465185" lon="9.136193119874939"><ele>200.00000000000003</ele><time>2026-04-25T09:28:48.999Z</time></trkpt><trkpt lat="45.62441994717866" lon="9.136172619061925"><ele>200.0</ele><time>2026-04-25T09:28:49.999Z</time></trkpt><trkpt lat="45.6243361422207" lon="9.136145811957634"><ele>199.83333333333334</ele><time>2026-04-25T09:28:50.999Z</time></trkpt><trkpt lat="45.624252039760194" lon="9.136125332157633"><ele>199.66666666666669</ele><time>2026-04-25T09:28:51.999Z</time></trkpt><trkpt lat="45.62416570031954" lon="9.13611100406526"><ele>199.5</ele><time>2026-04-25T09:28:52.999Z</time></trkpt><trkpt lat="45.62407773011385" lon="9.136099438426557"><ele>199.33333333333331</ele><time>2026-04-25T09:28:53.999Z</time></trkpt><trkpt lat="45.62399131121261" lon="9.136090136567127"><ele>199.16666666666666</ele><time>2026-04-25T09:28:54.999Z</time></trkpt><trkpt lat="45.62390689045523" lon="9.136074416580914"><ele>199.0</ele><time>2026-04-25T09:28:55.999Z</time></trkpt><trkpt lat="45.62382532888878" lon="9.136053822997168"><ele>198.99999999999997</ele><time>2026-04-25T09:28:56.999Z</time></trkpt><trkpt lat="45.62374834041905" lon="9.136033758109209"><ele>199.0</ele><time>2026-04-25T09:28:57.999Z</time></trkpt><trkpt lat="45.623671845520846" lon="9.136020411418606"><ele>199.0</ele><time>2026-04-25T09:28:58.999Z</time></trkpt><trkpt lat="45.623595105037985" lon="9.136006922766384"><ele>199.0</ele><time>2026-04-25T09:28:59.999Z</time></trkpt><trkpt lat="45.623515679483695" lon="9.13598721852029"><ele>198.99999999999997</ele><time>2026-04-25T09:29:00.999Z</time></trkpt><trkpt lat="45.62343476407555" lon="9.135964285101984"><ele>199.0</ele><time>2026-04-25T09:29:01.999Z</time></trkpt><trkpt lat="45.62335706120863" lon="9.135942236521265"><ele>199.16666666666666</ele><time>2026-04-25T09:29:02.999Z</time></trkpt><trkpt lat="45.6232811388944" lon="9.135920939654996"><ele>199.33333333333331</ele><time>2026-04-25T09:29:03.999Z</time></trkpt><trkpt lat="45.62320693258946" lon="9.135900901807014"><ele>199.5</ele><time>2026-04-25T09:29:04.999Z</time></trkpt><trkpt lat="45.623132699638674" lon="9.135883530495688"><ele>199.66666666666669</ele><time>2026-04-25T09:29:05.999Z</time></trkpt><trkpt lat="45.62305517236516" lon="9.135868115874585"><ele>199.83333333333334</ele><time>2026-04-25T09:29:06.999Z</time></trkpt><trkpt lat="45.62297434819652" lon="9.135853366641832"><ele>200.0</ele><time>2026-04-25T09:29:07.999Z</time></trkpt><trkpt lat="45.62289300980964" lon="9.135839486281661"><ele>199.83333333333334</ele><time>2026-04-25T09:29:08.999Z</time></trkpt><trkpt lat="45.622810376674664" lon="9.135823775667964"><ele>199.66666666666669</ele><time>2026-04-25T09:29:09.999Z</time></trkpt><trkpt lat="45.62273291034167" lon="9.135835357872772"><ele>199.5</ele><time>2026-04-25T09:29:10.999Z</time></trkpt><trkpt lat="45.62264625640768" lon="9.135826992120814"><ele>199.33333333333331</ele><time>2026-04-25T09:29:11.999Z</time></trkpt><trkpt lat="45.62255623529016" lon="9.135819028069882"><ele>199.16666666666666</ele><time>2026-04-25T09:29:12.999Z</time></trkpt><trkpt lat="45.622467924248575" lon="9.135814461578416"><ele>199.0</ele><time>2026-04-25T09:29:13.999Z</time></trkpt><trkpt lat="45.62237744465191" lon="9.135810540560538"><ele>199.0</ele><time>2026-04-25T09:29:14.999Z</time></trkpt><trkpt lat="45.622288786952275" lon="9.135804693725566"><ele>199.0</ele><time>2026-04-25T09:29:15.999Z</time></trkpt><trkpt lat="45.62219904407536" lon="9.135800838018984"><ele>199.0</ele><time>2026-04-25T09:29:16.999Z</time></trkpt><trkpt lat="45.6221075436965" lon="9.135799503943776"><ele>199.0</ele><time>2026-04-25T09:29:17.999Z</time></trkpt><trkpt lat="45.62201537459118" lon="9.13580564756911"><ele>199.0</ele><time>2026-04-25T09:29:18.999Z</time></trkpt><trkpt lat="45.621925806835044" lon="9.135817175607903"><ele>198.99999999999997</ele><time>2026-04-25T09:29:19.999Z</time></trkpt><trkpt lat="45.621837021943115" lon="9.135827876103326"><ele>199.0</ele><time>2026-04-25T09:29:20.999Z</time></trkpt><trkpt lat="45.62175196064023" lon="9.135840058166973"><ele>199.0</ele><time>2026-04-25T09:29:21.999Z</time></trkpt><trkpt lat="45.62166738413335" lon="9.135851224901915"><ele>199.0</ele><time>2026-04-25T09:29:22.999Z</time></trkpt><trkpt lat="45.62157969801205" lon="9.135857897749062"><ele>198.99999999999997</ele><time>2026-04-25T09:29:23.999Z</time></trkpt><trkpt lat="45.621489481270956" lon="9.135856940399325"><ele>199.0</ele><time>2026-04-25T09:29:24.999Z</time></trkpt><trkpt lat="45.621399871681895" lon="9.135853165456236"><ele>198.99999999999997</ele><time>2026-04-25T09:29:25.999Z</time></trkpt><trkpt lat="45.62131356704817" lon="9.135861687230438"><ele>199.0</ele><time>2026-04-25T09:29:26.999Z</time></trkpt><trkpt lat="45.62122917059506" lon="9.13587143759968"><ele>199.0</ele><time>2026-04-25T09:29:27.999Z</time></trkpt><trkpt lat="45.621143304667285" lon="9.135886460598861"><ele>199.0</ele><time>2026-04-25T09:29:28.999Z</time></trkpt><trkpt lat="45.62105414590548" lon="9.135902726590253"><ele>198.99999999999997</ele><time>2026-04-25T09:29:29.999Z</time></trkpt><trkpt lat="45.62096326616112" lon="9.135921825941727"><ele>199.0</ele><time>2026-04-25T09:29:30.999Z</time></trkpt><trkpt lat="45.62087341561252" lon="9.135941665555134"><ele>198.83333333333331</ele><time>2026-04-25T09:29:31.999Z</time></trkpt><trkpt lat="45.62078302139308" lon="9.135961829969414"><ele>198.66666666666666</ele><time>2026-04-25T09:29:32.999Z</time></trkpt><trkpt lat="45.620693775587135" lon="9.135981298758331"><ele>198.5</ele><time>2026-04-25T09:29:33.999Z</time></trkpt><trkpt lat="45.62060659781462" lon="9.135994373245124"><ele>198.33333333333331</ele><time>2026-04-25T09:29:34.999Z</time></trkpt><trkpt lat="45.62052260501837" lon="9.136001324487431"><ele>198.16666666666666</ele><time>2026-04-25T09:29:35.999Z</time></trkpt><trkpt lat="45.62044094246817" lon="9.136009100895006"><ele>198.0</ele><time>2026-04-25T09:29:36.999Z</time></trkpt><trkpt lat="45.62035944051231" lon="9.1360191576038"><ele>197.5</ele><time>2026-04-25T09:29:37.999Z</time></trkpt><trkpt lat="45.62027682226176" lon="9.136031524812688"><ele>197.0</ele><time>2026-04-25T09:29:38.999Z</time></trkpt><trkpt lat="45.6201911867904" lon="9.136048237613803"><ele>196.5</ele><time>2026-04-25T09:29:39.999Z</time></trkpt><trkpt lat="45.62010523811463" lon="9.136065206519408"><ele>196.0</ele><time>2026-04-25T09:29:40.999Z</time></trkpt><trkpt lat="45.620017767051785" lon="9.136083518450407"><ele>195.5</ele><time>2026-04-25T09:29:41.999Z</time></trkpt><trkpt lat="45.619928130776394" lon="9.136097722406763"><ele>195.0</ele><time>2026-04-25T09:29:42.999Z</time></trkpt><trkpt lat="45.61984055590557" lon="9.13610860514656"><ele>195.0</ele><time>2026-04-25T09:29:43.999Z</time></trkpt><trkpt lat="45.61975228884864" lon="9.136117178758367"><ele>195.0</ele><time>2026-04-25T09:29:44.999Z</time></trkpt><trkpt lat="45.61966608200827" lon="9.136131672435294"><ele>195.0</ele><time>2026-04-25T09:29:45.999Z</time></trkpt><trkpt lat="45.61958123479743" lon="9.136147007229486"><ele>195.0</ele><time>2026-04-25T09:29:46.999Z</time></trkpt><trkpt lat="45.61949652020241" lon="9.136152423930051"><ele>195.0</ele><time>2026-04-25T09:29:47.999Z</time></trkpt><trkpt lat="45.61941674422178" lon="9.136173888980041"><ele>195.0</ele><time>2026-04-25T09:29:48.999Z</time></trkpt><trkpt lat="45.619339573086855" lon="9.13617682602223"><ele>195.0</ele><time>2026-04-25T09:29:49.999Z</time></trkpt><trkpt lat="45.61926392268085" lon="9.136178949506576"><ele>195.0</ele><time>2026-04-25T09:29:50.999Z</time></trkpt><trkpt lat="45.619169570790255" lon="9.1361594719593"><ele>195.0</ele><time>2026-04-25T09:29:51.999Z</time></trkpt><trkpt lat="45.619075321777416" lon="9.136142076697139"><ele>195.0</ele><time>2026-04-25T09:29:52.999Z</time></trkpt><trkpt lat="45.61896322492555" lon="9.136203172340101"><ele>195.0</ele><time>2026-04-25T09:29:54.999Z</time></trkpt><trkpt lat="45.61889375221002" lon="9.136209209879606"><ele>195.0</ele><time>2026-04-25T09:29:55.999Z</time></trkpt><trkpt lat="45.61882906589783" lon="9.136209155300474"><ele>195.0</ele><time>2026-04-25T09:29:56.999Z</time></trkpt><trkpt lat="45.6187188344163" lon="9.136220070213994"><ele>195.0</ele><time>2026-04-25T09:29:58.999Z</time></trkpt><trkpt lat="45.618605096742456" lon="9.136240248489194"><ele>195.0</ele><time>2026-04-25T09:30:01Z</time></trkpt><trkpt lat="45.618483883572864" lon="9.136272422247224"><ele>195.0</ele><time>2026-04-25T09:30:03Z</time></trkpt><trkpt lat="45.61836492905764" lon="9.13628935388076"><ele>195.16666666666666</ele><time>2026-04-25T09:30:05Z</time></trkpt><trkpt lat="45.61824311888099" lon="9.136308282331912"><ele>195.33333333333331</ele><time>2026-04-25T09:30:07Z</time></trkpt><trkpt lat="45.61817304433724" lon="9.136323190357395"><ele>195.5</ele><time>2026-04-25T09:30:08Z</time></trkpt><trkpt lat="45.61810188824051" lon="9.13632699226578"><ele>195.66666666666666</ele><time>2026-04-25T09:30:09Z</time></trkpt><trkpt lat="45.61801905696127" lon="9.136332474602632"><ele>195.83333333333331</ele><time>2026-04-25T09:30:10Z</time></trkpt><trkpt lat="45.617931689332764" lon="9.136330288304137"><ele>196.0</ele><time>2026-04-25T09:30:11Z</time></trkpt><trkpt lat="45.61784665606001" lon="9.136335208283597"><ele>195.49999999999997</ele><time>2026-04-25T09:30:12Z</time></trkpt><trkpt lat="45.61776888125202" lon="9.136342895308733"><ele>195.0</ele><time>2026-04-25T09:30:13Z</time></trkpt><trkpt lat="45.61768971015761" lon="9.136347541079095"><ele>194.5</ele><time>2026-04-25T09:30:14Z</time></trkpt><trkpt lat="45.61760675698246" lon="9.136352700700108"><ele>194.0</ele><time>2026-04-25T09:30:15Z</time></trkpt><trkpt lat="45.61752116537889" lon="9.136371962331152"><ele>193.49999999999997</ele><time>2026-04-25T09:30:16Z</time></trkpt><trkpt lat="45.61743643298616" lon="9.136392365462493"><ele>193.0</ele><time>2026-04-25T09:30:17Z</time></trkpt><trkpt lat="45.61734647294367" lon="9.13641769283067"><ele>193.0</ele><time>2026-04-25T09:30:18Z</time></trkpt><trkpt lat="45.61725628766914" lon="9.136445810423215"><ele>193.0</ele><time>2026-04-25T09:30:19Z</time></trkpt><trkpt lat="45.61716841785165" lon="9.136484711654651"><ele>193.0</ele><time>2026-04-25T09:30:20Z</time></trkpt><trkpt lat="45.617080918467884" lon="9.136518021711204"><ele>193.0</ele><time>2026-04-25T09:30:21Z</time></trkpt><trkpt lat="45.61699092738507" lon="9.136543999936281"><ele>193.0</ele><time>2026-04-25T09:30:22Z</time></trkpt><trkpt lat="45.61690034939234" lon="9.136536671964553"><ele>192.99999999999997</ele><time>2026-04-25T09:30:23Z</time></trkpt><trkpt lat="45.61681144069062" lon="9.136508474215754"><ele>193.0</ele><time>2026-04-25T09:30:24Z</time></trkpt><trkpt lat="45.61672692550998" lon="9.13649587051116"><ele>193.0</ele><time>2026-04-25T09:30:25Z</time></trkpt><trkpt lat="45.61664150949648" lon="9.136505940608734"><ele>193.0</ele><time>2026-04-25T09:30:26Z</time></trkpt><trkpt lat="45.61655682543936" lon="9.136517665863439"><ele>192.99999999999997</ele><time>2026-04-25T09:30:27Z</time></trkpt><trkpt lat="45.61647386676633" lon="9.136527819597932"><ele>193.0</ele><time>2026-04-25T09:30:28Z</time></trkpt><trkpt lat="45.61639374756362" lon="9.136535614705021"><ele>192.99999999999997</ele><time>2026-04-25T09:30:29Z</time></trkpt><trkpt lat="45.61631250692621" lon="9.136542801855681"><ele>193.0</ele><time>2026-04-25T09:30:30Z</time></trkpt><trkpt lat="45.61623388978978" lon="9.136554060207265"><ele>193.0</ele><time>2026-04-25T09:30:31Z</time></trkpt><trkpt lat="45.61615614029659" lon="9.136566843987186"><ele>193.0</ele><time>2026-04-25T09:30:32Z</time></trkpt><trkpt lat="45.616080090439326" lon="9.136575321622582"><ele>192.99999999999997</ele><time>2026-04-25T09:30:33Z</time></trkpt><trkpt lat="45.616005554059015" lon="9.136582080259833"><ele>193.0</ele><time>2026-04-25T09:30:34Z</time></trkpt><trkpt lat="45.61593550831861" lon="9.136595170693877"><ele>193.16666666666666</ele><time>2026-04-25T09:30:35Z</time></trkpt><trkpt lat="45.61587200899505" lon="9.136611869811926"><ele>193.33333333333331</ele><time>2026-04-25T09:30:36Z</time></trkpt><trkpt lat="45.61574435644891" lon="9.136648197356587"><ele>193.5</ele><time>2026-04-25T09:30:38Z</time></trkpt><trkpt lat="45.61567665380451" lon="9.136660961231106"><ele>193.66666666666669</ele><time>2026-04-25T09:30:39Z</time></trkpt><trkpt lat="45.61560941036994" lon="9.136672994992832"><ele>193.83333333333334</ele><time>2026-04-25T09:30:40Z</time></trkpt><trkpt lat="45.61554251365751" lon="9.136685279846409"><ele>194.0</ele><time>2026-04-25T09:30:41Z</time></trkpt><trkpt lat="45.615475629877196" lon="9.136697978315663"><ele>194.0</ele><time>2026-04-25T09:30:41.999Z</time></trkpt><trkpt lat="45.6154096804638" lon="9.136708817107802"><ele>194.0</ele><time>2026-04-25T09:30:42.999Z</time></trkpt><trkpt lat="45.61534540444153" lon="9.13671796596275"><ele>194.0</ele><time>2026-04-25T09:30:43.999Z</time></trkpt><trkpt lat="45.61528263407225" lon="9.136727184093544"><ele>194.0</ele><time>2026-04-25T09:30:44.999Z</time></trkpt><trkpt lat="45.61521672502763" lon="9.13673595209262"><ele>194.0</ele><time>2026-04-25T09:30:45.999Z</time></trkpt><trkpt lat="45.61514788161035" lon="9.136744921540497"><ele>194.0</ele><time>2026-04-25T09:30:46.999Z</time></trkpt><trkpt lat="45.61507424363584" lon="9.136751731672835"><ele>194.0</ele><time>2026-04-25T09:30:47.999Z</time></trkpt><trkpt lat="45.61500152007858" lon="9.136763951941894"><ele>193.85714285714286</ele><time>2026-04-25T09:30:48.999Z</time></trkpt><trkpt lat="45.61492966465138" lon="9.13677705986277"><ele>193.71428571428572</ele><time>2026-04-25T09:30:49.999Z</time></trkpt><trkpt lat="45.614859811389486" lon="9.136790543569752"><ele>193.57142857142858</ele><time>2026-04-25T09:30:50.999Z</time></trkpt><trkpt lat="45.6147937945509" lon="9.136804079540472"><ele>193.42857142857144</ele><time>2026-04-25T09:30:51.999Z</time></trkpt><trkpt lat="45.6147275789034" lon="9.136813766790194"><ele>193.28571428571428</ele><time>2026-04-25T09:30:52.999Z</time></trkpt><trkpt lat="45.6146523778843" lon="9.136820827890734"><ele>193.14285714285717</ele><time>2026-04-25T09:30:53.999Z</time></trkpt><trkpt lat="45.61457284902727" lon="9.136826091615221"><ele>193.0</ele><time>2026-04-25T09:30:54.999Z</time></trkpt><trkpt lat="45.61448990364817" lon="9.13682861541432"><ele>192.83333333333331</ele><time>2026-04-25T09:30:55.999Z</time></trkpt><trkpt lat="45.61440806366207" lon="9.136841833521801"><ele>192.66666666666666</ele><time>2026-04-25T09:30:56.999Z</time></trkpt><trkpt lat="45.614327886336824" lon="9.13685487928362"><ele>192.5</ele><time>2026-04-25T09:30:57.999Z</time></trkpt><trkpt lat="45.614252886089425" lon="9.136863789718461"><ele>192.33333333333331</ele><time>2026-04-25T09:30:58.999Z</time></trkpt><trkpt lat="45.614173066445765" lon="9.13687197841719"><ele>192.16666666666666</ele><time>2026-04-25T09:30:59.999Z</time></trkpt><trkpt lat="45.61408935748712" lon="9.136882590425522"><ele>192.0</ele><time>2026-04-25T09:31:00.999Z</time></trkpt><trkpt lat="45.61400598321835" lon="9.136896144624632"><ele>192.0</ele><time>2026-04-25T09:31:01.999Z</time></trkpt><trkpt lat="45.61391987323771" lon="9.136908875466585"><ele>192.0</ele><time>2026-04-25T09:31:02.999Z</time></trkpt><trkpt lat="45.61383536631826" lon="9.136923383346495"><ele>192.0</ele><time>2026-04-25T09:31:03.999Z</time></trkpt><trkpt lat="45.61374731968796" lon="9.136934518402164"><ele>192.0</ele><time>2026-04-25T09:31:04.999Z</time></trkpt><trkpt lat="45.61365830715584" lon="9.136942133201133"><ele>192.0</ele><time>2026-04-25T09:31:05.999Z</time></trkpt><trkpt lat="45.61356775384885" lon="9.136955790862375"><ele>192.0</ele><time>2026-04-25T09:31:06.999Z</time></trkpt><trkpt lat="45.61347905844297" lon="9.136972322256156"><ele>191.83333333333334</ele><time>2026-04-25T09:31:07.999Z</time></trkpt><trkpt lat="45.61339182520325" lon="9.136978502504203"><ele>191.66666666666666</ele><time>2026-04-25T09:31:08.999Z</time></trkpt><trkpt lat="45.61330457501394" lon="9.136995318775238"><ele>191.5</ele><time>2026-04-25T09:31:09.999Z</time></trkpt><trkpt lat="45.61321410366319" lon="9.137010346443414"><ele>191.33333333333331</ele><time>2026-04-25T09:31:10.999Z</time></trkpt><trkpt lat="45.61312561180203" lon="9.137025862846174"><ele>191.16666666666666</ele><time>2026-04-25T09:31:11.999Z</time></trkpt><trkpt lat="45.61303811525508" lon="9.137041403028762"><ele>191.0</ele><time>2026-04-25T09:31:12.999Z</time></trkpt><trkpt lat="45.612946671221096" lon="9.137056924441627"><ele>191.0</ele><time>2026-04-25T09:31:13.999Z</time></trkpt><trkpt lat="45.61285493440688" lon="9.137069585418372"><ele>191.0</ele><time>2026-04-25T09:31:14.999Z</time></trkpt><trkpt lat="45.61276396220049" lon="9.137082483417688"><ele>191.0</ele><time>2026-04-25T09:31:15.999Z</time></trkpt><trkpt lat="45.61267753394088" lon="9.137097829256339"><ele>191.0</ele><time>2026-04-25T09:31:16.999Z</time></trkpt><trkpt lat="45.612594740249904" lon="9.137112952314537"><ele>191.0</ele><time>2026-04-25T09:31:17.999Z</time></trkpt><trkpt lat="45.61251370671605" lon="9.13712614999532"><ele>191.0</ele><time>2026-04-25T09:31:18.999Z</time></trkpt><trkpt lat="45.61243369342712" lon="9.137135116772392"><ele>191.0</ele><time>2026-04-25T09:31:19.999Z</time></trkpt><trkpt lat="45.612350863964565" lon="9.137138732090733"><ele>191.0</ele><time>2026-04-25T09:31:20.999Z</time></trkpt><trkpt lat="45.61226645449061" lon="9.137147585914505"><ele>191.0</ele><time>2026-04-25T09:31:21.999Z</time></trkpt><trkpt lat="45.61217928719763" lon="9.137161698629159"><ele>191.0</ele><time>2026-04-25T09:31:22.999Z</time></trkpt><trkpt lat="45.612094073496195" lon="9.137173199563243"><ele>191.0</ele><time>2026-04-25T09:31:23.999Z</time></trkpt><trkpt lat="45.61200702032197" lon="9.13718311990727"><ele>191.0</ele><time>2026-04-25T09:31:24.999Z</time></trkpt><trkpt lat="45.61191874289966" lon="9.137194080892565"><ele>190.66666666666666</ele><time>2026-04-25T09:31:25.999Z</time></trkpt><trkpt lat="45.611828857712304" lon="9.13720649259719"><ele>190.33333333333331</ele><time>2026-04-25T09:31:26.999Z</time></trkpt><trkpt lat="45.61174072256592" lon="9.137221215802379"><ele>190.0</ele><time>2026-04-25T09:31:27.999Z</time></trkpt><trkpt lat="45.61165305188212" lon="9.137233161953771"><ele>189.66666666666666</ele><time>2026-04-25T09:31:28.999Z</time></trkpt><trkpt lat="45.61156378925127" lon="9.13724768012047"><ele>189.33333333333334</ele><time>2026-04-25T09:31:29.999Z</time></trkpt><trkpt lat="45.61147274434365" lon="9.1372650901291"><ele>189.0</ele><time>2026-04-25T09:31:30.999Z</time></trkpt><trkpt lat="45.61138102710719" lon="9.137277093011061"><ele>189.0</ele><time>2026-04-25T09:31:31.999Z</time></trkpt><trkpt lat="45.61129067690701" lon="9.137293985480555"><ele>189.0</ele><time>2026-04-25T09:31:32.999Z</time></trkpt><trkpt lat="45.611199828798675" lon="9.137317771828277"><ele>189.0</ele><time>2026-04-25T09:31:33.999Z</time></trkpt><trkpt lat="45.61110894755983" lon="9.137344102461434"><ele>189.0</ele><time>2026-04-25T09:31:34.999Z</time></trkpt><trkpt lat="45.6110168942933" lon="9.137372201938652"><ele>189.0</ele><time>2026-04-25T09:31:35.999Z</time></trkpt><trkpt lat="45.61092600165463" lon="9.137401125107885"><ele>189.2</ele><time>2026-04-25T09:31:36.999Z</time></trkpt><trkpt lat="45.610834224677184" lon="9.137428620009715"><ele>189.39999999999998</ele><time>2026-04-25T09:31:37.999Z</time></trkpt><trkpt lat="45.610741858902145" lon="9.13745614154969"><ele>189.6</ele><time>2026-04-25T09:31:38.999Z</time></trkpt><trkpt lat="45.610648541176644" lon="9.137489176505545"><ele>189.8</ele><time>2026-04-25T09:31:39.999Z</time></trkpt><trkpt lat="45.610556255780146" lon="9.137524776443145"><ele>190.0</ele><time>2026-04-25T09:31:40.999Z</time></trkpt><trkpt lat="45.610464970003754" lon="9.137565474375846"><ele>190.0</ele><time>2026-04-25T09:31:41.999Z</time></trkpt><trkpt lat="45.61037447986817" lon="9.137607013362144"><ele>190.0</ele><time>2026-04-25T09:31:42.999Z</time></trkpt><trkpt lat="45.610285684082285" lon="9.13765204835196"><ele>190.0</ele><time>2026-04-25T09:31:43.999Z</time></trkpt><trkpt lat="45.6102006963757" lon="9.137692867426587"><ele>190.0</ele><time>2026-04-25T09:31:44.999Z</time></trkpt><trkpt lat="45.6101211652579" lon="9.137739034034821"><ele>190.0</ele><time>2026-04-25T09:31:45.999Z</time></trkpt><trkpt lat="45.610037548776056" lon="9.13777468691607"><ele>189.5</ele><time>2026-04-25T09:31:46.999Z</time></trkpt><trkpt lat="45.60995346274216" lon="9.13774307079859"><ele>189.0</ele><time>2026-04-25T09:31:47.999Z</time></trkpt><trkpt lat="45.60987209525682" lon="9.13777017688979"><ele>188.5</ele><time>2026-04-25T09:31:48.999Z</time></trkpt><trkpt lat="45.609794205879076" lon="9.137778465797037"><ele>188.0</ele><time>2026-04-25T09:31:49.999Z</time></trkpt><trkpt lat="45.60975586029183" lon="9.137911031523243"><ele>187.5</ele><time>2026-04-25T09:31:50.999Z</time></trkpt><trkpt lat="45.60969094289893" lon="9.137984677937437"><ele>187.0</ele><time>2026-04-25T09:31:51.999Z</time></trkpt><trkpt lat="45.609625994183084" lon="9.138059695301175"><ele>187.0</ele><time>2026-04-25T09:31:52.999Z</time></trkpt><trkpt lat="45.60956078503424" lon="9.13813255274957"><ele>187.0</ele><time>2026-04-25T09:31:53.999Z</time></trkpt><trkpt lat="45.60945633018496" lon="9.1381518138303"><ele>187.0</ele><time>2026-04-25T09:31:54.999Z</time></trkpt><trkpt lat="45.60937729271433" lon="9.138218886584161"><ele>187.0</ele><time>2026-04-25T09:31:55.999Z</time></trkpt><trkpt lat="45.60930001152988" lon="9.138294907392064"><ele>187.0</ele><time>2026-04-25T09:31:56.999Z</time></trkpt><trkpt lat="45.609220905224355" lon="9.13836649080007"><ele>187.2</ele><time>2026-04-25T09:31:57.999Z</time></trkpt><trkpt lat="45.60913678867147" lon="9.138431417336193"><ele>187.39999999999998</ele><time>2026-04-25T09:31:58.999Z</time></trkpt><trkpt lat="45.609056466909585" lon="9.138496497777275"><ele>187.60000000000002</ele><time>2026-04-25T09:31:59.999Z</time></trkpt><trkpt lat="45.608975713157726" lon="9.138554285210198"><ele>187.8</ele><time>2026-04-25T09:32:00.999Z</time></trkpt><trkpt lat="45.60889776806207" lon="9.138619352104362"><ele>188.0</ele><time>2026-04-25T09:32:01.999Z</time></trkpt><trkpt lat="45.60881708822387" lon="9.138681489109775"><ele>188.0</ele><time>2026-04-25T09:32:02.999Z</time></trkpt><trkpt lat="45.60873784061274" lon="9.138747978487459"><ele>188.0</ele><time>2026-04-25T09:32:03.999Z</time></trkpt><trkpt lat="45.60865554521826" lon="9.138813800161753"><ele>188.0</ele><time>2026-04-25T09:32:04.999Z</time></trkpt><trkpt lat="45.6085737139055" lon="9.138877619795482"><ele>188.0</ele><time>2026-04-25T09:32:06Z</time></trkpt><trkpt lat="45.6084902551662" lon="9.13894138688262"><ele>188.0</ele><time>2026-04-25T09:32:07Z</time></trkpt><trkpt lat="45.60840900050051" lon="9.139007915758588"><ele>188.0</ele><time>2026-04-25T09:32:08Z</time></trkpt><trkpt lat="45.60832697717936" lon="9.139072886347899"><ele>188.0</ele><time>2026-04-25T09:32:09Z</time></trkpt><trkpt lat="45.60824540459439" lon="9.13913849192093"><ele>188.0</ele><time>2026-04-25T09:32:10Z</time></trkpt><trkpt lat="45.608161405208016" lon="9.13919995646877"><ele>188.0</ele><time>2026-04-25T09:32:11Z</time></trkpt><trkpt lat="45.60807546751089" lon="9.139257939890452"><ele>188.0</ele><time>2026-04-25T09:32:12Z</time></trkpt><trkpt lat="45.60799266562018" lon="9.139319163037689"><ele>188.0</ele><time>2026-04-25T09:32:13Z</time></trkpt><trkpt lat="45.607910297670585" lon="9.139387403441525"><ele>188.0</ele><time>2026-04-25T09:32:14Z</time></trkpt><trkpt lat="45.60782587090426" lon="9.139454146067292"><ele>188.0</ele><time>2026-04-25T09:32:15Z</time></trkpt><trkpt lat="45.60774138770084" lon="9.139520987591956"><ele>188.0</ele><time>2026-04-25T09:32:16Z</time></trkpt><trkpt lat="45.60766074782793" lon="9.139584354084485"><ele>188.0</ele><time>2026-04-25T09:32:17Z</time></trkpt><trkpt lat="45.60758264573386" lon="9.13964410257595"><ele>188.16666666666666</ele><time>2026-04-25T09:32:18Z</time></trkpt><trkpt lat="45.60750819844285" lon="9.139706502037898"><ele>188.33333333333331</ele><time>2026-04-25T09:32:19Z</time></trkpt><trkpt lat="45.60743297070558" lon="9.139766796852937"><ele>188.5</ele><time>2026-04-25T09:32:20Z</time></trkpt><trkpt lat="45.6073581442826" lon="9.139825599228022"><ele>188.66666666666666</ele><time>2026-04-25T09:32:21Z</time></trkpt><trkpt lat="45.60728110329008" lon="9.13988738374608"><ele>188.83333333333334</ele><time>2026-04-25T09:32:22Z</time></trkpt><trkpt lat="45.60720323390177" lon="9.139946904135869"><ele>189.0</ele><time>2026-04-25T09:32:23Z</time></trkpt><trkpt lat="45.60712608257532" lon="9.140002967501346"><ele>189.16666666666666</ele><time>2026-04-25T09:32:24Z</time></trkpt><trkpt lat="45.60705280231377" lon="9.140057110912766"><ele>189.33333333333334</ele><time>2026-04-25T09:32:25Z</time></trkpt><trkpt lat="45.60697963510148" lon="9.140102506935104"><ele>189.5</ele><time>2026-04-25T09:32:26Z</time></trkpt><trkpt lat="45.60690446903316" lon="9.140139836843575"><ele>189.66666666666669</ele><time>2026-04-25T09:32:27Z</time></trkpt><trkpt lat="45.60682550746595" lon="9.140172378271114"><ele>189.83333333333334</ele><time>2026-04-25T09:32:28Z</time></trkpt><trkpt lat="45.606747634290784" lon="9.140204165775975"><ele>190.0</ele><time>2026-04-25T09:32:29Z</time></trkpt><trkpt lat="45.60667357988857" lon="9.140235735099871"><ele>190.0</ele><time>2026-04-25T09:32:30Z</time></trkpt><trkpt lat="45.606599668834676" lon="9.14026229157092"><ele>190.0</ele><time>2026-04-25T09:32:31Z</time></trkpt><trkpt lat="45.60652384930564" lon="9.140273986446777"><ele>190.0</ele><time>2026-04-25T09:32:32Z</time></trkpt><trkpt lat="45.6064475537863" lon="9.140263768425276"><ele>190.0</ele><time>2026-04-25T09:32:33Z</time></trkpt><trkpt lat="45.60637755683278" lon="9.140232929642163"><ele>190.0</ele><time>2026-04-25T09:32:34Z</time></trkpt><trkpt lat="45.60630805205861" lon="9.140210991181066"><ele>190.0</ele><time>2026-04-25T09:32:35Z</time></trkpt><trkpt lat="45.60623558038824" lon="9.140194319036738"><ele>190.0</ele><time>2026-04-25T09:32:36Z</time></trkpt><trkpt lat="45.60616034400324" lon="9.14020337339117"><ele>189.5</ele><time>2026-04-25T09:32:37Z</time></trkpt><trkpt lat="45.60609057192282" lon="9.140254074366668"><ele>189.0</ele><time>2026-04-25T09:32:38Z</time></trkpt><trkpt lat="45.606039187229996" lon="9.140335181816882"><ele>188.5</ele><time>2026-04-25T09:32:39Z</time></trkpt><trkpt lat="45.60600177187304" lon="9.140438670155168"><ele>188.0</ele><time>2026-04-25T09:32:40Z</time></trkpt><trkpt lat="45.605985702940146" lon="9.140559257929114"><ele>187.5</ele><time>2026-04-25T09:32:41Z</time></trkpt><trkpt lat="45.60597305030323" lon="9.140678638207522"><ele>187.0</ele><time>2026-04-25T09:32:42Z</time></trkpt><trkpt lat="45.60595229661733" lon="9.140796872581257"><ele>187.0</ele><time>2026-04-25T09:32:43Z</time></trkpt><trkpt lat="45.6059127080636" lon="9.14090696412569"><ele>187.0</ele><time>2026-04-25T09:32:44Z</time></trkpt><trkpt lat="45.60584517097772" lon="9.140995099034088"><ele>187.0</ele><time>2026-04-25T09:32:45Z</time></trkpt><trkpt lat="45.60576424434586" lon="9.141064769078335"><ele>187.0</ele><time>2026-04-25T09:32:46Z</time></trkpt><trkpt lat="45.605678850374424" lon="9.14111910881774"><ele>187.0</ele><time>2026-04-25T09:32:47Z</time></trkpt><trkpt lat="45.60559925148729" lon="9.141173527200749"><ele>187.0</ele><time>2026-04-25T09:32:48Z</time></trkpt><trkpt lat="45.60552314905474" lon="9.141235034734569"><ele>187.0</ele><time>2026-04-25T09:32:49Z</time></trkpt><trkpt lat="45.60544760421631" lon="9.141299039335081"><ele>187.0</ele><time>2026-04-25T09:32:50Z</time></trkpt><trkpt lat="45.60536705729074" lon="9.141360555635266"><ele>187.0</ele><time>2026-04-25T09:32:51Z</time></trkpt><trkpt lat="45.605286502881604" lon="9.141419247381027"><ele>187.0</ele><time>2026-04-25T09:32:52Z</time></trkpt><trkpt lat="45.60520520524591" lon="9.141480533231421"><ele>187.0</ele><time>2026-04-25T09:32:53Z</time></trkpt><trkpt lat="45.60512447633371" lon="9.141548177621013"><ele>186.8</ele><time>2026-04-25T09:32:54Z</time></trkpt><trkpt lat="45.60504265848551" lon="9.14161238965354"><ele>186.6</ele><time>2026-04-25T09:32:55Z</time></trkpt><trkpt lat="45.60496282253992" lon="9.141677811831915"><ele>186.4</ele><time>2026-04-25T09:32:56Z</time></trkpt><trkpt lat="45.604879660004556" lon="9.14174515626479"><ele>186.20000000000002</ele><time>2026-04-25T09:32:57Z</time></trkpt><trkpt lat="45.60479590138431" lon="9.141808494550478"><ele>186.0</ele><time>2026-04-25T09:32:58Z</time></trkpt><trkpt lat="45.60471392926371" lon="9.141873645444587"><ele>186.0</ele><time>2026-04-25T09:32:58.999Z</time></trkpt><trkpt lat="45.604629869959794" lon="9.141940475125637"><ele>186.0</ele><time>2026-04-25T09:32:59.999Z</time></trkpt><trkpt lat="45.6045438025723" lon="9.142005585167416"><ele>186.0</ele><time>2026-04-25T09:33:00.999Z</time></trkpt><trkpt lat="45.604459744498854" lon="9.142070321739586"><ele>186.0</ele><time>2026-04-25T09:33:01.999Z</time></trkpt><trkpt lat="45.604378014245405" lon="9.14213197038575"><ele>186.0</ele><time>2026-04-25T09:33:02.999Z</time></trkpt><trkpt lat="45.604299136565324" lon="9.142193880288108"><ele>186.0</ele><time>2026-04-25T09:33:03.999Z</time></trkpt><trkpt lat="45.6042221152156" lon="9.14225395443849"><ele>186.0</ele><time>2026-04-25T09:33:04.999Z</time></trkpt><trkpt lat="45.6041471327139" lon="9.14231223177711"><ele>186.0</ele><time>2026-04-25T09:33:05.999Z</time></trkpt><trkpt lat="45.60407496718581" lon="9.142369844900458"><ele>186.0</ele><time>2026-04-25T09:33:06.999Z</time></trkpt><trkpt lat="45.60400081447516" lon="9.142426923352176"><ele>186.0</ele><time>2026-04-25T09:33:07.999Z</time></trkpt><trkpt lat="45.60392328284228" lon="9.14248538087029"><ele>186.0</ele><time>2026-04-25T09:33:08.999Z</time></trkpt><trkpt lat="45.60384527360222" lon="9.142545562669941"><ele>186.0</ele><time>2026-04-25T09:33:09.999Z</time></trkpt><trkpt lat="45.603766027502274" lon="9.142601503089367"><ele>186.0</ele><time>2026-04-25T09:33:10.999Z</time></trkpt><trkpt lat="45.603686111401714" lon="9.142662297946158"><ele>186.0</ele><time>2026-04-25T09:33:11.999Z</time></trkpt><trkpt lat="45.60360966340889" lon="9.142723530374028"><ele>186.0</ele><time>2026-04-25T09:33:12.999Z</time></trkpt><trkpt lat="45.603535476778006" lon="9.142780864146287"><ele>186.0</ele><time>2026-04-25T09:33:13.999Z</time></trkpt><trkpt lat="45.60346196772163" lon="9.142835719712686"><ele>186.0</ele><time>2026-04-25T09:33:14.999Z</time></trkpt><trkpt lat="45.603388073692635" lon="9.14287306977914"><ele>185.85714285714286</ele><time>2026-04-25T09:33:15.999Z</time></trkpt><trkpt lat="45.603311472911216" lon="9.142885363916475"><ele>185.71428571428572</ele><time>2026-04-25T09:33:16.999Z</time></trkpt><trkpt lat="45.60323580957239" lon="9.142856052930354"><ele>185.57142857142856</ele><time>2026-04-25T09:33:17.999Z</time></trkpt><trkpt lat="45.60316525488637" lon="9.142822925121692"><ele>185.42857142857144</ele><time>2026-04-25T09:33:18.999Z</time></trkpt><trkpt lat="45.60309356869978" lon="9.142821794344389"><ele>185.28571428571428</ele><time>2026-04-25T09:33:19.999Z</time></trkpt><trkpt lat="45.60302590249258" lon="9.142861592556098"><ele>185.14285714285714</ele><time>2026-04-25T09:33:20.999Z</time></trkpt><trkpt lat="45.602972988445316" lon="9.142935546992794"><ele>185.0</ele><time>2026-04-25T09:33:21.999Z</time></trkpt><trkpt lat="45.60293594624685" lon="9.14302815299245"><ele>185.0</ele><time>2026-04-25T09:33:22.999Z</time></trkpt><trkpt lat="45.60294464334066" lon="9.143137974929678"><ele>185.0</ele><time>2026-04-25T09:33:23.999Z</time></trkpt><trkpt lat="45.60293491727081" lon="9.143249824761812"><ele>185.0</ele><time>2026-04-25T09:33:24.999Z</time></trkpt><trkpt lat="45.602844577002415" lon="9.143340861157258"><ele>185.0</ele><time>2026-04-25T09:33:25.999Z</time></trkpt><trkpt lat="45.60277298122767" lon="9.143410126982026"><ele>185.0</ele><time>2026-04-25T09:33:26.999Z</time></trkpt><trkpt lat="45.602688732274395" lon="9.143458136837014"><ele>185.0</ele><time>2026-04-25T09:33:27.999Z</time></trkpt><trkpt lat="45.602611095352735" lon="9.143515167470298"><ele>184.83333333333331</ele><time>2026-04-25T09:33:28.999Z</time></trkpt><trkpt lat="45.6025347483908" lon="9.143578184881784"><ele>184.66666666666666</ele><time>2026-04-25T09:33:29.999Z</time></trkpt><trkpt lat="45.602458978515614" lon="9.143642713455238"><ele>184.5</ele><time>2026-04-25T09:33:30.999Z</time></trkpt><trkpt lat="45.602381280289585" lon="9.143703835474518"><ele>184.33333333333334</ele><time>2026-04-25T09:33:31.999Z</time></trkpt><trkpt lat="45.602300884605654" lon="9.14376529258077"><ele>184.16666666666669</ele><time>2026-04-25T09:33:32.999Z</time></trkpt><trkpt lat="45.60222352184558" lon="9.14382646358607"><ele>184.0</ele><time>2026-04-25T09:33:33.999Z</time></trkpt><trkpt lat="45.60214526698538" lon="9.143891330320347"><ele>184.0</ele><time>2026-04-25T09:33:34.999Z</time></trkpt><trkpt lat="45.602066195421656" lon="9.143955193723182"><ele>184.0</ele><time>2026-04-25T09:33:35.999Z</time></trkpt><trkpt lat="45.601987730862795" lon="9.144018164079778"><ele>184.0</ele><time>2026-04-25T09:33:36.999Z</time></trkpt><trkpt lat="45.60190738000944" lon="9.144078212789047"><ele>184.0</ele><time>2026-04-25T09:33:37.999Z</time></trkpt><trkpt lat="45.60182546466282" lon="9.144135707984816"><ele>184.0</ele><time>2026-04-25T09:33:38.999Z</time></trkpt><trkpt lat="45.60174622893539" lon="9.144199232422235"><ele>184.16666666666669</ele><time>2026-04-25T09:33:39.999Z</time></trkpt><trkpt lat="45.601669256788654" lon="9.144260619072869"><ele>184.33333333333334</ele><time>2026-04-25T09:33:40.999Z</time></trkpt><trkpt lat="45.60159411148161" lon="9.144318716058654"><ele>184.5</ele><time>2026-04-25T09:33:41.999Z</time></trkpt><trkpt lat="45.601519793770414" lon="9.144374940181942"><ele>184.66666666666666</ele><time>2026-04-25T09:33:42.999Z</time></trkpt><trkpt lat="45.6014472231139" lon="9.144430688902236"><ele>184.83333333333331</ele><time>2026-04-25T09:33:43.999Z</time></trkpt><trkpt lat="45.60137730944365" lon="9.144488924655006"><ele>185.0</ele><time>2026-04-25T09:33:44.999Z</time></trkpt><trkpt lat="45.601303622416246" lon="9.144546778485246"><ele>185.0</ele><time>2026-04-25T09:33:45.999Z</time></trkpt><trkpt lat="45.60122855109804" lon="9.144610169217327"><ele>185.0</ele><time>2026-04-25T09:33:46.999Z</time></trkpt><trkpt lat="45.601149169242134" lon="9.144668511636052"><ele>185.0</ele><time>2026-04-25T09:33:47.999Z</time></trkpt><trkpt lat="45.60107349667359" lon="9.144723259124731"><ele>185.0</ele><time>2026-04-25T09:33:48.999Z</time></trkpt><trkpt lat="45.60100057007769" lon="9.144784175836108"><ele>185.0</ele><time>2026-04-25T09:33:49.999Z</time></trkpt><trkpt lat="45.60092365897062" lon="9.144844466728975"><ele>185.0</ele><time>2026-04-25T09:33:50.999Z</time></trkpt><trkpt lat="45.60084604810547" lon="9.144903321578756"><ele>184.83333333333331</ele><time>2026-04-25T09:33:51.999Z</time></trkpt><trkpt lat="45.600770253538975" lon="9.14496122031688"><ele>184.66666666666666</ele><time>2026-04-25T09:33:52.999Z</time></trkpt><trkpt lat="45.6006968192164" lon="9.14501968750671"><ele>184.5</ele><time>2026-04-25T09:33:53.999Z</time></trkpt><trkpt lat="45.600626993902786" lon="9.145073372607659"><ele>184.33333333333334</ele><time>2026-04-25T09:33:54.999Z</time></trkpt><trkpt lat="45.600558565796696" lon="9.145124891563663"><ele>184.16666666666669</ele><time>2026-04-25T09:33:55.999Z</time></trkpt><trkpt lat="45.60048918957463" lon="9.145172910100763"><ele>184.0</ele><time>2026-04-25T09:33:56.999Z</time></trkpt><trkpt lat="45.600417058246215" lon="9.14521073934639"><ele>184.0</ele><time>2026-04-25T09:33:57.999Z</time></trkpt><trkpt lat="45.600339862202304" lon="9.145246350647433"><ele>184.0</ele><time>2026-04-25T09:33:58.999Z</time></trkpt><trkpt lat="45.60026393567663" lon="9.145290710958093"><ele>184.0</ele><time>2026-04-25T09:33:59.999Z</time></trkpt><trkpt lat="45.60018710321686" lon="9.145332602442725"><ele>184.0</ele><time>2026-04-25T09:34:00.999Z</time></trkpt><trkpt lat="45.600111786966224" lon="9.145371845154996"><ele>184.0</ele><time>2026-04-25T09:34:01.999Z</time></trkpt><trkpt lat="45.600039172579386" lon="9.14541455641278"><ele>184.0</ele><time>2026-04-25T09:34:02.999Z</time></trkpt><trkpt lat="45.59996492497155" lon="9.145459061609962"><ele>184.0</ele><time>2026-04-25T09:34:03.999Z</time></trkpt><trkpt lat="45.59988487154112" lon="9.145487975854248"><ele>184.0</ele><time>2026-04-25T09:34:04.999Z</time></trkpt><trkpt lat="45.599799145785376" lon="9.145499454293573"><ele>184.0</ele><time>2026-04-25T09:34:05.999Z</time></trkpt><trkpt lat="45.599713924389626" lon="9.145512792611358"><ele>184.0</ele><time>2026-04-25T09:34:06.999Z</time></trkpt><trkpt lat="45.5996284196286" lon="9.145528516107907"><ele>184.0</ele><time>2026-04-25T09:34:07.999Z</time></trkpt><trkpt lat="45.599542977645214" lon="9.145537092079275"><ele>184.0</ele><time>2026-04-25T09:34:08.999Z</time></trkpt><trkpt lat="45.5994630098873" lon="9.145544862544552"><ele>183.83333333333334</ele><time>2026-04-25T09:34:09.999Z</time></trkpt><trkpt lat="45.59938382085208" lon="9.145558038283685"><ele>183.66666666666669</ele><time>2026-04-25T09:34:10.999Z</time></trkpt><trkpt lat="45.59930588870695" lon="9.145565289734279"><ele>183.5</ele><time>2026-04-25T09:34:12Z</time></trkpt><trkpt lat="45.599224978216505" lon="9.145572142287437"><ele>183.33333333333334</ele><time>2026-04-25T09:34:13Z</time></trkpt><trkpt lat="45.599142819918015" lon="9.145573613834427"><ele>183.16666666666666</ele><time>2026-04-25T09:34:14Z</time></trkpt><trkpt lat="45.59906073580828" lon="9.145576898032596"><ele>183.0</ele><time>2026-04-25T09:34:15Z</time></trkpt><trkpt lat="45.5989778984952" lon="9.145574960113905"><ele>183.0</ele><time>2026-04-25T09:34:16Z</time></trkpt><trkpt lat="45.59889495354323" lon="9.14557794319047"><ele>183.0</ele><time>2026-04-25T09:34:17Z</time></trkpt><trkpt lat="45.59881126673549" lon="9.145578500308833"><ele>183.0</ele><time>2026-04-25T09:34:18Z</time></trkpt><trkpt lat="45.598726338174465" lon="9.145576530069002"><ele>183.0</ele><time>2026-04-25T09:34:19Z</time></trkpt><trkpt lat="45.598640327304096" lon="9.145578358249923"><ele>183.0</ele><time>2026-04-25T09:34:20Z</time></trkpt><trkpt lat="45.59855439367722" lon="9.145577147164813"><ele>183.0</ele><time>2026-04-25T09:34:21Z</time></trkpt><trkpt lat="45.59846829069469" lon="9.145582907629349"><ele>183.0</ele><time>2026-04-25T09:34:22Z</time></trkpt><trkpt lat="45.59838217599149" lon="9.145585056998842"><ele>183.0</ele><time>2026-04-25T09:34:23Z</time></trkpt><trkpt lat="45.59829759949854" lon="9.145585022969875"><ele>183.0</ele><time>2026-04-25T09:34:24Z</time></trkpt><trkpt lat="45.59821703848641" lon="9.145583870397667"><ele>183.0</ele><time>2026-04-25T09:34:25Z</time></trkpt><trkpt lat="45.59813556193284" lon="9.145581756112316"><ele>183.0</ele><time>2026-04-25T09:34:26Z</time></trkpt><trkpt lat="45.59805918774927" lon="9.145582413924949"><ele>183.0</ele><time>2026-04-25T09:34:27Z</time></trkpt><trkpt lat="45.59798232336959" lon="9.145586066379344"><ele>183.0</ele><time>2026-04-25T09:34:28Z</time></trkpt><trkpt lat="45.597904165823245" lon="9.145589017117139"><ele>183.0</ele><time>2026-04-25T09:34:29Z</time></trkpt><trkpt lat="45.597825639717" lon="9.14558675930962"><ele>183.0</ele><time>2026-04-25T09:34:30Z</time></trkpt><trkpt lat="45.59774770179348" lon="9.145586842192051"><ele>183.0</ele><time>2026-04-25T09:34:31Z</time></trkpt><trkpt lat="45.59767305251359" lon="9.145589017361262"><ele>183.0</ele><time>2026-04-25T09:34:32Z</time></trkpt><trkpt lat="45.59759925076944" lon="9.14559081300595"><ele>183.0</ele><time>2026-04-25T09:34:33Z</time></trkpt><trkpt lat="45.597527341094455" lon="9.145590943343642"><ele>183.0</ele><time>2026-04-25T09:34:34Z</time></trkpt><trkpt lat="45.59745718768726" lon="9.145592765984475"><ele>183.0</ele><time>2026-04-25T09:34:35Z</time></trkpt><trkpt lat="45.59739041386495" lon="9.14559417568599"><ele>183.0</ele><time>2026-04-25T09:34:36Z</time></trkpt><trkpt lat="45.5972653609719" lon="9.14559651203739"><ele>183.0</ele><time>2026-04-25T09:34:38Z</time></trkpt><trkpt lat="45.597148446077185" lon="9.145565223035003"><ele>183.0</ele><time>2026-04-25T09:34:40Z</time></trkpt><trkpt lat="45.597096063476684" lon="9.14550340108111"><ele>183.0</ele><time>2026-04-25T09:34:41Z</time></trkpt><trkpt lat="45.59697754148992" lon="9.14547650232596"><ele>182.85714285714286</ele><time>2026-04-25T09:34:43Z</time></trkpt><trkpt lat="45.59690831450142" lon="9.145489793271961"><ele>182.71428571428572</ele><time>2026-04-25T09:34:44Z</time></trkpt><trkpt lat="45.596837118572004" lon="9.145531957679879"><ele>182.57142857142856</ele><time>2026-04-25T09:34:45Z</time></trkpt><trkpt lat="45.596773006046035" lon="9.145575330462435"><ele>182.42857142857144</ele><time>2026-04-25T09:34:46Z</time></trkpt><trkpt lat="45.59670696147347" lon="9.145598823358943"><ele>182.28571428571428</ele><time>2026-04-25T09:34:47Z</time></trkpt><trkpt lat="45.596643333210274" lon="9.145603904140165"><ele>182.14285714285714</ele><time>2026-04-25T09:34:48Z</time></trkpt><trkpt lat="45.596578915725715" lon="9.145602812860293"><ele>182.0</ele><time>2026-04-25T09:34:49Z</time></trkpt><trkpt lat="45.596510090021944" lon="9.145605845235973"><ele>182.0</ele><time>2026-04-25T09:34:50Z</time></trkpt><trkpt lat="45.59643968293167" lon="9.14560577929604"><ele>182.0</ele><time>2026-04-25T09:34:51Z</time></trkpt><trkpt lat="45.59636921469305" lon="9.145609321539368"><ele>182.0</ele><time>2026-04-25T09:34:52Z</time></trkpt><trkpt lat="45.596296461083575" lon="9.145608641033117"><ele>182.0</ele><time>2026-04-25T09:34:53Z</time></trkpt><trkpt lat="45.59622127635024" lon="9.145610146098916"><ele>182.0</ele><time>2026-04-25T09:34:54Z</time></trkpt><trkpt lat="45.59614879215761" lon="9.145605621746567"><ele>182.0</ele><time>2026-04-25T09:34:55Z</time></trkpt><trkpt lat="45.596073231135094" lon="9.145609375427668"><ele>182.0</ele><time>2026-04-25T09:34:56Z</time></trkpt><trkpt lat="45.59599330974352" lon="9.145616937902783"><ele>181.66666666666666</ele><time>2026-04-25T09:34:57Z</time></trkpt><trkpt lat="45.595912266908044" lon="9.145622941804865"><ele>181.33333333333331</ele><time>2026-04-25T09:34:58Z</time></trkpt><trkpt lat="45.59582786186108" lon="9.145599469456767"><ele>181.0</ele><time>2026-04-25T09:34:59Z</time></trkpt><trkpt lat="45.59574261891538" lon="9.145599225477637"><ele>180.66666666666666</ele><time>2026-04-25T09:35:00Z</time></trkpt><trkpt lat="45.595655150326415" lon="9.145628434074606"><ele>180.33333333333334</ele><time>2026-04-25T09:35:01Z</time></trkpt><trkpt lat="45.595569156937884" lon="9.145634084434645"><ele>180.0</ele><time>2026-04-25T09:35:02Z</time></trkpt><trkpt lat="45.59548572771574" lon="9.145634728663582"><ele>180.0</ele><time>2026-04-25T09:35:03Z</time></trkpt><trkpt lat="45.595399903910696" lon="9.145636058593421"><ele>180.0</ele><time>2026-04-25T09:35:04Z</time></trkpt><trkpt lat="45.59531389365125" lon="9.145633944307837"><ele>180.0</ele><time>2026-04-25T09:35:05Z</time></trkpt><trkpt lat="45.5952293844612" lon="9.14563658991449"><ele>180.0</ele><time>2026-04-25T09:35:06Z</time></trkpt><trkpt lat="45.595142525515286" lon="9.145637538102621"><ele>180.0</ele><time>2026-04-25T09:35:07Z</time></trkpt><trkpt lat="45.595055435102864" lon="9.14563984195091"><ele>180.0</ele><time>2026-04-25T09:35:08Z</time></trkpt><trkpt lat="45.59496684518558" lon="9.14563846567257"><ele>180.0</ele><time>2026-04-25T09:35:09Z</time></trkpt><trkpt lat="45.59487896085572" lon="9.145639686984893"><ele>180.0</ele><time>2026-04-25T09:35:10Z</time></trkpt><trkpt lat="45.59479156052038" lon="9.145639683766197"><ele>180.0</ele><time>2026-04-25T09:35:11Z</time></trkpt><trkpt lat="45.59470583562349" lon="9.145637493420159"><ele>180.0</ele><time>2026-04-25T09:35:12Z</time></trkpt><trkpt lat="45.594619851618766" lon="9.145634568295469"><ele>180.0</ele><time>2026-04-25T09:35:13Z</time></trkpt><trkpt lat="45.594532448606046" lon="9.145633698705304"><ele>180.0</ele><time>2026-04-25T09:35:14Z</time></trkpt><trkpt lat="45.59444184221639" lon="9.145633027781445"><ele>180.2</ele><time>2026-04-25T09:35:15Z</time></trkpt><trkpt lat="45.59435122615554" lon="9.145593490855283"><ele>180.4</ele><time>2026-04-25T09:35:16Z</time></trkpt><trkpt lat="45.59425974633673" lon="9.145631770386"><ele>180.60000000000002</ele><time>2026-04-25T09:35:17Z</time></trkpt><trkpt lat="45.59417036956711" lon="9.145630101485517"><ele>180.8</ele><time>2026-04-25T09:35:18Z</time></trkpt><trkpt lat="45.59408036702123" lon="9.14562865833149"><ele>181.0</ele><time>2026-04-25T09:35:19Z</time></trkpt><trkpt lat="45.593987994036176" lon="9.145627694016873"><ele>181.0</ele><time>2026-04-25T09:35:20Z</time></trkpt><trkpt lat="45.59389438100344" lon="9.145592457497346"><ele>181.0</ele><time>2026-04-25T09:35:21Z</time></trkpt><trkpt lat="45.59379744874793" lon="9.145592258016142"><ele>181.0</ele><time>2026-04-25T09:35:22Z</time></trkpt><trkpt lat="45.593703456098446" lon="9.145591484072902"><ele>181.0</ele><time>2026-04-25T09:35:23Z</time></trkpt><trkpt lat="45.59361329992629" lon="9.14559044646908"><ele>181.0</ele><time>2026-04-25T09:35:24Z</time></trkpt><trkpt lat="45.593524213104686" lon="9.145589490848495"><ele>180.8</ele><time>2026-04-25T09:35:25Z</time></trkpt><trkpt lat="45.593434568587554" lon="9.145589490847483"><ele>180.60000000000002</ele><time>2026-04-25T09:35:26Z</time></trkpt><trkpt lat="45.593343701646326" lon="9.145589490846481"><ele>180.4</ele><time>2026-04-25T09:35:27Z</time></trkpt><trkpt lat="45.593251754239525" lon="9.14561108836672"><ele>180.2</ele><time>2026-04-25T09:35:28Z</time></trkpt><trkpt lat="45.59316006992936" lon="9.14560936690988"><ele>180.0</ele><time>2026-04-25T09:35:28.999Z</time></trkpt><trkpt lat="45.59306814185154" lon="9.145610471723868"><ele>180.0</ele><time>2026-04-25T09:35:29.999Z</time></trkpt><trkpt lat="45.59297477480185" lon="9.145612478924305"><ele>180.0</ele><time>2026-04-25T09:35:30.999Z</time></trkpt><trkpt lat="45.59288326608014" lon="9.145608817619532"><ele>180.0</ele><time>2026-04-25T09:35:31.999Z</time></trkpt><trkpt lat="45.59279255164321" lon="9.145603381580994"><ele>180.0</ele><time>2026-04-25T09:35:32.999Z</time></trkpt><trkpt lat="45.59270292292617" lon="9.145599164418423"><ele>180.0</ele><time>2026-04-25T09:35:33.999Z</time></trkpt><trkpt lat="45.592613536572514" lon="9.145597559019746"><ele>179.8</ele><time>2026-04-25T09:35:34.999Z</time></trkpt><trkpt lat="45.59252330236881" lon="9.145599372866096"><ele>179.6</ele><time>2026-04-25T09:35:35.999Z</time></trkpt><trkpt lat="45.592432241093164" lon="9.145596525446535"><ele>179.39999999999998</ele><time>2026-04-25T09:35:36.999Z</time></trkpt><trkpt lat="45.59233892994387" lon="9.145597448180755"><ele>179.2</ele><time>2026-04-25T09:35:37.999Z</time></trkpt><trkpt lat="45.59224518237774" lon="9.145596725946389"><ele>179.0</ele><time>2026-04-25T09:35:38.999Z</time></trkpt><trkpt lat="45.59215303116047" lon="9.145597680579927"><ele>179.0</ele><time>2026-04-25T09:35:39.999Z</time></trkpt><trkpt lat="45.59206487409939" lon="9.14559434946246"><ele>179.0</ele><time>2026-04-25T09:35:40.999Z</time></trkpt><trkpt lat="45.59197731581206" lon="9.145594414777195"><ele>179.0</ele><time>2026-04-25T09:35:41.999Z</time></trkpt><trkpt lat="45.59189062636701" lon="9.14559428860393"><ele>179.0</ele><time>2026-04-25T09:35:42.999Z</time></trkpt><trkpt lat="45.59180257204228" lon="9.14559018068239"><ele>179.0</ele><time>2026-04-25T09:35:43.999Z</time></trkpt><trkpt lat="45.59171425028529" lon="9.145591801483459"><ele>179.0</ele><time>2026-04-25T09:35:44.999Z</time></trkpt><trkpt lat="45.5916199869293" lon="9.145589910096074"><ele>179.0</ele><time>2026-04-25T09:35:45.999Z</time></trkpt><trkpt lat="45.5915273897925" lon="9.145585927915702"><ele>179.0</ele><time>2026-04-25T09:35:46.999Z</time></trkpt><trkpt lat="45.59143286865081" lon="9.14558389797437"><ele>179.0</ele><time>2026-04-25T09:35:47.999Z</time></trkpt><trkpt lat="45.59133624050019" lon="9.145583052561877"><ele>179.0</ele><time>2026-04-25T09:35:48.999Z</time></trkpt><trkpt lat="45.59123841719514" lon="9.145580359570827"><ele>179.0</ele><time>2026-04-25T09:35:49.999Z</time></trkpt><trkpt lat="45.591143456960424" lon="9.14557968306036"><ele>178.83333333333331</ele><time>2026-04-25T09:35:50.999Z</time></trkpt><trkpt lat="45.59105080763703" lon="9.145580803659241"><ele>178.66666666666666</ele><time>2026-04-25T09:35:51.999Z</time></trkpt><trkpt lat="45.59096100060664" lon="9.145583625954925"><ele>178.5</ele><time>2026-04-25T09:35:52.999Z</time></trkpt><trkpt lat="45.590871828478804" lon="9.145581322453758"><ele>178.33333333333334</ele><time>2026-04-25T09:35:53.999Z</time></trkpt><trkpt lat="45.5907852124975" lon="9.14557359620765"><ele>178.16666666666669</ele><time>2026-04-25T09:35:54.999Z</time></trkpt><trkpt lat="45.5906988677942" lon="9.145576139446"><ele>178.0</ele><time>2026-04-25T09:35:55.999Z</time></trkpt><trkpt lat="45.59061697473523" lon="9.145579319526833"><ele>178.0</ele><time>2026-04-25T09:35:56.999Z</time></trkpt><trkpt lat="45.59053186084608" lon="9.14557835561595"><ele>178.0</ele><time>2026-04-25T09:35:57.999Z</time></trkpt><trkpt lat="45.59044251477955" lon="9.14557679771451"><ele>178.0</ele><time>2026-04-25T09:35:58.999Z</time></trkpt><trkpt lat="45.59035305369483" lon="9.145576820835442"><ele>178.0</ele><time>2026-04-25T09:35:59.999Z</time></trkpt><trkpt lat="45.59026292808687" lon="9.145573040903795"><ele>178.0</ele><time>2026-04-25T09:36:00.999Z</time></trkpt><trkpt lat="45.59017545451381" lon="9.145576131658931"><ele>178.0</ele><time>2026-04-25T09:36:01.999Z</time></trkpt><trkpt lat="45.59009235061416" lon="9.145581529657093"><ele>178.0</ele><time>2026-04-25T09:36:02.999Z</time></trkpt><trkpt lat="45.59001299909851" lon="9.145597859281006"><ele>178.0</ele><time>2026-04-25T09:36:03.999Z</time></trkpt><trkpt lat="45.589935792870115" lon="9.145613986749863"><ele>178.0</ele><time>2026-04-25T09:36:04.999Z</time></trkpt><trkpt lat="45.58985944266588" lon="9.14561565610637"><ele>178.0</ele><time>2026-04-25T09:36:05.999Z</time></trkpt><trkpt lat="45.58978484235894" lon="9.145595036201078"><ele>178.0</ele><time>2026-04-25T09:36:06.999Z</time></trkpt><trkpt lat="45.589709612802814" lon="9.145574917373686"><ele>178.0</ele><time>2026-04-25T09:36:07.999Z</time></trkpt><trkpt lat="45.589629960081155" lon="9.145565967229292"><ele>178.0</ele><time>2026-04-25T09:36:08.999Z</time></trkpt><trkpt lat="45.58954381748422" lon="9.145569683406872"><ele>178.0</ele><time>2026-04-25T09:36:09.999Z</time></trkpt><trkpt lat="45.589455300992746" lon="9.145577736929338"><ele>178.0</ele><time>2026-04-25T09:36:10.999Z</time></trkpt><trkpt lat="45.589362590046754" lon="9.145575389803126"><ele>178.0</ele><time>2026-04-25T09:36:11.999Z</time></trkpt><trkpt lat="45.58926741215374" lon="9.145564191454243"><ele>178.0</ele><time>2026-04-25T09:36:12.999Z</time></trkpt><trkpt lat="45.58916946270655" lon="9.14555528553798"><ele>177.60000000000002</ele><time>2026-04-25T09:36:13.999Z</time></trkpt><trkpt lat="45.589074154150744" lon="9.145552617333934"><ele>177.20000000000002</ele><time>2026-04-25T09:36:14.999Z</time></trkpt><trkpt lat="45.588980865208256" lon="9.145553730807183"><ele>176.8</ele><time>2026-04-25T09:36:15.999Z</time></trkpt><trkpt lat="45.588888913035596" lon="9.14555864062653"><ele>176.4</ele><time>2026-04-25T09:36:16.999Z</time></trkpt><trkpt lat="45.58879827552217" lon="9.145557935434175"><ele>176.0</ele><time>2026-04-25T09:36:18Z</time></trkpt><trkpt lat="45.588709366562476" lon="9.145556695379502"><ele>175.66666666666666</ele><time>2026-04-25T09:36:19Z</time></trkpt><trkpt lat="45.588624802244205" lon="9.145560364320678"><ele>175.33333333333331</ele><time>2026-04-25T09:36:20Z</time></trkpt><trkpt lat="45.58854199752784" lon="9.145564166838529"><ele>175.0</ele><time>2026-04-25T09:36:21Z</time></trkpt><trkpt lat="45.58846067814317" lon="9.145561882826003"><ele>174.66666666666666</ele><time>2026-04-25T09:36:22Z</time></trkpt><trkpt lat="45.58837622542575" lon="9.145558852077249"><ele>174.33333333333334</ele><time>2026-04-25T09:36:23Z</time></trkpt><trkpt lat="45.58829080915182" lon="9.145554739430123"><ele>174.0</ele><time>2026-04-25T09:36:24Z</time></trkpt><trkpt lat="45.58820367532351" lon="9.145549994189754"><ele>174.0</ele><time>2026-04-25T09:36:25Z</time></trkpt><trkpt lat="45.58811719099016" lon="9.145549538287634"><ele>174.0</ele><time>2026-04-25T09:36:26Z</time></trkpt><trkpt lat="45.58803156825725" lon="9.14555005323354"><ele>174.0</ele><time>2026-04-25T09:36:27Z</time></trkpt><trkpt lat="45.58794894861541" lon="9.145550572958497"><ele>174.0</ele><time>2026-04-25T09:36:28Z</time></trkpt><trkpt lat="45.587867316330545" lon="9.145550478447547"><ele>174.0</ele><time>2026-04-25T09:36:29Z</time></trkpt><trkpt lat="45.58778719729744" lon="9.145552435720433"><ele>174.0</ele><time>2026-04-25T09:36:30Z</time></trkpt><trkpt lat="45.58771272011995" lon="9.145551049979899"><ele>174.16666666666666</ele><time>2026-04-25T09:36:31Z</time></trkpt><trkpt lat="45.58763932928881" lon="9.145555856337893"><ele>174.33333333333334</ele><time>2026-04-25T09:36:32Z</time></trkpt><trkpt lat="45.58757099612597" lon="9.145562172370896"><ele>174.5</ele><time>2026-04-25T09:36:33Z</time></trkpt><trkpt lat="45.587503145587085" lon="9.145565439183704"><ele>174.66666666666669</ele><time>2026-04-25T09:36:34Z</time></trkpt><trkpt lat="45.587439109803924" lon="9.14556425657689"><ele>174.83333333333334</ele><time>2026-04-25T09:36:35Z</time></trkpt><trkpt lat="45.58732030106783" lon="9.145555956766836"><ele>175.0</ele><time>2026-04-25T09:36:37Z</time></trkpt><trkpt lat="45.58721036462873" lon="9.145560394684702"><ele>175.0</ele><time>2026-04-25T09:36:39Z</time></trkpt><trkpt lat="45.58710993464587" lon="9.145559472724553"><ele>175.0</ele><time>2026-04-25T09:36:41Z</time></trkpt><trkpt lat="45.587031417084745" lon="9.145550467261135"><ele>175.0</ele><time>2026-04-25T09:36:43Z</time></trkpt><trkpt lat="45.58695457453125" lon="9.14554741303927"><ele>175.0</ele><time>2026-04-25T09:36:45Z</time></trkpt><trkpt lat="45.58687470764597" lon="9.145551714826333"><ele>175.0</ele><time>2026-04-25T09:36:47Z</time></trkpt><trkpt lat="45.58678746072888" lon="9.145562405233461"><ele>175.0</ele><time>2026-04-25T09:36:49Z</time></trkpt><trkpt lat="45.5867148064887" lon="9.145564274639066"><ele>174.8</ele><time>2026-04-25T09:36:51Z</time></trkpt><trkpt lat="45.58662053658709" lon="9.145557986785018"><ele>174.6</ele><time>2026-04-25T09:36:53Z</time></trkpt><trkpt lat="45.58652083614283" lon="9.14554550081378"><ele>174.39999999999998</ele><time>2026-04-25T09:36:55Z</time></trkpt><trkpt lat="45.58641113040862" lon="9.145545713562818"><ele>174.2</ele><time>2026-04-25T09:36:57Z</time></trkpt><trkpt lat="45.58634681935266" lon="9.145544213979198"><ele>174.0</ele><time>2026-04-25T09:36:58Z</time></trkpt><trkpt lat="45.58622069392368" lon="9.14554441428265"><ele>174.16666666666666</ele><time>2026-04-25T09:37:00Z</time></trkpt><trkpt lat="45.58614923929786" lon="9.145543246477045"><ele>174.33333333333334</ele><time>2026-04-25T09:37:01Z</time></trkpt><trkpt lat="45.58607429174671" lon="9.145542803710105"><ele>174.5</ele><time>2026-04-25T09:37:02Z</time></trkpt><trkpt lat="45.58599694957535" lon="9.145543565693652"><ele>174.66666666666669</ele><time>2026-04-25T09:37:03Z</time></trkpt><trkpt lat="45.585919989669506" lon="9.145543310118192"><ele>174.83333333333334</ele><time>2026-04-25T09:37:04Z</time></trkpt><trkpt lat="45.58584489496146" lon="9.145541122568744"><ele>175.0</ele><time>2026-04-25T09:37:05Z</time></trkpt><trkpt lat="45.58576505553506" lon="9.145541029664134"><ele>175.0</ele><time>2026-04-25T09:37:06Z</time></trkpt><trkpt lat="45.585683301696186" lon="9.145540450776243"><ele>175.0</ele><time>2026-04-25T09:37:07Z</time></trkpt><trkpt lat="45.58559763253021" lon="9.145540012154848"><ele>175.0</ele><time>2026-04-25T09:37:08Z</time></trkpt><trkpt lat="45.58551221496749" lon="9.145539788207996"><ele>175.0</ele><time>2026-04-25T09:37:09Z</time></trkpt><trkpt lat="45.58542502491508" lon="9.145542800980783"><ele>175.0</ele><time>2026-04-25T09:37:10Z</time></trkpt><trkpt lat="45.58534034316526" lon="9.145543865113323"><ele>175.0</ele><time>2026-04-25T09:37:11Z</time></trkpt><trkpt lat="45.585258094476565" lon="9.14554386932364"><ele>175.0</ele><time>2026-04-25T09:37:12Z</time></trkpt><trkpt lat="45.58517799730555" lon="9.145543782880017"><ele>175.0</ele><time>2026-04-25T09:37:13Z</time></trkpt><trkpt lat="45.58509736556379" lon="9.145543626320723"><ele>175.0</ele><time>2026-04-25T09:37:14Z</time></trkpt><trkpt lat="45.58501274738522" lon="9.14554537679642"><ele>175.0</ele><time>2026-04-25T09:37:15Z</time></trkpt><trkpt lat="45.584927079943306" lon="9.145545569901838"><ele>175.0</ele><time>2026-04-25T09:37:16Z</time></trkpt><trkpt lat="45.58484092401418" lon="9.145544912138542"><ele>175.0</ele><time>2026-04-25T09:37:17Z</time></trkpt><trkpt lat="45.584753423917796" lon="9.145547015176968"><ele>175.0</ele><time>2026-04-25T09:37:18Z</time></trkpt><trkpt lat="45.58466611042021" lon="9.145544968829025"><ele>175.0</ele><time>2026-04-25T09:37:19Z</time></trkpt><trkpt lat="45.5845819130191" lon="9.145542972640804"><ele>175.0</ele><time>2026-04-25T09:37:20Z</time></trkpt><trkpt lat="45.58449666977262" lon="9.145539359962537"><ele>175.0</ele><time>2026-04-25T09:37:21Z</time></trkpt><trkpt lat="45.58440911725093" lon="9.145540111494007"><ele>175.0</ele><time>2026-04-25T09:37:22Z</time></trkpt><trkpt lat="45.58431951556304" lon="9.145539376974138"><ele>175.0</ele><time>2026-04-25T09:37:23Z</time></trkpt><trkpt lat="45.584233550580265" lon="9.14553639838678"><ele>175.0</ele><time>2026-04-25T09:37:24Z</time></trkpt><trkpt lat="45.58415155140233" lon="9.145535323222852"><ele>175.0</ele><time>2026-04-25T09:37:25Z</time></trkpt><trkpt lat="45.584071011956006" lon="9.145539032856613"><ele>175.0</ele><time>2026-04-25T09:37:26Z</time></trkpt><trkpt lat="45.58399346883996" lon="9.145542035304441"><ele>175.0</ele><time>2026-04-25T09:37:27Z</time></trkpt><trkpt lat="45.58392260670264" lon="9.145542836881887"><ele>175.0</ele><time>2026-04-25T09:37:28Z</time></trkpt><trkpt lat="45.58385556614651" lon="9.145542611832083"><ele>175.0</ele><time>2026-04-25T09:37:29Z</time></trkpt><trkpt lat="45.58378721568253" lon="9.145542028832866"><ele>175.0</ele><time>2026-04-25T09:37:30Z</time></trkpt><trkpt lat="45.58371948462746" lon="9.14554775768961"><ele>175.2</ele><time>2026-04-25T09:37:31Z</time></trkpt><trkpt lat="45.58360380745797" lon="9.145553294815898"><ele>175.4</ele><time>2026-04-25T09:37:33Z</time></trkpt><trkpt lat="45.58349282875344" lon="9.14555329481143"><ele>175.60000000000002</ele><time>2026-04-25T09:37:35Z</time></trkpt><trkpt lat="45.58336961225624" lon="9.145553294815587"><ele>175.8</ele><time>2026-04-25T09:37:37Z</time></trkpt><trkpt lat="45.58330597549096" lon="9.145553294817658"><ele>176.0</ele><time>2026-04-25T09:37:38Z</time></trkpt><trkpt lat="45.583241356001764" lon="9.14555297277328"><ele>176.0</ele><time>2026-04-25T09:37:38.999Z</time></trkpt><trkpt lat="45.583176030103026" lon="9.145552470543164"><ele>176.0</ele><time>2026-04-25T09:37:39.999Z</time></trkpt><trkpt lat="45.58310954693247" lon="9.145551959416341"><ele>176.0</ele><time>2026-04-25T09:37:40.999Z</time></trkpt><trkpt lat="45.58304451228273" lon="9.14555154668886"><ele>176.0</ele><time>2026-04-25T09:37:41.999Z</time></trkpt><trkpt lat="45.582977202048625" lon="9.14555113285582"><ele>176.0</ele><time>2026-04-25T09:37:42.999Z</time></trkpt><trkpt lat="45.58291264046474" lon="9.145550735919809"><ele>176.0</ele><time>2026-04-25T09:37:43.999Z</time></trkpt><trkpt lat="45.58279254621596" lon="9.145549997559062"><ele>176.0</ele><time>2026-04-25T09:37:45.999Z</time></trkpt><trkpt lat="45.58269542541289" lon="9.145549400443766"><ele>175.4</ele><time>2026-04-25T09:37:47.999Z</time></trkpt><trkpt lat="45.58262113946364" lon="9.145548943720009"><ele>174.8</ele><time>2026-04-25T09:37:49.999Z</time></trkpt><trkpt lat="45.58252013578271" lon="9.145571117408691"><ele>174.20000000000002</ele><time>2026-04-25T09:37:52.999Z</time></trkpt><trkpt lat="45.582420044046465" lon="9.14555272494078"><ele>173.60000000000002</ele><time>2026-04-25T09:37:54.999Z</time></trkpt><trkpt lat="45.58230234941463" lon="9.145547962542325"><ele>173.0</ele><time>2026-04-25T09:37:56.999Z</time></trkpt><trkpt lat="45.582235986623274" lon="9.145551147453958"><ele>173.0</ele><time>2026-04-25T09:37:57.999Z</time></trkpt><trkpt lat="45.582165036889876" lon="9.145551077182194"><ele>173.0</ele><time>2026-04-25T09:37:58.999Z</time></trkpt><trkpt lat="45.58209902154494" lon="9.145551426915548"><ele>173.0</ele><time>2026-04-25T09:37:59.999Z</time></trkpt><trkpt lat="45.581991698437434" lon="9.145558258690562"><ele>173.0</ele><time>2026-04-25T09:38:01.999Z</time></trkpt><trkpt lat="45.58188770194824" lon="9.14556462834642"><ele>173.0</ele><time>2026-04-25T09:38:03.999Z</time></trkpt><trkpt lat="45.581776570206515" lon="9.145563736434333"><ele>173.16666666666666</ele><time>2026-04-25T09:38:05.999Z</time></trkpt><trkpt lat="45.581648559295935" lon="9.145547709917318"><ele>173.33333333333331</ele><time>2026-04-25T09:38:07.999Z</time></trkpt><trkpt lat="45.58157792455636" lon="9.145539881548327"><ele>173.5</ele><time>2026-04-25T09:38:08.999Z</time></trkpt><trkpt lat="45.58150943318931" lon="9.14553243832909"><ele>173.66666666666666</ele><time>2026-04-25T09:38:09.999Z</time></trkpt><trkpt lat="45.58144353176058" lon="9.145530122081814"><ele>173.83333333333334</ele><time>2026-04-25T09:38:10.999Z</time></trkpt><trkpt lat="45.58137966495282" lon="9.145530994629867"><ele>174.0</ele><time>2026-04-25T09:38:11.999Z</time></trkpt><trkpt lat="45.581316180726645" lon="9.145528539324745"><ele>174.0</ele><time>2026-04-25T09:38:12.999Z</time></trkpt><trkpt lat="45.581250389963266" lon="9.145527057688623"><ele>174.0</ele><time>2026-04-25T09:38:13.999Z</time></trkpt><trkpt lat="45.58114850754233" lon="9.145540285040719"><ele>174.0</ele><time>2026-04-25T09:38:15.999Z</time></trkpt><trkpt lat="45.58105161360784" lon="9.14556519907332"><ele>174.0</ele><time>2026-04-25T09:38:17.999Z</time></trkpt><trkpt lat="45.58093605370363" lon="9.145560581276134"><ele>174.0</ele><time>2026-04-25T09:38:19.999Z</time></trkpt><trkpt lat="45.58081930930329" lon="9.145563905201517"><ele>173.79999999999998</ele><time>2026-04-25T09:38:21.999Z</time></trkpt><trkpt lat="45.58071143758878" lon="9.145555846938484"><ele>173.6</ele><time>2026-04-25T09:38:24Z</time></trkpt><trkpt lat="45.58061216124685" lon="9.14555877954684"><ele>173.4</ele><time>2026-04-25T09:38:26Z</time></trkpt><trkpt lat="45.58051555903269" lon="9.145562919136976"><ele>173.2</ele><time>2026-04-25T09:38:28Z</time></trkpt><trkpt lat="45.58042813991112" lon="9.145558408800476"><ele>173.0</ele><time>2026-04-25T09:38:30Z</time></trkpt><trkpt lat="45.58036385325881" lon="9.14556613755257"><ele>173.0</ele><time>2026-04-25T09:38:32Z</time></trkpt><trkpt lat="45.580292894624826" lon="9.145574244440756"><ele>173.0</ele><time>2026-04-25T09:38:56Z</time></trkpt><trkpt lat="45.580207230742076" lon="9.145590095823907"><ele>173.0</ele><time>2026-04-25T09:38:59Z</time></trkpt><trkpt lat="45.58011047649531" lon="9.145596807839965"><ele>173.0</ele><time>2026-04-25T09:39:01Z</time></trkpt><trkpt lat="45.57998705946035" lon="9.145616391317159"><ele>173.0</ele><time>2026-04-25T09:39:03Z</time></trkpt><trkpt lat="45.57992241455015" lon="9.145591104206574"><ele>173.0</ele><time>2026-04-25T09:39:04Z</time></trkpt><trkpt lat="45.57979674904216" lon="9.145615610931406"><ele>173.0</ele><time>2026-04-25T09:39:06Z</time></trkpt><trkpt lat="45.57972650933107" lon="9.145629902985368"><ele>173.0</ele><time>2026-04-25T09:39:07Z</time></trkpt><trkpt lat="45.57965745733842" lon="9.14564395338634"><ele>173.0</ele><time>2026-04-25T09:39:08Z</time></trkpt><trkpt lat="45.579585700852164" lon="9.145660266545903"><ele>173.0</ele><time>2026-04-25T09:39:09Z</time></trkpt><trkpt lat="45.579514081120315" lon="9.145677091202712"><ele>173.0</ele><time>2026-04-25T09:39:10Z</time></trkpt><trkpt lat="45.579441698340126" lon="9.145694095116228"><ele>173.0</ele><time>2026-04-25T09:39:11Z</time></trkpt><trkpt lat="45.579371080445114" lon="9.14571102280358"><ele>173.0</ele><time>2026-04-25T09:39:12Z</time></trkpt><trkpt lat="45.579301467556455" lon="9.145728046053234"><ele>172.83333333333331</ele><time>2026-04-25T09:39:13Z</time></trkpt><trkpt lat="45.57922862202453" lon="9.145745859807352"><ele>172.66666666666666</ele><time>2026-04-25T09:39:14Z</time></trkpt><trkpt lat="45.5791536776531" lon="9.145764186798335"><ele>172.5</ele><time>2026-04-25T09:39:15Z</time></trkpt><trkpt lat="45.57907849627306" lon="9.145782571782458"><ele>172.33333333333334</ele><time>2026-04-25T09:39:16Z</time></trkpt><trkpt lat="45.579002322981154" lon="9.145801199312396"><ele>172.16666666666669</ele><time>2026-04-25T09:39:17Z</time></trkpt><trkpt lat="45.578927686525375" lon="9.145819451015532"><ele>172.0</ele><time>2026-04-25T09:39:18Z</time></trkpt><trkpt lat="45.57885337246623" lon="9.145837624052794"><ele>172.0</ele><time>2026-04-25T09:39:19Z</time></trkpt><trkpt lat="45.578777392996656" lon="9.14585714123114"><ele>172.0</ele><time>2026-04-25T09:39:20Z</time></trkpt><trkpt lat="45.578701105056936" lon="9.145894858587912"><ele>172.0</ele><time>2026-04-25T09:39:21Z</time></trkpt><trkpt lat="45.57862918185732" lon="9.145915459547094"><ele>172.0</ele><time>2026-04-25T09:39:22Z</time></trkpt><trkpt lat="45.57856372543028" lon="9.145932081748237"><ele>172.0</ele><time>2026-04-25T09:39:23Z</time></trkpt><trkpt lat="45.57844640516313" lon="9.145973902854573"><ele>172.0</ele><time>2026-04-25T09:39:25Z</time></trkpt><trkpt lat="45.57833198863717" lon="9.146006547605225"><ele>171.66666666666669</ele><time>2026-04-25T09:39:27Z</time></trkpt><trkpt lat="45.578201387254275" lon="9.146025328350301"><ele>171.33333333333334</ele><time>2026-04-25T09:39:29Z</time></trkpt><trkpt lat="45.578127384250756" lon="9.146036619701809"><ele>171.0</ele><time>2026-04-25T09:39:30Z</time></trkpt><trkpt lat="45.57804941995426" lon="9.146048983061593"><ele>170.66666666666666</ele><time>2026-04-25T09:39:31Z</time></trkpt><trkpt lat="45.57797283764334" lon="9.146064382388285"><ele>170.33333333333331</ele><time>2026-04-25T09:39:32Z</time></trkpt><trkpt lat="45.57789740185627" lon="9.146078079967506"><ele>170.0</ele><time>2026-04-25T09:39:33Z</time></trkpt><trkpt lat="45.57782499967477" lon="9.146089555503425"><ele>169.83333333333331</ele><time>2026-04-25T09:39:34Z</time></trkpt><trkpt lat="45.577752385295256" lon="9.146101822986202"><ele>169.66666666666666</ele><time>2026-04-25T09:39:35Z</time></trkpt><trkpt lat="45.57767792162877" lon="9.146113169239566"><ele>169.5</ele><time>2026-04-25T09:39:36Z</time></trkpt><trkpt lat="45.5776005661842" lon="9.146126280206778"><ele>169.33333333333334</ele><time>2026-04-25T09:39:37Z</time></trkpt><trkpt lat="45.577522797475936" lon="9.146146191423304"><ele>169.16666666666669</ele><time>2026-04-25T09:39:38Z</time></trkpt><trkpt lat="45.57744366816077" lon="9.14616521430535"><ele>169.0</ele><time>2026-04-25T09:39:39Z</time></trkpt><trkpt lat="45.577361610890016" lon="9.146187848934174"><ele>169.0</ele><time>2026-04-25T09:39:40Z</time></trkpt><trkpt lat="45.577279069229654" lon="9.146214092435734"><ele>169.0</ele><time>2026-04-25T09:39:41Z</time></trkpt><trkpt lat="45.577195903221195" lon="9.14624162503112"><ele>169.0</ele><time>2026-04-25T09:39:42Z</time></trkpt><trkpt lat="45.57711586747095" lon="9.146253276794877"><ele>169.0</ele><time>2026-04-25T09:39:43Z</time></trkpt><trkpt lat="45.57703628528025" lon="9.146263025879366"><ele>169.0</ele><time>2026-04-25T09:39:44Z</time></trkpt><trkpt lat="45.57695646145206" lon="9.146281161052341"><ele>169.0</ele><time>2026-04-25T09:39:45Z</time></trkpt><trkpt lat="45.5768749213791" lon="9.146298512136084"><ele>169.16666666666669</ele><time>2026-04-25T09:39:46Z</time></trkpt><trkpt lat="45.57679066282798" lon="9.146317953024823"><ele>169.33333333333334</ele><time>2026-04-25T09:39:47Z</time></trkpt><trkpt lat="45.57670565648106" lon="9.146338214122203"><ele>169.5</ele><time>2026-04-25T09:39:48Z</time></trkpt><trkpt lat="45.57661939362372" lon="9.146358701323285"><ele>169.66666666666666</ele><time>2026-04-25T09:39:49Z</time></trkpt><trkpt lat="45.57653686197144" lon="9.146374704444085"><ele>169.83333333333331</ele><time>2026-04-25T09:39:50Z</time></trkpt><trkpt lat="45.57645277826702" lon="9.14639890644721"><ele>170.0</ele><time>2026-04-25T09:39:51Z</time></trkpt><trkpt lat="45.57637227597021" lon="9.146418358623873"><ele>170.0</ele><time>2026-04-25T09:39:52Z</time></trkpt><trkpt lat="45.57629434414624" lon="9.14643884016331"><ele>170.0</ele><time>2026-04-25T09:39:53Z</time></trkpt><trkpt lat="45.57621350901207" lon="9.146457135478679"><ele>170.0</ele><time>2026-04-25T09:39:54Z</time></trkpt><trkpt lat="45.57613213015278" lon="9.146475578260077"><ele>170.0</ele><time>2026-04-25T09:39:55Z</time></trkpt><trkpt lat="45.57605045198041" lon="9.146494836128417"><ele>170.0</ele><time>2026-04-25T09:39:55.999Z</time></trkpt><trkpt lat="45.575966986752285" lon="9.146519358977134"><ele>170.0</ele><time>2026-04-25T09:39:56.999Z</time></trkpt><trkpt lat="45.575884063277265" lon="9.146540222193153"><ele>170.0</ele><time>2026-04-25T09:39:57.999Z</time></trkpt><trkpt lat="45.57580038142787" lon="9.14655883268238"><ele>170.0</ele><time>2026-04-25T09:39:58.999Z</time></trkpt><trkpt lat="45.57571439297028" lon="9.146574573337016"><ele>170.0</ele><time>2026-04-25T09:39:59.999Z</time></trkpt><trkpt lat="45.57562646542318" lon="9.14659475344325"><ele>170.0</ele><time>2026-04-25T09:40:00.999Z</time></trkpt><trkpt lat="45.5755397193482" lon="9.146613591201554"><ele>170.0</ele><time>2026-04-25T09:40:01.999Z</time></trkpt><trkpt lat="45.57545109387809" lon="9.14663286657125"><ele>170.0</ele><time>2026-04-25T09:40:02.999Z</time></trkpt><trkpt lat="45.575363443694165" lon="9.146655648108158"><ele>170.0</ele><time>2026-04-25T09:40:03.999Z</time></trkpt><trkpt lat="45.575274909081884" lon="9.146675264853767"><ele>170.0</ele><time>2026-04-25T09:40:04.999Z</time></trkpt><trkpt lat="45.57518992986271" lon="9.146696120520483"><ele>170.0</ele><time>2026-04-25T09:40:05.999Z</time></trkpt><trkpt lat="45.575107977072314" lon="9.146715941890514"><ele>170.0</ele><time>2026-04-25T09:40:06.999Z</time></trkpt><trkpt lat="45.57502681733099" lon="9.146734243876155"><ele>170.0</ele><time>2026-04-25T09:40:07.999Z</time></trkpt><trkpt lat="45.574947170292674" lon="9.146750807856698"><ele>170.0</ele><time>2026-04-25T09:40:08.999Z</time></trkpt><trkpt lat="45.57486961649538" lon="9.14676638996509"><ele>170.0</ele><time>2026-04-25T09:40:09.999Z</time></trkpt><trkpt lat="45.57479242541031" lon="9.146788560709082"><ele>170.0</ele><time>2026-04-25T09:40:10.999Z</time></trkpt><trkpt lat="45.57471741338799" lon="9.146802095843322"><ele>170.0</ele><time>2026-04-25T09:40:11.999Z</time></trkpt><trkpt lat="45.57464675838748" lon="9.146816290234378"><ele>170.0</ele><time>2026-04-25T09:40:12.999Z</time></trkpt><trkpt lat="45.57452901695374" lon="9.146841871678156"><ele>170.0</ele><time>2026-04-25T09:40:14.999Z</time></trkpt><trkpt lat="45.574448466258694" lon="9.14685662926843"><ele>170.0</ele><time>2026-04-25T09:40:16.999Z</time></trkpt><trkpt lat="45.57438218500271" lon="9.14686511016705"><ele>169.8</ele><time>2026-04-25T09:40:18.999Z</time></trkpt><trkpt lat="45.57430782733018" lon="9.146883578827655"><ele>169.6</ele><time>2026-04-25T09:40:20.999Z</time></trkpt><trkpt lat="45.57421629147725" lon="9.14690956975774"><ele>169.39999999999998</ele><time>2026-04-25T09:40:22.999Z</time></trkpt><trkpt lat="45.57411089307065" lon="9.146936258688553"><ele>169.2</ele><time>2026-04-25T09:40:24.999Z</time></trkpt><trkpt lat="45.57400465019036" lon="9.146966136961296"><ele>169.0</ele><time>2026-04-25T09:40:26.999Z</time></trkpt><trkpt lat="45.573897066150195" lon="9.146999962925491"><ele>169.0</ele><time>2026-04-25T09:40:28.999Z</time></trkpt><trkpt lat="45.57378482812911" lon="9.147030027804899"><ele>169.0</ele><time>2026-04-25T09:40:31Z</time></trkpt><trkpt lat="45.573670429783675" lon="9.14705910146657"><ele>169.0</ele><time>2026-04-25T09:40:33Z</time></trkpt><trkpt lat="45.573559438714135" lon="9.14709727253376"><ele>169.0</ele><time>2026-04-25T09:40:35Z</time></trkpt><trkpt lat="45.57343830722734" lon="9.147130117856685"><ele>168.83333333333334</ele><time>2026-04-25T09:40:37Z</time></trkpt><trkpt lat="45.573375319809756" lon="9.147148487240772"><ele>168.66666666666669</ele><time>2026-04-25T09:40:38Z</time></trkpt><trkpt lat="45.57330923703272" lon="9.147165845676152"><ele>168.5</ele><time>2026-04-25T09:40:39Z</time></trkpt><trkpt lat="45.57324523820918" lon="9.147185975553922"><ele>168.33333333333334</ele><time>2026-04-25T09:40:40Z</time></trkpt><trkpt lat="45.57312345808963" lon="9.147226985897518"><ele>168.16666666666666</ele><time>2026-04-25T09:40:42Z</time></trkpt><trkpt lat="45.57305983339214" lon="9.14724668389477"><ele>168.0</ele><time>2026-04-25T09:40:43Z</time></trkpt><trkpt lat="45.572989690479204" lon="9.147266447851127"><ele>168.0</ele><time>2026-04-25T09:40:44Z</time></trkpt><trkpt lat="45.572916333899876" lon="9.14729066740215"><ele>168.0</ele><time>2026-04-25T09:40:45Z</time></trkpt><trkpt lat="45.57284115225987" lon="9.147319474471402"><ele>168.0</ele><time>2026-04-25T09:40:46Z</time></trkpt><trkpt lat="45.57276753416175" lon="9.147349737285264"><ele>168.0</ele><time>2026-04-25T09:40:47Z</time></trkpt><trkpt lat="45.572690656374355" lon="9.147382253292141"><ele>168.0</ele><time>2026-04-25T09:40:48Z</time></trkpt><trkpt lat="45.57261386354601" lon="9.147418385555383"><ele>168.0</ele><time>2026-04-25T09:40:49Z</time></trkpt><trkpt lat="45.57253527391437" lon="9.147461614270604"><ele>168.16666666666666</ele><time>2026-04-25T09:40:50Z</time></trkpt><trkpt lat="45.5724553793491" lon="9.147500724620802"><ele>168.33333333333334</ele><time>2026-04-25T09:40:51Z</time></trkpt><trkpt lat="45.57237370095741" lon="9.147539895237095"><ele>168.5</ele><time>2026-04-25T09:40:52Z</time></trkpt><trkpt lat="45.57229208999426" lon="9.147579426226082"><ele>168.66666666666669</ele><time>2026-04-25T09:40:53Z</time></trkpt><trkpt lat="45.572207336324176" lon="9.147619889984705"><ele>168.83333333333334</ele><time>2026-04-25T09:40:54Z</time></trkpt><trkpt lat="45.57212205125452" lon="9.147657241047067"><ele>169.0</ele><time>2026-04-25T09:40:55Z</time></trkpt><trkpt lat="45.57203784838116" lon="9.147692001039962"><ele>168.66666666666669</ele><time>2026-04-25T09:40:56Z</time></trkpt><trkpt lat="45.571955357916" lon="9.147724804507886"><ele>168.33333333333334</ele><time>2026-04-25T09:40:57Z</time></trkpt><trkpt lat="45.57187519474235" lon="9.147757604102443"><ele>168.0</ele><time>2026-04-25T09:40:58Z</time></trkpt><trkpt lat="45.57179579163057" lon="9.147788663838062"><ele>167.66666666666666</ele><time>2026-04-25T09:40:59Z</time></trkpt><trkpt lat="45.57171448207614" lon="9.147818883419083"><ele>167.33333333333331</ele><time>2026-04-25T09:41:00Z</time></trkpt><trkpt lat="45.57162698341728" lon="9.147849195340283"><ele>167.0</ele><time>2026-04-25T09:41:01Z</time></trkpt><trkpt lat="45.57154102041348" lon="9.147878380822513"><ele>167.0</ele><time>2026-04-25T09:41:02Z</time></trkpt><trkpt lat="45.57145291117247" lon="9.147911181351027"><ele>167.0</ele><time>2026-04-25T09:41:03Z</time></trkpt><trkpt lat="45.57136410248768" lon="9.147945732279963"><ele>167.0</ele><time>2026-04-25T09:41:04Z</time></trkpt><trkpt lat="45.571275920958904" lon="9.147983171086421"><ele>167.0</ele><time>2026-04-25T09:41:05Z</time></trkpt><trkpt lat="45.57118419434789" lon="9.14801331548502"><ele>167.0</ele><time>2026-04-25T09:41:06Z</time></trkpt><trkpt lat="45.57109191992677" lon="9.148045812751166"><ele>167.2</ele><time>2026-04-25T09:41:07Z</time></trkpt><trkpt lat="45.57099798136143" lon="9.148077025395002"><ele>167.39999999999998</ele><time>2026-04-25T09:41:08Z</time></trkpt><trkpt lat="45.57090220905581" lon="9.148110696704785"><ele>167.60000000000002</ele><time>2026-04-25T09:41:09Z</time></trkpt><trkpt lat="45.5708090115258" lon="9.148141359810834"><ele>167.8</ele><time>2026-04-25T09:41:10Z</time></trkpt><trkpt lat="45.570713185214906" lon="9.148172291892598"><ele>168.0</ele><time>2026-04-25T09:41:11Z</time></trkpt><trkpt lat="45.57062006296561" lon="9.14820664056289"><ele>167.60000000000002</ele><time>2026-04-25T09:41:12Z</time></trkpt><trkpt lat="45.5705288503463" lon="9.148241545940275"><ele>167.20000000000002</ele><time>2026-04-25T09:41:13Z</time></trkpt><trkpt lat="45.570439278715824" lon="9.148273773853457"><ele>166.8</ele><time>2026-04-25T09:41:14Z</time></trkpt><trkpt lat="45.57035133782584" lon="9.148305575941926"><ele>166.4</ele><time>2026-04-25T09:41:15Z</time></trkpt><trkpt lat="45.57026668706695" lon="9.148332793891313"><ele>166.0</ele><time>2026-04-25T09:41:16Z</time></trkpt><trkpt lat="45.570182708649774" lon="9.148359557454954"><ele>165.83333333333334</ele><time>2026-04-25T09:41:17Z</time></trkpt><trkpt lat="45.57010056843191" lon="9.148390920992416"><ele>165.66666666666669</ele><time>2026-04-25T09:41:18Z</time></trkpt><trkpt lat="45.570019579004565" lon="9.148418958324854"><ele>165.5</ele><time>2026-04-25T09:41:19Z</time></trkpt><trkpt lat="45.56993930700719" lon="9.148450218687652"><ele>165.33333333333334</ele><time>2026-04-25T09:41:20Z</time></trkpt><trkpt lat="45.569868463005186" lon="9.148476930815365"><ele>165.16666666666666</ele><time>2026-04-25T09:41:21Z</time></trkpt><trkpt lat="45.56980380991147" lon="9.148494009887678"><ele>165.0</ele><time>2026-04-25T09:41:22Z</time></trkpt><trkpt lat="45.569695491961696" lon="9.148526517777716"><ele>165.0</ele><time>2026-04-25T09:41:24Z</time></trkpt><trkpt lat="45.56960454237754" lon="9.148564315564894"><ele>165.0</ele><time>2026-04-25T09:41:26Z</time></trkpt><trkpt lat="45.569492126710514" lon="9.148596936544742"><ele>165.0</ele><time>2026-04-25T09:41:28Z</time></trkpt><trkpt lat="45.569427645667936" lon="9.148616202453912"><ele>165.0</ele><time>2026-04-25T09:41:29Z</time></trkpt><trkpt lat="45.569359282226856" lon="9.148645330374373"><ele>165.0</ele><time>2026-04-25T09:41:30Z</time></trkpt><trkpt lat="45.5692868647545" lon="9.14867654715418"><ele>165.0</ele><time>2026-04-25T09:41:31Z</time></trkpt><trkpt lat="45.56920851121503" lon="9.148710345303277"><ele>165.0</ele><time>2026-04-25T09:41:32Z</time></trkpt><trkpt lat="45.56912897690792" lon="9.148743325466832"><ele>165.0</ele><time>2026-04-25T09:41:33Z</time></trkpt><trkpt lat="45.56904243765051" lon="9.148773219381022"><ele>165.0</ele><time>2026-04-25T09:41:34Z</time></trkpt><trkpt lat="45.56895293228267" lon="9.148799700793383"><ele>165.0</ele><time>2026-04-25T09:41:35Z</time></trkpt><trkpt lat="45.56886348774518" lon="9.148827849983999"><ele>165.0</ele><time>2026-04-25T09:41:36Z</time></trkpt><trkpt lat="45.56877490693096" lon="9.148859187461284"><ele>165.0</ele><time>2026-04-25T09:41:37Z</time></trkpt><trkpt lat="45.568685939767235" lon="9.148890403710585"><ele>165.0</ele><time>2026-04-25T09:41:38Z</time></trkpt><trkpt lat="45.56860002104323" lon="9.148919583028974"><ele>165.0</ele><time>2026-04-25T09:41:39Z</time></trkpt><trkpt lat="45.5685160928301" lon="9.148951331907615"><ele>165.0</ele><time>2026-04-25T09:41:40Z</time></trkpt><trkpt lat="45.5684320237444" lon="9.148981260452436"><ele>165.0</ele><time>2026-04-25T09:41:41Z</time></trkpt><trkpt lat="45.56834754760363" lon="9.14901031321766"><ele>165.0</ele><time>2026-04-25T09:41:42Z</time></trkpt><trkpt lat="45.56826690442576" lon="9.149040653327082"><ele>165.0</ele><time>2026-04-25T09:41:43Z</time></trkpt><trkpt lat="45.568186645690325" lon="9.149067631536287"><ele>164.66666666666666</ele><time>2026-04-25T09:41:44Z</time></trkpt><trkpt lat="45.56810904538438" lon="9.149096991137865"><ele>164.33333333333334</ele><time>2026-04-25T09:41:45Z</time></trkpt><trkpt lat="45.56803101922848" lon="9.149125705775973"><ele>164.0</ele><time>2026-04-25T09:41:46Z</time></trkpt><trkpt lat="45.567949848990615" lon="9.149156776493735"><ele>163.66666666666669</ele><time>2026-04-25T09:41:47Z</time></trkpt><trkpt lat="45.567869880783995" lon="9.149189492491038"><ele>163.33333333333334</ele><time>2026-04-25T09:41:48Z</time></trkpt><trkpt lat="45.56779085773197" lon="9.149220224835469"><ele>163.0</ele><time>2026-04-25T09:41:49Z</time></trkpt><trkpt lat="45.56770827952339" lon="9.149247396974621"><ele>163.0</ele><time>2026-04-25T09:41:50Z</time></trkpt><trkpt lat="45.5676231134005" lon="9.149277247130723"><ele>163.0</ele><time>2026-04-25T09:41:51Z</time></trkpt><trkpt lat="45.56753840400333" lon="9.149299338062615"><ele>163.0</ele><time>2026-04-25T09:41:52Z</time></trkpt><trkpt lat="45.56745604653309" lon="9.149328725731941"><ele>163.0</ele><time>2026-04-25T09:41:53Z</time></trkpt><trkpt lat="45.56737175931862" lon="9.149359309081477"><ele>163.0</ele><time>2026-04-25T09:41:54Z</time></trkpt><trkpt lat="45.56728646824294" lon="9.149391530981372"><ele>163.0</ele><time>2026-04-25T09:41:55Z</time></trkpt><trkpt lat="45.56720342750065" lon="9.149417318160252"><ele>163.0</ele><time>2026-04-25T09:41:56Z</time></trkpt><trkpt lat="45.5671255403601" lon="9.149446255635644"><ele>163.0</ele><time>2026-04-25T09:41:57Z</time></trkpt><trkpt lat="45.567051310188944" lon="9.149477501770312"><ele>163.0</ele><time>2026-04-25T09:41:58Z</time></trkpt><trkpt lat="45.566977845931625" lon="9.149504651446563"><ele>163.0</ele><time>2026-04-25T09:41:59Z</time></trkpt><trkpt lat="45.56690518560484" lon="9.149532550740687"><ele>163.0</ele><time>2026-04-25T09:42:00Z</time></trkpt><trkpt lat="45.5668331446401" lon="9.149556020547601"><ele>163.0</ele><time>2026-04-25T09:42:01Z</time></trkpt><trkpt lat="45.56676216423974" lon="9.149580197806758"><ele>163.0</ele><time>2026-04-25T09:42:02Z</time></trkpt><trkpt lat="45.56668968631292" lon="9.149605021602008"><ele>163.0</ele><time>2026-04-25T09:42:03Z</time></trkpt><trkpt lat="45.56661567444177" lon="9.149631963020044"><ele>163.0</ele><time>2026-04-25T09:42:04Z</time></trkpt><trkpt lat="45.566538462457075" lon="9.149660288664313"><ele>163.0</ele><time>2026-04-25T09:42:05Z</time></trkpt><trkpt lat="45.56645883008951" lon="9.14968827718452"><ele>163.0</ele><time>2026-04-25T09:42:06Z</time></trkpt><trkpt lat="45.566375835387554" lon="9.149719275598175"><ele>163.0</ele><time>2026-04-25T09:42:06.999Z</time></trkpt><trkpt lat="45.5662912833497" lon="9.149752675296158"><ele>163.0</ele><time>2026-04-25T09:42:07.999Z</time></trkpt><trkpt lat="45.566202949971725" lon="9.149783705994743"><ele>163.0</ele><time>2026-04-25T09:42:08.999Z</time></trkpt><trkpt lat="45.56611670029081" lon="9.149812810595472"><ele>163.0</ele><time>2026-04-25T09:42:09.999Z</time></trkpt><trkpt lat="45.566033991973455" lon="9.149841913000994"><ele>163.0</ele><time>2026-04-25T09:42:10.999Z</time></trkpt><trkpt lat="45.56595150862179" lon="9.149872350212721"><ele>163.0</ele><time>2026-04-25T09:42:11.999Z</time></trkpt><trkpt lat="45.56586591071814" lon="9.149899963487666"><ele>163.0</ele><time>2026-04-25T09:42:12.999Z</time></trkpt><trkpt lat="45.56577961155162" lon="9.149928930631908"><ele>162.8</ele><time>2026-04-25T09:42:13.999Z</time></trkpt><trkpt lat="45.565695239613795" lon="9.149961771320275"><ele>162.60000000000002</ele><time>2026-04-25T09:42:14.999Z</time></trkpt><trkpt lat="45.56560918950339" lon="9.14999457440199"><ele>162.39999999999998</ele><time>2026-04-25T09:42:15.999Z</time></trkpt><trkpt lat="45.56552120817462" lon="9.150028648985304"><ele>162.2</ele><time>2026-04-25T09:42:16.999Z</time></trkpt><trkpt lat="45.565432496765624" lon="9.150060252914027"><ele>162.0</ele><time>2026-04-25T09:42:17.999Z</time></trkpt><trkpt lat="45.56534396258162" lon="9.150090881884227"><ele>162.0</ele><time>2026-04-25T09:42:18.999Z</time></trkpt><trkpt lat="45.56525522332907" lon="9.150118136906233"><ele>162.0</ele><time>2026-04-25T09:42:19.999Z</time></trkpt><trkpt lat="45.56516889465863" lon="9.150148266807896"><ele>162.0</ele><time>2026-04-25T09:42:20.999Z</time></trkpt><trkpt lat="45.56508441396546" lon="9.150184833677693"><ele>162.0</ele><time>2026-04-25T09:42:21.999Z</time></trkpt><trkpt lat="45.56499596024971" lon="9.1502217263581"><ele>162.0</ele><time>2026-04-25T09:42:22.999Z</time></trkpt><trkpt lat="45.564905370951145" lon="9.150256491667044"><ele>162.0</ele><time>2026-04-25T09:42:23.999Z</time></trkpt><trkpt lat="45.56481342995315" lon="9.150288148804488"><ele>162.0</ele><time>2026-04-25T09:42:24.999Z</time></trkpt><trkpt lat="45.56471967755075" lon="9.150318666872446"><ele>162.0</ele><time>2026-04-25T09:42:25.999Z</time></trkpt><trkpt lat="45.56463200620833" lon="9.150348634347974"><ele>162.0</ele><time>2026-04-25T09:42:26.999Z</time></trkpt><trkpt lat="45.56455550813067" lon="9.15037701544544"><ele>162.0</ele><time>2026-04-25T09:42:27.999Z</time></trkpt><trkpt lat="45.56448688525103" lon="9.150396366365765"><ele>162.0</ele><time>2026-04-25T09:42:28.999Z</time></trkpt><trkpt lat="45.56438070235196" lon="9.15042551768346"><ele>162.33333333333334</ele><time>2026-04-25T09:42:30.999Z</time></trkpt><trkpt lat="45.564306809216795" lon="9.150454047183574"><ele>162.66666666666666</ele><time>2026-04-25T09:42:32.999Z</time></trkpt><trkpt lat="45.56423588957314" lon="9.150473026292707"><ele>163.0</ele><time>2026-04-25T09:42:34.999Z</time></trkpt><trkpt lat="45.56416295412981" lon="9.15050364010111"><ele>163.33333333333331</ele><time>2026-04-25T09:42:37Z</time></trkpt><trkpt lat="45.56406608206961" lon="9.150540441683798"><ele>163.66666666666666</ele><time>2026-04-25T09:42:39Z</time></trkpt><trkpt lat="45.56395854747928" lon="9.150581332312521"><ele>164.0</ele><time>2026-04-25T09:42:41Z</time></trkpt><trkpt lat="45.56389591685595" lon="9.150605608881236"><ele>163.99999999999997</ele><time>2026-04-25T09:42:42Z</time></trkpt><trkpt lat="45.56383177212171" lon="9.15063232833003"><ele>164.0</ele><time>2026-04-25T09:42:43Z</time></trkpt><trkpt lat="45.56376790593428" lon="9.150659021260727"><ele>164.0</ele><time>2026-04-25T09:42:44Z</time></trkpt><trkpt lat="45.56370590753486" lon="9.150681893669402"><ele>164.0</ele><time>2026-04-25T09:42:45Z</time></trkpt><trkpt lat="45.56364396716972" lon="9.150704244339325"><ele>164.0</ele><time>2026-04-25T09:42:46Z</time></trkpt><trkpt lat="45.5635818997549" lon="9.150727548221013"><ele>163.99999999999997</ele><time>2026-04-25T09:42:47Z</time></trkpt><trkpt lat="45.56351735133936" lon="9.150747534958105"><ele>164.0</ele><time>2026-04-25T09:42:48Z</time></trkpt><trkpt lat="45.56344878806632" lon="9.150765759621308"><ele>163.33333333333331</ele><time>2026-04-25T09:42:49Z</time></trkpt><trkpt lat="45.56338222994818" lon="9.15079173468248"><ele>162.66666666666666</ele><time>2026-04-25T09:42:50Z</time></trkpt><trkpt lat="45.56331748247347" lon="9.150816352505487"><ele>162.0</ele><time>2026-04-25T09:42:51Z</time></trkpt><trkpt lat="45.56325400003625" lon="9.15084087178613"><ele>161.33333333333334</ele><time>2026-04-25T09:42:52Z</time></trkpt><trkpt lat="45.56319024858798" lon="9.150865541711545"><ele>160.66666666666669</ele><time>2026-04-25T09:42:53Z</time></trkpt><trkpt lat="45.56312706215441" lon="9.150885438490972"><ele>160.0</ele><time>2026-04-25T09:42:54Z</time></trkpt><trkpt lat="45.56301500475384" lon="9.150940742258713"><ele>160.0</ele><time>2026-04-25T09:42:56Z</time></trkpt><trkpt lat="45.56290783149447" lon="9.151004407894069"><ele>160.0</ele><time>2026-04-25T09:42:58Z</time></trkpt><trkpt lat="45.562809162231424" lon="9.15104363782792"><ele>160.0</ele><time>2026-04-25T09:43:00Z</time></trkpt><trkpt lat="45.56274061914817" lon="9.151055000843515"><ele>160.0</ele><time>2026-04-25T09:43:02Z</time></trkpt><trkpt lat="45.562676361477735" lon="9.151037515369184"><ele>160.0</ele><time>2026-04-25T09:43:04Z</time></trkpt><trkpt lat="45.562593115307614" lon="9.151064573299108"><ele>160.0</ele><time>2026-04-25T09:43:07Z</time></trkpt><trkpt lat="45.562519958753114" lon="9.151096149680827"><ele>160.5</ele><time>2026-04-25T09:43:09Z</time></trkpt><trkpt lat="45.56242905247838" lon="9.151132925384587"><ele>161.0</ele><time>2026-04-25T09:43:11Z</time></trkpt><trkpt lat="45.56232128264376" lon="9.15117114668329"><ele>161.5</ele><time>2026-04-25T09:43:13Z</time></trkpt><trkpt lat="45.56219928632113" lon="9.151218115727932"><ele>162.0</ele><time>2026-04-25T09:43:15Z</time></trkpt><trkpt lat="45.56207959565585" lon="9.15125884709602"><ele>162.0</ele><time>2026-04-25T09:43:17Z</time></trkpt><trkpt lat="45.5619723549588" lon="9.151305457197529"><ele>162.0</ele><time>2026-04-25T09:43:19Z</time></trkpt><trkpt lat="45.56187080542683" lon="9.151334328484998"><ele>162.0</ele><time>2026-04-25T09:43:21Z</time></trkpt><trkpt lat="45.561771060707386" lon="9.15136239941803"><ele>162.0</ele><time>2026-04-25T09:43:23Z</time></trkpt><trkpt lat="45.56167292142769" lon="9.151397418233904"><ele>162.0</ele><time>2026-04-25T09:43:25Z</time></trkpt><trkpt lat="45.561564508451184" lon="9.151438569997488"><ele>162.0</ele><time>2026-04-25T09:43:27Z</time></trkpt><trkpt lat="45.56150354842861" lon="9.151462265995685"><ele>162.0</ele><time>2026-04-25T09:43:28Z</time></trkpt><trkpt lat="45.56143861114719" lon="9.151489738855934"><ele>162.0</ele><time>2026-04-25T09:43:29Z</time></trkpt><trkpt lat="45.56137513344976" lon="9.151516224429677"><ele>162.0</ele><time>2026-04-25T09:43:30Z</time></trkpt><trkpt lat="45.56131039013237" lon="9.151538603266062"><ele>162.0</ele><time>2026-04-25T09:43:31Z</time></trkpt><trkpt lat="45.56124491072482" lon="9.151560742898058"><ele>162.0</ele><time>2026-04-25T09:43:32Z</time></trkpt><trkpt lat="45.56118133328192" lon="9.151584208654803"><ele>162.0</ele><time>2026-04-25T09:43:33Z</time></trkpt><trkpt lat="45.561119564409765" lon="9.151605488976834"><ele>161.85714285714286</ele><time>2026-04-25T09:43:34Z</time></trkpt><trkpt lat="45.5610542969868" lon="9.151630514270344"><ele>161.71428571428572</ele><time>2026-04-25T09:43:35Z</time></trkpt><trkpt lat="45.560988442160365" lon="9.151651327044526"><ele>161.57142857142856</ele><time>2026-04-25T09:43:36Z</time></trkpt><trkpt lat="45.56091824871357" lon="9.15167439519032"><ele>161.42857142857144</ele><time>2026-04-25T09:43:37Z</time></trkpt><trkpt lat="45.56084602144007" lon="9.151699020688389"><ele>161.28571428571428</ele><time>2026-04-25T09:43:38Z</time></trkpt><trkpt lat="45.56077426564273" lon="9.151727258803184"><ele>161.14285714285714</ele><time>2026-04-25T09:43:39Z</time></trkpt><trkpt lat="45.560701872903756" lon="9.151759060189129"><ele>161.0</ele><time>2026-04-25T09:43:40Z</time></trkpt><trkpt lat="45.56062623284673" lon="9.151787658096831"><ele>161.0</ele><time>2026-04-25T09:43:41Z</time></trkpt><trkpt lat="45.56055282197558" lon="9.151815267746835"><ele>161.0</ele><time>2026-04-25T09:43:42Z</time></trkpt><trkpt lat="45.560479950840026" lon="9.151840413325163"><ele>161.0</ele><time>2026-04-25T09:43:43Z</time></trkpt><trkpt lat="45.56040570841337" lon="9.151865809257895"><ele>161.0</ele><time>2026-04-25T09:43:44Z</time></trkpt><trkpt lat="45.560329291128404" lon="9.151893103156326"><ele>161.0</ele><time>2026-04-25T09:43:45Z</time></trkpt><trkpt lat="45.56025018230214" lon="9.151925197672846"><ele>161.0</ele><time>2026-04-25T09:43:46Z</time></trkpt><trkpt lat="45.56017040188871" lon="9.151957352694097"><ele>161.0</ele><time>2026-04-25T09:43:47Z</time></trkpt><trkpt lat="45.560089174033905" lon="9.151988496872036"><ele>161.0</ele><time>2026-04-25T09:43:48Z</time></trkpt><trkpt lat="45.56000698431815" lon="9.152019283471052"><ele>161.0</ele><time>2026-04-25T09:43:49Z</time></trkpt><trkpt lat="45.55992644716991" lon="9.15204722564007"><ele>161.0</ele><time>2026-04-25T09:43:50Z</time></trkpt><trkpt lat="45.55984736228221" lon="9.152076393734653"><ele>161.0</ele><time>2026-04-25T09:43:51Z</time></trkpt><trkpt lat="45.559771033527156" lon="9.152106316530086"><ele>161.0</ele><time>2026-04-25T09:43:52Z</time></trkpt><trkpt lat="45.55969522210862" lon="9.152135148019795"><ele>161.0</ele><time>2026-04-25T09:43:53Z</time></trkpt><trkpt lat="45.55962232957955" lon="9.15216651290902"><ele>161.0</ele><time>2026-04-25T09:43:54Z</time></trkpt><trkpt lat="45.559549550303714" lon="9.15219610593152"><ele>161.0</ele><time>2026-04-25T09:43:55Z</time></trkpt><trkpt lat="45.5594775860989" lon="9.152219832259279"><ele>161.0</ele><time>2026-04-25T09:43:56Z</time></trkpt><trkpt lat="45.55940796984922" lon="9.152247022803357"><ele>161.0</ele><time>2026-04-25T09:43:57Z</time></trkpt><trkpt lat="45.55934067938068" lon="9.15227923369468"><ele>161.0</ele><time>2026-04-25T09:43:58Z</time></trkpt><trkpt lat="45.559274902104406" lon="9.152308765248971"><ele>161.0</ele><time>2026-04-25T09:43:59Z</time></trkpt><trkpt lat="45.55917087006584" lon="9.15234666492072"><ele>160.60000000000002</ele><time>2026-04-25T09:44:01Z</time></trkpt><trkpt lat="45.55909115501051" lon="9.15233041394169"><ele>160.20000000000002</ele><time>2026-04-25T09:44:04Z</time></trkpt><trkpt lat="45.559028557588086" lon="9.15226696440643"><ele>159.8</ele><time>2026-04-25T09:44:06Z</time></trkpt><trkpt lat="45.55894103067413" lon="9.152181769579093"><ele>159.4</ele><time>2026-04-25T09:44:08Z</time></trkpt><trkpt lat="45.55882699371283" lon="9.152101962897177"><ele>159.0</ele><time>2026-04-25T09:44:10Z</time></trkpt><trkpt lat="45.55875484245819" lon="9.152091884329613"><ele>158.4</ele><time>2026-04-25T09:44:11Z</time></trkpt><trkpt lat="45.55863619231798" lon="9.152120091938247"><ele>157.8</ele><time>2026-04-25T09:44:13Z</time></trkpt><trkpt lat="45.558574625110715" lon="9.152198053165849"><ele>157.2</ele><time>2026-04-25T09:44:14Z</time></trkpt><trkpt lat="45.558530583586126" lon="9.15227191736127"><ele>156.6</ele><time>2026-04-25T09:44:15Z</time></trkpt><trkpt lat="45.55848431801574" lon="9.152360804613721"><ele>156.0</ele><time>2026-04-25T09:44:15.999Z</time></trkpt><trkpt lat="45.558481643311374" lon="9.152543008659492"><ele>156.0</ele><time>2026-04-25T09:44:17.999Z</time></trkpt><trkpt lat="45.55832604827672" lon="9.15255492783363"><ele>156.0</ele><time>2026-04-25T09:44:18.999Z</time></trkpt><trkpt lat="45.558253435698916" lon="9.152588756720561"><ele>156.0</ele><time>2026-04-25T09:44:19.999Z</time></trkpt><trkpt lat="45.558176785824436" lon="9.152617418232524"><ele>156.0</ele><time>2026-04-25T09:44:20.999Z</time></trkpt><trkpt lat="45.5580957766963" lon="9.152644429722528"><ele>156.0</ele><time>2026-04-25T09:44:21.999Z</time></trkpt><trkpt lat="45.55801191239642" lon="9.15267240151866"><ele>156.0</ele><time>2026-04-25T09:44:22.999Z</time></trkpt><trkpt lat="45.557929282030756" lon="9.152699563525006"><ele>156.0</ele><time>2026-04-25T09:44:23.999Z</time></trkpt><trkpt lat="45.557848447856664" lon="9.152731455667345"><ele>156.0</ele><time>2026-04-25T09:44:24.999Z</time></trkpt><trkpt lat="45.55776833743832" lon="9.152759736065118"><ele>156.0</ele><time>2026-04-25T09:44:25.999Z</time></trkpt><trkpt lat="45.55768665529162" lon="9.152786366185891"><ele>156.0</ele><time>2026-04-25T09:44:26.999Z</time></trkpt><trkpt lat="45.55760520816555" lon="9.152815301557002"><ele>156.0</ele><time>2026-04-25T09:44:27.999Z</time></trkpt><trkpt lat="45.55752011310384" lon="9.15284340366833"><ele>156.33333333333334</ele><time>2026-04-25T09:44:28.999Z</time></trkpt><trkpt lat="45.55743780039556" lon="9.152870915628995"><ele>156.66666666666666</ele><time>2026-04-25T09:44:29.999Z</time></trkpt><trkpt lat="45.557358188972124" lon="9.152898563236286"><ele>157.0</ele><time>2026-04-25T09:44:30.999Z</time></trkpt><trkpt lat="45.55727956245888" lon="9.152930095484065"><ele>157.33333333333331</ele><time>2026-04-25T09:44:31.999Z</time></trkpt><trkpt lat="45.55719712874818" lon="9.152960880461984"><ele>157.66666666666666</ele><time>2026-04-25T09:44:32.999Z</time></trkpt><trkpt lat="45.55711543889484" lon="9.152989720899544"><ele>158.0</ele><time>2026-04-25T09:44:33.999Z</time></trkpt><trkpt lat="45.55703001104553" lon="9.153016760415136"><ele>158.16666666666666</ele><time>2026-04-25T09:44:34.999Z</time></trkpt><trkpt lat="45.556947624381266" lon="9.153043816024384"><ele>158.33333333333331</ele><time>2026-04-25T09:44:35.999Z</time></trkpt><trkpt lat="45.556865264295006" lon="9.153076737453903"><ele>158.5</ele><time>2026-04-25T09:44:36.999Z</time></trkpt><trkpt lat="45.556781099467194" lon="9.153104094007007"><ele>158.66666666666666</ele><time>2026-04-25T09:44:37.999Z</time></trkpt><trkpt lat="45.55669564850781" lon="9.153127697330458"><ele>158.83333333333334</ele><time>2026-04-25T09:44:38.999Z</time></trkpt><trkpt lat="45.55660821464309" lon="9.153156535744817"><ele>159.0</ele><time>2026-04-25T09:44:39.999Z</time></trkpt><trkpt lat="45.55652396672313" lon="9.15318718795618"><ele>159.0</ele><time>2026-04-25T09:44:40.999Z</time></trkpt><trkpt lat="45.556441815523804" lon="9.153216890357786"><ele>159.0</ele><time>2026-04-25T09:44:42Z</time></trkpt><trkpt lat="45.556358462617915" lon="9.153247197093282"><ele>159.0</ele><time>2026-04-25T09:44:43Z</time></trkpt><trkpt lat="45.55627614839695" lon="9.153276551860486"><ele>159.0</ele><time>2026-04-25T09:44:44Z</time></trkpt><trkpt lat="45.556194808404825" lon="9.15330315784432"><ele>159.0</ele><time>2026-04-25T09:44:45Z</time></trkpt><trkpt lat="45.55611130196243" lon="9.153329138602091"><ele>159.0</ele><time>2026-04-25T09:44:46Z</time></trkpt><trkpt lat="45.556029403015394" lon="9.1533528096919"><ele>159.0</ele><time>2026-04-25T09:44:47Z</time></trkpt><trkpt lat="45.55594900583297" lon="9.15338107733296"><ele>159.0</ele><time>2026-04-25T09:44:48Z</time></trkpt><trkpt lat="45.55586803743924" lon="9.153411937725474"><ele>159.0</ele><time>2026-04-25T09:44:49Z</time></trkpt><trkpt lat="45.55578676184111" lon="9.153440423634878"><ele>159.0</ele><time>2026-04-25T09:44:50Z</time></trkpt><trkpt lat="45.555704859762855" lon="9.153472390031707"><ele>159.0</ele><time>2026-04-25T09:44:51Z</time></trkpt><trkpt lat="45.555622983890956" lon="9.15349977006527"><ele>159.0</ele><time>2026-04-25T09:44:52Z</time></trkpt><trkpt lat="45.55553863885899" lon="9.1535242326145"><ele>159.0</ele><time>2026-04-25T09:44:53Z</time></trkpt><trkpt lat="45.555455837547186" lon="9.153549120209005"><ele>159.0</ele><time>2026-04-25T09:44:54Z</time></trkpt><trkpt lat="45.5553763431526" lon="9.153576604410915"><ele>159.0</ele><time>2026-04-25T09:44:55Z</time></trkpt><trkpt lat="45.555294745322364" lon="9.153606150161599"><ele>159.0</ele><time>2026-04-25T09:44:56Z</time></trkpt><trkpt lat="45.55521291648992" lon="9.153636958035628"><ele>159.0</ele><time>2026-04-25T09:44:57Z</time></trkpt><trkpt lat="45.55512839560221" lon="9.153667622992392"><ele>159.0</ele><time>2026-04-25T09:44:58Z</time></trkpt><trkpt lat="45.55504435965306" lon="9.153694462992103"><ele>159.0</ele><time>2026-04-25T09:44:59Z</time></trkpt><trkpt lat="45.554963290627036" lon="9.1537218140109"><ele>159.0</ele><time>2026-04-25T09:45:00Z</time></trkpt><trkpt lat="45.554881726551294" lon="9.15374941774563"><ele>159.0</ele><time>2026-04-25T09:45:01Z</time></trkpt><trkpt lat="45.55480258230798" lon="9.15378126763607"><ele>159.0</ele><time>2026-04-25T09:45:02Z</time></trkpt><trkpt lat="45.554725926472436" lon="9.15380831606397"><ele>159.0</ele><time>2026-04-25T09:45:03Z</time></trkpt><trkpt lat="45.55465074460181" lon="9.153834049098498"><ele>159.0</ele><time>2026-04-25T09:45:04Z</time></trkpt><trkpt lat="45.55457847258985" lon="9.153862726677538"><ele>159.5</ele><time>2026-04-25T09:45:05Z</time></trkpt><trkpt lat="45.55450642238536" lon="9.153887761325974"><ele>160.0</ele><time>2026-04-25T09:45:06Z</time></trkpt><trkpt lat="45.55443467776211" lon="9.153910030208545"><ele>160.5</ele><time>2026-04-25T09:45:07Z</time></trkpt><trkpt lat="45.55435712387613" lon="9.153933613287244"><ele>161.0</ele><time>2026-04-25T09:45:08Z</time></trkpt><trkpt lat="45.55427921322361" lon="9.15396071692326"><ele>161.5</ele><time>2026-04-25T09:45:09Z</time></trkpt><trkpt lat="45.55420411381352" lon="9.153989666392011"><ele>162.0</ele><time>2026-04-25T09:45:10Z</time></trkpt><trkpt lat="45.55413068237139" lon="9.154012984205322"><ele>161.33333333333334</ele><time>2026-04-25T09:45:11Z</time></trkpt><trkpt lat="45.554054757067235" lon="9.154038405293385"><ele>160.66666666666666</ele><time>2026-04-25T09:45:12Z</time></trkpt><trkpt lat="45.55397290075098" lon="9.154066089256498"><ele>160.0</ele><time>2026-04-25T09:45:13Z</time></trkpt><trkpt lat="45.55389246611241" lon="9.154093014438978"><ele>159.33333333333331</ele><time>2026-04-25T09:45:14Z</time></trkpt><trkpt lat="45.55381422056699" lon="9.154121334327245"><ele>158.66666666666666</ele><time>2026-04-25T09:45:15Z</time></trkpt><trkpt lat="45.5537324874714" lon="9.1541514324139"><ele>158.0</ele><time>2026-04-25T09:45:16Z</time></trkpt><trkpt lat="45.55365037112689" lon="9.154179528283251"><ele>157.66666666666666</ele><time>2026-04-25T09:45:17Z</time></trkpt><trkpt lat="45.55356785043527" lon="9.154210031425219"><ele>157.33333333333331</ele><time>2026-04-25T09:45:18Z</time></trkpt><trkpt lat="45.55348458004218" lon="9.154238401122727"><ele>157.0</ele><time>2026-04-25T09:45:19Z</time></trkpt><trkpt lat="45.55340081410823" lon="9.15426527090759"><ele>156.66666666666666</ele><time>2026-04-25T09:45:20Z</time></trkpt><trkpt lat="45.55331939302186" lon="9.154290336867843"><ele>156.33333333333334</ele><time>2026-04-25T09:45:21Z</time></trkpt><trkpt lat="45.55324075924777" lon="9.154314651280375"><ele>156.0</ele><time>2026-04-25T09:45:22Z</time></trkpt><trkpt lat="45.55316255699537" lon="9.154340394508923"><ele>156.0</ele><time>2026-04-25T09:45:23Z</time></trkpt><trkpt lat="45.55308605799466" lon="9.154368631105367"><ele>156.0</ele><time>2026-04-25T09:45:24Z</time></trkpt><trkpt lat="45.55301093336095" lon="9.154394527162198"><ele>156.0</ele><time>2026-04-25T09:45:25Z</time></trkpt><trkpt lat="45.55293865660854" lon="9.154421875925271"><ele>156.0</ele><time>2026-04-25T09:45:26Z</time></trkpt><trkpt lat="45.552868016917046" lon="9.154451819593437"><ele>156.0</ele><time>2026-04-25T09:45:27Z</time></trkpt><trkpt lat="45.552797518009754" lon="9.154481451766253"><ele>156.0</ele><time>2026-04-25T09:45:28Z</time></trkpt><trkpt lat="45.552726913123244" lon="9.154509195455338"><ele>156.5</ele><time>2026-04-25T09:45:29Z</time></trkpt><trkpt lat="45.55265077562658" lon="9.1545312902001"><ele>157.0</ele><time>2026-04-25T09:45:30Z</time></trkpt><trkpt lat="45.552575339386124" lon="9.15454792159326"><ele>157.5</ele><time>2026-04-25T09:45:31Z</time></trkpt><trkpt lat="45.55250184233047" lon="9.154568504790848"><ele>158.0</ele><time>2026-04-25T09:45:32Z</time></trkpt><trkpt lat="45.55242638015196" lon="9.154591575372892"><ele>158.5</ele><time>2026-04-25T09:45:33Z</time></trkpt><trkpt lat="45.552346995131906" lon="9.15461709152743"><ele>159.0</ele><time>2026-04-25T09:45:34Z</time></trkpt><trkpt lat="45.55226507201006" lon="9.154642546644034"><ele>159.0</ele><time>2026-04-25T09:45:35Z</time></trkpt><trkpt lat="45.552180564688825" lon="9.154669242409293"><ele>159.0</ele><time>2026-04-25T09:45:36Z</time></trkpt><trkpt lat="45.55209857488592" lon="9.154697142987015"><ele>159.0</ele><time>2026-04-25T09:45:37Z</time></trkpt><trkpt lat="45.55202216034693" lon="9.154723553780487"><ele>159.0</ele><time>2026-04-25T09:45:38Z</time></trkpt><trkpt lat="45.55194310198443" lon="9.154749483803176"><ele>159.0</ele><time>2026-04-25T09:45:39Z</time></trkpt><trkpt lat="45.55186328884755" lon="9.154775361875847"><ele>159.0</ele><time>2026-04-25T09:45:40Z</time></trkpt><trkpt lat="45.551788385044" lon="9.154802095569938"><ele>158.16666666666666</ele><time>2026-04-25T09:45:41Z</time></trkpt><trkpt lat="45.551716109217466" lon="9.154831010906019"><ele>157.33333333333334</ele><time>2026-04-25T09:45:42Z</time></trkpt><trkpt lat="45.55164361688333" lon="9.15485765030353"><ele>156.5</ele><time>2026-04-25T09:45:43Z</time></trkpt><trkpt lat="45.55156909495259" lon="9.15488799829004"><ele>155.66666666666669</ele><time>2026-04-25T09:45:44Z</time></trkpt><trkpt lat="45.55149733630443" lon="9.15491839227029"><ele>154.83333333333334</ele><time>2026-04-25T09:45:45Z</time></trkpt><trkpt lat="45.551421424191446" lon="9.154934193710842"><ele>154.0</ele><time>2026-04-25T09:45:46Z</time></trkpt><trkpt lat="45.55134014477114" lon="9.15494223400313"><ele>154.0</ele><time>2026-04-25T09:45:47Z</time></trkpt><trkpt lat="45.55125692869311" lon="9.15497452657437"><ele>154.0</ele><time>2026-04-25T09:45:48Z</time></trkpt><trkpt lat="45.55117292884668" lon="9.154998654156472"><ele>154.0</ele><time>2026-04-25T09:45:49Z</time></trkpt><trkpt lat="45.55109274212144" lon="9.155022225674662"><ele>154.0</ele><time>2026-04-25T09:45:50Z</time></trkpt><trkpt lat="45.5510123442915" lon="9.155046824507812"><ele>154.0</ele><time>2026-04-25T09:45:51Z</time></trkpt><trkpt lat="45.550928293423134" lon="9.155072920081077"><ele>154.0</ele><time>2026-04-25T09:45:52Z</time></trkpt><trkpt lat="45.550843745774436" lon="9.155101302658927"><ele>154.0</ele><time>2026-04-25T09:45:53Z</time></trkpt><trkpt lat="45.550761102688384" lon="9.155128842061002"><ele>154.0</ele><time>2026-04-25T09:45:54Z</time></trkpt><trkpt lat="45.55068087450916" lon="9.155153872466055"><ele>154.0</ele><time>2026-04-25T09:45:55Z</time></trkpt><trkpt lat="45.550602492040106" lon="9.15518032469427"><ele>154.0</ele><time>2026-04-25T09:45:56Z</time></trkpt><trkpt lat="45.55053198505996" lon="9.155204239315607"><ele>154.0</ele><time>2026-04-25T09:45:57Z</time></trkpt><trkpt lat="45.55046909372569" lon="9.155220138817173"><ele>154.0</ele><time>2026-04-25T09:45:58Z</time></trkpt><trkpt lat="45.55036363642216" lon="9.155227203234622"><ele>154.16666666666669</ele><time>2026-04-25T09:46:00Z</time></trkpt><trkpt lat="45.55028104531675" lon="9.155248208650933"><ele>154.33333333333334</ele><time>2026-04-25T09:46:02Z</time></trkpt><trkpt lat="45.55021264039137" lon="9.155285078202386"><ele>154.5</ele><time>2026-04-25T09:46:05Z</time></trkpt><trkpt lat="45.550125078288374" lon="9.15530426306697"><ele>154.66666666666666</ele><time>2026-04-25T09:46:08Z</time></trkpt><trkpt lat="45.55004946864828" lon="9.155321427829994"><ele>154.83333333333331</ele><time>2026-04-25T09:46:10Z</time></trkpt><trkpt lat="45.54994750667298" lon="9.155344278314217"><ele>155.0</ele><time>2026-04-25T09:46:12Z</time></trkpt><trkpt lat="45.549867417327114" lon="9.155388877812685"><ele>155.0</ele><time>2026-04-25T09:46:14Z</time></trkpt><trkpt lat="45.54976190137644" lon="9.155405102458488"><ele>155.0</ele><time>2026-04-25T09:46:16Z</time></trkpt><trkpt lat="45.54963503959873" lon="9.155418962154027"><ele>155.0</ele><time>2026-04-25T09:46:18Z</time></trkpt><trkpt lat="45.54956489967274" lon="9.155440038142723"><ele>155.0</ele><time>2026-04-25T09:46:19Z</time></trkpt><trkpt lat="45.54949978251435" lon="9.155459540867392"><ele>155.0</ele><time>2026-04-25T09:46:20Z</time></trkpt><trkpt lat="45.54937690693814" lon="9.155485933656264"><ele>155.0</ele><time>2026-04-25T09:46:22Z</time></trkpt><trkpt lat="45.54926109274704" lon="9.15552144735255"><ele>155.0</ele><time>2026-04-25T09:46:24Z</time></trkpt><trkpt lat="45.54914938300893" lon="9.155554120336065"><ele>155.0</ele><time>2026-04-25T09:46:26Z</time></trkpt><trkpt lat="45.5490439319068" lon="9.15559087043539"><ele>155.0</ele><time>2026-04-25T09:46:28Z</time></trkpt><trkpt lat="45.54894390911907" lon="9.155622506149577"><ele>155.0</ele><time>2026-04-25T09:46:29.999Z</time></trkpt><trkpt lat="45.54887827061342" lon="9.155649574944123"><ele>155.0</ele><time>2026-04-25T09:46:31.999Z</time></trkpt><trkpt lat="45.548798513874495" lon="9.155654800168232"><ele>155.0</ele><time>2026-04-25T09:46:34.999Z</time></trkpt><trkpt lat="45.54873598877226" lon="9.15568598403948"><ele>155.0</ele><time>2026-04-25T09:46:36.999Z</time></trkpt><trkpt lat="45.54867609778916" lon="9.155718567188936"><ele>155.0</ele><time>2026-04-25T09:46:38.999Z</time></trkpt><trkpt lat="45.548616321522495" lon="9.155755527083187"><ele>155.0</ele><time>2026-04-25T09:46:40.999Z</time></trkpt><trkpt lat="45.54852589224157" lon="9.155802979973862"><ele>155.0</ele><time>2026-04-25T09:46:42.999Z</time></trkpt><trkpt lat="45.54841660385366" lon="9.155851996989645"><ele>155.16666666666666</ele><time>2026-04-25T09:46:44.999Z</time></trkpt><trkpt lat="45.54829183495988" lon="9.155898949618203"><ele>155.33333333333331</ele><time>2026-04-25T09:46:46.999Z</time></trkpt><trkpt lat="45.54822576732221" lon="9.155927850260461"><ele>155.5</ele><time>2026-04-25T09:46:48Z</time></trkpt><trkpt lat="45.548160810402756" lon="9.155949865503612"><ele>155.66666666666666</ele><time>2026-04-25T09:46:49Z</time></trkpt><trkpt lat="45.54809641460237" lon="9.155973970859685"><ele>155.83333333333334</ele><time>2026-04-25T09:46:50Z</time></trkpt><trkpt lat="45.5480280068623" lon="9.156004111122583"><ele>156.0</ele><time>2026-04-25T09:46:51Z</time></trkpt><trkpt lat="45.54795857552752" lon="9.156035370636697"><ele>156.0</ele><time>2026-04-25T09:46:52Z</time></trkpt><trkpt lat="45.54788571324048" lon="9.15606545858591"><ele>156.0</ele><time>2026-04-25T09:46:53Z</time></trkpt><trkpt lat="45.54781485257655" lon="9.156094838602368"><ele>156.0</ele><time>2026-04-25T09:46:54Z</time></trkpt><trkpt lat="45.54774667943485" lon="9.156126742857614"><ele>156.0</ele><time>2026-04-25T09:46:55Z</time></trkpt><trkpt lat="45.54768127049857" lon="9.15615524388734"><ele>156.0</ele><time>2026-04-25T09:46:56Z</time></trkpt><trkpt lat="45.54761715623586" lon="9.156185358090188"><ele>156.0</ele><time>2026-04-25T09:46:57Z</time></trkpt><trkpt lat="45.54755169950581" lon="9.156213658867697"><ele>156.0</ele><time>2026-04-25T09:46:58Z</time></trkpt><trkpt lat="45.547483630615446" lon="9.156245303157872"><ele>155.42857142857144</ele><time>2026-04-25T09:46:59Z</time></trkpt><trkpt lat="45.54741449612928" lon="9.156273951087599"><ele>154.85714285714283</ele><time>2026-04-25T09:47:00Z</time></trkpt><trkpt lat="45.54734858250607" lon="9.156299978014598"><ele>154.28571428571428</ele><time>2026-04-25T09:47:01Z</time></trkpt><trkpt lat="45.547283642939895" lon="9.156327666433898"><ele>153.71428571428572</ele><time>2026-04-25T09:47:02Z</time></trkpt><trkpt lat="45.547219794528665" lon="9.156353923192915"><ele>153.14285714285717</ele><time>2026-04-25T09:47:03Z</time></trkpt><trkpt lat="45.54715711326599" lon="9.156382705991772"><ele>152.57142857142856</ele><time>2026-04-25T09:47:04Z</time></trkpt><trkpt lat="45.5470910949473" lon="9.156408836971206"><ele>152.0</ele><time>2026-04-25T09:47:05Z</time></trkpt><trkpt lat="45.54702446299898" lon="9.156433847836876"><ele>151.85714285714286</ele><time>2026-04-25T09:47:06Z</time></trkpt><trkpt lat="45.54696025840935" lon="9.156459886843624"><ele>151.71428571428572</ele><time>2026-04-25T09:47:07Z</time></trkpt><trkpt lat="45.546898096574694" lon="9.156487915316694"><ele>151.57142857142858</ele><time>2026-04-25T09:47:08Z</time></trkpt><trkpt lat="45.54683399924903" lon="9.156515569695284"><ele>151.42857142857144</ele><time>2026-04-25T09:47:09Z</time></trkpt><trkpt lat="45.546765715952674" lon="9.156543657826175"><ele>151.28571428571428</ele><time>2026-04-25T09:47:10Z</time></trkpt><trkpt lat="45.54669512939642" lon="9.156572148556684"><ele>151.14285714285717</ele><time>2026-04-25T09:47:11Z</time></trkpt><trkpt lat="45.546625494861296" lon="9.156599127938986"><ele>151.0</ele><time>2026-04-25T09:47:12Z</time></trkpt><trkpt lat="45.54655838860569" lon="9.156628997679435"><ele>151.42857142857144</ele><time>2026-04-25T09:47:13Z</time></trkpt><trkpt lat="45.546493688339694" lon="9.156656919866531"><ele>151.85714285714286</ele><time>2026-04-25T09:47:14Z</time></trkpt><trkpt lat="45.5464293909506" lon="9.156682627684217"><ele>152.28571428571428</ele><time>2026-04-25T09:47:15Z</time></trkpt><trkpt lat="45.54636618613118" lon="9.156709910627635"><ele>152.71428571428572</ele><time>2026-04-25T09:47:16Z</time></trkpt><trkpt lat="45.54630369922292" lon="9.156735791147646"><ele>153.14285714285714</ele><time>2026-04-25T09:47:17Z</time></trkpt><trkpt lat="45.546237958875125" lon="9.156762889996651"><ele>153.57142857142858</ele><time>2026-04-25T09:47:18Z</time></trkpt><trkpt lat="45.54617055752478" lon="9.156791914280635"><ele>154.0</ele><time>2026-04-25T09:47:19Z</time></trkpt><trkpt lat="45.54610296713356" lon="9.156819210351994"><ele>154.0</ele><time>2026-04-25T09:47:20Z</time></trkpt><trkpt lat="45.54603271971084" lon="9.156847321613839"><ele>154.0</ele><time>2026-04-25T09:47:21Z</time></trkpt><trkpt lat="45.545961515138295" lon="9.156874257204867"><ele>154.0</ele><time>2026-04-25T09:47:22Z</time></trkpt><trkpt lat="45.54589028223019" lon="9.15690449385219"><ele>154.0</ele><time>2026-04-25T09:47:23Z</time></trkpt><trkpt lat="45.545817034837555" lon="9.156933529001714"><ele>154.0</ele><time>2026-04-25T09:47:24Z</time></trkpt><trkpt lat="45.54573933354605" lon="9.156958748869354"><ele>154.0</ele><time>2026-04-25T09:47:25Z</time></trkpt><trkpt lat="45.54566377548892" lon="9.156988961004418"><ele>154.0</ele><time>2026-04-25T09:47:26Z</time></trkpt><trkpt lat="45.54558808906961" lon="9.157016240394984"><ele>154.0</ele><time>2026-04-25T09:47:27Z</time></trkpt><trkpt lat="45.54551179371485" lon="9.157043188866531"><ele>154.0</ele><time>2026-04-25T09:47:28Z</time></trkpt><trkpt lat="45.545438107986186" lon="9.157071029121912"><ele>154.0</ele><time>2026-04-25T09:47:29Z</time></trkpt><trkpt lat="45.545361903998845" lon="9.157098668274669"><ele>154.0</ele><time>2026-04-25T09:47:30Z</time></trkpt><trkpt lat="45.54528703031652" lon="9.157129402290028"><ele>154.0</ele><time>2026-04-25T09:47:31Z</time></trkpt><trkpt lat="45.54521016761936" lon="9.157159712810692"><ele>153.5</ele><time>2026-04-25T09:47:32Z</time></trkpt><trkpt lat="45.545126580352076" lon="9.157189794577562"><ele>153.0</ele><time>2026-04-25T09:47:33Z</time></trkpt><trkpt lat="45.545042527975106" lon="9.157221033436375"><ele>152.5</ele><time>2026-04-25T09:47:34Z</time></trkpt><trkpt lat="45.5449559547314" lon="9.157255094311667"><ele>152.0</ele><time>2026-04-25T09:47:35Z</time></trkpt><trkpt lat="45.544871763373514" lon="9.157283354904289"><ele>151.5</ele><time>2026-04-25T09:47:36Z</time></trkpt><trkpt lat="45.544786712015174" lon="9.157313223141903"><ele>151.0</ele><time>2026-04-25T09:47:37Z</time></trkpt><trkpt lat="45.54469815901703" lon="9.157347516063485"><ele>151.16666666666669</ele><time>2026-04-25T09:47:38Z</time></trkpt><trkpt lat="45.54460914127812" lon="9.157382147209596"><ele>151.33333333333334</ele><time>2026-04-25T09:47:39Z</time></trkpt><trkpt lat="45.544521237646066" lon="9.157414601037686"><ele>151.5</ele><time>2026-04-25T09:47:40Z</time></trkpt><trkpt lat="45.54443592519626" lon="9.157444425140227"><ele>151.66666666666666</ele><time>2026-04-25T09:47:41Z</time></trkpt><trkpt lat="45.54435146959737" lon="9.157473166759502"><ele>151.83333333333331</ele><time>2026-04-25T09:47:42Z</time></trkpt><trkpt lat="45.544268925014165" lon="9.1575056281932"><ele>152.0</ele><time>2026-04-25T09:47:43Z</time></trkpt><trkpt lat="45.54418692613346" lon="9.157539558377108"><ele>151.7142857142857</ele><time>2026-04-25T09:47:44Z</time></trkpt><trkpt lat="45.544106074780935" lon="9.157567315684224"><ele>151.42857142857144</ele><time>2026-04-25T09:47:45Z</time></trkpt><trkpt lat="45.54402742126579" lon="9.157590347657738"><ele>151.14285714285714</ele><time>2026-04-25T09:47:46Z</time></trkpt><trkpt lat="45.54395831292014" lon="9.157615291393139"><ele>150.85714285714283</ele><time>2026-04-25T09:47:47Z</time></trkpt><trkpt lat="45.54389262199242" lon="9.157638743388816"><ele>150.57142857142856</ele><time>2026-04-25T09:47:48Z</time></trkpt><trkpt lat="45.54382502797161" lon="9.157659872655586"><ele>150.28571428571428</ele><time>2026-04-25T09:47:49Z</time></trkpt><trkpt lat="45.54375838417256" lon="9.157685271310175"><ele>150.0</ele><time>2026-04-25T09:47:50Z</time></trkpt><trkpt lat="45.54368629947012" lon="9.157715904447924"><ele>150.0</ele><time>2026-04-25T09:47:51Z</time></trkpt><trkpt lat="45.543607607290426" lon="9.157746064494397"><ele>150.0</ele><time>2026-04-25T09:47:52Z</time></trkpt><trkpt lat="45.543525946867774" lon="9.157775996974406"><ele>150.0</ele><time>2026-04-25T09:47:53Z</time></trkpt><trkpt lat="45.54344272207828" lon="9.157807736079539"><ele>150.0</ele><time>2026-04-25T09:47:54Z</time></trkpt><trkpt lat="45.543359416491974" lon="9.157836940127506"><ele>150.0</ele><time>2026-04-25T09:47:55Z</time></trkpt><trkpt lat="45.54327962538313" lon="9.157866565099846"><ele>150.0</ele><time>2026-04-25T09:47:56Z</time></trkpt><trkpt lat="45.543202049676054" lon="9.157893515783822"><ele>150.0</ele><time>2026-04-25T09:47:57Z</time></trkpt><trkpt lat="45.54312583872599" lon="9.157920540290263"><ele>150.0</ele><time>2026-04-25T09:47:58Z</time></trkpt><trkpt lat="45.54304680132542" lon="9.157946201246487"><ele>150.0</ele><time>2026-04-25T09:47:59Z</time></trkpt><trkpt lat="45.54296454379726" lon="9.15797557889056"><ele>150.0</ele><time>2026-04-25T09:48:00Z</time></trkpt><trkpt lat="45.54288290411215" lon="9.158006033271336"><ele>150.0</ele><time>2026-04-25T09:48:01Z</time></trkpt><trkpt lat="45.54280360409354" lon="9.158036168994398"><ele>150.0</ele><time>2026-04-25T09:48:02Z</time></trkpt><trkpt lat="45.542722476157415" lon="9.158065269861284"><ele>150.16666666666666</ele><time>2026-04-25T09:48:03Z</time></trkpt><trkpt lat="45.54263859709082" lon="9.158096931752487"><ele>150.33333333333334</ele><time>2026-04-25T09:48:04Z</time></trkpt><trkpt lat="45.54255356676721" lon="9.158129291543082"><ele>150.5</ele><time>2026-04-25T09:48:05Z</time></trkpt><trkpt lat="45.54246996451876" lon="9.158162117495403"><ele>150.66666666666669</ele><time>2026-04-25T09:48:06Z</time></trkpt><trkpt lat="45.54238579961733" lon="9.15819290166028"><ele>150.83333333333334</ele><time>2026-04-25T09:48:07Z</time></trkpt><trkpt lat="45.54230216529207" lon="9.15822421573397"><ele>151.0</ele><time>2026-04-25T09:48:08Z</time></trkpt><trkpt lat="45.54221609384693" lon="9.158258553479337"><ele>151.0</ele><time>2026-04-25T09:48:09Z</time></trkpt><trkpt lat="45.54213418060784" lon="9.158287612024154"><ele>151.0</ele><time>2026-04-25T09:48:10Z</time></trkpt><trkpt lat="45.54205118989986" lon="9.15831718324341"><ele>151.0</ele><time>2026-04-25T09:48:11Z</time></trkpt><trkpt lat="45.54196815806236" lon="9.158346947521089"><ele>151.0</ele><time>2026-04-25T09:48:12Z</time></trkpt><trkpt lat="45.54188242950972" lon="9.158379050520397"><ele>151.0</ele><time>2026-04-25T09:48:13Z</time></trkpt><trkpt lat="45.541796474817936" lon="9.158409900014224"><ele>151.0</ele><time>2026-04-25T09:48:14Z</time></trkpt><trkpt lat="45.54171061129841" lon="9.158439781779698"><ele>150.66666666666669</ele><time>2026-04-25T09:48:15Z</time></trkpt><trkpt lat="45.54162614142508" lon="9.158472115733396"><ele>150.33333333333334</ele><time>2026-04-25T09:48:16Z</time></trkpt><trkpt lat="45.54154475031496" lon="9.158503207064523"><ele>150.0</ele><time>2026-04-25T09:48:17Z</time></trkpt><trkpt lat="45.54146585665272" lon="9.158534510214377"><ele>149.66666666666666</ele><time>2026-04-25T09:48:18Z</time></trkpt><trkpt lat="45.54138703666518" lon="9.158561204540774"><ele>149.33333333333331</ele><time>2026-04-25T09:48:19Z</time></trkpt><trkpt lat="45.54130917883211" lon="9.158589707854988"><ele>149.0</ele><time>2026-04-25T09:48:20Z</time></trkpt><trkpt lat="45.541233270942456" lon="9.158617935255883"><ele>149.16666666666666</ele><time>2026-04-25T09:48:21Z</time></trkpt><trkpt lat="45.54115994355601" lon="9.158640053426451"><ele>149.33333333333331</ele><time>2026-04-25T09:48:22Z</time></trkpt><trkpt lat="45.541088282548" lon="9.158665333364794"><ele>149.5</ele><time>2026-04-25T09:48:23Z</time></trkpt><trkpt lat="45.541024276269326" lon="9.158687669415487"><ele>149.66666666666666</ele><time>2026-04-25T09:48:24Z</time></trkpt><trkpt lat="45.54096102452589" lon="9.158712176019746"><ele>149.83333333333334</ele><time>2026-04-25T09:48:25Z</time></trkpt><trkpt lat="45.540899229778105" lon="9.158732559711687"><ele>150.0</ele><time>2026-04-25T09:48:26Z</time></trkpt><trkpt lat="45.54078902166987" lon="9.158772583622955"><ele>150.0</ele><time>2026-04-25T09:48:28Z</time></trkpt><trkpt lat="45.54072961176263" lon="9.158802537566674"><ele>150.0</ele><time>2026-04-25T09:48:29Z</time></trkpt><trkpt lat="45.540666473208276" lon="9.158834331488343"><ele>150.0</ele><time>2026-04-25T09:48:30Z</time></trkpt><trkpt lat="45.5406010072805" lon="9.158859025099252"><ele>150.0</ele><time>2026-04-25T09:48:31Z</time></trkpt><trkpt lat="45.540538113624045" lon="9.15887755285885"><ele>150.0</ele><time>2026-04-25T09:48:32Z</time></trkpt><trkpt lat="45.540412678544484" lon="9.158916257449558"><ele>150.0</ele><time>2026-04-25T09:48:34Z</time></trkpt><trkpt lat="45.540347645906266" lon="9.15893722240486"><ele>150.14285714285714</ele><time>2026-04-25T09:48:35Z</time></trkpt><trkpt lat="45.540282025729674" lon="9.158958243541415"><ele>150.28571428571428</ele><time>2026-04-25T09:48:36Z</time></trkpt><trkpt lat="45.540217337710345" lon="9.158984523681081"><ele>150.42857142857144</ele><time>2026-04-25T09:48:37Z</time></trkpt><trkpt lat="45.54014637747572" lon="9.15901075633471"><ele>150.57142857142856</ele><time>2026-04-25T09:48:38Z</time></trkpt><trkpt lat="45.54007641402931" lon="9.159032971800011"><ele>150.71428571428572</ele><time>2026-04-25T09:48:39Z</time></trkpt><trkpt lat="45.5400047807313" lon="9.159059682542377"><ele>150.85714285714286</ele><time>2026-04-25T09:48:40Z</time></trkpt><trkpt lat="45.53993584635045" lon="9.159089868737931"><ele>151.0</ele><time>2026-04-25T09:48:40.999Z</time></trkpt><trkpt lat="45.53987101644938" lon="9.15911895826478"><ele>150.66666666666669</ele><time>2026-04-25T09:48:41.999Z</time></trkpt><trkpt lat="45.53980635616802" lon="9.159144089388557"><ele>150.33333333333334</ele><time>2026-04-25T09:48:42.999Z</time></trkpt><trkpt lat="45.53974375674029" lon="9.159164554083306"><ele>150.0</ele><time>2026-04-25T09:48:43.999Z</time></trkpt><trkpt lat="45.53962819238074" lon="9.159190785096863"><ele>149.66666666666666</ele><time>2026-04-25T09:48:45.999Z</time></trkpt><trkpt lat="45.53955789348881" lon="9.159216870630607"><ele>149.33333333333331</ele><time>2026-04-25T09:48:47.999Z</time></trkpt><trkpt lat="45.53947658011257" lon="9.159256514573997"><ele>149.0</ele><time>2026-04-25T09:48:49.999Z</time></trkpt><trkpt lat="45.53936776442823" lon="9.159291566701313"><ele>148.83333333333331</ele><time>2026-04-25T09:48:51.999Z</time></trkpt><trkpt lat="45.5392607927623" lon="9.15931902349237"><ele>148.66666666666666</ele><time>2026-04-25T09:48:54Z</time></trkpt><trkpt lat="45.5391443610634" lon="9.15936412990379"><ele>148.5</ele><time>2026-04-25T09:48:56Z</time></trkpt><trkpt lat="45.53908024158339" lon="9.159386054754147"><ele>148.33333333333334</ele><time>2026-04-25T09:48:57Z</time></trkpt><trkpt lat="45.539016951672274" lon="9.159407678805406"><ele>148.16666666666669</ele><time>2026-04-25T09:48:58Z</time></trkpt><trkpt lat="45.538955735553046" lon="9.15942865827524"><ele>148.0</ele><time>2026-04-25T09:48:59Z</time></trkpt><trkpt lat="45.53889245584697" lon="9.159447288992595"><ele>148.0</ele><time>2026-04-25T09:49:00Z</time></trkpt><trkpt lat="45.53882523517149" lon="9.159471110365464"><ele>148.0</ele><time>2026-04-25T09:49:01Z</time></trkpt><trkpt lat="45.53875625903807" lon="9.159498548674556"><ele>148.0</ele><time>2026-04-25T09:49:02Z</time></trkpt><trkpt lat="45.5386884921536" lon="9.15952422734873"><ele>148.0</ele><time>2026-04-25T09:49:03Z</time></trkpt><trkpt lat="45.53862611400934" lon="9.159555290851422"><ele>148.0</ele><time>2026-04-25T09:49:04Z</time></trkpt><trkpt lat="45.53856387497833" lon="9.159593381648943"><ele>148.0</ele><time>2026-04-25T09:49:05Z</time></trkpt><trkpt lat="45.53850072134331" lon="9.159624911312266"><ele>148.0</ele><time>2026-04-25T09:49:06Z</time></trkpt><trkpt lat="45.53843311213716" lon="9.159682549496644"><ele>148.0</ele><time>2026-04-25T09:49:07Z</time></trkpt><trkpt lat="45.53835594361355" lon="9.159686568264895"><ele>148.0</ele><time>2026-04-25T09:49:08Z</time></trkpt><trkpt lat="45.53828142503795" lon="9.159715586901893"><ele>148.0</ele><time>2026-04-25T09:49:09Z</time></trkpt><trkpt lat="45.53820931325092" lon="9.159734875173584"><ele>148.0</ele><time>2026-04-25T09:49:10Z</time></trkpt><trkpt lat="45.53813715651425" lon="9.159745280694285"><ele>148.0</ele><time>2026-04-25T09:49:11Z</time></trkpt><trkpt lat="45.53806151681114" lon="9.159751902444354"><ele>148.0</ele><time>2026-04-25T09:49:12Z</time></trkpt><trkpt lat="45.537980251889316" lon="9.159763351718231"><ele>148.0</ele><time>2026-04-25T09:49:13Z</time></trkpt><trkpt lat="45.53789824377488" lon="9.159783796873013"><ele>148.0</ele><time>2026-04-25T09:49:14Z</time></trkpt><trkpt lat="45.537815198008076" lon="9.159815165783613"><ele>148.0</ele><time>2026-04-25T09:49:15Z</time></trkpt><trkpt lat="45.53772906603092" lon="9.159846796797678"><ele>148.0</ele><time>2026-04-25T09:49:16Z</time></trkpt><trkpt lat="45.53764331603636" lon="9.159869989303344"><ele>148.0</ele><time>2026-04-25T09:49:17Z</time></trkpt><trkpt lat="45.53756119402673" lon="9.159895328243548"><ele>148.0</ele><time>2026-04-25T09:49:18Z</time></trkpt><trkpt lat="45.53747828333276" lon="9.159925858365435"><ele>148.20000000000002</ele><time>2026-04-25T09:49:19Z</time></trkpt><trkpt lat="45.53739165230096" lon="9.159955953333181"><ele>148.4</ele><time>2026-04-25T09:49:20Z</time></trkpt><trkpt lat="45.53730237753112" lon="9.159988399398676"><ele>148.60000000000002</ele><time>2026-04-25T09:49:21Z</time></trkpt><trkpt lat="45.53720960213719" lon="9.16001643971161"><ele>148.8</ele><time>2026-04-25T09:49:22Z</time></trkpt><trkpt lat="45.537117601602574" lon="9.16004910388601"><ele>149.0</ele><time>2026-04-25T09:49:23Z</time></trkpt><trkpt lat="45.53702957241895" lon="9.160103830837597"><ele>148.6</ele><time>2026-04-25T09:49:24Z</time></trkpt><trkpt lat="45.53692455455857" lon="9.160114298188086"><ele>148.2</ele><time>2026-04-25T09:49:25Z</time></trkpt><trkpt lat="45.536826740314574" lon="9.160146309483226"><ele>147.79999999999998</ele><time>2026-04-25T09:49:26Z</time></trkpt><trkpt lat="45.53672835797606" lon="9.16018492453721"><ele>147.4</ele><time>2026-04-25T09:49:27Z</time></trkpt><trkpt lat="45.53662772164668" lon="9.160218875571385"><ele>147.0</ele><time>2026-04-25T09:49:28Z</time></trkpt><trkpt lat="45.53652503494911" lon="9.160247730700378"><ele>147.0</ele><time>2026-04-25T09:49:29Z</time></trkpt><trkpt lat="45.53642573200946" lon="9.160283764145483"><ele>147.0</ele><time>2026-04-25T09:49:30Z</time></trkpt><trkpt lat="45.536329686933115" lon="9.160321544519846"><ele>147.0</ele><time>2026-04-25T09:49:31Z</time></trkpt><trkpt lat="45.536234263251046" lon="9.160351412657084"><ele>147.0</ele><time>2026-04-25T09:49:32Z</time></trkpt><trkpt lat="45.53614659806211" lon="9.160381623547014"><ele>147.0</ele><time>2026-04-25T09:49:33Z</time></trkpt><trkpt lat="45.53606418518397" lon="9.16040642106906"><ele>147.0</ele><time>2026-04-25T09:49:34Z</time></trkpt><trkpt lat="45.535988090709395" lon="9.160431206097861"><ele>147.0</ele><time>2026-04-25T09:49:35Z</time></trkpt><trkpt lat="45.535914098043705" lon="9.160461376793961"><ele>147.0</ele><time>2026-04-25T09:49:36Z</time></trkpt><trkpt lat="45.5358474857536" lon="9.1604878364826"><ele>147.0</ele><time>2026-04-25T09:49:37Z</time></trkpt><trkpt lat="45.53578333185823" lon="9.160511456959727"><ele>147.0</ele><time>2026-04-25T09:49:38Z</time></trkpt><trkpt lat="45.53571965238604" lon="9.16053263610789"><ele>147.0</ele><time>2026-04-25T09:49:39Z</time></trkpt><trkpt lat="45.5356525435107" lon="9.160557424070236"><ele>147.0</ele><time>2026-04-25T09:49:40Z</time></trkpt><trkpt lat="45.53557954658897" lon="9.160577098157631"><ele>147.0</ele><time>2026-04-25T09:49:41Z</time></trkpt><trkpt lat="45.53549943538731" lon="9.160593461338392"><ele>147.0</ele><time>2026-04-25T09:49:42Z</time></trkpt><trkpt lat="45.53541927998388" lon="9.160613968136998"><ele>147.0</ele><time>2026-04-25T09:49:43Z</time></trkpt><trkpt lat="45.53533979854563" lon="9.160637544619952"><ele>147.0</ele><time>2026-04-25T09:49:44Z</time></trkpt><trkpt lat="45.53525443272271" lon="9.160661761818314"><ele>147.0</ele><time>2026-04-25T09:49:45Z</time></trkpt><trkpt lat="45.53517754483048" lon="9.160681039653117"><ele>147.0</ele><time>2026-04-25T09:49:46Z</time></trkpt><trkpt lat="45.53509414775378" lon="9.160704547488587"><ele>147.0</ele><time>2026-04-25T09:49:47Z</time></trkpt><trkpt lat="45.53501532074425" lon="9.160726037244673"><ele>147.0</ele><time>2026-04-25T09:49:48Z</time></trkpt><trkpt lat="45.5349222417129" lon="9.160803792320117"><ele>147.0</ele><time>2026-04-25T09:49:49Z</time></trkpt><trkpt lat="45.53483150899089" lon="9.160806856967161"><ele>147.0</ele><time>2026-04-25T09:49:50Z</time></trkpt><trkpt lat="45.534745792190215" lon="9.160840083687932"><ele>147.0</ele><time>2026-04-25T09:49:51Z</time></trkpt><trkpt lat="45.53467004351543" lon="9.1608621650261"><ele>147.0</ele><time>2026-04-25T09:49:52Z</time></trkpt><trkpt lat="45.53458957791952" lon="9.160887266471892"><ele>146.83333333333334</ele><time>2026-04-25T09:49:53Z</time></trkpt><trkpt lat="45.53451000348114" lon="9.160920349682495"><ele>146.66666666666666</ele><time>2026-04-25T09:49:54Z</time></trkpt><trkpt lat="45.53443090161294" lon="9.16094919139835"><ele>146.5</ele><time>2026-04-25T09:49:55Z</time></trkpt><trkpt lat="45.534349627766474" lon="9.160975107186069"><ele>146.33333333333331</ele><time>2026-04-25T09:49:56Z</time></trkpt><trkpt lat="45.53426833355711" lon="9.16100295949263"><ele>146.16666666666666</ele><time>2026-04-25T09:49:57Z</time></trkpt><trkpt lat="45.53418708364118" lon="9.161026957969796"><ele>146.0</ele><time>2026-04-25T09:49:58Z</time></trkpt><trkpt lat="45.534106027390735" lon="9.161057964378521"><ele>146.0</ele><time>2026-04-25T09:49:59Z</time></trkpt><trkpt lat="45.53402316898288" lon="9.161091989925549"><ele>146.0</ele><time>2026-04-25T09:50:00Z</time></trkpt><trkpt lat="45.53393566506899" lon="9.161125217342502"><ele>146.0</ele><time>2026-04-25T09:50:01Z</time></trkpt><trkpt lat="45.53384944804465" lon="9.161156198334472"><ele>146.0</ele><time>2026-04-25T09:50:02Z</time></trkpt><trkpt lat="45.53376162838939" lon="9.161188118864219"><ele>146.0</ele><time>2026-04-25T09:50:03Z</time></trkpt><trkpt lat="45.533674676275716" lon="9.161225290663978"><ele>146.0</ele><time>2026-04-25T09:50:04Z</time></trkpt><trkpt lat="45.5335896033812" lon="9.161254465290826"><ele>146.16666666666666</ele><time>2026-04-25T09:50:05Z</time></trkpt><trkpt lat="45.53350713460232" lon="9.16128038737122"><ele>146.33333333333331</ele><time>2026-04-25T09:50:06Z</time></trkpt><trkpt lat="45.53342884716986" lon="9.161308009902475"><ele>146.5</ele><time>2026-04-25T09:50:07Z</time></trkpt><trkpt lat="45.53335265731749" lon="9.161332862200634"><ele>146.66666666666666</ele><time>2026-04-25T09:50:08Z</time></trkpt><trkpt lat="45.53327726373632" lon="9.161351908727115"><ele>146.83333333333334</ele><time>2026-04-25T09:50:09Z</time></trkpt><trkpt lat="45.53320417560428" lon="9.161375899480786"><ele>147.0</ele><time>2026-04-25T09:50:10Z</time></trkpt><trkpt lat="45.53313255431206" lon="9.161401691610646"><ele>147.0</ele><time>2026-04-25T09:50:11Z</time></trkpt><trkpt lat="45.533070334543076" lon="9.16142367063836"><ele>147.0</ele><time>2026-04-25T09:50:12Z</time></trkpt><trkpt lat="45.53295860904012" lon="9.16146106499269"><ele>147.0</ele><time>2026-04-25T09:50:14Z</time></trkpt><trkpt lat="45.53286467076413" lon="9.161475984886188"><ele>147.0</ele><time>2026-04-25T09:50:16Z</time></trkpt><trkpt lat="45.53277246740112" lon="9.161506736196719"><ele>147.0</ele><time>2026-04-25T09:50:18Z</time></trkpt><trkpt lat="45.532682608330944" lon="9.161539220719202"><ele>147.0</ele><time>2026-04-25T09:50:20Z</time></trkpt><trkpt lat="45.53258086194016" lon="9.161582218083405"><ele>147.0</ele><time>2026-04-25T09:50:22Z</time></trkpt><trkpt lat="45.53248567305019" lon="9.161631923595653"><ele>147.0</ele><time>2026-04-25T09:50:24Z</time></trkpt><trkpt lat="45.53239260890027" lon="9.16167981136567"><ele>147.0</ele><time>2026-04-25T09:50:26Z</time></trkpt><trkpt lat="45.532281154492914" lon="9.16171553322605"><ele>147.0</ele><time>2026-04-25T09:50:28Z</time></trkpt><trkpt lat="45.532219293348106" lon="9.161732836233584"><ele>147.0</ele><time>2026-04-25T09:50:29Z</time></trkpt><trkpt lat="45.532155216419824" lon="9.161751912022916"><ele>147.0</ele><time>2026-04-25T09:50:30Z</time></trkpt><trkpt lat="45.53203934720247" lon="9.161810180882902"><ele>147.0</ele><time>2026-04-25T09:50:32Z</time></trkpt><trkpt lat="45.53192574099015" lon="9.161860447569182"><ele>147.0</ele><time>2026-04-25T09:50:34Z</time></trkpt><trkpt lat="45.53180372375896" lon="9.161894657332693"><ele>147.0</ele><time>2026-04-25T09:50:36Z</time></trkpt><trkpt lat="45.53173708428914" lon="9.161905899539107"><ele>146.6</ele><time>2026-04-25T09:50:37Z</time></trkpt><trkpt lat="45.531668683426865" lon="9.161919306008011"><ele>146.2</ele><time>2026-04-25T09:50:38Z</time></trkpt><trkpt lat="45.53160391408715" lon="9.161939872454838"><ele>145.8</ele><time>2026-04-25T09:50:39Z</time></trkpt><trkpt lat="45.53148307878184" lon="9.161980394449317"><ele>145.4</ele><time>2026-04-25T09:50:41Z</time></trkpt><trkpt lat="45.53137036935682" lon="9.16203784720926"><ele>145.0</ele><time>2026-04-25T09:50:43Z</time></trkpt><trkpt lat="45.53125705585583" lon="9.16210004841379"><ele>143.75</ele><time>2026-04-25T09:50:45Z</time></trkpt><trkpt lat="45.531148363101366" lon="9.162157582533407"><ele>142.5</ele><time>2026-04-25T09:50:47Z</time></trkpt><trkpt lat="45.531038986597224" lon="9.16220875462418"><ele>141.25</ele><time>2026-04-25T09:50:49Z</time></trkpt><trkpt lat="45.53093339830332" lon="9.162262626578858"><ele>140.0</ele><time>2026-04-25T09:50:51Z</time></trkpt><trkpt lat="45.53081668694312" lon="9.162310789629986"><ele>140.0</ele><time>2026-04-25T09:50:53Z</time></trkpt><trkpt lat="45.53070464135467" lon="9.16235743110691"><ele>140.0</ele><time>2026-04-25T09:50:55Z</time></trkpt><trkpt lat="45.53058640756297" lon="9.162410189407971"><ele>140.0</ele><time>2026-04-25T09:50:57Z</time></trkpt><trkpt lat="45.530472677423404" lon="9.16245938971734"><ele>140.0</ele><time>2026-04-25T09:50:58.999Z</time></trkpt><trkpt lat="45.5303589060153" lon="9.162494020402308"><ele>140.71428571428572</ele><time>2026-04-25T09:51:01Z</time></trkpt><trkpt lat="45.530293569310665" lon="9.162517689114695"><ele>141.42857142857144</ele><time>2026-04-25T09:51:02Z</time></trkpt><trkpt lat="45.530228127846875" lon="9.162551318331106"><ele>142.14285714285714</ele><time>2026-04-25T09:51:03Z</time></trkpt><trkpt lat="45.53016766195822" lon="9.162590040643707"><ele>142.85714285714286</ele><time>2026-04-25T09:51:04Z</time></trkpt><trkpt lat="45.530106156082944" lon="9.162629536476352"><ele>143.57142857142858</ele><time>2026-04-25T09:51:05Z</time></trkpt><trkpt lat="45.53003658429103" lon="9.162667909714962"><ele>144.28571428571428</ele><time>2026-04-25T09:51:06Z</time></trkpt><trkpt lat="45.52996540632979" lon="9.162705493408836"><ele>145.0</ele><time>2026-04-25T09:51:07Z</time></trkpt><trkpt lat="45.529893607536124" lon="9.162746257224745"><ele>145.0</ele><time>2026-04-25T09:51:08Z</time></trkpt><trkpt lat="45.529820548776144" lon="9.162779840403687"><ele>145.0</ele><time>2026-04-25T09:51:09Z</time></trkpt><trkpt lat="45.5297465750689" lon="9.162797414129576"><ele>145.0</ele><time>2026-04-25T09:51:10Z</time></trkpt><trkpt lat="45.5296732088643" lon="9.162820602420496"><ele>145.0</ele><time>2026-04-25T09:51:11Z</time></trkpt><trkpt lat="45.52960186281408" lon="9.162862854177003"><ele>145.0</ele><time>2026-04-25T09:51:12Z</time></trkpt><trkpt lat="45.52953087624238" lon="9.162905333291793"><ele>145.0</ele><time>2026-04-25T09:51:13Z</time></trkpt><trkpt lat="45.52946920110176" lon="9.162933630818443"><ele>145.0</ele><time>2026-04-25T09:51:14Z</time></trkpt><trkpt lat="45.529402441777904" lon="9.162963937243646"><ele>145.42857142857144</ele><time>2026-04-25T09:51:15Z</time></trkpt><trkpt lat="45.52933573287279" lon="9.16299453798713"><ele>145.85714285714286</ele><time>2026-04-25T09:51:16Z</time></trkpt><trkpt lat="45.52926872870122" lon="9.163023176818731"><ele>146.28571428571428</ele><time>2026-04-25T09:51:17Z</time></trkpt><trkpt lat="45.52920397025318" lon="9.16305557740701"><ele>146.71428571428572</ele><time>2026-04-25T09:51:18Z</time></trkpt><trkpt lat="45.52914020104787" lon="9.163087323766637"><ele>147.14285714285714</ele><time>2026-04-25T09:51:19Z</time></trkpt><trkpt lat="45.52907224108133" lon="9.163124436450522"><ele>147.57142857142858</ele><time>2026-04-25T09:51:20Z</time></trkpt><trkpt lat="45.529007657741026" lon="9.163157499525036"><ele>148.0</ele><time>2026-04-25T09:51:21Z</time></trkpt><trkpt lat="45.528944199280346" lon="9.163190968596169"><ele>147.5</ele><time>2026-04-25T09:51:22Z</time></trkpt><trkpt lat="45.528882156001764" lon="9.163224276613132"><ele>147.0</ele><time>2026-04-25T09:51:23Z</time></trkpt><trkpt lat="45.528821350214855" lon="9.163254831637943"><ele>146.5</ele><time>2026-04-25T09:51:24Z</time></trkpt><trkpt lat="45.528700922813435" lon="9.163310726835302"><ele>146.0</ele><time>2026-04-25T09:51:26Z</time></trkpt><trkpt lat="45.528619546314346" lon="9.163342215611825"><ele>145.5</ele><time>2026-04-25T09:51:28Z</time></trkpt><trkpt lat="45.528531359825614" lon="9.163354003131055"><ele>145.0</ele><time>2026-04-25T09:51:31Z</time></trkpt><trkpt lat="45.528448147668946" lon="9.16341302936372"><ele>145.0</ele><time>2026-04-25T09:51:33Z</time></trkpt><trkpt lat="45.528339645031956" lon="9.163462905028673"><ele>145.0</ele><time>2026-04-25T09:51:35Z</time></trkpt><trkpt lat="45.52821873799604" lon="9.163519986067513"><ele>145.0</ele><time>2026-04-25T09:51:37Z</time></trkpt><trkpt lat="45.52810212942979" lon="9.163580961227968"><ele>145.0</ele><time>2026-04-25T09:51:39Z</time></trkpt><trkpt lat="45.52803746660755" lon="9.163608553427084"><ele>145.0</ele><time>2026-04-25T09:51:40Z</time></trkpt><trkpt lat="45.52797571357036" lon="9.163642134190598"><ele>145.2</ele><time>2026-04-25T09:51:41Z</time></trkpt><trkpt lat="45.52786007225222" lon="9.163703172569864"><ele>145.4</ele><time>2026-04-25T09:51:43Z</time></trkpt><trkpt lat="45.52774771309039" lon="9.163757172974432"><ele>145.6</ele><time>2026-04-25T09:51:45Z</time></trkpt><trkpt lat="45.52768653626533" lon="9.163780951969795"><ele>145.8</ele><time>2026-04-25T09:51:46Z</time></trkpt><trkpt lat="45.52762701942593" lon="9.163815882603608"><ele>146.0</ele><time>2026-04-25T09:51:47Z</time></trkpt><trkpt lat="45.52752202281482" lon="9.163890321689799"><ele>146.0</ele><time>2026-04-25T09:51:49Z</time></trkpt><trkpt lat="45.527423699787306" lon="9.163960760385171"><ele>146.0</ele><time>2026-04-25T09:51:51Z</time></trkpt><trkpt lat="45.52732135182702" lon="9.164013964820795"><ele>146.0</ele><time>2026-04-25T09:51:53Z</time></trkpt><trkpt lat="45.527220566821214" lon="9.164065934791553"><ele>146.0</ele><time>2026-04-25T09:51:55Z</time></trkpt><trkpt lat="45.52715820441369" lon="9.164146372037576"><ele>146.0</ele><time>2026-04-25T09:51:57Z</time></trkpt><trkpt lat="45.52709015504329" lon="9.164173472833687"><ele>145.4</ele><time>2026-04-25T09:51:59Z</time></trkpt><trkpt lat="45.52699769789209" lon="9.164191939009656"><ele>144.8</ele><time>2026-04-25T09:52:01Z</time></trkpt><trkpt lat="45.52690474713507" lon="9.164220255679853"><ele>144.20000000000002</ele><time>2026-04-25T09:52:03Z</time></trkpt><trkpt lat="45.526806293025736" lon="9.164228897396413"><ele>143.6</ele><time>2026-04-25T09:52:05Z</time></trkpt><trkpt lat="45.52668967906557" lon="9.164258166523066"><ele>143.0</ele><time>2026-04-25T09:52:07Z</time></trkpt><trkpt lat="45.52657611201788" lon="9.164315997314318"><ele>143.0</ele><time>2026-04-25T09:52:09Z</time></trkpt><trkpt lat="45.526478653782064" lon="9.164352853771344"><ele>143.0</ele><time>2026-04-25T09:52:11Z</time></trkpt><trkpt lat="45.526385092778646" lon="9.164406331181807"><ele>143.0</ele><time>2026-04-25T09:52:13Z</time></trkpt><trkpt lat="45.52627723615809" lon="9.164471479896491"><ele>143.0</ele><time>2026-04-25T09:52:15Z</time></trkpt><trkpt lat="45.52621979603064" lon="9.164511149136885"><ele>143.0</ele><time>2026-04-25T09:52:16Z</time></trkpt><trkpt lat="45.526155607831306" lon="9.164540220320216"><ele>143.0</ele><time>2026-04-25T09:52:17Z</time></trkpt><trkpt lat="45.52609147840084" lon="9.16457054952037"><ele>143.0</ele><time>2026-04-25T09:52:18Z</time></trkpt><trkpt lat="45.52597506916359" lon="9.16462655759786"><ele>143.0</ele><time>2026-04-25T09:52:20Z</time></trkpt><trkpt lat="45.52586242782099" lon="9.164675825183554"><ele>143.0</ele><time>2026-04-25T09:52:22Z</time></trkpt><trkpt lat="45.52575347391616" lon="9.164716312702948"><ele>143.0</ele><time>2026-04-25T09:52:24Z</time></trkpt><trkpt lat="45.52565140785763" lon="9.16476388265949"><ele>143.0</ele><time>2026-04-25T09:52:26Z</time></trkpt><trkpt lat="45.52555330285022" lon="9.16481315902637"><ele>143.0</ele><time>2026-04-25T09:52:28Z</time></trkpt><trkpt lat="45.52546319561999" lon="9.164854583423889"><ele>143.0</ele><time>2026-04-25T09:52:30Z</time></trkpt><trkpt lat="45.525374536572194" lon="9.164902609200889"><ele>143.0</ele><time>2026-04-25T09:52:32Z</time></trkpt><trkpt lat="45.52526102544448" lon="9.164979390312677"><ele>143.0</ele><time>2026-04-25T09:52:34Z</time></trkpt><trkpt lat="45.52520018215656" lon="9.165034490366976"><ele>142.57142857142856</ele><time>2026-04-25T09:52:35Z</time></trkpt><trkpt lat="45.52513594877126" lon="9.165090629950809"><ele>142.14285714285714</ele><time>2026-04-25T09:52:36Z</time></trkpt><trkpt lat="45.525076934793134" lon="9.165145531950355"><ele>141.71428571428572</ele><time>2026-04-25T09:52:37Z</time></trkpt><trkpt lat="45.52502294221351" lon="9.16520288166791"><ele>141.28571428571428</ele><time>2026-04-25T09:52:38Z</time></trkpt><trkpt lat="45.52496663892449" lon="9.165270576454379"><ele>140.85714285714286</ele><time>2026-04-25T09:52:39Z</time></trkpt><trkpt lat="45.52490689430553" lon="9.165337153590999"><ele>140.42857142857142</ele><time>2026-04-25T09:52:40Z</time></trkpt><trkpt lat="45.524844648517316" lon="9.165404221601044"><ele>140.0</ele><time>2026-04-25T09:52:41Z</time></trkpt><trkpt lat="45.52478017699194" lon="9.165471271415337"><ele>140.0</ele><time>2026-04-25T09:52:42Z</time></trkpt><trkpt lat="45.52471669349315" lon="9.165541359544212"><ele>140.0</ele><time>2026-04-25T09:52:43Z</time></trkpt><trkpt lat="45.52465151319168" lon="9.165610035548852"><ele>140.0</ele><time>2026-04-25T09:52:44Z</time></trkpt><trkpt lat="45.52458737762719" lon="9.165676529062907"><ele>140.0</ele><time>2026-04-25T09:52:45Z</time></trkpt><trkpt lat="45.52452383460461" lon="9.165741648632357"><ele>140.0</ele><time>2026-04-25T09:52:46Z</time></trkpt><trkpt lat="45.524461177687144" lon="9.165802388644297"><ele>140.0</ele><time>2026-04-25T09:52:47Z</time></trkpt><trkpt lat="45.5243979535996" lon="9.1658608568713"><ele>140.0</ele><time>2026-04-25T09:52:48Z</time></trkpt><trkpt lat="45.524339695295055" lon="9.16592415507041"><ele>140.0</ele><time>2026-04-25T09:52:49Z</time></trkpt><trkpt lat="45.52428704061276" lon="9.165990692894875"><ele>140.0</ele><time>2026-04-25T09:52:50Z</time></trkpt><trkpt lat="45.52423049769755" lon="9.166056505627651"><ele>140.0</ele><time>2026-04-25T09:52:51Z</time></trkpt><trkpt lat="45.52417367703138" lon="9.16611949749048"><ele>140.0</ele><time>2026-04-25T09:52:52Z</time></trkpt><trkpt lat="45.524116643202014" lon="9.166183397125575"><ele>140.0</ele><time>2026-04-25T09:52:53Z</time></trkpt><trkpt lat="45.52405809945579" lon="9.166238170451528"><ele>140.0</ele><time>2026-04-25T09:52:54Z</time></trkpt><trkpt lat="45.52400519391145" lon="9.166298700057546"><ele>140.0</ele><time>2026-04-25T09:52:55Z</time></trkpt><trkpt lat="45.52395064576102" lon="9.166363610083792"><ele>140.0</ele><time>2026-04-25T09:52:56Z</time></trkpt><trkpt lat="45.52389287806943" lon="9.166428404509128"><ele>140.0</ele><time>2026-04-25T09:52:57Z</time></trkpt><trkpt lat="45.5238313511757" lon="9.166493508399792"><ele>140.0</ele><time>2026-04-25T09:52:58Z</time></trkpt><trkpt lat="45.523772858845376" lon="9.16655967318353"><ele>140.0</ele><time>2026-04-25T09:52:59Z</time></trkpt><trkpt lat="45.52371198244977" lon="9.166621416207693"><ele>140.0</ele><time>2026-04-25T09:53:00Z</time></trkpt><trkpt lat="45.52364787590133" lon="9.166683597872193"><ele>140.0</ele><time>2026-04-25T09:53:01Z</time></trkpt><trkpt lat="45.52358516563483" lon="9.16675292098212"><ele>140.16666666666666</ele><time>2026-04-25T09:53:02Z</time></trkpt><trkpt lat="45.52352259106357" lon="9.16682226153352"><ele>140.33333333333331</ele><time>2026-04-25T09:53:03Z</time></trkpt><trkpt lat="45.52345971061962" lon="9.166887370639667"><ele>140.5</ele><time>2026-04-25T09:53:04Z</time></trkpt><trkpt lat="45.523395222222966" lon="9.166956812040095"><ele>140.66666666666666</ele><time>2026-04-25T09:53:05Z</time></trkpt><trkpt lat="45.5233263369626" lon="9.16702677045029"><ele>140.83333333333334</ele><time>2026-04-25T09:53:06Z</time></trkpt><trkpt lat="45.523253161133375" lon="9.167089589067572"><ele>141.0</ele><time>2026-04-25T09:53:07Z</time></trkpt><trkpt lat="45.5231754724906" lon="9.167150244476884"><ele>141.0</ele><time>2026-04-25T09:53:08Z</time></trkpt><trkpt lat="45.52309224076599" lon="9.167207661414023"><ele>141.0</ele><time>2026-04-25T09:53:09Z</time></trkpt><trkpt lat="45.52300633687453" lon="9.16726642964936"><ele>141.0</ele><time>2026-04-25T09:53:10Z</time></trkpt><trkpt lat="45.52291831419226" lon="9.16732753270805"><ele>141.0</ele><time>2026-04-25T09:53:11Z</time></trkpt><trkpt lat="45.5228172602455" lon="9.167385243224977"><ele>141.0</ele><time>2026-04-25T09:53:12Z</time></trkpt><trkpt lat="45.522728814381786" lon="9.167463628188635"><ele>140.6</ele><time>2026-04-25T09:53:13Z</time></trkpt><trkpt lat="45.52264208447296" lon="9.167545200547272"><ele>140.2</ele><time>2026-04-25T09:53:14Z</time></trkpt><trkpt lat="45.52255511274295" lon="9.167636377499273"><ele>139.8</ele><time>2026-04-25T09:53:15Z</time></trkpt><trkpt lat="45.52247071834747" lon="9.167724414644962"><ele>139.4</ele><time>2026-04-25T09:53:16Z</time></trkpt><trkpt lat="45.52240476296289" lon="9.167806807458296"><ele>139.0</ele><time>2026-04-25T09:53:17Z</time></trkpt><trkpt lat="45.522332830161716" lon="9.167882277375194"><ele>139.0</ele><time>2026-04-25T09:53:18Z</time></trkpt><trkpt lat="45.52226459772019" lon="9.167951472017814"><ele>139.0</ele><time>2026-04-25T09:53:19Z</time></trkpt><trkpt lat="45.52218983513399" lon="9.16802944413341"><ele>139.0</ele><time>2026-04-25T09:53:20Z</time></trkpt><trkpt lat="45.52210683346752" lon="9.168122037179254"><ele>139.0</ele><time>2026-04-25T09:53:21Z</time></trkpt><trkpt lat="45.522029138652805" lon="9.168205519292357"><ele>139.0</ele><time>2026-04-25T09:53:22Z</time></trkpt><trkpt lat="45.52189936186024" lon="9.168330672660295"><ele>139.16666666666669</ele><time>2026-04-25T09:53:23Z</time></trkpt><trkpt lat="45.52182052163155" lon="9.168396844769923"><ele>139.33333333333334</ele><time>2026-04-25T09:53:24Z</time></trkpt><trkpt lat="45.52174778512254" lon="9.168474598828022"><ele>139.5</ele><time>2026-04-25T09:53:25Z</time></trkpt><trkpt lat="45.521669531791986" lon="9.168522637323674"><ele>139.66666666666666</ele><time>2026-04-25T09:53:26Z</time></trkpt><trkpt lat="45.52159914164148" lon="9.168593655515055"><ele>139.83333333333331</ele><time>2026-04-25T09:53:27Z</time></trkpt><trkpt lat="45.5215282966317" lon="9.168647540557833"><ele>140.0</ele><time>2026-04-25T09:53:28Z</time></trkpt><trkpt lat="45.52145421229592" lon="9.16869555577019"><ele>140.0</ele><time>2026-04-25T09:53:29Z</time></trkpt><trkpt lat="45.5213809804066" lon="9.168740328564086"><ele>140.0</ele><time>2026-04-25T09:53:30Z</time></trkpt><trkpt lat="45.52131326336667" lon="9.168775709364464"><ele>140.0</ele><time>2026-04-25T09:53:31Z</time></trkpt><trkpt lat="45.52124518528845" lon="9.168820865944141"><ele>140.0</ele><time>2026-04-25T09:53:32Z</time></trkpt><trkpt lat="45.52118008198782" lon="9.16885817522809"><ele>140.0</ele><time>2026-04-25T09:53:33Z</time></trkpt><trkpt lat="45.52111358067282" lon="9.168894004784356"><ele>140.0</ele><time>2026-04-25T09:53:34Z</time></trkpt><trkpt lat="45.52104577915467" lon="9.168925436579116"><ele>140.0</ele><time>2026-04-25T09:53:35Z</time></trkpt><trkpt lat="45.52098058775976" lon="9.168951459868541"><ele>139.83333333333331</ele><time>2026-04-25T09:53:36Z</time></trkpt><trkpt lat="45.52091229512365" lon="9.16896769689437"><ele>139.66666666666666</ele><time>2026-04-25T09:53:37Z</time></trkpt><trkpt lat="45.52084704890803" lon="9.168969717505943"><ele>139.5</ele><time>2026-04-25T09:53:38Z</time></trkpt><trkpt lat="45.52073781614449" lon="9.168985693038127"><ele>139.33333333333334</ele><time>2026-04-25T09:53:40Z</time></trkpt><trkpt lat="45.520688095559514" lon="9.169082732363988"><ele>139.16666666666669</ele><time>2026-04-25T09:53:42Z</time></trkpt><trkpt lat="45.520664979248984" lon="9.1691877978229"><ele>139.0</ele><time>2026-04-25T09:53:44Z</time></trkpt><trkpt lat="45.52061659279841" lon="9.169262988073553"><ele>139.33333333333334</ele><time>2026-04-25T09:53:46Z</time></trkpt><trkpt lat="45.52055265740369" lon="9.169305161967909"><ele>139.66666666666669</ele><time>2026-04-25T09:53:49Z</time></trkpt><trkpt lat="45.52045877919056" lon="9.16934921882277"><ele>140.0</ele><time>2026-04-25T09:53:52Z</time></trkpt><trkpt lat="45.52039417756782" lon="9.169386982889474"><ele>140.33333333333334</ele><time>2026-04-25T09:53:54Z</time></trkpt><trkpt lat="45.52030993517033" lon="9.169439495002605"><ele>140.66666666666666</ele><time>2026-04-25T09:53:57Z</time></trkpt><trkpt lat="45.52023837806084" lon="9.169484446114586"><ele>141.0</ele><time>2026-04-25T09:54:00Z</time></trkpt><trkpt lat="45.52017276004995" lon="9.16953170989106"><ele>142.0</ele><time>2026-04-25T09:54:10Z</time></trkpt><trkpt lat="45.52008642692273" lon="9.169591449595861"><ele>143.0</ele><time>2026-04-25T09:54:13Z</time></trkpt><trkpt lat="45.52002182926397" lon="9.169646198084703"><ele>144.0</ele><time>2026-04-25T09:54:15Z</time></trkpt><trkpt lat="45.519950929767106" lon="9.169690383623436"><ele>145.0</ele><time>2026-04-25T09:54:18Z</time></trkpt><trkpt lat="45.51988716951626" lon="9.169712448149399"><ele>146.0</ele><time>2026-04-25T09:54:20Z</time></trkpt><trkpt lat="45.51981732651847" lon="9.169759131236505"><ele>147.0</ele><time>2026-04-25T09:54:22Z</time></trkpt><trkpt lat="45.51973345398704" lon="9.169782008530483"><ele>147.0</ele><time>2026-04-25T09:54:24Z</time></trkpt><trkpt lat="45.51964805166494" lon="9.169845299533963"><ele>147.0</ele><time>2026-04-25T09:54:26Z</time></trkpt><trkpt lat="45.519569138390615" lon="9.169912579059647"><ele>147.0</ele><time>2026-04-25T09:54:28Z</time></trkpt><trkpt lat="45.519449848223246" lon="9.169965118810584"><ele>147.0</ele><time>2026-04-25T09:54:30Z</time></trkpt><trkpt lat="45.51934860921801" lon="9.170017961772237"><ele>147.0</ele><time>2026-04-25T09:54:32Z</time></trkpt><trkpt lat="45.51923509048833" lon="9.170092988466706"><ele>146.42857142857142</ele><time>2026-04-25T09:54:34Z</time></trkpt><trkpt lat="45.51917121413365" lon="9.170137022709742"><ele>145.85714285714286</ele><time>2026-04-25T09:54:35Z</time></trkpt><trkpt lat="45.519109380823735" lon="9.170181744046037"><ele>145.28571428571428</ele><time>2026-04-25T09:54:36Z</time></trkpt><trkpt lat="45.51904756621156" lon="9.170225426732063"><ele>144.71428571428572</ele><time>2026-04-25T09:54:37Z</time></trkpt><trkpt lat="45.51898776303398" lon="9.170259741824207"><ele>144.14285714285714</ele><time>2026-04-25T09:54:38Z</time></trkpt><trkpt lat="45.518920554470164" lon="9.170304252992334"><ele>143.57142857142856</ele><time>2026-04-25T09:54:39Z</time></trkpt><trkpt lat="45.51885393926961" lon="9.170347323817056"><ele>143.0</ele><time>2026-04-25T09:54:40Z</time></trkpt><trkpt lat="45.51878683945233" lon="9.170392410700792"><ele>142.20000000000002</ele><time>2026-04-25T09:54:41Z</time></trkpt><trkpt lat="45.51872036469867" lon="9.17043560284758"><ele>141.4</ele><time>2026-04-25T09:54:42Z</time></trkpt><trkpt lat="45.51865819724727" lon="9.170474554462274"><ele>140.60000000000002</ele><time>2026-04-25T09:54:43Z</time></trkpt><trkpt lat="45.51854989497953" lon="9.170547856697743"><ele>139.8</ele><time>2026-04-25T09:54:45Z</time></trkpt><trkpt lat="45.51845265422257" lon="9.170608978663685"><ele>139.0</ele><time>2026-04-25T09:54:47Z</time></trkpt><trkpt lat="45.518361288437475" lon="9.170666135358669"><ele>139.2</ele><time>2026-04-25T09:54:49Z</time></trkpt><trkpt lat="45.51826795462524" lon="9.170725463449152"><ele>139.4</ele><time>2026-04-25T09:54:51Z</time></trkpt><trkpt lat="45.51817262678938" lon="9.170790503043797"><ele>139.6</ele><time>2026-04-25T09:54:53Z</time></trkpt><trkpt lat="45.518077230370935" lon="9.170840493201577"><ele>139.8</ele><time>2026-04-25T09:54:55Z</time></trkpt><trkpt lat="45.518008670556235" lon="9.170887463707384"><ele>140.0</ele><time>2026-04-25T09:54:57Z</time></trkpt><trkpt lat="45.51791994798026" lon="9.170947924326974"><ele>139.83333333333331</ele><time>2026-04-25T09:54:59Z</time></trkpt><trkpt lat="45.51781818131372" lon="9.171006141572041"><ele>139.66666666666666</ele><time>2026-04-25T09:55:01Z</time></trkpt><trkpt lat="45.51770102541645" lon="9.171075577685098"><ele>139.5</ele><time>2026-04-25T09:55:03Z</time></trkpt><trkpt lat="45.51763866020668" lon="9.171115653119374"><ele>139.33333333333334</ele><time>2026-04-25T09:55:04Z</time></trkpt><trkpt lat="45.5175765821025" lon="9.171158120374265"><ele>139.16666666666669</ele><time>2026-04-25T09:55:05Z</time></trkpt><trkpt lat="45.517508765724706" lon="9.17119905229236"><ele>139.0</ele><time>2026-04-25T09:55:06Z</time></trkpt><trkpt lat="45.517442471275444" lon="9.171244226671142"><ele>139.0</ele><time>2026-04-25T09:55:07Z</time></trkpt><trkpt lat="45.51737099171059" lon="9.171283433579733"><ele>139.0</ele><time>2026-04-25T09:55:08Z</time></trkpt><trkpt lat="45.51729810844008" lon="9.171332399799718"><ele>139.0</ele><time>2026-04-25T09:55:09Z</time></trkpt><trkpt lat="45.5172266559953" lon="9.171374809377301"><ele>139.0</ele><time>2026-04-25T09:55:10Z</time></trkpt><trkpt lat="45.517157473456336" lon="9.171418822970836"><ele>139.0</ele><time>2026-04-25T09:55:11Z</time></trkpt><trkpt lat="45.517088266273106" lon="9.171463179945741"><ele>139.0</ele><time>2026-04-25T09:55:12Z</time></trkpt><trkpt lat="45.517014827532954" lon="9.17150910047787"><ele>139.57142857142856</ele><time>2026-04-25T09:55:13Z</time></trkpt><trkpt lat="45.516942992574265" lon="9.171550161317057"><ele>140.14285714285714</ele><time>2026-04-25T09:55:14Z</time></trkpt><trkpt lat="45.51687445714972" lon="9.171594255228138"><ele>140.71428571428572</ele><time>2026-04-25T09:55:15Z</time></trkpt><trkpt lat="45.51680739560585" lon="9.17164028355638"><ele>141.28571428571428</ele><time>2026-04-25T09:55:16Z</time></trkpt><trkpt lat="45.51674180834128" lon="9.171687022857897"><ele>141.85714285714286</ele><time>2026-04-25T09:55:17Z</time></trkpt><trkpt lat="45.51667571397187" lon="9.1717295725265"><ele>142.42857142857142</ele><time>2026-04-25T09:55:18Z</time></trkpt><trkpt lat="45.51661334875556" lon="9.171767396797804"><ele>143.0</ele><time>2026-04-25T09:55:19Z</time></trkpt><trkpt lat="45.51649995670184" lon="9.17184130236818"><ele>143.0</ele><time>2026-04-25T09:55:21Z</time></trkpt><trkpt lat="45.51639010475803" lon="9.171917277813444"><ele>143.0</ele><time>2026-04-25T09:55:23Z</time></trkpt><trkpt lat="45.51628714658483" lon="9.171991409473284"><ele>143.0</ele><time>2026-04-25T09:55:25Z</time></trkpt><trkpt lat="45.516185923609534" lon="9.172059049353502"><ele>143.0</ele><time>2026-04-25T09:55:27Z</time></trkpt><trkpt lat="45.5160868319649" lon="9.172129512581074"><ele>142.5</ele><time>2026-04-25T09:55:29Z</time></trkpt><trkpt lat="45.516029557917626" lon="9.172168476293496"><ele>142.0</ele><time>2026-04-25T09:55:30Z</time></trkpt><trkpt lat="45.515968832832634" lon="9.172202425106086"><ele>141.5</ele><time>2026-04-25T09:55:31Z</time></trkpt><trkpt lat="45.51590564687452" lon="9.172248662504845"><ele>141.0</ele><time>2026-04-25T09:55:32Z</time></trkpt><trkpt lat="45.51584728014478" lon="9.172290855005157"><ele>140.5</ele><time>2026-04-25T09:55:33Z</time></trkpt><trkpt lat="45.51578985638007" lon="9.172335151003939"><ele>140.0</ele><time>2026-04-25T09:55:34Z</time></trkpt><trkpt lat="45.515676327412685" lon="9.172413655530317"><ele>140.0</ele><time>2026-04-25T09:55:36Z</time></trkpt><trkpt lat="45.51561501810815" lon="9.172451031173006"><ele>140.0</ele><time>2026-04-25T09:55:37Z</time></trkpt><trkpt lat="45.515550344792814" lon="9.17249279317273"><ele>140.0</ele><time>2026-04-25T09:55:38Z</time></trkpt><trkpt lat="45.51548633896605" lon="9.172533969994197"><ele>140.0</ele><time>2026-04-25T09:55:39Z</time></trkpt><trkpt lat="45.515425166307935" lon="9.17257744846033"><ele>140.0</ele><time>2026-04-25T09:55:40Z</time></trkpt><trkpt lat="45.51536393193527" lon="9.172620043528262"><ele>140.0</ele><time>2026-04-25T09:55:41Z</time></trkpt><trkpt lat="45.515301226408276" lon="9.17266611906351"><ele>140.0</ele><time>2026-04-25T09:55:42Z</time></trkpt><trkpt lat="45.515239708810036" lon="9.172714167405116"><ele>139.71428571428572</ele><time>2026-04-25T09:55:43Z</time></trkpt><trkpt lat="45.515178803275475" lon="9.17276152833403"><ele>139.42857142857144</ele><time>2026-04-25T09:55:44Z</time></trkpt><trkpt lat="45.51511507315238" lon="9.172806206510774"><ele>139.14285714285714</ele><time>2026-04-25T09:55:45Z</time></trkpt><trkpt lat="45.51505145751702" lon="9.172852996335521"><ele>138.85714285714286</ele><time>2026-04-25T09:55:46Z</time></trkpt><trkpt lat="45.51499091729497" lon="9.172899285215252"><ele>138.57142857142858</ele><time>2026-04-25T09:55:47Z</time></trkpt><trkpt lat="45.51493203840699" lon="9.172938805777187"><ele>138.28571428571428</ele><time>2026-04-25T09:55:48Z</time></trkpt><trkpt lat="45.51487001050404" lon="9.172980884418916"><ele>138.0</ele><time>2026-04-25T09:55:49Z</time></trkpt><trkpt lat="45.51480547418084" lon="9.173024537364139"><ele>138.0</ele><time>2026-04-25T09:55:50Z</time></trkpt><trkpt lat="45.51474007190488" lon="9.173071466486462"><ele>138.0</ele><time>2026-04-25T09:55:51Z</time></trkpt><trkpt lat="45.514676064490764" lon="9.173115348398301"><ele>138.0</ele><time>2026-04-25T09:55:52Z</time></trkpt><trkpt lat="45.51461413462338" lon="9.173157533704508"><ele>138.0</ele><time>2026-04-25T09:55:53Z</time></trkpt><trkpt lat="45.51452398640611" lon="9.173230017186091"><ele>138.0</ele><time>2026-04-25T09:55:55Z</time></trkpt><trkpt lat="45.514456066896855" lon="9.17327738711969"><ele>138.0</ele><time>2026-04-25T09:55:57Z</time></trkpt><trkpt lat="45.51437765641984" lon="9.173329071624005"><ele>138.5</ele><time>2026-04-25T09:55:59Z</time></trkpt><trkpt lat="45.5142823116973" lon="9.17339018514544"><ele>139.0</ele><time>2026-04-25T09:56:01Z</time></trkpt><trkpt lat="45.51417724798952" lon="9.173460802404685"><ele>139.5</ele><time>2026-04-25T09:56:03Z</time></trkpt><trkpt lat="45.51406244227214" lon="9.173540208353545"><ele>140.0</ele><time>2026-04-25T09:56:05Z</time></trkpt><trkpt lat="45.51396064622606" lon="9.173623979537266"><ele>140.0</ele><time>2026-04-25T09:56:07Z</time></trkpt><trkpt lat="45.51386728711973" lon="9.173682453808436"><ele>140.0</ele><time>2026-04-25T09:56:09Z</time></trkpt><trkpt lat="45.51379684855796" lon="9.173711890599781"><ele>140.0</ele><time>2026-04-25T09:56:11Z</time></trkpt><trkpt lat="45.51372863701912" lon="9.173742891249598"><ele>140.0</ele><time>2026-04-25T09:56:13Z</time></trkpt><trkpt lat="45.5136649391572" lon="9.173792884482513"><ele>140.0</ele><time>2026-04-25T09:56:15Z</time></trkpt><trkpt lat="45.51358357108516" lon="9.173842711710705"><ele>140.0</ele><time>2026-04-25T09:56:18Z</time></trkpt><trkpt lat="45.513511185979326" lon="9.173889293112659"><ele>139.8</ele><time>2026-04-25T09:56:21Z</time></trkpt><trkpt lat="45.5134484794292" lon="9.173933026232369"><ele>139.6</ele><time>2026-04-25T09:56:24Z</time></trkpt><trkpt lat="45.513363314848576" lon="9.174005768212725"><ele>139.4</ele><time>2026-04-25T09:56:27Z</time></trkpt><trkpt lat="45.51327426764088" lon="9.174062644889387"><ele>139.2</ele><time>2026-04-25T09:56:29Z</time></trkpt><trkpt lat="45.51317116180699" lon="9.174140020828705"><ele>139.0</ele><time>2026-04-25T09:56:31Z</time></trkpt><trkpt lat="45.51306790540049" lon="9.174220579719597"><ele>138.85714285714286</ele><time>2026-04-25T09:56:33Z</time></trkpt><trkpt lat="45.513011303498374" lon="9.174265413854547"><ele>138.71428571428572</ele><time>2026-04-25T09:56:34Z</time></trkpt><trkpt lat="45.51295275299003" lon="9.17431473047989"><ele>138.57142857142858</ele><time>2026-04-25T09:56:35Z</time></trkpt><trkpt lat="45.51289215698469" lon="9.174365432267956"><ele>138.42857142857144</ele><time>2026-04-25T09:56:36Z</time></trkpt><trkpt lat="45.512830622035175" lon="9.174416321069886"><ele>138.2857142857143</ele><time>2026-04-25T09:56:37Z</time></trkpt><trkpt lat="45.512763912204136" lon="9.174465038550153"><ele>138.14285714285714</ele><time>2026-04-25T09:56:38Z</time></trkpt><trkpt lat="45.51270257644474" lon="9.174510991677286"><ele>138.0</ele><time>2026-04-25T09:56:39Z</time></trkpt><trkpt lat="45.512639899359705" lon="9.174555645811528"><ele>137.85714285714286</ele><time>2026-04-25T09:56:40Z</time></trkpt><trkpt lat="45.51257782479951" lon="9.174598195731324"><ele>137.71428571428572</ele><time>2026-04-25T09:56:41Z</time></trkpt><trkpt lat="45.51251730856761" lon="9.174641127889162"><ele>137.57142857142858</ele><time>2026-04-25T09:56:42Z</time></trkpt><trkpt lat="45.51245677227571" lon="9.174688523287397"><ele>137.42857142857144</ele><time>2026-04-25T09:56:43Z</time></trkpt><trkpt lat="45.512396375518975" lon="9.174733211982671"><ele>137.28571428571428</ele><time>2026-04-25T09:56:44Z</time></trkpt><trkpt lat="45.51233803956286" lon="9.174779058787149"><ele>137.14285714285717</ele><time>2026-04-25T09:56:45Z</time></trkpt><trkpt lat="45.51227532356989" lon="9.174817485780936"><ele>137.0</ele><time>2026-04-25T09:56:46Z</time></trkpt><trkpt lat="45.51220653599892" lon="9.17485472641203"><ele>137.0</ele><time>2026-04-25T09:56:47Z</time></trkpt><trkpt lat="45.51213790193947" lon="9.174895153478866"><ele>137.0</ele><time>2026-04-25T09:56:48Z</time></trkpt><trkpt lat="45.512070818469965" lon="9.174944134851753"><ele>137.0</ele><time>2026-04-25T09:56:49Z</time></trkpt><trkpt lat="45.512000057987635" lon="9.174990477637232"><ele>137.0</ele><time>2026-04-25T09:56:50Z</time></trkpt><trkpt lat="45.511927557376474" lon="9.175037272715972"><ele>137.0</ele><time>2026-04-25T09:56:51Z</time></trkpt><trkpt lat="45.51185297654573" lon="9.175089172094713"><ele>137.0</ele><time>2026-04-25T09:56:52Z</time></trkpt><trkpt lat="45.51177827609304" lon="9.175143874327006"><ele>137.0</ele><time>2026-04-25T09:56:53Z</time></trkpt><trkpt lat="45.511703830576145" lon="9.175199813032643"><ele>137.0</ele><time>2026-04-25T09:56:54Z</time></trkpt><trkpt lat="45.51162828431039" lon="9.175246307025091"><ele>137.0</ele><time>2026-04-25T09:56:55Z</time></trkpt><trkpt lat="45.51156154649806" lon="9.17529733882395"><ele>137.0</ele><time>2026-04-25T09:56:56Z</time></trkpt><trkpt lat="45.51149006051402" lon="9.175345225719612"><ele>137.0</ele><time>2026-04-25T09:56:57Z</time></trkpt><trkpt lat="45.51142388172955" lon="9.175393445040248"><ele>137.0</ele><time>2026-04-25T09:56:58Z</time></trkpt><trkpt lat="45.511359472883115" lon="9.175440409225498"><ele>137.0</ele><time>2026-04-25T09:56:59Z</time></trkpt><trkpt lat="45.511297642141564" lon="9.17548624671968"><ele>137.0</ele><time>2026-04-25T09:57:00Z</time></trkpt><trkpt lat="45.51123549426124" lon="9.175526172074271"><ele>137.0</ele><time>2026-04-25T09:57:01Z</time></trkpt><trkpt lat="45.51117758354109" lon="9.175569046607313"><ele>137.0</ele><time>2026-04-25T09:57:02Z</time></trkpt><trkpt lat="45.51107325603412" lon="9.17563417255807"><ele>137.0</ele><time>2026-04-25T09:57:04Z</time></trkpt><trkpt lat="45.51098295391132" lon="9.17568792993658"><ele>137.0</ele><time>2026-04-25T09:57:06Z</time></trkpt><trkpt lat="45.51088865191518" lon="9.175754940368915"><ele>137.16666666666666</ele><time>2026-04-25T09:57:08Z</time></trkpt><trkpt lat="45.51079685046392" lon="9.175823245337869"><ele>137.33333333333331</ele><time>2026-04-25T09:57:10Z</time></trkpt><trkpt lat="45.510716777565776" lon="9.175880127777276"><ele>137.5</ele><time>2026-04-25T09:57:12Z</time></trkpt><trkpt lat="45.510637261741536" lon="9.175932482391822"><ele>137.66666666666666</ele><time>2026-04-25T09:57:14Z</time></trkpt><trkpt lat="45.51056516139918" lon="9.175980530363626"><ele>137.83333333333334</ele><time>2026-04-25T09:57:16Z</time></trkpt><trkpt lat="45.510495117682986" lon="9.176023207026129"><ele>138.0</ele><time>2026-04-25T09:57:18Z</time></trkpt><trkpt lat="45.51042844003695" lon="9.17606726996218"><ele>137.6</ele><time>2026-04-25T09:57:20Z</time></trkpt><trkpt lat="45.510366985961156" lon="9.17610984211982"><ele>137.20000000000002</ele><time>2026-04-25T09:57:22Z</time></trkpt><trkpt lat="45.51029264101597" lon="9.176169242697627"><ele>136.8</ele><time>2026-04-25T09:57:24Z</time></trkpt><trkpt lat="45.51019852840654" lon="9.176231447261001"><ele>136.4</ele><time>2026-04-25T09:57:26Z</time></trkpt><trkpt lat="45.510095880080875" lon="9.17630493907701"><ele>136.0</ele><time>2026-04-25T09:57:28Z</time></trkpt><trkpt lat="45.509985319977176" lon="9.176391563698713"><ele>135.99999999999997</ele><time>2026-04-25T09:57:30Z</time></trkpt><trkpt lat="45.50992667494424" lon="9.176436830935858"><ele>136.0</ele><time>2026-04-25T09:57:31Z</time></trkpt><trkpt lat="45.509870633142135" lon="9.176478093820952"><ele>136.0</ele><time>2026-04-25T09:57:32Z</time></trkpt><trkpt lat="45.5098145928655" lon="9.176523219376545"><ele>136.0</ele><time>2026-04-25T09:57:33Z</time></trkpt><trkpt lat="45.50975288945555" lon="9.176565440437743"><ele>136.0</ele><time>2026-04-25T09:57:34Z</time></trkpt><trkpt lat="45.509695907437106" lon="9.17660942113"><ele>135.99999999999997</ele><time>2026-04-25T09:57:35Z</time></trkpt><trkpt lat="45.509640040604054" lon="9.176651246920201"><ele>136.0</ele><time>2026-04-25T09:57:36Z</time></trkpt><trkpt lat="45.50958186563656" lon="9.176686774617323"><ele>136.66666666666669</ele><time>2026-04-25T09:57:37Z</time></trkpt><trkpt lat="45.50946775888776" lon="9.176768646569172"><ele>137.33333333333334</ele><time>2026-04-25T09:57:39Z</time></trkpt><trkpt lat="45.50940798572157" lon="9.17680958101269"><ele>138.0</ele><time>2026-04-25T09:57:40Z</time></trkpt><trkpt lat="45.50934128595411" lon="9.176852272852045"><ele>138.66666666666666</ele><time>2026-04-25T09:57:41Z</time></trkpt><trkpt lat="45.50927980408104" lon="9.176901504226848"><ele>139.33333333333331</ele><time>2026-04-25T09:57:42Z</time></trkpt><trkpt lat="45.50922004477303" lon="9.17694799596043"><ele>140.0</ele><time>2026-04-25T09:57:43Z</time></trkpt><trkpt lat="45.509113345852306" lon="9.17702826918882"><ele>140.0</ele><time>2026-04-25T09:57:45Z</time></trkpt><trkpt lat="45.50900316413969" lon="9.177091680139537"><ele>140.0</ele><time>2026-04-25T09:57:47Z</time></trkpt><trkpt lat="45.50889413691659" lon="9.17716442893823"><ele>140.0</ele><time>2026-04-25T09:57:49Z</time></trkpt><trkpt lat="45.508836253791706" lon="9.177202126444302"><ele>140.0</ele><time>2026-04-25T09:57:50Z</time></trkpt><trkpt lat="45.50877592959947" lon="9.17724990828826"><ele>140.0</ele><time>2026-04-25T09:57:51Z</time></trkpt><trkpt lat="45.50871441010306" lon="9.177297483785951"><ele>140.0</ele><time>2026-04-25T09:57:52Z</time></trkpt><trkpt lat="45.508657894028865" lon="9.177342746697237"><ele>140.4</ele><time>2026-04-25T09:57:53Z</time></trkpt><trkpt lat="45.508600068888434" lon="9.17738581482007"><ele>140.8</ele><time>2026-04-25T09:57:54Z</time></trkpt><trkpt lat="45.50854081678692" lon="9.17742055811822"><ele>141.2</ele><time>2026-04-25T09:57:55Z</time></trkpt><trkpt lat="45.50843744149529" lon="9.177492193690604"><ele>141.6</ele><time>2026-04-25T09:57:57Z</time></trkpt><trkpt lat="45.508331216427266" lon="9.177574108842952"><ele>142.0</ele><time>2026-04-25T09:57:59Z</time></trkpt><trkpt lat="45.50821922934228" lon="9.17765620511861"><ele>142.0</ele><time>2026-04-25T09:58:01Z</time></trkpt><trkpt lat="45.508106522329804" lon="9.177730353093372"><ele>142.0</ele><time>2026-04-25T09:58:03Z</time></trkpt><trkpt lat="45.50804508683631" lon="9.177763822138793"><ele>142.0</ele><time>2026-04-25T09:58:04Z</time></trkpt><trkpt lat="45.50797831180565" lon="9.177810341372703"><ele>142.0</ele><time>2026-04-25T09:58:05Z</time></trkpt><trkpt lat="45.507912107965936" lon="9.177856781081585"><ele>142.0</ele><time>2026-04-25T09:58:06Z</time></trkpt><trkpt lat="45.507852376277704" lon="9.17790044967661"><ele>142.0</ele><time>2026-04-25T09:58:07Z</time></trkpt><trkpt lat="45.50779095295048" lon="9.177947441610645"><ele>141.71428571428572</ele><time>2026-04-25T09:58:08Z</time></trkpt><trkpt lat="45.507722785839874" lon="9.177988758765531"><ele>141.42857142857142</ele><time>2026-04-25T09:58:09Z</time></trkpt><trkpt lat="45.50765604402677" lon="9.178027827708314"><ele>141.14285714285714</ele><time>2026-04-25T09:58:10Z</time></trkpt><trkpt lat="45.50759688338183" lon="9.178074439453619"><ele>140.85714285714286</ele><time>2026-04-25T09:58:11Z</time></trkpt><trkpt lat="45.50753894347213" lon="9.178119252878641"><ele>140.57142857142856</ele><time>2026-04-25T09:58:12Z</time></trkpt><trkpt lat="45.507479876121316" lon="9.178163513189904"><ele>140.28571428571428</ele><time>2026-04-25T09:58:13Z</time></trkpt><trkpt lat="45.5074234040281" lon="9.178204108906428"><ele>140.0</ele><time>2026-04-25T09:58:14Z</time></trkpt><trkpt lat="45.507366517439436" lon="9.17824570519732"><ele>139.8</ele><time>2026-04-25T09:58:15Z</time></trkpt><trkpt lat="45.507309235075695" lon="9.178283776489433"><ele>139.6</ele><time>2026-04-25T09:58:16Z</time></trkpt><trkpt lat="45.50720042229457" lon="9.178361781169372"><ele>139.4</ele><time>2026-04-25T09:58:18Z</time></trkpt><trkpt lat="45.50709706530031" lon="9.178433267595524"><ele>139.2</ele><time>2026-04-25T09:58:20Z</time></trkpt><trkpt lat="45.50700001609908" lon="9.178494642370307"><ele>139.0</ele><time>2026-04-25T09:58:22Z</time></trkpt><trkpt lat="45.50691270599208" lon="9.178551141364855"><ele>138.2</ele><time>2026-04-25T09:58:24Z</time></trkpt><trkpt lat="45.50681564611621" lon="9.178614868234192"><ele>137.4</ele><time>2026-04-25T09:58:26Z</time></trkpt><trkpt lat="45.50672150845076" lon="9.17869745534985"><ele>136.6</ele><time>2026-04-25T09:58:28Z</time></trkpt><trkpt lat="45.506613708331365" lon="9.178775690114032"><ele>135.8</ele><time>2026-04-25T09:58:30Z</time></trkpt><trkpt lat="45.50655437795394" lon="9.178816852986149"><ele>135.0</ele><time>2026-04-25T09:58:31Z</time></trkpt><trkpt lat="45.50642914421674" lon="9.178883346356088"><ele>135.0</ele><time>2026-04-25T09:58:33Z</time></trkpt><trkpt lat="45.50631492412498" lon="9.178961674483384"><ele>135.0</ele><time>2026-04-25T09:58:35Z</time></trkpt><trkpt lat="45.506244599318144" lon="9.17901220180464"><ele>135.0</ele><time>2026-04-25T09:58:36Z</time></trkpt><trkpt lat="45.50618120913791" lon="9.179076828376747"><ele>135.0</ele><time>2026-04-25T09:58:37Z</time></trkpt><trkpt lat="45.50611324650168" lon="9.17911786179336"><ele>135.0</ele><time>2026-04-25T09:58:38Z</time></trkpt><trkpt lat="45.506041530479074" lon="9.179159990545115"><ele>135.0</ele><time>2026-04-25T09:58:39Z</time></trkpt><trkpt lat="45.505971207664324" lon="9.179209560278506"><ele>135.16666666666666</ele><time>2026-04-25T09:58:40Z</time></trkpt><trkpt lat="45.50589686403841" lon="9.17925732513777"><ele>135.33333333333334</ele><time>2026-04-25T09:58:41Z</time></trkpt><trkpt lat="45.505820532850784" lon="9.179308958269512"><ele>135.5</ele><time>2026-04-25T09:58:42Z</time></trkpt><trkpt lat="45.50574512705663" lon="9.179360639009202"><ele>135.66666666666669</ele><time>2026-04-25T09:58:43Z</time></trkpt><trkpt lat="45.50567017734054" lon="9.179416209943879"><ele>135.83333333333334</ele><time>2026-04-25T09:58:44Z</time></trkpt><trkpt lat="45.505597645977616" lon="9.179469853049588"><ele>136.0</ele><time>2026-04-25T09:58:45Z</time></trkpt><trkpt lat="45.505527826876516" lon="9.179519925939891"><ele>136.0</ele><time>2026-04-25T09:58:46Z</time></trkpt><trkpt lat="45.50546027125892" lon="9.179569403142338"><ele>136.0</ele><time>2026-04-25T09:58:47Z</time></trkpt><trkpt lat="45.505392235194805" lon="9.179618533199307"><ele>136.0</ele><time>2026-04-25T09:58:48Z</time></trkpt><trkpt lat="45.50532448473976" lon="9.17966640601667"><ele>136.0</ele><time>2026-04-25T09:58:49Z</time></trkpt><trkpt lat="45.50525877625755" lon="9.179719583648899"><ele>136.0</ele><time>2026-04-25T09:58:50Z</time></trkpt><trkpt lat="45.50519153159029" lon="9.179768226067047"><ele>136.0</ele><time>2026-04-25T09:58:51Z</time></trkpt><trkpt lat="45.50512642557275" lon="9.179816255912522"><ele>136.28571428571428</ele><time>2026-04-25T09:58:52Z</time></trkpt><trkpt lat="45.5050590317207" lon="9.179857874999007"><ele>136.57142857142856</ele><time>2026-04-25T09:58:53Z</time></trkpt><trkpt lat="45.50499432197138" lon="9.179903316822188"><ele>136.85714285714286</ele><time>2026-04-25T09:58:54Z</time></trkpt><trkpt lat="45.50492916799393" lon="9.179954825192283"><ele>137.14285714285714</ele><time>2026-04-25T09:58:55Z</time></trkpt><trkpt lat="45.50486164466179" lon="9.180009448594987"><ele>137.42857142857144</ele><time>2026-04-25T09:58:56Z</time></trkpt><trkpt lat="45.50478925314231" lon="9.180036595205856"><ele>137.71428571428572</ele><time>2026-04-25T09:58:57Z</time></trkpt><trkpt lat="45.50472423994578" lon="9.180081786579603"><ele>138.0</ele><time>2026-04-25T09:58:58Z</time></trkpt><trkpt lat="45.50466692491713" lon="9.180144573670484"><ele>138.0</ele><time>2026-04-25T09:58:59Z</time></trkpt><trkpt lat="45.504601161763816" lon="9.180185630764239"><ele>138.0</ele><time>2026-04-25T09:59:00Z</time></trkpt><trkpt lat="45.504529367908226" lon="9.180220552296426"><ele>138.0</ele><time>2026-04-25T09:59:01Z</time></trkpt><trkpt lat="45.504456278068844" lon="9.180261753019343"><ele>138.0</ele><time>2026-04-25T09:59:02Z</time></trkpt><trkpt lat="45.504390746278126" lon="9.18030694153073"><ele>138.0</ele><time>2026-04-25T09:59:03Z</time></trkpt><trkpt lat="45.50432701480463" lon="9.180353035319198"><ele>138.0</ele><time>2026-04-25T09:59:04Z</time></trkpt><trkpt lat="45.50426296863235" lon="9.18039126428337"><ele>138.0</ele><time>2026-04-25T09:59:05Z</time></trkpt><trkpt lat="45.50420007110658" lon="9.180435228507658"><ele>137.5</ele><time>2026-04-25T09:59:06Z</time></trkpt><trkpt lat="45.50413258136383" lon="9.180478814358446"><ele>137.0</ele><time>2026-04-25T09:59:07Z</time></trkpt><trkpt lat="45.50406555154201" lon="9.180531940582137"><ele>136.5</ele><time>2026-04-25T09:59:08Z</time></trkpt><trkpt lat="45.503995582247214" lon="9.180582308120782"><ele>136.0</ele><time>2026-04-25T09:59:09Z</time></trkpt><trkpt lat="45.503922617248975" lon="9.180632289565867"><ele>135.5</ele><time>2026-04-25T09:59:10Z</time></trkpt><trkpt lat="45.50384891315744" lon="9.180677323626174"><ele>135.0</ele><time>2026-04-25T09:59:11Z</time></trkpt><trkpt lat="45.50377705272032" lon="9.180731628626056"><ele>134.83333333333334</ele><time>2026-04-25T09:59:12Z</time></trkpt><trkpt lat="45.503704348179696" lon="9.180782363701384"><ele>134.66666666666666</ele><time>2026-04-25T09:59:13Z</time></trkpt><trkpt lat="45.50363037660526" lon="9.180838195450407"><ele>134.5</ele><time>2026-04-25T09:59:14Z</time></trkpt><trkpt lat="45.50355584816012" lon="9.18089110303"><ele>134.33333333333331</ele><time>2026-04-25T09:59:15Z</time></trkpt><trkpt lat="45.50348219828262" lon="9.180944024083441"><ele>134.16666666666666</ele><time>2026-04-25T09:59:16Z</time></trkpt><trkpt lat="45.50340699894898" lon="9.180995006484364"><ele>134.0</ele><time>2026-04-25T09:59:17Z</time></trkpt><trkpt lat="45.503326220617126" lon="9.181045243391782"><ele>134.0</ele><time>2026-04-25T09:59:18Z</time></trkpt><trkpt lat="45.50325200906151" lon="9.181099253642726"><ele>134.0</ele><time>2026-04-25T09:59:19Z</time></trkpt><trkpt lat="45.5031753014877" lon="9.18115278309588"><ele>134.0</ele><time>2026-04-25T09:59:20Z</time></trkpt><trkpt lat="45.503102197742535" lon="9.181210840543772"><ele>134.0</ele><time>2026-04-25T09:59:21Z</time></trkpt><trkpt lat="45.50302632301936" lon="9.18126352034205"><ele>134.0</ele><time>2026-04-25T09:59:22Z</time></trkpt><trkpt lat="45.502947648691794" lon="9.181305485952924"><ele>134.0</ele><time>2026-04-25T09:59:23Z</time></trkpt><trkpt lat="45.502871448821274" lon="9.181352381308606"><ele>134.0</ele><time>2026-04-25T09:59:24Z</time></trkpt><trkpt lat="45.50280023970656" lon="9.181396888152324"><ele>134.0</ele><time>2026-04-25T09:59:25.001Z</time></trkpt><trkpt lat="45.502728709700165" lon="9.18144332629966"><ele>134.0</ele><time>2026-04-25T09:59:26Z</time></trkpt><trkpt lat="45.50265786198312" lon="9.1814922259122"><ele>134.0</ele><time>2026-04-25T09:59:27.001Z</time></trkpt><trkpt lat="45.502583808640004" lon="9.181541791394178"><ele>134.0</ele><time>2026-04-25T09:59:28.001Z</time></trkpt><trkpt lat="45.50251005691967" lon="9.181588944982343"><ele>134.0</ele><time>2026-04-25T09:59:29Z</time></trkpt><trkpt lat="45.502432200844694" lon="9.181638559592896"><ele>134.33333333333331</ele><time>2026-04-25T09:59:30.001Z</time></trkpt><trkpt lat="45.50235368262302" lon="9.181692609999645"><ele>134.66666666666666</ele><time>2026-04-25T09:59:31.001Z</time></trkpt><trkpt lat="45.5022847440766" lon="9.181742550091558"><ele>135.0</ele><time>2026-04-25T09:59:32.001Z</time></trkpt><trkpt lat="45.5022140979267" lon="9.181783522759094"><ele>135.33333333333334</ele><time>2026-04-25T09:59:33.001Z</time></trkpt><trkpt lat="45.502146038922994" lon="9.181822620369779"><ele>135.66666666666669</ele><time>2026-04-25T09:59:34.001Z</time></trkpt><trkpt lat="45.502077056687064" lon="9.181866963617658"><ele>136.0</ele><time>2026-04-25T09:59:35.001Z</time></trkpt><trkpt lat="45.50200779459558" lon="9.18190778866698"><ele>135.33333333333334</ele><time>2026-04-25T09:59:36.001Z</time></trkpt><trkpt lat="45.50193631760286" lon="9.181952524973092"><ele>134.66666666666669</ele><time>2026-04-25T09:59:37.001Z</time></trkpt><trkpt lat="45.50186291925537" lon="9.181998833296376"><ele>134.0</ele><time>2026-04-25T09:59:38.001Z</time></trkpt><trkpt lat="45.50179037984044" lon="9.182044926998874"><ele>133.33333333333334</ele><time>2026-04-25T09:59:39Z</time></trkpt><trkpt lat="45.50171686655335" lon="9.182091630472058"><ele>132.66666666666666</ele><time>2026-04-25T09:59:40Z</time></trkpt><trkpt lat="45.5016427432323" lon="9.182140877981812"><ele>132.0</ele><time>2026-04-25T09:59:41Z</time></trkpt><trkpt lat="45.50156775107485" lon="9.182191395858892"><ele>132.0</ele><time>2026-04-25T09:59:42Z</time></trkpt><trkpt lat="45.50149410360672" lon="9.182240835553054"><ele>132.0</ele><time>2026-04-25T09:59:43Z</time></trkpt><trkpt lat="45.50142082787998" lon="9.18228909777665"><ele>132.0</ele><time>2026-04-25T09:59:44Z</time></trkpt><trkpt lat="45.501349759876874" lon="9.182344342631682"><ele>132.0</ele><time>2026-04-25T09:59:45Z</time></trkpt><trkpt lat="45.50128307016024" lon="9.182391845923425"><ele>132.0</ele><time>2026-04-25T09:59:46Z</time></trkpt><trkpt lat="45.501216393537476" lon="9.182436650749795"><ele>132.0</ele><time>2026-04-25T09:59:47Z</time></trkpt><trkpt lat="45.50114997930401" lon="9.182483831031885"><ele>132.0</ele><time>2026-04-25T09:59:48Z</time></trkpt><trkpt lat="45.501086786425276" lon="9.182524565748665"><ele>132.0</ele><time>2026-04-25T09:59:49Z</time></trkpt><trkpt lat="45.501023364873255" lon="9.182566003047675"><ele>132.0</ele><time>2026-04-25T09:59:50Z</time></trkpt><trkpt lat="45.50095864996034" lon="9.182615854708164"><ele>132.0</ele><time>2026-04-25T09:59:51Z</time></trkpt><trkpt lat="45.50089403150873" lon="9.182663358434219"><ele>132.0</ele><time>2026-04-25T09:59:52Z</time></trkpt><trkpt lat="45.50082759991489" lon="9.182714824490471"><ele>132.0</ele><time>2026-04-25T09:59:53Z</time></trkpt><trkpt lat="45.500761885848895" lon="9.18276696210656"><ele>132.0</ele><time>2026-04-25T09:59:54Z</time></trkpt><trkpt lat="45.500695105360585" lon="9.18282110200867"><ele>132.0</ele><time>2026-04-25T09:59:55Z</time></trkpt><trkpt lat="45.50062207248748" lon="9.182860476812438"><ele>132.0</ele><time>2026-04-25T09:59:56Z</time></trkpt><trkpt lat="45.50055327088917" lon="9.182916691875217"><ele>132.0</ele><time>2026-04-25T09:59:57Z</time></trkpt><trkpt lat="45.500478688233876" lon="9.182951694478023"><ele>132.0</ele><time>2026-04-25T09:59:58Z</time></trkpt><trkpt lat="45.50040671235957" lon="9.183006174507867"><ele>132.0</ele><time>2026-04-25T09:59:59Z</time></trkpt><trkpt lat="45.50032906800705" lon="9.183068707395217"><ele>132.0</ele><time>2026-04-25T10:00:00Z</time></trkpt><trkpt lat="45.50025314669478" lon="9.183130356644705"><ele>132.5</ele><time>2026-04-25T10:00:01Z</time></trkpt><trkpt lat="45.500179907266336" lon="9.183182817992343"><ele>133.0</ele><time>2026-04-25T10:00:02Z</time></trkpt><trkpt lat="45.500103525934186" lon="9.183235321480955"><ele>133.5</ele><time>2026-04-25T10:00:02.999Z</time></trkpt><trkpt lat="45.50002613076684" lon="9.183290206956814"><ele>134.0</ele><time>2026-04-25T10:00:03.999Z</time></trkpt><trkpt lat="45.49994996905753" lon="9.18334384514909"><ele>134.5</ele><time>2026-04-25T10:00:04.999Z</time></trkpt><trkpt lat="45.49987797479352" lon="9.183396554035381"><ele>135.0</ele><time>2026-04-25T10:00:05.999Z</time></trkpt><trkpt lat="45.49980903302167" lon="9.183446928061347"><ele>135.0</ele><time>2026-04-25T10:00:06.999Z</time></trkpt><trkpt lat="45.499748819015444" lon="9.183487965828007"><ele>135.0</ele><time>2026-04-25T10:00:07.999Z</time></trkpt><trkpt lat="45.499635867818725" lon="9.183576830816001"><ele>135.0</ele><time>2026-04-25T10:00:09.999Z</time></trkpt><trkpt lat="45.4995781837309" lon="9.183631619530264"><ele>135.0</ele><time>2026-04-25T10:00:10.999Z</time></trkpt><trkpt lat="45.49952052678083" lon="9.18368167838727"><ele>135.0</ele><time>2026-04-25T10:00:11.999Z</time></trkpt><trkpt lat="45.49945415853088" lon="9.183732131874686"><ele>135.0</ele><time>2026-04-25T10:00:12.999Z</time></trkpt><trkpt lat="45.49938188212588" lon="9.183775274040435"><ele>134.71428571428572</ele><time>2026-04-25T10:00:13.999Z</time></trkpt><trkpt lat="45.49931067618555" lon="9.183813001595864"><ele>134.42857142857142</ele><time>2026-04-25T10:00:14.999Z</time></trkpt><trkpt lat="45.49923962959973" lon="9.18386509924868"><ele>134.14285714285714</ele><time>2026-04-25T10:00:15.999Z</time></trkpt><trkpt lat="45.499169730137844" lon="9.183912223873682"><ele>133.85714285714286</ele><time>2026-04-25T10:00:16.999Z</time></trkpt><trkpt lat="45.499103779614664" lon="9.183952667764713"><ele>133.57142857142856</ele><time>2026-04-25T10:00:17.999Z</time></trkpt><trkpt lat="45.499034808223676" lon="9.18399601578231"><ele>133.28571428571428</ele><time>2026-04-25T10:00:18.999Z</time></trkpt><trkpt lat="45.498971982724726" lon="9.184033592304948"><ele>133.0</ele><time>2026-04-25T10:00:19.999Z</time></trkpt><trkpt lat="45.498908585645" lon="9.184081111846833"><ele>132.66666666666669</ele><time>2026-04-25T10:00:20.999Z</time></trkpt><trkpt lat="45.49884066370944" lon="9.184124694972821"><ele>132.33333333333334</ele><time>2026-04-25T10:00:21.999Z</time></trkpt><trkpt lat="45.498766799263706" lon="9.184169922553751"><ele>132.0</ele><time>2026-04-25T10:00:22.999Z</time></trkpt><trkpt lat="45.49869456504837" lon="9.184219663333216"><ele>131.66666666666666</ele><time>2026-04-25T10:00:23.999Z</time></trkpt><trkpt lat="45.498621185213786" lon="9.184271087732444"><ele>131.33333333333331</ele><time>2026-04-25T10:00:24.999Z</time></trkpt><trkpt lat="45.49855073520473" lon="9.18432471046062"><ele>131.0</ele><time>2026-04-25T10:00:25.999Z</time></trkpt><trkpt lat="45.498478471841736" lon="9.18437236066148"><ele>131.0</ele><time>2026-04-25T10:00:26.999Z</time></trkpt><trkpt lat="45.4984159400326" lon="9.18442515346906"><ele>131.0</ele><time>2026-04-25T10:00:27.999Z</time></trkpt><trkpt lat="45.498354983772984" lon="9.18447364521019"><ele>131.0</ele><time>2026-04-25T10:00:28.999Z</time></trkpt><trkpt lat="45.498255164018836" lon="9.184537975418591"><ele>131.0</ele><time>2026-04-25T10:00:30.999Z</time></trkpt><trkpt lat="45.498193542697194" lon="9.184577815961498"><ele>131.0</ele><time>2026-04-25T10:00:32.999Z</time></trkpt><trkpt lat="45.49814372032505" lon="9.184647953875658"><ele>131.0</ele><time>2026-04-25T10:01:00.999Z</time></trkpt><trkpt lat="45.49806136888246" lon="9.184710938547058"><ele>131.0</ele><time>2026-04-25T10:01:03.999Z</time></trkpt><trkpt lat="45.497989364669856" lon="9.184767579117741"><ele>131.0</ele><time>2026-04-25T10:01:05.999Z</time></trkpt><trkpt lat="45.497903572328596" lon="9.18479660567484"><ele>131.0</ele><time>2026-04-25T10:01:07.999Z</time></trkpt><trkpt lat="45.497822054036305" lon="9.184819425424829"><ele>131.0</ele><time>2026-04-25T10:01:09.999Z</time></trkpt><trkpt lat="45.49774702541832" lon="9.184865903495483"><ele>131.0</ele><time>2026-04-25T10:01:11.999Z</time></trkpt><trkpt lat="45.49767537334435" lon="9.184913726183257"><ele>131.0</ele><time>2026-04-25T10:01:13.999Z</time></trkpt><trkpt lat="45.49744454832481" lon="9.185097488192532"><ele>131.0</ele><time>2026-04-25T10:02:06.999Z</time></trkpt><trkpt lat="45.497340556382106" lon="9.18519216031119"><ele>131.0</ele><time>2026-04-25T10:02:08.999Z</time></trkpt><trkpt lat="45.49728047770289" lon="9.185242545304936"><ele>131.0</ele><time>2026-04-25T10:02:09.999Z</time></trkpt><trkpt lat="45.49722320344197" lon="9.185284821592854"><ele>131.0</ele><time>2026-04-25T10:02:10.999Z</time></trkpt><trkpt lat="45.49716452361118" lon="9.185319332513224"><ele>131.0</ele><time>2026-04-25T10:02:11.999Z</time></trkpt><trkpt lat="45.49705502977946" lon="9.185395886281555"><ele>131.0</ele><time>2026-04-25T10:02:13.999Z</time></trkpt><trkpt lat="45.49695212556951" lon="9.18548005306484"><ele>131.83333333333331</ele><time>2026-04-25T10:02:15.999Z</time></trkpt><trkpt lat="45.496875704596555" lon="9.185533195121781"><ele>132.66666666666666</ele><time>2026-04-25T10:02:17.999Z</time></trkpt><trkpt lat="45.49679948450151" lon="9.185587006986827"><ele>133.5</ele><time>2026-04-25T10:02:20.999Z</time></trkpt><trkpt lat="45.49674144630836" lon="9.185633820401165"><ele>134.33333333333334</ele><time>2026-04-25T10:02:24.999Z</time></trkpt><trkpt lat="45.49666592852675" lon="9.185677737976716"><ele>135.16666666666669</ele><time>2026-04-25T10:02:27.999Z</time></trkpt><trkpt lat="45.4965815419486" lon="9.185737731625036"><ele>136.0</ele><time>2026-04-25T10:02:29.999Z</time></trkpt><trkpt lat="45.49648221294174" lon="9.185789869932098"><ele>136.0</ele><time>2026-04-25T10:02:31.999Z</time></trkpt><trkpt lat="45.49639300340693" lon="9.185856244372584"><ele>136.0</ele><time>2026-04-25T10:02:33.999Z</time></trkpt><trkpt lat="45.49630220676969" lon="9.185914183635623"><ele>136.0</ele><time>2026-04-25T10:02:35.999Z</time></trkpt><trkpt lat="45.49621022824756" lon="9.18595808721843"><ele>136.0</ele><time>2026-04-25T10:02:37.999Z</time></trkpt><trkpt lat="45.49611498233551" lon="9.185980402490118"><ele>136.0</ele><time>2026-04-25T10:02:39.999Z</time></trkpt><trkpt lat="45.496020980822266" lon="9.185961262461628"><ele>135.2</ele><time>2026-04-25T10:02:41.999Z</time></trkpt><trkpt lat="45.49591055864907" lon="9.185899196607721"><ele>134.39999999999998</ele><time>2026-04-25T10:02:43.999Z</time></trkpt><trkpt lat="45.4958472233969" lon="9.185872090541636"><ele>133.6</ele><time>2026-04-25T10:02:44.999Z</time></trkpt><trkpt lat="45.495784609743176" lon="9.185850498595881"><ele>132.79999999999998</ele><time>2026-04-25T10:02:45.999Z</time></trkpt><trkpt lat="45.49567167095227" lon="9.185810358992596"><ele>132.0</ele><time>2026-04-25T10:02:47.999Z</time></trkpt><trkpt lat="45.49556832637294" lon="9.18574569644796"><ele>132.0</ele><time>2026-04-25T10:02:49.999Z</time></trkpt><trkpt lat="45.495464651794684" lon="9.185701607910971"><ele>132.0</ele><time>2026-04-25T10:02:51.999Z</time></trkpt><trkpt lat="45.495382285009214" lon="9.185666519205473"><ele>132.0</ele><time>2026-04-25T10:02:53.999Z</time></trkpt><trkpt lat="45.49529473952094" lon="9.185692637595315"><ele>132.0</ele><time>2026-04-25T10:02:55.999Z</time></trkpt><trkpt lat="45.49521826601468" lon="9.185662356714346"><ele>132.0</ele><time>2026-04-25T10:02:57.999Z</time></trkpt><trkpt lat="45.495140414581506" lon="9.185645535116265"><ele>132.0</ele><time>2026-04-25T10:02:59.999Z</time></trkpt><trkpt lat="45.49506083144164" lon="9.185606899402984"><ele>131.5</ele><time>2026-04-25T10:03:01.999Z</time></trkpt><trkpt lat="45.49498845211287" lon="9.185575188573683"><ele>131.0</ele><time>2026-04-25T10:03:03.999Z</time></trkpt><trkpt lat="45.49491579279476" lon="9.185540481221121"><ele>130.5</ele><time>2026-04-25T10:03:06.999Z</time></trkpt><trkpt lat="45.49484453943317" lon="9.185504967918892"><ele>130.0</ele><time>2026-04-25T10:03:16.999Z</time></trkpt><trkpt lat="45.49478228426223" lon="9.185464453335742"><ele>129.5</ele><time>2026-04-25T10:03:18.999Z</time></trkpt><trkpt lat="45.494704557546896" lon="9.185433884863526"><ele>129.0</ele><time>2026-04-25T10:03:20.999Z</time></trkpt><trkpt lat="45.49461834575657" lon="9.18539063577478"><ele>130.0</ele><time>2026-04-25T10:03:22.999Z</time></trkpt><trkpt lat="45.49453110810553" lon="9.185341946865654"><ele>131.0</ele><time>2026-04-25T10:03:24.999Z</time></trkpt><trkpt lat="45.494436637507654" lon="9.18528777524723"><ele>132.0</ele><time>2026-04-25T10:03:26.999Z</time></trkpt><trkpt lat="45.49434645828897" lon="9.185228493313971"><ele>133.0</ele><time>2026-04-25T10:03:28.999Z</time></trkpt><trkpt lat="45.494246322934124" lon="9.185150332363381"><ele>134.0</ele><time>2026-04-25T10:03:30.999Z</time></trkpt><trkpt lat="45.49413255292605" lon="9.185101321151736"><ele>134.0</ele><time>2026-04-25T10:03:32.999Z</time></trkpt><trkpt lat="45.49407210147248" lon="9.185074913837143"><ele>134.0</ele><time>2026-04-25T10:03:33.999Z</time></trkpt><trkpt lat="45.49400985972439" lon="9.185047724459181"><ele>134.0</ele><time>2026-04-25T10:03:34.999Z</time></trkpt><trkpt lat="45.493946409265135" lon="9.185020007076984"><ele>134.0</ele><time>2026-04-25T10:03:36Z</time></trkpt><trkpt lat="45.49387595864367" lon="9.184991479709398"><ele>134.0</ele><time>2026-04-25T10:03:37Z</time></trkpt><trkpt lat="45.493804959654376" lon="9.184965326575371"><ele>134.0</ele><time>2026-04-25T10:03:38Z</time></trkpt><trkpt lat="45.49373525972934" lon="9.18494178125288"><ele>134.0</ele><time>2026-04-25T10:03:39Z</time></trkpt><trkpt lat="45.49367189382091" lon="9.184919366680003"><ele>134.14285714285714</ele><time>2026-04-25T10:03:40Z</time></trkpt><trkpt lat="45.493606559123705" lon="9.184893531730618"><ele>134.28571428571428</ele><time>2026-04-25T10:03:41Z</time></trkpt><trkpt lat="45.49354184463782" lon="9.18486517994444"><ele>134.42857142857142</ele><time>2026-04-25T10:03:42Z</time></trkpt><trkpt lat="45.49347341531393" lon="9.184836067150801"><ele>134.57142857142856</ele><time>2026-04-25T10:03:43Z</time></trkpt><trkpt lat="45.49340608168151" lon="9.184807581145199"><ele>134.7142857142857</ele><time>2026-04-25T10:03:44Z</time></trkpt><trkpt lat="45.49333972042872" lon="9.184778511681158"><ele>134.85714285714286</ele><time>2026-04-25T10:03:45Z</time></trkpt><trkpt lat="45.49327369311535" lon="9.184749588497471"><ele>135.0</ele><time>2026-04-25T10:03:46Z</time></trkpt><trkpt lat="45.493208880548" lon="9.18472125162209"><ele>135.0</ele><time>2026-04-25T10:03:47Z</time></trkpt><trkpt lat="45.4931481053069" lon="9.184695200916519"><ele>135.0</ele><time>2026-04-25T10:03:48Z</time></trkpt><trkpt lat="45.49308654475058" lon="9.18466872808289"><ele>135.0</ele><time>2026-04-25T10:03:49Z</time></trkpt><trkpt lat="45.49297169021771" lon="9.18461927933653"><ele>135.0</ele><time>2026-04-25T10:03:51Z</time></trkpt><trkpt lat="45.492906950000005" lon="9.184591390142522"><ele>135.0</ele><time>2026-04-25T10:03:52Z</time></trkpt><trkpt lat="45.4927861251435" lon="9.18453970722836"><ele>135.0</ele><time>2026-04-25T10:03:54Z</time></trkpt><trkpt lat="45.49266774131207" lon="9.184488143490633"><ele>134.5</ele><time>2026-04-25T10:03:56Z</time></trkpt><trkpt lat="45.49255802102688" lon="9.184441180057005"><ele>134.0</ele><time>2026-04-25T10:03:58Z</time></trkpt><trkpt lat="45.49244867380817" lon="9.18439437629245"><ele>133.5</ele><time>2026-04-25T10:04:00Z</time></trkpt><trkpt lat="45.492345841228996" lon="9.184350296596206"><ele>133.0</ele><time>2026-04-25T10:04:02Z</time></trkpt><trkpt lat="45.49223193723743" lon="9.184303864154684"><ele>133.0</ele><time>2026-04-25T10:04:04Z</time></trkpt><trkpt lat="45.492124536740654" lon="9.184265005561176"><ele>133.0</ele><time>2026-04-25T10:04:06Z</time></trkpt><trkpt lat="45.49201992713887" lon="9.184230976276272"><ele>133.0</ele><time>2026-04-25T10:04:08Z</time></trkpt><trkpt lat="45.491918457005625" lon="9.184194703850746"><ele>133.0</ele><time>2026-04-25T10:04:09.999Z</time></trkpt><trkpt lat="45.4918230010953" lon="9.184157191037418"><ele>133.0</ele><time>2026-04-25T10:04:11.999Z</time></trkpt><trkpt lat="45.491743304789594" lon="9.184122799447254"><ele>132.66666666666669</ele><time>2026-04-25T10:04:13.999Z</time></trkpt><trkpt lat="45.49166600961174" lon="9.184089444026858"><ele>132.33333333333334</ele><time>2026-04-25T10:04:15.999Z</time></trkpt><trkpt lat="45.49159803242262" lon="9.184148271980352"><ele>132.0</ele><time>2026-04-25T10:04:33.999Z</time></trkpt><trkpt lat="45.49152012307144" lon="9.184132739017675"><ele>131.66666666666666</ele><time>2026-04-25T10:04:36.999Z</time></trkpt><trkpt lat="45.4914488279644" lon="9.184110459660529"><ele>131.33333333333331</ele><time>2026-04-25T10:04:38.999Z</time></trkpt><trkpt lat="45.49136853016471" lon="9.184070203579036"><ele>131.0</ele><time>2026-04-25T10:04:40.999Z</time></trkpt><trkpt lat="45.49127134562945" lon="9.184025907906909"><ele>130.66666666666666</ele><time>2026-04-25T10:04:42.999Z</time></trkpt><trkpt lat="45.49115736526417" lon="9.183980546261445"><ele>130.33333333333331</ele><time>2026-04-25T10:04:44.999Z</time></trkpt><trkpt lat="45.49112653103548" lon="9.18383060509487"><ele>130.0</ele><time>2026-04-25T10:04:45.999Z</time></trkpt><trkpt lat="45.491065622791105" lon="9.183801638267195"><ele>129.66666666666666</ele><time>2026-04-25T10:04:46.999Z</time></trkpt><trkpt lat="45.49099922034715" lon="9.183771057117553"><ele>129.33333333333334</ele><time>2026-04-25T10:04:47.999Z</time></trkpt><trkpt lat="45.490938898000074" lon="9.183744634981174"><ele>129.0</ele><time>2026-04-25T10:04:48.999Z</time></trkpt><trkpt lat="45.49087824162861" lon="9.18371847512244"><ele>128.99999999999997</ele><time>2026-04-25T10:04:49.999Z</time></trkpt><trkpt lat="45.49081051885763" lon="9.183689267673076"><ele>129.0</ele><time>2026-04-25T10:04:50.999Z</time></trkpt><trkpt lat="45.490743022073964" lon="9.183660157693069"><ele>129.0</ele><time>2026-04-25T10:04:51.999Z</time></trkpt><trkpt lat="45.49067641326369" lon="9.183631430690692"><ele>129.0</ele><time>2026-04-25T10:04:52.999Z</time></trkpt><trkpt lat="45.490614408157406" lon="9.183605629560882"><ele>129.0</ele><time>2026-04-25T10:04:53.999Z</time></trkpt><trkpt lat="45.49055307382906" lon="9.18357944914614"><ele>128.99999999999997</ele><time>2026-04-25T10:04:54.999Z</time></trkpt><trkpt lat="45.49049110818081" lon="9.183552486535648"><ele>129.0</ele><time>2026-04-25T10:04:55.999Z</time></trkpt><trkpt lat="45.49043003996482" lon="9.183525914417816"><ele>129.2</ele><time>2026-04-25T10:04:56.999Z</time></trkpt><trkpt lat="45.49031845985014" lon="9.18347736346035"><ele>129.4</ele><time>2026-04-25T10:04:58.999Z</time></trkpt><trkpt lat="45.49020536267718" lon="9.18342815239955"><ele>129.6</ele><time>2026-04-25T10:05:00.999Z</time></trkpt><trkpt lat="45.49008239355583" lon="9.183374994866936"><ele>129.8</ele><time>2026-04-25T10:05:02.999Z</time></trkpt><trkpt lat="45.49001502094425" lon="9.183346003227287"><ele>130.0</ele><time>2026-04-25T10:05:03.999Z</time></trkpt><trkpt lat="45.489949371937314" lon="9.183317753288346"><ele>130.0</ele><time>2026-04-25T10:05:04.999Z</time></trkpt><trkpt lat="45.48988522144576" lon="9.18329014818553"><ele>130.0</ele><time>2026-04-25T10:05:05.999Z</time></trkpt><trkpt lat="45.489824444451045" lon="9.183264039127504"><ele>130.0</ele><time>2026-04-25T10:05:06.999Z</time></trkpt><trkpt lat="45.489713727092884" lon="9.183217880370117"><ele>130.0</ele><time>2026-04-25T10:05:08.999Z</time></trkpt><trkpt lat="45.489598601135334" lon="9.183169937800118"><ele>130.0</ele><time>2026-04-25T10:05:10.999Z</time></trkpt><trkpt lat="45.489484055261" lon="9.183117261084933"><ele>130.2</ele><time>2026-04-25T10:05:12.999Z</time></trkpt><trkpt lat="45.48937225938709" lon="9.183064758833705"><ele>130.4</ele><time>2026-04-25T10:05:14.999Z</time></trkpt><trkpt lat="45.48925873455046" lon="9.183013750622791"><ele>130.6</ele><time>2026-04-25T10:05:16.999Z</time></trkpt><trkpt lat="45.489143584587616" lon="9.18296351655759"><ele>130.8</ele><time>2026-04-25T10:05:18.999Z</time></trkpt><trkpt lat="45.4890828507281" lon="9.182939293331"><ele>131.0</ele><time>2026-04-25T10:05:19.999Z</time></trkpt><trkpt lat="45.48896862552161" lon="9.182899219063632"><ele>131.0</ele><time>2026-04-25T10:05:21.999Z</time></trkpt><trkpt lat="45.48887749116357" lon="9.182862263058349"><ele>131.0</ele><time>2026-04-25T10:05:23.999Z</time></trkpt><trkpt lat="45.48881634438384" lon="9.182828334208637"><ele>131.0</ele><time>2026-04-25T10:05:25.999Z</time></trkpt><trkpt lat="45.488747174552806" lon="9.182788444700867"><ele>131.0</ele><time>2026-04-25T10:05:27.999Z</time></trkpt><trkpt lat="45.48868291075983" lon="9.182775540493981"><ele>131.0</ele><time>2026-04-25T10:05:30.999Z</time></trkpt><trkpt lat="45.48862743758415" lon="9.182721719432148"><ele>131.0</ele><time>2026-04-25T10:05:38.999Z</time></trkpt><trkpt lat="45.48857397919425" lon="9.18265538914077"><ele>131.0</ele><time>2026-04-25T10:05:40.999Z</time></trkpt><trkpt lat="45.488509862529334" lon="9.182582938193466"><ele>130.0</ele><time>2026-04-25T10:05:43Z</time></trkpt><trkpt lat="45.48841534754109" lon="9.182552537611041"><ele>129.0</ele><time>2026-04-25T10:05:45Z</time></trkpt><trkpt lat="45.48834527752695" lon="9.182494629951208"><ele>128.0</ele><time>2026-04-25T10:05:47Z</time></trkpt><trkpt lat="45.488255752061875" lon="9.182452893354148"><ele>127.0</ele><time>2026-04-25T10:05:49Z</time></trkpt><trkpt lat="45.48813981486338" lon="9.182440862653065"><ele>126.0</ele><time>2026-04-25T10:05:51Z</time></trkpt><trkpt lat="45.488019732234655" lon="9.182435652893497"><ele>125.5</ele><time>2026-04-25T10:05:53Z</time></trkpt><trkpt lat="45.48790497473046" lon="9.182417967340614"><ele>125.0</ele><time>2026-04-25T10:05:55Z</time></trkpt><trkpt lat="45.487841096866845" lon="9.182409684470683"><ele>124.5</ele><time>2026-04-25T10:05:56Z</time></trkpt><trkpt lat="45.487777741827884" lon="9.182401779511325"><ele>124.0</ele><time>2026-04-25T10:05:57Z</time></trkpt><trkpt lat="45.48771520321234" lon="9.182389809607566"><ele>123.5</ele><time>2026-04-25T10:05:58Z</time></trkpt><trkpt lat="45.48760316823243" lon="9.18236214451979"><ele>123.0</ele><time>2026-04-25T10:06:00Z</time></trkpt><trkpt lat="45.48748995653038" lon="9.182334378223993"><ele>122.75</ele><time>2026-04-25T10:06:02Z</time></trkpt><trkpt lat="45.487376029766416" lon="9.182311378466276"><ele>122.5</ele><time>2026-04-25T10:06:04Z</time></trkpt><trkpt lat="45.4872711624567" lon="9.182290121060921"><ele>122.25</ele><time>2026-04-25T10:06:06Z</time></trkpt><trkpt lat="45.48715808062717" lon="9.18226507499753"><ele>122.0</ele><time>2026-04-25T10:06:08Z</time></trkpt><trkpt lat="45.487042436138864" lon="9.182243316212631"><ele>123.0</ele><time>2026-04-25T10:06:10Z</time></trkpt><trkpt lat="45.4869262489042" lon="9.182218637548106"><ele>124.0</ele><time>2026-04-25T10:06:12Z</time></trkpt><trkpt lat="45.48680749891454" lon="9.182192544569338"><ele>125.0</ele><time>2026-04-25T10:06:14Z</time></trkpt><trkpt lat="45.48668594220624" lon="9.18218179497261"><ele>126.0</ele><time>2026-04-25T10:06:16Z</time></trkpt><trkpt lat="45.48656506489673" lon="9.182185476623932"><ele>126.0</ele><time>2026-04-25T10:06:18Z</time></trkpt><trkpt lat="45.48647324280608" lon="9.182181407549049"><ele>126.0</ele><time>2026-04-25T10:06:20Z</time></trkpt><trkpt lat="45.486386664349666" lon="9.182153634040477"><ele>126.0</ele><time>2026-04-25T10:06:22Z</time></trkpt><trkpt lat="45.48629686422139" lon="9.182128646327557"><ele>126.0</ele><time>2026-04-25T10:06:24Z</time></trkpt><trkpt lat="45.48620736021685" lon="9.182109793494028"><ele>126.0</ele><time>2026-04-25T10:06:25.999Z</time></trkpt><trkpt lat="45.48611801518266" lon="9.182097718924759"><ele>126.5</ele><time>2026-04-25T10:06:27.999Z</time></trkpt><trkpt lat="45.48603706581919" lon="9.182084158297588"><ele>127.0</ele><time>2026-04-25T10:06:29.999Z</time></trkpt><trkpt lat="45.48597117765184" lon="9.182066297254611"><ele>127.5</ele><time>2026-04-25T10:06:31.999Z</time></trkpt><trkpt lat="45.48590819630497" lon="9.182047986099665"><ele>128.0</ele><time>2026-04-25T10:06:40.999Z</time></trkpt><trkpt lat="45.48582191525568" lon="9.182073114095736"><ele>128.5</ele><time>2026-04-25T10:06:43.999Z</time></trkpt><trkpt lat="45.4857426569677" lon="9.182081033109798"><ele>129.0</ele><time>2026-04-25T10:06:45.999Z</time></trkpt><trkpt lat="45.48566990162482" lon="9.1821208921894"><ele>129.0</ele><time>2026-04-25T10:06:47.999Z</time></trkpt><trkpt lat="45.48561106217274" lon="9.182180863009105"><ele>129.0</ele><time>2026-04-25T10:06:49.999Z</time></trkpt><trkpt lat="45.485572978518526" lon="9.182329828547077"><ele>129.0</ele><time>2026-04-25T10:06:51.999Z</time></trkpt><trkpt lat="45.48557220828107" lon="9.18242341465213"><ele>129.0</ele><time>2026-04-25T10:06:52.999Z</time></trkpt><trkpt lat="45.48556897175581" lon="9.182587565425115"><ele>129.0</ele><time>2026-04-25T10:06:54.999Z</time></trkpt><trkpt lat="45.485549782579334" lon="9.182765299894756"><ele>128.57142857142856</ele><time>2026-04-25T10:06:56.999Z</time></trkpt><trkpt lat="45.48554646905202" lon="9.18286017765073"><ele>128.14285714285714</ele><time>2026-04-25T10:06:57.999Z</time></trkpt><trkpt lat="45.4855405475684" lon="9.182956866073885"><ele>127.71428571428571</ele><time>2026-04-25T10:06:58.999Z</time></trkpt><trkpt lat="45.48553751396683" lon="9.183059898834799"><ele>127.28571428571428</ele><time>2026-04-25T10:06:59.999Z</time></trkpt><trkpt lat="45.48552797320626" lon="9.18316434792281"><ele>126.85714285714286</ele><time>2026-04-25T10:07:00.999Z</time></trkpt><trkpt lat="45.48551100674514" lon="9.183261888496707"><ele>126.42857142857143</ele><time>2026-04-25T10:07:01.999Z</time></trkpt><trkpt lat="45.485485454222726" lon="9.183353711706474"><ele>126.0</ele><time>2026-04-25T10:07:02.999Z</time></trkpt><trkpt lat="45.48544652109979" lon="9.183441046625685"><ele>126.66666666666667</ele><time>2026-04-25T10:07:03.999Z</time></trkpt><trkpt lat="45.485400831513836" lon="9.183523145578715"><ele>127.33333333333334</ele><time>2026-04-25T10:07:04.999Z</time></trkpt><trkpt lat="45.48535829504518" lon="9.183610129517906"><ele>128.0</ele><time>2026-04-25T10:07:05.999Z</time></trkpt><trkpt lat="45.48531714009565" lon="9.183705959304108"><ele>128.66666666666669</ele><time>2026-04-25T10:07:06.999Z</time></trkpt><trkpt lat="45.48527175248476" lon="9.183800988897344"><ele>129.33333333333334</ele><time>2026-04-25T10:07:07.999Z</time></trkpt><trkpt lat="45.485222966216384" lon="9.183887609692734"><ele>130.0</ele><time>2026-04-25T10:07:08.999Z</time></trkpt><trkpt lat="45.48517728362996" lon="9.183983512306265"><ele>129.33333333333334</ele><time>2026-04-25T10:07:09.999Z</time></trkpt><trkpt lat="45.4851278314653" lon="9.184073874826833"><ele>128.66666666666669</ele><time>2026-04-25T10:07:10.999Z</time></trkpt><trkpt lat="45.48507426116612" lon="9.184166106577772"><ele>128.0</ele><time>2026-04-25T10:07:11.999Z</time></trkpt><trkpt lat="45.485021725177674" lon="9.184259547782586"><ele>127.33333333333334</ele><time>2026-04-25T10:07:12.999Z</time></trkpt><trkpt lat="45.4849682902167" lon="9.184353701008849"><ele>126.66666666666667</ele><time>2026-04-25T10:07:13.999Z</time></trkpt><trkpt lat="45.48490937694694" lon="9.184445957028792"><ele>126.0</ele><time>2026-04-25T10:07:14.999Z</time></trkpt><trkpt lat="45.484849500035196" lon="9.184528477661186"><ele>126.0</ele><time>2026-04-25T10:07:15.999Z</time></trkpt><trkpt lat="45.48479324952152" lon="9.184609688297485"><ele>126.0</ele><time>2026-04-25T10:07:16.999Z</time></trkpt><trkpt lat="45.48473816916462" lon="9.184692411229525"><ele>126.0</ele><time>2026-04-25T10:07:17.999Z</time></trkpt><trkpt lat="45.4846828271249" lon="9.184779252957359"><ele>126.0</ele><time>2026-04-25T10:07:18.999Z</time></trkpt><trkpt lat="45.48462796723074" lon="9.184865288487938"><ele>126.0</ele><time>2026-04-25T10:07:19.999Z</time></trkpt><trkpt lat="45.48457081181228" lon="9.18495109138445"><ele>126.0</ele><time>2026-04-25T10:07:20.999Z</time></trkpt><trkpt lat="45.48451084984617" lon="9.185034794662872"><ele>125.5</ele><time>2026-04-25T10:07:21.999Z</time></trkpt><trkpt lat="45.48445031639637" lon="9.185123399689234"><ele>125.0</ele><time>2026-04-25T10:07:22.999Z</time></trkpt><trkpt lat="45.48438954903628" lon="9.185213431240184"><ele>124.5</ele><time>2026-04-25T10:07:23.999Z</time></trkpt><trkpt lat="45.48432729650252" lon="9.185306961862876"><ele>124.0</ele><time>2026-04-25T10:07:24.999Z</time></trkpt><trkpt lat="45.484266321747675" lon="9.18540038631141"><ele>123.5</ele><time>2026-04-25T10:07:25.999Z</time></trkpt><trkpt lat="45.484206550666215" lon="9.185483750246842"><ele>123.0</ele><time>2026-04-25T10:07:26.999Z</time></trkpt><trkpt lat="45.48414555867162" lon="9.185576943736322"><ele>123.0</ele><time>2026-04-25T10:07:27.999Z</time></trkpt><trkpt lat="45.48409616913797" lon="9.185670457841209"><ele>123.0</ele><time>2026-04-25T10:07:28.999Z</time></trkpt><trkpt lat="45.484050517065384" lon="9.185763025244883"><ele>123.0</ele><time>2026-04-25T10:07:29.999Z</time></trkpt><trkpt lat="45.48398154457981" lon="9.185825023233308"><ele>123.0</ele><time>2026-04-25T10:07:30.999Z</time></trkpt><trkpt lat="45.483932640186836" lon="9.185890990517464"><ele>123.0</ele><time>2026-04-25T10:07:31.999Z</time></trkpt><trkpt lat="45.483884503799864" lon="9.185953357764017"><ele>123.0</ele><time>2026-04-25T10:07:32.999Z</time></trkpt><trkpt lat="45.48380570173453" lon="9.18607247761929"><ele>123.66666666666667</ele><time>2026-04-25T10:07:34.999Z</time></trkpt><trkpt lat="45.48372605443383" lon="9.18617358600824"><ele>124.33333333333334</ele><time>2026-04-25T10:07:36.999Z</time></trkpt><trkpt lat="45.483662315833975" lon="9.186264922283273"><ele>125.0</ele><time>2026-04-25T10:07:38.999Z</time></trkpt><trkpt lat="45.4836080513326" lon="9.186352785666056"><ele>125.66666666666667</ele><time>2026-04-25T10:07:40.999Z</time></trkpt><trkpt lat="45.483556004248996" lon="9.186440550516734"><ele>126.33333333333334</ele><time>2026-04-25T10:07:42.999Z</time></trkpt><trkpt lat="45.483518156256935" lon="9.186539439188085"><ele>127.0</ele><time>2026-04-25T10:07:44.999Z</time></trkpt><trkpt lat="45.483475694896406" lon="9.186617441733375"><ele>128.0</ele><time>2026-04-25T10:07:46.999Z</time></trkpt><trkpt lat="45.483441166104264" lon="9.186702985724772"><ele>129.0</ele><time>2026-04-25T10:07:50Z</time></trkpt><trkpt lat="45.48340433505864" lon="9.186798381009448"><ele>130.0</ele><time>2026-04-25T10:07:52Z</time></trkpt><trkpt lat="45.48336323929826" lon="9.186915095571532"><ele>131.0</ele><time>2026-04-25T10:07:54Z</time></trkpt><trkpt lat="45.48330590833159" lon="9.187049996951972"><ele>132.0</ele><time>2026-04-25T10:07:56Z</time></trkpt><trkpt lat="45.48325065487999" lon="9.187170253029867"><ele>133.0</ele><time>2026-04-25T10:07:58Z</time></trkpt><trkpt lat="45.48321582424166" lon="9.187276231256753"><ele>132.28571428571428</ele><time>2026-04-25T10:08:02Z</time></trkpt><trkpt lat="45.483171659124984" lon="9.187366915511664"><ele>131.57142857142856</ele><time>2026-04-25T10:08:05Z</time></trkpt><trkpt lat="45.483130829247514" lon="9.187438663815644"><ele>130.85714285714286</ele><time>2026-04-25T10:08:07Z</time></trkpt><trkpt lat="45.48305318818981" lon="9.18744698256487"><ele>130.14285714285714</ele><time>2026-04-25T10:08:09Z</time></trkpt><trkpt lat="45.48298860430897" lon="9.187446594637033"><ele>129.42857142857142</ele><time>2026-04-25T10:08:13Z</time></trkpt><trkpt lat="45.48292419088511" lon="9.187422200782608"><ele>128.71428571428572</ele><time>2026-04-25T10:08:15Z</time></trkpt><trkpt lat="45.48284156757775" lon="9.18740285137782"><ele>128.0</ele><time>2026-04-25T10:08:17Z</time></trkpt><trkpt lat="45.48276813339147" lon="9.187374583943269"><ele>128.0</ele><time>2026-04-25T10:08:19Z</time></trkpt><trkpt lat="45.482692674720454" lon="9.187371631364647"><ele>127.99999999999999</ele><time>2026-04-25T10:08:23Z</time></trkpt><trkpt lat="45.482633178042036" lon="9.187330606263385"><ele>128.0</ele><time>2026-04-25T10:08:29Z</time></trkpt><trkpt lat="45.482538848738436" lon="9.187319004801104"><ele>128.0</ele><time>2026-04-25T10:08:34.999Z</time></trkpt><trkpt lat="45.482477585118396" lon="9.187351778067404"><ele>127.99999999999999</ele><time>2026-04-25T10:08:38.999Z</time></trkpt><trkpt lat="45.48246591564086" lon="9.18745403512475"><ele>128.0</ele><time>2026-04-25T10:08:42.999Z</time></trkpt><trkpt lat="45.48243967715296" lon="9.187540219799967"><ele>128.0</ele><time>2026-04-25T10:08:48.999Z</time></trkpt><trkpt lat="45.482412210736676" lon="9.187635821833108"><ele>128.0</ele><time>2026-04-25T10:08:55.999Z</time></trkpt><trkpt lat="45.48237851348561" lon="9.18771655472118"><ele>128.0</ele><time>2026-04-25T10:08:57.999Z</time></trkpt><trkpt lat="45.4823263116979" lon="9.18783349406026"><ele>128.0</ele><time>2026-04-25T10:08:59.999Z</time></trkpt><trkpt lat="45.482267011919575" lon="9.187964116480822"><ele>128.0</ele><time>2026-04-25T10:09:01.999Z</time></trkpt><trkpt lat="45.482198264137" lon="9.188093221044506"><ele>128.0</ele><time>2026-04-25T10:09:03.999Z</time></trkpt><trkpt lat="45.48213819379284" lon="9.188216718199143"><ele>128.4</ele><time>2026-04-25T10:09:05.999Z</time></trkpt><trkpt lat="45.48209734614157" lon="9.188344299260825"><ele>128.8</ele><time>2026-04-25T10:09:07.999Z</time></trkpt><trkpt lat="45.48204420117516" lon="9.18845426867706"><ele>129.2</ele><time>2026-04-25T10:09:09.999Z</time></trkpt><trkpt lat="45.48199333860113" lon="9.18851411949176"><ele>129.6</ele><time>2026-04-25T10:09:11.999Z</time></trkpt><trkpt lat="45.481880846444646" lon="9.188456351164751"><ele>130.0</ele><time>2026-04-25T10:09:14.999Z</time></trkpt><trkpt lat="45.48177882266924" lon="9.188433450645357"><ele>130.0</ele><time>2026-04-25T10:09:16.999Z</time></trkpt><trkpt lat="45.4816719652631" lon="9.18840946515408"><ele>130.0</ele><time>2026-04-25T10:09:18.999Z</time></trkpt><trkpt lat="45.48157007795382" lon="9.188386595253395"><ele>130.0</ele><time>2026-04-25T10:09:20.999Z</time></trkpt><trkpt lat="45.48149668237099" lon="9.188370120695762"><ele>130.0</ele><time>2026-04-25T10:09:21.999Z</time></trkpt><trkpt lat="45.48142535696088" lon="9.188353902775432"><ele>130.0</ele><time>2026-04-25T10:09:22.999Z</time></trkpt><trkpt lat="45.48136179262321" lon="9.188339235170972"><ele>130.0</ele><time>2026-04-25T10:09:23.999Z</time></trkpt><trkpt lat="45.48124701021588" lon="9.188312748873134"><ele>130.6</ele><time>2026-04-25T10:09:25.999Z</time></trkpt><trkpt lat="45.48112968031767" lon="9.188285674739744"><ele>131.2</ele><time>2026-04-25T10:09:27.999Z</time></trkpt><trkpt lat="45.48101709789783" lon="9.188259696087588"><ele>131.8</ele><time>2026-04-25T10:09:29.999Z</time></trkpt><trkpt lat="45.48091928149524" lon="9.188379707213821"><ele>132.4</ele><time>2026-04-25T10:09:31.999Z</time></trkpt><trkpt lat="45.48085338538271" lon="9.188381362378868"><ele>133.0</ele><time>2026-04-25T10:09:33.999Z</time></trkpt><trkpt lat="45.480787787955045" lon="9.188386335251675"><ele>133.0</ele><time>2026-04-25T10:09:35.999Z</time></trkpt><trkpt lat="45.48073674689677" lon="9.188463618108392"><ele>133.0</ele><time>2026-04-25T10:09:37.999Z</time></trkpt><trkpt lat="45.48071036386414" lon="9.188602792674493"><ele>133.0</ele><time>2026-04-25T10:09:39.999Z</time></trkpt><trkpt lat="45.480725005883464" lon="9.188771434466453"><ele>133.0</ele><time>2026-04-25T10:09:41.999Z</time></trkpt><trkpt lat="45.480734357472826" lon="9.188861011448456"><ele>133.0</ele><time>2026-04-25T10:09:42.999Z</time></trkpt><trkpt lat="45.48074353775085" lon="9.188952166084349"><ele>133.0</ele><time>2026-04-25T10:09:43.999Z</time></trkpt><trkpt lat="45.48075151103969" lon="9.189142526495814"><ele>132.8</ele><time>2026-04-25T10:09:45.999Z</time></trkpt><trkpt lat="45.4807540902798" lon="9.18923960991879"><ele>132.60000000000002</ele><time>2026-04-25T10:09:46.999Z</time></trkpt><trkpt lat="45.480750839403875" lon="9.189331607953855"><ele>132.39999999999998</ele><time>2026-04-25T10:09:47.999Z</time></trkpt><trkpt lat="45.48074319468914" lon="9.189506374955263"><ele>132.2</ele><time>2026-04-25T10:09:49.999Z</time></trkpt><trkpt lat="45.480746784580575" lon="9.189668198871017"><ele>132.0</ele><time>2026-04-25T10:09:51.999Z</time></trkpt><trkpt lat="45.48073031833788" lon="9.189807905558126"><ele>131.5</ele><time>2026-04-25T10:09:54Z</time></trkpt><trkpt lat="45.48072996181069" lon="9.189961814758759"><ele>131.0</ele><time>2026-04-25T10:09:56Z</time></trkpt><trkpt lat="45.48070808597201" lon="9.190089171279384"><ele>130.5</ele><time>2026-04-25T10:09:58Z</time></trkpt><trkpt lat="45.480660434081" lon="9.190166623187045"><ele>130.0</ele><time>2026-04-25T10:10:00Z</time></trkpt><trkpt lat="45.480591598320515" lon="9.190181687033467"><ele>129.5</ele><time>2026-04-25T10:10:02Z</time></trkpt><trkpt lat="45.48051946288615" lon="9.190140885717042"><ele>129.0</ele><time>2026-04-25T10:10:04Z</time></trkpt><trkpt lat="45.4804443950711" lon="9.190090059425515"><ele>129.2</ele><time>2026-04-25T10:10:06Z</time></trkpt><trkpt lat="45.48036837666817" lon="9.190001569783288"><ele>129.4</ele><time>2026-04-25T10:10:08Z</time></trkpt><trkpt lat="45.48028490992704" lon="9.189912073402116"><ele>129.6</ele><time>2026-04-25T10:10:10Z</time></trkpt><trkpt lat="45.48020231557824" lon="9.189823608762872"><ele>129.8</ele><time>2026-04-25T10:10:12Z</time></trkpt><trkpt lat="45.48011986371155" lon="9.189748067125628"><ele>130.0</ele><time>2026-04-25T10:10:14Z</time></trkpt><trkpt lat="45.48007087334382" lon="9.189689559488874"><ele>130.0</ele><time>2026-04-25T10:10:16Z</time></trkpt><trkpt lat="45.480013907841965" lon="9.189810499541649"><ele>130.0</ele><time>2026-04-25T10:10:17Z</time></trkpt><trkpt lat="45.479965620745176" lon="9.189960390463684"><ele>130.0</ele><time>2026-04-25T10:10:19Z</time></trkpt><trkpt lat="45.47996007898667" lon="9.190050662252167"><ele>130.0</ele><time>2026-04-25T10:10:20Z</time></trkpt><trkpt lat="45.47995093243457" lon="9.190140368150383"><ele>130.0</ele><time>2026-04-25T10:10:21Z</time></trkpt><trkpt lat="45.47993808988085" lon="9.190242555782637"><ele>130.0</ele><time>2026-04-25T10:10:22Z</time></trkpt><trkpt lat="45.47992432044551" lon="9.190337228424376"><ele>130.00000000000003</ele><time>2026-04-25T10:10:23Z</time></trkpt><trkpt lat="45.479911529470776" lon="9.190430716008546"><ele>130.0</ele><time>2026-04-25T10:10:24Z</time></trkpt><trkpt lat="45.47989906686607" lon="9.190528535312225"><ele>130.0</ele><time>2026-04-25T10:10:25Z</time></trkpt><trkpt lat="45.479885903401716" lon="9.190625229589536"><ele>130.0</ele><time>2026-04-25T10:10:26Z</time></trkpt><trkpt lat="45.47987430153852" lon="9.190721010538473"><ele>130.0</ele><time>2026-04-25T10:10:27Z</time></trkpt><trkpt lat="45.47986478231436" lon="9.190820266304948"><ele>130.00000000000003</ele><time>2026-04-25T10:10:28Z</time></trkpt><trkpt lat="45.47985321722449" lon="9.190916700971782"><ele>130.0</ele><time>2026-04-25T10:10:29Z</time></trkpt><trkpt lat="45.47983866852879" lon="9.191014093247441"><ele>129.57142857142858</ele><time>2026-04-25T10:10:30Z</time></trkpt><trkpt lat="45.47982655445892" lon="9.191111636950446"><ele>129.14285714285714</ele><time>2026-04-25T10:10:31Z</time></trkpt><trkpt lat="45.479814755583426" lon="9.191201650091545"><ele>128.71428571428572</ele><time>2026-04-25T10:10:32Z</time></trkpt><trkpt lat="45.47980198521387" lon="9.191301290169829"><ele>128.28571428571428</ele><time>2026-04-25T10:10:33Z</time></trkpt><trkpt lat="45.479790690868704" lon="9.191398410804007"><ele>127.85714285714286</ele><time>2026-04-25T10:10:34Z</time></trkpt><trkpt lat="45.479778563964665" lon="9.191496361501148"><ele>127.42857142857143</ele><time>2026-04-25T10:10:35Z</time></trkpt><trkpt lat="45.47976689263794" lon="9.191595378157809"><ele>127.0</ele><time>2026-04-25T10:10:36Z</time></trkpt><trkpt lat="45.479752233554635" lon="9.191696724966512"><ele>126.66666666666667</ele><time>2026-04-25T10:10:37Z</time></trkpt><trkpt lat="45.47973212235149" lon="9.191799410298989"><ele>126.33333333333334</ele><time>2026-04-25T10:10:38Z</time></trkpt><trkpt lat="45.47968583043233" lon="9.191974983555177"><ele>126.0</ele><time>2026-04-25T10:10:39.999Z</time></trkpt><trkpt lat="45.479658229514826" lon="9.19206286781637"><ele>125.66666666666666</ele><time>2026-04-25T10:10:40.999Z</time></trkpt><trkpt lat="45.479625596798456" lon="9.1921507213302"><ele>125.33333333333333</ele><time>2026-04-25T10:10:41.999Z</time></trkpt><trkpt lat="45.479599210315" lon="9.192239639668921"><ele>125.0</ele><time>2026-04-25T10:10:42.999Z</time></trkpt><trkpt lat="45.47957407434669" lon="9.192330783690958"><ele>126.16666666666666</ele><time>2026-04-25T10:10:43.999Z</time></trkpt><trkpt lat="45.479564007284935" lon="9.192420965891353"><ele>127.33333333333333</ele><time>2026-04-25T10:10:44.999Z</time></trkpt><trkpt lat="45.479549504734635" lon="9.192508832333882"><ele>128.5</ele><time>2026-04-25T10:10:45.999Z</time></trkpt><trkpt lat="45.47953711022207" lon="9.192636353402785"><ele>129.66666666666666</ele><time>2026-04-25T10:10:47.999Z</time></trkpt><trkpt lat="45.47951376644986" lon="9.192762113317643"><ele>130.83333333333334</ele><time>2026-04-25T10:10:49.999Z</time></trkpt><trkpt lat="45.479493747065305" lon="9.19288416610412"><ele>132.0</ele><time>2026-04-25T10:10:51.999Z</time></trkpt><trkpt lat="45.47947783345457" lon="9.193017242333339"><ele>132.0</ele><time>2026-04-25T10:10:53.999Z</time></trkpt><trkpt lat="45.47946777577224" lon="9.19315699917186"><ele>132.0</ele><time>2026-04-25T10:10:55.999Z</time></trkpt><trkpt lat="45.47945141825462" lon="9.193332624837291"><ele>132.0</ele><time>2026-04-25T10:10:57.999Z</time></trkpt><trkpt lat="45.47943610159137" lon="9.193505653809995"><ele>132.0</ele><time>2026-04-25T10:10:59.999Z</time></trkpt><trkpt lat="45.47942180141291" lon="9.193663604525465"><ele>132.2</ele><time>2026-04-25T10:11:01.999Z</time></trkpt><trkpt lat="45.47940471537551" lon="9.193817330114147"><ele>132.39999999999998</ele><time>2026-04-25T10:11:03.999Z</time></trkpt><trkpt lat="45.47935259274486" lon="9.193912223398454"><ele>132.60000000000002</ele><time>2026-04-25T10:11:04.999Z</time></trkpt><trkpt lat="45.479293683266135" lon="9.19405410829371"><ele>132.8</ele><time>2026-04-25T10:11:06.999Z</time></trkpt><trkpt lat="45.479230779488184" lon="9.194179656266991"><ele>133.0</ele><time>2026-04-25T10:11:08.999Z</time></trkpt><trkpt lat="45.47917397652353" lon="9.194296151858422"><ele>133.20000000000002</ele><time>2026-04-25T10:11:10.999Z</time></trkpt><trkpt lat="45.479119595566004" lon="9.19441331149269"><ele>133.4</ele><time>2026-04-25T10:11:12.999Z</time></trkpt><trkpt lat="45.47907174917532" lon="9.194517237689414"><ele>133.60000000000002</ele><time>2026-04-25T10:11:14.999Z</time></trkpt><trkpt lat="45.47901963372697" lon="9.194630893003353"><ele>133.8</ele><time>2026-04-25T10:11:16.999Z</time></trkpt><trkpt lat="45.4789604198041" lon="9.194759653475275"><ele>134.0</ele><time>2026-04-25T10:11:18.999Z</time></trkpt><trkpt lat="45.4788906232905" lon="9.19491142587995"><ele>134.0</ele><time>2026-04-25T10:11:20.999Z</time></trkpt><trkpt lat="45.47885564439024" lon="9.19498868168828"><ele>134.0</ele><time>2026-04-25T10:11:21.999Z</time></trkpt><trkpt lat="45.47882109602829" lon="9.19506532408803"><ele>134.0</ele><time>2026-04-25T10:11:22.999Z</time></trkpt><trkpt lat="45.47875054267793" lon="9.195219631972522"><ele>134.0</ele><time>2026-04-25T10:11:24.999Z</time></trkpt><trkpt lat="45.47868540733127" lon="9.195357292547971"><ele>134.0</ele><time>2026-04-25T10:11:26.999Z</time></trkpt><trkpt lat="45.47862053415533" lon="9.195489008565556"><ele>134.0</ele><time>2026-04-25T10:11:28.999Z</time></trkpt><trkpt lat="45.47855157860738" lon="9.195636555591111"><ele>134.0</ele><time>2026-04-25T10:11:30.999Z</time></trkpt><trkpt lat="45.47848249803619" lon="9.195778536280534"><ele>134.0</ele><time>2026-04-25T10:11:32.999Z</time></trkpt><trkpt lat="45.478415033797575" lon="9.195917195031043"><ele>134.0</ele><time>2026-04-25T10:11:34.999Z</time></trkpt><trkpt lat="45.47835730670437" lon="9.196042535200299"><ele>133.66666666666666</ele><time>2026-04-25T10:11:36.999Z</time></trkpt><trkpt lat="45.478317673122625" lon="9.196133214848738"><ele>133.33333333333331</ele><time>2026-04-25T10:11:38.999Z</time></trkpt><trkpt lat="45.4782403525255" lon="9.196169027338053"><ele>133.0</ele><time>2026-04-25T10:11:40.999Z</time></trkpt><trkpt lat="45.47819778943059" lon="9.196267495204436"><ele>132.66666666666666</ele><time>2026-04-25T10:11:43.999Z</time></trkpt><trkpt lat="45.47817730456424" lon="9.196356333451792"><ele>132.33333333333334</ele><time>2026-04-25T10:12:00Z</time></trkpt><trkpt lat="45.47812227033611" lon="9.196430236347583"><ele>132.0</ele><time>2026-04-25T10:12:03Z</time></trkpt><trkpt lat="45.478064818099654" lon="9.196535963356249"><ele>131.5</ele><time>2026-04-25T10:12:06Z</time></trkpt><trkpt lat="45.478027093871134" lon="9.196629990663727"><ele>131.0</ele><time>2026-04-25T10:12:09Z</time></trkpt><trkpt lat="45.47798546823228" lon="9.196720318455501"><ele>130.5</ele><time>2026-04-25T10:12:12Z</time></trkpt><trkpt lat="45.47794492050965" lon="9.196807402064053"><ele>130.0</ele><time>2026-04-25T10:12:15Z</time></trkpt><trkpt lat="45.47790936743885" lon="9.196893663345955"><ele>129.5</ele><time>2026-04-25T10:12:18Z</time></trkpt><trkpt lat="45.47788592878069" lon="9.196989745863437"><ele>129.0</ele><time>2026-04-25T10:12:22Z</time></trkpt><trkpt lat="45.477832049709434" lon="9.19709542759018"><ele>129.0</ele><time>2026-04-25T10:12:25Z</time></trkpt><trkpt lat="45.47779426644067" lon="9.197171589451505"><ele>129.0</ele><time>2026-04-25T10:12:27Z</time></trkpt><trkpt lat="45.47775937593077" lon="9.197250074238378"><ele>129.0</ele><time>2026-04-25T10:12:29Z</time></trkpt><trkpt lat="45.4777218743993" lon="9.197339839499438"><ele>129.0</ele><time>2026-04-25T10:12:32Z</time></trkpt><trkpt lat="45.47767007677929" lon="9.197443764842234"><ele>129.0</ele><time>2026-04-25T10:12:35Z</time></trkpt><trkpt lat="45.477628817452604" lon="9.197544130122655"><ele>129.0</ele><time>2026-04-25T10:12:37Z</time></trkpt><trkpt lat="45.477580707508686" lon="9.197639394601339"><ele>129.2</ele><time>2026-04-25T10:12:39Z</time></trkpt><trkpt lat="45.47753065135152" lon="9.197753276827724"><ele>129.4</ele><time>2026-04-25T10:12:41Z</time></trkpt><trkpt lat="45.47746870362764" lon="9.197880385362078"><ele>129.6</ele><time>2026-04-25T10:12:43Z</time></trkpt><trkpt lat="45.47742060681905" lon="9.19800864188886"><ele>129.8</ele><time>2026-04-25T10:12:45Z</time></trkpt><trkpt lat="45.477354709690374" lon="9.198111665109101"><ele>130.0</ele><time>2026-04-25T10:12:47Z</time></trkpt><trkpt lat="45.477279724540494" lon="9.198192744804194"><ele>130.0</ele><time>2026-04-25T10:12:49Z</time></trkpt><trkpt lat="45.477209923156494" lon="9.198321893878324"><ele>130.0</ele><time>2026-04-25T10:12:51Z</time></trkpt><trkpt lat="45.47713824647255" lon="9.198453063922956"><ele>130.0</ele><time>2026-04-25T10:12:52.999Z</time></trkpt><trkpt lat="45.4770932933082" lon="9.198523529216503"><ele>130.0</ele><time>2026-04-25T10:12:53.999Z</time></trkpt><trkpt lat="45.477052651287536" lon="9.198593846410162"><ele>130.0</ele><time>2026-04-25T10:12:54.999Z</time></trkpt><trkpt lat="45.47701218248554" lon="9.198665251698634"><ele>130.0</ele><time>2026-04-25T10:12:55.999Z</time></trkpt><trkpt lat="45.476971539680264" lon="9.198735743662045"><ele>130.2857142857143</ele><time>2026-04-25T10:12:56.999Z</time></trkpt><trkpt lat="45.476945407425596" lon="9.198825213147492"><ele>130.57142857142858</ele><time>2026-04-25T10:12:57.999Z</time></trkpt><trkpt lat="45.47690780589603" lon="9.19889995739568"><ele>130.85714285714286</ele><time>2026-04-25T10:12:58.999Z</time></trkpt><trkpt lat="45.4768706067254" lon="9.198974640902344"><ele>131.14285714285717</ele><time>2026-04-25T10:12:59.999Z</time></trkpt><trkpt lat="45.47681892431671" lon="9.199043977883928"><ele>131.42857142857144</ele><time>2026-04-25T10:13:00.999Z</time></trkpt><trkpt lat="45.476784591307414" lon="9.199134648643483"><ele>131.71428571428572</ele><time>2026-04-25T10:13:01.999Z</time></trkpt><trkpt lat="45.47674857986261" lon="9.199213378070231"><ele>132.0</ele><time>2026-04-25T10:13:02.999Z</time></trkpt><trkpt lat="45.47670669740847" lon="9.199297991840952"><ele>131.42857142857142</ele><time>2026-04-25T10:13:03.999Z</time></trkpt><trkpt lat="45.47666606825497" lon="9.19938161289745"><ele>130.85714285714286</ele><time>2026-04-25T10:13:04.999Z</time></trkpt><trkpt lat="45.47662626838549" lon="9.199471318478444"><ele>130.28571428571428</ele><time>2026-04-25T10:13:05.999Z</time></trkpt><trkpt lat="45.47658711880111" lon="9.199559666360164"><ele>129.71428571428572</ele><time>2026-04-25T10:13:06.999Z</time></trkpt><trkpt lat="45.476548760528004" lon="9.199642326265018"><ele>129.14285714285714</ele><time>2026-04-25T10:13:07.999Z</time></trkpt><trkpt lat="45.47651009655912" lon="9.199722505744267"><ele>128.57142857142856</ele><time>2026-04-25T10:13:08.999Z</time></trkpt><trkpt lat="45.47647483976683" lon="9.199801008596582"><ele>128.0</ele><time>2026-04-25T10:13:09.999Z</time></trkpt><trkpt lat="45.47643999355806" lon="9.19988049523037"><ele>127.99999999999999</ele><time>2026-04-25T10:13:10.999Z</time></trkpt><trkpt lat="45.47640476164153" lon="9.199956095845453"><ele>128.0</ele><time>2026-04-25T10:13:11.999Z</time></trkpt><trkpt lat="45.47637106488227" lon="9.200033762167946"><ele>128.0</ele><time>2026-04-25T10:13:12.999Z</time></trkpt><trkpt lat="45.476302680850026" lon="9.20017844184632"><ele>128.0</ele><time>2026-04-25T10:13:14.999Z</time></trkpt><trkpt lat="45.476266681656206" lon="9.200256245265228"><ele>127.99999999999999</ele><time>2026-04-25T10:13:15.999Z</time></trkpt><trkpt lat="45.47623015225567" lon="9.200340501952464"><ele>128.0</ele><time>2026-04-25T10:13:16.999Z</time></trkpt><trkpt lat="45.476190359701135" lon="9.200425602753784"><ele>127.83333333333333</ele><time>2026-04-25T10:13:17.999Z</time></trkpt><trkpt lat="45.47614900850918" lon="9.200512744739083"><ele>127.66666666666666</ele><time>2026-04-25T10:13:18.999Z</time></trkpt><trkpt lat="45.47610792233625" lon="9.20059896622703"><ele>127.5</ele><time>2026-04-25T10:13:19.999Z</time></trkpt><trkpt lat="45.476067521749954" lon="9.20069140203451"><ele>127.33333333333334</ele><time>2026-04-25T10:13:20.999Z</time></trkpt><trkpt lat="45.47602799316437" lon="9.200782960227649"><ele>127.16666666666667</ele><time>2026-04-25T10:13:21.999Z</time></trkpt><trkpt lat="45.475986800581865" lon="9.200872559055709"><ele>127.0</ele><time>2026-04-25T10:13:22.999Z</time></trkpt><trkpt lat="45.47594460525378" lon="9.200964797532428"><ele>127.00000000000001</ele><time>2026-04-25T10:13:23.999Z</time></trkpt><trkpt lat="45.47590359902661" lon="9.201060854641215"><ele>127.0</ele><time>2026-04-25T10:13:24.999Z</time></trkpt><trkpt lat="45.47586232069047" lon="9.201154420745523"><ele>127.0</ele><time>2026-04-25T10:13:25.999Z</time></trkpt><trkpt lat="45.47581907322718" lon="9.201254903761003"><ele>127.0</ele><time>2026-04-25T10:13:26.999Z</time></trkpt><trkpt lat="45.4757756347352" lon="9.201349095037756"><ele>127.00000000000001</ele><time>2026-04-25T10:13:27.999Z</time></trkpt><trkpt lat="45.47573077560728" lon="9.201448103964623"><ele>127.0</ele><time>2026-04-25T10:13:28.999Z</time></trkpt><trkpt lat="45.47568443032916" lon="9.201544099726624"><ele>127.16666666666667</ele><time>2026-04-25T10:13:29.999Z</time></trkpt><trkpt lat="45.475636601801455" lon="9.201642202279517"><ele>127.33333333333334</ele><time>2026-04-25T10:13:30.999Z</time></trkpt><trkpt lat="45.475591639646936" lon="9.201747840596855"><ele>127.5</ele><time>2026-04-25T10:13:31.999Z</time></trkpt><trkpt lat="45.475543230851315" lon="9.201850555259659"><ele>127.66666666666666</ele><time>2026-04-25T10:13:32.999Z</time></trkpt><trkpt lat="45.47549686326926" lon="9.201956117859545"><ele>127.83333333333333</ele><time>2026-04-25T10:13:33.999Z</time></trkpt><trkpt lat="45.47544937946349" lon="9.202057017394287"><ele>128.0</ele><time>2026-04-25T10:13:34.999Z</time></trkpt><trkpt lat="45.475401867791035" lon="9.202158379021034"><ele>127.66666666666666</ele><time>2026-04-25T10:13:35.999Z</time></trkpt><trkpt lat="45.47535699391783" lon="9.202258155720878"><ele>127.33333333333333</ele><time>2026-04-25T10:13:36.999Z</time></trkpt><trkpt lat="45.47531357403851" lon="9.202355994509125"><ele>127.0</ele><time>2026-04-25T10:13:37.999Z</time></trkpt><trkpt lat="45.47527182006305" lon="9.202452723532883"><ele>126.66666666666666</ele><time>2026-04-25T10:13:38.999Z</time></trkpt><trkpt lat="45.47523038665328" lon="9.20254797331659"><ele>126.33333333333333</ele><time>2026-04-25T10:13:39.999Z</time></trkpt><trkpt lat="45.475186005768066" lon="9.202645364616052"><ele>126.0</ele><time>2026-04-25T10:13:40.999Z</time></trkpt><trkpt lat="45.47514060677873" lon="9.202736148798904"><ele>126.0</ele><time>2026-04-25T10:13:41.999Z</time></trkpt><trkpt lat="45.47509647801503" lon="9.202833291152425"><ele>126.0</ele><time>2026-04-25T10:13:42.999Z</time></trkpt><trkpt lat="45.47505215435706" lon="9.202919519814051"><ele>126.0</ele><time>2026-04-25T10:13:43.999Z</time></trkpt><trkpt lat="45.475010525887775" lon="9.20301111875798"><ele>126.0</ele><time>2026-04-25T10:13:44.999Z</time></trkpt><trkpt lat="45.474969452615824" lon="9.20310595346455"><ele>126.0</ele><time>2026-04-25T10:13:45.999Z</time></trkpt><trkpt lat="45.47492919927567" lon="9.203194342519238"><ele>126.0</ele><time>2026-04-25T10:13:46.999Z</time></trkpt><trkpt lat="45.47489248323723" lon="9.203268434027391"><ele>126.0</ele><time>2026-04-25T10:13:47.999Z</time></trkpt><trkpt lat="45.47483159810955" lon="9.20340759124852"><ele>126.33333333333333</ele><time>2026-04-25T10:13:49.999Z</time></trkpt><trkpt lat="45.47477181255878" lon="9.203530264750773"><ele>126.66666666666666</ele><time>2026-04-25T10:13:51.999Z</time></trkpt><trkpt lat="45.47471551466056" lon="9.2036593849797"><ele>127.0</ele><time>2026-04-25T10:13:53.999Z</time></trkpt><trkpt lat="45.47466841425268" lon="9.203762115586866"><ele>127.33333333333333</ele><time>2026-04-25T10:13:55.999Z</time></trkpt><trkpt lat="45.47462939636398" lon="9.203848157529086"><ele>127.66666666666666</ele><time>2026-04-25T10:13:58.999Z</time></trkpt><trkpt lat="45.474591362651715" lon="9.203927644688203"><ele>128.0</ele><time>2026-04-25T10:14:18Z</time></trkpt><trkpt lat="45.47455463919765" lon="9.20401170246787"><ele>128.16666666666666</ele><time>2026-04-25T10:14:20Z</time></trkpt><trkpt lat="45.47450890921456" lon="9.204118192923803"><ele>128.33333333333331</ele><time>2026-04-25T10:14:23Z</time></trkpt><trkpt lat="45.47446553396245" lon="9.204205454471301"><ele>128.5</ele><time>2026-04-25T10:14:25Z</time></trkpt><trkpt lat="45.474404927111934" lon="9.204295668738476"><ele>128.66666666666666</ele><time>2026-04-25T10:14:27Z</time></trkpt><trkpt lat="45.47433927616685" lon="9.20439933410412"><ele>128.83333333333334</ele><time>2026-04-25T10:14:29Z</time></trkpt><trkpt lat="45.47427856229649" lon="9.204501990703037"><ele>129.0</ele><time>2026-04-25T10:14:31Z</time></trkpt><trkpt lat="45.47424356600928" lon="9.204595409214901"><ele>129.0</ele><time>2026-04-25T10:14:33Z</time></trkpt><trkpt lat="45.47417405862208" lon="9.204669205613884"><ele>129.0</ele><time>2026-04-25T10:14:36Z</time></trkpt><trkpt lat="45.474118732468526" lon="9.204720319043734"><ele>129.0</ele><time>2026-04-25T10:14:39Z</time></trkpt><trkpt lat="45.47404229356295" lon="9.204683541679302"><ele>129.0</ele><time>2026-04-25T10:14:44Z</time></trkpt><trkpt lat="45.47397479038974" lon="9.204613352502506"><ele>129.0</ele><time>2026-04-25T10:14:47Z</time></trkpt><trkpt lat="45.47391238880879" lon="9.204555000541616"><ele>129.0</ele><time>2026-04-25T10:14:49Z</time></trkpt><trkpt lat="45.47383932470942" lon="9.204489404770547"><ele>128.5</ele><time>2026-04-25T10:14:51Z</time></trkpt><trkpt lat="45.473768136082995" lon="9.204414643895177"><ele>128.0</ele><time>2026-04-25T10:14:53Z</time></trkpt><trkpt lat="45.47370044481286" lon="9.204343000687418"><ele>127.5</ele><time>2026-04-25T10:14:55Z</time></trkpt><trkpt lat="45.473629849971026" lon="9.204278600441711"><ele>127.0</ele><time>2026-04-25T10:14:57Z</time></trkpt><trkpt lat="45.47355978477944" lon="9.204215890858071"><ele>126.5</ele><time>2026-04-25T10:14:59Z</time></trkpt><trkpt lat="45.47349108247531" lon="9.204153452406452"><ele>126.0</ele><time>2026-04-25T10:15:01Z</time></trkpt><trkpt lat="45.47342105367313" lon="9.204095653033539"><ele>126.0</ele><time>2026-04-25T10:15:03Z</time></trkpt><trkpt lat="45.473340240968405" lon="9.20400743397125"><ele>126.0</ele><time>2026-04-25T10:15:05Z</time></trkpt><trkpt lat="45.473243848568615" lon="9.203940913162262"><ele>126.0</ele><time>2026-04-25T10:15:07Z</time></trkpt><trkpt lat="45.47323912301972" lon="9.203827087468163"><ele>126.0</ele><time>2026-04-25T10:15:08Z</time></trkpt><trkpt lat="45.473164099549585" lon="9.203751583750728"><ele>126.0</ele><time>2026-04-25T10:15:10Z</time></trkpt><trkpt lat="45.473107684496625" lon="9.203694807576102"><ele>126.0</ele><time>2026-04-25T10:15:13Z</time></trkpt><trkpt lat="45.47301531682424" lon="9.20386946247498"><ele>126.0</ele><time>2026-04-25T10:15:15Z</time></trkpt><trkpt lat="45.473001744602264" lon="9.203961125492633"><ele>126.0</ele><time>2026-04-25T10:15:17Z</time></trkpt><trkpt lat="45.47296992072034" lon="9.204048095938788"><ele>126.0</ele><time>2026-04-25T10:15:19Z</time></trkpt><trkpt lat="45.47293120313264" lon="9.204141783737887"><ele>126.0</ele><time>2026-04-25T10:15:21Z</time></trkpt><trkpt lat="45.47289162244633" lon="9.204285079164158"><ele>126.16666666666667</ele><time>2026-04-25T10:15:23Z</time></trkpt><trkpt lat="45.472838505487566" lon="9.204350304647836"><ele>126.33333333333334</ele><time>2026-04-25T10:15:24Z</time></trkpt><trkpt lat="45.47281538112763" lon="9.204438677044978"><ele>126.5</ele><time>2026-04-25T10:15:24.999Z</time></trkpt><trkpt lat="45.47276815053759" lon="9.20457763391458"><ele>126.66666666666667</ele><time>2026-04-25T10:15:26.999Z</time></trkpt><trkpt lat="45.47270842628836" lon="9.20471308795725"><ele>126.83333333333334</ele><time>2026-04-25T10:15:28.999Z</time></trkpt><trkpt lat="45.472671290251384" lon="9.204790512559818"><ele>127.0</ele><time>2026-04-25T10:15:29.999Z</time></trkpt><trkpt lat="45.47262681991532" lon="9.204945752078059"><ele>126.6</ele><time>2026-04-25T10:15:31.999Z</time></trkpt><trkpt lat="45.47257623043521" lon="9.205079407043204"><ele>126.19999999999999</ele><time>2026-04-25T10:15:33.999Z</time></trkpt><trkpt lat="45.4724505138059" lon="9.205119519064112"><ele>125.8</ele><time>2026-04-25T10:15:35.999Z</time></trkpt><trkpt lat="45.47241919535449" lon="9.205197992947364"><ele>125.4</ele><time>2026-04-25T10:15:37.999Z</time></trkpt><trkpt lat="45.47233845132731" lon="9.205194421076513"><ele>125.0</ele><time>2026-04-25T10:15:40.999Z</time></trkpt><trkpt lat="45.47226409073167" lon="9.205206624104092"><ele>125.0</ele><time>2026-04-25T10:15:42.999Z</time></trkpt><trkpt lat="45.47216448741225" lon="9.205217177753447"><ele>125.0</ele><time>2026-04-25T10:15:44.999Z</time></trkpt><trkpt lat="45.472049590289004" lon="9.205231114556828"><ele>125.0</ele><time>2026-04-25T10:15:46.999Z</time></trkpt><trkpt lat="45.471951037872785" lon="9.205286939506797"><ele>125.0</ele><time>2026-04-25T10:15:48.999Z</time></trkpt><trkpt lat="45.47185714738737" lon="9.20529342452191"><ele>125.0</ele><time>2026-04-25T10:15:50.999Z</time></trkpt><trkpt lat="45.471771816563155" lon="9.205299318320884"><ele>125.8</ele><time>2026-04-25T10:15:52.999Z</time></trkpt><trkpt lat="45.47170040117371" lon="9.205304224437626"><ele>126.6</ele><time>2026-04-25T10:15:54.999Z</time></trkpt><trkpt lat="45.47160199244372" lon="9.205310962696098"><ele>127.4</ele><time>2026-04-25T10:15:56.999Z</time></trkpt><trkpt lat="45.4714971679361" lon="9.205318140297669"><ele>128.2</ele><time>2026-04-25T10:15:58.999Z</time></trkpt><trkpt lat="45.471403662109324" lon="9.205302750913383"><ele>129.0</ele><time>2026-04-25T10:16:00.999Z</time></trkpt><trkpt lat="45.4713203371146" lon="9.20533283839928"><ele>129.0</ele><time>2026-04-25T10:16:02.999Z</time></trkpt><trkpt lat="45.471234995428624" lon="9.205343376999656"><ele>129.0</ele><time>2026-04-25T10:16:05.999Z</time></trkpt><trkpt lat="45.47116723436544" lon="9.205350375010187"><ele>129.0</ele><time>2026-04-25T10:16:07.999Z</time></trkpt><trkpt lat="45.47109392028293" lon="9.205337796468456"><ele>129.0</ele><time>2026-04-25T10:16:11Z</time></trkpt><trkpt lat="45.47099909617583" lon="9.205337266446115"><ele>129.0</ele><time>2026-04-25T10:16:15Z</time></trkpt><trkpt lat="45.470929109735245" lon="9.20533762245385"><ele>129.0</ele><time>2026-04-25T10:16:18Z</time></trkpt><trkpt lat="45.47086271774801" lon="9.20533555894337"><ele>129.0</ele><time>2026-04-25T10:16:23Z</time></trkpt><trkpt lat="45.4707974312556" lon="9.205340281957737"><ele>129.0</ele><time>2026-04-25T10:16:25Z</time></trkpt><trkpt lat="45.47070740470313" lon="9.205357579713091"><ele>129.0</ele><time>2026-04-25T10:16:27Z</time></trkpt><trkpt lat="45.47058465167664" lon="9.205384170393451"><ele>129.0</ele><time>2026-04-25T10:16:29Z</time></trkpt><trkpt lat="45.47051535669708" lon="9.205407052740512"><ele>129.0</ele><time>2026-04-25T10:16:30Z</time></trkpt><trkpt lat="45.470449513476225" lon="9.205413748374653"><ele>129.0</ele><time>2026-04-25T10:16:31Z</time></trkpt><trkpt lat="45.470383141780374" lon="9.205422177001351"><ele>129.14285714285714</ele><time>2026-04-25T10:16:32Z</time></trkpt><trkpt lat="45.470310471765885" lon="9.20543016252362"><ele>129.28571428571428</ele><time>2026-04-25T10:16:33Z</time></trkpt><trkpt lat="45.470236689755005" lon="9.205440370302595"><ele>129.42857142857144</ele><time>2026-04-25T10:16:34Z</time></trkpt><trkpt lat="45.47016782977297" lon="9.20543648386148"><ele>129.57142857142856</ele><time>2026-04-25T10:16:35Z</time></trkpt><trkpt lat="45.47009670212437" lon="9.205443103954929"><ele>129.71428571428572</ele><time>2026-04-25T10:16:36Z</time></trkpt><trkpt lat="45.470021083559885" lon="9.205453192492863"><ele>129.85714285714286</ele><time>2026-04-25T10:16:37Z</time></trkpt><trkpt lat="45.469944038612" lon="9.205456455082182"><ele>130.0</ele><time>2026-04-25T10:16:38Z</time></trkpt><trkpt lat="45.46986416800149" lon="9.205468297933056"><ele>130.0</ele><time>2026-04-25T10:16:39Z</time></trkpt><trkpt lat="45.46978458232573" lon="9.205473941069291"><ele>130.0</ele><time>2026-04-25T10:16:40Z</time></trkpt><trkpt lat="45.46970324605347" lon="9.205482376420466"><ele>130.0</ele><time>2026-04-25T10:16:41Z</time></trkpt><trkpt lat="45.469619446479946" lon="9.205491375790052"><ele>130.0</ele><time>2026-04-25T10:16:42Z</time></trkpt><trkpt lat="45.46953934744952" lon="9.205523067406952"><ele>130.0</ele><time>2026-04-25T10:16:43Z</time></trkpt><trkpt lat="45.46945796785243" lon="9.205533376348987"><ele>130.0</ele><time>2026-04-25T10:16:44Z</time></trkpt><trkpt lat="45.46937841789973" lon="9.20554355357074"><ele>130.16666666666669</ele><time>2026-04-25T10:16:45Z</time></trkpt><trkpt lat="45.46930083083093" lon="9.205553444760758"><ele>130.33333333333334</ele><time>2026-04-25T10:16:46Z</time></trkpt><trkpt lat="45.469220519707726" lon="9.205562460537955"><ele>130.5</ele><time>2026-04-25T10:16:47Z</time></trkpt><trkpt lat="45.46914453364552" lon="9.205570259635778"><ele>130.66666666666666</ele><time>2026-04-25T10:16:48Z</time></trkpt><trkpt lat="45.4690647677393" lon="9.205578446698368"><ele>130.83333333333331</ele><time>2026-04-25T10:16:49Z</time></trkpt><trkpt lat="45.468987059269345" lon="9.205586422577747"><ele>131.0</ele><time>2026-04-25T10:16:50Z</time></trkpt><trkpt lat="45.46890961340261" lon="9.205594371507583"><ele>131.0</ele><time>2026-04-25T10:16:51Z</time></trkpt><trkpt lat="45.46883664774824" lon="9.20560321276052"><ele>131.0</ele><time>2026-04-25T10:16:52Z</time></trkpt><trkpt lat="45.468761720945935" lon="9.20561277653887"><ele>131.0</ele><time>2026-04-25T10:16:53Z</time></trkpt><trkpt lat="45.468685512163084" lon="9.205622503950165"><ele>131.0</ele><time>2026-04-25T10:16:54Z</time></trkpt><trkpt lat="45.468609031726245" lon="9.205632266035517"><ele>131.0</ele><time>2026-04-25T10:16:55Z</time></trkpt><trkpt lat="45.46853349007488" lon="9.205641908290449"><ele>131.0</ele><time>2026-04-25T10:16:56Z</time></trkpt><trkpt lat="45.46845831059223" lon="9.205651504320358"><ele>131.16666666666666</ele><time>2026-04-25T10:16:57Z</time></trkpt><trkpt lat="45.46838575617009" lon="9.2056607653375"><ele>131.33333333333331</ele><time>2026-04-25T10:16:58Z</time></trkpt><trkpt lat="45.468318533614024" lon="9.205669345849788"><ele>131.5</ele><time>2026-04-25T10:16:59Z</time></trkpt><trkpt lat="45.46825595904555" lon="9.205655887825566"><ele>131.66666666666666</ele><time>2026-04-25T10:17:00Z</time></trkpt><trkpt lat="45.46814570487974" lon="9.205670524169022"><ele>131.83333333333334</ele><time>2026-04-25T10:17:02Z</time></trkpt><trkpt lat="45.4680522704612" lon="9.20568272110988"><ele>132.0</ele><time>2026-04-25T10:17:04Z</time></trkpt><trkpt lat="45.46797596478474" lon="9.205701094931374"><ele>131.0</ele><time>2026-04-25T10:17:06Z</time></trkpt><trkpt lat="45.46788871159588" lon="9.2057117971837"><ele>130.0</ele><time>2026-04-25T10:17:08Z</time></trkpt><trkpt lat="45.46779755387197" lon="9.20573640956953"><ele>129.0</ele><time>2026-04-25T10:17:10Z</time></trkpt><trkpt lat="45.46772764548325" lon="9.20574771741442"><ele>128.0</ele><time>2026-04-25T10:17:12Z</time></trkpt><trkpt lat="45.46765851448765" lon="9.205760348563775"><ele>127.0</ele><time>2026-04-25T10:17:14Z</time></trkpt><trkpt lat="45.46758277581675" lon="9.205781852849054"><ele>126.0</ele><time>2026-04-25T10:17:16Z</time></trkpt><trkpt lat="45.46748140611325" lon="9.20580292382701"><ele>126.0</ele><time>2026-04-25T10:17:18Z</time></trkpt><trkpt lat="45.46736613278976" lon="9.205802030359637"><ele>126.0</ele><time>2026-04-25T10:17:20Z</time></trkpt><trkpt lat="45.46724417543097" lon="9.205798144735592"><ele>126.0</ele><time>2026-04-25T10:17:22Z</time></trkpt><trkpt lat="45.46718112669743" lon="9.205799884262222"><ele>126.0</ele><time>2026-04-25T10:17:23Z</time></trkpt><trkpt lat="45.46711537795803" lon="9.205801490121832"><ele>126.0</ele><time>2026-04-25T10:17:24Z</time></trkpt><trkpt lat="45.46704975027163" lon="9.205822104082463"><ele>126.0</ele><time>2026-04-25T10:17:25Z</time></trkpt><trkpt lat="45.466977820711186" lon="9.20580549324715"><ele>125.57142857142857</ele><time>2026-04-25T10:17:26Z</time></trkpt><trkpt lat="45.466904419497595" lon="9.20580996909678"><ele>125.14285714285714</ele><time>2026-04-25T10:17:27Z</time></trkpt><trkpt lat="45.466835280107695" lon="9.205836875072514"><ele>124.71428571428572</ele><time>2026-04-25T10:17:28Z</time></trkpt><trkpt lat="45.466761785061664" lon="9.20584941825101"><ele>124.28571428571429</ele><time>2026-04-25T10:17:29Z</time></trkpt><trkpt lat="45.46669434113776" lon="9.205850155131305"><ele>123.85714285714286</ele><time>2026-04-25T10:17:30Z</time></trkpt><trkpt lat="45.466619267069966" lon="9.205854474960379"><ele>123.42857142857144</ele><time>2026-04-25T10:17:31Z</time></trkpt><trkpt lat="45.466555202855226" lon="9.20585616524379"><ele>123.00000000000001</ele><time>2026-04-25T10:17:32Z</time></trkpt><trkpt lat="45.46649010105479" lon="9.20586574395492"><ele>123.00000000000001</ele><time>2026-04-25T10:17:33Z</time></trkpt><trkpt lat="45.466425089955116" lon="9.205869734568948"><ele>123.0</ele><time>2026-04-25T10:17:34Z</time></trkpt><trkpt lat="45.466358233611935" lon="9.205877497582499"><ele>123.00000000000001</ele><time>2026-04-25T10:17:35Z</time></trkpt><trkpt lat="45.466286525030284" lon="9.20588509326626"><ele>123.00000000000001</ele><time>2026-04-25T10:17:36Z</time></trkpt><trkpt lat="45.466213405409995" lon="9.205891808413442"><ele>123.0</ele><time>2026-04-25T10:17:37Z</time></trkpt><trkpt lat="45.46614044076489" lon="9.205898119701851"><ele>123.00000000000001</ele><time>2026-04-25T10:17:38Z</time></trkpt><trkpt lat="45.466065598938286" lon="9.205910629914248"><ele>123.00000000000001</ele><time>2026-04-25T10:17:39Z</time></trkpt><trkpt lat="45.465988245432875" lon="9.205912283026164"><ele>123.83333333333333</ele><time>2026-04-25T10:17:40Z</time></trkpt><trkpt lat="45.465906300042384" lon="9.205932059472767"><ele>124.66666666666666</ele><time>2026-04-25T10:17:41Z</time></trkpt><trkpt lat="45.46582446722311" lon="9.205951110617281"><ele>125.5</ele><time>2026-04-25T10:17:42Z</time></trkpt><trkpt lat="45.46574362903443" lon="9.205968590189443"><ele>126.33333333333333</ele><time>2026-04-25T10:17:43Z</time></trkpt><trkpt lat="45.46566145210343" lon="9.205983430393712"><ele>127.16666666666666</ele><time>2026-04-25T10:17:44Z</time></trkpt><trkpt lat="45.46558150032545" lon="9.20599298587727"><ele>128.0</ele><time>2026-04-25T10:17:45Z</time></trkpt><trkpt lat="45.465501394392334" lon="9.205994974359346"><ele>128.16666666666666</ele><time>2026-04-25T10:17:46Z</time></trkpt><trkpt lat="45.465418050562235" lon="9.20600699915358"><ele>128.33333333333331</ele><time>2026-04-25T10:17:47Z</time></trkpt><trkpt lat="45.4653405005815" lon="9.206019245318304"><ele>128.5</ele><time>2026-04-25T10:17:48Z</time></trkpt><trkpt lat="45.46526675766634" lon="9.206026846735243"><ele>128.66666666666666</ele><time>2026-04-25T10:17:49Z</time></trkpt><trkpt lat="45.465192627033296" lon="9.206026745333181"><ele>128.83333333333334</ele><time>2026-04-25T10:17:49.999Z</time></trkpt><trkpt lat="45.46511170121552" lon="9.206048043479958"><ele>129.0</ele><time>2026-04-25T10:17:50.999Z</time></trkpt><trkpt lat="45.46503058458475" lon="9.206052929421086"><ele>129.0</ele><time>2026-04-25T10:17:51.999Z</time></trkpt><trkpt lat="45.46494897676507" lon="9.206073246672677"><ele>129.0</ele><time>2026-04-25T10:17:52.999Z</time></trkpt><trkpt lat="45.464870414359766" lon="9.206078890332163"><ele>129.0</ele><time>2026-04-25T10:17:53.999Z</time></trkpt><trkpt lat="45.46478867163612" lon="9.206087861688811"><ele>129.0</ele><time>2026-04-25T10:17:54.999Z</time></trkpt><trkpt lat="45.464704011065855" lon="9.20610364802172"><ele>129.0</ele><time>2026-04-25T10:17:55.999Z</time></trkpt><trkpt lat="45.464616583544654" lon="9.206118730612337"><ele>129.0</ele><time>2026-04-25T10:17:56.999Z</time></trkpt><trkpt lat="45.46453566456915" lon="9.206124341943973"><ele>128.66666666666666</ele><time>2026-04-25T10:17:57.999Z</time></trkpt><trkpt lat="45.464451895062425" lon="9.20614004554408"><ele>128.33333333333334</ele><time>2026-04-25T10:17:58.999Z</time></trkpt><trkpt lat="45.464369022388425" lon="9.206151821283736"><ele>128.0</ele><time>2026-04-25T10:17:59.999Z</time></trkpt><trkpt lat="45.46428427551084" lon="9.206163016499891"><ele>127.66666666666667</ele><time>2026-04-25T10:18:00.999Z</time></trkpt><trkpt lat="45.46420035609718" lon="9.20616863651519"><ele>127.33333333333334</ele><time>2026-04-25T10:18:01.999Z</time></trkpt><trkpt lat="45.464110753168015" lon="9.20619276948755"><ele>127.0</ele><time>2026-04-25T10:18:02.999Z</time></trkpt><trkpt lat="45.4640224941589" lon="9.206208521352629"><ele>127.00000000000001</ele><time>2026-04-25T10:18:03.999Z</time></trkpt><trkpt lat="45.46393618968613" lon="9.20622129504363"><ele>127.0</ele><time>2026-04-25T10:18:04.999Z</time></trkpt><trkpt lat="45.4638541788212" lon="9.206230179359006"><ele>127.0</ele><time>2026-04-25T10:18:05.999Z</time></trkpt><trkpt lat="45.46377255947265" lon="9.206245558928522"><ele>127.0</ele><time>2026-04-25T10:18:06.999Z</time></trkpt><trkpt lat="45.463692349973165" lon="9.206256959600578"><ele>127.00000000000001</ele><time>2026-04-25T10:18:07.999Z</time></trkpt><trkpt lat="45.463616181676436" lon="9.206267741130668"><ele>127.0</ele><time>2026-04-25T10:18:08.999Z</time></trkpt><trkpt lat="45.463539837622434" lon="9.206285141913675"><ele>127.16666666666667</ele><time>2026-04-25T10:18:09.999Z</time></trkpt><trkpt lat="45.46346228538906" lon="9.206272459363747"><ele>127.33333333333334</ele><time>2026-04-25T10:18:10.999Z</time></trkpt><trkpt lat="45.46338475807767" lon="9.206285738831445"><ele>127.5</ele><time>2026-04-25T10:18:11.999Z</time></trkpt><trkpt lat="45.46331494023099" lon="9.206307249237032"><ele>127.66666666666666</ele><time>2026-04-25T10:18:12.999Z</time></trkpt><trkpt lat="45.46322320384405" lon="9.206393639181988"><ele>127.83333333333333</ele><time>2026-04-25T10:18:14.999Z</time></trkpt><trkpt lat="45.46315425294484" lon="9.206415995898498"><ele>128.0</ele><time>2026-04-25T10:18:17Z</time></trkpt><trkpt lat="45.463087002866686" lon="9.206459367985468"><ele>127.4</ele><time>2026-04-25T10:18:22Z</time></trkpt><trkpt lat="45.46299291587564" lon="9.206509862676073"><ele>126.80000000000001</ele><time>2026-04-25T10:18:28Z</time></trkpt><trkpt lat="45.462891842225446" lon="9.206527246847214"><ele>126.2</ele><time>2026-04-25T10:18:30Z</time></trkpt><trkpt lat="45.462790828603964" lon="9.20653753922276"><ele>125.6</ele><time>2026-04-25T10:18:32Z</time></trkpt><trkpt lat="45.46269069483223" lon="9.206551156007807"><ele>125.0</ele><time>2026-04-25T10:18:34Z</time></trkpt><trkpt lat="45.462581999106575" lon="9.206546657958832"><ele>124.99999999999999</ele><time>2026-04-25T10:18:36Z</time></trkpt><trkpt lat="45.46248804235507" lon="9.206538218841063"><ele>125.0</ele><time>2026-04-25T10:18:38Z</time></trkpt><trkpt lat="45.46241750271906" lon="9.206553330776988"><ele>125.0</ele><time>2026-04-25T10:18:40Z</time></trkpt><trkpt lat="45.462352063852485" lon="9.206572139858109"><ele>125.0</ele><time>2026-04-25T10:18:43Z</time></trkpt><trkpt lat="45.46234114521662" lon="9.206440133151789"><ele>124.99999999999999</ele><time>2026-04-25T10:18:44Z</time></trkpt><trkpt lat="45.46235631747871" lon="9.206313771768"><ele>125.0</ele><time>2026-04-25T10:18:46Z</time></trkpt><trkpt lat="45.46234507000134" lon="9.206149248769558"><ele>126.16666666666666</ele><time>2026-04-25T10:18:48Z</time></trkpt><trkpt lat="45.462352681390044" lon="9.206012924771338"><ele>127.33333333333333</ele><time>2026-04-25T10:18:50Z</time></trkpt><trkpt lat="45.46234236074033" lon="9.205903948143218"><ele>128.5</ele><time>2026-04-25T10:18:54Z</time></trkpt><trkpt lat="45.46235238090134" lon="9.20580040051067"><ele>129.66666666666666</ele><time>2026-04-25T10:18:57Z</time></trkpt><trkpt lat="45.46234984563372" lon="9.205695705232314"><ele>130.83333333333334</ele><time>2026-04-25T10:18:59Z</time></trkpt><trkpt lat="45.46234356136557" lon="9.20554113149259"><ele>132.0</ele><time>2026-04-25T10:19:01Z</time></trkpt><trkpt lat="45.46232939579343" lon="9.205356787965602"><ele>132.0</ele><time>2026-04-25T10:19:03Z</time></trkpt><trkpt lat="45.46234269921841" lon="9.205255897419661"><ele>132.0</ele><time>2026-04-25T10:19:04Z</time></trkpt><trkpt lat="45.46234141119618" lon="9.205150110320158"><ele>132.0</ele><time>2026-04-25T10:19:05Z</time></trkpt><trkpt lat="45.462338258127154" lon="9.20504948414704"><ele>132.0</ele><time>2026-04-25T10:19:06Z</time></trkpt><trkpt lat="45.46233304702578" lon="9.204943885874988"><ele>132.0</ele><time>2026-04-25T10:19:07Z</time></trkpt><trkpt lat="45.46233285127541" lon="9.204831675111027"><ele>132.0</ele><time>2026-04-25T10:19:08Z</time></trkpt><trkpt lat="45.46233470098006" lon="9.204718001284498"><ele>131.5</ele><time>2026-04-25T10:19:09Z</time></trkpt><trkpt lat="45.46234050385292" lon="9.204604677237905"><ele>131.0</ele><time>2026-04-25T10:19:10Z</time></trkpt><trkpt lat="45.46234107184662" lon="9.204483892356333"><ele>130.5</ele><time>2026-04-25T10:19:11Z</time></trkpt><trkpt lat="45.462344187709405" lon="9.204363905466622"><ele>130.0</ele><time>2026-04-25T10:19:12Z</time></trkpt><trkpt lat="45.46234461172061" lon="9.204240134636157"><ele>129.5</ele><time>2026-04-25T10:19:13Z</time></trkpt><trkpt lat="45.46234913183159" lon="9.204122920624345"><ele>129.0</ele><time>2026-04-25T10:19:14Z</time></trkpt><trkpt lat="45.46234529102653" lon="9.204000581401687"><ele>128.66666666666666</ele><time>2026-04-25T10:19:15Z</time></trkpt><trkpt lat="45.46234182239283" lon="9.203876110592761"><ele>128.33333333333334</ele><time>2026-04-25T10:19:16Z</time></trkpt><trkpt lat="45.462340355421894" lon="9.203753777052912"><ele>128.0</ele><time>2026-04-25T10:19:17Z</time></trkpt><trkpt lat="45.462339119012384" lon="9.203632268074143"><ele>127.66666666666667</ele><time>2026-04-25T10:19:18Z</time></trkpt><trkpt lat="45.462334805290624" lon="9.203509880966534"><ele>127.33333333333334</ele><time>2026-04-25T10:19:19Z</time></trkpt><trkpt lat="45.46233900880381" lon="9.203385878168742"><ele>127.0</ele><time>2026-04-25T10:19:20Z</time></trkpt><trkpt lat="45.46233629976263" lon="9.203264426739022"><ele>126.83333333333334</ele><time>2026-04-25T10:19:21Z</time></trkpt><trkpt lat="45.46233264672573" lon="9.203147149164543"><ele>126.66666666666667</ele><time>2026-04-25T10:19:22Z</time></trkpt><trkpt lat="45.46233210667075" lon="9.203031062010261"><ele>126.5</ele><time>2026-04-25T10:19:23Z</time></trkpt><trkpt lat="45.46233113304914" lon="9.202912636227007"><ele>126.33333333333334</ele><time>2026-04-25T10:19:24Z</time></trkpt><trkpt lat="45.462329676411564" lon="9.202792881158198"><ele>126.16666666666667</ele><time>2026-04-25T10:19:25Z</time></trkpt><trkpt lat="45.462336982898684" lon="9.202682317709671"><ele>126.0</ele><time>2026-04-25T10:19:26Z</time></trkpt><trkpt lat="45.46233591276088" lon="9.202559459804093"><ele>126.0</ele><time>2026-04-25T10:19:27Z</time></trkpt><trkpt lat="45.46233497555335" lon="9.20243768198249"><ele>126.0</ele><time>2026-04-25T10:19:28Z</time></trkpt><trkpt lat="45.46233571304948" lon="9.202319661021825"><ele>126.0</ele><time>2026-04-25T10:19:29Z</time></trkpt><trkpt lat="45.462338673563515" lon="9.2022025494981"><ele>126.0</ele><time>2026-04-25T10:19:30Z</time></trkpt><trkpt lat="45.46234194394379" lon="9.202083109651117"><ele>126.0</ele><time>2026-04-25T10:19:31Z</time></trkpt><trkpt lat="45.46235000668737" lon="9.20195833588413"><ele>126.0</ele><time>2026-04-25T10:19:32Z</time></trkpt><trkpt lat="45.46236023075225" lon="9.201836001394181"><ele>125.83333333333333</ele><time>2026-04-25T10:19:33Z</time></trkpt><trkpt lat="45.46237769041893" lon="9.201715730032669"><ele>125.66666666666666</ele><time>2026-04-25T10:19:34Z</time></trkpt><trkpt lat="45.46239921616123" lon="9.201605792379208"><ele>125.5</ele><time>2026-04-25T10:19:35Z</time></trkpt><trkpt lat="45.4624215146443" lon="9.201497392813991"><ele>125.33333333333333</ele><time>2026-04-25T10:19:36Z</time></trkpt><trkpt lat="45.46244541136798" lon="9.201394168667866"><ele>125.16666666666666</ele><time>2026-04-25T10:19:37Z</time></trkpt><trkpt lat="45.4624697664643" lon="9.201295771005388"><ele>125.0</ele><time>2026-04-25T10:19:38Z</time></trkpt><trkpt lat="45.46249692478583" lon="9.201203464932991"><ele>125.4</ele><time>2026-04-25T10:19:39Z</time></trkpt><trkpt lat="45.46254707315406" lon="9.201134672586772"><ele>125.8</ele><time>2026-04-25T10:19:40Z</time></trkpt><trkpt lat="45.46258621831354" lon="9.200974876877355"><ele>126.19999999999999</ele><time>2026-04-25T10:19:42Z</time></trkpt><trkpt lat="45.462621595513475" lon="9.200830460208245"><ele>126.6</ele><time>2026-04-25T10:19:44Z</time></trkpt><trkpt lat="45.462662871341145" lon="9.200708739199897"><ele>127.0</ele><time>2026-04-25T10:19:46Z</time></trkpt><trkpt lat="45.46270313785599" lon="9.200578422413612"><ele>127.6</ele><time>2026-04-25T10:19:48Z</time></trkpt><trkpt lat="45.462741941885355" lon="9.200452838754215"><ele>128.2</ele><time>2026-04-25T10:19:49.999Z</time></trkpt><trkpt lat="45.462778720601996" lon="9.200333809761917"><ele>128.8</ele><time>2026-04-25T10:19:51.999Z</time></trkpt><trkpt lat="45.462815075597966" lon="9.200216152017157"><ele>129.4</ele><time>2026-04-25T10:19:53.999Z</time></trkpt><trkpt lat="45.46284816950682" lon="9.200096147681219"><ele>130.0</ele><time>2026-04-25T10:19:55.999Z</time></trkpt><trkpt lat="45.462880220749604" lon="9.19995442364585"><ele>130.0</ele><time>2026-04-25T10:19:57.999Z</time></trkpt><trkpt lat="45.462938260206045" lon="9.199817479874369"><ele>130.0</ele><time>2026-04-25T10:19:59.999Z</time></trkpt><trkpt lat="45.46297161137889" lon="9.199666204943249"><ele>130.0</ele><time>2026-04-25T10:20:01.999Z</time></trkpt><trkpt lat="45.46301032966934" lon="9.199518507621827"><ele>130.0</ele><time>2026-04-25T10:20:03.999Z</time></trkpt><trkpt lat="45.463044189148604" lon="9.199390483161647"><ele>130.0</ele><time>2026-04-25T10:20:05.999Z</time></trkpt><trkpt lat="45.463079931642504" lon="9.199265883287373"><ele>129.6</ele><time>2026-04-25T10:20:07.999Z</time></trkpt><trkpt lat="45.46316454207845" lon="9.199022191548732"><ele>129.2</ele><time>2026-04-25T10:20:12.999Z</time></trkpt><trkpt lat="45.463179981971365" lon="9.198906683792504"><ele>128.8</ele><time>2026-04-25T10:20:14.999Z</time></trkpt><trkpt lat="45.46319615877179" lon="9.198805651289641"><ele>128.4</ele><time>2026-04-25T10:20:16.999Z</time></trkpt><trkpt lat="45.463238319179474" lon="9.198738216166172"><ele>128.0</ele><time>2026-04-25T10:20:18.999Z</time></trkpt><trkpt lat="45.463277292650154" lon="9.198637812746721"><ele>128.0</ele><time>2026-04-25T10:20:20.999Z</time></trkpt><trkpt lat="45.463319267133905" lon="9.198495818907851"><ele>128.0</ele><time>2026-04-25T10:20:23Z</time></trkpt><trkpt lat="45.46334026609935" lon="9.198355025148249"><ele>128.0</ele><time>2026-04-25T10:20:25Z</time></trkpt><trkpt lat="45.463366434579406" lon="9.198222734736733"><ele>128.0</ele><time>2026-04-25T10:20:27Z</time></trkpt><trkpt lat="45.46339426484302" lon="9.198100682676753"><ele>128.0</ele><time>2026-04-25T10:20:29Z</time></trkpt><trkpt lat="45.46341472002192" lon="9.197969939489939"><ele>127.49999999999999</ele><time>2026-04-25T10:20:31Z</time></trkpt><trkpt lat="45.46344185428598" lon="9.197836004188252"><ele>127.0</ele><time>2026-04-25T10:20:33Z</time></trkpt><trkpt lat="45.46346618461737" lon="9.197744789106864"><ele>126.5</ele><time>2026-04-25T10:20:35Z</time></trkpt><trkpt lat="45.463508002023865" lon="9.197660947119676"><ele>126.0</ele><time>2026-04-25T10:20:37Z</time></trkpt><trkpt lat="45.46353788904805" lon="9.197565304874278"><ele>125.49999999999999</ele><time>2026-04-25T10:20:40Z</time></trkpt><trkpt lat="45.463556773480484" lon="9.197476122667197"><ele>125.0</ele><time>2026-04-25T10:20:43Z</time></trkpt><trkpt lat="45.46356482511189" lon="9.197367934591766"><ele>124.83333333333333</ele><time>2026-04-25T10:20:45Z</time></trkpt><trkpt lat="45.4636024904453" lon="9.19723801208364"><ele>124.66666666666666</ele><time>2026-04-25T10:20:47Z</time></trkpt><trkpt lat="45.463654349827" lon="9.197077079139586"><ele>124.5</ele><time>2026-04-25T10:20:49Z</time></trkpt><trkpt lat="45.46369083008183" lon="9.197000786154481"><ele>124.33333333333334</ele><time>2026-04-25T10:20:50Z</time></trkpt><trkpt lat="45.46371739051408" lon="9.196915177657084"><ele>124.16666666666667</ele><time>2026-04-25T10:20:51Z</time></trkpt><trkpt lat="45.463746230838275" lon="9.196827168923578"><ele>124.0</ele><time>2026-04-25T10:20:52Z</time></trkpt><trkpt lat="45.4637674839589" lon="9.196737091567108"><ele>125.4</ele><time>2026-04-25T10:20:53Z</time></trkpt><trkpt lat="45.463801635443794" lon="9.1966583787698"><ele>126.80000000000001</ele><time>2026-04-25T10:20:54Z</time></trkpt><trkpt lat="45.46384890144803" lon="9.196496378589506"><ele>128.2</ele><time>2026-04-25T10:20:56Z</time></trkpt><trkpt lat="45.463910630372894" lon="9.196358635780486"><ele>129.6</ele><time>2026-04-25T10:20:58Z</time></trkpt><trkpt lat="45.463961319776296" lon="9.196264073920979"><ele>131.0</ele><time>2026-04-25T10:21:00Z</time></trkpt><trkpt lat="45.46398896131992" lon="9.196150813994425"><ele>131.2</ele><time>2026-04-25T10:21:03Z</time></trkpt><trkpt lat="45.46396598665678" lon="9.196062124929131"><ele>131.39999999999998</ele><time>2026-04-25T10:21:06Z</time></trkpt><trkpt lat="45.46387867451214" lon="9.196002955201369"><ele>131.6</ele><time>2026-04-25T10:21:08Z</time></trkpt><trkpt lat="45.463786768444315" lon="9.195934266084723"><ele>131.79999999999998</ele><time>2026-04-25T10:21:10Z</time></trkpt><trkpt lat="45.463682562840035" lon="9.19585947640252"><ele>132.0</ele><time>2026-04-25T10:21:12Z</time></trkpt><trkpt lat="45.463574644189855" lon="9.195781833736122"><ele>130.6</ele><time>2026-04-25T10:21:14Z</time></trkpt><trkpt lat="45.4634746630682" lon="9.195701669501723"><ele>129.2</ele><time>2026-04-25T10:21:16Z</time></trkpt><trkpt lat="45.463391203997745" lon="9.195596950124328"><ele>127.8</ele><time>2026-04-25T10:21:18Z</time></trkpt><trkpt lat="45.46331124541173" lon="9.19549481053181"><ele>126.4</ele><time>2026-04-25T10:21:20Z</time></trkpt><trkpt lat="45.46324775380406" lon="9.195385642838863"><ele>125.0</ele><time>2026-04-25T10:21:22Z</time></trkpt><trkpt lat="45.463194622387675" lon="9.195265799413512"><ele>125.0</ele><time>2026-04-25T10:21:24Z</time></trkpt><trkpt lat="45.463153735597416" lon="9.19514550756039"><ele>125.0</ele><time>2026-04-25T10:21:26Z</time></trkpt><trkpt lat="45.46310899354531" lon="9.195045328167307"><ele>125.0</ele><time>2026-04-25T10:21:28Z</time></trkpt><trkpt lat="45.46305735422988" lon="9.19495187281403"><ele>125.0</ele><time>2026-04-25T10:21:30Z</time></trkpt><trkpt lat="45.46300135471683" lon="9.194838772803866"><ele>125.0</ele><time>2026-04-25T10:21:32Z</time></trkpt><trkpt lat="45.46294559272471" lon="9.194707063430165"><ele>125.4</ele><time>2026-04-25T10:21:34Z</time></trkpt><trkpt lat="45.462873683738216" lon="9.1945771681818"><ele>125.8</ele><time>2026-04-25T10:21:36Z</time></trkpt><trkpt lat="45.46280891426986" lon="9.194444650333072"><ele>126.19999999999999</ele><time>2026-04-25T10:21:38Z</time></trkpt><trkpt lat="45.462745026329316" lon="9.194309261919935"><ele>126.6</ele><time>2026-04-25T10:21:40Z</time></trkpt><trkpt lat="45.462689816235034" lon="9.194190898439734"><ele>127.0</ele><time>2026-04-25T10:21:42Z</time></trkpt><trkpt lat="45.46265181343392" lon="9.194109148650654"><ele>127.0</ele><time>2026-04-25T10:21:44Z</time></trkpt><trkpt lat="45.462605483551464" lon="9.194009722075858"><ele>127.0</ele><time>2026-04-25T10:21:47Z</time></trkpt><trkpt lat="45.46258466258674" lon="9.193907552092538"><ele>127.0</ele><time>2026-04-25T10:21:50Z</time></trkpt><trkpt lat="45.46243417767801" lon="9.193643657067577"><ele>127.0</ele><time>2026-04-25T10:22:06Z</time></trkpt><trkpt lat="45.46236386443615" lon="9.193506261838431"><ele>127.16666666666667</ele><time>2026-04-25T10:22:08Z</time></trkpt><trkpt lat="45.4623215465859" lon="9.193427319032386"><ele>127.33333333333334</ele><time>2026-04-25T10:22:09Z</time></trkpt><trkpt lat="45.46227833684502" lon="9.193337818737849"><ele>127.5</ele><time>2026-04-25T10:22:10Z</time></trkpt><trkpt lat="45.462233992397415" lon="9.193245182720807"><ele>127.66666666666666</ele><time>2026-04-25T10:22:11Z</time></trkpt><trkpt lat="45.462191267630836" lon="9.19315805746117"><ele>127.83333333333333</ele><time>2026-04-25T10:22:12Z</time></trkpt><trkpt lat="45.46214807662921" lon="9.193064463199926"><ele>128.0</ele><time>2026-04-25T10:22:13Z</time></trkpt><trkpt lat="45.46209693826669" lon="9.192971188906528"><ele>129.0</ele><time>2026-04-25T10:22:14Z</time></trkpt><trkpt lat="45.46204248912654" lon="9.192875882406659"><ele>130.0</ele><time>2026-04-25T10:22:15Z</time></trkpt><trkpt lat="45.46198396317337" lon="9.192781890826048"><ele>131.0</ele><time>2026-04-25T10:22:16Z</time></trkpt><trkpt lat="45.46192086251616" lon="9.192688366270973"><ele>132.0</ele><time>2026-04-25T10:22:17Z</time></trkpt><trkpt lat="45.46185483811741" lon="9.1925995543941"><ele>133.0</ele><time>2026-04-25T10:22:18Z</time></trkpt><trkpt lat="45.461786136655796" lon="9.192510111039605"><ele>134.0</ele><time>2026-04-25T10:22:19Z</time></trkpt><trkpt lat="45.461721680368335" lon="9.192414204818578"><ele>133.0</ele><time>2026-04-25T10:22:20Z</time></trkpt><trkpt lat="45.461655739954104" lon="9.192318938266643"><ele>132.0</ele><time>2026-04-25T10:22:21Z</time></trkpt><trkpt lat="45.46159043653004" lon="9.192223465308565"><ele>131.0</ele><time>2026-04-25T10:22:22Z</time></trkpt><trkpt lat="45.461524873834264" lon="9.192126024492667"><ele>130.0</ele><time>2026-04-25T10:22:23Z</time></trkpt><trkpt lat="45.46146423477691" lon="9.192031214842665"><ele>129.0</ele><time>2026-04-25T10:22:24Z</time></trkpt><trkpt lat="45.46140324345614" lon="9.191947470256112"><ele>128.99999999999997</ele><time>2026-04-25T10:22:25Z</time></trkpt><trkpt lat="45.46134871336082" lon="9.191869683080377"><ele>129.0</ele><time>2026-04-25T10:22:25.999Z</time></trkpt><trkpt lat="45.46130352094099" lon="9.191804709144506"><ele>129.0</ele><time>2026-04-25T10:22:26.999Z</time></trkpt><trkpt lat="45.46123699177455" lon="9.191709818238484"><ele>129.0</ele><time>2026-04-25T10:22:29Z</time></trkpt><trkpt lat="45.46119046345291" lon="9.191646207873683"><ele>129.0</ele><time>2026-04-25T10:22:31Z</time></trkpt><trkpt lat="45.461152677732805" lon="9.191569120314265"><ele>128.99999999999997</ele><time>2026-04-25T10:22:34Z</time></trkpt><trkpt lat="45.46110848667308" lon="9.191483637701415"><ele>129.0</ele><time>2026-04-25T10:22:37Z</time></trkpt><trkpt lat="45.46105425585943" lon="9.191434035628518"><ele>128.33333333333334</ele><time>2026-04-25T10:22:40Z</time></trkpt><trkpt lat="45.460999050901094" lon="9.191344744574078"><ele>127.66666666666666</ele><time>2026-04-25T10:22:43Z</time></trkpt><trkpt lat="45.46093989768632" lon="9.191254250233458"><ele>127.0</ele><time>2026-04-25T10:22:45Z</time></trkpt><trkpt lat="45.46090356867349" lon="9.191141862060022"><ele>126.33333333333333</ele><time>2026-04-25T10:22:47Z</time></trkpt><trkpt lat="45.460855488570985" lon="9.191061584109345"><ele>125.66666666666666</ele><time>2026-04-25T10:22:49Z</time></trkpt><trkpt lat="45.46077463365125" lon="9.191007994811276"><ele>125.0</ele><time>2026-04-25T10:22:51Z</time></trkpt><trkpt lat="45.46068308149276" lon="9.190982144671844"><ele>125.0</ele><time>2026-04-25T10:22:53Z</time></trkpt><trkpt lat="45.460571708220684" lon="9.191009657913336"><ele>125.0</ele><time>2026-04-25T10:22:55Z</time></trkpt><trkpt lat="45.46047490069056" lon="9.191005612018511"><ele>125.0</ele><time>2026-04-25T10:22:57Z</time></trkpt><trkpt lat="45.460378355193455" lon="9.191070166342248"><ele>125.0</ele><time>2026-04-25T10:22:59Z</time></trkpt><trkpt lat="45.460294695649154" lon="9.191186366294563"><ele>125.0</ele><time>2026-04-25T10:23:01Z</time></trkpt><trkpt lat="45.460231144083956" lon="9.191282063651283"><ele>126.0</ele><time>2026-04-25T10:23:03Z</time></trkpt><trkpt lat="45.4601424440936" lon="9.191328368909549"><ele>127.0</ele><time>2026-04-25T10:23:05Z</time></trkpt><trkpt lat="45.46006860569204" lon="9.191385903504772"><ele>128.0</ele><time>2026-04-25T10:23:07Z</time></trkpt><trkpt lat="45.459984051583334" lon="9.191446275252577"><ele>129.0</ele><time>2026-04-25T10:23:09Z</time></trkpt><trkpt lat="45.459892580325096" lon="9.191513333679842"><ele>130.0</ele><time>2026-04-25T10:23:11Z</time></trkpt><trkpt lat="45.45981163104813" lon="9.191589531155586"><ele>130.0</ele><time>2026-04-25T10:23:13Z</time></trkpt><trkpt lat="45.45972097961443" lon="9.191638452703405"><ele>130.0</ele><time>2026-04-25T10:23:15Z</time></trkpt><trkpt lat="45.45963602368853" lon="9.191710415276232"><ele>130.0</ele><time>2026-04-25T10:23:17Z</time></trkpt><trkpt lat="45.459569450962114" lon="9.191788003070563"><ele>130.0</ele><time>2026-04-25T10:23:19Z</time></trkpt><trkpt lat="45.45951166188091" lon="9.191847941177251"><ele>130.0</ele><time>2026-04-25T10:23:21Z</time></trkpt><trkpt lat="45.459459890833074" lon="9.19190518615814"><ele>130.0</ele><time>2026-04-25T10:23:24Z</time></trkpt><trkpt lat="45.45939371268052" lon="9.191856346291443"><ele>129.83333333333334</ele><time>2026-04-25T10:23:54Z</time></trkpt><trkpt lat="45.4594466358502" lon="9.191803049132343"><ele>129.66666666666669</ele><time>2026-04-25T10:24:03Z</time></trkpt><trkpt lat="45.45943056030974" lon="9.191686445933652"><ele>129.5</ele><time>2026-04-25T10:24:06Z</time></trkpt><trkpt lat="45.45935533213396" lon="9.191683085418841"><ele>129.33333333333334</ele><time>2026-04-25T10:24:11Z</time></trkpt><trkpt lat="45.459361499187494" lon="9.191570197118265"><ele>129.16666666666666</ele><time>2026-04-25T10:24:13Z</time></trkpt><trkpt lat="45.45929116390653" lon="9.191540206851354"><ele>129.0</ele><time>2026-04-25T10:24:15Z</time></trkpt><trkpt lat="45.45920266595996" lon="9.19154800753661"><ele>129.0</ele><time>2026-04-25T10:24:17Z</time></trkpt><trkpt lat="45.45913778212965" lon="9.19158032038997"><ele>129.0</ele><time>2026-04-25T10:24:45Z</time></trkpt><trkpt lat="45.459117030815534" lon="9.191669945766469"><ele>129.0</ele><time>2026-04-25T10:24:53.048Z</time></trkpt><trkpt lat="45.4594228699251" lon="9.191767145231328"><ele>129.0</ele><time>2026-04-25T10:25:04.51Z</time></trkpt><trkpt lat="45.45930868429124" lon="9.19165621065707"><ele>129.0</ele><time>2026-04-25T10:26:33.678Z</time></trkpt><trkpt lat="45.4594228699251" lon="9.191767145231328"><ele>129.0</ele><time>2026-04-25T10:27:02.395Z</time></trkpt><trkpt lat="45.459350045027094" lon="9.191683704020821"><ele>129.0</ele><time>2026-04-25T10:30:45.007Z</time></trkpt><trkpt lat="45.4594228699251" lon="9.191767145231328"><ele>129.0</ele><time>2026-04-25T10:31:17.004Z</time></trkpt><trkpt lat="45.459525189205905" lon="9.19179428163726"><ele>129.0</ele><time>2026-04-25T10:41:11.945Z</time></trkpt><trkpt lat="45.45956527005032" lon="9.191867742634027"><ele>129.0</ele><time>2026-04-25T10:41:19.007Z</time></trkpt><trkpt lat="45.4594228699251" lon="9.191767145231328"><ele>129.0</ele><time>2026-04-25T10:59:52.985Z</time></trkpt><trkpt lat="45.45957926815585" lon="9.191861527793105"><ele>129.0</ele><time>2026-04-25T11:00:04.985Z</time></trkpt><trkpt lat="45.4594228699251" lon="9.191767145231328"><ele>129.0</ele><time>2026-04-25T11:00:46.985Z</time></trkpt><trkpt lat="45.45957921917952" lon="9.19186121936362"><ele>129.0</ele><time>2026-04-25T11:01:18.985Z</time></trkpt><trkpt lat="45.4594228699251" lon="9.191767145231328"><ele>129.0</ele><time>2026-04-25T11:01:23.965Z</time></trkpt><trkpt lat="45.45958998160108" lon="9.191845124648017"><ele>128.99999999999997</ele><time>2026-04-25T11:02:17.989Z</time></trkpt><trkpt lat="45.45952286132636" lon="9.191817202738886"><ele>129.0</ele><time>2026-04-25T11:02:24.977Z</time></trkpt><trkpt lat="45.45946173462855" lon="9.19185931267232"><ele>129.0</ele><time>2026-04-25T11:02:30.983Z</time></trkpt><trkpt lat="45.459417384381986" lon="9.191932682776653"><ele>129.0</ele><time>2026-04-25T11:02:43.994Z</time></trkpt><trkpt lat="45.459360228094226" lon="9.19197778911132"><ele>129.0</ele><time>2026-04-25T11:02:50.996Z</time></trkpt><trkpt lat="45.459307296631" lon="9.192028089344792"><ele>128.99999999999997</ele><time>2026-04-25T11:02:58.998Z</time></trkpt><trkpt lat="45.45926934158398" lon="9.192107168159438"><ele>129.0</ele><time>2026-04-25T11:03:07.999Z</time></trkpt><trkpt lat="45.45921523105332" lon="9.192172757387548"><ele>128.99999999999997</ele><time>2026-04-25T11:03:27.001Z</time></trkpt><trkpt lat="45.4592184825227" lon="9.192266207455887"><ele>129.0</ele><time>2026-04-25T11:03:37.001Z</time></trkpt><trkpt lat="45.45921673283569" lon="9.192368792294182"><ele>129.0</ele><time>2026-04-25T11:03:47.001Z</time></trkpt><trkpt lat="45.459210894146516" lon="9.192474710907389"><ele>129.0</ele><time>2026-04-25T11:03:59.001Z</time></trkpt><trkpt lat="45.45924726020212" lon="9.192560586667042"><ele>129.0</ele><time>2026-04-25T11:04:04.002Z</time></trkpt><trkpt lat="45.45926876362519" lon="9.192650520776128"><ele>128.99999999999997</ele><time>2026-04-25T11:04:11.002Z</time></trkpt><trkpt lat="45.459273955336954" lon="9.192745249033338"><ele>129.0</ele><time>2026-04-25T11:04:18.002Z</time></trkpt><trkpt lat="45.459332659826394" lon="9.192802902545745"><ele>128.99999999999997</ele><time>2026-04-25T11:04:33.001Z</time></trkpt><trkpt lat="45.45935797831956" lon="9.192886698138373"><ele>129.0</ele><time>2026-04-25T11:04:38.001Z</time></trkpt><trkpt lat="45.45941031675913" lon="9.192940835635456"><ele>129.0</ele><time>2026-04-25T11:04:59.001Z</time></trkpt><trkpt lat="45.459462302378185" lon="9.192992698493796"><ele>129.0</ele><time>2026-04-25T11:05:08.001Z</time></trkpt><trkpt lat="45.45951447174131" lon="9.19304474468055"><ele>129.0</ele><time>2026-04-25T11:05:16.001Z</time></trkpt><trkpt lat="45.45957248427942" lon="9.193100840633903"><ele>128.99999999999997</ele><time>2026-04-25T11:05:26.001Z</time></trkpt><trkpt lat="45.459628719636854" lon="9.193154018945837"><ele>129.0</ele><time>2026-04-25T11:05:41.001Z</time></trkpt><trkpt lat="45.459682923557125" lon="9.19320527634558"><ele>128.57142857142856</ele><time>2026-04-25T11:05:55.001Z</time></trkpt><trkpt lat="45.459740364060515" lon="9.193259689837527"><ele>128.14285714285714</ele><time>2026-04-25T11:06:09.001Z</time></trkpt><trkpt lat="45.459745080578806" lon="9.193353808194079"><ele>127.71428571428571</ele><time>2026-04-25T11:06:16.001Z</time></trkpt><trkpt lat="45.45981253864234" lon="9.193381045050305"><ele>127.28571428571428</ele><time>2026-04-25T11:06:24.002Z</time></trkpt><trkpt lat="45.45986882978783" lon="9.193446282080238"><ele>126.85714285714286</ele><time>2026-04-25T11:06:38.002Z</time></trkpt><trkpt lat="45.45993104349321" lon="9.193498665171813"><ele>126.42857142857143</ele><time>2026-04-25T11:06:46.002Z</time></trkpt><trkpt lat="45.45998304184211" lon="9.193555950044221"><ele>126.0</ele><time>2026-04-25T11:06:53.001Z</time></trkpt><trkpt lat="45.46004167498964" lon="9.193613743996682"><ele>126.0</ele><time>2026-04-25T11:07:01.001Z</time></trkpt><trkpt lat="45.46010643995134" lon="9.193659460892823"><ele>126.0</ele><time>2026-04-25T11:07:08.001Z</time></trkpt><trkpt lat="45.460161994107196" lon="9.193719097142692"><ele>126.0</ele><time>2026-04-25T11:07:19.001Z</time></trkpt><trkpt lat="45.46021583681916" lon="9.193797001735971"><ele>126.0</ele><time>2026-04-25T11:07:25Z</time></trkpt><trkpt lat="45.460273531716936" lon="9.193834991446801"><ele>126.0</ele><time>2026-04-25T11:07:32Z</time></trkpt><trkpt lat="45.460339797994386" lon="9.19386227916091"><ele>126.0</ele><time>2026-04-25T11:07:39Z</time></trkpt><trkpt lat="45.46040677908571" lon="9.193879212701143"><ele>126.0</ele><time>2026-04-25T11:07:50Z</time></trkpt><trkpt lat="45.46044411168279" lon="9.193965659081835"><ele>126.14285714285714</ele><time>2026-04-25T11:08:05.001Z</time></trkpt><trkpt lat="45.460492345696046" lon="9.194032576193917"><ele>126.28571428571428</ele><time>2026-04-25T11:08:14.001Z</time></trkpt><trkpt lat="45.460535838367484" lon="9.194097848491769"><ele>126.42857142857143</ele><time>2026-04-25T11:08:27.001Z</time></trkpt><trkpt lat="45.4605600269131" lon="9.194186834677163"><ele>126.57142857142857</ele><time>2026-04-25T11:08:34.001Z</time></trkpt><trkpt lat="45.46062385330398" lon="9.19423516432158"><ele>126.71428571428571</ele><time>2026-04-25T11:08:41.001Z</time></trkpt><trkpt lat="45.46069304681272" lon="9.194261462190454"><ele>126.85714285714286</ele><time>2026-04-25T11:08:48Z</time></trkpt><trkpt lat="45.460723026608804" lon="9.19434710335894"><ele>127.0</ele><time>2026-04-25T11:08:53Z</time></trkpt><trkpt lat="45.46078678227274" lon="9.194368017239542"><ele>127.00000000000001</ele><time>2026-04-25T11:08:59Z</time></trkpt><trkpt lat="45.46085061548162" lon="9.194409573618401"><ele>127.0</ele><time>2026-04-25T11:09:06Z</time></trkpt><trkpt lat="45.460911612207475" lon="9.194442360383059"><ele>127.0</ele><time>2026-04-25T11:09:12Z</time></trkpt><trkpt lat="45.460973584668714" lon="9.194478436715299"><ele>127.0</ele><time>2026-04-25T11:09:21Z</time></trkpt><trkpt lat="45.46103717896378" lon="9.19453951327121"><ele>127.00000000000001</ele><time>2026-04-25T11:09:55Z</time></trkpt><trkpt lat="45.46109838403459" lon="9.19458029166362"><ele>127.0</ele><time>2026-04-25T11:10:03Z</time></trkpt><trkpt lat="45.46122747200102" lon="9.194646462726732"><ele>127.0</ele><time>2026-04-25T11:10:12Z</time></trkpt><trkpt lat="45.46129904710704" lon="9.194684463141046"><ele>127.0</ele><time>2026-04-25T11:10:13Z</time></trkpt><trkpt lat="45.461349870577095" lon="9.194743500608023"><ele>127.0</ele><time>2026-04-25T11:10:41Z</time></trkpt><trkpt lat="45.46141871605181" lon="9.194767837002248"><ele>127.0</ele><time>2026-04-25T11:10:50Z</time></trkpt><trkpt lat="45.461485951459096" lon="9.194793351110636"><ele>127.0</ele><time>2026-04-25T11:10:57Z</time></trkpt><trkpt lat="45.46151490466568" lon="9.194878626235056"><ele>127.0</ele><time>2026-04-25T11:11:05Z</time></trkpt><trkpt lat="45.46148484387654" lon="9.194965620726332"><ele>127.0</ele><time>2026-04-25T11:11:08Z</time></trkpt><trkpt lat="45.46145327160488" lon="9.195053325200755"><ele>126.33333333333334</ele><time>2026-04-25T11:11:12Z</time></trkpt><trkpt lat="45.46142136652279" lon="9.195138380601342"><ele>125.66666666666667</ele><time>2026-04-25T11:11:17Z</time></trkpt><trkpt lat="45.46137104928321" lon="9.195204525953175"><ele>125.0</ele><time>2026-04-25T11:11:24Z</time></trkpt><trkpt lat="45.46133610969993" lon="9.195290530976449"><ele>124.33333333333334</ele><time>2026-04-25T11:11:31Z</time></trkpt><trkpt lat="45.46128731880066" lon="9.195392673847188"><ele>123.66666666666667</ele><time>2026-04-25T11:11:42Z</time></trkpt><trkpt lat="45.461346925897665" lon="9.195424189615702"><ele>123.0</ele><time>2026-04-25T11:13:17Z</time></trkpt><trkpt lat="45.46145407844542" lon="9.195496706802755"><ele>123.0</ele><time>2026-04-25T11:13:24.069Z</time></trkpt><trkpt lat="45.461401099237364" lon="9.195445643435873"><ele>123.0</ele><time>2026-04-25T11:16:30Z</time></trkpt><trkpt lat="45.46130537767737" lon="9.195589607838684"><ele>123.0</ele><time>2026-04-25T11:16:53.459Z</time></trkpt><trkpt lat="45.46140394696881" lon="9.195571786097682"><ele>123.0</ele><time>2026-04-25T11:16:59.466Z</time></trkpt><trkpt lat="45.46159806868028" lon="9.19552610322009"><ele>123.0</ele><time>2026-04-25T12:59:46.781Z</time></trkpt><trkpt lat="45.46145218056183" lon="9.195483135816104"><ele>123.0</ele><time>2026-04-25T12:59:52.004Z</time></trkpt><trkpt lat="45.461394652319875" lon="9.195536588947164"><ele>123.0</ele><time>2026-04-25T12:59:54.004Z</time></trkpt><trkpt lat="45.46140499820252" lon="9.195440022480312"><ele>123.0</ele><time>2026-04-25T13:07:13.999Z</time></trkpt><trkpt lat="45.46136884971231" lon="9.195517817360686"><ele>123.0</ele><time>2026-04-25T13:07:20.999Z</time></trkpt><trkpt lat="45.46132058923685" lon="9.195590953487635"><ele>123.0</ele><time>2026-04-25T13:07:39.999Z</time></trkpt><trkpt lat="45.461498569578566" lon="9.195508318145574"><ele>123.0</ele><time>2026-04-25T13:07:57.999Z</time></trkpt><trkpt lat="45.46139521390445" lon="9.19559595551058"><ele>123.0</ele><time>2026-04-25T13:07:58.999Z</time></trkpt><trkpt lat="45.461311785361595" lon="9.195582028718128"><ele>123.0</ele><time>2026-04-25T13:08:02.999Z</time></trkpt><trkpt lat="45.461244249938986" lon="9.1956331693457"><ele>123.0</ele><time>2026-04-25T13:08:04.999Z</time></trkpt><trkpt lat="45.4614489654803" lon="9.195495869663793"><ele>123.00000000000001</ele><time>2026-04-25T13:09:05.999Z</time></trkpt><trkpt lat="45.461410112919204" lon="9.195408680474541"><ele>123.0</ele><time>2026-04-25T13:09:16.999Z</time></trkpt><trkpt lat="45.461371237709805" lon="9.195494365847967"><ele>123.00000000000001</ele><time>2026-04-25T13:09:17.999Z</time></trkpt><trkpt lat="45.46130763781864" lon="9.195539726893534"><ele>123.00000000000001</ele><time>2026-04-25T13:09:18.999Z</time></trkpt><trkpt lat="45.461232336955455" lon="9.195573650114312"><ele>123.0</ele><time>2026-04-25T13:09:39.999Z</time></trkpt><trkpt lat="45.46127974261298" lon="9.19549588386826"><ele>123.00000000000001</ele><time>2026-04-25T13:09:41.999Z</time></trkpt><trkpt lat="45.46127378971729" lon="9.19539998587487"><ele>123.00000000000001</ele><time>2026-04-25T13:09:44.999Z</time></trkpt><trkpt lat="45.46133058948428" lon="9.19549480553122"><ele>123.0</ele><time>2026-04-25T13:10:19.024Z</time></trkpt><trkpt lat="45.46134124023792" lon="9.195339778667682"><ele>123.0</ele><time>2026-04-25T13:10:38.999Z</time></trkpt><trkpt lat="45.461348250792156" lon="9.195245140144669"><ele>123.0</ele><time>2026-04-25T13:10:43.999Z</time></trkpt><trkpt lat="45.46140140801881" lon="9.195163472900095"><ele>123.0</ele><time>2026-04-25T13:10:49.999Z</time></trkpt><trkpt lat="45.4614534088024" lon="9.195081404716527"><ele>123.0</ele><time>2026-04-25T13:10:54.999Z</time></trkpt><trkpt lat="45.46141158902097" lon="9.195005119514155"><ele>123.0</ele><time>2026-04-25T13:11:12.999Z</time></trkpt><trkpt lat="45.46134963745494" lon="9.194922028689462"><ele>123.66666666666667</ele><time>2026-04-25T13:11:15.999Z</time></trkpt><trkpt lat="45.461258638620755" lon="9.19479554420409"><ele>124.33333333333334</ele><time>2026-04-25T13:11:17.999Z</time></trkpt><trkpt lat="45.461217847432344" lon="9.194724592295474"><ele>125.0</ele><time>2026-04-25T13:11:20.999Z</time></trkpt><trkpt lat="45.4611687623212" lon="9.194661741227472"><ele>125.66666666666667</ele><time>2026-04-25T13:11:26.999Z</time></trkpt><trkpt lat="45.46110763997415" lon="9.19460687815082"><ele>126.33333333333334</ele><time>2026-04-25T13:11:30.999Z</time></trkpt><trkpt lat="45.46103851467504" lon="9.19454079610248"><ele>127.0</ele><time>2026-04-25T13:11:34.999Z</time></trkpt><trkpt lat="45.46098016938583" lon="9.194484760745015"><ele>127.0</ele><time>2026-04-25T13:11:38.999Z</time></trkpt><trkpt lat="45.460923378955236" lon="9.194430218689833"><ele>127.0</ele><time>2026-04-25T13:11:43.999Z</time></trkpt><trkpt lat="45.46086480270398" lon="9.194373961541814"><ele>127.0</ele><time>2026-04-25T13:11:48.999Z</time></trkpt><trkpt lat="45.460803197465765" lon="9.194316748013726"><ele>127.0</ele><time>2026-04-25T13:11:53.999Z</time></trkpt><trkpt lat="45.46077379156122" lon="9.194228613659762"><ele>127.0</ele><time>2026-04-25T13:12:01.999Z</time></trkpt><trkpt lat="45.46073750453785" lon="9.194144903362018"><ele>127.0</ele><time>2026-04-25T13:12:05.999Z</time></trkpt><trkpt lat="45.46068915021221" lon="9.194061533353018"><ele>127.0</ele><time>2026-04-25T13:12:09.999Z</time></trkpt><trkpt lat="45.4606367709039" lon="9.193992281075976"><ele>126.85714285714286</ele><time>2026-04-25T13:12:15.999Z</time></trkpt><trkpt lat="45.460570009004954" lon="9.193950834901448"><ele>126.71428571428571</ele><time>2026-04-25T13:12:20.999Z</time></trkpt><trkpt lat="45.46052604923954" lon="9.19388638096742"><ele>126.57142857142857</ele><time>2026-04-25T13:12:25.999Z</time></trkpt><trkpt lat="45.46047080884014" lon="9.193839723146"><ele>126.42857142857143</ele><time>2026-04-25T13:12:29.999Z</time></trkpt><trkpt lat="45.46040951222022" lon="9.193783168675992"><ele>126.28571428571428</ele><time>2026-04-25T13:12:33.999Z</time></trkpt><trkpt lat="45.460351197391205" lon="9.193736376274229"><ele>126.14285714285714</ele><time>2026-04-25T13:12:37.999Z</time></trkpt><trkpt lat="45.46029057152954" lon="9.193680756660237"><ele>126.0</ele><time>2026-04-25T13:12:43.999Z</time></trkpt><trkpt lat="45.46023912389693" lon="9.193603192125636"><ele>126.0</ele><time>2026-04-25T13:12:48.999Z</time></trkpt><trkpt lat="45.46018427402733" lon="9.193529925099236"><ele>126.0</ele><time>2026-04-25T13:12:53.999Z</time></trkpt><trkpt lat="45.4601318029451" lon="9.193458963624407"><ele>126.0</ele><time>2026-04-25T13:12:58.999Z</time></trkpt><trkpt lat="45.46009561691678" lon="9.193374076256871"><ele>126.0</ele><time>2026-04-25T13:13:03.999Z</time></trkpt><trkpt lat="45.46003681072407" lon="9.193291815326146"><ele>126.0</ele><time>2026-04-25T13:13:08.999Z</time></trkpt><trkpt lat="45.45999998306573" lon="9.193202674898716"><ele>126.0</ele><time>2026-04-25T13:13:13.999Z</time></trkpt><trkpt lat="45.46000900603075" lon="9.193107582823794"><ele>126.0</ele><time>2026-04-25T13:13:17.999Z</time></trkpt><trkpt lat="45.4599789946695" lon="9.19300129318546"><ele>126.0</ele><time>2026-04-25T13:13:23.999Z</time></trkpt><trkpt lat="45.4599259148607" lon="9.192942296965162"><ele>126.0</ele><time>2026-04-25T13:13:27.999Z</time></trkpt><trkpt lat="45.459873412546294" lon="9.192887291547574"><ele>126.0</ele><time>2026-04-25T13:13:31.999Z</time></trkpt><trkpt lat="45.45981851576971" lon="9.192838792161226"><ele>126.0</ele><time>2026-04-25T13:13:35.999Z</time></trkpt><trkpt lat="45.4597517166176" lon="9.192795206995838"><ele>126.0</ele><time>2026-04-25T13:13:40.999Z</time></trkpt><trkpt lat="45.45967857452072" lon="9.19279313651695"><ele>126.0</ele><time>2026-04-25T13:13:45.999Z</time></trkpt><trkpt lat="45.45961338495092" lon="9.192762843825314"><ele>126.0</ele><time>2026-04-25T13:13:50.999Z</time></trkpt><trkpt lat="45.459544898264205" lon="9.192726733825367"><ele>126.0</ele><time>2026-04-25T13:13:55.999Z</time></trkpt><trkpt lat="45.45947240423105" lon="9.192721898097593"><ele>126.0</ele><time>2026-04-25T13:14:00.999Z</time></trkpt><trkpt lat="45.459399482847004" lon="9.192687979885267"><ele>126.0</ele><time>2026-04-25T13:14:05.999Z</time></trkpt><trkpt lat="45.459334655049126" lon="9.19265525476634"><ele>126.0</ele><time>2026-04-25T13:14:10.999Z</time></trkpt><trkpt lat="45.45928896204865" lon="9.19258216315907"><ele>126.0</ele><time>2026-04-25T13:14:14.999Z</time></trkpt><trkpt lat="45.45924429519265" lon="9.192489000829209"><ele>126.0</ele><time>2026-04-25T13:14:19.999Z</time></trkpt><trkpt lat="45.45923439982859" lon="9.192393421960452"><ele>126.0</ele><time>2026-04-25T13:14:23.999Z</time></trkpt><trkpt lat="45.459262336397664" lon="9.192311409985544"><ele>126.42857142857143</ele><time>2026-04-25T13:14:27.999Z</time></trkpt><trkpt lat="45.45929814232652" lon="9.192211675110284"><ele>126.85714285714286</ele><time>2026-04-25T13:14:33.999Z</time></trkpt><trkpt lat="45.459334602017215" lon="9.192122312275364"><ele>127.28571428571428</ele><time>2026-04-25T13:14:38.999Z</time></trkpt><trkpt lat="45.459374742148015" lon="9.192036109789486"><ele>127.71428571428571</ele><time>2026-04-25T13:14:43.999Z</time></trkpt><trkpt lat="45.459422175762946" lon="9.191957104702919"><ele>128.14285714285714</ele><time>2026-04-25T13:14:48.999Z</time></trkpt><trkpt lat="45.45945999288891" lon="9.191880726938404"><ele>128.57142857142856</ele><time>2026-04-25T13:14:52.999Z</time></trkpt><trkpt lat="45.45950471761806" lon="9.19179171041176"><ele>129.0</ele><time>2026-04-25T13:14:57.999Z</time></trkpt><trkpt lat="45.45956054402564" lon="9.19171417200607"><ele>129.33333333333334</ele><time>2026-04-25T13:15:03.999Z</time></trkpt><trkpt lat="45.459621529672994" lon="9.191658292484494"><ele>129.66666666666669</ele><time>2026-04-25T13:15:08.999Z</time></trkpt><trkpt lat="45.459697716666675" lon="9.1911993"><ele>130.0</ele><time>2026-04-25T13:16:54.766Z</time></trkpt><trkpt lat="45.45964049999999" lon="9.19112015"><ele>131.16666666666669</ele><time>2026-04-25T13:17:13.186Z</time></trkpt><trkpt lat="45.4595871" lon="9.191020016666666"><ele>132.33333333333334</ele><time>2026-04-25T13:17:16.257Z</time></trkpt><trkpt lat="45.459514616666674" lon="9.190961833333333"><ele>133.5</ele><time>2026-04-25T13:17:21.071Z</time></trkpt><trkpt lat="45.459449766666665" lon="9.191022866666666"><ele>134.66666666666666</ele><time>2026-04-25T13:17:26.872Z</time></trkpt><trkpt lat="45.459415433333334" lon="9.19114495"><ele>135.83333333333331</ele><time>2026-04-25T13:17:30.977Z</time></trkpt><trkpt lat="45.459457400000005" lon="9.191217416666666"><ele>137.0</ele><time>2026-04-25T13:17:33.698Z</time></trkpt><trkpt lat="45.45952606666667" lon="9.191212649999999"><ele>137.00000000000003</ele><time>2026-04-25T13:17:38.967Z</time></trkpt><trkpt lat="45.459571833333335" lon="9.191143033333333"><ele>137.0</ele><time>2026-04-25T13:17:42.984Z</time></trkpt><trkpt lat="45.45959091666667" lon="9.191045766666669"><ele>137.0</ele><time>2026-04-25T13:17:46.867Z</time></trkpt><trkpt lat="45.45952224999999" lon="9.190961833333333"><ele>137.0</ele><time>2026-04-25T13:17:50.958Z</time></trkpt><trkpt lat="45.459457400000005" lon="9.190998083333334"><ele>137.0</ele><time>2026-04-25T13:17:56.97Z</time></trkpt><trkpt lat="45.459415433333334" lon="9.191078183333335"><ele>137.00000000000003</ele><time>2026-04-25T13:17:59.977Z</time></trkpt><trkpt lat="45.459430700000006" lon="9.19117165"><ele>137.0</ele><time>2026-04-25T13:18:02.888Z</time></trkpt><trkpt lat="45.459499366666655" lon="9.191227916666667"><ele>137.0</ele><time>2026-04-25T13:18:06.887Z</time></trkpt><trkpt lat="45.459568016666665" lon="9.191148750000002"><ele>137.0</ele><time>2026-04-25T13:18:12.988Z</time></trkpt><trkpt lat="45.45959473333334" lon="9.19103145"><ele>137.0</ele><time>2026-04-25T13:18:17.187Z</time></trkpt><trkpt lat="45.45954513333333" lon="9.190957066666666"><ele>137.0</ele><time>2026-04-25T13:18:20.175Z</time></trkpt><trkpt lat="45.45947265" lon="9.190978049999998"><ele>137.0</ele><time>2026-04-25T13:18:25.875Z</time></trkpt><trkpt lat="45.459415433333334" lon="9.191073416666667"><ele>137.0</ele><time>2026-04-25T13:18:29.697Z</time></trkpt><trkpt lat="45.459457400000005" lon="9.191200250000001"><ele>137.0</ele><time>2026-04-25T13:18:33.77Z</time></trkpt><trkpt lat="45.459506983333334" lon="9.191325183333333"><ele>137.0</ele><time>2026-04-25T13:18:37.973Z</time></trkpt><trkpt lat="45.4595375" lon="9.19140435"><ele>137.0</ele><time>2026-04-25T13:18:40.772Z</time></trkpt><trkpt lat="45.459575650000005" lon="9.1914854"><ele>137.0</ele><time>2026-04-25T13:19:13.668Z</time></trkpt><trkpt lat="45.45961380000001" lon="9.191593166666665"><ele>137.0</ele><time>2026-04-25T13:19:23.56Z</time></trkpt><trkpt lat="45.459575650000005" lon="9.191681866666666"><ele>137.0</ele><time>2026-04-25T13:19:26.575Z</time></trkpt><trkpt lat="45.459514616666674" lon="9.19176865"><ele>135.66666666666666</ele><time>2026-04-25T13:19:29.567Z</time></trkpt><trkpt lat="45.45943451666667" lon="9.191890716666668"><ele>134.33333333333331</ele><time>2026-04-25T13:19:32.571Z</time></trkpt><trkpt lat="45.45937728333333" lon="9.19197845"><ele>133.0</ele><time>2026-04-25T13:19:34.897Z</time></trkpt><trkpt lat="45.459327699999996" lon="9.192052833333333"><ele>131.66666666666666</ele><time>2026-04-25T13:19:36.763Z</time></trkpt><trkpt lat="45.459278100000006" lon="9.1921711"><ele>130.33333333333334</ele><time>2026-04-25T13:19:39.768Z</time></trkpt><trkpt lat="45.45926285000001" lon="9.192264549999999"><ele>129.0</ele><time>2026-04-25T13:19:42.575Z</time></trkpt><trkpt lat="45.459274300000004" lon="9.192378999999999"><ele>129.0</ele><time>2026-04-25T13:19:46.743Z</time></trkpt><trkpt lat="45.459312433333324" lon="9.192463866666666"><ele>129.0</ele><time>2026-04-25T13:19:51.564Z</time></trkpt><trkpt lat="45.4593811" lon="9.192540166666667"><ele>129.0</ele><time>2026-04-25T13:19:55.771Z</time></trkpt><trkpt lat="45.45945358333333" lon="9.1925888"><ele>129.0</ele><time>2026-04-25T13:20:01.581Z</time></trkpt><trkpt lat="45.4595375" lon="9.192619316666667"><ele>129.0</ele><time>2026-04-25T13:20:04.571Z</time></trkpt><trkpt lat="45.45971298333333" lon="9.192678449999999"><ele>129.0</ele><time>2026-04-25T13:20:07.566Z</time></trkpt><trkpt lat="45.45980835" lon="9.192710883333332"><ele>129.0</ele><time>2026-04-25T13:20:08.774Z</time></trkpt><trkpt lat="45.45994949999999" lon="9.1927557"><ele>129.0</ele><time>2026-04-25T13:20:10.566Z</time></trkpt><trkpt lat="45.46001652752832" lon="9.192933416178663"><ele>129.0</ele><time>2026-04-25T13:20:11.772Z</time></trkpt><trkpt lat="45.46011322717266" lon="9.192971145572557"><ele>129.0</ele><time>2026-04-25T13:20:13.356Z</time></trkpt><trkpt lat="45.46018806969209" lon="9.192999797587332"><ele>129.0</ele><time>2026-04-25T13:20:14.481Z</time></trkpt><trkpt lat="45.46025565576561" lon="9.193026337261728"><ele>129.0</ele><time>2026-04-25T13:20:15.682Z</time></trkpt><trkpt lat="45.46039471709032" lon="9.193080943763597"><ele>129.0</ele><time>2026-04-25T13:20:18.702Z</time></trkpt><trkpt lat="45.460475953219664" lon="9.193112843582295"><ele>129.0</ele><time>2026-04-25T13:20:21.686Z</time></trkpt><trkpt lat="45.46055652355523" lon="9.192837240021746"><ele>129.2</ele><time>2026-04-25T13:20:24.682Z</time></trkpt><trkpt lat="45.46059312997042" lon="9.192697852167587"><ele>129.4</ele><time>2026-04-25T13:20:27.767Z</time></trkpt><trkpt lat="45.460616109307686" lon="9.19261027509613"><ele>129.6</ele><time>2026-04-25T13:20:30.738Z</time></trkpt><trkpt lat="45.460648367091665" lon="9.192487336270581"><ele>129.8</ele><time>2026-04-25T13:20:33.741Z</time></trkpt><trkpt lat="45.46067400839463" lon="9.19238961410651"><ele>130.0</ele><time>2026-04-25T13:20:34.941Z</time></trkpt><trkpt lat="45.46071488998032" lon="9.192231949603768"><ele>128.8</ele><time>2026-04-25T13:20:36.7Z</time></trkpt><trkpt lat="45.46076965" lon="9.1920681"><ele>127.6</ele><time>2026-04-25T13:20:38.568Z</time></trkpt><trkpt lat="45.460796349999995" lon="9.19196605"><ele>126.4</ele><time>2026-04-25T13:20:39.768Z</time></trkpt><trkpt lat="45.46082686666667" lon="9.19183635"><ele>125.2</ele><time>2026-04-25T13:20:41.501Z</time></trkpt><trkpt lat="45.46084976666666" lon="9.191711433333333"><ele>124.0</ele><time>2026-04-25T13:20:43.899Z</time></trkpt><trkpt lat="45.4608612" lon="9.191617966666666"><ele>124.0</ele><time>2026-04-25T13:20:52.98Z</time></trkpt><trkpt lat="45.46085358333333" lon="9.191516883333332"><ele>124.00000000000001</ele><time>2026-04-25T13:21:01.773Z</time></trkpt><trkpt lat="45.460868833333336" lon="9.191416733333334"><ele>124.0</ele><time>2026-04-25T13:21:12.353Z</time></trkpt><trkpt lat="45.46089553333333" lon="9.191334716666667"><ele>124.0</ele><time>2026-04-25T13:21:14.771Z</time></trkpt><trkpt lat="45.46095074526937" lon="9.191278669839143"><ele>124.00000000000001</ele><time>2026-04-25T13:21:16.481Z</time></trkpt><trkpt lat="45.460869225601506" lon="9.191200270117843"><ele>124.0</ele><time>2026-04-25T13:21:17.68Z</time></trkpt><trkpt lat="45.460825810863604" lon="9.19111152609791"><ele>124.0</ele><time>2026-04-25T13:21:18.89Z</time></trkpt><trkpt lat="45.46078491666667" lon="9.190990450000001"><ele>124.16666666666667</ele><time>2026-04-25T13:21:20.474Z</time></trkpt><trkpt lat="45.46072768333333" lon="9.190920833333333"><ele>124.33333333333334</ele><time>2026-04-25T13:21:21.601Z</time></trkpt><trkpt lat="45.460652840233074" lon="9.190872076056488"><ele>124.5</ele><time>2026-04-25T13:21:23.874Z</time></trkpt><trkpt lat="45.460592677059246" lon="9.190838839026322"><ele>124.66666666666666</ele><time>2026-04-25T13:21:40.347Z</time></trkpt><trkpt lat="45.460509934406545" lon="9.19073157400197"><ele>124.83333333333333</ele><time>2026-04-25T13:21:42.785Z</time></trkpt><trkpt lat="45.460472100000004" lon="9.1906538"><ele>125.0</ele><time>2026-04-25T13:21:44.382Z</time></trkpt><trkpt lat="45.460411066666666" lon="9.190572733333331"><ele>126.2</ele><time>2026-04-25T13:21:46.711Z</time></trkpt><trkpt lat="45.460350033333334" lon="9.190501216666666"><ele>127.4</ele><time>2026-04-25T13:21:48.566Z</time></trkpt><trkpt lat="45.46025466666667" lon="9.190388683333333"><ele>128.6</ele><time>2026-04-25T13:21:51.57Z</time></trkpt><trkpt lat="45.46018981666666" lon="9.190309516666668"><ele>129.8</ele><time>2026-04-25T13:21:53.972Z</time></trkpt><trkpt lat="45.46014404999999" lon="9.190247533333334"><ele>131.0</ele><time>2026-04-25T13:21:55.759Z</time></trkpt><trkpt lat="45.46006011666667" lon="9.190131183333333"><ele>131.0</ele><time>2026-04-25T13:21:57.571Z</time></trkpt><trkpt lat="45.45999908333333" lon="9.190051083333332"><ele>131.0</ele><time>2026-04-25T13:21:58.762Z</time></trkpt><trkpt lat="45.45994949999999" lon="9.189982416666666"><ele>131.0</ele><time>2026-04-25T13:21:59.974Z</time></trkpt><trkpt lat="45.45988845" lon="9.189900399999999"><ele>131.0</ele><time>2026-04-25T13:22:01.771Z</time></trkpt><trkpt lat="45.45980453333333" lon="9.18982505"><ele>131.0</ele><time>2026-04-25T13:22:04.768Z</time></trkpt><trkpt lat="45.45972659153614" lon="9.18980351249763"><ele>131.0</ele><time>2026-04-25T13:22:06.566Z</time></trkpt><trkpt lat="45.45962701479945" lon="9.189978359911972"><ele>132.4</ele><time>2026-04-25T13:22:09.575Z</time></trkpt><trkpt lat="45.45958316896714" lon="9.190055349042295"><ele>133.8</ele><time>2026-04-25T13:22:10.777Z</time></trkpt><trkpt lat="45.45952050663957" lon="9.190166341481492"><ele>135.20000000000002</ele><time>2026-04-25T13:22:13.771Z</time></trkpt><trkpt lat="45.45945761822591" lon="9.19027867791674"><ele>136.6</ele><time>2026-04-25T13:22:19.542Z</time></trkpt><trkpt lat="45.459390027240126" lon="9.19039896633365"><ele>138.0</ele><time>2026-04-25T13:22:21.777Z</time></trkpt><trkpt lat="45.45933664024827" lon="9.190493436214519"><ele>138.0</ele><time>2026-04-25T13:22:23.352Z</time></trkpt><trkpt lat="45.45929172205866" lon="9.190570715331532"><ele>138.0</ele><time>2026-04-25T13:22:24.365Z</time></trkpt><trkpt lat="45.45923103164208" lon="9.190674747559962"><ele>138.0</ele><time>2026-04-25T13:22:25.472Z</time></trkpt><trkpt lat="45.459180277633266" lon="9.19076012573857"><ele>138.0</ele><time>2026-04-25T13:22:26.553Z</time></trkpt><trkpt lat="45.45912057666112" lon="9.190857079036098"><ele>138.0</ele><time>2026-04-25T13:22:27.76Z</time></trkpt><trkpt lat="45.45904633493019" lon="9.19097689502251"><ele>138.0</ele><time>2026-04-25T13:22:29.553Z</time></trkpt><trkpt lat="45.45899362136985" lon="9.191066233626692"><ele>137.83333333333334</ele><time>2026-04-25T13:22:31.978Z</time></trkpt><trkpt lat="45.458889" lon="9.191077233333335"><ele>137.66666666666666</ele><time>2026-04-25T13:22:36.781Z</time></trkpt><trkpt lat="45.45882414999999" lon="9.191002849999999"><ele>137.5</ele><time>2026-04-25T13:22:38.576Z</time></trkpt><trkpt lat="45.45875168333334" lon="9.190930366666667"><ele>137.33333333333331</ele><time>2026-04-25T13:22:41.572Z</time></trkpt><trkpt lat="45.45867920000001" lon="9.190991400000001"><ele>137.16666666666666</ele><time>2026-04-25T13:22:45.761Z</time></trkpt><trkpt lat="45.458637233333334" lon="9.191065783333332"><ele>137.0</ele><time>2026-04-25T13:22:47.569Z</time></trkpt><trkpt lat="45.45859146666667" lon="9.191147800000001"><ele>135.66666666666666</ele><time>2026-04-25T13:22:48.772Z</time></trkpt><trkpt lat="45.458518983333335" lon="9.191267966666668"><ele>134.33333333333331</ele><time>2026-04-25T13:22:50.567Z</time></trkpt><trkpt lat="45.45847319999999" lon="9.191349033333333"><ele>133.0</ele><time>2026-04-25T13:22:51.77Z</time></trkpt><trkpt lat="45.45841598333333" lon="9.1914444"><ele>131.66666666666666</ele><time>2026-04-25T13:22:53.574Z</time></trkpt><trkpt lat="45.45835113333333" lon="9.1915121"><ele>130.33333333333334</ele><time>2026-04-25T13:22:56.568Z</time></trkpt><trkpt lat="45.45827483333334" lon="9.191479683333334"><ele>129.0</ele><time>2026-04-25T13:23:00.774Z</time></trkpt><trkpt lat="45.45819855" lon="9.191390983333335"><ele>129.0</ele><time>2026-04-25T13:23:02.571Z</time></trkpt><trkpt lat="45.458122249999995" lon="9.191308983333332"><ele>129.0</ele><time>2026-04-25T13:23:03.772Z</time></trkpt><trkpt lat="45.45797729999999" lon="9.191177366666667"><ele>129.0</ele><time>2026-04-25T13:23:05.567Z</time></trkpt><trkpt lat="45.45788575" lon="9.191097266666667"><ele>129.0</ele><time>2026-04-25T13:23:06.772Z</time></trkpt><trkpt lat="45.45775985" lon="9.190990450000001"><ele>128.8</ele><time>2026-04-25T13:23:08.569Z</time></trkpt><trkpt lat="45.457702633333334" lon="9.190938"><ele>128.60000000000002</ele><time>2026-04-25T13:23:09.769Z</time></trkpt><trkpt lat="45.45764923333333" lon="9.190847400000001"><ele>128.4</ele><time>2026-04-25T13:23:11.575Z</time></trkpt><trkpt lat="45.45763778333333" lon="9.190751083333334"><ele>128.20000000000002</ele><time>2026-04-25T13:23:12.766Z</time></trkpt><trkpt lat="45.457614899999996" lon="9.190558433333333"><ele>128.0</ele><time>2026-04-25T13:23:14.571Z</time></trkpt><trkpt lat="45.45760345" lon="9.190425866666667"><ele>128.0</ele><time>2026-04-25T13:23:15.773Z</time></trkpt><trkpt lat="45.4575882" lon="9.190294266666667"><ele>128.0</ele><time>2026-04-25T13:23:17.348Z</time></trkpt><trkpt lat="45.45757675" lon="9.190195083333332"><ele>128.0</ele><time>2026-04-25T13:23:18.572Z</time></trkpt><trkpt lat="45.45754241666667" lon="9.1900158"><ele>128.0</ele><time>2026-04-25T13:23:21.54Z</time></trkpt><trkpt lat="45.45751571666666" lon="9.189918516666667"><ele>128.0</ele><time>2026-04-25T13:23:22.708Z</time></trkpt><trkpt lat="45.45749283333333" lon="9.1897831"><ele>128.66666666666666</ele><time>2026-04-25T13:23:23.908Z</time></trkpt><trkpt lat="45.45745468333333" lon="9.189542766666667"><ele>129.33333333333334</ele><time>2026-04-25T13:23:25.761Z</time></trkpt><trkpt lat="45.45741653333333" lon="9.189299583333332"><ele>130.0</ele><time>2026-04-25T13:23:27.549Z</time></trkpt><trkpt lat="45.45738983333334" lon="9.18909835"><ele>129.75</ele><time>2026-04-25T13:23:28.766Z</time></trkpt><trkpt lat="45.45737075" lon="9.18891048333333"><ele>129.5</ele><time>2026-04-25T13:23:30.328Z</time></trkpt><trkpt lat="45.45735232259196" lon="9.188726433333333"><ele>129.25</ele><time>2026-04-25T13:23:31.569Z</time></trkpt><trkpt lat="45.45736695" lon="9.188593866666668"><ele>129.0</ele><time>2026-04-25T13:23:32.574Z</time></trkpt><trkpt lat="45.45737075" lon="9.188425066666667"><ele>129.0</ele><time>2026-04-25T13:23:33.767Z</time></trkpt><trkpt lat="45.45737838333333" lon="9.188196183333334"><ele>129.0</ele><time>2026-04-25T13:23:35.504Z</time></trkpt><trkpt lat="45.45738601666667" lon="9.188040733333334"><ele>129.0</ele><time>2026-04-25T13:23:36.714Z</time></trkpt><trkpt lat="45.45739746666666" lon="9.187911983333333"><ele>129.0</ele><time>2026-04-25T13:23:37.911Z</time></trkpt><trkpt lat="45.45740128333333" lon="9.187765116666665"><ele>128.66666666666666</ele><time>2026-04-25T13:23:39.71Z</time></trkpt><trkpt lat="45.45736695" lon="9.187597266666668"><ele>128.33333333333334</ele><time>2026-04-25T13:23:42.71Z</time></trkpt><trkpt lat="45.457327117021" lon="9.18752434628781"><ele>128.0</ele><time>2026-04-25T13:23:43.951Z</time></trkpt><trkpt lat="45.45724486666666" lon="9.187533383333333"><ele>127.66666666666667</ele><time>2026-04-25T13:23:45.75Z</time></trkpt><trkpt lat="45.45714568333333" lon="9.187526700000001"><ele>127.33333333333334</ele><time>2026-04-25T13:23:47.569Z</time></trkpt><trkpt lat="45.45707703333334" lon="9.1875248"><ele>127.0</ele><time>2026-04-25T13:23:48.748Z</time></trkpt><trkpt lat="45.456963626794305" lon="9.18749307376369"><ele>127.0</ele><time>2026-04-25T13:23:50.573Z</time></trkpt><trkpt lat="45.45685958333333" lon="9.187507633333333"><ele>126.99999999999999</ele><time>2026-04-25T13:23:53.347Z</time></trkpt><trkpt lat="45.45679473333333" lon="9.187503816666668"><ele>126.99999999999999</ele><time>2026-04-25T13:23:54.573Z</time></trkpt><trkpt lat="45.4566803" lon="9.187494283333333"><ele>127.0</ele><time>2026-04-25T13:23:57.343Z</time></trkpt><trkpt lat="45.45658875000001" lon="9.1874857"><ele>127.0</ele><time>2026-04-25T13:23:59.768Z</time></trkpt><trkpt lat="45.45651245000001" lon="9.187478066666667"><ele>127.0</ele><time>2026-04-25T13:24:02.573Z</time></trkpt><trkpt lat="45.4564209" lon="9.187469483333333"><ele>127.0</ele><time>2026-04-25T13:24:05.465Z</time></trkpt></trkseg></trk></gpx>